<?xml version="1.0" encoding="UTF-8" standalone="no" ?>
<gpx xmlns="http://www.topografix.com/GPX/1/1" xmlns:xsi="http://www.w3.org/2001/XMLSchema-instance" xsi:schemaLocation="http://www.topografix.com/GPX/1/1 http://www.topografix.com/GPX/1/1/gpx.xsd" version="1.1" creator="VisuGPX - https://www.visugpx.com">
  <metadata>
    <name>2018-03-04 Bike ride-Georges de Reneins O v47k</name>
    <desc><![CDATA[2018-03-04 Bike ride-Georges de Reneins O v47k]]></desc>
  </metadata>
  <wpt lat="45.92451" lon="4.73696">
    <ele>174</ele>
    <name><![CDATA[2018-03-04 10:30 (Start)]]></name>
  </wpt>
  <wpt lat="45.92457" lon="4.73716">
    <ele>174</ele>
    <name><![CDATA[2018-03-04 10:30 (End)]]></name>
  </wpt>
  <trk>
    <name><![CDATA[2018-03-04 10:30]]></name>
    <trkseg>
      <trkpt lat="45.92451" lon="4.73696">
        <ele>174</ele>
        <time>2018-03-04T09:30:55.28Z</time>
      </trkpt>
      <trkpt lat="45.92458" lon="4.73741">
        <ele>174</ele>
        <time>2018-03-04T09:30:52.451Z</time>
      </trkpt>
      <trkpt lat="45.92458" lon="4.7374">
        <ele>174</ele>
        <time>2018-03-04T09:30:53.006Z</time>
      </trkpt>
      <trkpt lat="45.92452" lon="4.73722">
        <ele>174</ele>
        <time>2018-03-04T09:30:54.006Z</time>
      </trkpt>
      <trkpt lat="45.92457" lon="4.73719">
        <ele>174</ele>
        <time>2018-03-04T09:30:55.006Z</time>
      </trkpt>
      <trkpt lat="45.92463" lon="4.73716">
        <ele>174</ele>
        <time>2018-03-04T09:30:56.009Z</time>
      </trkpt>
      <trkpt lat="45.92459" lon="4.73711">
        <ele>174</ele>
        <time>2018-03-04T09:30:58Z</time>
      </trkpt>
      <trkpt lat="45.92456" lon="4.73706">
        <ele>174</ele>
        <time>2018-03-04T09:30:59Z</time>
      </trkpt>
      <trkpt lat="45.92463" lon="4.73713">
        <ele>174</ele>
        <time>2018-03-04T09:32:29Z</time>
      </trkpt>
      <trkpt lat="45.92465" lon="4.73712">
        <ele>174</ele>
        <time>2018-03-04T09:32:30Z</time>
      </trkpt>
      <trkpt lat="45.92469" lon="4.73701">
        <ele>174</ele>
        <time>2018-03-04T09:32:35Z</time>
      </trkpt>
      <trkpt lat="45.9247" lon="4.73698">
        <ele>174</ele>
        <time>2018-03-04T09:32:36Z</time>
      </trkpt>
      <trkpt lat="45.92471" lon="4.73688">
        <ele>174</ele>
        <time>2018-03-04T09:32:39Z</time>
      </trkpt>
      <trkpt lat="45.92471" lon="4.73685">
        <ele>174</ele>
        <time>2018-03-04T09:32:40Z</time>
      </trkpt>
      <trkpt lat="45.92471" lon="4.73672">
        <ele>174</ele>
        <time>2018-03-04T09:32:43Z</time>
      </trkpt>
      <trkpt lat="45.92472" lon="4.73668">
        <ele>174</ele>
        <time>2018-03-04T09:32:44Z</time>
      </trkpt>
      <trkpt lat="45.92473" lon="4.73655">
        <ele>174</ele>
        <time>2018-03-04T09:32:45Z</time>
      </trkpt>
      <trkpt lat="45.92474" lon="4.73644">
        <ele>174</ele>
        <time>2018-03-04T09:32:47Z</time>
      </trkpt>
      <trkpt lat="45.92474" lon="4.73638">
        <ele>174</ele>
        <time>2018-03-04T09:32:48Z</time>
      </trkpt>
      <trkpt lat="45.92474" lon="4.73627">
        <ele>174</ele>
        <time>2018-03-04T09:32:50Z</time>
      </trkpt>
      <trkpt lat="45.92473" lon="4.73621">
        <ele>174</ele>
        <time>2018-03-04T09:32:51Z</time>
      </trkpt>
      <trkpt lat="45.92472" lon="4.7361">
        <ele>174</ele>
        <time>2018-03-04T09:32:53Z</time>
      </trkpt>
      <trkpt lat="45.92471" lon="4.73604">
        <ele>174</ele>
        <time>2018-03-04T09:32:54Z</time>
      </trkpt>
      <trkpt lat="45.92471" lon="4.73592">
        <ele>174</ele>
        <time>2018-03-04T09:32:56Z</time>
      </trkpt>
      <trkpt lat="45.9247" lon="4.73586">
        <ele>174</ele>
        <time>2018-03-04T09:32:57Z</time>
      </trkpt>
      <trkpt lat="45.9247" lon="4.73574">
        <ele>173</ele>
        <time>2018-03-04T09:32:59Z</time>
      </trkpt>
      <trkpt lat="45.9247" lon="4.73569">
        <ele>173</ele>
        <time>2018-03-04T09:33:00Z</time>
      </trkpt>
      <trkpt lat="45.9247" lon="4.73559">
        <ele>173</ele>
        <time>2018-03-04T09:33:03Z</time>
      </trkpt>
      <trkpt lat="45.9247" lon="4.73555">
        <ele>173</ele>
        <time>2018-03-04T09:33:04Z</time>
      </trkpt>
      <trkpt lat="45.9247" lon="4.73546">
        <ele>173</ele>
        <time>2018-03-04T09:33:06Z</time>
      </trkpt>
      <trkpt lat="45.9247" lon="4.73542">
        <ele>173</ele>
        <time>2018-03-04T09:33:07Z</time>
      </trkpt>
      <trkpt lat="45.92471" lon="4.73532">
        <ele>174</ele>
        <time>2018-03-04T09:33:09Z</time>
      </trkpt>
      <trkpt lat="45.92473" lon="4.73519">
        <ele>174</ele>
        <time>2018-03-04T09:33:10Z</time>
      </trkpt>
      <trkpt lat="45.92473" lon="4.73508">
        <ele>174</ele>
        <time>2018-03-04T09:33:12Z</time>
      </trkpt>
      <trkpt lat="45.92472" lon="4.73503">
        <ele>174</ele>
        <time>2018-03-04T09:33:13Z</time>
      </trkpt>
      <trkpt lat="45.92471" lon="4.73491">
        <ele>173</ele>
        <time>2018-03-04T09:33:15Z</time>
      </trkpt>
      <trkpt lat="45.9247" lon="4.73484">
        <ele>173</ele>
        <time>2018-03-04T09:33:16Z</time>
      </trkpt>
      <trkpt lat="45.9247" lon="4.73471">
        <ele>173</ele>
        <time>2018-03-04T09:33:18Z</time>
      </trkpt>
      <trkpt lat="45.9247" lon="4.73464">
        <ele>173</ele>
        <time>2018-03-04T09:33:19Z</time>
      </trkpt>
      <trkpt lat="45.92469" lon="4.73456">
        <ele>173</ele>
        <time>2018-03-04T09:33:20Z</time>
      </trkpt>
      <trkpt lat="45.92468" lon="4.7345">
        <ele>173</ele>
        <time>2018-03-04T09:33:21Z</time>
      </trkpt>
      <trkpt lat="45.92466" lon="4.73442">
        <ele>173</ele>
        <time>2018-03-04T09:33:22Z</time>
      </trkpt>
      <trkpt lat="45.92463" lon="4.73435">
        <ele>173</ele>
        <time>2018-03-04T09:33:23Z</time>
      </trkpt>
      <trkpt lat="45.9246" lon="4.7343">
        <ele>173</ele>
        <time>2018-03-04T09:33:24Z</time>
      </trkpt>
      <trkpt lat="45.92456" lon="4.73425">
        <ele>173</ele>
        <time>2018-03-04T09:33:25Z</time>
      </trkpt>
      <trkpt lat="45.92452" lon="4.73422">
        <ele>173</ele>
        <time>2018-03-04T09:33:26Z</time>
      </trkpt>
      <trkpt lat="45.92447" lon="4.73418">
        <ele>173</ele>
        <time>2018-03-04T09:33:27Z</time>
      </trkpt>
      <trkpt lat="45.92442" lon="4.73415">
        <ele>172</ele>
        <time>2018-03-04T09:33:28Z</time>
      </trkpt>
      <trkpt lat="45.92438" lon="4.73411">
        <ele>172</ele>
        <time>2018-03-04T09:33:29Z</time>
      </trkpt>
      <trkpt lat="45.92433" lon="4.73406">
        <ele>172</ele>
        <time>2018-03-04T09:33:30Z</time>
      </trkpt>
      <trkpt lat="45.9243" lon="4.73401">
        <ele>172</ele>
        <time>2018-03-04T09:33:31Z</time>
      </trkpt>
      <trkpt lat="45.92427" lon="4.73394">
        <ele>172</ele>
        <time>2018-03-04T09:33:32Z</time>
      </trkpt>
      <trkpt lat="45.92425" lon="4.73386">
        <ele>172</ele>
        <time>2018-03-04T09:33:33Z</time>
      </trkpt>
      <trkpt lat="45.92424" lon="4.73379">
        <ele>172</ele>
        <time>2018-03-04T09:33:34Z</time>
      </trkpt>
      <trkpt lat="45.92423" lon="4.73371">
        <ele>172</ele>
        <time>2018-03-04T09:33:35Z</time>
      </trkpt>
      <trkpt lat="45.92422" lon="4.73363">
        <ele>172</ele>
        <time>2018-03-04T09:33:36Z</time>
      </trkpt>
      <trkpt lat="45.9242" lon="4.73355">
        <ele>171</ele>
        <time>2018-03-04T09:33:37Z</time>
      </trkpt>
      <trkpt lat="45.92419" lon="4.73347">
        <ele>171</ele>
        <time>2018-03-04T09:33:38Z</time>
      </trkpt>
      <trkpt lat="45.92418" lon="4.7334">
        <ele>171</ele>
        <time>2018-03-04T09:33:39Z</time>
      </trkpt>
      <trkpt lat="45.92417" lon="4.73332">
        <ele>171</ele>
        <time>2018-03-04T09:33:40Z</time>
      </trkpt>
      <trkpt lat="45.92417" lon="4.73325">
        <ele>171</ele>
        <time>2018-03-04T09:33:41Z</time>
      </trkpt>
      <trkpt lat="45.92416" lon="4.73317">
        <ele>171</ele>
        <time>2018-03-04T09:33:42Z</time>
      </trkpt>
      <trkpt lat="45.92415" lon="4.7331">
        <ele>171</ele>
        <time>2018-03-04T09:33:43Z</time>
      </trkpt>
      <trkpt lat="45.92415" lon="4.73302">
        <ele>171</ele>
        <time>2018-03-04T09:33:44Z</time>
      </trkpt>
      <trkpt lat="45.92414" lon="4.73295">
        <ele>171</ele>
        <time>2018-03-04T09:33:45Z</time>
      </trkpt>
      <trkpt lat="45.92414" lon="4.73287">
        <ele>171</ele>
        <time>2018-03-04T09:33:46Z</time>
      </trkpt>
      <trkpt lat="45.92413" lon="4.7328">
        <ele>171</ele>
        <time>2018-03-04T09:33:47Z</time>
      </trkpt>
      <trkpt lat="45.92413" lon="4.73272">
        <ele>171</ele>
        <time>2018-03-04T09:33:48Z</time>
      </trkpt>
      <trkpt lat="45.92412" lon="4.73264">
        <ele>171</ele>
        <time>2018-03-04T09:33:49Z</time>
      </trkpt>
      <trkpt lat="45.92412" lon="4.73256">
        <ele>171</ele>
        <time>2018-03-04T09:33:50Z</time>
      </trkpt>
      <trkpt lat="45.92411" lon="4.73248">
        <ele>171</ele>
        <time>2018-03-04T09:33:51Z</time>
      </trkpt>
      <trkpt lat="45.92411" lon="4.73241">
        <ele>171</ele>
        <time>2018-03-04T09:33:52Z</time>
      </trkpt>
      <trkpt lat="45.92411" lon="4.73233">
        <ele>171</ele>
        <time>2018-03-04T09:33:53Z</time>
      </trkpt>
      <trkpt lat="45.92411" lon="4.73226">
        <ele>171</ele>
        <time>2018-03-04T09:33:54Z</time>
      </trkpt>
      <trkpt lat="45.9241" lon="4.73219">
        <ele>171</ele>
        <time>2018-03-04T09:33:55Z</time>
      </trkpt>
      <trkpt lat="45.92409" lon="4.73212">
        <ele>171</ele>
        <time>2018-03-04T09:33:56Z</time>
      </trkpt>
      <trkpt lat="45.9241" lon="4.73205">
        <ele>171</ele>
        <time>2018-03-04T09:33:57Z</time>
      </trkpt>
      <trkpt lat="45.9241" lon="4.73199">
        <ele>171</ele>
        <time>2018-03-04T09:33:58Z</time>
      </trkpt>
      <trkpt lat="45.9241" lon="4.73192">
        <ele>171</ele>
        <time>2018-03-04T09:33:59Z</time>
      </trkpt>
      <trkpt lat="45.92409" lon="4.73185">
        <ele>171</ele>
        <time>2018-03-04T09:34:00Z</time>
      </trkpt>
      <trkpt lat="45.92408" lon="4.73178">
        <ele>171</ele>
        <time>2018-03-04T09:34:01Z</time>
      </trkpt>
      <trkpt lat="45.92408" lon="4.73172">
        <ele>170</ele>
        <time>2018-03-04T09:34:02Z</time>
      </trkpt>
      <trkpt lat="45.92408" lon="4.73165">
        <ele>170</ele>
        <time>2018-03-04T09:34:03Z</time>
      </trkpt>
      <trkpt lat="45.92407" lon="4.73159">
        <ele>170</ele>
        <time>2018-03-04T09:34:04Z</time>
      </trkpt>
      <trkpt lat="45.92407" lon="4.73151">
        <ele>171</ele>
        <time>2018-03-04T09:34:05Z</time>
      </trkpt>
      <trkpt lat="45.92408" lon="4.73139">
        <ele>171</ele>
        <time>2018-03-04T09:34:07Z</time>
      </trkpt>
      <trkpt lat="45.92408" lon="4.73132">
        <ele>171</ele>
        <time>2018-03-04T09:34:08Z</time>
      </trkpt>
      <trkpt lat="45.92409" lon="4.73125">
        <ele>171</ele>
        <time>2018-03-04T09:34:09Z</time>
      </trkpt>
      <trkpt lat="45.92411" lon="4.73119">
        <ele>171</ele>
        <time>2018-03-04T09:34:10Z</time>
      </trkpt>
      <trkpt lat="45.92414" lon="4.73113">
        <ele>171</ele>
        <time>2018-03-04T09:34:11Z</time>
      </trkpt>
      <trkpt lat="45.92418" lon="4.73109">
        <ele>170</ele>
        <time>2018-03-04T09:34:12Z</time>
      </trkpt>
      <trkpt lat="45.92422" lon="4.73106">
        <ele>171</ele>
        <time>2018-03-04T09:34:13Z</time>
      </trkpt>
      <trkpt lat="45.92427" lon="4.73103">
        <ele>171</ele>
        <time>2018-03-04T09:34:14Z</time>
      </trkpt>
      <trkpt lat="45.92432" lon="4.731">
        <ele>171</ele>
        <time>2018-03-04T09:34:15Z</time>
      </trkpt>
      <trkpt lat="45.92436" lon="4.73096">
        <ele>171</ele>
        <time>2018-03-04T09:34:16Z</time>
      </trkpt>
      <trkpt lat="45.92441" lon="4.73092">
        <ele>170</ele>
        <time>2018-03-04T09:34:17Z</time>
      </trkpt>
      <trkpt lat="45.92445" lon="4.73089">
        <ele>170</ele>
        <time>2018-03-04T09:34:18Z</time>
      </trkpt>
      <trkpt lat="45.92449" lon="4.73085">
        <ele>170</ele>
        <time>2018-03-04T09:34:19Z</time>
      </trkpt>
      <trkpt lat="45.92454" lon="4.73081">
        <ele>170</ele>
        <time>2018-03-04T09:34:20Z</time>
      </trkpt>
      <trkpt lat="45.92459" lon="4.73077">
        <ele>170</ele>
        <time>2018-03-04T09:34:21Z</time>
      </trkpt>
      <trkpt lat="45.92464" lon="4.73073">
        <ele>170</ele>
        <time>2018-03-04T09:34:22Z</time>
      </trkpt>
      <trkpt lat="45.92468" lon="4.73069">
        <ele>170</ele>
        <time>2018-03-04T09:34:23Z</time>
      </trkpt>
      <trkpt lat="45.92473" lon="4.73066">
        <ele>170</ele>
        <time>2018-03-04T09:34:24Z</time>
      </trkpt>
      <trkpt lat="45.92477" lon="4.73062">
        <ele>170</ele>
        <time>2018-03-04T09:34:25Z</time>
      </trkpt>
      <trkpt lat="45.92482" lon="4.73057">
        <ele>170</ele>
        <time>2018-03-04T09:34:26Z</time>
      </trkpt>
      <trkpt lat="45.92486" lon="4.73053">
        <ele>170</ele>
        <time>2018-03-04T09:34:27Z</time>
      </trkpt>
      <trkpt lat="45.92491" lon="4.73049">
        <ele>170</ele>
        <time>2018-03-04T09:34:28Z</time>
      </trkpt>
      <trkpt lat="45.92496" lon="4.73045">
        <ele>170</ele>
        <time>2018-03-04T09:34:29Z</time>
      </trkpt>
      <trkpt lat="45.92501" lon="4.7304">
        <ele>169</ele>
        <time>2018-03-04T09:34:30Z</time>
      </trkpt>
      <trkpt lat="45.92505" lon="4.73036">
        <ele>169</ele>
        <time>2018-03-04T09:34:31Z</time>
      </trkpt>
      <trkpt lat="45.9251" lon="4.73032">
        <ele>169</ele>
        <time>2018-03-04T09:34:32Z</time>
      </trkpt>
      <trkpt lat="45.92515" lon="4.73028">
        <ele>169</ele>
        <time>2018-03-04T09:34:33Z</time>
      </trkpt>
      <trkpt lat="45.9252" lon="4.73024">
        <ele>169</ele>
        <time>2018-03-04T09:34:34Z</time>
      </trkpt>
      <trkpt lat="45.92525" lon="4.73019">
        <ele>169</ele>
        <time>2018-03-04T09:34:35Z</time>
      </trkpt>
      <trkpt lat="45.9253" lon="4.73014">
        <ele>169</ele>
        <time>2018-03-04T09:34:36Z</time>
      </trkpt>
      <trkpt lat="45.92535" lon="4.73009">
        <ele>169</ele>
        <time>2018-03-04T09:34:37Z</time>
      </trkpt>
      <trkpt lat="45.9254" lon="4.73004">
        <ele>169</ele>
        <time>2018-03-04T09:34:38Z</time>
      </trkpt>
      <trkpt lat="45.92546" lon="4.72999">
        <ele>169</ele>
        <time>2018-03-04T09:34:39Z</time>
      </trkpt>
      <trkpt lat="45.9255" lon="4.72994">
        <ele>169</ele>
        <time>2018-03-04T09:34:40Z</time>
      </trkpt>
      <trkpt lat="45.92555" lon="4.72989">
        <ele>169</ele>
        <time>2018-03-04T09:34:41Z</time>
      </trkpt>
      <trkpt lat="45.9256" lon="4.72985">
        <ele>169</ele>
        <time>2018-03-04T09:34:42Z</time>
      </trkpt>
      <trkpt lat="45.92564" lon="4.7298">
        <ele>169</ele>
        <time>2018-03-04T09:34:43Z</time>
      </trkpt>
      <trkpt lat="45.92569" lon="4.72976">
        <ele>169</ele>
        <time>2018-03-04T09:34:44Z</time>
      </trkpt>
      <trkpt lat="45.92574" lon="4.72971">
        <ele>169</ele>
        <time>2018-03-04T09:34:45Z</time>
      </trkpt>
      <trkpt lat="45.92578" lon="4.72965">
        <ele>169</ele>
        <time>2018-03-04T09:34:46Z</time>
      </trkpt>
      <trkpt lat="45.92583" lon="4.7296">
        <ele>169</ele>
        <time>2018-03-04T09:34:47Z</time>
      </trkpt>
      <trkpt lat="45.92588" lon="4.72956">
        <ele>169</ele>
        <time>2018-03-04T09:34:48Z</time>
      </trkpt>
      <trkpt lat="45.92592" lon="4.7295">
        <ele>169</ele>
        <time>2018-03-04T09:34:49Z</time>
      </trkpt>
      <trkpt lat="45.92597" lon="4.72945">
        <ele>169</ele>
        <time>2018-03-04T09:34:50Z</time>
      </trkpt>
      <trkpt lat="45.92602" lon="4.7294">
        <ele>169</ele>
        <time>2018-03-04T09:34:51Z</time>
      </trkpt>
      <trkpt lat="45.92606" lon="4.72934">
        <ele>169</ele>
        <time>2018-03-04T09:34:52Z</time>
      </trkpt>
      <trkpt lat="45.92611" lon="4.7293">
        <ele>169</ele>
        <time>2018-03-04T09:34:53Z</time>
      </trkpt>
      <trkpt lat="45.92615" lon="4.72924">
        <ele>169</ele>
        <time>2018-03-04T09:34:54Z</time>
      </trkpt>
      <trkpt lat="45.9262" lon="4.7292">
        <ele>169</ele>
        <time>2018-03-04T09:34:55Z</time>
      </trkpt>
      <trkpt lat="45.92624" lon="4.72916">
        <ele>169</ele>
        <time>2018-03-04T09:34:56Z</time>
      </trkpt>
      <trkpt lat="45.92629" lon="4.72914">
        <ele>169</ele>
        <time>2018-03-04T09:34:57Z</time>
      </trkpt>
      <trkpt lat="45.92634" lon="4.72909">
        <ele>169</ele>
        <time>2018-03-04T09:34:58Z</time>
      </trkpt>
      <trkpt lat="45.92639" lon="4.72906">
        <ele>169</ele>
        <time>2018-03-04T09:34:59Z</time>
      </trkpt>
      <trkpt lat="45.92643" lon="4.72902">
        <ele>169</ele>
        <time>2018-03-04T09:35:00Z</time>
      </trkpt>
      <trkpt lat="45.92648" lon="4.72897">
        <ele>169</ele>
        <time>2018-03-04T09:35:01Z</time>
      </trkpt>
      <trkpt lat="45.92653" lon="4.72893">
        <ele>169</ele>
        <time>2018-03-04T09:35:02Z</time>
      </trkpt>
      <trkpt lat="45.92658" lon="4.72888">
        <ele>169</ele>
        <time>2018-03-04T09:35:03Z</time>
      </trkpt>
      <trkpt lat="45.92664" lon="4.72885">
        <ele>169</ele>
        <time>2018-03-04T09:35:04Z</time>
      </trkpt>
      <trkpt lat="45.92669" lon="4.72881">
        <ele>170</ele>
        <time>2018-03-04T09:35:05Z</time>
      </trkpt>
      <trkpt lat="45.92674" lon="4.72878">
        <ele>170</ele>
        <time>2018-03-04T09:35:06Z</time>
      </trkpt>
      <trkpt lat="45.92679" lon="4.72875">
        <ele>169</ele>
        <time>2018-03-04T09:35:07Z</time>
      </trkpt>
      <trkpt lat="45.92684" lon="4.72871">
        <ele>169</ele>
        <time>2018-03-04T09:35:08Z</time>
      </trkpt>
      <trkpt lat="45.92688" lon="4.72867">
        <ele>169</ele>
        <time>2018-03-04T09:35:09Z</time>
      </trkpt>
      <trkpt lat="45.92693" lon="4.72864">
        <ele>169</ele>
        <time>2018-03-04T09:35:10Z</time>
      </trkpt>
      <trkpt lat="45.92698" lon="4.7286">
        <ele>169</ele>
        <time>2018-03-04T09:35:11Z</time>
      </trkpt>
      <trkpt lat="45.92704" lon="4.72856">
        <ele>169</ele>
        <time>2018-03-04T09:35:12Z</time>
      </trkpt>
      <trkpt lat="45.92708" lon="4.72852">
        <ele>169</ele>
        <time>2018-03-04T09:35:13Z</time>
      </trkpt>
      <trkpt lat="45.92713" lon="4.72849">
        <ele>169</ele>
        <time>2018-03-04T09:35:14Z</time>
      </trkpt>
      <trkpt lat="45.92718" lon="4.72845">
        <ele>169</ele>
        <time>2018-03-04T09:35:15Z</time>
      </trkpt>
      <trkpt lat="45.92724" lon="4.72841">
        <ele>169</ele>
        <time>2018-03-04T09:35:16Z</time>
      </trkpt>
      <trkpt lat="45.92729" lon="4.72838">
        <ele>169</ele>
        <time>2018-03-04T09:35:17Z</time>
      </trkpt>
      <trkpt lat="45.92734" lon="4.72834">
        <ele>169</ele>
        <time>2018-03-04T09:35:18Z</time>
      </trkpt>
      <trkpt lat="45.9274" lon="4.72829">
        <ele>169</ele>
        <time>2018-03-04T09:35:19Z</time>
      </trkpt>
      <trkpt lat="45.92745" lon="4.72825">
        <ele>169</ele>
        <time>2018-03-04T09:35:20Z</time>
      </trkpt>
      <trkpt lat="45.92751" lon="4.72821">
        <ele>170</ele>
        <time>2018-03-04T09:35:21Z</time>
      </trkpt>
      <trkpt lat="45.92756" lon="4.72817">
        <ele>170</ele>
        <time>2018-03-04T09:35:22Z</time>
      </trkpt>
      <trkpt lat="45.92761" lon="4.72813">
        <ele>170</ele>
        <time>2018-03-04T09:35:23Z</time>
      </trkpt>
      <trkpt lat="45.92766" lon="4.72809">
        <ele>170</ele>
        <time>2018-03-04T09:35:24Z</time>
      </trkpt>
      <trkpt lat="45.92771" lon="4.72805">
        <ele>170</ele>
        <time>2018-03-04T09:35:25Z</time>
      </trkpt>
      <trkpt lat="45.92776" lon="4.72801">
        <ele>170</ele>
        <time>2018-03-04T09:35:26Z</time>
      </trkpt>
      <trkpt lat="45.92781" lon="4.72797">
        <ele>170</ele>
        <time>2018-03-04T09:35:27Z</time>
      </trkpt>
      <trkpt lat="45.92786" lon="4.72794">
        <ele>170</ele>
        <time>2018-03-04T09:35:28Z</time>
      </trkpt>
      <trkpt lat="45.9279" lon="4.7279">
        <ele>171</ele>
        <time>2018-03-04T09:35:29Z</time>
      </trkpt>
      <trkpt lat="45.92795" lon="4.72787">
        <ele>171</ele>
        <time>2018-03-04T09:35:30Z</time>
      </trkpt>
      <trkpt lat="45.928" lon="4.72787">
        <ele>171</ele>
        <time>2018-03-04T09:35:31Z</time>
      </trkpt>
      <trkpt lat="45.92804" lon="4.72792">
        <ele>171</ele>
        <time>2018-03-04T09:35:32Z</time>
      </trkpt>
      <trkpt lat="45.92807" lon="4.72798">
        <ele>171</ele>
        <time>2018-03-04T09:35:33Z</time>
      </trkpt>
      <trkpt lat="45.92807" lon="4.72804">
        <ele>171</ele>
        <time>2018-03-04T09:35:34Z</time>
      </trkpt>
      <trkpt lat="45.92809" lon="4.72811">
        <ele>171</ele>
        <time>2018-03-04T09:35:35Z</time>
      </trkpt>
      <trkpt lat="45.9281" lon="4.72818">
        <ele>171</ele>
        <time>2018-03-04T09:35:36Z</time>
      </trkpt>
      <trkpt lat="45.92811" lon="4.72826">
        <ele>171</ele>
        <time>2018-03-04T09:35:37Z</time>
      </trkpt>
      <trkpt lat="45.92812" lon="4.72833">
        <ele>171</ele>
        <time>2018-03-04T09:35:38Z</time>
      </trkpt>
      <trkpt lat="45.92813" lon="4.7284">
        <ele>170</ele>
        <time>2018-03-04T09:35:39Z</time>
      </trkpt>
      <trkpt lat="45.92815" lon="4.72848">
        <ele>170</ele>
        <time>2018-03-04T09:35:40Z</time>
      </trkpt>
      <trkpt lat="45.92816" lon="4.72856">
        <ele>170</ele>
        <time>2018-03-04T09:35:41Z</time>
      </trkpt>
      <trkpt lat="45.92818" lon="4.72864">
        <ele>170</ele>
        <time>2018-03-04T09:35:42Z</time>
      </trkpt>
      <trkpt lat="45.92819" lon="4.72871">
        <ele>170</ele>
        <time>2018-03-04T09:35:43Z</time>
      </trkpt>
      <trkpt lat="45.9282" lon="4.72879">
        <ele>170</ele>
        <time>2018-03-04T09:35:44Z</time>
      </trkpt>
      <trkpt lat="45.92822" lon="4.72885">
        <ele>170</ele>
        <time>2018-03-04T09:35:45Z</time>
      </trkpt>
      <trkpt lat="45.92823" lon="4.72893">
        <ele>170</ele>
        <time>2018-03-04T09:35:46Z</time>
      </trkpt>
      <trkpt lat="45.92824" lon="4.729">
        <ele>170</ele>
        <time>2018-03-04T09:35:47Z</time>
      </trkpt>
      <trkpt lat="45.92825" lon="4.72907">
        <ele>170</ele>
        <time>2018-03-04T09:35:48Z</time>
      </trkpt>
      <trkpt lat="45.92825" lon="4.72915">
        <ele>170</ele>
        <time>2018-03-04T09:35:49Z</time>
      </trkpt>
      <trkpt lat="45.92826" lon="4.72923">
        <ele>170</ele>
        <time>2018-03-04T09:35:50Z</time>
      </trkpt>
      <trkpt lat="45.92828" lon="4.72932">
        <ele>170</ele>
        <time>2018-03-04T09:35:51Z</time>
      </trkpt>
      <trkpt lat="45.92829" lon="4.72941">
        <ele>170</ele>
        <time>2018-03-04T09:35:52Z</time>
      </trkpt>
      <trkpt lat="45.9283" lon="4.72949">
        <ele>170</ele>
        <time>2018-03-04T09:35:53Z</time>
      </trkpt>
      <trkpt lat="45.92831" lon="4.72957">
        <ele>170</ele>
        <time>2018-03-04T09:35:54Z</time>
      </trkpt>
      <trkpt lat="45.92832" lon="4.72966">
        <ele>170</ele>
        <time>2018-03-04T09:35:55Z</time>
      </trkpt>
      <trkpt lat="45.92832" lon="4.72975">
        <ele>170</ele>
        <time>2018-03-04T09:35:56Z</time>
      </trkpt>
      <trkpt lat="45.92832" lon="4.72983">
        <ele>170</ele>
        <time>2018-03-04T09:35:57Z</time>
      </trkpt>
      <trkpt lat="45.92834" lon="4.72993">
        <ele>170</ele>
        <time>2018-03-04T09:35:58Z</time>
      </trkpt>
      <trkpt lat="45.92835" lon="4.73001">
        <ele>170</ele>
        <time>2018-03-04T09:35:59Z</time>
      </trkpt>
      <trkpt lat="45.92836" lon="4.7301">
        <ele>171</ele>
        <time>2018-03-04T09:36:00Z</time>
      </trkpt>
      <trkpt lat="45.92838" lon="4.73018">
        <ele>171</ele>
        <time>2018-03-04T09:36:01Z</time>
      </trkpt>
      <trkpt lat="45.92839" lon="4.73027">
        <ele>171</ele>
        <time>2018-03-04T09:36:02Z</time>
      </trkpt>
      <trkpt lat="45.92841" lon="4.73036">
        <ele>171</ele>
        <time>2018-03-04T09:36:03Z</time>
      </trkpt>
      <trkpt lat="45.92842" lon="4.73044">
        <ele>171</ele>
        <time>2018-03-04T09:36:04Z</time>
      </trkpt>
      <trkpt lat="45.92844" lon="4.73052">
        <ele>171</ele>
        <time>2018-03-04T09:36:05Z</time>
      </trkpt>
      <trkpt lat="45.92845" lon="4.73061">
        <ele>171</ele>
        <time>2018-03-04T09:36:06Z</time>
      </trkpt>
      <trkpt lat="45.92846" lon="4.73069">
        <ele>171</ele>
        <time>2018-03-04T09:36:07Z</time>
      </trkpt>
      <trkpt lat="45.92847" lon="4.73076">
        <ele>171</ele>
        <time>2018-03-04T09:36:08Z</time>
      </trkpt>
      <trkpt lat="45.92847" lon="4.73084">
        <ele>171</ele>
        <time>2018-03-04T09:36:09Z</time>
      </trkpt>
      <trkpt lat="45.92847" lon="4.73091">
        <ele>171</ele>
        <time>2018-03-04T09:36:10Z</time>
      </trkpt>
      <trkpt lat="45.92852" lon="4.73099">
        <ele>171</ele>
        <time>2018-03-04T09:36:12Z</time>
      </trkpt>
      <trkpt lat="45.92855" lon="4.731">
        <ele>171</ele>
        <time>2018-03-04T09:36:13Z</time>
      </trkpt>
      <trkpt lat="45.92862" lon="4.73098">
        <ele>171</ele>
        <time>2018-03-04T09:36:15Z</time>
      </trkpt>
      <trkpt lat="45.92865" lon="4.73095">
        <ele>172</ele>
        <time>2018-03-04T09:36:16Z</time>
      </trkpt>
      <trkpt lat="45.92871" lon="4.73087">
        <ele>172</ele>
        <time>2018-03-04T09:36:19Z</time>
      </trkpt>
      <trkpt lat="45.92877" lon="4.73082">
        <ele>172</ele>
        <time>2018-03-04T09:36:20Z</time>
      </trkpt>
      <trkpt lat="45.92885" lon="4.73077">
        <ele>172</ele>
        <time>2018-03-04T09:36:22Z</time>
      </trkpt>
      <trkpt lat="45.92889" lon="4.73072">
        <ele>172</ele>
        <time>2018-03-04T09:36:23Z</time>
      </trkpt>
      <trkpt lat="45.92893" lon="4.73067">
        <ele>172</ele>
        <time>2018-03-04T09:36:24Z</time>
      </trkpt>
      <trkpt lat="45.92897" lon="4.7306">
        <ele>172</ele>
        <time>2018-03-04T09:36:25Z</time>
      </trkpt>
      <trkpt lat="45.929" lon="4.73055">
        <ele>172</ele>
        <time>2018-03-04T09:36:26Z</time>
      </trkpt>
      <trkpt lat="45.92904" lon="4.73049">
        <ele>172</ele>
        <time>2018-03-04T09:36:27Z</time>
      </trkpt>
      <trkpt lat="45.92908" lon="4.73044">
        <ele>172</ele>
        <time>2018-03-04T09:36:28Z</time>
      </trkpt>
      <trkpt lat="45.92911" lon="4.73037">
        <ele>172</ele>
        <time>2018-03-04T09:36:29Z</time>
      </trkpt>
      <trkpt lat="45.92915" lon="4.73032">
        <ele>172</ele>
        <time>2018-03-04T09:36:30Z</time>
      </trkpt>
      <trkpt lat="45.92919" lon="4.73026">
        <ele>172</ele>
        <time>2018-03-04T09:36:31Z</time>
      </trkpt>
      <trkpt lat="45.92923" lon="4.73023">
        <ele>171</ele>
        <time>2018-03-04T09:36:32Z</time>
      </trkpt>
      <trkpt lat="45.92926" lon="4.73017">
        <ele>172</ele>
        <time>2018-03-04T09:36:33Z</time>
      </trkpt>
      <trkpt lat="45.92931" lon="4.73011">
        <ele>171</ele>
        <time>2018-03-04T09:36:34Z</time>
      </trkpt>
      <trkpt lat="45.92934" lon="4.73006">
        <ele>171</ele>
        <time>2018-03-04T09:36:35Z</time>
      </trkpt>
      <trkpt lat="45.92938" lon="4.73001">
        <ele>171</ele>
        <time>2018-03-04T09:36:36Z</time>
      </trkpt>
      <trkpt lat="45.92943" lon="4.72996">
        <ele>171</ele>
        <time>2018-03-04T09:36:37Z</time>
      </trkpt>
      <trkpt lat="45.92947" lon="4.72991">
        <ele>171</ele>
        <time>2018-03-04T09:36:38Z</time>
      </trkpt>
      <trkpt lat="45.92952" lon="4.72986">
        <ele>171</ele>
        <time>2018-03-04T09:36:39Z</time>
      </trkpt>
      <trkpt lat="45.92956" lon="4.7298">
        <ele>171</ele>
        <time>2018-03-04T09:36:40Z</time>
      </trkpt>
      <trkpt lat="45.9296" lon="4.72976">
        <ele>171</ele>
        <time>2018-03-04T09:36:41Z</time>
      </trkpt>
      <trkpt lat="45.92965" lon="4.72971">
        <ele>171</ele>
        <time>2018-03-04T09:36:42Z</time>
      </trkpt>
      <trkpt lat="45.9297" lon="4.72965">
        <ele>171</ele>
        <time>2018-03-04T09:36:43Z</time>
      </trkpt>
      <trkpt lat="45.92975" lon="4.72961">
        <ele>171</ele>
        <time>2018-03-04T09:36:44Z</time>
      </trkpt>
      <trkpt lat="45.92979" lon="4.72956">
        <ele>171</ele>
        <time>2018-03-04T09:36:45Z</time>
      </trkpt>
      <trkpt lat="45.92984" lon="4.7295">
        <ele>171</ele>
        <time>2018-03-04T09:36:46Z</time>
      </trkpt>
      <trkpt lat="45.92988" lon="4.72945">
        <ele>171</ele>
        <time>2018-03-04T09:36:47Z</time>
      </trkpt>
      <trkpt lat="45.92992" lon="4.72939">
        <ele>171</ele>
        <time>2018-03-04T09:36:48Z</time>
      </trkpt>
      <trkpt lat="45.92996" lon="4.72934">
        <ele>171</ele>
        <time>2018-03-04T09:36:49Z</time>
      </trkpt>
      <trkpt lat="45.93001" lon="4.72928">
        <ele>170</ele>
        <time>2018-03-04T09:36:50Z</time>
      </trkpt>
      <trkpt lat="45.93005" lon="4.72922">
        <ele>171</ele>
        <time>2018-03-04T09:36:51Z</time>
      </trkpt>
      <trkpt lat="45.93009" lon="4.72917">
        <ele>170</ele>
        <time>2018-03-04T09:36:52Z</time>
      </trkpt>
      <trkpt lat="45.93013" lon="4.72911">
        <ele>171</ele>
        <time>2018-03-04T09:36:53Z</time>
      </trkpt>
      <trkpt lat="45.93018" lon="4.72907">
        <ele>172</ele>
        <time>2018-03-04T09:36:54Z</time>
      </trkpt>
      <trkpt lat="45.93023" lon="4.72901">
        <ele>172</ele>
        <time>2018-03-04T09:36:55Z</time>
      </trkpt>
      <trkpt lat="45.93027" lon="4.72896">
        <ele>172</ele>
        <time>2018-03-04T09:36:56Z</time>
      </trkpt>
      <trkpt lat="45.93032" lon="4.7289">
        <ele>172</ele>
        <time>2018-03-04T09:36:57Z</time>
      </trkpt>
      <trkpt lat="45.93036" lon="4.72884">
        <ele>172</ele>
        <time>2018-03-04T09:36:58Z</time>
      </trkpt>
      <trkpt lat="45.93041" lon="4.72879">
        <ele>172</ele>
        <time>2018-03-04T09:36:59Z</time>
      </trkpt>
      <trkpt lat="45.93045" lon="4.72872">
        <ele>172</ele>
        <time>2018-03-04T09:37:00Z</time>
      </trkpt>
      <trkpt lat="45.93049" lon="4.72867">
        <ele>172</ele>
        <time>2018-03-04T09:37:01Z</time>
      </trkpt>
      <trkpt lat="45.93054" lon="4.72861">
        <ele>172</ele>
        <time>2018-03-04T09:37:02Z</time>
      </trkpt>
      <trkpt lat="45.93058" lon="4.72856">
        <ele>172</ele>
        <time>2018-03-04T09:37:03Z</time>
      </trkpt>
      <trkpt lat="45.93062" lon="4.72851">
        <ele>172</ele>
        <time>2018-03-04T09:37:04Z</time>
      </trkpt>
      <trkpt lat="45.93067" lon="4.72845">
        <ele>172</ele>
        <time>2018-03-04T09:37:05Z</time>
      </trkpt>
      <trkpt lat="45.93069" lon="4.72842">
        <ele>173</ele>
        <time>2018-03-04T09:37:06Z</time>
      </trkpt>
      <trkpt lat="45.93081" lon="4.72825">
        <ele>173</ele>
        <time>2018-03-04T09:37:09Z</time>
      </trkpt>
      <trkpt lat="45.93087" lon="4.72815">
        <ele>172</ele>
        <time>2018-03-04T09:37:10Z</time>
      </trkpt>
      <trkpt lat="45.93097" lon="4.72813">
        <ele>172</ele>
        <time>2018-03-04T09:37:11Z</time>
      </trkpt>
      <trkpt lat="45.93105" lon="4.72812">
        <ele>172</ele>
        <time>2018-03-04T09:37:12Z</time>
      </trkpt>
      <trkpt lat="45.9311" lon="4.72808">
        <ele>171</ele>
        <time>2018-03-04T09:37:13Z</time>
      </trkpt>
      <trkpt lat="45.93114" lon="4.72798">
        <ele>171</ele>
        <time>2018-03-04T09:37:15Z</time>
      </trkpt>
      <trkpt lat="45.93118" lon="4.72792">
        <ele>171</ele>
        <time>2018-03-04T09:37:16Z</time>
      </trkpt>
      <trkpt lat="45.93122" lon="4.72789">
        <ele>171</ele>
        <time>2018-03-04T09:37:17Z</time>
      </trkpt>
      <trkpt lat="45.93127" lon="4.72785">
        <ele>171</ele>
        <time>2018-03-04T09:37:18Z</time>
      </trkpt>
      <trkpt lat="45.93131" lon="4.7278">
        <ele>171</ele>
        <time>2018-03-04T09:37:19Z</time>
      </trkpt>
      <trkpt lat="45.93135" lon="4.72775">
        <ele>171</ele>
        <time>2018-03-04T09:37:20Z</time>
      </trkpt>
      <trkpt lat="45.93139" lon="4.72771">
        <ele>171</ele>
        <time>2018-03-04T09:37:21Z</time>
      </trkpt>
      <trkpt lat="45.93143" lon="4.72766">
        <ele>171</ele>
        <time>2018-03-04T09:37:22Z</time>
      </trkpt>
      <trkpt lat="45.93148" lon="4.72761">
        <ele>171</ele>
        <time>2018-03-04T09:37:23Z</time>
      </trkpt>
      <trkpt lat="45.93152" lon="4.72756">
        <ele>170</ele>
        <time>2018-03-04T09:37:24Z</time>
      </trkpt>
      <trkpt lat="45.93156" lon="4.72751">
        <ele>170</ele>
        <time>2018-03-04T09:37:25Z</time>
      </trkpt>
      <trkpt lat="45.9316" lon="4.72746">
        <ele>170</ele>
        <time>2018-03-04T09:37:26Z</time>
      </trkpt>
      <trkpt lat="45.93165" lon="4.72741">
        <ele>170</ele>
        <time>2018-03-04T09:37:27Z</time>
      </trkpt>
      <trkpt lat="45.93169" lon="4.72736">
        <ele>170</ele>
        <time>2018-03-04T09:37:28Z</time>
      </trkpt>
      <trkpt lat="45.93173" lon="4.72731">
        <ele>170</ele>
        <time>2018-03-04T09:37:29Z</time>
      </trkpt>
      <trkpt lat="45.93177" lon="4.72726">
        <ele>170</ele>
        <time>2018-03-04T09:37:30Z</time>
      </trkpt>
      <trkpt lat="45.93181" lon="4.7272">
        <ele>169</ele>
        <time>2018-03-04T09:37:31Z</time>
      </trkpt>
      <trkpt lat="45.93185" lon="4.72715">
        <ele>169</ele>
        <time>2018-03-04T09:37:32Z</time>
      </trkpt>
      <trkpt lat="45.93189" lon="4.7271">
        <ele>169</ele>
        <time>2018-03-04T09:37:33Z</time>
      </trkpt>
      <trkpt lat="45.93193" lon="4.72705">
        <ele>169</ele>
        <time>2018-03-04T09:37:34Z</time>
      </trkpt>
      <trkpt lat="45.93198" lon="4.72699">
        <ele>169</ele>
        <time>2018-03-04T09:37:35Z</time>
      </trkpt>
      <trkpt lat="45.93202" lon="4.72694">
        <ele>169</ele>
        <time>2018-03-04T09:37:36Z</time>
      </trkpt>
      <trkpt lat="45.93207" lon="4.72689">
        <ele>169</ele>
        <time>2018-03-04T09:37:37Z</time>
      </trkpt>
      <trkpt lat="45.93212" lon="4.72683">
        <ele>169</ele>
        <time>2018-03-04T09:37:38Z</time>
      </trkpt>
      <trkpt lat="45.93216" lon="4.72677">
        <ele>169</ele>
        <time>2018-03-04T09:37:39Z</time>
      </trkpt>
      <trkpt lat="45.9322" lon="4.72672">
        <ele>169</ele>
        <time>2018-03-04T09:37:40Z</time>
      </trkpt>
      <trkpt lat="45.93225" lon="4.72666">
        <ele>170</ele>
        <time>2018-03-04T09:37:41Z</time>
      </trkpt>
      <trkpt lat="45.9323" lon="4.72661">
        <ele>169</ele>
        <time>2018-03-04T09:37:42Z</time>
      </trkpt>
      <trkpt lat="45.93235" lon="4.72653">
        <ele>169</ele>
        <time>2018-03-04T09:37:43Z</time>
      </trkpt>
      <trkpt lat="45.9324" lon="4.72647">
        <ele>170</ele>
        <time>2018-03-04T09:37:44Z</time>
      </trkpt>
      <trkpt lat="45.93246" lon="4.72639">
        <ele>170</ele>
        <time>2018-03-04T09:37:45Z</time>
      </trkpt>
      <trkpt lat="45.93251" lon="4.72634">
        <ele>170</ele>
        <time>2018-03-04T09:37:46Z</time>
      </trkpt>
      <trkpt lat="45.93255" lon="4.72627">
        <ele>170</ele>
        <time>2018-03-04T09:37:47Z</time>
      </trkpt>
      <trkpt lat="45.9326" lon="4.72622">
        <ele>170</ele>
        <time>2018-03-04T09:37:48Z</time>
      </trkpt>
      <trkpt lat="45.93265" lon="4.72615">
        <ele>170</ele>
        <time>2018-03-04T09:37:49Z</time>
      </trkpt>
      <trkpt lat="45.93269" lon="4.72609">
        <ele>170</ele>
        <time>2018-03-04T09:37:50Z</time>
      </trkpt>
      <trkpt lat="45.93274" lon="4.72605">
        <ele>170</ele>
        <time>2018-03-04T09:37:51Z</time>
      </trkpt>
      <trkpt lat="45.93279" lon="4.72599">
        <ele>170</ele>
        <time>2018-03-04T09:37:52Z</time>
      </trkpt>
      <trkpt lat="45.93284" lon="4.72593">
        <ele>170</ele>
        <time>2018-03-04T09:37:53Z</time>
      </trkpt>
      <trkpt lat="45.93289" lon="4.72587">
        <ele>170</ele>
        <time>2018-03-04T09:37:54Z</time>
      </trkpt>
      <trkpt lat="45.93293" lon="4.72582">
        <ele>171</ele>
        <time>2018-03-04T09:37:55Z</time>
      </trkpt>
      <trkpt lat="45.93298" lon="4.72577">
        <ele>171</ele>
        <time>2018-03-04T09:37:56Z</time>
      </trkpt>
      <trkpt lat="45.93302" lon="4.72572">
        <ele>171</ele>
        <time>2018-03-04T09:37:57Z</time>
      </trkpt>
      <trkpt lat="45.93306" lon="4.72566">
        <ele>171</ele>
        <time>2018-03-04T09:37:58Z</time>
      </trkpt>
      <trkpt lat="45.93311" lon="4.7256">
        <ele>171</ele>
        <time>2018-03-04T09:37:59Z</time>
      </trkpt>
      <trkpt lat="45.93315" lon="4.72555">
        <ele>172</ele>
        <time>2018-03-04T09:38:00Z</time>
      </trkpt>
      <trkpt lat="45.9332" lon="4.7255">
        <ele>172</ele>
        <time>2018-03-04T09:38:01Z</time>
      </trkpt>
      <trkpt lat="45.93324" lon="4.72545">
        <ele>172</ele>
        <time>2018-03-04T09:38:02Z</time>
      </trkpt>
      <trkpt lat="45.93328" lon="4.7254">
        <ele>172</ele>
        <time>2018-03-04T09:38:03Z</time>
      </trkpt>
      <trkpt lat="45.93333" lon="4.72536">
        <ele>172</ele>
        <time>2018-03-04T09:38:04Z</time>
      </trkpt>
      <trkpt lat="45.93338" lon="4.72529">
        <ele>172</ele>
        <time>2018-03-04T09:38:05Z</time>
      </trkpt>
      <trkpt lat="45.93342" lon="4.72525">
        <ele>172</ele>
        <time>2018-03-04T09:38:06Z</time>
      </trkpt>
      <trkpt lat="45.93346" lon="4.72521">
        <ele>172</ele>
        <time>2018-03-04T09:38:07Z</time>
      </trkpt>
      <trkpt lat="45.9335" lon="4.72516">
        <ele>172</ele>
        <time>2018-03-04T09:38:08Z</time>
      </trkpt>
      <trkpt lat="45.93354" lon="4.7251">
        <ele>172</ele>
        <time>2018-03-04T09:38:09Z</time>
      </trkpt>
      <trkpt lat="45.93359" lon="4.72505">
        <ele>172</ele>
        <time>2018-03-04T09:38:10Z</time>
      </trkpt>
      <trkpt lat="45.93364" lon="4.725">
        <ele>172</ele>
        <time>2018-03-04T09:38:11Z</time>
      </trkpt>
      <trkpt lat="45.93368" lon="4.72495">
        <ele>173</ele>
        <time>2018-03-04T09:38:12Z</time>
      </trkpt>
      <trkpt lat="45.93372" lon="4.7249">
        <ele>173</ele>
        <time>2018-03-04T09:38:13Z</time>
      </trkpt>
      <trkpt lat="45.93377" lon="4.72485">
        <ele>173</ele>
        <time>2018-03-04T09:38:14Z</time>
      </trkpt>
      <trkpt lat="45.93381" lon="4.7248">
        <ele>173</ele>
        <time>2018-03-04T09:38:15Z</time>
      </trkpt>
      <trkpt lat="45.93386" lon="4.72473">
        <ele>173</ele>
        <time>2018-03-04T09:38:16Z</time>
      </trkpt>
      <trkpt lat="45.9339" lon="4.72468">
        <ele>173</ele>
        <time>2018-03-04T09:38:17Z</time>
      </trkpt>
      <trkpt lat="45.93393" lon="4.72461">
        <ele>173</ele>
        <time>2018-03-04T09:38:18Z</time>
      </trkpt>
      <trkpt lat="45.93396" lon="4.72457">
        <ele>173</ele>
        <time>2018-03-04T09:38:19Z</time>
      </trkpt>
      <trkpt lat="45.93398" lon="4.72449">
        <ele>173</ele>
        <time>2018-03-04T09:38:20Z</time>
      </trkpt>
      <trkpt lat="45.93399" lon="4.72442">
        <ele>173</ele>
        <time>2018-03-04T09:38:21Z</time>
      </trkpt>
      <trkpt lat="45.93402" lon="4.72435">
        <ele>173</ele>
        <time>2018-03-04T09:38:22Z</time>
      </trkpt>
      <trkpt lat="45.93405" lon="4.72428">
        <ele>173</ele>
        <time>2018-03-04T09:38:23Z</time>
      </trkpt>
      <trkpt lat="45.93408" lon="4.72421">
        <ele>174</ele>
        <time>2018-03-04T09:38:24Z</time>
      </trkpt>
      <trkpt lat="45.93413" lon="4.72417">
        <ele>174</ele>
        <time>2018-03-04T09:38:25Z</time>
      </trkpt>
      <trkpt lat="45.93418" lon="4.72413">
        <ele>174</ele>
        <time>2018-03-04T09:38:26Z</time>
      </trkpt>
      <trkpt lat="45.93423" lon="4.7241">
        <ele>174</ele>
        <time>2018-03-04T09:38:27Z</time>
      </trkpt>
      <trkpt lat="45.93429" lon="4.72408">
        <ele>174</ele>
        <time>2018-03-04T09:38:28Z</time>
      </trkpt>
      <trkpt lat="45.93434" lon="4.72406">
        <ele>174</ele>
        <time>2018-03-04T09:38:29Z</time>
      </trkpt>
      <trkpt lat="45.93439" lon="4.72402">
        <ele>173</ele>
        <time>2018-03-04T09:38:30Z</time>
      </trkpt>
      <trkpt lat="45.93444" lon="4.72398">
        <ele>173</ele>
        <time>2018-03-04T09:38:31Z</time>
      </trkpt>
      <trkpt lat="45.9345" lon="4.72394">
        <ele>173</ele>
        <time>2018-03-04T09:38:32Z</time>
      </trkpt>
      <trkpt lat="45.93455" lon="4.7239">
        <ele>173</ele>
        <time>2018-03-04T09:38:33Z</time>
      </trkpt>
      <trkpt lat="45.9346" lon="4.72386">
        <ele>173</ele>
        <time>2018-03-04T09:38:34Z</time>
      </trkpt>
      <trkpt lat="45.93465" lon="4.72381">
        <ele>173</ele>
        <time>2018-03-04T09:38:35Z</time>
      </trkpt>
      <trkpt lat="45.93469" lon="4.72374">
        <ele>173</ele>
        <time>2018-03-04T09:38:36Z</time>
      </trkpt>
      <trkpt lat="45.93473" lon="4.72368">
        <ele>173</ele>
        <time>2018-03-04T09:38:37Z</time>
      </trkpt>
      <trkpt lat="45.93477" lon="4.72363">
        <ele>173</ele>
        <time>2018-03-04T09:38:38Z</time>
      </trkpt>
      <trkpt lat="45.93481" lon="4.72359">
        <ele>173</ele>
        <time>2018-03-04T09:38:39Z</time>
      </trkpt>
      <trkpt lat="45.93485" lon="4.72354">
        <ele>173</ele>
        <time>2018-03-04T09:38:40Z</time>
      </trkpt>
      <trkpt lat="45.93489" lon="4.72348">
        <ele>173</ele>
        <time>2018-03-04T09:38:41Z</time>
      </trkpt>
      <trkpt lat="45.93493" lon="4.72343">
        <ele>173</ele>
        <time>2018-03-04T09:38:42Z</time>
      </trkpt>
      <trkpt lat="45.93497" lon="4.72338">
        <ele>173</ele>
        <time>2018-03-04T09:38:43Z</time>
      </trkpt>
      <trkpt lat="45.93501" lon="4.72333">
        <ele>173</ele>
        <time>2018-03-04T09:38:44Z</time>
      </trkpt>
      <trkpt lat="45.93505" lon="4.72328">
        <ele>173</ele>
        <time>2018-03-04T09:38:45Z</time>
      </trkpt>
      <trkpt lat="45.93509" lon="4.72322">
        <ele>173</ele>
        <time>2018-03-04T09:38:46Z</time>
      </trkpt>
      <trkpt lat="45.93514" lon="4.72318">
        <ele>173</ele>
        <time>2018-03-04T09:38:47Z</time>
      </trkpt>
      <trkpt lat="45.93517" lon="4.72312">
        <ele>173</ele>
        <time>2018-03-04T09:38:48Z</time>
      </trkpt>
      <trkpt lat="45.93521" lon="4.72308">
        <ele>173</ele>
        <time>2018-03-04T09:38:49Z</time>
      </trkpt>
      <trkpt lat="45.93523" lon="4.72302">
        <ele>172</ele>
        <time>2018-03-04T09:38:50Z</time>
      </trkpt>
      <trkpt lat="45.93526" lon="4.72296">
        <ele>172</ele>
        <time>2018-03-04T09:38:51Z</time>
      </trkpt>
      <trkpt lat="45.93529" lon="4.7229">
        <ele>172</ele>
        <time>2018-03-04T09:38:52Z</time>
      </trkpt>
      <trkpt lat="45.93531" lon="4.72283">
        <ele>172</ele>
        <time>2018-03-04T09:38:53Z</time>
      </trkpt>
      <trkpt lat="45.93534" lon="4.72275">
        <ele>172</ele>
        <time>2018-03-04T09:38:54Z</time>
      </trkpt>
      <trkpt lat="45.93537" lon="4.72269">
        <ele>172</ele>
        <time>2018-03-04T09:38:55Z</time>
      </trkpt>
      <trkpt lat="45.9354" lon="4.72263">
        <ele>172</ele>
        <time>2018-03-04T09:38:56Z</time>
      </trkpt>
      <trkpt lat="45.93542" lon="4.72257">
        <ele>172</ele>
        <time>2018-03-04T09:38:57Z</time>
      </trkpt>
      <trkpt lat="45.93545" lon="4.72251">
        <ele>172</ele>
        <time>2018-03-04T09:38:58Z</time>
      </trkpt>
      <trkpt lat="45.93548" lon="4.72244">
        <ele>172</ele>
        <time>2018-03-04T09:38:59Z</time>
      </trkpt>
      <trkpt lat="45.93551" lon="4.72236">
        <ele>172</ele>
        <time>2018-03-04T09:39:00Z</time>
      </trkpt>
      <trkpt lat="45.93554" lon="4.7223">
        <ele>173</ele>
        <time>2018-03-04T09:39:01Z</time>
      </trkpt>
      <trkpt lat="45.93557" lon="4.72224">
        <ele>173</ele>
        <time>2018-03-04T09:39:02Z</time>
      </trkpt>
      <trkpt lat="45.93561" lon="4.72218">
        <ele>173</ele>
        <time>2018-03-04T09:39:03Z</time>
      </trkpt>
      <trkpt lat="45.93566" lon="4.72212">
        <ele>173</ele>
        <time>2018-03-04T09:39:04Z</time>
      </trkpt>
      <trkpt lat="45.93571" lon="4.72206">
        <ele>173</ele>
        <time>2018-03-04T09:39:05Z</time>
      </trkpt>
      <trkpt lat="45.93576" lon="4.72201">
        <ele>173</ele>
        <time>2018-03-04T09:39:06Z</time>
      </trkpt>
      <trkpt lat="45.93582" lon="4.72196">
        <ele>173</ele>
        <time>2018-03-04T09:39:07Z</time>
      </trkpt>
      <trkpt lat="45.93587" lon="4.72191">
        <ele>173</ele>
        <time>2018-03-04T09:39:08Z</time>
      </trkpt>
      <trkpt lat="45.93592" lon="4.72187">
        <ele>173</ele>
        <time>2018-03-04T09:39:09Z</time>
      </trkpt>
      <trkpt lat="45.93596" lon="4.72181">
        <ele>173</ele>
        <time>2018-03-04T09:39:10Z</time>
      </trkpt>
      <trkpt lat="45.93601" lon="4.72177">
        <ele>173</ele>
        <time>2018-03-04T09:39:11Z</time>
      </trkpt>
      <trkpt lat="45.93606" lon="4.72173">
        <ele>173</ele>
        <time>2018-03-04T09:39:12Z</time>
      </trkpt>
      <trkpt lat="45.93611" lon="4.72169">
        <ele>173</ele>
        <time>2018-03-04T09:39:13Z</time>
      </trkpt>
      <trkpt lat="45.93616" lon="4.72165">
        <ele>173</ele>
        <time>2018-03-04T09:39:14Z</time>
      </trkpt>
      <trkpt lat="45.9362" lon="4.72163">
        <ele>173</ele>
        <time>2018-03-04T09:39:15Z</time>
      </trkpt>
      <trkpt lat="45.93625" lon="4.72159">
        <ele>173</ele>
        <time>2018-03-04T09:39:16Z</time>
      </trkpt>
      <trkpt lat="45.93629" lon="4.72154">
        <ele>173</ele>
        <time>2018-03-04T09:39:17Z</time>
      </trkpt>
      <trkpt lat="45.93633" lon="4.72148">
        <ele>173</ele>
        <time>2018-03-04T09:39:18Z</time>
      </trkpt>
      <trkpt lat="45.93637" lon="4.72143">
        <ele>173</ele>
        <time>2018-03-04T09:39:19Z</time>
      </trkpt>
      <trkpt lat="45.93641" lon="4.72136">
        <ele>173</ele>
        <time>2018-03-04T09:39:20Z</time>
      </trkpt>
      <trkpt lat="45.93644" lon="4.7213">
        <ele>173</ele>
        <time>2018-03-04T09:39:21Z</time>
      </trkpt>
      <trkpt lat="45.93647" lon="4.72125">
        <ele>173</ele>
        <time>2018-03-04T09:39:22Z</time>
      </trkpt>
      <trkpt lat="45.9365" lon="4.72118">
        <ele>173</ele>
        <time>2018-03-04T09:39:23Z</time>
      </trkpt>
      <trkpt lat="45.93653" lon="4.72112">
        <ele>173</ele>
        <time>2018-03-04T09:39:24Z</time>
      </trkpt>
      <trkpt lat="45.93657" lon="4.72105">
        <ele>173</ele>
        <time>2018-03-04T09:39:25Z</time>
      </trkpt>
      <trkpt lat="45.93661" lon="4.72098">
        <ele>173</ele>
        <time>2018-03-04T09:39:26Z</time>
      </trkpt>
      <trkpt lat="45.93665" lon="4.72088">
        <ele>172</ele>
        <time>2018-03-04T09:39:27Z</time>
      </trkpt>
      <trkpt lat="45.93668" lon="4.72082">
        <ele>172</ele>
        <time>2018-03-04T09:39:28Z</time>
      </trkpt>
      <trkpt lat="45.93671" lon="4.72076">
        <ele>172</ele>
        <time>2018-03-04T09:39:29Z</time>
      </trkpt>
      <trkpt lat="45.93675" lon="4.7207">
        <ele>172</ele>
        <time>2018-03-04T09:39:30Z</time>
      </trkpt>
      <trkpt lat="45.93678" lon="4.72064">
        <ele>172</ele>
        <time>2018-03-04T09:39:31Z</time>
      </trkpt>
      <trkpt lat="45.93681" lon="4.72058">
        <ele>172</ele>
        <time>2018-03-04T09:39:32Z</time>
      </trkpt>
      <trkpt lat="45.93686" lon="4.72049">
        <ele>172</ele>
        <time>2018-03-04T09:39:33Z</time>
      </trkpt>
      <trkpt lat="45.93689" lon="4.72042">
        <ele>173</ele>
        <time>2018-03-04T09:39:34Z</time>
      </trkpt>
      <trkpt lat="45.93693" lon="4.72035">
        <ele>173</ele>
        <time>2018-03-04T09:39:35Z</time>
      </trkpt>
      <trkpt lat="45.93697" lon="4.72029">
        <ele>172</ele>
        <time>2018-03-04T09:39:36Z</time>
      </trkpt>
      <trkpt lat="45.93701" lon="4.72023">
        <ele>172</ele>
        <time>2018-03-04T09:39:37Z</time>
      </trkpt>
      <trkpt lat="45.93705" lon="4.72016">
        <ele>172</ele>
        <time>2018-03-04T09:39:38Z</time>
      </trkpt>
      <trkpt lat="45.93709" lon="4.72009">
        <ele>172</ele>
        <time>2018-03-04T09:39:39Z</time>
      </trkpt>
      <trkpt lat="45.93712" lon="4.72004">
        <ele>172</ele>
        <time>2018-03-04T09:39:40Z</time>
      </trkpt>
      <trkpt lat="45.93716" lon="4.71998">
        <ele>172</ele>
        <time>2018-03-04T09:39:41Z</time>
      </trkpt>
      <trkpt lat="45.9372" lon="4.71991">
        <ele>172</ele>
        <time>2018-03-04T09:39:42Z</time>
      </trkpt>
      <trkpt lat="45.93724" lon="4.71984">
        <ele>172</ele>
        <time>2018-03-04T09:39:43Z</time>
      </trkpt>
      <trkpt lat="45.93727" lon="4.71978">
        <ele>172</ele>
        <time>2018-03-04T09:39:44Z</time>
      </trkpt>
      <trkpt lat="45.9373" lon="4.71972">
        <ele>172</ele>
        <time>2018-03-04T09:39:45Z</time>
      </trkpt>
      <trkpt lat="45.93733" lon="4.71966">
        <ele>172</ele>
        <time>2018-03-04T09:39:46Z</time>
      </trkpt>
      <trkpt lat="45.93737" lon="4.71963">
        <ele>172</ele>
        <time>2018-03-04T09:39:47Z</time>
      </trkpt>
      <trkpt lat="45.93742" lon="4.71961">
        <ele>172</ele>
        <time>2018-03-04T09:39:48Z</time>
      </trkpt>
      <trkpt lat="45.93746" lon="4.71958">
        <ele>172</ele>
        <time>2018-03-04T09:39:49Z</time>
      </trkpt>
      <trkpt lat="45.93751" lon="4.71955">
        <ele>171</ele>
        <time>2018-03-04T09:39:50Z</time>
      </trkpt>
      <trkpt lat="45.93755" lon="4.71949">
        <ele>171</ele>
        <time>2018-03-04T09:39:51Z</time>
      </trkpt>
      <trkpt lat="45.93759" lon="4.71943">
        <ele>171</ele>
        <time>2018-03-04T09:39:52Z</time>
      </trkpt>
      <trkpt lat="45.93762" lon="4.71936">
        <ele>171</ele>
        <time>2018-03-04T09:39:53Z</time>
      </trkpt>
      <trkpt lat="45.93766" lon="4.71931">
        <ele>171</ele>
        <time>2018-03-04T09:39:54Z</time>
      </trkpt>
      <trkpt lat="45.93771" lon="4.71924">
        <ele>171</ele>
        <time>2018-03-04T09:39:55Z</time>
      </trkpt>
      <trkpt lat="45.93775" lon="4.71918">
        <ele>171</ele>
        <time>2018-03-04T09:39:56Z</time>
      </trkpt>
      <trkpt lat="45.93777" lon="4.71911">
        <ele>172</ele>
        <time>2018-03-04T09:39:57Z</time>
      </trkpt>
      <trkpt lat="45.93779" lon="4.71903">
        <ele>172</ele>
        <time>2018-03-04T09:39:58Z</time>
      </trkpt>
      <trkpt lat="45.93779" lon="4.71896">
        <ele>172</ele>
        <time>2018-03-04T09:39:59Z</time>
      </trkpt>
      <trkpt lat="45.93779" lon="4.71889">
        <ele>172</ele>
        <time>2018-03-04T09:40:00Z</time>
      </trkpt>
      <trkpt lat="45.93782" lon="4.71881">
        <ele>172</ele>
        <time>2018-03-04T09:40:01Z</time>
      </trkpt>
      <trkpt lat="45.93785" lon="4.71874">
        <ele>172</ele>
        <time>2018-03-04T09:40:02Z</time>
      </trkpt>
      <trkpt lat="45.93789" lon="4.71867">
        <ele>172</ele>
        <time>2018-03-04T09:40:03Z</time>
      </trkpt>
      <trkpt lat="45.93792" lon="4.7186">
        <ele>172</ele>
        <time>2018-03-04T09:40:04Z</time>
      </trkpt>
      <trkpt lat="45.93797" lon="4.71855">
        <ele>172</ele>
        <time>2018-03-04T09:40:05Z</time>
      </trkpt>
      <trkpt lat="45.93801" lon="4.71849">
        <ele>172</ele>
        <time>2018-03-04T09:40:06Z</time>
      </trkpt>
      <trkpt lat="45.93805" lon="4.71842">
        <ele>172</ele>
        <time>2018-03-04T09:40:07Z</time>
      </trkpt>
      <trkpt lat="45.9381" lon="4.71836">
        <ele>172</ele>
        <time>2018-03-04T09:40:08Z</time>
      </trkpt>
      <trkpt lat="45.93814" lon="4.71829">
        <ele>173</ele>
        <time>2018-03-04T09:40:09Z</time>
      </trkpt>
      <trkpt lat="45.93819" lon="4.71823">
        <ele>173</ele>
        <time>2018-03-04T09:40:10Z</time>
      </trkpt>
      <trkpt lat="45.93822" lon="4.71816">
        <ele>173</ele>
        <time>2018-03-04T09:40:11Z</time>
      </trkpt>
      <trkpt lat="45.93827" lon="4.7181">
        <ele>173</ele>
        <time>2018-03-04T09:40:12Z</time>
      </trkpt>
      <trkpt lat="45.9383" lon="4.71803">
        <ele>174</ele>
        <time>2018-03-04T09:40:13Z</time>
      </trkpt>
      <trkpt lat="45.93835" lon="4.71795">
        <ele>173</ele>
        <time>2018-03-04T09:40:14Z</time>
      </trkpt>
      <trkpt lat="45.9384" lon="4.71788">
        <ele>173</ele>
        <time>2018-03-04T09:40:15Z</time>
      </trkpt>
      <trkpt lat="45.93844" lon="4.71782">
        <ele>173</ele>
        <time>2018-03-04T09:40:16Z</time>
      </trkpt>
      <trkpt lat="45.93849" lon="4.71774">
        <ele>173</ele>
        <time>2018-03-04T09:40:17Z</time>
      </trkpt>
      <trkpt lat="45.93853" lon="4.71769">
        <ele>173</ele>
        <time>2018-03-04T09:40:18Z</time>
      </trkpt>
      <trkpt lat="45.93858" lon="4.71762">
        <ele>173</ele>
        <time>2018-03-04T09:40:19Z</time>
      </trkpt>
      <trkpt lat="45.93862" lon="4.71755">
        <ele>173</ele>
        <time>2018-03-04T09:40:20Z</time>
      </trkpt>
      <trkpt lat="45.93867" lon="4.7175">
        <ele>173</ele>
        <time>2018-03-04T09:40:21Z</time>
      </trkpt>
      <trkpt lat="45.93871" lon="4.71744">
        <ele>174</ele>
        <time>2018-03-04T09:40:22Z</time>
      </trkpt>
      <trkpt lat="45.93876" lon="4.71737">
        <ele>174</ele>
        <time>2018-03-04T09:40:23Z</time>
      </trkpt>
      <trkpt lat="45.93881" lon="4.71731">
        <ele>174</ele>
        <time>2018-03-04T09:40:24Z</time>
      </trkpt>
      <trkpt lat="45.93887" lon="4.71725">
        <ele>174</ele>
        <time>2018-03-04T09:40:25Z</time>
      </trkpt>
      <trkpt lat="45.93892" lon="4.71719">
        <ele>174</ele>
        <time>2018-03-04T09:40:26Z</time>
      </trkpt>
      <trkpt lat="45.93897" lon="4.71713">
        <ele>174</ele>
        <time>2018-03-04T09:40:27Z</time>
      </trkpt>
      <trkpt lat="45.93902" lon="4.71708">
        <ele>174</ele>
        <time>2018-03-04T09:40:28Z</time>
      </trkpt>
      <trkpt lat="45.93907" lon="4.71703">
        <ele>174</ele>
        <time>2018-03-04T09:40:29Z</time>
      </trkpt>
      <trkpt lat="45.93913" lon="4.71699">
        <ele>174</ele>
        <time>2018-03-04T09:40:30Z</time>
      </trkpt>
      <trkpt lat="45.93919" lon="4.71696">
        <ele>174</ele>
        <time>2018-03-04T09:40:31Z</time>
      </trkpt>
      <trkpt lat="45.93924" lon="4.71695">
        <ele>174</ele>
        <time>2018-03-04T09:40:32Z</time>
      </trkpt>
      <trkpt lat="45.93929" lon="4.71693">
        <ele>175</ele>
        <time>2018-03-04T09:40:33Z</time>
      </trkpt>
      <trkpt lat="45.93935" lon="4.71691">
        <ele>175</ele>
        <time>2018-03-04T09:40:34Z</time>
      </trkpt>
      <trkpt lat="45.93941" lon="4.71688">
        <ele>175</ele>
        <time>2018-03-04T09:40:35Z</time>
      </trkpt>
      <trkpt lat="45.93947" lon="4.71685">
        <ele>175</ele>
        <time>2018-03-04T09:40:36Z</time>
      </trkpt>
      <trkpt lat="45.93952" lon="4.71683">
        <ele>175</ele>
        <time>2018-03-04T09:40:37Z</time>
      </trkpt>
      <trkpt lat="45.93957" lon="4.71681">
        <ele>175</ele>
        <time>2018-03-04T09:40:38Z</time>
      </trkpt>
      <trkpt lat="45.93963" lon="4.71678">
        <ele>175</ele>
        <time>2018-03-04T09:40:39Z</time>
      </trkpt>
      <trkpt lat="45.93968" lon="4.71677">
        <ele>175</ele>
        <time>2018-03-04T09:40:40Z</time>
      </trkpt>
      <trkpt lat="45.93973" lon="4.71674">
        <ele>175</ele>
        <time>2018-03-04T09:40:41Z</time>
      </trkpt>
      <trkpt lat="45.93978" lon="4.71672">
        <ele>176</ele>
        <time>2018-03-04T09:40:42Z</time>
      </trkpt>
      <trkpt lat="45.93983" lon="4.7167">
        <ele>176</ele>
        <time>2018-03-04T09:40:43Z</time>
      </trkpt>
      <trkpt lat="45.93988" lon="4.71669">
        <ele>176</ele>
        <time>2018-03-04T09:40:44Z</time>
      </trkpt>
      <trkpt lat="45.93993" lon="4.71669">
        <ele>176</ele>
        <time>2018-03-04T09:40:45Z</time>
      </trkpt>
      <trkpt lat="45.93998" lon="4.71672">
        <ele>176</ele>
        <time>2018-03-04T09:40:46Z</time>
      </trkpt>
      <trkpt lat="45.94002" lon="4.71677">
        <ele>176</ele>
        <time>2018-03-04T09:40:47Z</time>
      </trkpt>
      <trkpt lat="45.94007" lon="4.71679">
        <ele>176</ele>
        <time>2018-03-04T09:40:48Z</time>
      </trkpt>
      <trkpt lat="45.94012" lon="4.71679">
        <ele>176</ele>
        <time>2018-03-04T09:40:49Z</time>
      </trkpt>
      <trkpt lat="45.94017" lon="4.71676">
        <ele>175</ele>
        <time>2018-03-04T09:40:50Z</time>
      </trkpt>
      <trkpt lat="45.9402" lon="4.71671">
        <ele>175</ele>
        <time>2018-03-04T09:40:51Z</time>
      </trkpt>
      <trkpt lat="45.94022" lon="4.71665">
        <ele>176</ele>
        <time>2018-03-04T09:40:52Z</time>
      </trkpt>
      <trkpt lat="45.94025" lon="4.71658">
        <ele>175</ele>
        <time>2018-03-04T09:40:53Z</time>
      </trkpt>
      <trkpt lat="45.94028" lon="4.71652">
        <ele>175</ele>
        <time>2018-03-04T09:40:54Z</time>
      </trkpt>
      <trkpt lat="45.94033" lon="4.71649">
        <ele>175</ele>
        <time>2018-03-04T09:40:55Z</time>
      </trkpt>
      <trkpt lat="45.94039" lon="4.71646">
        <ele>175</ele>
        <time>2018-03-04T09:40:56Z</time>
      </trkpt>
      <trkpt lat="45.94044" lon="4.71643">
        <ele>175</ele>
        <time>2018-03-04T09:40:57Z</time>
      </trkpt>
      <trkpt lat="45.94049" lon="4.71641">
        <ele>175</ele>
        <time>2018-03-04T09:40:58Z</time>
      </trkpt>
      <trkpt lat="45.94055" lon="4.7164">
        <ele>174</ele>
        <time>2018-03-04T09:40:59Z</time>
      </trkpt>
      <trkpt lat="45.9406" lon="4.71636">
        <ele>174</ele>
        <time>2018-03-04T09:41:00Z</time>
      </trkpt>
      <trkpt lat="45.94066" lon="4.71635">
        <ele>174</ele>
        <time>2018-03-04T09:41:01Z</time>
      </trkpt>
      <trkpt lat="45.94072" lon="4.71633">
        <ele>174</ele>
        <time>2018-03-04T09:41:02Z</time>
      </trkpt>
      <trkpt lat="45.94078" lon="4.71631">
        <ele>174</ele>
        <time>2018-03-04T09:41:03Z</time>
      </trkpt>
      <trkpt lat="45.94084" lon="4.7163">
        <ele>173</ele>
        <time>2018-03-04T09:41:04Z</time>
      </trkpt>
      <trkpt lat="45.9409" lon="4.71627">
        <ele>173</ele>
        <time>2018-03-04T09:41:05Z</time>
      </trkpt>
      <trkpt lat="45.94096" lon="4.71625">
        <ele>173</ele>
        <time>2018-03-04T09:41:06Z</time>
      </trkpt>
      <trkpt lat="45.94102" lon="4.71624">
        <ele>173</ele>
        <time>2018-03-04T09:41:07Z</time>
      </trkpt>
      <trkpt lat="45.94108" lon="4.71621">
        <ele>173</ele>
        <time>2018-03-04T09:41:08Z</time>
      </trkpt>
      <trkpt lat="45.94115" lon="4.7162">
        <ele>173</ele>
        <time>2018-03-04T09:41:09Z</time>
      </trkpt>
      <trkpt lat="45.9412" lon="4.71618">
        <ele>173</ele>
        <time>2018-03-04T09:41:10Z</time>
      </trkpt>
      <trkpt lat="45.94125" lon="4.71616">
        <ele>173</ele>
        <time>2018-03-04T09:41:11Z</time>
      </trkpt>
      <trkpt lat="45.94131" lon="4.71614">
        <ele>173</ele>
        <time>2018-03-04T09:41:12Z</time>
      </trkpt>
      <trkpt lat="45.94137" lon="4.71611">
        <ele>173</ele>
        <time>2018-03-04T09:41:13Z</time>
      </trkpt>
      <trkpt lat="45.94142" lon="4.71609">
        <ele>173</ele>
        <time>2018-03-04T09:41:14Z</time>
      </trkpt>
      <trkpt lat="45.94148" lon="4.71606">
        <ele>173</ele>
        <time>2018-03-04T09:41:15Z</time>
      </trkpt>
      <trkpt lat="45.94154" lon="4.71604">
        <ele>173</ele>
        <time>2018-03-04T09:41:16Z</time>
      </trkpt>
      <trkpt lat="45.9416" lon="4.71602">
        <ele>173</ele>
        <time>2018-03-04T09:41:17Z</time>
      </trkpt>
      <trkpt lat="45.94166" lon="4.71599">
        <ele>173</ele>
        <time>2018-03-04T09:41:18Z</time>
      </trkpt>
      <trkpt lat="45.94172" lon="4.71596">
        <ele>173</ele>
        <time>2018-03-04T09:41:19Z</time>
      </trkpt>
      <trkpt lat="45.94178" lon="4.71594">
        <ele>173</ele>
        <time>2018-03-04T09:41:20Z</time>
      </trkpt>
      <trkpt lat="45.94184" lon="4.71592">
        <ele>173</ele>
        <time>2018-03-04T09:41:21Z</time>
      </trkpt>
      <trkpt lat="45.94189" lon="4.71591">
        <ele>173</ele>
        <time>2018-03-04T09:41:22Z</time>
      </trkpt>
      <trkpt lat="45.94196" lon="4.71587">
        <ele>173</ele>
        <time>2018-03-04T09:41:23Z</time>
      </trkpt>
      <trkpt lat="45.94202" lon="4.71585">
        <ele>173</ele>
        <time>2018-03-04T09:41:24Z</time>
      </trkpt>
      <trkpt lat="45.94208" lon="4.71584">
        <ele>173</ele>
        <time>2018-03-04T09:41:25Z</time>
      </trkpt>
      <trkpt lat="45.94214" lon="4.71581">
        <ele>174</ele>
        <time>2018-03-04T09:41:26Z</time>
      </trkpt>
      <trkpt lat="45.9422" lon="4.71579">
        <ele>174</ele>
        <time>2018-03-04T09:41:27Z</time>
      </trkpt>
      <trkpt lat="45.94226" lon="4.71577">
        <ele>174</ele>
        <time>2018-03-04T09:41:28Z</time>
      </trkpt>
      <trkpt lat="45.94232" lon="4.71575">
        <ele>174</ele>
        <time>2018-03-04T09:41:29Z</time>
      </trkpt>
      <trkpt lat="45.94237" lon="4.71572">
        <ele>174</ele>
        <time>2018-03-04T09:41:30Z</time>
      </trkpt>
      <trkpt lat="45.94244" lon="4.71569">
        <ele>174</ele>
        <time>2018-03-04T09:41:31Z</time>
      </trkpt>
      <trkpt lat="45.94249" lon="4.71567">
        <ele>174</ele>
        <time>2018-03-04T09:41:32Z</time>
      </trkpt>
      <trkpt lat="45.94255" lon="4.71565">
        <ele>175</ele>
        <time>2018-03-04T09:41:33Z</time>
      </trkpt>
      <trkpt lat="45.9426" lon="4.71563">
        <ele>175</ele>
        <time>2018-03-04T09:41:34Z</time>
      </trkpt>
      <trkpt lat="45.94265" lon="4.71561">
        <ele>175</ele>
        <time>2018-03-04T09:41:35Z</time>
      </trkpt>
      <trkpt lat="45.94271" lon="4.71558">
        <ele>175</ele>
        <time>2018-03-04T09:41:36Z</time>
      </trkpt>
      <trkpt lat="45.94276" lon="4.71556">
        <ele>175</ele>
        <time>2018-03-04T09:41:37Z</time>
      </trkpt>
      <trkpt lat="45.94282" lon="4.71553">
        <ele>175</ele>
        <time>2018-03-04T09:41:38Z</time>
      </trkpt>
      <trkpt lat="45.94287" lon="4.71551">
        <ele>175</ele>
        <time>2018-03-04T09:41:39Z</time>
      </trkpt>
      <trkpt lat="45.94293" lon="4.71548">
        <ele>175</ele>
        <time>2018-03-04T09:41:40Z</time>
      </trkpt>
      <trkpt lat="45.94299" lon="4.71546">
        <ele>175</ele>
        <time>2018-03-04T09:41:41Z</time>
      </trkpt>
      <trkpt lat="45.94305" lon="4.71544">
        <ele>175</ele>
        <time>2018-03-04T09:41:42Z</time>
      </trkpt>
      <trkpt lat="45.9431" lon="4.71542">
        <ele>175</ele>
        <time>2018-03-04T09:41:43Z</time>
      </trkpt>
      <trkpt lat="45.94316" lon="4.71541">
        <ele>175</ele>
        <time>2018-03-04T09:41:44Z</time>
      </trkpt>
      <trkpt lat="45.94323" lon="4.7154">
        <ele>175</ele>
        <time>2018-03-04T09:41:46Z</time>
      </trkpt>
      <trkpt lat="45.94325" lon="4.7154">
        <ele>176</ele>
        <time>2018-03-04T09:41:47Z</time>
      </trkpt>
      <trkpt lat="45.94334" lon="4.71534">
        <ele>176</ele>
        <time>2018-03-04T09:41:48Z</time>
      </trkpt>
      <trkpt lat="45.94341" lon="4.71529">
        <ele>176</ele>
        <time>2018-03-04T09:41:49Z</time>
      </trkpt>
      <trkpt lat="45.94347" lon="4.71526">
        <ele>176</ele>
        <time>2018-03-04T09:41:50Z</time>
      </trkpt>
      <trkpt lat="45.94354" lon="4.71525">
        <ele>176</ele>
        <time>2018-03-04T09:41:51Z</time>
      </trkpt>
      <trkpt lat="45.9436" lon="4.71523">
        <ele>176</ele>
        <time>2018-03-04T09:41:52Z</time>
      </trkpt>
      <trkpt lat="45.94365" lon="4.71521">
        <ele>176</ele>
        <time>2018-03-04T09:41:53Z</time>
      </trkpt>
      <trkpt lat="45.94371" lon="4.71519">
        <ele>176</ele>
        <time>2018-03-04T09:41:54Z</time>
      </trkpt>
      <trkpt lat="45.94377" lon="4.71517">
        <ele>176</ele>
        <time>2018-03-04T09:41:55Z</time>
      </trkpt>
      <trkpt lat="45.94383" lon="4.71516">
        <ele>177</ele>
        <time>2018-03-04T09:41:56Z</time>
      </trkpt>
      <trkpt lat="45.94389" lon="4.71511">
        <ele>177</ele>
        <time>2018-03-04T09:41:57Z</time>
      </trkpt>
      <trkpt lat="45.94394" lon="4.7151">
        <ele>177</ele>
        <time>2018-03-04T09:41:58Z</time>
      </trkpt>
      <trkpt lat="45.944" lon="4.71508">
        <ele>177</ele>
        <time>2018-03-04T09:41:59Z</time>
      </trkpt>
      <trkpt lat="45.94405" lon="4.71506">
        <ele>177</ele>
        <time>2018-03-04T09:42:00Z</time>
      </trkpt>
      <trkpt lat="45.94411" lon="4.71504">
        <ele>178</ele>
        <time>2018-03-04T09:42:01Z</time>
      </trkpt>
      <trkpt lat="45.94416" lon="4.71501">
        <ele>178</ele>
        <time>2018-03-04T09:42:02Z</time>
      </trkpt>
      <trkpt lat="45.94422" lon="4.71499">
        <ele>178</ele>
        <time>2018-03-04T09:42:03Z</time>
      </trkpt>
      <trkpt lat="45.94427" lon="4.71496">
        <ele>178</ele>
        <time>2018-03-04T09:42:04Z</time>
      </trkpt>
      <trkpt lat="45.94433" lon="4.71493">
        <ele>178</ele>
        <time>2018-03-04T09:42:05Z</time>
      </trkpt>
      <trkpt lat="45.94439" lon="4.71491">
        <ele>178</ele>
        <time>2018-03-04T09:42:06Z</time>
      </trkpt>
      <trkpt lat="45.94445" lon="4.71489">
        <ele>179</ele>
        <time>2018-03-04T09:42:07Z</time>
      </trkpt>
      <trkpt lat="45.9445" lon="4.71487">
        <ele>179</ele>
        <time>2018-03-04T09:42:08Z</time>
      </trkpt>
      <trkpt lat="45.94456" lon="4.71484">
        <ele>179</ele>
        <time>2018-03-04T09:42:09Z</time>
      </trkpt>
      <trkpt lat="45.94461" lon="4.71483">
        <ele>179</ele>
        <time>2018-03-04T09:42:10Z</time>
      </trkpt>
      <trkpt lat="45.94466" lon="4.71481">
        <ele>179</ele>
        <time>2018-03-04T09:42:11Z</time>
      </trkpt>
      <trkpt lat="45.9447" lon="4.71478">
        <ele>179</ele>
        <time>2018-03-04T09:42:12Z</time>
      </trkpt>
      <trkpt lat="45.94475" lon="4.71476">
        <ele>179</ele>
        <time>2018-03-04T09:42:13Z</time>
      </trkpt>
      <trkpt lat="45.9448" lon="4.71473">
        <ele>179</ele>
        <time>2018-03-04T09:42:14Z</time>
      </trkpt>
      <trkpt lat="45.94484" lon="4.71472">
        <ele>179</ele>
        <time>2018-03-04T09:42:15Z</time>
      </trkpt>
      <trkpt lat="45.94489" lon="4.7147">
        <ele>179</ele>
        <time>2018-03-04T09:42:16Z</time>
      </trkpt>
      <trkpt lat="45.94494" lon="4.71468">
        <ele>179</ele>
        <time>2018-03-04T09:42:17Z</time>
      </trkpt>
      <trkpt lat="45.94498" lon="4.71467">
        <ele>179</ele>
        <time>2018-03-04T09:42:18Z</time>
      </trkpt>
      <trkpt lat="45.94503" lon="4.71466">
        <ele>179</ele>
        <time>2018-03-04T09:42:19Z</time>
      </trkpt>
      <trkpt lat="45.94507" lon="4.71464">
        <ele>180</ele>
        <time>2018-03-04T09:42:20Z</time>
      </trkpt>
      <trkpt lat="45.94512" lon="4.71463">
        <ele>180</ele>
        <time>2018-03-04T09:42:21Z</time>
      </trkpt>
      <trkpt lat="45.94517" lon="4.71461">
        <ele>180</ele>
        <time>2018-03-04T09:42:22Z</time>
      </trkpt>
      <trkpt lat="45.94521" lon="4.71459">
        <ele>180</ele>
        <time>2018-03-04T09:42:23Z</time>
      </trkpt>
      <trkpt lat="45.94527" lon="4.71456">
        <ele>180</ele>
        <time>2018-03-04T09:42:24Z</time>
      </trkpt>
      <trkpt lat="45.94531" lon="4.71454">
        <ele>180</ele>
        <time>2018-03-04T09:42:25Z</time>
      </trkpt>
      <trkpt lat="45.94536" lon="4.71451">
        <ele>180</ele>
        <time>2018-03-04T09:42:26Z</time>
      </trkpt>
      <trkpt lat="45.94541" lon="4.7145">
        <ele>180</ele>
        <time>2018-03-04T09:42:27Z</time>
      </trkpt>
      <trkpt lat="45.94545" lon="4.71448">
        <ele>180</ele>
        <time>2018-03-04T09:42:28Z</time>
      </trkpt>
      <trkpt lat="45.94553" lon="4.71445">
        <ele>181</ele>
        <time>2018-03-04T09:42:30Z</time>
      </trkpt>
      <trkpt lat="45.94558" lon="4.71444">
        <ele>181</ele>
        <time>2018-03-04T09:42:31Z</time>
      </trkpt>
      <trkpt lat="45.94562" lon="4.71443">
        <ele>181</ele>
        <time>2018-03-04T09:42:32Z</time>
      </trkpt>
      <trkpt lat="45.94568" lon="4.71441">
        <ele>181</ele>
        <time>2018-03-04T09:42:33Z</time>
      </trkpt>
      <trkpt lat="45.94576" lon="4.71439">
        <ele>182</ele>
        <time>2018-03-04T09:42:35Z</time>
      </trkpt>
      <trkpt lat="45.94581" lon="4.71439">
        <ele>182</ele>
        <time>2018-03-04T09:42:36Z</time>
      </trkpt>
      <trkpt lat="45.94585" lon="4.71439">
        <ele>182</ele>
        <time>2018-03-04T09:42:37Z</time>
      </trkpt>
      <trkpt lat="45.9459" lon="4.7144">
        <ele>182</ele>
        <time>2018-03-04T09:42:38Z</time>
      </trkpt>
      <trkpt lat="45.94595" lon="4.7144">
        <ele>182</ele>
        <time>2018-03-04T09:42:39Z</time>
      </trkpt>
      <trkpt lat="45.946" lon="4.7144">
        <ele>182</ele>
        <time>2018-03-04T09:42:40Z</time>
      </trkpt>
      <trkpt lat="45.94604" lon="4.71442">
        <ele>182</ele>
        <time>2018-03-04T09:42:41Z</time>
      </trkpt>
      <trkpt lat="45.94609" lon="4.71442">
        <ele>181</ele>
        <time>2018-03-04T09:42:42Z</time>
      </trkpt>
      <trkpt lat="45.94614" lon="4.71442">
        <ele>181</ele>
        <time>2018-03-04T09:42:43Z</time>
      </trkpt>
      <trkpt lat="45.94619" lon="4.71443">
        <ele>181</ele>
        <time>2018-03-04T09:42:44Z</time>
      </trkpt>
      <trkpt lat="45.94624" lon="4.71442">
        <ele>181</ele>
        <time>2018-03-04T09:42:45Z</time>
      </trkpt>
      <trkpt lat="45.94629" lon="4.71442">
        <ele>181</ele>
        <time>2018-03-04T09:42:46Z</time>
      </trkpt>
      <trkpt lat="45.94634" lon="4.71442">
        <ele>181</ele>
        <time>2018-03-04T09:42:47Z</time>
      </trkpt>
      <trkpt lat="45.94638" lon="4.71443">
        <ele>181</ele>
        <time>2018-03-04T09:42:48Z</time>
      </trkpt>
      <trkpt lat="45.94643" lon="4.71443">
        <ele>181</ele>
        <time>2018-03-04T09:42:49Z</time>
      </trkpt>
      <trkpt lat="45.94648" lon="4.71444">
        <ele>181</ele>
        <time>2018-03-04T09:42:50Z</time>
      </trkpt>
      <trkpt lat="45.94657" lon="4.71446">
        <ele>181</ele>
        <time>2018-03-04T09:42:52Z</time>
      </trkpt>
      <trkpt lat="45.94662" lon="4.71446">
        <ele>181</ele>
        <time>2018-03-04T09:42:53Z</time>
      </trkpt>
      <trkpt lat="45.94671" lon="4.71447">
        <ele>182</ele>
        <time>2018-03-04T09:42:55Z</time>
      </trkpt>
      <trkpt lat="45.94676" lon="4.71447">
        <ele>182</ele>
        <time>2018-03-04T09:42:56Z</time>
      </trkpt>
      <trkpt lat="45.94685" lon="4.71447">
        <ele>182</ele>
        <time>2018-03-04T09:42:58Z</time>
      </trkpt>
      <trkpt lat="45.9469" lon="4.71448">
        <ele>182</ele>
        <time>2018-03-04T09:42:59Z</time>
      </trkpt>
      <trkpt lat="45.94695" lon="4.71449">
        <ele>182</ele>
        <time>2018-03-04T09:43:00Z</time>
      </trkpt>
      <trkpt lat="45.947" lon="4.7145">
        <ele>182</ele>
        <time>2018-03-04T09:43:01Z</time>
      </trkpt>
      <trkpt lat="45.94706" lon="4.71451">
        <ele>182</ele>
        <time>2018-03-04T09:43:02Z</time>
      </trkpt>
      <trkpt lat="45.94711" lon="4.71451">
        <ele>182</ele>
        <time>2018-03-04T09:43:03Z</time>
      </trkpt>
      <trkpt lat="45.94716" lon="4.71452">
        <ele>182</ele>
        <time>2018-03-04T09:43:04Z</time>
      </trkpt>
      <trkpt lat="45.94721" lon="4.71452">
        <ele>182</ele>
        <time>2018-03-04T09:43:05Z</time>
      </trkpt>
      <trkpt lat="45.94726" lon="4.71453">
        <ele>182</ele>
        <time>2018-03-04T09:43:06Z</time>
      </trkpt>
      <trkpt lat="45.9473" lon="4.71454">
        <ele>182</ele>
        <time>2018-03-04T09:43:07Z</time>
      </trkpt>
      <trkpt lat="45.94736" lon="4.71454">
        <ele>182</ele>
        <time>2018-03-04T09:43:08Z</time>
      </trkpt>
      <trkpt lat="45.94741" lon="4.71455">
        <ele>182</ele>
        <time>2018-03-04T09:43:09Z</time>
      </trkpt>
      <trkpt lat="45.94746" lon="4.71456">
        <ele>182</ele>
        <time>2018-03-04T09:43:10Z</time>
      </trkpt>
      <trkpt lat="45.94752" lon="4.71457">
        <ele>183</ele>
        <time>2018-03-04T09:43:11Z</time>
      </trkpt>
      <trkpt lat="45.94757" lon="4.71458">
        <ele>183</ele>
        <time>2018-03-04T09:43:12Z</time>
      </trkpt>
      <trkpt lat="45.94763" lon="4.71458">
        <ele>183</ele>
        <time>2018-03-04T09:43:13Z</time>
      </trkpt>
      <trkpt lat="45.94768" lon="4.71459">
        <ele>183</ele>
        <time>2018-03-04T09:43:14Z</time>
      </trkpt>
      <trkpt lat="45.94774" lon="4.7146">
        <ele>183</ele>
        <time>2018-03-04T09:43:15Z</time>
      </trkpt>
      <trkpt lat="45.94778" lon="4.71459">
        <ele>183</ele>
        <time>2018-03-04T09:43:16Z</time>
      </trkpt>
      <trkpt lat="45.94784" lon="4.71459">
        <ele>183</ele>
        <time>2018-03-04T09:43:17Z</time>
      </trkpt>
      <trkpt lat="45.94791" lon="4.71459">
        <ele>183</ele>
        <time>2018-03-04T09:43:18Z</time>
      </trkpt>
      <trkpt lat="45.94797" lon="4.71458">
        <ele>183</ele>
        <time>2018-03-04T09:43:19Z</time>
      </trkpt>
      <trkpt lat="45.94803" lon="4.71458">
        <ele>183</ele>
        <time>2018-03-04T09:43:20Z</time>
      </trkpt>
      <trkpt lat="45.94808" lon="4.71458">
        <ele>183</ele>
        <time>2018-03-04T09:43:21Z</time>
      </trkpt>
      <trkpt lat="45.94814" lon="4.71458">
        <ele>183</ele>
        <time>2018-03-04T09:43:22Z</time>
      </trkpt>
      <trkpt lat="45.9482" lon="4.71459">
        <ele>183</ele>
        <time>2018-03-04T09:43:23Z</time>
      </trkpt>
      <trkpt lat="45.94825" lon="4.7146">
        <ele>183</ele>
        <time>2018-03-04T09:43:24Z</time>
      </trkpt>
      <trkpt lat="45.9483" lon="4.7146">
        <ele>183</ele>
        <time>2018-03-04T09:43:25Z</time>
      </trkpt>
      <trkpt lat="45.94836" lon="4.7146">
        <ele>183</ele>
        <time>2018-03-04T09:43:26Z</time>
      </trkpt>
      <trkpt lat="45.94842" lon="4.71461">
        <ele>183</ele>
        <time>2018-03-04T09:43:27Z</time>
      </trkpt>
      <trkpt lat="45.94848" lon="4.71462">
        <ele>183</ele>
        <time>2018-03-04T09:43:28Z</time>
      </trkpt>
      <trkpt lat="45.94854" lon="4.71463">
        <ele>183</ele>
        <time>2018-03-04T09:43:29Z</time>
      </trkpt>
      <trkpt lat="45.94861" lon="4.71465">
        <ele>183</ele>
        <time>2018-03-04T09:43:30Z</time>
      </trkpt>
      <trkpt lat="45.94867" lon="4.71466">
        <ele>183</ele>
        <time>2018-03-04T09:43:31Z</time>
      </trkpt>
      <trkpt lat="45.94873" lon="4.71468">
        <ele>183</ele>
        <time>2018-03-04T09:43:32Z</time>
      </trkpt>
      <trkpt lat="45.9488" lon="4.71468">
        <ele>183</ele>
        <time>2018-03-04T09:43:33Z</time>
      </trkpt>
      <trkpt lat="45.94886" lon="4.71469">
        <ele>183</ele>
        <time>2018-03-04T09:43:34Z</time>
      </trkpt>
      <trkpt lat="45.94893" lon="4.71469">
        <ele>183</ele>
        <time>2018-03-04T09:43:35Z</time>
      </trkpt>
      <trkpt lat="45.949" lon="4.71469">
        <ele>183</ele>
        <time>2018-03-04T09:43:36Z</time>
      </trkpt>
      <trkpt lat="45.94907" lon="4.7147">
        <ele>183</ele>
        <time>2018-03-04T09:43:37Z</time>
      </trkpt>
      <trkpt lat="45.94913" lon="4.7147">
        <ele>183</ele>
        <time>2018-03-04T09:43:38Z</time>
      </trkpt>
      <trkpt lat="45.94919" lon="4.7147">
        <ele>183</ele>
        <time>2018-03-04T09:43:39Z</time>
      </trkpt>
      <trkpt lat="45.94924" lon="4.7147">
        <ele>183</ele>
        <time>2018-03-04T09:43:40Z</time>
      </trkpt>
      <trkpt lat="45.94929" lon="4.71471">
        <ele>183</ele>
        <time>2018-03-04T09:43:41Z</time>
      </trkpt>
      <trkpt lat="45.94935" lon="4.71472">
        <ele>183</ele>
        <time>2018-03-04T09:43:42Z</time>
      </trkpt>
      <trkpt lat="45.9494" lon="4.71473">
        <ele>183</ele>
        <time>2018-03-04T09:43:43Z</time>
      </trkpt>
      <trkpt lat="45.94945" lon="4.71474">
        <ele>183</ele>
        <time>2018-03-04T09:43:44Z</time>
      </trkpt>
      <trkpt lat="45.9495" lon="4.71478">
        <ele>183</ele>
        <time>2018-03-04T09:43:45Z</time>
      </trkpt>
      <trkpt lat="45.94954" lon="4.71483">
        <ele>183</ele>
        <time>2018-03-04T09:43:46Z</time>
      </trkpt>
      <trkpt lat="45.9496" lon="4.71487">
        <ele>182</ele>
        <time>2018-03-04T09:43:47Z</time>
      </trkpt>
      <trkpt lat="45.94964" lon="4.71491">
        <ele>182</ele>
        <time>2018-03-04T09:43:48Z</time>
      </trkpt>
      <trkpt lat="45.9497" lon="4.71492">
        <ele>182</ele>
        <time>2018-03-04T09:43:49Z</time>
      </trkpt>
      <trkpt lat="45.94975" lon="4.71491">
        <ele>182</ele>
        <time>2018-03-04T09:43:50Z</time>
      </trkpt>
      <trkpt lat="45.9498" lon="4.71488">
        <ele>182</ele>
        <time>2018-03-04T09:43:51Z</time>
      </trkpt>
      <trkpt lat="45.94984" lon="4.71484">
        <ele>182</ele>
        <time>2018-03-04T09:43:52Z</time>
      </trkpt>
      <trkpt lat="45.94989" lon="4.71482">
        <ele>182</ele>
        <time>2018-03-04T09:43:53Z</time>
      </trkpt>
      <trkpt lat="45.94995" lon="4.71481">
        <ele>182</ele>
        <time>2018-03-04T09:43:54Z</time>
      </trkpt>
      <trkpt lat="45.95" lon="4.71479">
        <ele>181</ele>
        <time>2018-03-04T09:43:55Z</time>
      </trkpt>
      <trkpt lat="45.95007" lon="4.7148">
        <ele>181</ele>
        <time>2018-03-04T09:43:56Z</time>
      </trkpt>
      <trkpt lat="45.95013" lon="4.71481">
        <ele>181</ele>
        <time>2018-03-04T09:43:57Z</time>
      </trkpt>
      <trkpt lat="45.95019" lon="4.71481">
        <ele>181</ele>
        <time>2018-03-04T09:43:58Z</time>
      </trkpt>
      <trkpt lat="45.95026" lon="4.71482">
        <ele>181</ele>
        <time>2018-03-04T09:43:59Z</time>
      </trkpt>
      <trkpt lat="45.95033" lon="4.71482">
        <ele>181</ele>
        <time>2018-03-04T09:44:00Z</time>
      </trkpt>
      <trkpt lat="45.95041" lon="4.71482">
        <ele>181</ele>
        <time>2018-03-04T09:44:01Z</time>
      </trkpt>
      <trkpt lat="45.95048" lon="4.71482">
        <ele>181</ele>
        <time>2018-03-04T09:44:02Z</time>
      </trkpt>
      <trkpt lat="45.95055" lon="4.71483">
        <ele>181</ele>
        <time>2018-03-04T09:44:03Z</time>
      </trkpt>
      <trkpt lat="45.95064" lon="4.71483">
        <ele>181</ele>
        <time>2018-03-04T09:44:04Z</time>
      </trkpt>
      <trkpt lat="45.95073" lon="4.71483">
        <ele>180</ele>
        <time>2018-03-04T09:44:05Z</time>
      </trkpt>
      <trkpt lat="45.95081" lon="4.71483">
        <ele>180</ele>
        <time>2018-03-04T09:44:06Z</time>
      </trkpt>
      <trkpt lat="45.9509" lon="4.71483">
        <ele>179</ele>
        <time>2018-03-04T09:44:07Z</time>
      </trkpt>
      <trkpt lat="45.95098" lon="4.71483">
        <ele>179</ele>
        <time>2018-03-04T09:44:08Z</time>
      </trkpt>
      <trkpt lat="45.95107" lon="4.71482">
        <ele>179</ele>
        <time>2018-03-04T09:44:09Z</time>
      </trkpt>
      <trkpt lat="45.95116" lon="4.71483">
        <ele>179</ele>
        <time>2018-03-04T09:44:10Z</time>
      </trkpt>
      <trkpt lat="45.95126" lon="4.71482">
        <ele>178</ele>
        <time>2018-03-04T09:44:11Z</time>
      </trkpt>
      <trkpt lat="45.95134" lon="4.71482">
        <ele>178</ele>
        <time>2018-03-04T09:44:12Z</time>
      </trkpt>
      <trkpt lat="45.95142" lon="4.71483">
        <ele>178</ele>
        <time>2018-03-04T09:44:13Z</time>
      </trkpt>
      <trkpt lat="45.9515" lon="4.71484">
        <ele>178</ele>
        <time>2018-03-04T09:44:14Z</time>
      </trkpt>
      <trkpt lat="45.95158" lon="4.71484">
        <ele>178</ele>
        <time>2018-03-04T09:44:15Z</time>
      </trkpt>
      <trkpt lat="45.95167" lon="4.71485">
        <ele>177</ele>
        <time>2018-03-04T09:44:16Z</time>
      </trkpt>
      <trkpt lat="45.95176" lon="4.71486">
        <ele>177</ele>
        <time>2018-03-04T09:44:17Z</time>
      </trkpt>
      <trkpt lat="45.95185" lon="4.71487">
        <ele>177</ele>
        <time>2018-03-04T09:44:18Z</time>
      </trkpt>
      <trkpt lat="45.95193" lon="4.71488">
        <ele>177</ele>
        <time>2018-03-04T09:44:19Z</time>
      </trkpt>
      <trkpt lat="45.95202" lon="4.71488">
        <ele>177</ele>
        <time>2018-03-04T09:44:20Z</time>
      </trkpt>
      <trkpt lat="45.95211" lon="4.71488">
        <ele>177</ele>
        <time>2018-03-04T09:44:21Z</time>
      </trkpt>
      <trkpt lat="45.95219" lon="4.71489">
        <ele>177</ele>
        <time>2018-03-04T09:44:22Z</time>
      </trkpt>
      <trkpt lat="45.95227" lon="4.71489">
        <ele>177</ele>
        <time>2018-03-04T09:44:23Z</time>
      </trkpt>
      <trkpt lat="45.95236" lon="4.71489">
        <ele>177</ele>
        <time>2018-03-04T09:44:24Z</time>
      </trkpt>
      <trkpt lat="45.95244" lon="4.7149">
        <ele>177</ele>
        <time>2018-03-04T09:44:25Z</time>
      </trkpt>
      <trkpt lat="45.95252" lon="4.7149">
        <ele>177</ele>
        <time>2018-03-04T09:44:26Z</time>
      </trkpt>
      <trkpt lat="45.95259" lon="4.7149">
        <ele>176</ele>
        <time>2018-03-04T09:44:27Z</time>
      </trkpt>
      <trkpt lat="45.95267" lon="4.71491">
        <ele>176</ele>
        <time>2018-03-04T09:44:28Z</time>
      </trkpt>
      <trkpt lat="45.95274" lon="4.71492">
        <ele>176</ele>
        <time>2018-03-04T09:44:29Z</time>
      </trkpt>
      <trkpt lat="45.95282" lon="4.71494">
        <ele>176</ele>
        <time>2018-03-04T09:44:30Z</time>
      </trkpt>
      <trkpt lat="45.95291" lon="4.71496">
        <ele>176</ele>
        <time>2018-03-04T09:44:31Z</time>
      </trkpt>
      <trkpt lat="45.95299" lon="4.71497">
        <ele>175</ele>
        <time>2018-03-04T09:44:32Z</time>
      </trkpt>
      <trkpt lat="45.95308" lon="4.71498">
        <ele>175</ele>
        <time>2018-03-04T09:44:33Z</time>
      </trkpt>
      <trkpt lat="45.95315" lon="4.715">
        <ele>175</ele>
        <time>2018-03-04T09:44:34Z</time>
      </trkpt>
      <trkpt lat="45.95324" lon="4.71499">
        <ele>175</ele>
        <time>2018-03-04T09:44:35Z</time>
      </trkpt>
      <trkpt lat="45.95332" lon="4.715">
        <ele>174</ele>
        <time>2018-03-04T09:44:36Z</time>
      </trkpt>
      <trkpt lat="45.9534" lon="4.71499">
        <ele>174</ele>
        <time>2018-03-04T09:44:37Z</time>
      </trkpt>
      <trkpt lat="45.95347" lon="4.71498">
        <ele>174</ele>
        <time>2018-03-04T09:44:38Z</time>
      </trkpt>
      <trkpt lat="45.95354" lon="4.71499">
        <ele>175</ele>
        <time>2018-03-04T09:44:39Z</time>
      </trkpt>
      <trkpt lat="45.95361" lon="4.71499">
        <ele>175</ele>
        <time>2018-03-04T09:44:40Z</time>
      </trkpt>
      <trkpt lat="45.95368" lon="4.71501">
        <ele>174</ele>
        <time>2018-03-04T09:44:41Z</time>
      </trkpt>
      <trkpt lat="45.95375" lon="4.71502">
        <ele>174</ele>
        <time>2018-03-04T09:44:42Z</time>
      </trkpt>
      <trkpt lat="45.95383" lon="4.71502">
        <ele>174</ele>
        <time>2018-03-04T09:44:43Z</time>
      </trkpt>
      <trkpt lat="45.95391" lon="4.71502">
        <ele>174</ele>
        <time>2018-03-04T09:44:44Z</time>
      </trkpt>
      <trkpt lat="45.95398" lon="4.71503">
        <ele>174</ele>
        <time>2018-03-04T09:44:45Z</time>
      </trkpt>
      <trkpt lat="45.95405" lon="4.71503">
        <ele>174</ele>
        <time>2018-03-04T09:44:46Z</time>
      </trkpt>
      <trkpt lat="45.95412" lon="4.71504">
        <ele>174</ele>
        <time>2018-03-04T09:44:47Z</time>
      </trkpt>
      <trkpt lat="45.95419" lon="4.71504">
        <ele>174</ele>
        <time>2018-03-04T09:44:48Z</time>
      </trkpt>
      <trkpt lat="45.95426" lon="4.71504">
        <ele>174</ele>
        <time>2018-03-04T09:44:49Z</time>
      </trkpt>
      <trkpt lat="45.95433" lon="4.71505">
        <ele>175</ele>
        <time>2018-03-04T09:44:50Z</time>
      </trkpt>
      <trkpt lat="45.9544" lon="4.71505">
        <ele>175</ele>
        <time>2018-03-04T09:44:51Z</time>
      </trkpt>
      <trkpt lat="45.95446" lon="4.71505">
        <ele>175</ele>
        <time>2018-03-04T09:44:52Z</time>
      </trkpt>
      <trkpt lat="45.95451" lon="4.71506">
        <ele>175</ele>
        <time>2018-03-04T09:44:53Z</time>
      </trkpt>
      <trkpt lat="45.95457" lon="4.71507">
        <ele>175</ele>
        <time>2018-03-04T09:44:54Z</time>
      </trkpt>
      <trkpt lat="45.95463" lon="4.71506">
        <ele>175</ele>
        <time>2018-03-04T09:44:55Z</time>
      </trkpt>
      <trkpt lat="45.9547" lon="4.71506">
        <ele>175</ele>
        <time>2018-03-04T09:44:56Z</time>
      </trkpt>
      <trkpt lat="45.95476" lon="4.71506">
        <ele>176</ele>
        <time>2018-03-04T09:44:57Z</time>
      </trkpt>
      <trkpt lat="45.95482" lon="4.71507">
        <ele>176</ele>
        <time>2018-03-04T09:44:58Z</time>
      </trkpt>
      <trkpt lat="45.95488" lon="4.71507">
        <ele>176</ele>
        <time>2018-03-04T09:44:59Z</time>
      </trkpt>
      <trkpt lat="45.95495" lon="4.71507">
        <ele>176</ele>
        <time>2018-03-04T09:45:00Z</time>
      </trkpt>
      <trkpt lat="45.95501" lon="4.71507">
        <ele>177</ele>
        <time>2018-03-04T09:45:01Z</time>
      </trkpt>
      <trkpt lat="45.95506" lon="4.71508">
        <ele>177</ele>
        <time>2018-03-04T09:45:02Z</time>
      </trkpt>
      <trkpt lat="45.95512" lon="4.71509">
        <ele>177</ele>
        <time>2018-03-04T09:45:03Z</time>
      </trkpt>
      <trkpt lat="45.95519" lon="4.71509">
        <ele>177</ele>
        <time>2018-03-04T09:45:04Z</time>
      </trkpt>
      <trkpt lat="45.95524" lon="4.7151">
        <ele>177</ele>
        <time>2018-03-04T09:45:05Z</time>
      </trkpt>
      <trkpt lat="45.9553" lon="4.7151">
        <ele>177</ele>
        <time>2018-03-04T09:45:06Z</time>
      </trkpt>
      <trkpt lat="45.95535" lon="4.71511">
        <ele>177</ele>
        <time>2018-03-04T09:45:07Z</time>
      </trkpt>
      <trkpt lat="45.95542" lon="4.71512">
        <ele>177</ele>
        <time>2018-03-04T09:45:08Z</time>
      </trkpt>
      <trkpt lat="45.95548" lon="4.71513">
        <ele>178</ele>
        <time>2018-03-04T09:45:09Z</time>
      </trkpt>
      <trkpt lat="45.95555" lon="4.71514">
        <ele>178</ele>
        <time>2018-03-04T09:45:10Z</time>
      </trkpt>
      <trkpt lat="45.9556" lon="4.71513">
        <ele>178</ele>
        <time>2018-03-04T09:45:11Z</time>
      </trkpt>
      <trkpt lat="45.95566" lon="4.71514">
        <ele>178</ele>
        <time>2018-03-04T09:45:12Z</time>
      </trkpt>
      <trkpt lat="45.95572" lon="4.71515">
        <ele>178</ele>
        <time>2018-03-04T09:45:13Z</time>
      </trkpt>
      <trkpt lat="45.95578" lon="4.71515">
        <ele>179</ele>
        <time>2018-03-04T09:45:14Z</time>
      </trkpt>
      <trkpt lat="45.95585" lon="4.71515">
        <ele>179</ele>
        <time>2018-03-04T09:45:15Z</time>
      </trkpt>
      <trkpt lat="45.95592" lon="4.71515">
        <ele>179</ele>
        <time>2018-03-04T09:45:16Z</time>
      </trkpt>
      <trkpt lat="45.95598" lon="4.71515">
        <ele>179</ele>
        <time>2018-03-04T09:45:17Z</time>
      </trkpt>
      <trkpt lat="45.95604" lon="4.71515">
        <ele>179</ele>
        <time>2018-03-04T09:45:18Z</time>
      </trkpt>
      <trkpt lat="45.95611" lon="4.71516">
        <ele>179</ele>
        <time>2018-03-04T09:45:19Z</time>
      </trkpt>
      <trkpt lat="45.95617" lon="4.71517">
        <ele>179</ele>
        <time>2018-03-04T09:45:20Z</time>
      </trkpt>
      <trkpt lat="45.95623" lon="4.71518">
        <ele>179</ele>
        <time>2018-03-04T09:45:21Z</time>
      </trkpt>
      <trkpt lat="45.95629" lon="4.71518">
        <ele>179</ele>
        <time>2018-03-04T09:45:22Z</time>
      </trkpt>
      <trkpt lat="45.95635" lon="4.71518">
        <ele>180</ele>
        <time>2018-03-04T09:45:23Z</time>
      </trkpt>
      <trkpt lat="45.95641" lon="4.7152">
        <ele>180</ele>
        <time>2018-03-04T09:45:24Z</time>
      </trkpt>
      <trkpt lat="45.95646" lon="4.71519">
        <ele>180</ele>
        <time>2018-03-04T09:45:25Z</time>
      </trkpt>
      <trkpt lat="45.95653" lon="4.71519">
        <ele>180</ele>
        <time>2018-03-04T09:45:26Z</time>
      </trkpt>
      <trkpt lat="45.95659" lon="4.71519">
        <ele>180</ele>
        <time>2018-03-04T09:45:27Z</time>
      </trkpt>
      <trkpt lat="45.95665" lon="4.7152">
        <ele>180</ele>
        <time>2018-03-04T09:45:28Z</time>
      </trkpt>
      <trkpt lat="45.95672" lon="4.7152">
        <ele>181</ele>
        <time>2018-03-04T09:45:29Z</time>
      </trkpt>
      <trkpt lat="45.95678" lon="4.71521">
        <ele>180</ele>
        <time>2018-03-04T09:45:30Z</time>
      </trkpt>
      <trkpt lat="45.95685" lon="4.7152">
        <ele>180</ele>
        <time>2018-03-04T09:45:31Z</time>
      </trkpt>
      <trkpt lat="45.95692" lon="4.7152">
        <ele>180</ele>
        <time>2018-03-04T09:45:32Z</time>
      </trkpt>
      <trkpt lat="45.95697" lon="4.7152">
        <ele>180</ele>
        <time>2018-03-04T09:45:33Z</time>
      </trkpt>
      <trkpt lat="45.95703" lon="4.7152">
        <ele>180</ele>
        <time>2018-03-04T09:45:34Z</time>
      </trkpt>
      <trkpt lat="45.95709" lon="4.71521">
        <ele>180</ele>
        <time>2018-03-04T09:45:35Z</time>
      </trkpt>
      <trkpt lat="45.95715" lon="4.71522">
        <ele>180</ele>
        <time>2018-03-04T09:45:36Z</time>
      </trkpt>
      <trkpt lat="45.9572" lon="4.71522">
        <ele>180</ele>
        <time>2018-03-04T09:45:37Z</time>
      </trkpt>
      <trkpt lat="45.95725" lon="4.71524">
        <ele>180</ele>
        <time>2018-03-04T09:45:38Z</time>
      </trkpt>
      <trkpt lat="45.95731" lon="4.71525">
        <ele>180</ele>
        <time>2018-03-04T09:45:39Z</time>
      </trkpt>
      <trkpt lat="45.95738" lon="4.71525">
        <ele>180</ele>
        <time>2018-03-04T09:45:40Z</time>
      </trkpt>
      <trkpt lat="45.95743" lon="4.71525">
        <ele>180</ele>
        <time>2018-03-04T09:45:41Z</time>
      </trkpt>
      <trkpt lat="45.95749" lon="4.71524">
        <ele>180</ele>
        <time>2018-03-04T09:45:42Z</time>
      </trkpt>
      <trkpt lat="45.95755" lon="4.71525">
        <ele>181</ele>
        <time>2018-03-04T09:45:43Z</time>
      </trkpt>
      <trkpt lat="45.95761" lon="4.71525">
        <ele>181</ele>
        <time>2018-03-04T09:45:44Z</time>
      </trkpt>
      <trkpt lat="45.95765" lon="4.71527">
        <ele>181</ele>
        <time>2018-03-04T09:45:45Z</time>
      </trkpt>
      <trkpt lat="45.95771" lon="4.7153">
        <ele>180</ele>
        <time>2018-03-04T09:45:46Z</time>
      </trkpt>
      <trkpt lat="45.95775" lon="4.7153">
        <ele>181</ele>
        <time>2018-03-04T09:45:47Z</time>
      </trkpt>
      <trkpt lat="45.95781" lon="4.7153">
        <ele>181</ele>
        <time>2018-03-04T09:45:48Z</time>
      </trkpt>
      <trkpt lat="45.95788" lon="4.7153">
        <ele>181</ele>
        <time>2018-03-04T09:45:49Z</time>
      </trkpt>
      <trkpt lat="45.95794" lon="4.7153">
        <ele>181</ele>
        <time>2018-03-04T09:45:50Z</time>
      </trkpt>
      <trkpt lat="45.95799" lon="4.7153">
        <ele>181</ele>
        <time>2018-03-04T09:45:51Z</time>
      </trkpt>
      <trkpt lat="45.95804" lon="4.71529">
        <ele>181</ele>
        <time>2018-03-04T09:45:52Z</time>
      </trkpt>
      <trkpt lat="45.95809" lon="4.7153">
        <ele>181</ele>
        <time>2018-03-04T09:45:53Z</time>
      </trkpt>
      <trkpt lat="45.95815" lon="4.71529">
        <ele>181</ele>
        <time>2018-03-04T09:45:54Z</time>
      </trkpt>
      <trkpt lat="45.95821" lon="4.71529">
        <ele>181</ele>
        <time>2018-03-04T09:45:55Z</time>
      </trkpt>
      <trkpt lat="45.95825" lon="4.71531">
        <ele>181</ele>
        <time>2018-03-04T09:45:56Z</time>
      </trkpt>
      <trkpt lat="45.95831" lon="4.7153">
        <ele>181</ele>
        <time>2018-03-04T09:45:57Z</time>
      </trkpt>
      <trkpt lat="45.95836" lon="4.7153">
        <ele>182</ele>
        <time>2018-03-04T09:45:58Z</time>
      </trkpt>
      <trkpt lat="45.95841" lon="4.71528">
        <ele>182</ele>
        <time>2018-03-04T09:45:59Z</time>
      </trkpt>
      <trkpt lat="45.95846" lon="4.71529">
        <ele>182</ele>
        <time>2018-03-04T09:46:00Z</time>
      </trkpt>
      <trkpt lat="45.95851" lon="4.7153">
        <ele>182</ele>
        <time>2018-03-04T09:46:01Z</time>
      </trkpt>
      <trkpt lat="45.95857" lon="4.71531">
        <ele>182</ele>
        <time>2018-03-04T09:46:02Z</time>
      </trkpt>
      <trkpt lat="45.95862" lon="4.71532">
        <ele>182</ele>
        <time>2018-03-04T09:46:03Z</time>
      </trkpt>
      <trkpt lat="45.95868" lon="4.71532">
        <ele>182</ele>
        <time>2018-03-04T09:46:04Z</time>
      </trkpt>
      <trkpt lat="45.95874" lon="4.71533">
        <ele>182</ele>
        <time>2018-03-04T09:46:05Z</time>
      </trkpt>
      <trkpt lat="45.95879" lon="4.71533">
        <ele>182</ele>
        <time>2018-03-04T09:46:06Z</time>
      </trkpt>
      <trkpt lat="45.95884" lon="4.71534">
        <ele>182</ele>
        <time>2018-03-04T09:46:07Z</time>
      </trkpt>
      <trkpt lat="45.9589" lon="4.71534">
        <ele>182</ele>
        <time>2018-03-04T09:46:08Z</time>
      </trkpt>
      <trkpt lat="45.95895" lon="4.71535">
        <ele>182</ele>
        <time>2018-03-04T09:46:09Z</time>
      </trkpt>
      <trkpt lat="45.95901" lon="4.71536">
        <ele>182</ele>
        <time>2018-03-04T09:46:10Z</time>
      </trkpt>
      <trkpt lat="45.95906" lon="4.71537">
        <ele>182</ele>
        <time>2018-03-04T09:46:11Z</time>
      </trkpt>
      <trkpt lat="45.95912" lon="4.71537">
        <ele>182</ele>
        <time>2018-03-04T09:46:12Z</time>
      </trkpt>
      <trkpt lat="45.95918" lon="4.71538">
        <ele>183</ele>
        <time>2018-03-04T09:46:13Z</time>
      </trkpt>
      <trkpt lat="45.95924" lon="4.71539">
        <ele>183</ele>
        <time>2018-03-04T09:46:14Z</time>
      </trkpt>
      <trkpt lat="45.9593" lon="4.71539">
        <ele>183</ele>
        <time>2018-03-04T09:46:15Z</time>
      </trkpt>
      <trkpt lat="45.95935" lon="4.71539">
        <ele>183</ele>
        <time>2018-03-04T09:46:16Z</time>
      </trkpt>
      <trkpt lat="45.9594" lon="4.7154">
        <ele>183</ele>
        <time>2018-03-04T09:46:17Z</time>
      </trkpt>
      <trkpt lat="45.95945" lon="4.7154">
        <ele>183</ele>
        <time>2018-03-04T09:46:18Z</time>
      </trkpt>
      <trkpt lat="45.95949" lon="4.71539">
        <ele>183</ele>
        <time>2018-03-04T09:46:19Z</time>
      </trkpt>
      <trkpt lat="45.95954" lon="4.7154">
        <ele>183</ele>
        <time>2018-03-04T09:46:20Z</time>
      </trkpt>
      <trkpt lat="45.9596" lon="4.71541">
        <ele>183</ele>
        <time>2018-03-04T09:46:21Z</time>
      </trkpt>
      <trkpt lat="45.95964" lon="4.71543">
        <ele>183</ele>
        <time>2018-03-04T09:46:22Z</time>
      </trkpt>
      <trkpt lat="45.95969" lon="4.71544">
        <ele>183</ele>
        <time>2018-03-04T09:46:23Z</time>
      </trkpt>
      <trkpt lat="45.95974" lon="4.71546">
        <ele>183</ele>
        <time>2018-03-04T09:46:24Z</time>
      </trkpt>
      <trkpt lat="45.9598" lon="4.71548">
        <ele>183</ele>
        <time>2018-03-04T09:46:25Z</time>
      </trkpt>
      <trkpt lat="45.95985" lon="4.71549">
        <ele>183</ele>
        <time>2018-03-04T09:46:26Z</time>
      </trkpt>
      <trkpt lat="45.95991" lon="4.71547">
        <ele>184</ele>
        <time>2018-03-04T09:46:27Z</time>
      </trkpt>
      <trkpt lat="45.95995" lon="4.71545">
        <ele>184</ele>
        <time>2018-03-04T09:46:28Z</time>
      </trkpt>
      <trkpt lat="45.96" lon="4.71544">
        <ele>185</ele>
        <time>2018-03-04T09:46:29Z</time>
      </trkpt>
      <trkpt lat="45.96006" lon="4.71542">
        <ele>185</ele>
        <time>2018-03-04T09:46:30Z</time>
      </trkpt>
      <trkpt lat="45.96011" lon="4.71542">
        <ele>185</ele>
        <time>2018-03-04T09:46:31Z</time>
      </trkpt>
      <trkpt lat="45.96017" lon="4.71542">
        <ele>185</ele>
        <time>2018-03-04T09:46:32Z</time>
      </trkpt>
      <trkpt lat="45.96023" lon="4.71542">
        <ele>185</ele>
        <time>2018-03-04T09:46:33Z</time>
      </trkpt>
      <trkpt lat="45.96028" lon="4.71543">
        <ele>185</ele>
        <time>2018-03-04T09:46:34Z</time>
      </trkpt>
      <trkpt lat="45.96034" lon="4.71544">
        <ele>185</ele>
        <time>2018-03-04T09:46:35Z</time>
      </trkpt>
      <trkpt lat="45.9604" lon="4.71544">
        <ele>185</ele>
        <time>2018-03-04T09:46:36Z</time>
      </trkpt>
      <trkpt lat="45.96046" lon="4.71545">
        <ele>185</ele>
        <time>2018-03-04T09:46:37Z</time>
      </trkpt>
      <trkpt lat="45.96052" lon="4.71546">
        <ele>185</ele>
        <time>2018-03-04T09:46:38Z</time>
      </trkpt>
      <trkpt lat="45.96059" lon="4.71547">
        <ele>185</ele>
        <time>2018-03-04T09:46:39Z</time>
      </trkpt>
      <trkpt lat="45.96065" lon="4.71548">
        <ele>185</ele>
        <time>2018-03-04T09:46:40Z</time>
      </trkpt>
      <trkpt lat="45.96072" lon="4.71548">
        <ele>185</ele>
        <time>2018-03-04T09:46:41Z</time>
      </trkpt>
      <trkpt lat="45.96079" lon="4.7155">
        <ele>185</ele>
        <time>2018-03-04T09:46:42Z</time>
      </trkpt>
      <trkpt lat="45.96085" lon="4.71552">
        <ele>185</ele>
        <time>2018-03-04T09:46:43Z</time>
      </trkpt>
      <trkpt lat="45.96092" lon="4.71553">
        <ele>184</ele>
        <time>2018-03-04T09:46:44Z</time>
      </trkpt>
      <trkpt lat="45.96098" lon="4.71554">
        <ele>184</ele>
        <time>2018-03-04T09:46:45Z</time>
      </trkpt>
      <trkpt lat="45.96105" lon="4.71554">
        <ele>184</ele>
        <time>2018-03-04T09:46:46Z</time>
      </trkpt>
      <trkpt lat="45.96112" lon="4.71554">
        <ele>184</ele>
        <time>2018-03-04T09:46:47Z</time>
      </trkpt>
      <trkpt lat="45.96119" lon="4.71555">
        <ele>184</ele>
        <time>2018-03-04T09:46:48Z</time>
      </trkpt>
      <trkpt lat="45.96126" lon="4.71556">
        <ele>184</ele>
        <time>2018-03-04T09:46:49Z</time>
      </trkpt>
      <trkpt lat="45.96133" lon="4.71558">
        <ele>184</ele>
        <time>2018-03-04T09:46:50Z</time>
      </trkpt>
      <trkpt lat="45.9614" lon="4.71558">
        <ele>184</ele>
        <time>2018-03-04T09:46:51Z</time>
      </trkpt>
      <trkpt lat="45.96147" lon="4.71559">
        <ele>184</ele>
        <time>2018-03-04T09:46:52Z</time>
      </trkpt>
      <trkpt lat="45.96153" lon="4.71561">
        <ele>183</ele>
        <time>2018-03-04T09:46:53Z</time>
      </trkpt>
      <trkpt lat="45.96161" lon="4.71562">
        <ele>183</ele>
        <time>2018-03-04T09:46:54Z</time>
      </trkpt>
      <trkpt lat="45.96168" lon="4.71564">
        <ele>182</ele>
        <time>2018-03-04T09:46:55Z</time>
      </trkpt>
      <trkpt lat="45.96174" lon="4.71565">
        <ele>182</ele>
        <time>2018-03-04T09:46:56Z</time>
      </trkpt>
      <trkpt lat="45.9618" lon="4.71566">
        <ele>183</ele>
        <time>2018-03-04T09:46:57Z</time>
      </trkpt>
      <trkpt lat="45.96187" lon="4.71567">
        <ele>183</ele>
        <time>2018-03-04T09:46:58Z</time>
      </trkpt>
      <trkpt lat="45.96194" lon="4.71568">
        <ele>183</ele>
        <time>2018-03-04T09:46:59Z</time>
      </trkpt>
      <trkpt lat="45.962" lon="4.7157">
        <ele>183</ele>
        <time>2018-03-04T09:47:00Z</time>
      </trkpt>
      <trkpt lat="45.96206" lon="4.71571">
        <ele>183</ele>
        <time>2018-03-04T09:47:01Z</time>
      </trkpt>
      <trkpt lat="45.96213" lon="4.71572">
        <ele>183</ele>
        <time>2018-03-04T09:47:02Z</time>
      </trkpt>
      <trkpt lat="45.9622" lon="4.71573">
        <ele>183</ele>
        <time>2018-03-04T09:47:03Z</time>
      </trkpt>
      <trkpt lat="45.96226" lon="4.71574">
        <ele>183</ele>
        <time>2018-03-04T09:47:04Z</time>
      </trkpt>
      <trkpt lat="45.96234" lon="4.71574">
        <ele>183</ele>
        <time>2018-03-04T09:47:05Z</time>
      </trkpt>
      <trkpt lat="45.96241" lon="4.71575">
        <ele>182</ele>
        <time>2018-03-04T09:47:06Z</time>
      </trkpt>
      <trkpt lat="45.96248" lon="4.71577">
        <ele>182</ele>
        <time>2018-03-04T09:47:07Z</time>
      </trkpt>
      <trkpt lat="45.96255" lon="4.71578">
        <ele>182</ele>
        <time>2018-03-04T09:47:08Z</time>
      </trkpt>
      <trkpt lat="45.96262" lon="4.71579">
        <ele>183</ele>
        <time>2018-03-04T09:47:09Z</time>
      </trkpt>
      <trkpt lat="45.96268" lon="4.71581">
        <ele>183</ele>
        <time>2018-03-04T09:47:10Z</time>
      </trkpt>
      <trkpt lat="45.96274" lon="4.71582">
        <ele>183</ele>
        <time>2018-03-04T09:47:11Z</time>
      </trkpt>
      <trkpt lat="45.96281" lon="4.71584">
        <ele>180</ele>
        <time>2018-03-04T09:47:12Z</time>
      </trkpt>
      <trkpt lat="45.96287" lon="4.71585">
        <ele>181</ele>
        <time>2018-03-04T09:47:13Z</time>
      </trkpt>
      <trkpt lat="45.96294" lon="4.71585">
        <ele>181</ele>
        <time>2018-03-04T09:47:14Z</time>
      </trkpt>
      <trkpt lat="45.963" lon="4.71585">
        <ele>181</ele>
        <time>2018-03-04T09:47:15Z</time>
      </trkpt>
      <trkpt lat="45.96306" lon="4.71586">
        <ele>181</ele>
        <time>2018-03-04T09:47:16Z</time>
      </trkpt>
      <trkpt lat="45.96313" lon="4.71586">
        <ele>181</ele>
        <time>2018-03-04T09:47:17Z</time>
      </trkpt>
      <trkpt lat="45.9632" lon="4.71587">
        <ele>182</ele>
        <time>2018-03-04T09:47:18Z</time>
      </trkpt>
      <trkpt lat="45.96326" lon="4.71588">
        <ele>182</ele>
        <time>2018-03-04T09:47:19Z</time>
      </trkpt>
      <trkpt lat="45.96333" lon="4.71589">
        <ele>182</ele>
        <time>2018-03-04T09:47:20Z</time>
      </trkpt>
      <trkpt lat="45.96339" lon="4.71591">
        <ele>183</ele>
        <time>2018-03-04T09:47:21Z</time>
      </trkpt>
      <trkpt lat="45.96346" lon="4.71592">
        <ele>182</ele>
        <time>2018-03-04T09:47:22Z</time>
      </trkpt>
      <trkpt lat="45.96354" lon="4.71592">
        <ele>182</ele>
        <time>2018-03-04T09:47:23Z</time>
      </trkpt>
      <trkpt lat="45.96361" lon="4.71592">
        <ele>182</ele>
        <time>2018-03-04T09:47:24Z</time>
      </trkpt>
      <trkpt lat="45.96368" lon="4.71594">
        <ele>182</ele>
        <time>2018-03-04T09:47:25Z</time>
      </trkpt>
      <trkpt lat="45.96374" lon="4.71595">
        <ele>182</ele>
        <time>2018-03-04T09:47:26Z</time>
      </trkpt>
      <trkpt lat="45.9638" lon="4.71596">
        <ele>182</ele>
        <time>2018-03-04T09:47:27Z</time>
      </trkpt>
      <trkpt lat="45.96387" lon="4.71597">
        <ele>183</ele>
        <time>2018-03-04T09:47:28Z</time>
      </trkpt>
      <trkpt lat="45.96393" lon="4.71599">
        <ele>183</ele>
        <time>2018-03-04T09:47:29Z</time>
      </trkpt>
      <trkpt lat="45.964" lon="4.716">
        <ele>183</ele>
        <time>2018-03-04T09:47:30Z</time>
      </trkpt>
      <trkpt lat="45.96407" lon="4.71601">
        <ele>183</ele>
        <time>2018-03-04T09:47:31Z</time>
      </trkpt>
      <trkpt lat="45.96413" lon="4.71601">
        <ele>183</ele>
        <time>2018-03-04T09:47:32Z</time>
      </trkpt>
      <trkpt lat="45.96421" lon="4.71602">
        <ele>184</ele>
        <time>2018-03-04T09:47:33Z</time>
      </trkpt>
      <trkpt lat="45.96428" lon="4.71603">
        <ele>183</ele>
        <time>2018-03-04T09:47:34Z</time>
      </trkpt>
      <trkpt lat="45.96435" lon="4.71605">
        <ele>183</ele>
        <time>2018-03-04T09:47:35Z</time>
      </trkpt>
      <trkpt lat="45.96441" lon="4.71606">
        <ele>183</ele>
        <time>2018-03-04T09:47:36Z</time>
      </trkpt>
      <trkpt lat="45.96448" lon="4.71607">
        <ele>183</ele>
        <time>2018-03-04T09:47:37Z</time>
      </trkpt>
      <trkpt lat="45.96455" lon="4.71608">
        <ele>183</ele>
        <time>2018-03-04T09:47:38Z</time>
      </trkpt>
      <trkpt lat="45.96462" lon="4.71609">
        <ele>183</ele>
        <time>2018-03-04T09:47:39Z</time>
      </trkpt>
      <trkpt lat="45.96468" lon="4.71609">
        <ele>183</ele>
        <time>2018-03-04T09:47:40Z</time>
      </trkpt>
      <trkpt lat="45.96474" lon="4.7161">
        <ele>183</ele>
        <time>2018-03-04T09:47:41Z</time>
      </trkpt>
      <trkpt lat="45.96481" lon="4.71612">
        <ele>183</ele>
        <time>2018-03-04T09:47:42Z</time>
      </trkpt>
      <trkpt lat="45.96487" lon="4.71613">
        <ele>183</ele>
        <time>2018-03-04T09:47:43Z</time>
      </trkpt>
      <trkpt lat="45.96493" lon="4.71614">
        <ele>183</ele>
        <time>2018-03-04T09:47:44Z</time>
      </trkpt>
      <trkpt lat="45.96499" lon="4.71616">
        <ele>183</ele>
        <time>2018-03-04T09:47:45Z</time>
      </trkpt>
      <trkpt lat="45.96505" lon="4.71618">
        <ele>184</ele>
        <time>2018-03-04T09:47:46Z</time>
      </trkpt>
      <trkpt lat="45.9651" lon="4.71622">
        <ele>184</ele>
        <time>2018-03-04T09:47:47Z</time>
      </trkpt>
      <trkpt lat="45.96515" lon="4.71626">
        <ele>184</ele>
        <time>2018-03-04T09:47:48Z</time>
      </trkpt>
      <trkpt lat="45.96519" lon="4.71631">
        <ele>184</ele>
        <time>2018-03-04T09:47:49Z</time>
      </trkpt>
      <trkpt lat="45.96523" lon="4.71636">
        <ele>183</ele>
        <time>2018-03-04T09:47:50Z</time>
      </trkpt>
      <trkpt lat="45.96529" lon="4.71638">
        <ele>184</ele>
        <time>2018-03-04T09:47:51Z</time>
      </trkpt>
      <trkpt lat="45.96535" lon="4.71638">
        <ele>184</ele>
        <time>2018-03-04T09:47:52Z</time>
      </trkpt>
      <trkpt lat="45.9654" lon="4.71636">
        <ele>184</ele>
        <time>2018-03-04T09:47:53Z</time>
      </trkpt>
      <trkpt lat="45.96545" lon="4.71632">
        <ele>184</ele>
        <time>2018-03-04T09:47:54Z</time>
      </trkpt>
      <trkpt lat="45.9655" lon="4.71629">
        <ele>184</ele>
        <time>2018-03-04T09:47:55Z</time>
      </trkpt>
      <trkpt lat="45.96555" lon="4.71627">
        <ele>184</ele>
        <time>2018-03-04T09:47:56Z</time>
      </trkpt>
      <trkpt lat="45.96561" lon="4.71628">
        <ele>185</ele>
        <time>2018-03-04T09:47:57Z</time>
      </trkpt>
      <trkpt lat="45.96566" lon="4.71628">
        <ele>185</ele>
        <time>2018-03-04T09:47:58Z</time>
      </trkpt>
      <trkpt lat="45.96572" lon="4.71629">
        <ele>185</ele>
        <time>2018-03-04T09:47:59Z</time>
      </trkpt>
      <trkpt lat="45.96577" lon="4.7163">
        <ele>185</ele>
        <time>2018-03-04T09:48:00Z</time>
      </trkpt>
      <trkpt lat="45.96582" lon="4.71631">
        <ele>185</ele>
        <time>2018-03-04T09:48:01Z</time>
      </trkpt>
      <trkpt lat="45.96588" lon="4.71632">
        <ele>187</ele>
        <time>2018-03-04T09:48:02Z</time>
      </trkpt>
      <trkpt lat="45.96592" lon="4.71632">
        <ele>187</ele>
        <time>2018-03-04T09:48:03Z</time>
      </trkpt>
      <trkpt lat="45.96598" lon="4.71633">
        <ele>187</ele>
        <time>2018-03-04T09:48:04Z</time>
      </trkpt>
      <trkpt lat="45.96602" lon="4.71634">
        <ele>187</ele>
        <time>2018-03-04T09:48:05Z</time>
      </trkpt>
      <trkpt lat="45.96607" lon="4.71635">
        <ele>187</ele>
        <time>2018-03-04T09:48:06Z</time>
      </trkpt>
      <trkpt lat="45.96612" lon="4.71635">
        <ele>187</ele>
        <time>2018-03-04T09:48:07Z</time>
      </trkpt>
      <trkpt lat="45.96618" lon="4.71635">
        <ele>187</ele>
        <time>2018-03-04T09:48:08Z</time>
      </trkpt>
      <trkpt lat="45.96623" lon="4.71636">
        <ele>187</ele>
        <time>2018-03-04T09:48:09Z</time>
      </trkpt>
      <trkpt lat="45.96628" lon="4.71636">
        <ele>187</ele>
        <time>2018-03-04T09:48:10Z</time>
      </trkpt>
      <trkpt lat="45.96633" lon="4.71637">
        <ele>188</ele>
        <time>2018-03-04T09:48:11Z</time>
      </trkpt>
      <trkpt lat="45.96638" lon="4.71638">
        <ele>188</ele>
        <time>2018-03-04T09:48:12Z</time>
      </trkpt>
      <trkpt lat="45.96644" lon="4.71638">
        <ele>188</ele>
        <time>2018-03-04T09:48:13Z</time>
      </trkpt>
      <trkpt lat="45.96649" lon="4.71639">
        <ele>188</ele>
        <time>2018-03-04T09:48:14Z</time>
      </trkpt>
      <trkpt lat="45.96655" lon="4.7164">
        <ele>188</ele>
        <time>2018-03-04T09:48:15Z</time>
      </trkpt>
      <trkpt lat="45.9666" lon="4.71641">
        <ele>188</ele>
        <time>2018-03-04T09:48:16Z</time>
      </trkpt>
      <trkpt lat="45.96666" lon="4.71642">
        <ele>188</ele>
        <time>2018-03-04T09:48:17Z</time>
      </trkpt>
      <trkpt lat="45.96672" lon="4.71643">
        <ele>189</ele>
        <time>2018-03-04T09:48:18Z</time>
      </trkpt>
      <trkpt lat="45.96678" lon="4.71644">
        <ele>189</ele>
        <time>2018-03-04T09:48:19Z</time>
      </trkpt>
      <trkpt lat="45.96683" lon="4.71644">
        <ele>189</ele>
        <time>2018-03-04T09:48:20Z</time>
      </trkpt>
      <trkpt lat="45.96689" lon="4.71645">
        <ele>190</ele>
        <time>2018-03-04T09:48:21Z</time>
      </trkpt>
      <trkpt lat="45.96695" lon="4.71645">
        <ele>190</ele>
        <time>2018-03-04T09:48:22Z</time>
      </trkpt>
      <trkpt lat="45.96701" lon="4.71647">
        <ele>190</ele>
        <time>2018-03-04T09:48:23Z</time>
      </trkpt>
      <trkpt lat="45.96706" lon="4.71648">
        <ele>190</ele>
        <time>2018-03-04T09:48:24Z</time>
      </trkpt>
      <trkpt lat="45.96712" lon="4.7165">
        <ele>190</ele>
        <time>2018-03-04T09:48:25Z</time>
      </trkpt>
      <trkpt lat="45.96719" lon="4.71651">
        <ele>190</ele>
        <time>2018-03-04T09:48:26Z</time>
      </trkpt>
      <trkpt lat="45.96724" lon="4.71653">
        <ele>190</ele>
        <time>2018-03-04T09:48:27Z</time>
      </trkpt>
      <trkpt lat="45.96731" lon="4.71654">
        <ele>190</ele>
        <time>2018-03-04T09:48:28Z</time>
      </trkpt>
      <trkpt lat="45.96737" lon="4.71653">
        <ele>190</ele>
        <time>2018-03-04T09:48:29Z</time>
      </trkpt>
      <trkpt lat="45.96743" lon="4.71655">
        <ele>190</ele>
        <time>2018-03-04T09:48:30Z</time>
      </trkpt>
      <trkpt lat="45.96748" lon="4.71656">
        <ele>190</ele>
        <time>2018-03-04T09:48:31Z</time>
      </trkpt>
      <trkpt lat="45.96754" lon="4.71659">
        <ele>190</ele>
        <time>2018-03-04T09:48:32Z</time>
      </trkpt>
      <trkpt lat="45.9676" lon="4.71658">
        <ele>191</ele>
        <time>2018-03-04T09:48:33Z</time>
      </trkpt>
      <trkpt lat="45.96766" lon="4.71659">
        <ele>191</ele>
        <time>2018-03-04T09:48:34Z</time>
      </trkpt>
      <trkpt lat="45.96772" lon="4.7166">
        <ele>191</ele>
        <time>2018-03-04T09:48:35Z</time>
      </trkpt>
      <trkpt lat="45.96778" lon="4.7166">
        <ele>192</ele>
        <time>2018-03-04T09:48:36Z</time>
      </trkpt>
      <trkpt lat="45.96784" lon="4.71661">
        <ele>192</ele>
        <time>2018-03-04T09:48:37Z</time>
      </trkpt>
      <trkpt lat="45.96789" lon="4.71663">
        <ele>192</ele>
        <time>2018-03-04T09:48:38Z</time>
      </trkpt>
      <trkpt lat="45.96794" lon="4.71664">
        <ele>192</ele>
        <time>2018-03-04T09:48:39Z</time>
      </trkpt>
      <trkpt lat="45.96799" lon="4.71665">
        <ele>192</ele>
        <time>2018-03-04T09:48:40Z</time>
      </trkpt>
      <trkpt lat="45.96806" lon="4.71665">
        <ele>192</ele>
        <time>2018-03-04T09:48:41Z</time>
      </trkpt>
      <trkpt lat="45.96812" lon="4.71666">
        <ele>192</ele>
        <time>2018-03-04T09:48:42Z</time>
      </trkpt>
      <trkpt lat="45.96818" lon="4.71667">
        <ele>190</ele>
        <time>2018-03-04T09:48:43Z</time>
      </trkpt>
      <trkpt lat="45.96824" lon="4.71668">
        <ele>190</ele>
        <time>2018-03-04T09:48:44Z</time>
      </trkpt>
      <trkpt lat="45.9683" lon="4.71669">
        <ele>191</ele>
        <time>2018-03-04T09:48:45Z</time>
      </trkpt>
      <trkpt lat="45.96836" lon="4.71669">
        <ele>192</ele>
        <time>2018-03-04T09:48:46Z</time>
      </trkpt>
      <trkpt lat="45.96841" lon="4.7167">
        <ele>191</ele>
        <time>2018-03-04T09:48:47Z</time>
      </trkpt>
      <trkpt lat="45.96846" lon="4.7167">
        <ele>191</ele>
        <time>2018-03-04T09:48:48Z</time>
      </trkpt>
      <trkpt lat="45.96851" lon="4.71672">
        <ele>191</ele>
        <time>2018-03-04T09:48:49Z</time>
      </trkpt>
      <trkpt lat="45.96856" lon="4.71673">
        <ele>190</ele>
        <time>2018-03-04T09:48:50Z</time>
      </trkpt>
      <trkpt lat="45.96862" lon="4.71673">
        <ele>190</ele>
        <time>2018-03-04T09:48:51Z</time>
      </trkpt>
      <trkpt lat="45.96866" lon="4.71674">
        <ele>190</ele>
        <time>2018-03-04T09:48:52Z</time>
      </trkpt>
      <trkpt lat="45.96872" lon="4.71675">
        <ele>190</ele>
        <time>2018-03-04T09:48:53Z</time>
      </trkpt>
      <trkpt lat="45.96877" lon="4.71676">
        <ele>190</ele>
        <time>2018-03-04T09:48:54Z</time>
      </trkpt>
      <trkpt lat="45.96882" lon="4.71676">
        <ele>191</ele>
        <time>2018-03-04T09:48:55Z</time>
      </trkpt>
      <trkpt lat="45.96887" lon="4.71676">
        <ele>191</ele>
        <time>2018-03-04T09:48:56Z</time>
      </trkpt>
      <trkpt lat="45.96892" lon="4.71677">
        <ele>191</ele>
        <time>2018-03-04T09:48:57Z</time>
      </trkpt>
      <trkpt lat="45.96897" lon="4.71677">
        <ele>191</ele>
        <time>2018-03-04T09:48:58Z</time>
      </trkpt>
      <trkpt lat="45.96902" lon="4.71676">
        <ele>192</ele>
        <time>2018-03-04T09:48:59Z</time>
      </trkpt>
      <trkpt lat="45.96907" lon="4.71677">
        <ele>192</ele>
        <time>2018-03-04T09:49:00Z</time>
      </trkpt>
      <trkpt lat="45.96912" lon="4.71678">
        <ele>192</ele>
        <time>2018-03-04T09:49:01Z</time>
      </trkpt>
      <trkpt lat="45.96918" lon="4.71679">
        <ele>193</ele>
        <time>2018-03-04T09:49:02Z</time>
      </trkpt>
      <trkpt lat="45.96923" lon="4.71679">
        <ele>193</ele>
        <time>2018-03-04T09:49:03Z</time>
      </trkpt>
      <trkpt lat="45.96929" lon="4.71679">
        <ele>193</ele>
        <time>2018-03-04T09:49:04Z</time>
      </trkpt>
      <trkpt lat="45.96934" lon="4.71679">
        <ele>192</ele>
        <time>2018-03-04T09:49:05Z</time>
      </trkpt>
      <trkpt lat="45.9694" lon="4.7168">
        <ele>192</ele>
        <time>2018-03-04T09:49:06Z</time>
      </trkpt>
      <trkpt lat="45.96945" lon="4.7168">
        <ele>192</ele>
        <time>2018-03-04T09:49:07Z</time>
      </trkpt>
      <trkpt lat="45.9695" lon="4.71681">
        <ele>192</ele>
        <time>2018-03-04T09:49:08Z</time>
      </trkpt>
      <trkpt lat="45.96956" lon="4.71682">
        <ele>192</ele>
        <time>2018-03-04T09:49:09Z</time>
      </trkpt>
      <trkpt lat="45.96961" lon="4.71681">
        <ele>192</ele>
        <time>2018-03-04T09:49:10Z</time>
      </trkpt>
      <trkpt lat="45.96967" lon="4.71681">
        <ele>192</ele>
        <time>2018-03-04T09:49:11Z</time>
      </trkpt>
      <trkpt lat="45.96972" lon="4.71681">
        <ele>192</ele>
        <time>2018-03-04T09:49:12Z</time>
      </trkpt>
      <trkpt lat="45.96977" lon="4.71681">
        <ele>192</ele>
        <time>2018-03-04T09:49:13Z</time>
      </trkpt>
      <trkpt lat="45.96983" lon="4.71682">
        <ele>192</ele>
        <time>2018-03-04T09:49:14Z</time>
      </trkpt>
      <trkpt lat="45.96988" lon="4.71682">
        <ele>192</ele>
        <time>2018-03-04T09:49:15Z</time>
      </trkpt>
      <trkpt lat="45.96994" lon="4.71682">
        <ele>192</ele>
        <time>2018-03-04T09:49:16Z</time>
      </trkpt>
      <trkpt lat="45.97" lon="4.71683">
        <ele>192</ele>
        <time>2018-03-04T09:49:17Z</time>
      </trkpt>
      <trkpt lat="45.97006" lon="4.71684">
        <ele>193</ele>
        <time>2018-03-04T09:49:18Z</time>
      </trkpt>
      <trkpt lat="45.97012" lon="4.71686">
        <ele>193</ele>
        <time>2018-03-04T09:49:19Z</time>
      </trkpt>
      <trkpt lat="45.97018" lon="4.71687">
        <ele>193</ele>
        <time>2018-03-04T09:49:20Z</time>
      </trkpt>
      <trkpt lat="45.97023" lon="4.71688">
        <ele>193</ele>
        <time>2018-03-04T09:49:21Z</time>
      </trkpt>
      <trkpt lat="45.97028" lon="4.7169">
        <ele>193</ele>
        <time>2018-03-04T09:49:22Z</time>
      </trkpt>
      <trkpt lat="45.97034" lon="4.71689">
        <ele>193</ele>
        <time>2018-03-04T09:49:23Z</time>
      </trkpt>
      <trkpt lat="45.9704" lon="4.71689">
        <ele>193</ele>
        <time>2018-03-04T09:49:24Z</time>
      </trkpt>
      <trkpt lat="45.97045" lon="4.71689">
        <ele>193</ele>
        <time>2018-03-04T09:49:25Z</time>
      </trkpt>
      <trkpt lat="45.9705" lon="4.7169">
        <ele>193</ele>
        <time>2018-03-04T09:49:26Z</time>
      </trkpt>
      <trkpt lat="45.97056" lon="4.71691">
        <ele>193</ele>
        <time>2018-03-04T09:49:27Z</time>
      </trkpt>
      <trkpt lat="45.97062" lon="4.71693">
        <ele>193</ele>
        <time>2018-03-04T09:49:28Z</time>
      </trkpt>
      <trkpt lat="45.97068" lon="4.71694">
        <ele>193</ele>
        <time>2018-03-04T09:49:29Z</time>
      </trkpt>
      <trkpt lat="45.97074" lon="4.71695">
        <ele>193</ele>
        <time>2018-03-04T09:49:30Z</time>
      </trkpt>
      <trkpt lat="45.9708" lon="4.71696">
        <ele>193</ele>
        <time>2018-03-04T09:49:31Z</time>
      </trkpt>
      <trkpt lat="45.97086" lon="4.71697">
        <ele>194</ele>
        <time>2018-03-04T09:49:32Z</time>
      </trkpt>
      <trkpt lat="45.97092" lon="4.71697">
        <ele>194</ele>
        <time>2018-03-04T09:49:33Z</time>
      </trkpt>
      <trkpt lat="45.97097" lon="4.71697">
        <ele>194</ele>
        <time>2018-03-04T09:49:34Z</time>
      </trkpt>
      <trkpt lat="45.97104" lon="4.71698">
        <ele>194</ele>
        <time>2018-03-04T09:49:35Z</time>
      </trkpt>
      <trkpt lat="45.9711" lon="4.71699">
        <ele>194</ele>
        <time>2018-03-04T09:49:36Z</time>
      </trkpt>
      <trkpt lat="45.97116" lon="4.71698">
        <ele>194</ele>
        <time>2018-03-04T09:49:37Z</time>
      </trkpt>
      <trkpt lat="45.97123" lon="4.71697">
        <ele>194</ele>
        <time>2018-03-04T09:49:38Z</time>
      </trkpt>
      <trkpt lat="45.97129" lon="4.71699">
        <ele>194</ele>
        <time>2018-03-04T09:49:39Z</time>
      </trkpt>
      <trkpt lat="45.97135" lon="4.71699">
        <ele>194</ele>
        <time>2018-03-04T09:49:40Z</time>
      </trkpt>
      <trkpt lat="45.97141" lon="4.71699">
        <ele>195</ele>
        <time>2018-03-04T09:49:41Z</time>
      </trkpt>
      <trkpt lat="45.97147" lon="4.717">
        <ele>195</ele>
        <time>2018-03-04T09:49:42Z</time>
      </trkpt>
      <trkpt lat="45.97154" lon="4.71699">
        <ele>195</ele>
        <time>2018-03-04T09:49:43Z</time>
      </trkpt>
      <trkpt lat="45.97161" lon="4.71699">
        <ele>195</ele>
        <time>2018-03-04T09:49:44Z</time>
      </trkpt>
      <trkpt lat="45.97167" lon="4.717">
        <ele>196</ele>
        <time>2018-03-04T09:49:45Z</time>
      </trkpt>
      <trkpt lat="45.97174" lon="4.717">
        <ele>196</ele>
        <time>2018-03-04T09:49:46Z</time>
      </trkpt>
      <trkpt lat="45.9718" lon="4.71701">
        <ele>196</ele>
        <time>2018-03-04T09:49:47Z</time>
      </trkpt>
      <trkpt lat="45.97186" lon="4.71701">
        <ele>196</ele>
        <time>2018-03-04T09:49:48Z</time>
      </trkpt>
      <trkpt lat="45.97191" lon="4.71702">
        <ele>196</ele>
        <time>2018-03-04T09:49:49Z</time>
      </trkpt>
      <trkpt lat="45.97198" lon="4.71703">
        <ele>196</ele>
        <time>2018-03-04T09:49:50Z</time>
      </trkpt>
      <trkpt lat="45.97204" lon="4.71703">
        <ele>196</ele>
        <time>2018-03-04T09:49:51Z</time>
      </trkpt>
      <trkpt lat="45.9721" lon="4.71704">
        <ele>196</ele>
        <time>2018-03-04T09:49:52Z</time>
      </trkpt>
      <trkpt lat="45.97216" lon="4.71705">
        <ele>196</ele>
        <time>2018-03-04T09:49:53Z</time>
      </trkpt>
      <trkpt lat="45.97222" lon="4.71705">
        <ele>196</ele>
        <time>2018-03-04T09:49:54Z</time>
      </trkpt>
      <trkpt lat="45.97228" lon="4.71706">
        <ele>197</ele>
        <time>2018-03-04T09:49:55Z</time>
      </trkpt>
      <trkpt lat="45.97234" lon="4.71707">
        <ele>197</ele>
        <time>2018-03-04T09:49:56Z</time>
      </trkpt>
      <trkpt lat="45.9724" lon="4.71707">
        <ele>197</ele>
        <time>2018-03-04T09:49:57Z</time>
      </trkpt>
      <trkpt lat="45.97246" lon="4.71709">
        <ele>197</ele>
        <time>2018-03-04T09:49:58Z</time>
      </trkpt>
      <trkpt lat="45.97252" lon="4.71709">
        <ele>196</ele>
        <time>2018-03-04T09:49:59Z</time>
      </trkpt>
      <trkpt lat="45.97258" lon="4.71709">
        <ele>196</ele>
        <time>2018-03-04T09:50:00Z</time>
      </trkpt>
      <trkpt lat="45.97264" lon="4.71711">
        <ele>196</ele>
        <time>2018-03-04T09:50:01Z</time>
      </trkpt>
      <trkpt lat="45.97271" lon="4.71713">
        <ele>196</ele>
        <time>2018-03-04T09:50:02Z</time>
      </trkpt>
      <trkpt lat="45.97277" lon="4.71714">
        <ele>196</ele>
        <time>2018-03-04T09:50:03Z</time>
      </trkpt>
      <trkpt lat="45.97283" lon="4.71717">
        <ele>196</ele>
        <time>2018-03-04T09:50:04Z</time>
      </trkpt>
      <trkpt lat="45.97288" lon="4.71721">
        <ele>196</ele>
        <time>2018-03-04T09:50:05Z</time>
      </trkpt>
      <trkpt lat="45.97292" lon="4.71728">
        <ele>196</ele>
        <time>2018-03-04T09:50:06Z</time>
      </trkpt>
      <trkpt lat="45.97297" lon="4.71732">
        <ele>196</ele>
        <time>2018-03-04T09:50:07Z</time>
      </trkpt>
      <trkpt lat="45.97301" lon="4.71735">
        <ele>196</ele>
        <time>2018-03-04T09:50:08Z</time>
      </trkpt>
      <trkpt lat="45.97307" lon="4.71736">
        <ele>196</ele>
        <time>2018-03-04T09:50:09Z</time>
      </trkpt>
      <trkpt lat="45.97312" lon="4.71734">
        <ele>195</ele>
        <time>2018-03-04T09:50:10Z</time>
      </trkpt>
      <trkpt lat="45.97318" lon="4.7173">
        <ele>195</ele>
        <time>2018-03-04T09:50:11Z</time>
      </trkpt>
      <trkpt lat="45.97323" lon="4.71726">
        <ele>195</ele>
        <time>2018-03-04T09:50:12Z</time>
      </trkpt>
      <trkpt lat="45.97328" lon="4.71723">
        <ele>196</ele>
        <time>2018-03-04T09:50:13Z</time>
      </trkpt>
      <trkpt lat="45.97334" lon="4.7172">
        <ele>195</ele>
        <time>2018-03-04T09:50:14Z</time>
      </trkpt>
      <trkpt lat="45.9734" lon="4.7172">
        <ele>195</ele>
        <time>2018-03-04T09:50:15Z</time>
      </trkpt>
      <trkpt lat="45.97345" lon="4.7172">
        <ele>195</ele>
        <time>2018-03-04T09:50:16Z</time>
      </trkpt>
      <trkpt lat="45.97351" lon="4.71721">
        <ele>195</ele>
        <time>2018-03-04T09:50:17Z</time>
      </trkpt>
      <trkpt lat="45.97356" lon="4.71721">
        <ele>195</ele>
        <time>2018-03-04T09:50:18Z</time>
      </trkpt>
      <trkpt lat="45.97362" lon="4.71722">
        <ele>195</ele>
        <time>2018-03-04T09:50:19Z</time>
      </trkpt>
      <trkpt lat="45.97367" lon="4.71721">
        <ele>195</ele>
        <time>2018-03-04T09:50:20Z</time>
      </trkpt>
      <trkpt lat="45.97374" lon="4.7172">
        <ele>195</ele>
        <time>2018-03-04T09:50:21Z</time>
      </trkpt>
      <trkpt lat="45.97379" lon="4.7172">
        <ele>195</ele>
        <time>2018-03-04T09:50:22Z</time>
      </trkpt>
      <trkpt lat="45.97385" lon="4.71719">
        <ele>195</ele>
        <time>2018-03-04T09:50:23Z</time>
      </trkpt>
      <trkpt lat="45.97391" lon="4.7172">
        <ele>195</ele>
        <time>2018-03-04T09:50:24Z</time>
      </trkpt>
      <trkpt lat="45.97397" lon="4.7172">
        <ele>195</ele>
        <time>2018-03-04T09:50:25Z</time>
      </trkpt>
      <trkpt lat="45.97403" lon="4.71719">
        <ele>195</ele>
        <time>2018-03-04T09:50:26Z</time>
      </trkpt>
      <trkpt lat="45.97409" lon="4.7172">
        <ele>195</ele>
        <time>2018-03-04T09:50:27Z</time>
      </trkpt>
      <trkpt lat="45.97414" lon="4.7172">
        <ele>195</ele>
        <time>2018-03-04T09:50:28Z</time>
      </trkpt>
      <trkpt lat="45.9742" lon="4.71722">
        <ele>196</ele>
        <time>2018-03-04T09:50:29Z</time>
      </trkpt>
      <trkpt lat="45.97426" lon="4.71722">
        <ele>196</ele>
        <time>2018-03-04T09:50:30Z</time>
      </trkpt>
      <trkpt lat="45.97432" lon="4.71724">
        <ele>196</ele>
        <time>2018-03-04T09:50:31Z</time>
      </trkpt>
      <trkpt lat="45.97438" lon="4.71724">
        <ele>196</ele>
        <time>2018-03-04T09:50:32Z</time>
      </trkpt>
      <trkpt lat="45.97444" lon="4.71726">
        <ele>196</ele>
        <time>2018-03-04T09:50:33Z</time>
      </trkpt>
      <trkpt lat="45.9745" lon="4.71727">
        <ele>196</ele>
        <time>2018-03-04T09:50:34Z</time>
      </trkpt>
      <trkpt lat="45.97456" lon="4.71728">
        <ele>197</ele>
        <time>2018-03-04T09:50:35Z</time>
      </trkpt>
      <trkpt lat="45.97462" lon="4.71727">
        <ele>197</ele>
        <time>2018-03-04T09:50:36Z</time>
      </trkpt>
      <trkpt lat="45.97468" lon="4.71728">
        <ele>197</ele>
        <time>2018-03-04T09:50:37Z</time>
      </trkpt>
      <trkpt lat="45.97474" lon="4.71729">
        <ele>197</ele>
        <time>2018-03-04T09:50:38Z</time>
      </trkpt>
      <trkpt lat="45.9748" lon="4.7173">
        <ele>197</ele>
        <time>2018-03-04T09:50:39Z</time>
      </trkpt>
      <trkpt lat="45.97487" lon="4.71731">
        <ele>197</ele>
        <time>2018-03-04T09:50:40Z</time>
      </trkpt>
      <trkpt lat="45.97493" lon="4.71731">
        <ele>197</ele>
        <time>2018-03-04T09:50:41Z</time>
      </trkpt>
      <trkpt lat="45.97499" lon="4.7173">
        <ele>197</ele>
        <time>2018-03-04T09:50:42Z</time>
      </trkpt>
      <trkpt lat="45.97505" lon="4.7173">
        <ele>198</ele>
        <time>2018-03-04T09:50:43Z</time>
      </trkpt>
      <trkpt lat="45.97512" lon="4.7173">
        <ele>198</ele>
        <time>2018-03-04T09:50:44Z</time>
      </trkpt>
      <trkpt lat="45.97519" lon="4.7173">
        <ele>198</ele>
        <time>2018-03-04T09:50:45Z</time>
      </trkpt>
      <trkpt lat="45.97525" lon="4.71731">
        <ele>198</ele>
        <time>2018-03-04T09:50:46Z</time>
      </trkpt>
      <trkpt lat="45.97532" lon="4.71731">
        <ele>198</ele>
        <time>2018-03-04T09:50:47Z</time>
      </trkpt>
      <trkpt lat="45.97539" lon="4.71732">
        <ele>198</ele>
        <time>2018-03-04T09:50:48Z</time>
      </trkpt>
      <trkpt lat="45.97545" lon="4.71732">
        <ele>198</ele>
        <time>2018-03-04T09:50:49Z</time>
      </trkpt>
      <trkpt lat="45.97552" lon="4.71733">
        <ele>198</ele>
        <time>2018-03-04T09:50:50Z</time>
      </trkpt>
      <trkpt lat="45.97559" lon="4.71733">
        <ele>197</ele>
        <time>2018-03-04T09:50:51Z</time>
      </trkpt>
      <trkpt lat="45.97565" lon="4.71733">
        <ele>197</ele>
        <time>2018-03-04T09:50:52Z</time>
      </trkpt>
      <trkpt lat="45.97572" lon="4.71733">
        <ele>197</ele>
        <time>2018-03-04T09:50:53Z</time>
      </trkpt>
      <trkpt lat="45.97579" lon="4.71733">
        <ele>197</ele>
        <time>2018-03-04T09:50:54Z</time>
      </trkpt>
      <trkpt lat="45.97585" lon="4.71733">
        <ele>196</ele>
        <time>2018-03-04T09:50:55Z</time>
      </trkpt>
      <trkpt lat="45.97591" lon="4.71734">
        <ele>196</ele>
        <time>2018-03-04T09:50:56Z</time>
      </trkpt>
      <trkpt lat="45.97597" lon="4.71737">
        <ele>196</ele>
        <time>2018-03-04T09:50:57Z</time>
      </trkpt>
      <trkpt lat="45.97602" lon="4.71742">
        <ele>196</ele>
        <time>2018-03-04T09:50:58Z</time>
      </trkpt>
      <trkpt lat="45.97607" lon="4.71748">
        <ele>196</ele>
        <time>2018-03-04T09:50:59Z</time>
      </trkpt>
      <trkpt lat="45.97612" lon="4.71753">
        <ele>194</ele>
        <time>2018-03-04T09:51:00Z</time>
      </trkpt>
      <trkpt lat="45.97618" lon="4.71756">
        <ele>194</ele>
        <time>2018-03-04T09:51:01Z</time>
      </trkpt>
      <trkpt lat="45.97624" lon="4.71756">
        <ele>194</ele>
        <time>2018-03-04T09:51:02Z</time>
      </trkpt>
      <trkpt lat="45.9763" lon="4.71754">
        <ele>194</ele>
        <time>2018-03-04T09:51:03Z</time>
      </trkpt>
      <trkpt lat="45.97635" lon="4.7175">
        <ele>194</ele>
        <time>2018-03-04T09:51:04Z</time>
      </trkpt>
      <trkpt lat="45.97641" lon="4.71747">
        <ele>196</ele>
        <time>2018-03-04T09:51:05Z</time>
      </trkpt>
      <trkpt lat="45.97647" lon="4.71744">
        <ele>196</ele>
        <time>2018-03-04T09:51:06Z</time>
      </trkpt>
      <trkpt lat="45.97653" lon="4.71746">
        <ele>195</ele>
        <time>2018-03-04T09:51:07Z</time>
      </trkpt>
      <trkpt lat="45.97659" lon="4.71747">
        <ele>195</ele>
        <time>2018-03-04T09:51:08Z</time>
      </trkpt>
      <trkpt lat="45.97665" lon="4.71749">
        <ele>194</ele>
        <time>2018-03-04T09:51:09Z</time>
      </trkpt>
      <trkpt lat="45.97671" lon="4.71749">
        <ele>194</ele>
        <time>2018-03-04T09:51:10Z</time>
      </trkpt>
      <trkpt lat="45.97677" lon="4.71749">
        <ele>195</ele>
        <time>2018-03-04T09:51:11Z</time>
      </trkpt>
      <trkpt lat="45.97684" lon="4.71749">
        <ele>195</ele>
        <time>2018-03-04T09:51:12Z</time>
      </trkpt>
      <trkpt lat="45.9769" lon="4.7175">
        <ele>196</ele>
        <time>2018-03-04T09:51:13Z</time>
      </trkpt>
      <trkpt lat="45.97697" lon="4.71751">
        <ele>195</ele>
        <time>2018-03-04T09:51:14Z</time>
      </trkpt>
      <trkpt lat="45.97703" lon="4.71751">
        <ele>195</ele>
        <time>2018-03-04T09:51:15Z</time>
      </trkpt>
      <trkpt lat="45.97709" lon="4.71752">
        <ele>195</ele>
        <time>2018-03-04T09:51:16Z</time>
      </trkpt>
      <trkpt lat="45.97715" lon="4.71752">
        <ele>195</ele>
        <time>2018-03-04T09:51:17Z</time>
      </trkpt>
      <trkpt lat="45.97721" lon="4.71753">
        <ele>195</ele>
        <time>2018-03-04T09:51:18Z</time>
      </trkpt>
      <trkpt lat="45.97727" lon="4.71754">
        <ele>195</ele>
        <time>2018-03-04T09:51:19Z</time>
      </trkpt>
      <trkpt lat="45.97734" lon="4.71754">
        <ele>195</ele>
        <time>2018-03-04T09:51:20Z</time>
      </trkpt>
      <trkpt lat="45.9774" lon="4.71755">
        <ele>196</ele>
        <time>2018-03-04T09:51:21Z</time>
      </trkpt>
      <trkpt lat="45.97748" lon="4.71755">
        <ele>196</ele>
        <time>2018-03-04T09:51:22Z</time>
      </trkpt>
      <trkpt lat="45.97755" lon="4.71753">
        <ele>196</ele>
        <time>2018-03-04T09:51:23Z</time>
      </trkpt>
      <trkpt lat="45.97762" lon="4.71753">
        <ele>196</ele>
        <time>2018-03-04T09:51:24Z</time>
      </trkpt>
      <trkpt lat="45.97767" lon="4.71753">
        <ele>196</ele>
        <time>2018-03-04T09:51:25Z</time>
      </trkpt>
      <trkpt lat="45.97774" lon="4.71753">
        <ele>195</ele>
        <time>2018-03-04T09:51:26Z</time>
      </trkpt>
      <trkpt lat="45.9778" lon="4.71754">
        <ele>195</ele>
        <time>2018-03-04T09:51:27Z</time>
      </trkpt>
      <trkpt lat="45.97786" lon="4.71754">
        <ele>195</ele>
        <time>2018-03-04T09:51:28Z</time>
      </trkpt>
      <trkpt lat="45.97792" lon="4.71755">
        <ele>195</ele>
        <time>2018-03-04T09:51:29Z</time>
      </trkpt>
      <trkpt lat="45.97798" lon="4.71756">
        <ele>195</ele>
        <time>2018-03-04T09:51:30Z</time>
      </trkpt>
      <trkpt lat="45.97804" lon="4.71757">
        <ele>195</ele>
        <time>2018-03-04T09:51:31Z</time>
      </trkpt>
      <trkpt lat="45.9781" lon="4.71758">
        <ele>195</ele>
        <time>2018-03-04T09:51:32Z</time>
      </trkpt>
      <trkpt lat="45.97815" lon="4.71759">
        <ele>195</ele>
        <time>2018-03-04T09:51:33Z</time>
      </trkpt>
      <trkpt lat="45.9782" lon="4.7176">
        <ele>195</ele>
        <time>2018-03-04T09:51:34Z</time>
      </trkpt>
      <trkpt lat="45.97826" lon="4.7176">
        <ele>195</ele>
        <time>2018-03-04T09:51:35Z</time>
      </trkpt>
      <trkpt lat="45.97831" lon="4.71761">
        <ele>195</ele>
        <time>2018-03-04T09:51:36Z</time>
      </trkpt>
      <trkpt lat="45.97836" lon="4.71762">
        <ele>195</ele>
        <time>2018-03-04T09:51:37Z</time>
      </trkpt>
      <trkpt lat="45.97841" lon="4.71762">
        <ele>195</ele>
        <time>2018-03-04T09:51:38Z</time>
      </trkpt>
      <trkpt lat="45.97846" lon="4.71761">
        <ele>195</ele>
        <time>2018-03-04T09:51:39Z</time>
      </trkpt>
      <trkpt lat="45.9785" lon="4.71763">
        <ele>195</ele>
        <time>2018-03-04T09:51:40Z</time>
      </trkpt>
      <trkpt lat="45.97855" lon="4.71768">
        <ele>195</ele>
        <time>2018-03-04T09:51:41Z</time>
      </trkpt>
      <trkpt lat="45.97859" lon="4.71771">
        <ele>194</ele>
        <time>2018-03-04T09:51:42Z</time>
      </trkpt>
      <trkpt lat="45.97864" lon="4.71775">
        <ele>194</ele>
        <time>2018-03-04T09:51:43Z</time>
      </trkpt>
      <trkpt lat="45.97869" lon="4.71779">
        <ele>194</ele>
        <time>2018-03-04T09:51:44Z</time>
      </trkpt>
      <trkpt lat="45.97874" lon="4.71781">
        <ele>194</ele>
        <time>2018-03-04T09:51:45Z</time>
      </trkpt>
      <trkpt lat="45.9788" lon="4.71782">
        <ele>194</ele>
        <time>2018-03-04T09:51:46Z</time>
      </trkpt>
      <trkpt lat="45.97885" lon="4.7178">
        <ele>194</ele>
        <time>2018-03-04T09:51:47Z</time>
      </trkpt>
      <trkpt lat="45.97891" lon="4.71774">
        <ele>194</ele>
        <time>2018-03-04T09:51:48Z</time>
      </trkpt>
      <trkpt lat="45.97894" lon="4.71769">
        <ele>194</ele>
        <time>2018-03-04T09:51:49Z</time>
      </trkpt>
      <trkpt lat="45.97897" lon="4.71762">
        <ele>195</ele>
        <time>2018-03-04T09:51:50Z</time>
      </trkpt>
      <trkpt lat="45.97899" lon="4.71755">
        <ele>195</ele>
        <time>2018-03-04T09:51:51Z</time>
      </trkpt>
      <trkpt lat="45.97901" lon="4.71745">
        <ele>195</ele>
        <time>2018-03-04T09:51:52Z</time>
      </trkpt>
      <trkpt lat="45.97902" lon="4.71736">
        <ele>196</ele>
        <time>2018-03-04T09:51:53Z</time>
      </trkpt>
      <trkpt lat="45.97902" lon="4.71728">
        <ele>196</ele>
        <time>2018-03-04T09:51:54Z</time>
      </trkpt>
      <trkpt lat="45.97902" lon="4.7172">
        <ele>196</ele>
        <time>2018-03-04T09:51:55Z</time>
      </trkpt>
      <trkpt lat="45.97904" lon="4.71712">
        <ele>196</ele>
        <time>2018-03-04T09:51:56Z</time>
      </trkpt>
      <trkpt lat="45.97907" lon="4.71703">
        <ele>196</ele>
        <time>2018-03-04T09:51:57Z</time>
      </trkpt>
      <trkpt lat="45.9791" lon="4.71696">
        <ele>196</ele>
        <time>2018-03-04T09:51:58Z</time>
      </trkpt>
      <trkpt lat="45.97914" lon="4.7169">
        <ele>196</ele>
        <time>2018-03-04T09:51:59Z</time>
      </trkpt>
      <trkpt lat="45.97919" lon="4.71685">
        <ele>196</ele>
        <time>2018-03-04T09:52:00Z</time>
      </trkpt>
      <trkpt lat="45.97924" lon="4.71681">
        <ele>197</ele>
        <time>2018-03-04T09:52:01Z</time>
      </trkpt>
      <trkpt lat="45.97929" lon="4.71676">
        <ele>197</ele>
        <time>2018-03-04T09:52:02Z</time>
      </trkpt>
      <trkpt lat="45.97934" lon="4.71672">
        <ele>197</ele>
        <time>2018-03-04T09:52:03Z</time>
      </trkpt>
      <trkpt lat="45.97939" lon="4.71667">
        <ele>197</ele>
        <time>2018-03-04T09:52:04Z</time>
      </trkpt>
      <trkpt lat="45.97945" lon="4.71663">
        <ele>197</ele>
        <time>2018-03-04T09:52:05Z</time>
      </trkpt>
      <trkpt lat="45.97951" lon="4.71659">
        <ele>197</ele>
        <time>2018-03-04T09:52:06Z</time>
      </trkpt>
      <trkpt lat="45.97956" lon="4.71655">
        <ele>197</ele>
        <time>2018-03-04T09:52:07Z</time>
      </trkpt>
      <trkpt lat="45.97961" lon="4.71651">
        <ele>197</ele>
        <time>2018-03-04T09:52:08Z</time>
      </trkpt>
      <trkpt lat="45.97966" lon="4.71646">
        <ele>197</ele>
        <time>2018-03-04T09:52:09Z</time>
      </trkpt>
      <trkpt lat="45.97972" lon="4.71641">
        <ele>197</ele>
        <time>2018-03-04T09:52:10Z</time>
      </trkpt>
      <trkpt lat="45.97978" lon="4.71637">
        <ele>197</ele>
        <time>2018-03-04T09:52:11Z</time>
      </trkpt>
      <trkpt lat="45.97984" lon="4.71633">
        <ele>197</ele>
        <time>2018-03-04T09:52:12Z</time>
      </trkpt>
      <trkpt lat="45.97989" lon="4.71629">
        <ele>197</ele>
        <time>2018-03-04T09:52:13Z</time>
      </trkpt>
      <trkpt lat="45.97995" lon="4.71624">
        <ele>198</ele>
        <time>2018-03-04T09:52:14Z</time>
      </trkpt>
      <trkpt lat="45.98001" lon="4.71619">
        <ele>198</ele>
        <time>2018-03-04T09:52:15Z</time>
      </trkpt>
      <trkpt lat="45.98007" lon="4.71614">
        <ele>198</ele>
        <time>2018-03-04T09:52:16Z</time>
      </trkpt>
      <trkpt lat="45.98012" lon="4.71609">
        <ele>198</ele>
        <time>2018-03-04T09:52:17Z</time>
      </trkpt>
      <trkpt lat="45.98018" lon="4.71605">
        <ele>198</ele>
        <time>2018-03-04T09:52:18Z</time>
      </trkpt>
      <trkpt lat="45.98024" lon="4.716">
        <ele>198</ele>
        <time>2018-03-04T09:52:19Z</time>
      </trkpt>
      <trkpt lat="45.98029" lon="4.71595">
        <ele>198</ele>
        <time>2018-03-04T09:52:20Z</time>
      </trkpt>
      <trkpt lat="45.98035" lon="4.71591">
        <ele>198</ele>
        <time>2018-03-04T09:52:21Z</time>
      </trkpt>
      <trkpt lat="45.98041" lon="4.71586">
        <ele>198</ele>
        <time>2018-03-04T09:52:22Z</time>
      </trkpt>
      <trkpt lat="45.98047" lon="4.71582">
        <ele>198</ele>
        <time>2018-03-04T09:52:23Z</time>
      </trkpt>
      <trkpt lat="45.98052" lon="4.71578">
        <ele>198</ele>
        <time>2018-03-04T09:52:24Z</time>
      </trkpt>
      <trkpt lat="45.98059" lon="4.71574">
        <ele>198</ele>
        <time>2018-03-04T09:52:25Z</time>
      </trkpt>
      <trkpt lat="45.98063" lon="4.7157">
        <ele>198</ele>
        <time>2018-03-04T09:52:26Z</time>
      </trkpt>
      <trkpt lat="45.98068" lon="4.71568">
        <ele>198</ele>
        <time>2018-03-04T09:52:27Z</time>
      </trkpt>
      <trkpt lat="45.98072" lon="4.71567">
        <ele>198</ele>
        <time>2018-03-04T09:52:28Z</time>
      </trkpt>
      <trkpt lat="45.98079" lon="4.71563">
        <ele>198</ele>
        <time>2018-03-04T09:52:29Z</time>
      </trkpt>
      <trkpt lat="45.98085" lon="4.71558">
        <ele>198</ele>
        <time>2018-03-04T09:52:30Z</time>
      </trkpt>
      <trkpt lat="45.98091" lon="4.71554">
        <ele>198</ele>
        <time>2018-03-04T09:52:31Z</time>
      </trkpt>
      <trkpt lat="45.98098" lon="4.7155">
        <ele>197</ele>
        <time>2018-03-04T09:52:32Z</time>
      </trkpt>
      <trkpt lat="45.98103" lon="4.71546">
        <ele>197</ele>
        <time>2018-03-04T09:52:33Z</time>
      </trkpt>
      <trkpt lat="45.98108" lon="4.71542">
        <ele>197</ele>
        <time>2018-03-04T09:52:34Z</time>
      </trkpt>
      <trkpt lat="45.98114" lon="4.71538">
        <ele>197</ele>
        <time>2018-03-04T09:52:35Z</time>
      </trkpt>
      <trkpt lat="45.9812" lon="4.71534">
        <ele>197</ele>
        <time>2018-03-04T09:52:36Z</time>
      </trkpt>
      <trkpt lat="45.98126" lon="4.71531">
        <ele>197</ele>
        <time>2018-03-04T09:52:37Z</time>
      </trkpt>
      <trkpt lat="45.9813" lon="4.7153">
        <ele>197</ele>
        <time>2018-03-04T09:52:38Z</time>
      </trkpt>
      <trkpt lat="45.98137" lon="4.71525">
        <ele>197</ele>
        <time>2018-03-04T09:52:39Z</time>
      </trkpt>
      <trkpt lat="45.98144" lon="4.7152">
        <ele>197</ele>
        <time>2018-03-04T09:52:40Z</time>
      </trkpt>
      <trkpt lat="45.98148" lon="4.71517">
        <ele>197</ele>
        <time>2018-03-04T09:52:41Z</time>
      </trkpt>
      <trkpt lat="45.98156" lon="4.71512">
        <ele>197</ele>
        <time>2018-03-04T09:52:46Z</time>
      </trkpt>
      <trkpt lat="45.98157" lon="4.71511">
        <ele>197</ele>
        <time>2018-03-04T09:52:47Z</time>
      </trkpt>
      <trkpt lat="45.98163" lon="4.71508">
        <ele>197</ele>
        <time>2018-03-04T09:52:57Z</time>
      </trkpt>
      <trkpt lat="45.98166" lon="4.71507">
        <ele>197</ele>
        <time>2018-03-04T09:52:58Z</time>
      </trkpt>
      <trkpt lat="45.98175" lon="4.71505">
        <ele>197</ele>
        <time>2018-03-04T09:52:59Z</time>
      </trkpt>
      <trkpt lat="45.98179" lon="4.71505">
        <ele>197</ele>
        <time>2018-03-04T09:53:00Z</time>
      </trkpt>
      <trkpt lat="45.98186" lon="4.71507">
        <ele>197</ele>
        <time>2018-03-04T09:53:01Z</time>
      </trkpt>
      <trkpt lat="45.98194" lon="4.71507">
        <ele>197</ele>
        <time>2018-03-04T09:53:03Z</time>
      </trkpt>
      <trkpt lat="45.98199" lon="4.71507">
        <ele>197</ele>
        <time>2018-03-04T09:53:04Z</time>
      </trkpt>
      <trkpt lat="45.98205" lon="4.71506">
        <ele>197</ele>
        <time>2018-03-04T09:53:05Z</time>
      </trkpt>
      <trkpt lat="45.9821" lon="4.71508">
        <ele>196</ele>
        <time>2018-03-04T09:53:06Z</time>
      </trkpt>
      <trkpt lat="45.98215" lon="4.71511">
        <ele>196</ele>
        <time>2018-03-04T09:53:07Z</time>
      </trkpt>
      <trkpt lat="45.98221" lon="4.71513">
        <ele>196</ele>
        <time>2018-03-04T09:53:08Z</time>
      </trkpt>
      <trkpt lat="45.98226" lon="4.71516">
        <ele>196</ele>
        <time>2018-03-04T09:53:09Z</time>
      </trkpt>
      <trkpt lat="45.98231" lon="4.71518">
        <ele>196</ele>
        <time>2018-03-04T09:53:10Z</time>
      </trkpt>
      <trkpt lat="45.98236" lon="4.71521">
        <ele>196</ele>
        <time>2018-03-04T09:53:11Z</time>
      </trkpt>
      <trkpt lat="45.98241" lon="4.71524">
        <ele>196</ele>
        <time>2018-03-04T09:53:12Z</time>
      </trkpt>
      <trkpt lat="45.98247" lon="4.71527">
        <ele>196</ele>
        <time>2018-03-04T09:53:13Z</time>
      </trkpt>
      <trkpt lat="45.98252" lon="4.7153">
        <ele>197</ele>
        <time>2018-03-04T09:53:14Z</time>
      </trkpt>
      <trkpt lat="45.98257" lon="4.71533">
        <ele>197</ele>
        <time>2018-03-04T09:53:15Z</time>
      </trkpt>
      <trkpt lat="45.98262" lon="4.71535">
        <ele>197</ele>
        <time>2018-03-04T09:53:16Z</time>
      </trkpt>
      <trkpt lat="45.98268" lon="4.71537">
        <ele>197</ele>
        <time>2018-03-04T09:53:17Z</time>
      </trkpt>
      <trkpt lat="45.98272" lon="4.71541">
        <ele>197</ele>
        <time>2018-03-04T09:53:18Z</time>
      </trkpt>
      <trkpt lat="45.98278" lon="4.71544">
        <ele>198</ele>
        <time>2018-03-04T09:53:19Z</time>
      </trkpt>
      <trkpt lat="45.98282" lon="4.71548">
        <ele>198</ele>
        <time>2018-03-04T09:53:20Z</time>
      </trkpt>
      <trkpt lat="45.98287" lon="4.71552">
        <ele>198</ele>
        <time>2018-03-04T09:53:21Z</time>
      </trkpt>
      <trkpt lat="45.98292" lon="4.71556">
        <ele>198</ele>
        <time>2018-03-04T09:53:22Z</time>
      </trkpt>
      <trkpt lat="45.98298" lon="4.71558">
        <ele>198</ele>
        <time>2018-03-04T09:53:23Z</time>
      </trkpt>
      <trkpt lat="45.98303" lon="4.71562">
        <ele>198</ele>
        <time>2018-03-04T09:53:24Z</time>
      </trkpt>
      <trkpt lat="45.98308" lon="4.71565">
        <ele>198</ele>
        <time>2018-03-04T09:53:25Z</time>
      </trkpt>
      <trkpt lat="45.98313" lon="4.71569">
        <ele>198</ele>
        <time>2018-03-04T09:53:26Z</time>
      </trkpt>
      <trkpt lat="45.98318" lon="4.71572">
        <ele>198</ele>
        <time>2018-03-04T09:53:27Z</time>
      </trkpt>
      <trkpt lat="45.98324" lon="4.71575">
        <ele>199</ele>
        <time>2018-03-04T09:53:28Z</time>
      </trkpt>
      <trkpt lat="45.98329" lon="4.7158">
        <ele>199</ele>
        <time>2018-03-04T09:53:29Z</time>
      </trkpt>
      <trkpt lat="45.98335" lon="4.71583">
        <ele>199</ele>
        <time>2018-03-04T09:53:30Z</time>
      </trkpt>
      <trkpt lat="45.9834" lon="4.71586">
        <ele>199</ele>
        <time>2018-03-04T09:53:31Z</time>
      </trkpt>
      <trkpt lat="45.98346" lon="4.7159">
        <ele>198</ele>
        <time>2018-03-04T09:53:32Z</time>
      </trkpt>
      <trkpt lat="45.98352" lon="4.71593">
        <ele>198</ele>
        <time>2018-03-04T09:53:33Z</time>
      </trkpt>
      <trkpt lat="45.98358" lon="4.71596">
        <ele>198</ele>
        <time>2018-03-04T09:53:34Z</time>
      </trkpt>
      <trkpt lat="45.98362" lon="4.71599">
        <ele>198</ele>
        <time>2018-03-04T09:53:35Z</time>
      </trkpt>
      <trkpt lat="45.98367" lon="4.71602">
        <ele>198</ele>
        <time>2018-03-04T09:53:36Z</time>
      </trkpt>
      <trkpt lat="45.98373" lon="4.71603">
        <ele>198</ele>
        <time>2018-03-04T09:53:37Z</time>
      </trkpt>
      <trkpt lat="45.98378" lon="4.71602">
        <ele>198</ele>
        <time>2018-03-04T09:53:38Z</time>
      </trkpt>
      <trkpt lat="45.98384" lon="4.716">
        <ele>198</ele>
        <time>2018-03-04T09:53:39Z</time>
      </trkpt>
      <trkpt lat="45.98389" lon="4.71598">
        <ele>198</ele>
        <time>2018-03-04T09:53:40Z</time>
      </trkpt>
      <trkpt lat="45.98394" lon="4.71593">
        <ele>198</ele>
        <time>2018-03-04T09:53:41Z</time>
      </trkpt>
      <trkpt lat="45.98398" lon="4.71589">
        <ele>197</ele>
        <time>2018-03-04T09:53:42Z</time>
      </trkpt>
      <trkpt lat="45.98402" lon="4.71585">
        <ele>197</ele>
        <time>2018-03-04T09:53:43Z</time>
      </trkpt>
      <trkpt lat="45.98406" lon="4.7158">
        <ele>198</ele>
        <time>2018-03-04T09:53:44Z</time>
      </trkpt>
      <trkpt lat="45.9841" lon="4.71576">
        <ele>198</ele>
        <time>2018-03-04T09:53:45Z</time>
      </trkpt>
      <trkpt lat="45.98415" lon="4.71571">
        <ele>198</ele>
        <time>2018-03-04T09:53:46Z</time>
      </trkpt>
      <trkpt lat="45.9842" lon="4.71565">
        <ele>197</ele>
        <time>2018-03-04T09:53:47Z</time>
      </trkpt>
      <trkpt lat="45.98424" lon="4.71559">
        <ele>197</ele>
        <time>2018-03-04T09:53:48Z</time>
      </trkpt>
      <trkpt lat="45.98429" lon="4.71554">
        <ele>197</ele>
        <time>2018-03-04T09:53:49Z</time>
      </trkpt>
      <trkpt lat="45.98434" lon="4.7155">
        <ele>197</ele>
        <time>2018-03-04T09:53:50Z</time>
      </trkpt>
      <trkpt lat="45.9844" lon="4.71545">
        <ele>197</ele>
        <time>2018-03-04T09:53:51Z</time>
      </trkpt>
      <trkpt lat="45.98446" lon="4.7154">
        <ele>197</ele>
        <time>2018-03-04T09:53:52Z</time>
      </trkpt>
      <trkpt lat="45.98452" lon="4.71537">
        <ele>197</ele>
        <time>2018-03-04T09:53:53Z</time>
      </trkpt>
      <trkpt lat="45.98458" lon="4.71536">
        <ele>197</ele>
        <time>2018-03-04T09:53:54Z</time>
      </trkpt>
      <trkpt lat="45.98463" lon="4.71534">
        <ele>197</ele>
        <time>2018-03-04T09:53:55Z</time>
      </trkpt>
      <trkpt lat="45.98467" lon="4.71534">
        <ele>197</ele>
        <time>2018-03-04T09:53:56Z</time>
      </trkpt>
      <trkpt lat="45.98473" lon="4.71534">
        <ele>197</ele>
        <time>2018-03-04T09:53:58Z</time>
      </trkpt>
      <trkpt lat="45.98477" lon="4.71533">
        <ele>196</ele>
        <time>2018-03-04T09:53:59Z</time>
      </trkpt>
      <trkpt lat="45.98484" lon="4.71532">
        <ele>196</ele>
        <time>2018-03-04T09:54:02Z</time>
      </trkpt>
      <trkpt lat="45.98486" lon="4.71533">
        <ele>196</ele>
        <time>2018-03-04T09:54:03Z</time>
      </trkpt>
      <trkpt lat="45.98495" lon="4.71531">
        <ele>196</ele>
        <time>2018-03-04T09:54:04Z</time>
      </trkpt>
      <trkpt lat="45.98502" lon="4.71531">
        <ele>195</ele>
        <time>2018-03-04T09:54:05Z</time>
      </trkpt>
      <trkpt lat="45.98508" lon="4.71526">
        <ele>195</ele>
        <time>2018-03-04T09:54:06Z</time>
      </trkpt>
      <trkpt lat="45.98513" lon="4.71523">
        <ele>195</ele>
        <time>2018-03-04T09:54:07Z</time>
      </trkpt>
      <trkpt lat="45.98521" lon="4.7152">
        <ele>194</ele>
        <time>2018-03-04T09:54:08Z</time>
      </trkpt>
      <trkpt lat="45.98527" lon="4.71518">
        <ele>194</ele>
        <time>2018-03-04T09:54:09Z</time>
      </trkpt>
      <trkpt lat="45.98532" lon="4.71517">
        <ele>194</ele>
        <time>2018-03-04T09:54:10Z</time>
      </trkpt>
      <trkpt lat="45.98538" lon="4.71515">
        <ele>194</ele>
        <time>2018-03-04T09:54:11Z</time>
      </trkpt>
      <trkpt lat="45.98545" lon="4.71513">
        <ele>194</ele>
        <time>2018-03-04T09:54:12Z</time>
      </trkpt>
      <trkpt lat="45.98552" lon="4.71511">
        <ele>194</ele>
        <time>2018-03-04T09:54:13Z</time>
      </trkpt>
      <trkpt lat="45.98558" lon="4.7151">
        <ele>194</ele>
        <time>2018-03-04T09:54:14Z</time>
      </trkpt>
      <trkpt lat="45.98565" lon="4.71508">
        <ele>193</ele>
        <time>2018-03-04T09:54:15Z</time>
      </trkpt>
      <trkpt lat="45.98572" lon="4.71507">
        <ele>193</ele>
        <time>2018-03-04T09:54:16Z</time>
      </trkpt>
      <trkpt lat="45.98579" lon="4.71506">
        <ele>193</ele>
        <time>2018-03-04T09:54:17Z</time>
      </trkpt>
      <trkpt lat="45.98587" lon="4.71505">
        <ele>192</ele>
        <time>2018-03-04T09:54:18Z</time>
      </trkpt>
      <trkpt lat="45.98595" lon="4.71502">
        <ele>192</ele>
        <time>2018-03-04T09:54:19Z</time>
      </trkpt>
      <trkpt lat="45.98602" lon="4.71502">
        <ele>192</ele>
        <time>2018-03-04T09:54:20Z</time>
      </trkpt>
      <trkpt lat="45.98612" lon="4.71501">
        <ele>191</ele>
        <time>2018-03-04T09:54:21Z</time>
      </trkpt>
      <trkpt lat="45.9862" lon="4.715">
        <ele>190</ele>
        <time>2018-03-04T09:54:22Z</time>
      </trkpt>
      <trkpt lat="45.98626" lon="4.71498">
        <ele>190</ele>
        <time>2018-03-04T09:54:23Z</time>
      </trkpt>
      <trkpt lat="45.98633" lon="4.71494">
        <ele>190</ele>
        <time>2018-03-04T09:54:24Z</time>
      </trkpt>
      <trkpt lat="45.98638" lon="4.7149">
        <ele>190</ele>
        <time>2018-03-04T09:54:25Z</time>
      </trkpt>
      <trkpt lat="45.98646" lon="4.71491">
        <ele>190</ele>
        <time>2018-03-04T09:54:26Z</time>
      </trkpt>
      <trkpt lat="45.98652" lon="4.71489">
        <ele>190</ele>
        <time>2018-03-04T09:54:27Z</time>
      </trkpt>
      <trkpt lat="45.9866" lon="4.71487">
        <ele>190</ele>
        <time>2018-03-04T09:54:29Z</time>
      </trkpt>
      <trkpt lat="45.98661" lon="4.71487">
        <ele>190</ele>
        <time>2018-03-04T09:54:30Z</time>
      </trkpt>
      <trkpt lat="45.98666" lon="4.71488">
        <ele>189</ele>
        <time>2018-03-04T09:54:44Z</time>
      </trkpt>
      <trkpt lat="45.98673" lon="4.71491">
        <ele>188</ele>
        <time>2018-03-04T09:54:45Z</time>
      </trkpt>
      <trkpt lat="45.98677" lon="4.71492">
        <ele>188</ele>
        <time>2018-03-04T09:54:46Z</time>
      </trkpt>
      <trkpt lat="45.98683" lon="4.71492">
        <ele>188</ele>
        <time>2018-03-04T09:54:47Z</time>
      </trkpt>
      <trkpt lat="45.98689" lon="4.71493">
        <ele>187</ele>
        <time>2018-03-04T09:54:48Z</time>
      </trkpt>
      <trkpt lat="45.98695" lon="4.71494">
        <ele>187</ele>
        <time>2018-03-04T09:54:49Z</time>
      </trkpt>
      <trkpt lat="45.987" lon="4.71497">
        <ele>187</ele>
        <time>2018-03-04T09:54:50Z</time>
      </trkpt>
      <trkpt lat="45.98706" lon="4.71499">
        <ele>187</ele>
        <time>2018-03-04T09:54:51Z</time>
      </trkpt>
      <trkpt lat="45.98712" lon="4.71501">
        <ele>187</ele>
        <time>2018-03-04T09:54:52Z</time>
      </trkpt>
      <trkpt lat="45.98717" lon="4.71503">
        <ele>187</ele>
        <time>2018-03-04T09:54:53Z</time>
      </trkpt>
      <trkpt lat="45.98725" lon="4.71502">
        <ele>186</ele>
        <time>2018-03-04T09:54:54Z</time>
      </trkpt>
      <trkpt lat="45.98732" lon="4.71502">
        <ele>186</ele>
        <time>2018-03-04T09:54:55Z</time>
      </trkpt>
      <trkpt lat="45.98739" lon="4.71501">
        <ele>185</ele>
        <time>2018-03-04T09:54:56Z</time>
      </trkpt>
      <trkpt lat="45.98747" lon="4.715">
        <ele>184</ele>
        <time>2018-03-04T09:54:57Z</time>
      </trkpt>
      <trkpt lat="45.98754" lon="4.715">
        <ele>184</ele>
        <time>2018-03-04T09:54:58Z</time>
      </trkpt>
      <trkpt lat="45.9876" lon="4.71501">
        <ele>184</ele>
        <time>2018-03-04T09:54:59Z</time>
      </trkpt>
      <trkpt lat="45.98767" lon="4.71501">
        <ele>184</ele>
        <time>2018-03-04T09:55:00Z</time>
      </trkpt>
      <trkpt lat="45.98774" lon="4.71502">
        <ele>184</ele>
        <time>2018-03-04T09:55:01Z</time>
      </trkpt>
      <trkpt lat="45.98781" lon="4.71503">
        <ele>184</ele>
        <time>2018-03-04T09:55:02Z</time>
      </trkpt>
      <trkpt lat="45.98788" lon="4.71503">
        <ele>184</ele>
        <time>2018-03-04T09:55:03Z</time>
      </trkpt>
      <trkpt lat="45.98795" lon="4.71503">
        <ele>184</ele>
        <time>2018-03-04T09:55:04Z</time>
      </trkpt>
      <trkpt lat="45.98802" lon="4.71504">
        <ele>184</ele>
        <time>2018-03-04T09:55:05Z</time>
      </trkpt>
      <trkpt lat="45.98808" lon="4.71504">
        <ele>184</ele>
        <time>2018-03-04T09:55:06Z</time>
      </trkpt>
      <trkpt lat="45.98814" lon="4.71505">
        <ele>184</ele>
        <time>2018-03-04T09:55:07Z</time>
      </trkpt>
      <trkpt lat="45.9882" lon="4.71505">
        <ele>184</ele>
        <time>2018-03-04T09:55:08Z</time>
      </trkpt>
      <trkpt lat="45.98826" lon="4.71506">
        <ele>184</ele>
        <time>2018-03-04T09:55:09Z</time>
      </trkpt>
      <trkpt lat="45.98832" lon="4.71506">
        <ele>184</ele>
        <time>2018-03-04T09:55:10Z</time>
      </trkpt>
      <trkpt lat="45.98838" lon="4.71507">
        <ele>184</ele>
        <time>2018-03-04T09:55:11Z</time>
      </trkpt>
      <trkpt lat="45.98844" lon="4.71506">
        <ele>184</ele>
        <time>2018-03-04T09:55:12Z</time>
      </trkpt>
      <trkpt lat="45.9885" lon="4.71506">
        <ele>185</ele>
        <time>2018-03-04T09:55:13Z</time>
      </trkpt>
      <trkpt lat="45.98856" lon="4.71507">
        <ele>185</ele>
        <time>2018-03-04T09:55:14Z</time>
      </trkpt>
      <trkpt lat="45.98863" lon="4.71508">
        <ele>185</ele>
        <time>2018-03-04T09:55:15Z</time>
      </trkpt>
      <trkpt lat="45.9887" lon="4.71509">
        <ele>185</ele>
        <time>2018-03-04T09:55:16Z</time>
      </trkpt>
      <trkpt lat="45.98876" lon="4.71511">
        <ele>185</ele>
        <time>2018-03-04T09:55:17Z</time>
      </trkpt>
      <trkpt lat="45.98882" lon="4.71512">
        <ele>185</ele>
        <time>2018-03-04T09:55:18Z</time>
      </trkpt>
      <trkpt lat="45.98888" lon="4.71512">
        <ele>185</ele>
        <time>2018-03-04T09:55:19Z</time>
      </trkpt>
      <trkpt lat="45.98895" lon="4.71512">
        <ele>185</ele>
        <time>2018-03-04T09:55:21Z</time>
      </trkpt>
      <trkpt lat="45.98899" lon="4.71513">
        <ele>185</ele>
        <time>2018-03-04T09:55:22Z</time>
      </trkpt>
      <trkpt lat="45.98907" lon="4.71514">
        <ele>185</ele>
        <time>2018-03-04T09:55:24Z</time>
      </trkpt>
      <trkpt lat="45.98912" lon="4.71515">
        <ele>185</ele>
        <time>2018-03-04T09:55:25Z</time>
      </trkpt>
      <trkpt lat="45.9892" lon="4.71516">
        <ele>185</ele>
        <time>2018-03-04T09:55:27Z</time>
      </trkpt>
      <trkpt lat="45.98925" lon="4.71517">
        <ele>186</ele>
        <time>2018-03-04T09:55:28Z</time>
      </trkpt>
      <trkpt lat="45.98931" lon="4.71517">
        <ele>186</ele>
        <time>2018-03-04T09:55:29Z</time>
      </trkpt>
      <trkpt lat="45.98937" lon="4.71517">
        <ele>186</ele>
        <time>2018-03-04T09:55:30Z</time>
      </trkpt>
      <trkpt lat="45.98943" lon="4.71518">
        <ele>186</ele>
        <time>2018-03-04T09:55:31Z</time>
      </trkpt>
      <trkpt lat="45.98949" lon="4.71519">
        <ele>186</ele>
        <time>2018-03-04T09:55:32Z</time>
      </trkpt>
      <trkpt lat="45.98955" lon="4.71519">
        <ele>186</ele>
        <time>2018-03-04T09:55:33Z</time>
      </trkpt>
      <trkpt lat="45.98961" lon="4.71518">
        <ele>186</ele>
        <time>2018-03-04T09:55:34Z</time>
      </trkpt>
      <trkpt lat="45.98967" lon="4.71519">
        <ele>186</ele>
        <time>2018-03-04T09:55:35Z</time>
      </trkpt>
      <trkpt lat="45.98973" lon="4.71519">
        <ele>186</ele>
        <time>2018-03-04T09:55:36Z</time>
      </trkpt>
      <trkpt lat="45.98978" lon="4.71518">
        <ele>186</ele>
        <time>2018-03-04T09:55:37Z</time>
      </trkpt>
      <trkpt lat="45.98983" lon="4.71517">
        <ele>186</ele>
        <time>2018-03-04T09:55:38Z</time>
      </trkpt>
      <trkpt lat="45.98989" lon="4.71517">
        <ele>186</ele>
        <time>2018-03-04T09:55:40Z</time>
      </trkpt>
      <trkpt lat="45.98997" lon="4.71516">
        <ele>186</ele>
        <time>2018-03-04T09:55:41Z</time>
      </trkpt>
      <trkpt lat="45.99003" lon="4.71517">
        <ele>188</ele>
        <time>2018-03-04T09:55:42Z</time>
      </trkpt>
      <trkpt lat="45.99007" lon="4.71518">
        <ele>188</ele>
        <time>2018-03-04T09:55:43Z</time>
      </trkpt>
      <trkpt lat="45.99013" lon="4.71519">
        <ele>188</ele>
        <time>2018-03-04T09:55:44Z</time>
      </trkpt>
      <trkpt lat="45.99018" lon="4.71519">
        <ele>188</ele>
        <time>2018-03-04T09:55:45Z</time>
      </trkpt>
      <trkpt lat="45.99026" lon="4.71513">
        <ele>188</ele>
        <time>2018-03-04T09:55:47Z</time>
      </trkpt>
      <trkpt lat="45.99031" lon="4.71515">
        <ele>188</ele>
        <time>2018-03-04T09:55:48Z</time>
      </trkpt>
      <trkpt lat="45.99039" lon="4.71513">
        <ele>188</ele>
        <time>2018-03-04T09:55:50Z</time>
      </trkpt>
      <trkpt lat="45.9904" lon="4.71514">
        <ele>188</ele>
        <time>2018-03-04T09:55:51Z</time>
      </trkpt>
      <trkpt lat="45.99042" lon="4.71515">
        <ele>189</ele>
        <time>2018-03-04T09:55:52Z</time>
      </trkpt>
      <trkpt lat="45.9905" lon="4.71516">
        <ele>189</ele>
        <time>2018-03-04T09:55:53Z</time>
      </trkpt>
      <trkpt lat="45.99058" lon="4.71514">
        <ele>189</ele>
        <time>2018-03-04T09:55:55Z</time>
      </trkpt>
      <trkpt lat="45.99063" lon="4.71515">
        <ele>189</ele>
        <time>2018-03-04T09:55:56Z</time>
      </trkpt>
      <trkpt lat="45.99071" lon="4.71513">
        <ele>189</ele>
        <time>2018-03-04T09:55:58Z</time>
      </trkpt>
      <trkpt lat="45.99075" lon="4.71513">
        <ele>189</ele>
        <time>2018-03-04T09:55:59Z</time>
      </trkpt>
      <trkpt lat="45.99083" lon="4.71512">
        <ele>190</ele>
        <time>2018-03-04T09:56:01Z</time>
      </trkpt>
      <trkpt lat="45.99087" lon="4.71511">
        <ele>191</ele>
        <time>2018-03-04T09:56:02Z</time>
      </trkpt>
      <trkpt lat="45.99095" lon="4.71512">
        <ele>191</ele>
        <time>2018-03-04T09:56:06Z</time>
      </trkpt>
      <trkpt lat="45.99097" lon="4.71513">
        <ele>191</ele>
        <time>2018-03-04T09:56:07Z</time>
      </trkpt>
      <trkpt lat="45.99105" lon="4.71513">
        <ele>191</ele>
        <time>2018-03-04T09:56:10Z</time>
      </trkpt>
      <trkpt lat="45.99107" lon="4.71512">
        <ele>191</ele>
        <time>2018-03-04T09:56:11Z</time>
      </trkpt>
      <trkpt lat="45.99115" lon="4.7151">
        <ele>191</ele>
        <time>2018-03-04T09:56:14Z</time>
      </trkpt>
      <trkpt lat="45.99118" lon="4.71509">
        <ele>191</ele>
        <time>2018-03-04T09:56:15Z</time>
      </trkpt>
      <trkpt lat="45.99126" lon="4.71508">
        <ele>192</ele>
        <time>2018-03-04T09:56:19Z</time>
      </trkpt>
      <trkpt lat="45.99128" lon="4.71508">
        <ele>192</ele>
        <time>2018-03-04T09:56:20Z</time>
      </trkpt>
      <trkpt lat="45.99135" lon="4.71509">
        <ele>192</ele>
        <time>2018-03-04T09:56:23Z</time>
      </trkpt>
      <trkpt lat="45.99138" lon="4.71509">
        <ele>192</ele>
        <time>2018-03-04T09:56:24Z</time>
      </trkpt>
      <trkpt lat="45.99145" lon="4.71508">
        <ele>192</ele>
        <time>2018-03-04T09:56:27Z</time>
      </trkpt>
      <trkpt lat="45.99149" lon="4.71507">
        <ele>192</ele>
        <time>2018-03-04T09:56:28Z</time>
      </trkpt>
      <trkpt lat="45.99156" lon="4.71508">
        <ele>192</ele>
        <time>2018-03-04T09:56:30Z</time>
      </trkpt>
      <trkpt lat="45.9916" lon="4.71509">
        <ele>193</ele>
        <time>2018-03-04T09:56:31Z</time>
      </trkpt>
      <trkpt lat="45.99167" lon="4.7151">
        <ele>194</ele>
        <time>2018-03-04T09:56:33Z</time>
      </trkpt>
      <trkpt lat="45.99171" lon="4.7151">
        <ele>194</ele>
        <time>2018-03-04T09:56:34Z</time>
      </trkpt>
      <trkpt lat="45.99178" lon="4.71511">
        <ele>194</ele>
        <time>2018-03-04T09:56:36Z</time>
      </trkpt>
      <trkpt lat="45.99182" lon="4.71511">
        <ele>194</ele>
        <time>2018-03-04T09:56:37Z</time>
      </trkpt>
      <trkpt lat="45.99193" lon="4.71511">
        <ele>195</ele>
        <time>2018-03-04T09:56:38Z</time>
      </trkpt>
      <trkpt lat="45.99202" lon="4.71509">
        <ele>195</ele>
        <time>2018-03-04T09:56:40Z</time>
      </trkpt>
      <trkpt lat="45.99206" lon="4.71509">
        <ele>195</ele>
        <time>2018-03-04T09:56:41Z</time>
      </trkpt>
      <trkpt lat="45.99215" lon="4.71509">
        <ele>195</ele>
        <time>2018-03-04T09:56:43Z</time>
      </trkpt>
      <trkpt lat="45.99217" lon="4.71509">
        <ele>195</ele>
        <time>2018-03-04T09:56:44Z</time>
      </trkpt>
      <trkpt lat="45.99222" lon="4.7151">
        <ele>195</ele>
        <time>2018-03-04T09:56:45Z</time>
      </trkpt>
      <trkpt lat="45.99226" lon="4.7151">
        <ele>195</ele>
        <time>2018-03-04T09:56:46Z</time>
      </trkpt>
      <trkpt lat="45.99234" lon="4.71511">
        <ele>196</ele>
        <time>2018-03-04T09:56:48Z</time>
      </trkpt>
      <trkpt lat="45.99238" lon="4.71511">
        <ele>196</ele>
        <time>2018-03-04T09:56:49Z</time>
      </trkpt>
      <trkpt lat="45.99246" lon="4.71512">
        <ele>196</ele>
        <time>2018-03-04T09:56:52Z</time>
      </trkpt>
      <trkpt lat="45.99248" lon="4.71513">
        <ele>196</ele>
        <time>2018-03-04T09:56:53Z</time>
      </trkpt>
      <trkpt lat="45.99255" lon="4.71515">
        <ele>198</ele>
        <time>2018-03-04T09:56:54Z</time>
      </trkpt>
      <trkpt lat="45.99259" lon="4.71516">
        <ele>198</ele>
        <time>2018-03-04T09:56:55Z</time>
      </trkpt>
      <trkpt lat="45.99268" lon="4.71516">
        <ele>198</ele>
        <time>2018-03-04T09:56:57Z</time>
      </trkpt>
      <trkpt lat="45.99272" lon="4.71516">
        <ele>198</ele>
        <time>2018-03-04T09:56:58Z</time>
      </trkpt>
      <trkpt lat="45.9928" lon="4.71516">
        <ele>199</ele>
        <time>2018-03-04T09:57:00Z</time>
      </trkpt>
      <trkpt lat="45.99285" lon="4.71515">
        <ele>199</ele>
        <time>2018-03-04T09:57:01Z</time>
      </trkpt>
      <trkpt lat="45.99289" lon="4.71514">
        <ele>199</ele>
        <time>2018-03-04T09:57:02Z</time>
      </trkpt>
      <trkpt lat="45.99294" lon="4.71513">
        <ele>199</ele>
        <time>2018-03-04T09:57:03Z</time>
      </trkpt>
      <trkpt lat="45.993" lon="4.71512">
        <ele>199</ele>
        <time>2018-03-04T09:57:04Z</time>
      </trkpt>
      <trkpt lat="45.99304" lon="4.71512">
        <ele>199</ele>
        <time>2018-03-04T09:57:05Z</time>
      </trkpt>
      <trkpt lat="45.99313" lon="4.71512">
        <ele>199</ele>
        <time>2018-03-04T09:57:07Z</time>
      </trkpt>
      <trkpt lat="45.99317" lon="4.71511">
        <ele>200</ele>
        <time>2018-03-04T09:57:08Z</time>
      </trkpt>
      <trkpt lat="45.99322" lon="4.71513">
        <ele>200</ele>
        <time>2018-03-04T09:57:09Z</time>
      </trkpt>
      <trkpt lat="45.99326" lon="4.71513">
        <ele>200</ele>
        <time>2018-03-04T09:57:10Z</time>
      </trkpt>
      <trkpt lat="45.99331" lon="4.71512">
        <ele>200</ele>
        <time>2018-03-04T09:57:11Z</time>
      </trkpt>
      <trkpt lat="45.99335" lon="4.71512">
        <ele>200</ele>
        <time>2018-03-04T09:57:12Z</time>
      </trkpt>
      <trkpt lat="45.99344" lon="4.71512">
        <ele>200</ele>
        <time>2018-03-04T09:57:14Z</time>
      </trkpt>
      <trkpt lat="45.99349" lon="4.71513">
        <ele>200</ele>
        <time>2018-03-04T09:57:15Z</time>
      </trkpt>
      <trkpt lat="45.99353" lon="4.71511">
        <ele>200</ele>
        <time>2018-03-04T09:57:16Z</time>
      </trkpt>
      <trkpt lat="45.99358" lon="4.7151">
        <ele>200</ele>
        <time>2018-03-04T09:57:17Z</time>
      </trkpt>
      <trkpt lat="45.99366" lon="4.71511">
        <ele>200</ele>
        <time>2018-03-04T09:57:19Z</time>
      </trkpt>
      <trkpt lat="45.9937" lon="4.7151">
        <ele>200</ele>
        <time>2018-03-04T09:57:20Z</time>
      </trkpt>
      <trkpt lat="45.99374" lon="4.71509">
        <ele>200</ele>
        <time>2018-03-04T09:57:21Z</time>
      </trkpt>
      <trkpt lat="45.9938" lon="4.71507">
        <ele>200</ele>
        <time>2018-03-04T09:57:22Z</time>
      </trkpt>
      <trkpt lat="45.99388" lon="4.7151">
        <ele>200</ele>
        <time>2018-03-04T09:57:24Z</time>
      </trkpt>
      <trkpt lat="45.99393" lon="4.71509">
        <ele>200</ele>
        <time>2018-03-04T09:57:25Z</time>
      </trkpt>
      <trkpt lat="45.99401" lon="4.71509">
        <ele>200</ele>
        <time>2018-03-04T09:57:27Z</time>
      </trkpt>
      <trkpt lat="45.99405" lon="4.7151">
        <ele>200</ele>
        <time>2018-03-04T09:57:28Z</time>
      </trkpt>
      <trkpt lat="45.99413" lon="4.71509">
        <ele>199</ele>
        <time>2018-03-04T09:57:30Z</time>
      </trkpt>
      <trkpt lat="45.99418" lon="4.7151">
        <ele>199</ele>
        <time>2018-03-04T09:57:31Z</time>
      </trkpt>
      <trkpt lat="45.99423" lon="4.71508">
        <ele>199</ele>
        <time>2018-03-04T09:57:32Z</time>
      </trkpt>
      <trkpt lat="45.99428" lon="4.71509">
        <ele>199</ele>
        <time>2018-03-04T09:57:33Z</time>
      </trkpt>
      <trkpt lat="45.99433" lon="4.71509">
        <ele>199</ele>
        <time>2018-03-04T09:57:34Z</time>
      </trkpt>
      <trkpt lat="45.99439" lon="4.71508">
        <ele>199</ele>
        <time>2018-03-04T09:57:35Z</time>
      </trkpt>
      <trkpt lat="45.99444" lon="4.71508">
        <ele>199</ele>
        <time>2018-03-04T09:57:36Z</time>
      </trkpt>
      <trkpt lat="45.9945" lon="4.71509">
        <ele>199</ele>
        <time>2018-03-04T09:57:37Z</time>
      </trkpt>
      <trkpt lat="45.99455" lon="4.71509">
        <ele>199</ele>
        <time>2018-03-04T09:57:38Z</time>
      </trkpt>
      <trkpt lat="45.9946" lon="4.71509">
        <ele>199</ele>
        <time>2018-03-04T09:57:39Z</time>
      </trkpt>
      <trkpt lat="45.99466" lon="4.71509">
        <ele>199</ele>
        <time>2018-03-04T09:57:40Z</time>
      </trkpt>
      <trkpt lat="45.9947" lon="4.71509">
        <ele>199</ele>
        <time>2018-03-04T09:57:41Z</time>
      </trkpt>
      <trkpt lat="45.99474" lon="4.71509">
        <ele>199</ele>
        <time>2018-03-04T09:57:42Z</time>
      </trkpt>
      <trkpt lat="45.99479" lon="4.71509">
        <ele>199</ele>
        <time>2018-03-04T09:57:43Z</time>
      </trkpt>
      <trkpt lat="45.99484" lon="4.71509">
        <ele>199</ele>
        <time>2018-03-04T09:57:44Z</time>
      </trkpt>
      <trkpt lat="45.99489" lon="4.71509">
        <ele>199</ele>
        <time>2018-03-04T09:57:45Z</time>
      </trkpt>
      <trkpt lat="45.99495" lon="4.71507">
        <ele>199</ele>
        <time>2018-03-04T09:57:46Z</time>
      </trkpt>
      <trkpt lat="45.99499" lon="4.71507">
        <ele>199</ele>
        <time>2018-03-04T09:57:47Z</time>
      </trkpt>
      <trkpt lat="45.99505" lon="4.71508">
        <ele>199</ele>
        <time>2018-03-04T09:57:48Z</time>
      </trkpt>
      <trkpt lat="45.99509" lon="4.71507">
        <ele>199</ele>
        <time>2018-03-04T09:57:49Z</time>
      </trkpt>
      <trkpt lat="45.99516" lon="4.7151">
        <ele>199</ele>
        <time>2018-03-04T09:57:51Z</time>
      </trkpt>
      <trkpt lat="45.99521" lon="4.71509">
        <ele>198</ele>
        <time>2018-03-04T09:57:52Z</time>
      </trkpt>
      <trkpt lat="45.99524" lon="4.7151">
        <ele>198</ele>
        <time>2018-03-04T09:57:53Z</time>
      </trkpt>
      <trkpt lat="45.9953" lon="4.71509">
        <ele>198</ele>
        <time>2018-03-04T09:57:54Z</time>
      </trkpt>
      <trkpt lat="45.99535" lon="4.71508">
        <ele>198</ele>
        <time>2018-03-04T09:57:55Z</time>
      </trkpt>
      <trkpt lat="45.99542" lon="4.71508">
        <ele>198</ele>
        <time>2018-03-04T09:57:56Z</time>
      </trkpt>
      <trkpt lat="45.99547" lon="4.71509">
        <ele>198</ele>
        <time>2018-03-04T09:57:57Z</time>
      </trkpt>
      <trkpt lat="45.99553" lon="4.71509">
        <ele>198</ele>
        <time>2018-03-04T09:57:58Z</time>
      </trkpt>
      <trkpt lat="45.99559" lon="4.71509">
        <ele>198</ele>
        <time>2018-03-04T09:57:59Z</time>
      </trkpt>
      <trkpt lat="45.99565" lon="4.71509">
        <ele>197</ele>
        <time>2018-03-04T09:58:00Z</time>
      </trkpt>
      <trkpt lat="45.99571" lon="4.71508">
        <ele>197</ele>
        <time>2018-03-04T09:58:01Z</time>
      </trkpt>
      <trkpt lat="45.99576" lon="4.71506">
        <ele>197</ele>
        <time>2018-03-04T09:58:02Z</time>
      </trkpt>
      <trkpt lat="45.99583" lon="4.71511">
        <ele>197</ele>
        <time>2018-03-04T09:58:06Z</time>
      </trkpt>
      <trkpt lat="45.99583" lon="4.71514">
        <ele>197</ele>
        <time>2018-03-04T09:58:07Z</time>
      </trkpt>
      <trkpt lat="45.99587" lon="4.71523">
        <ele>197</ele>
        <time>2018-03-04T09:58:08Z</time>
      </trkpt>
      <trkpt lat="45.9959" lon="4.71527">
        <ele>197</ele>
        <time>2018-03-04T09:58:09Z</time>
      </trkpt>
      <trkpt lat="45.99597" lon="4.71532">
        <ele>197</ele>
        <time>2018-03-04T09:58:11Z</time>
      </trkpt>
      <trkpt lat="45.99601" lon="4.71532">
        <ele>197</ele>
        <time>2018-03-04T09:58:12Z</time>
      </trkpt>
      <trkpt lat="45.99609" lon="4.7153">
        <ele>197</ele>
        <time>2018-03-04T09:58:14Z</time>
      </trkpt>
      <trkpt lat="45.99612" lon="4.71525">
        <ele>197</ele>
        <time>2018-03-04T09:58:15Z</time>
      </trkpt>
      <trkpt lat="45.99613" lon="4.71519">
        <ele>197</ele>
        <time>2018-03-04T09:58:16Z</time>
      </trkpt>
      <trkpt lat="45.99614" lon="4.71511">
        <ele>197</ele>
        <time>2018-03-04T09:58:17Z</time>
      </trkpt>
      <trkpt lat="45.99614" lon="4.71505">
        <ele>197</ele>
        <time>2018-03-04T09:58:18Z</time>
      </trkpt>
      <trkpt lat="45.99612" lon="4.71498">
        <ele>197</ele>
        <time>2018-03-04T09:58:19Z</time>
      </trkpt>
      <trkpt lat="45.99611" lon="4.71491">
        <ele>197</ele>
        <time>2018-03-04T09:58:20Z</time>
      </trkpt>
      <trkpt lat="45.99611" lon="4.71484">
        <ele>197</ele>
        <time>2018-03-04T09:58:21Z</time>
      </trkpt>
      <trkpt lat="45.99612" lon="4.71477">
        <ele>197</ele>
        <time>2018-03-04T09:58:22Z</time>
      </trkpt>
      <trkpt lat="45.99614" lon="4.71471">
        <ele>197</ele>
        <time>2018-03-04T09:58:23Z</time>
      </trkpt>
      <trkpt lat="45.99617" lon="4.71465">
        <ele>197</ele>
        <time>2018-03-04T09:58:24Z</time>
      </trkpt>
      <trkpt lat="45.99618" lon="4.7146">
        <ele>197</ele>
        <time>2018-03-04T09:58:25Z</time>
      </trkpt>
      <trkpt lat="45.99621" lon="4.71455">
        <ele>197</ele>
        <time>2018-03-04T09:58:26Z</time>
      </trkpt>
      <trkpt lat="45.99624" lon="4.71449">
        <ele>197</ele>
        <time>2018-03-04T09:58:27Z</time>
      </trkpt>
      <trkpt lat="45.99627" lon="4.71442">
        <ele>197</ele>
        <time>2018-03-04T09:58:28Z</time>
      </trkpt>
      <trkpt lat="45.99631" lon="4.71436">
        <ele>197</ele>
        <time>2018-03-04T09:58:29Z</time>
      </trkpt>
      <trkpt lat="45.99634" lon="4.7143">
        <ele>197</ele>
        <time>2018-03-04T09:58:30Z</time>
      </trkpt>
      <trkpt lat="45.99637" lon="4.71425">
        <ele>197</ele>
        <time>2018-03-04T09:58:31Z</time>
      </trkpt>
      <trkpt lat="45.99641" lon="4.7142">
        <ele>197</ele>
        <time>2018-03-04T09:58:32Z</time>
      </trkpt>
      <trkpt lat="45.99644" lon="4.71413">
        <ele>198</ele>
        <time>2018-03-04T09:58:33Z</time>
      </trkpt>
      <trkpt lat="45.99648" lon="4.71407">
        <ele>198</ele>
        <time>2018-03-04T09:58:34Z</time>
      </trkpt>
      <trkpt lat="45.99652" lon="4.714">
        <ele>198</ele>
        <time>2018-03-04T09:58:35Z</time>
      </trkpt>
      <trkpt lat="45.99655" lon="4.71395">
        <ele>198</ele>
        <time>2018-03-04T09:58:36Z</time>
      </trkpt>
      <trkpt lat="45.99658" lon="4.71388">
        <ele>198</ele>
        <time>2018-03-04T09:58:37Z</time>
      </trkpt>
      <trkpt lat="45.99662" lon="4.71382">
        <ele>198</ele>
        <time>2018-03-04T09:58:38Z</time>
      </trkpt>
      <trkpt lat="45.99666" lon="4.71376">
        <ele>198</ele>
        <time>2018-03-04T09:58:39Z</time>
      </trkpt>
      <trkpt lat="45.9967" lon="4.71368">
        <ele>197</ele>
        <time>2018-03-04T09:58:40Z</time>
      </trkpt>
      <trkpt lat="45.99674" lon="4.7136">
        <ele>197</ele>
        <time>2018-03-04T09:58:41Z</time>
      </trkpt>
      <trkpt lat="45.99677" lon="4.71354">
        <ele>197</ele>
        <time>2018-03-04T09:58:42Z</time>
      </trkpt>
      <trkpt lat="45.99681" lon="4.71347">
        <ele>197</ele>
        <time>2018-03-04T09:58:43Z</time>
      </trkpt>
      <trkpt lat="45.99685" lon="4.71341">
        <ele>197</ele>
        <time>2018-03-04T09:58:44Z</time>
      </trkpt>
      <trkpt lat="45.99687" lon="4.71334">
        <ele>197</ele>
        <time>2018-03-04T09:58:45Z</time>
      </trkpt>
      <trkpt lat="45.99691" lon="4.71327">
        <ele>197</ele>
        <time>2018-03-04T09:58:46Z</time>
      </trkpt>
      <trkpt lat="45.99694" lon="4.71319">
        <ele>198</ele>
        <time>2018-03-04T09:58:47Z</time>
      </trkpt>
      <trkpt lat="45.99698" lon="4.71313">
        <ele>198</ele>
        <time>2018-03-04T09:58:48Z</time>
      </trkpt>
      <trkpt lat="45.99701" lon="4.71305">
        <ele>198</ele>
        <time>2018-03-04T09:58:49Z</time>
      </trkpt>
      <trkpt lat="45.99705" lon="4.71298">
        <ele>198</ele>
        <time>2018-03-04T09:58:50Z</time>
      </trkpt>
      <trkpt lat="45.99709" lon="4.71291">
        <ele>198</ele>
        <time>2018-03-04T09:58:51Z</time>
      </trkpt>
      <trkpt lat="45.99712" lon="4.71285">
        <ele>198</ele>
        <time>2018-03-04T09:58:52Z</time>
      </trkpt>
      <trkpt lat="45.99716" lon="4.71279">
        <ele>198</ele>
        <time>2018-03-04T09:58:53Z</time>
      </trkpt>
      <trkpt lat="45.99719" lon="4.71271">
        <ele>198</ele>
        <time>2018-03-04T09:58:54Z</time>
      </trkpt>
      <trkpt lat="45.99724" lon="4.71261">
        <ele>198</ele>
        <time>2018-03-04T09:58:55Z</time>
      </trkpt>
      <trkpt lat="45.99727" lon="4.71255">
        <ele>198</ele>
        <time>2018-03-04T09:58:56Z</time>
      </trkpt>
      <trkpt lat="45.9973" lon="4.7125">
        <ele>198</ele>
        <time>2018-03-04T09:58:57Z</time>
      </trkpt>
      <trkpt lat="45.99734" lon="4.71243">
        <ele>198</ele>
        <time>2018-03-04T09:58:58Z</time>
      </trkpt>
      <trkpt lat="45.99738" lon="4.71236">
        <ele>198</ele>
        <time>2018-03-04T09:58:59Z</time>
      </trkpt>
      <trkpt lat="45.99742" lon="4.7123">
        <ele>198</ele>
        <time>2018-03-04T09:59:00Z</time>
      </trkpt>
      <trkpt lat="45.99744" lon="4.71223">
        <ele>198</ele>
        <time>2018-03-04T09:59:01Z</time>
      </trkpt>
      <trkpt lat="45.99747" lon="4.71216">
        <ele>198</ele>
        <time>2018-03-04T09:59:02Z</time>
      </trkpt>
      <trkpt lat="45.9975" lon="4.71209">
        <ele>199</ele>
        <time>2018-03-04T09:59:03Z</time>
      </trkpt>
      <trkpt lat="45.99753" lon="4.71203">
        <ele>198</ele>
        <time>2018-03-04T09:59:04Z</time>
      </trkpt>
      <trkpt lat="45.99756" lon="4.71197">
        <ele>198</ele>
        <time>2018-03-04T09:59:05Z</time>
      </trkpt>
      <trkpt lat="45.99759" lon="4.71191">
        <ele>198</ele>
        <time>2018-03-04T09:59:06Z</time>
      </trkpt>
      <trkpt lat="45.99762" lon="4.71187">
        <ele>198</ele>
        <time>2018-03-04T09:59:07Z</time>
      </trkpt>
      <trkpt lat="45.99765" lon="4.71181">
        <ele>198</ele>
        <time>2018-03-04T09:59:08Z</time>
      </trkpt>
      <trkpt lat="45.99768" lon="4.71176">
        <ele>198</ele>
        <time>2018-03-04T09:59:09Z</time>
      </trkpt>
      <trkpt lat="45.99771" lon="4.7117">
        <ele>198</ele>
        <time>2018-03-04T09:59:10Z</time>
      </trkpt>
      <trkpt lat="45.99774" lon="4.71163">
        <ele>198</ele>
        <time>2018-03-04T09:59:11Z</time>
      </trkpt>
      <trkpt lat="45.99778" lon="4.71158">
        <ele>198</ele>
        <time>2018-03-04T09:59:13Z</time>
      </trkpt>
      <trkpt lat="45.9978" lon="4.71154">
        <ele>198</ele>
        <time>2018-03-04T09:59:14Z</time>
      </trkpt>
      <trkpt lat="45.99787" lon="4.71147">
        <ele>198</ele>
        <time>2018-03-04T09:59:33Z</time>
      </trkpt>
      <trkpt lat="45.99788" lon="4.71146">
        <ele>198</ele>
        <time>2018-03-04T09:59:34Z</time>
      </trkpt>
      <trkpt lat="45.99792" lon="4.71137">
        <ele>198</ele>
        <time>2018-03-04T09:59:38Z</time>
      </trkpt>
      <trkpt lat="45.99794" lon="4.71134">
        <ele>198</ele>
        <time>2018-03-04T09:59:39Z</time>
      </trkpt>
      <trkpt lat="45.99796" lon="4.71126">
        <ele>198</ele>
        <time>2018-03-04T09:59:41Z</time>
      </trkpt>
      <trkpt lat="45.99797" lon="4.71121">
        <ele>198</ele>
        <time>2018-03-04T09:59:42Z</time>
      </trkpt>
      <trkpt lat="45.998" lon="4.71109">
        <ele>198</ele>
        <time>2018-03-04T09:59:43Z</time>
      </trkpt>
      <trkpt lat="45.99801" lon="4.71103">
        <ele>198</ele>
        <time>2018-03-04T09:59:44Z</time>
      </trkpt>
      <trkpt lat="45.99802" lon="4.71097">
        <ele>198</ele>
        <time>2018-03-04T09:59:45Z</time>
      </trkpt>
      <trkpt lat="45.99803" lon="4.7109">
        <ele>198</ele>
        <time>2018-03-04T09:59:46Z</time>
      </trkpt>
      <trkpt lat="45.99804" lon="4.71082">
        <ele>199</ele>
        <time>2018-03-04T09:59:47Z</time>
      </trkpt>
      <trkpt lat="45.99806" lon="4.71076">
        <ele>199</ele>
        <time>2018-03-04T09:59:48Z</time>
      </trkpt>
      <trkpt lat="45.99807" lon="4.71068">
        <ele>199</ele>
        <time>2018-03-04T09:59:49Z</time>
      </trkpt>
      <trkpt lat="45.99808" lon="4.71061">
        <ele>199</ele>
        <time>2018-03-04T09:59:50Z</time>
      </trkpt>
      <trkpt lat="45.99809" lon="4.71054">
        <ele>199</ele>
        <time>2018-03-04T09:59:51Z</time>
      </trkpt>
      <trkpt lat="45.9981" lon="4.71047">
        <ele>199</ele>
        <time>2018-03-04T09:59:52Z</time>
      </trkpt>
      <trkpt lat="45.99811" lon="4.71041">
        <ele>199</ele>
        <time>2018-03-04T09:59:53Z</time>
      </trkpt>
      <trkpt lat="45.99812" lon="4.71034">
        <ele>199</ele>
        <time>2018-03-04T09:59:54Z</time>
      </trkpt>
      <trkpt lat="45.99814" lon="4.71026">
        <ele>199</ele>
        <time>2018-03-04T09:59:55Z</time>
      </trkpt>
      <trkpt lat="45.99815" lon="4.71018">
        <ele>199</ele>
        <time>2018-03-04T09:59:56Z</time>
      </trkpt>
      <trkpt lat="45.99816" lon="4.71011">
        <ele>200</ele>
        <time>2018-03-04T09:59:57Z</time>
      </trkpt>
      <trkpt lat="45.99817" lon="4.71005">
        <ele>200</ele>
        <time>2018-03-04T09:59:58Z</time>
      </trkpt>
      <trkpt lat="45.99819" lon="4.70996">
        <ele>200</ele>
        <time>2018-03-04T09:59:59Z</time>
      </trkpt>
      <trkpt lat="45.99821" lon="4.70987">
        <ele>200</ele>
        <time>2018-03-04T10:00:00Z</time>
      </trkpt>
      <trkpt lat="45.99822" lon="4.7098">
        <ele>200</ele>
        <time>2018-03-04T10:00:01Z</time>
      </trkpt>
      <trkpt lat="45.99824" lon="4.70973">
        <ele>200</ele>
        <time>2018-03-04T10:00:02Z</time>
      </trkpt>
      <trkpt lat="45.99826" lon="4.70966">
        <ele>200</ele>
        <time>2018-03-04T10:00:03Z</time>
      </trkpt>
      <trkpt lat="45.99827" lon="4.70958">
        <ele>199</ele>
        <time>2018-03-04T10:00:04Z</time>
      </trkpt>
      <trkpt lat="45.99829" lon="4.70951">
        <ele>199</ele>
        <time>2018-03-04T10:00:05Z</time>
      </trkpt>
      <trkpt lat="45.9983" lon="4.70944">
        <ele>199</ele>
        <time>2018-03-04T10:00:06Z</time>
      </trkpt>
      <trkpt lat="45.99831" lon="4.70936">
        <ele>199</ele>
        <time>2018-03-04T10:00:07Z</time>
      </trkpt>
      <trkpt lat="45.99832" lon="4.70929">
        <ele>199</ele>
        <time>2018-03-04T10:00:08Z</time>
      </trkpt>
      <trkpt lat="45.99834" lon="4.70921">
        <ele>199</ele>
        <time>2018-03-04T10:00:09Z</time>
      </trkpt>
      <trkpt lat="45.99834" lon="4.70915">
        <ele>199</ele>
        <time>2018-03-04T10:00:10Z</time>
      </trkpt>
      <trkpt lat="45.99836" lon="4.70908">
        <ele>199</ele>
        <time>2018-03-04T10:00:11Z</time>
      </trkpt>
      <trkpt lat="45.99837" lon="4.709">
        <ele>199</ele>
        <time>2018-03-04T10:00:12Z</time>
      </trkpt>
      <trkpt lat="45.99839" lon="4.70892">
        <ele>199</ele>
        <time>2018-03-04T10:00:13Z</time>
      </trkpt>
      <trkpt lat="45.9984" lon="4.70885">
        <ele>199</ele>
        <time>2018-03-04T10:00:14Z</time>
      </trkpt>
      <trkpt lat="45.99841" lon="4.70876">
        <ele>200</ele>
        <time>2018-03-04T10:00:15Z</time>
      </trkpt>
      <trkpt lat="45.99842" lon="4.70868">
        <ele>200</ele>
        <time>2018-03-04T10:00:16Z</time>
      </trkpt>
      <trkpt lat="45.99843" lon="4.7086">
        <ele>200</ele>
        <time>2018-03-04T10:00:17Z</time>
      </trkpt>
      <trkpt lat="45.99845" lon="4.70851">
        <ele>200</ele>
        <time>2018-03-04T10:00:18Z</time>
      </trkpt>
      <trkpt lat="45.99847" lon="4.70842">
        <ele>201</ele>
        <time>2018-03-04T10:00:19Z</time>
      </trkpt>
      <trkpt lat="45.99848" lon="4.70835">
        <ele>201</ele>
        <time>2018-03-04T10:00:20Z</time>
      </trkpt>
      <trkpt lat="45.99849" lon="4.70827">
        <ele>201</ele>
        <time>2018-03-04T10:00:21Z</time>
      </trkpt>
      <trkpt lat="45.9985" lon="4.70819">
        <ele>201</ele>
        <time>2018-03-04T10:00:22Z</time>
      </trkpt>
      <trkpt lat="45.99851" lon="4.70811">
        <ele>201</ele>
        <time>2018-03-04T10:00:23Z</time>
      </trkpt>
      <trkpt lat="45.99853" lon="4.70802">
        <ele>201</ele>
        <time>2018-03-04T10:00:24Z</time>
      </trkpt>
      <trkpt lat="45.99854" lon="4.70794">
        <ele>201</ele>
        <time>2018-03-04T10:00:25Z</time>
      </trkpt>
      <trkpt lat="45.99857" lon="4.70787">
        <ele>200</ele>
        <time>2018-03-04T10:00:26Z</time>
      </trkpt>
      <trkpt lat="45.99858" lon="4.70779">
        <ele>200</ele>
        <time>2018-03-04T10:00:27Z</time>
      </trkpt>
      <trkpt lat="45.9986" lon="4.70771">
        <ele>200</ele>
        <time>2018-03-04T10:00:28Z</time>
      </trkpt>
      <trkpt lat="45.99861" lon="4.70762">
        <ele>200</ele>
        <time>2018-03-04T10:00:29Z</time>
      </trkpt>
      <trkpt lat="45.99862" lon="4.70755">
        <ele>200</ele>
        <time>2018-03-04T10:00:30Z</time>
      </trkpt>
      <trkpt lat="45.99864" lon="4.70747">
        <ele>200</ele>
        <time>2018-03-04T10:00:31Z</time>
      </trkpt>
      <trkpt lat="45.99866" lon="4.70739">
        <ele>200</ele>
        <time>2018-03-04T10:00:32Z</time>
      </trkpt>
      <trkpt lat="45.99867" lon="4.70731">
        <ele>200</ele>
        <time>2018-03-04T10:00:33Z</time>
      </trkpt>
      <trkpt lat="45.99868" lon="4.70721">
        <ele>200</ele>
        <time>2018-03-04T10:00:34Z</time>
      </trkpt>
      <trkpt lat="45.99869" lon="4.70713">
        <ele>200</ele>
        <time>2018-03-04T10:00:35Z</time>
      </trkpt>
      <trkpt lat="45.9987" lon="4.70705">
        <ele>200</ele>
        <time>2018-03-04T10:00:36Z</time>
      </trkpt>
      <trkpt lat="45.99871" lon="4.70697">
        <ele>200</ele>
        <time>2018-03-04T10:00:37Z</time>
      </trkpt>
      <trkpt lat="45.99873" lon="4.70689">
        <ele>200</ele>
        <time>2018-03-04T10:00:38Z</time>
      </trkpt>
      <trkpt lat="45.99874" lon="4.70681">
        <ele>200</ele>
        <time>2018-03-04T10:00:39Z</time>
      </trkpt>
      <trkpt lat="45.99875" lon="4.70675">
        <ele>200</ele>
        <time>2018-03-04T10:00:40Z</time>
      </trkpt>
      <trkpt lat="45.99877" lon="4.70666">
        <ele>200</ele>
        <time>2018-03-04T10:00:41Z</time>
      </trkpt>
      <trkpt lat="45.9988" lon="4.70659">
        <ele>200</ele>
        <time>2018-03-04T10:00:42Z</time>
      </trkpt>
      <trkpt lat="45.99884" lon="4.70654">
        <ele>200</ele>
        <time>2018-03-04T10:00:43Z</time>
      </trkpt>
      <trkpt lat="45.99889" lon="4.70649">
        <ele>200</ele>
        <time>2018-03-04T10:00:44Z</time>
      </trkpt>
      <trkpt lat="45.99895" lon="4.70648">
        <ele>200</ele>
        <time>2018-03-04T10:00:45Z</time>
      </trkpt>
      <trkpt lat="45.999" lon="4.70646">
        <ele>200</ele>
        <time>2018-03-04T10:00:46Z</time>
      </trkpt>
      <trkpt lat="45.99905" lon="4.70645">
        <ele>200</ele>
        <time>2018-03-04T10:00:47Z</time>
      </trkpt>
      <trkpt lat="45.99911" lon="4.70643">
        <ele>200</ele>
        <time>2018-03-04T10:00:48Z</time>
      </trkpt>
      <trkpt lat="45.99917" lon="4.70643">
        <ele>199</ele>
        <time>2018-03-04T10:00:49Z</time>
      </trkpt>
      <trkpt lat="45.99924" lon="4.70641">
        <ele>199</ele>
        <time>2018-03-04T10:00:50Z</time>
      </trkpt>
      <trkpt lat="45.9993" lon="4.70639">
        <ele>199</ele>
        <time>2018-03-04T10:00:51Z</time>
      </trkpt>
      <trkpt lat="45.99936" lon="4.70637">
        <ele>199</ele>
        <time>2018-03-04T10:00:52Z</time>
      </trkpt>
      <trkpt lat="45.99943" lon="4.70637">
        <ele>199</ele>
        <time>2018-03-04T10:00:53Z</time>
      </trkpt>
      <trkpt lat="45.9995" lon="4.70635">
        <ele>199</ele>
        <time>2018-03-04T10:00:54Z</time>
      </trkpt>
      <trkpt lat="45.99956" lon="4.70634">
        <ele>199</ele>
        <time>2018-03-04T10:00:55Z</time>
      </trkpt>
      <trkpt lat="45.99963" lon="4.70632">
        <ele>199</ele>
        <time>2018-03-04T10:00:56Z</time>
      </trkpt>
      <trkpt lat="45.99967" lon="4.70631">
        <ele>199</ele>
        <time>2018-03-04T10:00:57Z</time>
      </trkpt>
      <trkpt lat="45.99973" lon="4.70629">
        <ele>199</ele>
        <time>2018-03-04T10:00:58Z</time>
      </trkpt>
      <trkpt lat="45.99979" lon="4.70628">
        <ele>199</ele>
        <time>2018-03-04T10:00:59Z</time>
      </trkpt>
      <trkpt lat="45.99985" lon="4.70627">
        <ele>199</ele>
        <time>2018-03-04T10:01:00Z</time>
      </trkpt>
      <trkpt lat="45.9999" lon="4.70628">
        <ele>199</ele>
        <time>2018-03-04T10:01:01Z</time>
      </trkpt>
      <trkpt lat="45.99995" lon="4.70626">
        <ele>199</ele>
        <time>2018-03-04T10:01:02Z</time>
      </trkpt>
      <trkpt lat="46" lon="4.70625">
        <ele>199</ele>
        <time>2018-03-04T10:01:03Z</time>
      </trkpt>
      <trkpt lat="46.00006" lon="4.70623">
        <ele>199</ele>
        <time>2018-03-04T10:01:04Z</time>
      </trkpt>
      <trkpt lat="46.00011" lon="4.70621">
        <ele>199</ele>
        <time>2018-03-04T10:01:05Z</time>
      </trkpt>
      <trkpt lat="46.00016" lon="4.70619">
        <ele>199</ele>
        <time>2018-03-04T10:01:06Z</time>
      </trkpt>
      <trkpt lat="46.00022" lon="4.70617">
        <ele>199</ele>
        <time>2018-03-04T10:01:07Z</time>
      </trkpt>
      <trkpt lat="46.00028" lon="4.70616">
        <ele>199</ele>
        <time>2018-03-04T10:01:08Z</time>
      </trkpt>
      <trkpt lat="46.00034" lon="4.70615">
        <ele>199</ele>
        <time>2018-03-04T10:01:09Z</time>
      </trkpt>
      <trkpt lat="46.00039" lon="4.70614">
        <ele>199</ele>
        <time>2018-03-04T10:01:10Z</time>
      </trkpt>
      <trkpt lat="46.00045" lon="4.70613">
        <ele>198</ele>
        <time>2018-03-04T10:01:11Z</time>
      </trkpt>
      <trkpt lat="46.00051" lon="4.70612">
        <ele>198</ele>
        <time>2018-03-04T10:01:12Z</time>
      </trkpt>
      <trkpt lat="46.00057" lon="4.7061">
        <ele>198</ele>
        <time>2018-03-04T10:01:13Z</time>
      </trkpt>
      <trkpt lat="46.00063" lon="4.70608">
        <ele>198</ele>
        <time>2018-03-04T10:01:14Z</time>
      </trkpt>
      <trkpt lat="46.00069" lon="4.70606">
        <ele>198</ele>
        <time>2018-03-04T10:01:15Z</time>
      </trkpt>
      <trkpt lat="46.00075" lon="4.70606">
        <ele>198</ele>
        <time>2018-03-04T10:01:16Z</time>
      </trkpt>
      <trkpt lat="46.0008" lon="4.70604">
        <ele>198</ele>
        <time>2018-03-04T10:01:17Z</time>
      </trkpt>
      <trkpt lat="46.00085" lon="4.70602">
        <ele>198</ele>
        <time>2018-03-04T10:01:18Z</time>
      </trkpt>
      <trkpt lat="46.0009" lon="4.706">
        <ele>198</ele>
        <time>2018-03-04T10:01:19Z</time>
      </trkpt>
      <trkpt lat="46.00096" lon="4.70598">
        <ele>198</ele>
        <time>2018-03-04T10:01:20Z</time>
      </trkpt>
      <trkpt lat="46.00101" lon="4.70596">
        <ele>198</ele>
        <time>2018-03-04T10:01:21Z</time>
      </trkpt>
      <trkpt lat="46.00107" lon="4.7059">
        <ele>198</ele>
        <time>2018-03-04T10:01:22Z</time>
      </trkpt>
      <trkpt lat="46.00112" lon="4.70586">
        <ele>198</ele>
        <time>2018-03-04T10:01:23Z</time>
      </trkpt>
      <trkpt lat="46.00117" lon="4.70582">
        <ele>198</ele>
        <time>2018-03-04T10:01:24Z</time>
      </trkpt>
      <trkpt lat="46.00122" lon="4.70578">
        <ele>198</ele>
        <time>2018-03-04T10:01:25Z</time>
      </trkpt>
      <trkpt lat="46.00128" lon="4.70574">
        <ele>198</ele>
        <time>2018-03-04T10:01:26Z</time>
      </trkpt>
      <trkpt lat="46.00132" lon="4.7057">
        <ele>198</ele>
        <time>2018-03-04T10:01:27Z</time>
      </trkpt>
      <trkpt lat="46.00138" lon="4.70564">
        <ele>198</ele>
        <time>2018-03-04T10:01:28Z</time>
      </trkpt>
      <trkpt lat="46.00143" lon="4.70562">
        <ele>198</ele>
        <time>2018-03-04T10:01:29Z</time>
      </trkpt>
      <trkpt lat="46.00149" lon="4.70559">
        <ele>198</ele>
        <time>2018-03-04T10:01:30Z</time>
      </trkpt>
      <trkpt lat="46.00155" lon="4.70555">
        <ele>198</ele>
        <time>2018-03-04T10:01:31Z</time>
      </trkpt>
      <trkpt lat="46.0016" lon="4.70551">
        <ele>198</ele>
        <time>2018-03-04T10:01:32Z</time>
      </trkpt>
      <trkpt lat="46.00164" lon="4.70546">
        <ele>198</ele>
        <time>2018-03-04T10:01:33Z</time>
      </trkpt>
      <trkpt lat="46.00169" lon="4.70542">
        <ele>198</ele>
        <time>2018-03-04T10:01:34Z</time>
      </trkpt>
      <trkpt lat="46.00175" lon="4.70539">
        <ele>198</ele>
        <time>2018-03-04T10:01:35Z</time>
      </trkpt>
      <trkpt lat="46.0018" lon="4.70536">
        <ele>198</ele>
        <time>2018-03-04T10:01:36Z</time>
      </trkpt>
      <trkpt lat="46.00186" lon="4.70535">
        <ele>198</ele>
        <time>2018-03-04T10:01:37Z</time>
      </trkpt>
      <trkpt lat="46.00192" lon="4.70534">
        <ele>198</ele>
        <time>2018-03-04T10:01:38Z</time>
      </trkpt>
      <trkpt lat="46.00197" lon="4.70534">
        <ele>198</ele>
        <time>2018-03-04T10:01:39Z</time>
      </trkpt>
      <trkpt lat="46.00203" lon="4.70533">
        <ele>198</ele>
        <time>2018-03-04T10:01:40Z</time>
      </trkpt>
      <trkpt lat="46.00208" lon="4.70532">
        <ele>198</ele>
        <time>2018-03-04T10:01:41Z</time>
      </trkpt>
      <trkpt lat="46.00213" lon="4.7053">
        <ele>198</ele>
        <time>2018-03-04T10:01:42Z</time>
      </trkpt>
      <trkpt lat="46.00219" lon="4.70529">
        <ele>198</ele>
        <time>2018-03-04T10:01:43Z</time>
      </trkpt>
      <trkpt lat="46.00224" lon="4.70528">
        <ele>198</ele>
        <time>2018-03-04T10:01:44Z</time>
      </trkpt>
      <trkpt lat="46.00229" lon="4.70527">
        <ele>198</ele>
        <time>2018-03-04T10:01:45Z</time>
      </trkpt>
      <trkpt lat="46.00235" lon="4.70526">
        <ele>198</ele>
        <time>2018-03-04T10:01:46Z</time>
      </trkpt>
      <trkpt lat="46.0024" lon="4.70524">
        <ele>198</ele>
        <time>2018-03-04T10:01:47Z</time>
      </trkpt>
      <trkpt lat="46.00245" lon="4.70523">
        <ele>198</ele>
        <time>2018-03-04T10:01:48Z</time>
      </trkpt>
      <trkpt lat="46.0025" lon="4.70521">
        <ele>197</ele>
        <time>2018-03-04T10:01:49Z</time>
      </trkpt>
      <trkpt lat="46.00256" lon="4.70519">
        <ele>197</ele>
        <time>2018-03-04T10:01:50Z</time>
      </trkpt>
      <trkpt lat="46.00261" lon="4.70518">
        <ele>197</ele>
        <time>2018-03-04T10:01:51Z</time>
      </trkpt>
      <trkpt lat="46.00266" lon="4.70516">
        <ele>197</ele>
        <time>2018-03-04T10:01:52Z</time>
      </trkpt>
      <trkpt lat="46.00272" lon="4.70512">
        <ele>197</ele>
        <time>2018-03-04T10:01:53Z</time>
      </trkpt>
      <trkpt lat="46.00277" lon="4.70511">
        <ele>197</ele>
        <time>2018-03-04T10:01:54Z</time>
      </trkpt>
      <trkpt lat="46.00282" lon="4.70512">
        <ele>197</ele>
        <time>2018-03-04T10:01:55Z</time>
      </trkpt>
      <trkpt lat="46.00287" lon="4.70511">
        <ele>197</ele>
        <time>2018-03-04T10:01:56Z</time>
      </trkpt>
      <trkpt lat="46.00292" lon="4.70511">
        <ele>197</ele>
        <time>2018-03-04T10:01:57Z</time>
      </trkpt>
      <trkpt lat="46.00298" lon="4.7051">
        <ele>197</ele>
        <time>2018-03-04T10:01:58Z</time>
      </trkpt>
      <trkpt lat="46.00304" lon="4.70509">
        <ele>197</ele>
        <time>2018-03-04T10:01:59Z</time>
      </trkpt>
      <trkpt lat="46.00309" lon="4.70509">
        <ele>197</ele>
        <time>2018-03-04T10:02:00Z</time>
      </trkpt>
      <trkpt lat="46.00315" lon="4.70506">
        <ele>197</ele>
        <time>2018-03-04T10:02:01Z</time>
      </trkpt>
      <trkpt lat="46.0032" lon="4.70506">
        <ele>198</ele>
        <time>2018-03-04T10:02:02Z</time>
      </trkpt>
      <trkpt lat="46.00326" lon="4.70505">
        <ele>198</ele>
        <time>2018-03-04T10:02:03Z</time>
      </trkpt>
      <trkpt lat="46.00331" lon="4.70504">
        <ele>198</ele>
        <time>2018-03-04T10:02:04Z</time>
      </trkpt>
      <trkpt lat="46.00336" lon="4.70502">
        <ele>198</ele>
        <time>2018-03-04T10:02:05Z</time>
      </trkpt>
      <trkpt lat="46.00341" lon="4.70502">
        <ele>198</ele>
        <time>2018-03-04T10:02:06Z</time>
      </trkpt>
      <trkpt lat="46.00346" lon="4.70501">
        <ele>198</ele>
        <time>2018-03-04T10:02:07Z</time>
      </trkpt>
      <trkpt lat="46.00351" lon="4.705">
        <ele>198</ele>
        <time>2018-03-04T10:02:08Z</time>
      </trkpt>
      <trkpt lat="46.00357" lon="4.705">
        <ele>200</ele>
        <time>2018-03-04T10:02:09Z</time>
      </trkpt>
      <trkpt lat="46.00362" lon="4.70498">
        <ele>200</ele>
        <time>2018-03-04T10:02:10Z</time>
      </trkpt>
      <trkpt lat="46.00367" lon="4.70497">
        <ele>200</ele>
        <time>2018-03-04T10:02:11Z</time>
      </trkpt>
      <trkpt lat="46.00372" lon="4.70497">
        <ele>200</ele>
        <time>2018-03-04T10:02:12Z</time>
      </trkpt>
      <trkpt lat="46.00377" lon="4.70496">
        <ele>200</ele>
        <time>2018-03-04T10:02:13Z</time>
      </trkpt>
      <trkpt lat="46.00383" lon="4.70494">
        <ele>200</ele>
        <time>2018-03-04T10:02:14Z</time>
      </trkpt>
      <trkpt lat="46.00388" lon="4.70493">
        <ele>200</ele>
        <time>2018-03-04T10:02:15Z</time>
      </trkpt>
      <trkpt lat="46.00392" lon="4.70493">
        <ele>200</ele>
        <time>2018-03-04T10:02:16Z</time>
      </trkpt>
      <trkpt lat="46.00398" lon="4.70494">
        <ele>200</ele>
        <time>2018-03-04T10:02:17Z</time>
      </trkpt>
      <trkpt lat="46.00403" lon="4.70493">
        <ele>200</ele>
        <time>2018-03-04T10:02:18Z</time>
      </trkpt>
      <trkpt lat="46.00408" lon="4.70494">
        <ele>200</ele>
        <time>2018-03-04T10:02:19Z</time>
      </trkpt>
      <trkpt lat="46.00413" lon="4.70494">
        <ele>200</ele>
        <time>2018-03-04T10:02:20Z</time>
      </trkpt>
      <trkpt lat="46.00418" lon="4.70495">
        <ele>201</ele>
        <time>2018-03-04T10:02:21Z</time>
      </trkpt>
      <trkpt lat="46.00423" lon="4.70495">
        <ele>201</ele>
        <time>2018-03-04T10:02:22Z</time>
      </trkpt>
      <trkpt lat="46.00428" lon="4.70496">
        <ele>201</ele>
        <time>2018-03-04T10:02:23Z</time>
      </trkpt>
      <trkpt lat="46.00434" lon="4.70496">
        <ele>202</ele>
        <time>2018-03-04T10:02:24Z</time>
      </trkpt>
      <trkpt lat="46.00439" lon="4.70497">
        <ele>202</ele>
        <time>2018-03-04T10:02:25Z</time>
      </trkpt>
      <trkpt lat="46.00444" lon="4.70498">
        <ele>202</ele>
        <time>2018-03-04T10:02:26Z</time>
      </trkpt>
      <trkpt lat="46.0045" lon="4.70498">
        <ele>202</ele>
        <time>2018-03-04T10:02:27Z</time>
      </trkpt>
      <trkpt lat="46.00455" lon="4.70501">
        <ele>201</ele>
        <time>2018-03-04T10:02:28Z</time>
      </trkpt>
      <trkpt lat="46.0046" lon="4.70504">
        <ele>201</ele>
        <time>2018-03-04T10:02:29Z</time>
      </trkpt>
      <trkpt lat="46.00464" lon="4.70508">
        <ele>201</ele>
        <time>2018-03-04T10:02:30Z</time>
      </trkpt>
      <trkpt lat="46.00467" lon="4.70513">
        <ele>201</ele>
        <time>2018-03-04T10:02:31Z</time>
      </trkpt>
      <trkpt lat="46.00469" lon="4.7052">
        <ele>201</ele>
        <time>2018-03-04T10:02:32Z</time>
      </trkpt>
      <trkpt lat="46.00471" lon="4.70528">
        <ele>201</ele>
        <time>2018-03-04T10:02:33Z</time>
      </trkpt>
      <trkpt lat="46.00474" lon="4.70535">
        <ele>201</ele>
        <time>2018-03-04T10:02:34Z</time>
      </trkpt>
      <trkpt lat="46.00479" lon="4.7054">
        <ele>201</ele>
        <time>2018-03-04T10:02:35Z</time>
      </trkpt>
      <trkpt lat="46.00484" lon="4.70543">
        <ele>201</ele>
        <time>2018-03-04T10:02:36Z</time>
      </trkpt>
      <trkpt lat="46.00489" lon="4.70542">
        <ele>201</ele>
        <time>2018-03-04T10:02:37Z</time>
      </trkpt>
      <trkpt lat="46.00495" lon="4.7054">
        <ele>201</ele>
        <time>2018-03-04T10:02:38Z</time>
      </trkpt>
      <trkpt lat="46.00499" lon="4.70535">
        <ele>201</ele>
        <time>2018-03-04T10:02:39Z</time>
      </trkpt>
      <trkpt lat="46.00502" lon="4.7053">
        <ele>203</ele>
        <time>2018-03-04T10:02:40Z</time>
      </trkpt>
      <trkpt lat="46.00505" lon="4.70523">
        <ele>203</ele>
        <time>2018-03-04T10:02:41Z</time>
      </trkpt>
      <trkpt lat="46.00508" lon="4.70518">
        <ele>204</ele>
        <time>2018-03-04T10:02:42Z</time>
      </trkpt>
      <trkpt lat="46.00516" lon="4.70512">
        <ele>204</ele>
        <time>2018-03-04T10:02:44Z</time>
      </trkpt>
      <trkpt lat="46.00519" lon="4.70514">
        <ele>204</ele>
        <time>2018-03-04T10:02:45Z</time>
      </trkpt>
      <trkpt lat="46.00525" lon="4.70515">
        <ele>204</ele>
        <time>2018-03-04T10:02:46Z</time>
      </trkpt>
      <trkpt lat="46.0053" lon="4.70516">
        <ele>204</ele>
        <time>2018-03-04T10:02:47Z</time>
      </trkpt>
      <trkpt lat="46.00535" lon="4.70516">
        <ele>204</ele>
        <time>2018-03-04T10:02:48Z</time>
      </trkpt>
      <trkpt lat="46.0054" lon="4.70516">
        <ele>204</ele>
        <time>2018-03-04T10:02:49Z</time>
      </trkpt>
      <trkpt lat="46.00545" lon="4.70517">
        <ele>204</ele>
        <time>2018-03-04T10:02:50Z</time>
      </trkpt>
      <trkpt lat="46.00549" lon="4.70517">
        <ele>204</ele>
        <time>2018-03-04T10:02:51Z</time>
      </trkpt>
      <trkpt lat="46.00558" lon="4.70516">
        <ele>204</ele>
        <time>2018-03-04T10:02:53Z</time>
      </trkpt>
      <trkpt lat="46.00563" lon="4.70515">
        <ele>205</ele>
        <time>2018-03-04T10:02:54Z</time>
      </trkpt>
      <trkpt lat="46.00571" lon="4.70515">
        <ele>205</ele>
        <time>2018-03-04T10:02:56Z</time>
      </trkpt>
      <trkpt lat="46.00576" lon="4.70515">
        <ele>205</ele>
        <time>2018-03-04T10:02:57Z</time>
      </trkpt>
      <trkpt lat="46.00584" lon="4.70513">
        <ele>207</ele>
        <time>2018-03-04T10:02:59Z</time>
      </trkpt>
      <trkpt lat="46.00588" lon="4.70512">
        <ele>207</ele>
        <time>2018-03-04T10:03:00Z</time>
      </trkpt>
      <trkpt lat="46.00593" lon="4.70511">
        <ele>207</ele>
        <time>2018-03-04T10:03:01Z</time>
      </trkpt>
      <trkpt lat="46.00598" lon="4.70509">
        <ele>207</ele>
        <time>2018-03-04T10:03:02Z</time>
      </trkpt>
      <trkpt lat="46.00606" lon="4.70504">
        <ele>207</ele>
        <time>2018-03-04T10:03:04Z</time>
      </trkpt>
      <trkpt lat="46.0061" lon="4.70502">
        <ele>207</ele>
        <time>2018-03-04T10:03:05Z</time>
      </trkpt>
      <trkpt lat="46.00615" lon="4.70501">
        <ele>207</ele>
        <time>2018-03-04T10:03:06Z</time>
      </trkpt>
      <trkpt lat="46.0062" lon="4.70501">
        <ele>207</ele>
        <time>2018-03-04T10:03:07Z</time>
      </trkpt>
      <trkpt lat="46.00627" lon="4.70499">
        <ele>211</ele>
        <time>2018-03-04T10:03:08Z</time>
      </trkpt>
      <trkpt lat="46.00631" lon="4.70498">
        <ele>211</ele>
        <time>2018-03-04T10:03:09Z</time>
      </trkpt>
      <trkpt lat="46.0064" lon="4.70497">
        <ele>211</ele>
        <time>2018-03-04T10:03:11Z</time>
      </trkpt>
      <trkpt lat="46.00644" lon="4.70498">
        <ele>211</ele>
        <time>2018-03-04T10:03:12Z</time>
      </trkpt>
      <trkpt lat="46.00653" lon="4.70498">
        <ele>212</ele>
        <time>2018-03-04T10:03:14Z</time>
      </trkpt>
      <trkpt lat="46.00658" lon="4.70499">
        <ele>212</ele>
        <time>2018-03-04T10:03:15Z</time>
      </trkpt>
      <trkpt lat="46.00664" lon="4.70499">
        <ele>212</ele>
        <time>2018-03-04T10:03:16Z</time>
      </trkpt>
      <trkpt lat="46.0067" lon="4.70497">
        <ele>212</ele>
        <time>2018-03-04T10:03:17Z</time>
      </trkpt>
      <trkpt lat="46.00676" lon="4.70497">
        <ele>212</ele>
        <time>2018-03-04T10:03:18Z</time>
      </trkpt>
      <trkpt lat="46.00682" lon="4.70498">
        <ele>211</ele>
        <time>2018-03-04T10:03:19Z</time>
      </trkpt>
      <trkpt lat="46.00687" lon="4.70499">
        <ele>211</ele>
        <time>2018-03-04T10:03:20Z</time>
      </trkpt>
      <trkpt lat="46.00693" lon="4.70499">
        <ele>211</ele>
        <time>2018-03-04T10:03:21Z</time>
      </trkpt>
      <trkpt lat="46.00699" lon="4.70499">
        <ele>211</ele>
        <time>2018-03-04T10:03:22Z</time>
      </trkpt>
      <trkpt lat="46.00706" lon="4.70498">
        <ele>211</ele>
        <time>2018-03-04T10:03:23Z</time>
      </trkpt>
      <trkpt lat="46.00712" lon="4.70499">
        <ele>210</ele>
        <time>2018-03-04T10:03:24Z</time>
      </trkpt>
      <trkpt lat="46.00719" lon="4.70499">
        <ele>210</ele>
        <time>2018-03-04T10:03:25Z</time>
      </trkpt>
      <trkpt lat="46.00726" lon="4.705">
        <ele>210</ele>
        <time>2018-03-04T10:03:26Z</time>
      </trkpt>
      <trkpt lat="46.00732" lon="4.70502">
        <ele>207</ele>
        <time>2018-03-04T10:03:27Z</time>
      </trkpt>
      <trkpt lat="46.0074" lon="4.70505">
        <ele>207</ele>
        <time>2018-03-04T10:03:28Z</time>
      </trkpt>
      <trkpt lat="46.00746" lon="4.70507">
        <ele>207</ele>
        <time>2018-03-04T10:03:29Z</time>
      </trkpt>
      <trkpt lat="46.00753" lon="4.7051">
        <ele>206</ele>
        <time>2018-03-04T10:03:30Z</time>
      </trkpt>
      <trkpt lat="46.00759" lon="4.70512">
        <ele>206</ele>
        <time>2018-03-04T10:03:31Z</time>
      </trkpt>
      <trkpt lat="46.00766" lon="4.70515">
        <ele>205</ele>
        <time>2018-03-04T10:03:32Z</time>
      </trkpt>
      <trkpt lat="46.00773" lon="4.70517">
        <ele>205</ele>
        <time>2018-03-04T10:03:33Z</time>
      </trkpt>
      <trkpt lat="46.0078" lon="4.7052">
        <ele>205</ele>
        <time>2018-03-04T10:03:34Z</time>
      </trkpt>
      <trkpt lat="46.00786" lon="4.70523">
        <ele>204</ele>
        <time>2018-03-04T10:03:35Z</time>
      </trkpt>
      <trkpt lat="46.00794" lon="4.70526">
        <ele>204</ele>
        <time>2018-03-04T10:03:36Z</time>
      </trkpt>
      <trkpt lat="46.00801" lon="4.7053">
        <ele>204</ele>
        <time>2018-03-04T10:03:37Z</time>
      </trkpt>
      <trkpt lat="46.00808" lon="4.70533">
        <ele>204</ele>
        <time>2018-03-04T10:03:38Z</time>
      </trkpt>
      <trkpt lat="46.00816" lon="4.70536">
        <ele>203</ele>
        <time>2018-03-04T10:03:39Z</time>
      </trkpt>
      <trkpt lat="46.00823" lon="4.7054">
        <ele>203</ele>
        <time>2018-03-04T10:03:40Z</time>
      </trkpt>
      <trkpt lat="46.0083" lon="4.70544">
        <ele>203</ele>
        <time>2018-03-04T10:03:41Z</time>
      </trkpt>
      <trkpt lat="46.00838" lon="4.70548">
        <ele>201</ele>
        <time>2018-03-04T10:03:42Z</time>
      </trkpt>
      <trkpt lat="46.00845" lon="4.70552">
        <ele>201</ele>
        <time>2018-03-04T10:03:43Z</time>
      </trkpt>
      <trkpt lat="46.00852" lon="4.70555">
        <ele>201</ele>
        <time>2018-03-04T10:03:44Z</time>
      </trkpt>
      <trkpt lat="46.0086" lon="4.70558">
        <ele>201</ele>
        <time>2018-03-04T10:03:45Z</time>
      </trkpt>
      <trkpt lat="46.00867" lon="4.70562">
        <ele>201</ele>
        <time>2018-03-04T10:03:46Z</time>
      </trkpt>
      <trkpt lat="46.00874" lon="4.70565">
        <ele>200</ele>
        <time>2018-03-04T10:03:47Z</time>
      </trkpt>
      <trkpt lat="46.00882" lon="4.70567">
        <ele>200</ele>
        <time>2018-03-04T10:03:48Z</time>
      </trkpt>
      <trkpt lat="46.00889" lon="4.70572">
        <ele>200</ele>
        <time>2018-03-04T10:03:49Z</time>
      </trkpt>
      <trkpt lat="46.00896" lon="4.70575">
        <ele>200</ele>
        <time>2018-03-04T10:03:50Z</time>
      </trkpt>
      <trkpt lat="46.00904" lon="4.70578">
        <ele>199</ele>
        <time>2018-03-04T10:03:51Z</time>
      </trkpt>
      <trkpt lat="46.00911" lon="4.70581">
        <ele>199</ele>
        <time>2018-03-04T10:03:52Z</time>
      </trkpt>
      <trkpt lat="46.00919" lon="4.70583">
        <ele>198</ele>
        <time>2018-03-04T10:03:53Z</time>
      </trkpt>
      <trkpt lat="46.00926" lon="4.70586">
        <ele>198</ele>
        <time>2018-03-04T10:03:54Z</time>
      </trkpt>
      <trkpt lat="46.00933" lon="4.7059">
        <ele>198</ele>
        <time>2018-03-04T10:03:55Z</time>
      </trkpt>
      <trkpt lat="46.00941" lon="4.70594">
        <ele>198</ele>
        <time>2018-03-04T10:03:56Z</time>
      </trkpt>
      <trkpt lat="46.00949" lon="4.70598">
        <ele>197</ele>
        <time>2018-03-04T10:03:57Z</time>
      </trkpt>
      <trkpt lat="46.00957" lon="4.70601">
        <ele>197</ele>
        <time>2018-03-04T10:03:58Z</time>
      </trkpt>
      <trkpt lat="46.00965" lon="4.70605">
        <ele>197</ele>
        <time>2018-03-04T10:03:59Z</time>
      </trkpt>
      <trkpt lat="46.00972" lon="4.7061">
        <ele>197</ele>
        <time>2018-03-04T10:04:00Z</time>
      </trkpt>
      <trkpt lat="46.0098" lon="4.70614">
        <ele>197</ele>
        <time>2018-03-04T10:04:01Z</time>
      </trkpt>
      <trkpt lat="46.00988" lon="4.70618">
        <ele>197</ele>
        <time>2018-03-04T10:04:02Z</time>
      </trkpt>
      <trkpt lat="46.00996" lon="4.70621">
        <ele>197</ele>
        <time>2018-03-04T10:04:03Z</time>
      </trkpt>
      <trkpt lat="46.01004" lon="4.70625">
        <ele>196</ele>
        <time>2018-03-04T10:04:04Z</time>
      </trkpt>
      <trkpt lat="46.01012" lon="4.70628">
        <ele>196</ele>
        <time>2018-03-04T10:04:05Z</time>
      </trkpt>
      <trkpt lat="46.01019" lon="4.70632">
        <ele>196</ele>
        <time>2018-03-04T10:04:06Z</time>
      </trkpt>
      <trkpt lat="46.01027" lon="4.70635">
        <ele>196</ele>
        <time>2018-03-04T10:04:07Z</time>
      </trkpt>
      <trkpt lat="46.01035" lon="4.70639">
        <ele>196</ele>
        <time>2018-03-04T10:04:08Z</time>
      </trkpt>
      <trkpt lat="46.01044" lon="4.70641">
        <ele>195</ele>
        <time>2018-03-04T10:04:09Z</time>
      </trkpt>
      <trkpt lat="46.01051" lon="4.70645">
        <ele>195</ele>
        <time>2018-03-04T10:04:10Z</time>
      </trkpt>
      <trkpt lat="46.01059" lon="4.70649">
        <ele>195</ele>
        <time>2018-03-04T10:04:11Z</time>
      </trkpt>
      <trkpt lat="46.01065" lon="4.70652">
        <ele>195</ele>
        <time>2018-03-04T10:04:12Z</time>
      </trkpt>
      <trkpt lat="46.01073" lon="4.70656">
        <ele>195</ele>
        <time>2018-03-04T10:04:13Z</time>
      </trkpt>
      <trkpt lat="46.01081" lon="4.70659">
        <ele>195</ele>
        <time>2018-03-04T10:04:14Z</time>
      </trkpt>
      <trkpt lat="46.01087" lon="4.70663">
        <ele>195</ele>
        <time>2018-03-04T10:04:15Z</time>
      </trkpt>
      <trkpt lat="46.01094" lon="4.70666">
        <ele>195</ele>
        <time>2018-03-04T10:04:16Z</time>
      </trkpt>
      <trkpt lat="46.011" lon="4.70669">
        <ele>195</ele>
        <time>2018-03-04T10:04:17Z</time>
      </trkpt>
      <trkpt lat="46.01107" lon="4.70673">
        <ele>195</ele>
        <time>2018-03-04T10:04:18Z</time>
      </trkpt>
      <trkpt lat="46.01113" lon="4.70676">
        <ele>195</ele>
        <time>2018-03-04T10:04:19Z</time>
      </trkpt>
      <trkpt lat="46.0112" lon="4.70678">
        <ele>195</ele>
        <time>2018-03-04T10:04:20Z</time>
      </trkpt>
      <trkpt lat="46.01127" lon="4.7068">
        <ele>194</ele>
        <time>2018-03-04T10:04:21Z</time>
      </trkpt>
      <trkpt lat="46.01134" lon="4.70684">
        <ele>194</ele>
        <time>2018-03-04T10:04:22Z</time>
      </trkpt>
      <trkpt lat="46.01141" lon="4.70687">
        <ele>194</ele>
        <time>2018-03-04T10:04:23Z</time>
      </trkpt>
      <trkpt lat="46.01147" lon="4.7069">
        <ele>194</ele>
        <time>2018-03-04T10:04:24Z</time>
      </trkpt>
      <trkpt lat="46.01154" lon="4.70693">
        <ele>194</ele>
        <time>2018-03-04T10:04:25Z</time>
      </trkpt>
      <trkpt lat="46.01161" lon="4.70696">
        <ele>194</ele>
        <time>2018-03-04T10:04:26Z</time>
      </trkpt>
      <trkpt lat="46.01168" lon="4.70698">
        <ele>194</ele>
        <time>2018-03-04T10:04:27Z</time>
      </trkpt>
      <trkpt lat="46.01175" lon="4.70701">
        <ele>194</ele>
        <time>2018-03-04T10:04:28Z</time>
      </trkpt>
      <trkpt lat="46.01182" lon="4.70704">
        <ele>194</ele>
        <time>2018-03-04T10:04:29Z</time>
      </trkpt>
      <trkpt lat="46.0119" lon="4.70705">
        <ele>194</ele>
        <time>2018-03-04T10:04:30Z</time>
      </trkpt>
      <trkpt lat="46.01198" lon="4.70708">
        <ele>194</ele>
        <time>2018-03-04T10:04:31Z</time>
      </trkpt>
      <trkpt lat="46.01205" lon="4.70711">
        <ele>194</ele>
        <time>2018-03-04T10:04:32Z</time>
      </trkpt>
      <trkpt lat="46.01212" lon="4.70715">
        <ele>194</ele>
        <time>2018-03-04T10:04:33Z</time>
      </trkpt>
      <trkpt lat="46.01219" lon="4.70718">
        <ele>194</ele>
        <time>2018-03-04T10:04:34Z</time>
      </trkpt>
      <trkpt lat="46.01226" lon="4.70721">
        <ele>194</ele>
        <time>2018-03-04T10:04:35Z</time>
      </trkpt>
      <trkpt lat="46.01233" lon="4.70723">
        <ele>194</ele>
        <time>2018-03-04T10:04:36Z</time>
      </trkpt>
      <trkpt lat="46.01239" lon="4.70726">
        <ele>193</ele>
        <time>2018-03-04T10:04:37Z</time>
      </trkpt>
      <trkpt lat="46.01247" lon="4.70728">
        <ele>193</ele>
        <time>2018-03-04T10:04:38Z</time>
      </trkpt>
      <trkpt lat="46.01254" lon="4.70731">
        <ele>192</ele>
        <time>2018-03-04T10:04:39Z</time>
      </trkpt>
      <trkpt lat="46.0126" lon="4.70733">
        <ele>192</ele>
        <time>2018-03-04T10:04:40Z</time>
      </trkpt>
      <trkpt lat="46.01267" lon="4.70734">
        <ele>192</ele>
        <time>2018-03-04T10:04:41Z</time>
      </trkpt>
      <trkpt lat="46.01274" lon="4.70737">
        <ele>192</ele>
        <time>2018-03-04T10:04:42Z</time>
      </trkpt>
      <trkpt lat="46.01281" lon="4.70739">
        <ele>192</ele>
        <time>2018-03-04T10:04:43Z</time>
      </trkpt>
      <trkpt lat="46.01288" lon="4.7074">
        <ele>191</ele>
        <time>2018-03-04T10:04:44Z</time>
      </trkpt>
      <trkpt lat="46.01295" lon="4.70741">
        <ele>191</ele>
        <time>2018-03-04T10:04:45Z</time>
      </trkpt>
      <trkpt lat="46.01303" lon="4.70742">
        <ele>191</ele>
        <time>2018-03-04T10:04:46Z</time>
      </trkpt>
      <trkpt lat="46.0131" lon="4.70744">
        <ele>190</ele>
        <time>2018-03-04T10:04:47Z</time>
      </trkpt>
      <trkpt lat="46.01318" lon="4.70745">
        <ele>190</ele>
        <time>2018-03-04T10:04:48Z</time>
      </trkpt>
      <trkpt lat="46.01325" lon="4.70746">
        <ele>190</ele>
        <time>2018-03-04T10:04:49Z</time>
      </trkpt>
      <trkpt lat="46.01332" lon="4.70747">
        <ele>189</ele>
        <time>2018-03-04T10:04:50Z</time>
      </trkpt>
      <trkpt lat="46.0134" lon="4.70749">
        <ele>189</ele>
        <time>2018-03-04T10:04:51Z</time>
      </trkpt>
      <trkpt lat="46.01347" lon="4.70749">
        <ele>189</ele>
        <time>2018-03-04T10:04:52Z</time>
      </trkpt>
      <trkpt lat="46.01355" lon="4.7075">
        <ele>189</ele>
        <time>2018-03-04T10:04:53Z</time>
      </trkpt>
      <trkpt lat="46.01363" lon="4.7075">
        <ele>189</ele>
        <time>2018-03-04T10:04:54Z</time>
      </trkpt>
      <trkpt lat="46.0137" lon="4.7075">
        <ele>189</ele>
        <time>2018-03-04T10:04:55Z</time>
      </trkpt>
      <trkpt lat="46.01377" lon="4.70749">
        <ele>189</ele>
        <time>2018-03-04T10:04:56Z</time>
      </trkpt>
      <trkpt lat="46.01385" lon="4.70749">
        <ele>189</ele>
        <time>2018-03-04T10:04:57Z</time>
      </trkpt>
      <trkpt lat="46.01392" lon="4.70749">
        <ele>189</ele>
        <time>2018-03-04T10:04:58Z</time>
      </trkpt>
      <trkpt lat="46.01401" lon="4.70748">
        <ele>189</ele>
        <time>2018-03-04T10:04:59Z</time>
      </trkpt>
      <trkpt lat="46.0141" lon="4.70745">
        <ele>189</ele>
        <time>2018-03-04T10:05:00Z</time>
      </trkpt>
      <trkpt lat="46.01419" lon="4.70744">
        <ele>189</ele>
        <time>2018-03-04T10:05:01Z</time>
      </trkpt>
      <trkpt lat="46.01427" lon="4.70743">
        <ele>189</ele>
        <time>2018-03-04T10:05:02Z</time>
      </trkpt>
      <trkpt lat="46.01435" lon="4.70743">
        <ele>189</ele>
        <time>2018-03-04T10:05:03Z</time>
      </trkpt>
      <trkpt lat="46.01444" lon="4.70742">
        <ele>189</ele>
        <time>2018-03-04T10:05:04Z</time>
      </trkpt>
      <trkpt lat="46.01453" lon="4.70741">
        <ele>189</ele>
        <time>2018-03-04T10:05:05Z</time>
      </trkpt>
      <trkpt lat="46.0146" lon="4.7074">
        <ele>190</ele>
        <time>2018-03-04T10:05:06Z</time>
      </trkpt>
      <trkpt lat="46.01468" lon="4.70738">
        <ele>190</ele>
        <time>2018-03-04T10:05:07Z</time>
      </trkpt>
      <trkpt lat="46.01476" lon="4.70738">
        <ele>190</ele>
        <time>2018-03-04T10:05:08Z</time>
      </trkpt>
      <trkpt lat="46.01484" lon="4.70736">
        <ele>190</ele>
        <time>2018-03-04T10:05:09Z</time>
      </trkpt>
      <trkpt lat="46.01492" lon="4.70735">
        <ele>190</ele>
        <time>2018-03-04T10:05:10Z</time>
      </trkpt>
      <trkpt lat="46.015" lon="4.70734">
        <ele>190</ele>
        <time>2018-03-04T10:05:11Z</time>
      </trkpt>
      <trkpt lat="46.01509" lon="4.7073">
        <ele>190</ele>
        <time>2018-03-04T10:05:12Z</time>
      </trkpt>
      <trkpt lat="46.01516" lon="4.70729">
        <ele>190</ele>
        <time>2018-03-04T10:05:13Z</time>
      </trkpt>
      <trkpt lat="46.01523" lon="4.70728">
        <ele>190</ele>
        <time>2018-03-04T10:05:14Z</time>
      </trkpt>
      <trkpt lat="46.01531" lon="4.70727">
        <ele>190</ele>
        <time>2018-03-04T10:05:15Z</time>
      </trkpt>
      <trkpt lat="46.01539" lon="4.70726">
        <ele>190</ele>
        <time>2018-03-04T10:05:16Z</time>
      </trkpt>
      <trkpt lat="46.01547" lon="4.70725">
        <ele>190</ele>
        <time>2018-03-04T10:05:17Z</time>
      </trkpt>
      <trkpt lat="46.01554" lon="4.70723">
        <ele>190</ele>
        <time>2018-03-04T10:05:18Z</time>
      </trkpt>
      <trkpt lat="46.01562" lon="4.70723">
        <ele>190</ele>
        <time>2018-03-04T10:05:19Z</time>
      </trkpt>
      <trkpt lat="46.01571" lon="4.70722">
        <ele>190</ele>
        <time>2018-03-04T10:05:20Z</time>
      </trkpt>
      <trkpt lat="46.01579" lon="4.70721">
        <ele>190</ele>
        <time>2018-03-04T10:05:21Z</time>
      </trkpt>
      <trkpt lat="46.01586" lon="4.70721">
        <ele>190</ele>
        <time>2018-03-04T10:05:22Z</time>
      </trkpt>
      <trkpt lat="46.01594" lon="4.70721">
        <ele>190</ele>
        <time>2018-03-04T10:05:23Z</time>
      </trkpt>
      <trkpt lat="46.01602" lon="4.7072">
        <ele>190</ele>
        <time>2018-03-04T10:05:24Z</time>
      </trkpt>
      <trkpt lat="46.0161" lon="4.70719">
        <ele>190</ele>
        <time>2018-03-04T10:05:25Z</time>
      </trkpt>
      <trkpt lat="46.01618" lon="4.7072">
        <ele>190</ele>
        <time>2018-03-04T10:05:26Z</time>
      </trkpt>
      <trkpt lat="46.01625" lon="4.70719">
        <ele>190</ele>
        <time>2018-03-04T10:05:27Z</time>
      </trkpt>
      <trkpt lat="46.01633" lon="4.70718">
        <ele>190</ele>
        <time>2018-03-04T10:05:28Z</time>
      </trkpt>
      <trkpt lat="46.01641" lon="4.70717">
        <ele>190</ele>
        <time>2018-03-04T10:05:29Z</time>
      </trkpt>
      <trkpt lat="46.01648" lon="4.70716">
        <ele>190</ele>
        <time>2018-03-04T10:05:30Z</time>
      </trkpt>
      <trkpt lat="46.01657" lon="4.70714">
        <ele>190</ele>
        <time>2018-03-04T10:05:31Z</time>
      </trkpt>
      <trkpt lat="46.01664" lon="4.70714">
        <ele>190</ele>
        <time>2018-03-04T10:05:32Z</time>
      </trkpt>
      <trkpt lat="46.01672" lon="4.70714">
        <ele>189</ele>
        <time>2018-03-04T10:05:33Z</time>
      </trkpt>
      <trkpt lat="46.0168" lon="4.70713">
        <ele>189</ele>
        <time>2018-03-04T10:05:34Z</time>
      </trkpt>
      <trkpt lat="46.01687" lon="4.70712">
        <ele>189</ele>
        <time>2018-03-04T10:05:35Z</time>
      </trkpt>
      <trkpt lat="46.01696" lon="4.70711">
        <ele>189</ele>
        <time>2018-03-04T10:05:36Z</time>
      </trkpt>
      <trkpt lat="46.01703" lon="4.70709">
        <ele>189</ele>
        <time>2018-03-04T10:05:37Z</time>
      </trkpt>
      <trkpt lat="46.01711" lon="4.70709">
        <ele>188</ele>
        <time>2018-03-04T10:05:38Z</time>
      </trkpt>
      <trkpt lat="46.01718" lon="4.70707">
        <ele>188</ele>
        <time>2018-03-04T10:05:39Z</time>
      </trkpt>
      <trkpt lat="46.01727" lon="4.70707">
        <ele>188</ele>
        <time>2018-03-04T10:05:40Z</time>
      </trkpt>
      <trkpt lat="46.01734" lon="4.70706">
        <ele>188</ele>
        <time>2018-03-04T10:05:41Z</time>
      </trkpt>
      <trkpt lat="46.01742" lon="4.70705">
        <ele>188</ele>
        <time>2018-03-04T10:05:42Z</time>
      </trkpt>
      <trkpt lat="46.0175" lon="4.70705">
        <ele>188</ele>
        <time>2018-03-04T10:05:43Z</time>
      </trkpt>
      <trkpt lat="46.01757" lon="4.70704">
        <ele>187</ele>
        <time>2018-03-04T10:05:44Z</time>
      </trkpt>
      <trkpt lat="46.01765" lon="4.70703">
        <ele>187</ele>
        <time>2018-03-04T10:05:45Z</time>
      </trkpt>
      <trkpt lat="46.01772" lon="4.70702">
        <ele>187</ele>
        <time>2018-03-04T10:05:46Z</time>
      </trkpt>
      <trkpt lat="46.01781" lon="4.70701">
        <ele>187</ele>
        <time>2018-03-04T10:05:47Z</time>
      </trkpt>
      <trkpt lat="46.01788" lon="4.707">
        <ele>187</ele>
        <time>2018-03-04T10:05:48Z</time>
      </trkpt>
      <trkpt lat="46.01796" lon="4.707">
        <ele>187</ele>
        <time>2018-03-04T10:05:49Z</time>
      </trkpt>
      <trkpt lat="46.01805" lon="4.70699">
        <ele>187</ele>
        <time>2018-03-04T10:05:50Z</time>
      </trkpt>
      <trkpt lat="46.01813" lon="4.70699">
        <ele>187</ele>
        <time>2018-03-04T10:05:51Z</time>
      </trkpt>
      <trkpt lat="46.01821" lon="4.70698">
        <ele>187</ele>
        <time>2018-03-04T10:05:52Z</time>
      </trkpt>
      <trkpt lat="46.01829" lon="4.70697">
        <ele>187</ele>
        <time>2018-03-04T10:05:53Z</time>
      </trkpt>
      <trkpt lat="46.01837" lon="4.70696">
        <ele>185</ele>
        <time>2018-03-04T10:05:54Z</time>
      </trkpt>
      <trkpt lat="46.01846" lon="4.70695">
        <ele>185</ele>
        <time>2018-03-04T10:05:55Z</time>
      </trkpt>
      <trkpt lat="46.01855" lon="4.70694">
        <ele>185</ele>
        <time>2018-03-04T10:05:56Z</time>
      </trkpt>
      <trkpt lat="46.01864" lon="4.70693">
        <ele>185</ele>
        <time>2018-03-04T10:05:57Z</time>
      </trkpt>
      <trkpt lat="46.01872" lon="4.70691">
        <ele>185</ele>
        <time>2018-03-04T10:05:58Z</time>
      </trkpt>
      <trkpt lat="46.0188" lon="4.70691">
        <ele>185</ele>
        <time>2018-03-04T10:05:59Z</time>
      </trkpt>
      <trkpt lat="46.01888" lon="4.70691">
        <ele>184</ele>
        <time>2018-03-04T10:06:00Z</time>
      </trkpt>
      <trkpt lat="46.01897" lon="4.7069">
        <ele>184</ele>
        <time>2018-03-04T10:06:01Z</time>
      </trkpt>
      <trkpt lat="46.01904" lon="4.7069">
        <ele>184</ele>
        <time>2018-03-04T10:06:02Z</time>
      </trkpt>
      <trkpt lat="46.01913" lon="4.70692">
        <ele>184</ele>
        <time>2018-03-04T10:06:03Z</time>
      </trkpt>
      <trkpt lat="46.01921" lon="4.70694">
        <ele>182</ele>
        <time>2018-03-04T10:06:04Z</time>
      </trkpt>
      <trkpt lat="46.01929" lon="4.70695">
        <ele>182</ele>
        <time>2018-03-04T10:06:05Z</time>
      </trkpt>
      <trkpt lat="46.01937" lon="4.70696">
        <ele>182</ele>
        <time>2018-03-04T10:06:06Z</time>
      </trkpt>
      <trkpt lat="46.01944" lon="4.70697">
        <ele>182</ele>
        <time>2018-03-04T10:06:07Z</time>
      </trkpt>
      <trkpt lat="46.01952" lon="4.70699">
        <ele>181</ele>
        <time>2018-03-04T10:06:08Z</time>
      </trkpt>
      <trkpt lat="46.0196" lon="4.70699">
        <ele>181</ele>
        <time>2018-03-04T10:06:09Z</time>
      </trkpt>
      <trkpt lat="46.01968" lon="4.707">
        <ele>181</ele>
        <time>2018-03-04T10:06:10Z</time>
      </trkpt>
      <trkpt lat="46.01975" lon="4.70702">
        <ele>181</ele>
        <time>2018-03-04T10:06:11Z</time>
      </trkpt>
      <trkpt lat="46.01982" lon="4.70704">
        <ele>181</ele>
        <time>2018-03-04T10:06:12Z</time>
      </trkpt>
      <trkpt lat="46.0199" lon="4.70705">
        <ele>181</ele>
        <time>2018-03-04T10:06:13Z</time>
      </trkpt>
      <trkpt lat="46.01997" lon="4.70707">
        <ele>181</ele>
        <time>2018-03-04T10:06:14Z</time>
      </trkpt>
      <trkpt lat="46.02004" lon="4.70707">
        <ele>179</ele>
        <time>2018-03-04T10:06:15Z</time>
      </trkpt>
      <trkpt lat="46.02011" lon="4.70709">
        <ele>179</ele>
        <time>2018-03-04T10:06:16Z</time>
      </trkpt>
      <trkpt lat="46.02019" lon="4.7071">
        <ele>179</ele>
        <time>2018-03-04T10:06:17Z</time>
      </trkpt>
      <trkpt lat="46.02027" lon="4.70712">
        <ele>179</ele>
        <time>2018-03-04T10:06:18Z</time>
      </trkpt>
      <trkpt lat="46.02034" lon="4.70713">
        <ele>179</ele>
        <time>2018-03-04T10:06:19Z</time>
      </trkpt>
      <trkpt lat="46.02042" lon="4.70714">
        <ele>179</ele>
        <time>2018-03-04T10:06:20Z</time>
      </trkpt>
      <trkpt lat="46.0205" lon="4.70716">
        <ele>179</ele>
        <time>2018-03-04T10:06:21Z</time>
      </trkpt>
      <trkpt lat="46.02058" lon="4.70718">
        <ele>179</ele>
        <time>2018-03-04T10:06:22Z</time>
      </trkpt>
      <trkpt lat="46.02066" lon="4.7072">
        <ele>179</ele>
        <time>2018-03-04T10:06:23Z</time>
      </trkpt>
      <trkpt lat="46.02074" lon="4.70721">
        <ele>179</ele>
        <time>2018-03-04T10:06:24Z</time>
      </trkpt>
      <trkpt lat="46.02082" lon="4.70723">
        <ele>178</ele>
        <time>2018-03-04T10:06:25Z</time>
      </trkpt>
      <trkpt lat="46.0209" lon="4.70725">
        <ele>178</ele>
        <time>2018-03-04T10:06:26Z</time>
      </trkpt>
      <trkpt lat="46.02097" lon="4.70727">
        <ele>178</ele>
        <time>2018-03-04T10:06:27Z</time>
      </trkpt>
      <trkpt lat="46.02104" lon="4.70728">
        <ele>178</ele>
        <time>2018-03-04T10:06:28Z</time>
      </trkpt>
      <trkpt lat="46.02112" lon="4.70731">
        <ele>179</ele>
        <time>2018-03-04T10:06:29Z</time>
      </trkpt>
      <trkpt lat="46.0212" lon="4.70733">
        <ele>179</ele>
        <time>2018-03-04T10:06:30Z</time>
      </trkpt>
      <trkpt lat="46.02128" lon="4.70734">
        <ele>179</ele>
        <time>2018-03-04T10:06:31Z</time>
      </trkpt>
      <trkpt lat="46.02135" lon="4.70735">
        <ele>179</ele>
        <time>2018-03-04T10:06:32Z</time>
      </trkpt>
      <trkpt lat="46.02142" lon="4.70737">
        <ele>179</ele>
        <time>2018-03-04T10:06:33Z</time>
      </trkpt>
      <trkpt lat="46.02148" lon="4.70738">
        <ele>179</ele>
        <time>2018-03-04T10:06:34Z</time>
      </trkpt>
      <trkpt lat="46.02155" lon="4.70738">
        <ele>179</ele>
        <time>2018-03-04T10:06:35Z</time>
      </trkpt>
      <trkpt lat="46.02161" lon="4.70739">
        <ele>179</ele>
        <time>2018-03-04T10:06:36Z</time>
      </trkpt>
      <trkpt lat="46.02167" lon="4.7074">
        <ele>179</ele>
        <time>2018-03-04T10:06:37Z</time>
      </trkpt>
      <trkpt lat="46.02174" lon="4.70741">
        <ele>180</ele>
        <time>2018-03-04T10:06:38Z</time>
      </trkpt>
      <trkpt lat="46.0218" lon="4.70743">
        <ele>180</ele>
        <time>2018-03-04T10:06:39Z</time>
      </trkpt>
      <trkpt lat="46.02187" lon="4.70744">
        <ele>180</ele>
        <time>2018-03-04T10:06:40Z</time>
      </trkpt>
      <trkpt lat="46.02193" lon="4.70746">
        <ele>180</ele>
        <time>2018-03-04T10:06:41Z</time>
      </trkpt>
      <trkpt lat="46.022" lon="4.70747">
        <ele>180</ele>
        <time>2018-03-04T10:06:42Z</time>
      </trkpt>
      <trkpt lat="46.02207" lon="4.70749">
        <ele>180</ele>
        <time>2018-03-04T10:06:43Z</time>
      </trkpt>
      <trkpt lat="46.02214" lon="4.70749">
        <ele>180</ele>
        <time>2018-03-04T10:06:44Z</time>
      </trkpt>
      <trkpt lat="46.02221" lon="4.70751">
        <ele>180</ele>
        <time>2018-03-04T10:06:45Z</time>
      </trkpt>
      <trkpt lat="46.02228" lon="4.70752">
        <ele>180</ele>
        <time>2018-03-04T10:06:46Z</time>
      </trkpt>
      <trkpt lat="46.02234" lon="4.70754">
        <ele>180</ele>
        <time>2018-03-04T10:06:47Z</time>
      </trkpt>
      <trkpt lat="46.02241" lon="4.70755">
        <ele>180</ele>
        <time>2018-03-04T10:06:48Z</time>
      </trkpt>
      <trkpt lat="46.02248" lon="4.70757">
        <ele>181</ele>
        <time>2018-03-04T10:06:49Z</time>
      </trkpt>
      <trkpt lat="46.02255" lon="4.70758">
        <ele>181</ele>
        <time>2018-03-04T10:06:50Z</time>
      </trkpt>
      <trkpt lat="46.02261" lon="4.70759">
        <ele>181</ele>
        <time>2018-03-04T10:06:51Z</time>
      </trkpt>
      <trkpt lat="46.02268" lon="4.70761">
        <ele>181</ele>
        <time>2018-03-04T10:06:52Z</time>
      </trkpt>
      <trkpt lat="46.02274" lon="4.70762">
        <ele>181</ele>
        <time>2018-03-04T10:06:53Z</time>
      </trkpt>
      <trkpt lat="46.02281" lon="4.70764">
        <ele>181</ele>
        <time>2018-03-04T10:06:54Z</time>
      </trkpt>
      <trkpt lat="46.02287" lon="4.70765">
        <ele>181</ele>
        <time>2018-03-04T10:06:55Z</time>
      </trkpt>
      <trkpt lat="46.02293" lon="4.70766">
        <ele>180</ele>
        <time>2018-03-04T10:06:56Z</time>
      </trkpt>
      <trkpt lat="46.02299" lon="4.70767">
        <ele>180</ele>
        <time>2018-03-04T10:06:57Z</time>
      </trkpt>
      <trkpt lat="46.02304" lon="4.70769">
        <ele>180</ele>
        <time>2018-03-04T10:06:58Z</time>
      </trkpt>
      <trkpt lat="46.0231" lon="4.7077">
        <ele>180</ele>
        <time>2018-03-04T10:06:59Z</time>
      </trkpt>
      <trkpt lat="46.02316" lon="4.70771">
        <ele>180</ele>
        <time>2018-03-04T10:07:00Z</time>
      </trkpt>
      <trkpt lat="46.02322" lon="4.70772">
        <ele>180</ele>
        <time>2018-03-04T10:07:01Z</time>
      </trkpt>
      <trkpt lat="46.02326" lon="4.70774">
        <ele>180</ele>
        <time>2018-03-04T10:07:02Z</time>
      </trkpt>
      <trkpt lat="46.02332" lon="4.70775">
        <ele>180</ele>
        <time>2018-03-04T10:07:03Z</time>
      </trkpt>
      <trkpt lat="46.02337" lon="4.70776">
        <ele>182</ele>
        <time>2018-03-04T10:07:04Z</time>
      </trkpt>
      <trkpt lat="46.02342" lon="4.70777">
        <ele>182</ele>
        <time>2018-03-04T10:07:05Z</time>
      </trkpt>
      <trkpt lat="46.02347" lon="4.70778">
        <ele>183</ele>
        <time>2018-03-04T10:07:06Z</time>
      </trkpt>
      <trkpt lat="46.02353" lon="4.70778">
        <ele>183</ele>
        <time>2018-03-04T10:07:07Z</time>
      </trkpt>
      <trkpt lat="46.02358" lon="4.70779">
        <ele>183</ele>
        <time>2018-03-04T10:07:08Z</time>
      </trkpt>
      <trkpt lat="46.02364" lon="4.70778">
        <ele>183</ele>
        <time>2018-03-04T10:07:09Z</time>
      </trkpt>
      <trkpt lat="46.02368" lon="4.70779">
        <ele>183</ele>
        <time>2018-03-04T10:07:10Z</time>
      </trkpt>
      <trkpt lat="46.02374" lon="4.70779">
        <ele>184</ele>
        <time>2018-03-04T10:07:11Z</time>
      </trkpt>
      <trkpt lat="46.02378" lon="4.7078">
        <ele>184</ele>
        <time>2018-03-04T10:07:12Z</time>
      </trkpt>
      <trkpt lat="46.02383" lon="4.70781">
        <ele>184</ele>
        <time>2018-03-04T10:07:13Z</time>
      </trkpt>
      <trkpt lat="46.02387" lon="4.70783">
        <ele>184</ele>
        <time>2018-03-04T10:07:14Z</time>
      </trkpt>
      <trkpt lat="46.02395" lon="4.70784">
        <ele>185</ele>
        <time>2018-03-04T10:07:16Z</time>
      </trkpt>
      <trkpt lat="46.024" lon="4.70784">
        <ele>185</ele>
        <time>2018-03-04T10:07:17Z</time>
      </trkpt>
      <trkpt lat="46.02408" lon="4.70781">
        <ele>185</ele>
        <time>2018-03-04T10:07:19Z</time>
      </trkpt>
      <trkpt lat="46.02413" lon="4.70781">
        <ele>185</ele>
        <time>2018-03-04T10:07:20Z</time>
      </trkpt>
      <trkpt lat="46.02421" lon="4.70778">
        <ele>189</ele>
        <time>2018-03-04T10:07:22Z</time>
      </trkpt>
      <trkpt lat="46.02426" lon="4.70779">
        <ele>189</ele>
        <time>2018-03-04T10:07:23Z</time>
      </trkpt>
      <trkpt lat="46.02432" lon="4.70778">
        <ele>189</ele>
        <time>2018-03-04T10:07:25Z</time>
      </trkpt>
      <trkpt lat="46.02436" lon="4.70773">
        <ele>189</ele>
        <time>2018-03-04T10:07:26Z</time>
      </trkpt>
      <trkpt lat="46.0244" lon="4.70762">
        <ele>189</ele>
        <time>2018-03-04T10:07:28Z</time>
      </trkpt>
      <trkpt lat="46.02442" lon="4.70756">
        <ele>189</ele>
        <time>2018-03-04T10:07:29Z</time>
      </trkpt>
      <trkpt lat="46.02445" lon="4.7075">
        <ele>190</ele>
        <time>2018-03-04T10:07:30Z</time>
      </trkpt>
      <trkpt lat="46.02448" lon="4.70744">
        <ele>190</ele>
        <time>2018-03-04T10:07:31Z</time>
      </trkpt>
      <trkpt lat="46.0245" lon="4.70738">
        <ele>190</ele>
        <time>2018-03-04T10:07:32Z</time>
      </trkpt>
      <trkpt lat="46.02451" lon="4.70731">
        <ele>190</ele>
        <time>2018-03-04T10:07:33Z</time>
      </trkpt>
      <trkpt lat="46.02453" lon="4.70724">
        <ele>190</ele>
        <time>2018-03-04T10:07:34Z</time>
      </trkpt>
      <trkpt lat="46.02454" lon="4.70716">
        <ele>190</ele>
        <time>2018-03-04T10:07:35Z</time>
      </trkpt>
      <trkpt lat="46.02456" lon="4.70709">
        <ele>190</ele>
        <time>2018-03-04T10:07:36Z</time>
      </trkpt>
      <trkpt lat="46.02457" lon="4.70702">
        <ele>190</ele>
        <time>2018-03-04T10:07:37Z</time>
      </trkpt>
      <trkpt lat="46.02459" lon="4.70695">
        <ele>190</ele>
        <time>2018-03-04T10:07:38Z</time>
      </trkpt>
      <trkpt lat="46.0246" lon="4.70687">
        <ele>190</ele>
        <time>2018-03-04T10:07:39Z</time>
      </trkpt>
      <trkpt lat="46.02462" lon="4.7068">
        <ele>190</ele>
        <time>2018-03-04T10:07:40Z</time>
      </trkpt>
      <trkpt lat="46.02464" lon="4.70672">
        <ele>190</ele>
        <time>2018-03-04T10:07:41Z</time>
      </trkpt>
      <trkpt lat="46.02465" lon="4.70664">
        <ele>189</ele>
        <time>2018-03-04T10:07:42Z</time>
      </trkpt>
      <trkpt lat="46.02467" lon="4.70655">
        <ele>189</ele>
        <time>2018-03-04T10:07:43Z</time>
      </trkpt>
      <trkpt lat="46.02469" lon="4.70647">
        <ele>188</ele>
        <time>2018-03-04T10:07:44Z</time>
      </trkpt>
      <trkpt lat="46.02471" lon="4.70638">
        <ele>188</ele>
        <time>2018-03-04T10:07:45Z</time>
      </trkpt>
      <trkpt lat="46.02473" lon="4.7063">
        <ele>188</ele>
        <time>2018-03-04T10:07:46Z</time>
      </trkpt>
      <trkpt lat="46.02474" lon="4.70623">
        <ele>188</ele>
        <time>2018-03-04T10:07:47Z</time>
      </trkpt>
      <trkpt lat="46.02482" lon="4.70621">
        <ele>188</ele>
        <time>2018-03-04T10:07:48Z</time>
      </trkpt>
      <trkpt lat="46.02487" lon="4.7062">
        <ele>188</ele>
        <time>2018-03-04T10:07:49Z</time>
      </trkpt>
      <trkpt lat="46.02493" lon="4.70621">
        <ele>188</ele>
        <time>2018-03-04T10:07:50Z</time>
      </trkpt>
      <trkpt lat="46.02499" lon="4.70622">
        <ele>188</ele>
        <time>2018-03-04T10:07:51Z</time>
      </trkpt>
      <trkpt lat="46.02504" lon="4.70624">
        <ele>189</ele>
        <time>2018-03-04T10:07:52Z</time>
      </trkpt>
      <trkpt lat="46.02509" lon="4.70626">
        <ele>189</ele>
        <time>2018-03-04T10:07:53Z</time>
      </trkpt>
      <trkpt lat="46.02514" lon="4.70628">
        <ele>189</ele>
        <time>2018-03-04T10:07:54Z</time>
      </trkpt>
      <trkpt lat="46.0252" lon="4.7063">
        <ele>189</ele>
        <time>2018-03-04T10:07:55Z</time>
      </trkpt>
      <trkpt lat="46.02525" lon="4.70631">
        <ele>189</ele>
        <time>2018-03-04T10:07:56Z</time>
      </trkpt>
      <trkpt lat="46.02531" lon="4.70632">
        <ele>189</ele>
        <time>2018-03-04T10:07:57Z</time>
      </trkpt>
      <trkpt lat="46.02536" lon="4.70634">
        <ele>189</ele>
        <time>2018-03-04T10:07:58Z</time>
      </trkpt>
      <trkpt lat="46.02542" lon="4.70636">
        <ele>189</ele>
        <time>2018-03-04T10:07:59Z</time>
      </trkpt>
      <trkpt lat="46.02548" lon="4.70636">
        <ele>189</ele>
        <time>2018-03-04T10:08:00Z</time>
      </trkpt>
      <trkpt lat="46.02553" lon="4.70638">
        <ele>189</ele>
        <time>2018-03-04T10:08:01Z</time>
      </trkpt>
      <trkpt lat="46.02559" lon="4.70639">
        <ele>189</ele>
        <time>2018-03-04T10:08:02Z</time>
      </trkpt>
      <trkpt lat="46.02565" lon="4.7064">
        <ele>189</ele>
        <time>2018-03-04T10:08:03Z</time>
      </trkpt>
      <trkpt lat="46.02571" lon="4.70641">
        <ele>189</ele>
        <time>2018-03-04T10:08:04Z</time>
      </trkpt>
      <trkpt lat="46.02576" lon="4.70641">
        <ele>190</ele>
        <time>2018-03-04T10:08:05Z</time>
      </trkpt>
      <trkpt lat="46.02582" lon="4.70643">
        <ele>190</ele>
        <time>2018-03-04T10:08:06Z</time>
      </trkpt>
      <trkpt lat="46.02588" lon="4.70644">
        <ele>190</ele>
        <time>2018-03-04T10:08:07Z</time>
      </trkpt>
      <trkpt lat="46.02593" lon="4.70645">
        <ele>190</ele>
        <time>2018-03-04T10:08:08Z</time>
      </trkpt>
      <trkpt lat="46.02599" lon="4.70647">
        <ele>190</ele>
        <time>2018-03-04T10:08:09Z</time>
      </trkpt>
      <trkpt lat="46.02604" lon="4.70648">
        <ele>190</ele>
        <time>2018-03-04T10:08:10Z</time>
      </trkpt>
      <trkpt lat="46.0261" lon="4.70649">
        <ele>190</ele>
        <time>2018-03-04T10:08:11Z</time>
      </trkpt>
      <trkpt lat="46.02615" lon="4.70651">
        <ele>190</ele>
        <time>2018-03-04T10:08:12Z</time>
      </trkpt>
      <trkpt lat="46.02621" lon="4.70652">
        <ele>190</ele>
        <time>2018-03-04T10:08:13Z</time>
      </trkpt>
      <trkpt lat="46.02627" lon="4.70652">
        <ele>190</ele>
        <time>2018-03-04T10:08:14Z</time>
      </trkpt>
      <trkpt lat="46.02633" lon="4.70653">
        <ele>190</ele>
        <time>2018-03-04T10:08:15Z</time>
      </trkpt>
      <trkpt lat="46.02639" lon="4.70654">
        <ele>190</ele>
        <time>2018-03-04T10:08:16Z</time>
      </trkpt>
      <trkpt lat="46.02645" lon="4.70652">
        <ele>190</ele>
        <time>2018-03-04T10:08:17Z</time>
      </trkpt>
      <trkpt lat="46.02651" lon="4.70653">
        <ele>190</ele>
        <time>2018-03-04T10:08:18Z</time>
      </trkpt>
      <trkpt lat="46.02657" lon="4.70654">
        <ele>190</ele>
        <time>2018-03-04T10:08:19Z</time>
      </trkpt>
      <trkpt lat="46.02663" lon="4.70656">
        <ele>190</ele>
        <time>2018-03-04T10:08:20Z</time>
      </trkpt>
      <trkpt lat="46.02669" lon="4.70657">
        <ele>190</ele>
        <time>2018-03-04T10:08:21Z</time>
      </trkpt>
      <trkpt lat="46.02674" lon="4.70658">
        <ele>190</ele>
        <time>2018-03-04T10:08:22Z</time>
      </trkpt>
      <trkpt lat="46.0268" lon="4.70659">
        <ele>190</ele>
        <time>2018-03-04T10:08:23Z</time>
      </trkpt>
      <trkpt lat="46.02686" lon="4.70659">
        <ele>190</ele>
        <time>2018-03-04T10:08:24Z</time>
      </trkpt>
      <trkpt lat="46.02692" lon="4.7066">
        <ele>189</ele>
        <time>2018-03-04T10:08:25Z</time>
      </trkpt>
      <trkpt lat="46.02698" lon="4.70659">
        <ele>189</ele>
        <time>2018-03-04T10:08:26Z</time>
      </trkpt>
      <trkpt lat="46.02704" lon="4.7066">
        <ele>189</ele>
        <time>2018-03-04T10:08:27Z</time>
      </trkpt>
      <trkpt lat="46.02709" lon="4.70661">
        <ele>189</ele>
        <time>2018-03-04T10:08:28Z</time>
      </trkpt>
      <trkpt lat="46.02715" lon="4.70663">
        <ele>189</ele>
        <time>2018-03-04T10:08:29Z</time>
      </trkpt>
      <trkpt lat="46.02722" lon="4.70663">
        <ele>189</ele>
        <time>2018-03-04T10:08:30Z</time>
      </trkpt>
      <trkpt lat="46.02728" lon="4.70665">
        <ele>189</ele>
        <time>2018-03-04T10:08:31Z</time>
      </trkpt>
      <trkpt lat="46.02734" lon="4.70665">
        <ele>189</ele>
        <time>2018-03-04T10:08:32Z</time>
      </trkpt>
      <trkpt lat="46.02739" lon="4.70666">
        <ele>189</ele>
        <time>2018-03-04T10:08:33Z</time>
      </trkpt>
      <trkpt lat="46.02745" lon="4.70666">
        <ele>189</ele>
        <time>2018-03-04T10:08:34Z</time>
      </trkpt>
      <trkpt lat="46.0275" lon="4.70668">
        <ele>189</ele>
        <time>2018-03-04T10:08:35Z</time>
      </trkpt>
      <trkpt lat="46.02755" lon="4.7067">
        <ele>189</ele>
        <time>2018-03-04T10:08:36Z</time>
      </trkpt>
      <trkpt lat="46.02761" lon="4.7067">
        <ele>189</ele>
        <time>2018-03-04T10:08:37Z</time>
      </trkpt>
      <trkpt lat="46.02767" lon="4.70671">
        <ele>189</ele>
        <time>2018-03-04T10:08:38Z</time>
      </trkpt>
      <trkpt lat="46.02773" lon="4.70671">
        <ele>189</ele>
        <time>2018-03-04T10:08:39Z</time>
      </trkpt>
      <trkpt lat="46.02779" lon="4.70672">
        <ele>189</ele>
        <time>2018-03-04T10:08:40Z</time>
      </trkpt>
      <trkpt lat="46.02786" lon="4.70671">
        <ele>189</ele>
        <time>2018-03-04T10:08:41Z</time>
      </trkpt>
      <trkpt lat="46.02791" lon="4.70671">
        <ele>189</ele>
        <time>2018-03-04T10:08:42Z</time>
      </trkpt>
      <trkpt lat="46.02798" lon="4.70672">
        <ele>189</ele>
        <time>2018-03-04T10:08:43Z</time>
      </trkpt>
      <trkpt lat="46.02804" lon="4.70671">
        <ele>189</ele>
        <time>2018-03-04T10:08:44Z</time>
      </trkpt>
      <trkpt lat="46.0281" lon="4.7067">
        <ele>189</ele>
        <time>2018-03-04T10:08:45Z</time>
      </trkpt>
      <trkpt lat="46.02816" lon="4.70669">
        <ele>189</ele>
        <time>2018-03-04T10:08:46Z</time>
      </trkpt>
      <trkpt lat="46.02823" lon="4.70668">
        <ele>189</ele>
        <time>2018-03-04T10:08:47Z</time>
      </trkpt>
      <trkpt lat="46.02829" lon="4.70666">
        <ele>189</ele>
        <time>2018-03-04T10:08:48Z</time>
      </trkpt>
      <trkpt lat="46.02836" lon="4.70665">
        <ele>189</ele>
        <time>2018-03-04T10:08:49Z</time>
      </trkpt>
      <trkpt lat="46.02842" lon="4.70663">
        <ele>189</ele>
        <time>2018-03-04T10:08:50Z</time>
      </trkpt>
      <trkpt lat="46.02848" lon="4.70661">
        <ele>190</ele>
        <time>2018-03-04T10:08:51Z</time>
      </trkpt>
      <trkpt lat="46.02854" lon="4.7066">
        <ele>190</ele>
        <time>2018-03-04T10:08:52Z</time>
      </trkpt>
      <trkpt lat="46.02861" lon="4.70659">
        <ele>190</ele>
        <time>2018-03-04T10:08:53Z</time>
      </trkpt>
      <trkpt lat="46.02867" lon="4.70658">
        <ele>190</ele>
        <time>2018-03-04T10:08:54Z</time>
      </trkpt>
      <trkpt lat="46.02873" lon="4.70657">
        <ele>190</ele>
        <time>2018-03-04T10:08:55Z</time>
      </trkpt>
      <trkpt lat="46.02879" lon="4.70657">
        <ele>190</ele>
        <time>2018-03-04T10:08:56Z</time>
      </trkpt>
      <trkpt lat="46.02885" lon="4.70658">
        <ele>190</ele>
        <time>2018-03-04T10:08:57Z</time>
      </trkpt>
      <trkpt lat="46.02891" lon="4.70658">
        <ele>190</ele>
        <time>2018-03-04T10:08:58Z</time>
      </trkpt>
      <trkpt lat="46.02897" lon="4.70658">
        <ele>191</ele>
        <time>2018-03-04T10:08:59Z</time>
      </trkpt>
      <trkpt lat="46.02903" lon="4.70658">
        <ele>191</ele>
        <time>2018-03-04T10:09:00Z</time>
      </trkpt>
      <trkpt lat="46.02908" lon="4.70658">
        <ele>191</ele>
        <time>2018-03-04T10:09:01Z</time>
      </trkpt>
      <trkpt lat="46.02914" lon="4.70656">
        <ele>191</ele>
        <time>2018-03-04T10:09:02Z</time>
      </trkpt>
      <trkpt lat="46.0292" lon="4.70653">
        <ele>191</ele>
        <time>2018-03-04T10:09:03Z</time>
      </trkpt>
      <trkpt lat="46.02924" lon="4.70649">
        <ele>192</ele>
        <time>2018-03-04T10:09:04Z</time>
      </trkpt>
      <trkpt lat="46.02928" lon="4.70643">
        <ele>192</ele>
        <time>2018-03-04T10:09:05Z</time>
      </trkpt>
      <trkpt lat="46.02929" lon="4.70634">
        <ele>192</ele>
        <time>2018-03-04T10:09:06Z</time>
      </trkpt>
      <trkpt lat="46.02932" lon="4.70626">
        <ele>192</ele>
        <time>2018-03-04T10:09:07Z</time>
      </trkpt>
      <trkpt lat="46.02933" lon="4.70618">
        <ele>192</ele>
        <time>2018-03-04T10:09:08Z</time>
      </trkpt>
      <trkpt lat="46.02935" lon="4.7061">
        <ele>192</ele>
        <time>2018-03-04T10:09:09Z</time>
      </trkpt>
      <trkpt lat="46.02938" lon="4.70601">
        <ele>192</ele>
        <time>2018-03-04T10:09:10Z</time>
      </trkpt>
      <trkpt lat="46.0294" lon="4.70593">
        <ele>192</ele>
        <time>2018-03-04T10:09:11Z</time>
      </trkpt>
      <trkpt lat="46.02942" lon="4.70585">
        <ele>192</ele>
        <time>2018-03-04T10:09:12Z</time>
      </trkpt>
      <trkpt lat="46.02945" lon="4.70578">
        <ele>191</ele>
        <time>2018-03-04T10:09:13Z</time>
      </trkpt>
      <trkpt lat="46.02948" lon="4.7057">
        <ele>191</ele>
        <time>2018-03-04T10:09:14Z</time>
      </trkpt>
      <trkpt lat="46.02952" lon="4.70563">
        <ele>191</ele>
        <time>2018-03-04T10:09:15Z</time>
      </trkpt>
      <trkpt lat="46.02956" lon="4.70556">
        <ele>191</ele>
        <time>2018-03-04T10:09:16Z</time>
      </trkpt>
      <trkpt lat="46.02961" lon="4.70549">
        <ele>191</ele>
        <time>2018-03-04T10:09:17Z</time>
      </trkpt>
      <trkpt lat="46.02966" lon="4.70543">
        <ele>191</ele>
        <time>2018-03-04T10:09:18Z</time>
      </trkpt>
      <trkpt lat="46.02971" lon="4.70538">
        <ele>191</ele>
        <time>2018-03-04T10:09:19Z</time>
      </trkpt>
      <trkpt lat="46.02976" lon="4.70533">
        <ele>191</ele>
        <time>2018-03-04T10:09:20Z</time>
      </trkpt>
      <trkpt lat="46.02981" lon="4.70529">
        <ele>191</ele>
        <time>2018-03-04T10:09:21Z</time>
      </trkpt>
      <trkpt lat="46.02986" lon="4.70523">
        <ele>191</ele>
        <time>2018-03-04T10:09:22Z</time>
      </trkpt>
      <trkpt lat="46.02992" lon="4.70519">
        <ele>191</ele>
        <time>2018-03-04T10:09:23Z</time>
      </trkpt>
      <trkpt lat="46.02998" lon="4.70514">
        <ele>191</ele>
        <time>2018-03-04T10:09:24Z</time>
      </trkpt>
      <trkpt lat="46.03003" lon="4.70509">
        <ele>191</ele>
        <time>2018-03-04T10:09:25Z</time>
      </trkpt>
      <trkpt lat="46.03008" lon="4.70504">
        <ele>191</ele>
        <time>2018-03-04T10:09:26Z</time>
      </trkpt>
      <trkpt lat="46.03014" lon="4.70499">
        <ele>191</ele>
        <time>2018-03-04T10:09:27Z</time>
      </trkpt>
      <trkpt lat="46.03019" lon="4.70494">
        <ele>191</ele>
        <time>2018-03-04T10:09:28Z</time>
      </trkpt>
      <trkpt lat="46.03024" lon="4.70489">
        <ele>191</ele>
        <time>2018-03-04T10:09:29Z</time>
      </trkpt>
      <trkpt lat="46.0303" lon="4.70484">
        <ele>191</ele>
        <time>2018-03-04T10:09:30Z</time>
      </trkpt>
      <trkpt lat="46.03035" lon="4.7048">
        <ele>191</ele>
        <time>2018-03-04T10:09:31Z</time>
      </trkpt>
      <trkpt lat="46.0304" lon="4.70476">
        <ele>191</ele>
        <time>2018-03-04T10:09:32Z</time>
      </trkpt>
      <trkpt lat="46.03045" lon="4.70472">
        <ele>191</ele>
        <time>2018-03-04T10:09:33Z</time>
      </trkpt>
      <trkpt lat="46.03051" lon="4.70467">
        <ele>191</ele>
        <time>2018-03-04T10:09:34Z</time>
      </trkpt>
      <trkpt lat="46.03056" lon="4.70463">
        <ele>191</ele>
        <time>2018-03-04T10:09:35Z</time>
      </trkpt>
      <trkpt lat="46.03061" lon="4.70458">
        <ele>191</ele>
        <time>2018-03-04T10:09:36Z</time>
      </trkpt>
      <trkpt lat="46.03066" lon="4.70453">
        <ele>191</ele>
        <time>2018-03-04T10:09:37Z</time>
      </trkpt>
      <trkpt lat="46.03073" lon="4.70448">
        <ele>191</ele>
        <time>2018-03-04T10:09:38Z</time>
      </trkpt>
      <trkpt lat="46.03078" lon="4.70445">
        <ele>191</ele>
        <time>2018-03-04T10:09:39Z</time>
      </trkpt>
      <trkpt lat="46.03084" lon="4.70441">
        <ele>192</ele>
        <time>2018-03-04T10:09:40Z</time>
      </trkpt>
      <trkpt lat="46.03089" lon="4.70437">
        <ele>192</ele>
        <time>2018-03-04T10:09:41Z</time>
      </trkpt>
      <trkpt lat="46.03095" lon="4.70435">
        <ele>192</ele>
        <time>2018-03-04T10:09:42Z</time>
      </trkpt>
      <trkpt lat="46.03101" lon="4.70432">
        <ele>192</ele>
        <time>2018-03-04T10:09:43Z</time>
      </trkpt>
      <trkpt lat="46.03107" lon="4.7043">
        <ele>192</ele>
        <time>2018-03-04T10:09:44Z</time>
      </trkpt>
      <trkpt lat="46.03112" lon="4.70428">
        <ele>192</ele>
        <time>2018-03-04T10:09:45Z</time>
      </trkpt>
      <trkpt lat="46.03118" lon="4.70425">
        <ele>192</ele>
        <time>2018-03-04T10:09:46Z</time>
      </trkpt>
      <trkpt lat="46.03124" lon="4.70422">
        <ele>192</ele>
        <time>2018-03-04T10:09:47Z</time>
      </trkpt>
      <trkpt lat="46.0313" lon="4.70419">
        <ele>192</ele>
        <time>2018-03-04T10:09:48Z</time>
      </trkpt>
      <trkpt lat="46.03136" lon="4.70416">
        <ele>192</ele>
        <time>2018-03-04T10:09:49Z</time>
      </trkpt>
      <trkpt lat="46.03142" lon="4.70413">
        <ele>192</ele>
        <time>2018-03-04T10:09:50Z</time>
      </trkpt>
      <trkpt lat="46.03148" lon="4.7041">
        <ele>192</ele>
        <time>2018-03-04T10:09:51Z</time>
      </trkpt>
      <trkpt lat="46.03155" lon="4.70407">
        <ele>192</ele>
        <time>2018-03-04T10:09:52Z</time>
      </trkpt>
      <trkpt lat="46.03161" lon="4.70404">
        <ele>192</ele>
        <time>2018-03-04T10:09:53Z</time>
      </trkpt>
      <trkpt lat="46.03167" lon="4.70401">
        <ele>192</ele>
        <time>2018-03-04T10:09:54Z</time>
      </trkpt>
      <trkpt lat="46.03173" lon="4.70397">
        <ele>192</ele>
        <time>2018-03-04T10:09:55Z</time>
      </trkpt>
      <trkpt lat="46.03179" lon="4.70394">
        <ele>192</ele>
        <time>2018-03-04T10:09:56Z</time>
      </trkpt>
      <trkpt lat="46.03185" lon="4.70391">
        <ele>192</ele>
        <time>2018-03-04T10:09:57Z</time>
      </trkpt>
      <trkpt lat="46.03192" lon="4.70388">
        <ele>192</ele>
        <time>2018-03-04T10:09:58Z</time>
      </trkpt>
      <trkpt lat="46.03198" lon="4.70384">
        <ele>192</ele>
        <time>2018-03-04T10:09:59Z</time>
      </trkpt>
      <trkpt lat="46.03205" lon="4.70381">
        <ele>192</ele>
        <time>2018-03-04T10:10:00Z</time>
      </trkpt>
      <trkpt lat="46.03211" lon="4.70378">
        <ele>192</ele>
        <time>2018-03-04T10:10:01Z</time>
      </trkpt>
      <trkpt lat="46.03218" lon="4.70375">
        <ele>192</ele>
        <time>2018-03-04T10:10:02Z</time>
      </trkpt>
      <trkpt lat="46.03224" lon="4.70373">
        <ele>192</ele>
        <time>2018-03-04T10:10:03Z</time>
      </trkpt>
      <trkpt lat="46.03231" lon="4.70369">
        <ele>192</ele>
        <time>2018-03-04T10:10:04Z</time>
      </trkpt>
      <trkpt lat="46.03237" lon="4.70367">
        <ele>192</ele>
        <time>2018-03-04T10:10:05Z</time>
      </trkpt>
      <trkpt lat="46.03243" lon="4.70362">
        <ele>192</ele>
        <time>2018-03-04T10:10:06Z</time>
      </trkpt>
      <trkpt lat="46.0325" lon="4.70359">
        <ele>192</ele>
        <time>2018-03-04T10:10:07Z</time>
      </trkpt>
      <trkpt lat="46.03256" lon="4.70356">
        <ele>191</ele>
        <time>2018-03-04T10:10:08Z</time>
      </trkpt>
      <trkpt lat="46.03263" lon="4.70353">
        <ele>191</ele>
        <time>2018-03-04T10:10:09Z</time>
      </trkpt>
      <trkpt lat="46.0327" lon="4.7035">
        <ele>191</ele>
        <time>2018-03-04T10:10:10Z</time>
      </trkpt>
      <trkpt lat="46.03277" lon="4.70347">
        <ele>191</ele>
        <time>2018-03-04T10:10:11Z</time>
      </trkpt>
      <trkpt lat="46.03284" lon="4.70345">
        <ele>191</ele>
        <time>2018-03-04T10:10:12Z</time>
      </trkpt>
      <trkpt lat="46.03292" lon="4.70342">
        <ele>191</ele>
        <time>2018-03-04T10:10:13Z</time>
      </trkpt>
      <trkpt lat="46.03298" lon="4.70339">
        <ele>191</ele>
        <time>2018-03-04T10:10:14Z</time>
      </trkpt>
      <trkpt lat="46.03306" lon="4.70333">
        <ele>192</ele>
        <time>2018-03-04T10:10:15Z</time>
      </trkpt>
      <trkpt lat="46.03314" lon="4.70329">
        <ele>192</ele>
        <time>2018-03-04T10:10:16Z</time>
      </trkpt>
      <trkpt lat="46.03322" lon="4.70326">
        <ele>192</ele>
        <time>2018-03-04T10:10:17Z</time>
      </trkpt>
      <trkpt lat="46.03329" lon="4.70324">
        <ele>192</ele>
        <time>2018-03-04T10:10:18Z</time>
      </trkpt>
      <trkpt lat="46.03337" lon="4.70322">
        <ele>191</ele>
        <time>2018-03-04T10:10:19Z</time>
      </trkpt>
      <trkpt lat="46.03344" lon="4.7032">
        <ele>191</ele>
        <time>2018-03-04T10:10:20Z</time>
      </trkpt>
      <trkpt lat="46.03352" lon="4.70315">
        <ele>191</ele>
        <time>2018-03-04T10:10:21Z</time>
      </trkpt>
      <trkpt lat="46.0336" lon="4.70312">
        <ele>191</ele>
        <time>2018-03-04T10:10:22Z</time>
      </trkpt>
      <trkpt lat="46.03368" lon="4.70309">
        <ele>191</ele>
        <time>2018-03-04T10:10:23Z</time>
      </trkpt>
      <trkpt lat="46.03375" lon="4.70306">
        <ele>191</ele>
        <time>2018-03-04T10:10:24Z</time>
      </trkpt>
      <trkpt lat="46.03383" lon="4.70304">
        <ele>191</ele>
        <time>2018-03-04T10:10:25Z</time>
      </trkpt>
      <trkpt lat="46.03391" lon="4.703">
        <ele>191</ele>
        <time>2018-03-04T10:10:26Z</time>
      </trkpt>
      <trkpt lat="46.03399" lon="4.70298">
        <ele>191</ele>
        <time>2018-03-04T10:10:27Z</time>
      </trkpt>
      <trkpt lat="46.03407" lon="4.70295">
        <ele>191</ele>
        <time>2018-03-04T10:10:28Z</time>
      </trkpt>
      <trkpt lat="46.03414" lon="4.70293">
        <ele>191</ele>
        <time>2018-03-04T10:10:29Z</time>
      </trkpt>
      <trkpt lat="46.03422" lon="4.7029">
        <ele>189</ele>
        <time>2018-03-04T10:10:30Z</time>
      </trkpt>
      <trkpt lat="46.0343" lon="4.70287">
        <ele>189</ele>
        <time>2018-03-04T10:10:31Z</time>
      </trkpt>
      <trkpt lat="46.03439" lon="4.70284">
        <ele>188</ele>
        <time>2018-03-04T10:10:32Z</time>
      </trkpt>
      <trkpt lat="46.03447" lon="4.70281">
        <ele>188</ele>
        <time>2018-03-04T10:10:33Z</time>
      </trkpt>
      <trkpt lat="46.03455" lon="4.70278">
        <ele>188</ele>
        <time>2018-03-04T10:10:34Z</time>
      </trkpt>
      <trkpt lat="46.03463" lon="4.70276">
        <ele>188</ele>
        <time>2018-03-04T10:10:35Z</time>
      </trkpt>
      <trkpt lat="46.03471" lon="4.70273">
        <ele>188</ele>
        <time>2018-03-04T10:10:36Z</time>
      </trkpt>
      <trkpt lat="46.03478" lon="4.7027">
        <ele>188</ele>
        <time>2018-03-04T10:10:37Z</time>
      </trkpt>
      <trkpt lat="46.03486" lon="4.70267">
        <ele>188</ele>
        <time>2018-03-04T10:10:38Z</time>
      </trkpt>
      <trkpt lat="46.03493" lon="4.70264">
        <ele>187</ele>
        <time>2018-03-04T10:10:39Z</time>
      </trkpt>
      <trkpt lat="46.03501" lon="4.70261">
        <ele>187</ele>
        <time>2018-03-04T10:10:40Z</time>
      </trkpt>
      <trkpt lat="46.03507" lon="4.70259">
        <ele>187</ele>
        <time>2018-03-04T10:10:41Z</time>
      </trkpt>
      <trkpt lat="46.03514" lon="4.70256">
        <ele>187</ele>
        <time>2018-03-04T10:10:42Z</time>
      </trkpt>
      <trkpt lat="46.03521" lon="4.70254">
        <ele>187</ele>
        <time>2018-03-04T10:10:43Z</time>
      </trkpt>
      <trkpt lat="46.03527" lon="4.70251">
        <ele>187</ele>
        <time>2018-03-04T10:10:44Z</time>
      </trkpt>
      <trkpt lat="46.03533" lon="4.70249">
        <ele>189</ele>
        <time>2018-03-04T10:10:45Z</time>
      </trkpt>
      <trkpt lat="46.03539" lon="4.70247">
        <ele>189</ele>
        <time>2018-03-04T10:10:46Z</time>
      </trkpt>
      <trkpt lat="46.03545" lon="4.70245">
        <ele>189</ele>
        <time>2018-03-04T10:10:47Z</time>
      </trkpt>
      <trkpt lat="46.0355" lon="4.70243">
        <ele>190</ele>
        <time>2018-03-04T10:10:48Z</time>
      </trkpt>
      <trkpt lat="46.03556" lon="4.7024">
        <ele>190</ele>
        <time>2018-03-04T10:10:49Z</time>
      </trkpt>
      <trkpt lat="46.03562" lon="4.70239">
        <ele>190</ele>
        <time>2018-03-04T10:10:50Z</time>
      </trkpt>
      <trkpt lat="46.03567" lon="4.70237">
        <ele>190</ele>
        <time>2018-03-04T10:10:51Z</time>
      </trkpt>
      <trkpt lat="46.03573" lon="4.70236">
        <ele>190</ele>
        <time>2018-03-04T10:10:52Z</time>
      </trkpt>
      <trkpt lat="46.03579" lon="4.70233">
        <ele>190</ele>
        <time>2018-03-04T10:10:53Z</time>
      </trkpt>
      <trkpt lat="46.03585" lon="4.70231">
        <ele>190</ele>
        <time>2018-03-04T10:10:54Z</time>
      </trkpt>
      <trkpt lat="46.03591" lon="4.70229">
        <ele>190</ele>
        <time>2018-03-04T10:10:55Z</time>
      </trkpt>
      <trkpt lat="46.03596" lon="4.70229">
        <ele>190</ele>
        <time>2018-03-04T10:10:56Z</time>
      </trkpt>
      <trkpt lat="46.03602" lon="4.70227">
        <ele>190</ele>
        <time>2018-03-04T10:10:57Z</time>
      </trkpt>
      <trkpt lat="46.03608" lon="4.70225">
        <ele>190</ele>
        <time>2018-03-04T10:10:58Z</time>
      </trkpt>
      <trkpt lat="46.03614" lon="4.70223">
        <ele>190</ele>
        <time>2018-03-04T10:10:59Z</time>
      </trkpt>
      <trkpt lat="46.03619" lon="4.70222">
        <ele>190</ele>
        <time>2018-03-04T10:11:00Z</time>
      </trkpt>
      <trkpt lat="46.03625" lon="4.70221">
        <ele>190</ele>
        <time>2018-03-04T10:11:01Z</time>
      </trkpt>
      <trkpt lat="46.0363" lon="4.70218">
        <ele>190</ele>
        <time>2018-03-04T10:11:02Z</time>
      </trkpt>
      <trkpt lat="46.03636" lon="4.70217">
        <ele>190</ele>
        <time>2018-03-04T10:11:03Z</time>
      </trkpt>
      <trkpt lat="46.03642" lon="4.70216">
        <ele>190</ele>
        <time>2018-03-04T10:11:04Z</time>
      </trkpt>
      <trkpt lat="46.03648" lon="4.70213">
        <ele>190</ele>
        <time>2018-03-04T10:11:05Z</time>
      </trkpt>
      <trkpt lat="46.03655" lon="4.7021">
        <ele>190</ele>
        <time>2018-03-04T10:11:06Z</time>
      </trkpt>
      <trkpt lat="46.03661" lon="4.70208">
        <ele>190</ele>
        <time>2018-03-04T10:11:07Z</time>
      </trkpt>
      <trkpt lat="46.03668" lon="4.70204">
        <ele>189</ele>
        <time>2018-03-04T10:11:08Z</time>
      </trkpt>
      <trkpt lat="46.03676" lon="4.70203">
        <ele>189</ele>
        <time>2018-03-04T10:11:09Z</time>
      </trkpt>
      <trkpt lat="46.03683" lon="4.70199">
        <ele>189</ele>
        <time>2018-03-04T10:11:10Z</time>
      </trkpt>
      <trkpt lat="46.03691" lon="4.70196">
        <ele>189</ele>
        <time>2018-03-04T10:11:11Z</time>
      </trkpt>
      <trkpt lat="46.03698" lon="4.70193">
        <ele>189</ele>
        <time>2018-03-04T10:11:12Z</time>
      </trkpt>
      <trkpt lat="46.03704" lon="4.70189">
        <ele>189</ele>
        <time>2018-03-04T10:11:13Z</time>
      </trkpt>
      <trkpt lat="46.03711" lon="4.70187">
        <ele>188</ele>
        <time>2018-03-04T10:11:14Z</time>
      </trkpt>
      <trkpt lat="46.03718" lon="4.70185">
        <ele>188</ele>
        <time>2018-03-04T10:11:15Z</time>
      </trkpt>
      <trkpt lat="46.03725" lon="4.70183">
        <ele>188</ele>
        <time>2018-03-04T10:11:16Z</time>
      </trkpt>
      <trkpt lat="46.03732" lon="4.7018">
        <ele>188</ele>
        <time>2018-03-04T10:11:17Z</time>
      </trkpt>
      <trkpt lat="46.03739" lon="4.70178">
        <ele>188</ele>
        <time>2018-03-04T10:11:18Z</time>
      </trkpt>
      <trkpt lat="46.03746" lon="4.70175">
        <ele>187</ele>
        <time>2018-03-04T10:11:19Z</time>
      </trkpt>
      <trkpt lat="46.03752" lon="4.70173">
        <ele>188</ele>
        <time>2018-03-04T10:11:20Z</time>
      </trkpt>
      <trkpt lat="46.03759" lon="4.7017">
        <ele>188</ele>
        <time>2018-03-04T10:11:21Z</time>
      </trkpt>
      <trkpt lat="46.03766" lon="4.70167">
        <ele>188</ele>
        <time>2018-03-04T10:11:22Z</time>
      </trkpt>
      <trkpt lat="46.03774" lon="4.70164">
        <ele>188</ele>
        <time>2018-03-04T10:11:23Z</time>
      </trkpt>
      <trkpt lat="46.03779" lon="4.70162">
        <ele>189</ele>
        <time>2018-03-04T10:11:24Z</time>
      </trkpt>
      <trkpt lat="46.03785" lon="4.7016">
        <ele>189</ele>
        <time>2018-03-04T10:11:25Z</time>
      </trkpt>
      <trkpt lat="46.0379" lon="4.7016">
        <ele>189</ele>
        <time>2018-03-04T10:11:26Z</time>
      </trkpt>
      <trkpt lat="46.03795" lon="4.70159">
        <ele>189</ele>
        <time>2018-03-04T10:11:27Z</time>
      </trkpt>
      <trkpt lat="46.038" lon="4.70156">
        <ele>189</ele>
        <time>2018-03-04T10:11:28Z</time>
      </trkpt>
      <trkpt lat="46.03806" lon="4.70154">
        <ele>190</ele>
        <time>2018-03-04T10:11:29Z</time>
      </trkpt>
      <trkpt lat="46.03812" lon="4.70152">
        <ele>190</ele>
        <time>2018-03-04T10:11:30Z</time>
      </trkpt>
      <trkpt lat="46.03818" lon="4.70149">
        <ele>190</ele>
        <time>2018-03-04T10:11:31Z</time>
      </trkpt>
      <trkpt lat="46.03822" lon="4.70149">
        <ele>190</ele>
        <time>2018-03-04T10:11:32Z</time>
      </trkpt>
      <trkpt lat="46.03829" lon="4.70148">
        <ele>190</ele>
        <time>2018-03-04T10:11:33Z</time>
      </trkpt>
      <trkpt lat="46.03835" lon="4.70146">
        <ele>192</ele>
        <time>2018-03-04T10:11:34Z</time>
      </trkpt>
      <trkpt lat="46.0384" lon="4.70143">
        <ele>192</ele>
        <time>2018-03-04T10:11:35Z</time>
      </trkpt>
      <trkpt lat="46.03845" lon="4.70141">
        <ele>192</ele>
        <time>2018-03-04T10:11:36Z</time>
      </trkpt>
      <trkpt lat="46.03851" lon="4.70139">
        <ele>193</ele>
        <time>2018-03-04T10:11:37Z</time>
      </trkpt>
      <trkpt lat="46.03857" lon="4.70137">
        <ele>193</ele>
        <time>2018-03-04T10:11:38Z</time>
      </trkpt>
      <trkpt lat="46.03863" lon="4.70135">
        <ele>193</ele>
        <time>2018-03-04T10:11:39Z</time>
      </trkpt>
      <trkpt lat="46.03866" lon="4.70136">
        <ele>193</ele>
        <time>2018-03-04T10:11:40Z</time>
      </trkpt>
      <trkpt lat="46.03874" lon="4.70132">
        <ele>193</ele>
        <time>2018-03-04T10:11:41Z</time>
      </trkpt>
      <trkpt lat="46.03879" lon="4.70132">
        <ele>193</ele>
        <time>2018-03-04T10:11:42Z</time>
      </trkpt>
      <trkpt lat="46.03884" lon="4.7013">
        <ele>193</ele>
        <time>2018-03-04T10:11:43Z</time>
      </trkpt>
      <trkpt lat="46.03889" lon="4.70129">
        <ele>193</ele>
        <time>2018-03-04T10:11:44Z</time>
      </trkpt>
      <trkpt lat="46.03897" lon="4.70124">
        <ele>194</ele>
        <time>2018-03-04T10:11:45Z</time>
      </trkpt>
      <trkpt lat="46.03902" lon="4.70122">
        <ele>194</ele>
        <time>2018-03-04T10:11:46Z</time>
      </trkpt>
      <trkpt lat="46.03908" lon="4.7012">
        <ele>194</ele>
        <time>2018-03-04T10:11:47Z</time>
      </trkpt>
      <trkpt lat="46.03914" lon="4.70117">
        <ele>194</ele>
        <time>2018-03-04T10:11:48Z</time>
      </trkpt>
      <trkpt lat="46.03919" lon="4.70115">
        <ele>196</ele>
        <time>2018-03-04T10:11:49Z</time>
      </trkpt>
      <trkpt lat="46.03924" lon="4.70114">
        <ele>196</ele>
        <time>2018-03-04T10:11:50Z</time>
      </trkpt>
      <trkpt lat="46.03928" lon="4.70112">
        <ele>196</ele>
        <time>2018-03-04T10:11:51Z</time>
      </trkpt>
      <trkpt lat="46.03933" lon="4.7011">
        <ele>196</ele>
        <time>2018-03-04T10:11:52Z</time>
      </trkpt>
      <trkpt lat="46.03939" lon="4.70108">
        <ele>196</ele>
        <time>2018-03-04T10:11:53Z</time>
      </trkpt>
      <trkpt lat="46.03943" lon="4.70107">
        <ele>196</ele>
        <time>2018-03-04T10:11:54Z</time>
      </trkpt>
      <trkpt lat="46.0395" lon="4.701">
        <ele>196</ele>
        <time>2018-03-04T10:11:55Z</time>
      </trkpt>
      <trkpt lat="46.03959" lon="4.701">
        <ele>196</ele>
        <time>2018-03-04T10:11:57Z</time>
      </trkpt>
      <trkpt lat="46.03964" lon="4.70098">
        <ele>196</ele>
        <time>2018-03-04T10:11:58Z</time>
      </trkpt>
      <trkpt lat="46.03973" lon="4.70098">
        <ele>196</ele>
        <time>2018-03-04T10:12:00Z</time>
      </trkpt>
      <trkpt lat="46.03978" lon="4.70096">
        <ele>196</ele>
        <time>2018-03-04T10:12:01Z</time>
      </trkpt>
      <trkpt lat="46.03984" lon="4.70096">
        <ele>196</ele>
        <time>2018-03-04T10:12:02Z</time>
      </trkpt>
      <trkpt lat="46.03989" lon="4.70096">
        <ele>196</ele>
        <time>2018-03-04T10:12:03Z</time>
      </trkpt>
      <trkpt lat="46.03994" lon="4.70097">
        <ele>196</ele>
        <time>2018-03-04T10:12:04Z</time>
      </trkpt>
      <trkpt lat="46.03999" lon="4.70096">
        <ele>196</ele>
        <time>2018-03-04T10:12:05Z</time>
      </trkpt>
      <trkpt lat="46.04005" lon="4.70094">
        <ele>196</ele>
        <time>2018-03-04T10:12:06Z</time>
      </trkpt>
      <trkpt lat="46.0401" lon="4.70094">
        <ele>196</ele>
        <time>2018-03-04T10:12:07Z</time>
      </trkpt>
      <trkpt lat="46.04016" lon="4.70093">
        <ele>195</ele>
        <time>2018-03-04T10:12:08Z</time>
      </trkpt>
      <trkpt lat="46.04021" lon="4.70093">
        <ele>195</ele>
        <time>2018-03-04T10:12:09Z</time>
      </trkpt>
      <trkpt lat="46.04028" lon="4.70093">
        <ele>195</ele>
        <time>2018-03-04T10:12:10Z</time>
      </trkpt>
      <trkpt lat="46.04034" lon="4.70091">
        <ele>195</ele>
        <time>2018-03-04T10:12:11Z</time>
      </trkpt>
      <trkpt lat="46.0404" lon="4.70091">
        <ele>195</ele>
        <time>2018-03-04T10:12:12Z</time>
      </trkpt>
      <trkpt lat="46.04046" lon="4.7009">
        <ele>195</ele>
        <time>2018-03-04T10:12:13Z</time>
      </trkpt>
      <trkpt lat="46.04052" lon="4.70088">
        <ele>195</ele>
        <time>2018-03-04T10:12:14Z</time>
      </trkpt>
      <trkpt lat="46.04058" lon="4.70089">
        <ele>195</ele>
        <time>2018-03-04T10:12:15Z</time>
      </trkpt>
      <trkpt lat="46.04063" lon="4.70088">
        <ele>195</ele>
        <time>2018-03-04T10:12:16Z</time>
      </trkpt>
      <trkpt lat="46.04067" lon="4.70087">
        <ele>194</ele>
        <time>2018-03-04T10:12:17Z</time>
      </trkpt>
      <trkpt lat="46.04073" lon="4.70086">
        <ele>194</ele>
        <time>2018-03-04T10:12:18Z</time>
      </trkpt>
      <trkpt lat="46.04078" lon="4.70085">
        <ele>194</ele>
        <time>2018-03-04T10:12:19Z</time>
      </trkpt>
      <trkpt lat="46.04083" lon="4.70083">
        <ele>194</ele>
        <time>2018-03-04T10:12:20Z</time>
      </trkpt>
      <trkpt lat="46.04088" lon="4.70081">
        <ele>194</ele>
        <time>2018-03-04T10:12:21Z</time>
      </trkpt>
      <trkpt lat="46.04097" lon="4.70079">
        <ele>193</ele>
        <time>2018-03-04T10:12:23Z</time>
      </trkpt>
      <trkpt lat="46.04102" lon="4.70077">
        <ele>193</ele>
        <time>2018-03-04T10:12:24Z</time>
      </trkpt>
      <trkpt lat="46.0411" lon="4.70074">
        <ele>193</ele>
        <time>2018-03-04T10:12:26Z</time>
      </trkpt>
      <trkpt lat="46.04115" lon="4.70071">
        <ele>192</ele>
        <time>2018-03-04T10:12:27Z</time>
      </trkpt>
      <trkpt lat="46.0412" lon="4.70069">
        <ele>192</ele>
        <time>2018-03-04T10:12:28Z</time>
      </trkpt>
      <trkpt lat="46.04124" lon="4.70067">
        <ele>192</ele>
        <time>2018-03-04T10:12:29Z</time>
      </trkpt>
      <trkpt lat="46.0413" lon="4.70062">
        <ele>192</ele>
        <time>2018-03-04T10:12:30Z</time>
      </trkpt>
      <trkpt lat="46.04134" lon="4.70061">
        <ele>192</ele>
        <time>2018-03-04T10:12:31Z</time>
      </trkpt>
      <trkpt lat="46.04138" lon="4.70058">
        <ele>192</ele>
        <time>2018-03-04T10:12:32Z</time>
      </trkpt>
      <trkpt lat="46.04144" lon="4.70055">
        <ele>191</ele>
        <time>2018-03-04T10:12:33Z</time>
      </trkpt>
      <trkpt lat="46.04149" lon="4.70051">
        <ele>191</ele>
        <time>2018-03-04T10:12:34Z</time>
      </trkpt>
      <trkpt lat="46.04155" lon="4.70047">
        <ele>191</ele>
        <time>2018-03-04T10:12:35Z</time>
      </trkpt>
      <trkpt lat="46.04161" lon="4.70046">
        <ele>191</ele>
        <time>2018-03-04T10:12:36Z</time>
      </trkpt>
      <trkpt lat="46.04167" lon="4.70042">
        <ele>189</ele>
        <time>2018-03-04T10:12:37Z</time>
      </trkpt>
      <trkpt lat="46.04173" lon="4.70038">
        <ele>189</ele>
        <time>2018-03-04T10:12:38Z</time>
      </trkpt>
      <trkpt lat="46.04178" lon="4.70034">
        <ele>189</ele>
        <time>2018-03-04T10:12:39Z</time>
      </trkpt>
      <trkpt lat="46.04182" lon="4.70028">
        <ele>189</ele>
        <time>2018-03-04T10:12:40Z</time>
      </trkpt>
      <trkpt lat="46.04187" lon="4.70023">
        <ele>189</ele>
        <time>2018-03-04T10:12:41Z</time>
      </trkpt>
      <trkpt lat="46.04193" lon="4.70018">
        <ele>188</ele>
        <time>2018-03-04T10:12:42Z</time>
      </trkpt>
      <trkpt lat="46.04198" lon="4.70014">
        <ele>188</ele>
        <time>2018-03-04T10:12:43Z</time>
      </trkpt>
      <trkpt lat="46.04203" lon="4.7001">
        <ele>188</ele>
        <time>2018-03-04T10:12:44Z</time>
      </trkpt>
      <trkpt lat="46.04208" lon="4.70005">
        <ele>188</ele>
        <time>2018-03-04T10:12:45Z</time>
      </trkpt>
      <trkpt lat="46.04212" lon="4.7">
        <ele>188</ele>
        <time>2018-03-04T10:12:46Z</time>
      </trkpt>
      <trkpt lat="46.04217" lon="4.69996">
        <ele>188</ele>
        <time>2018-03-04T10:12:47Z</time>
      </trkpt>
      <trkpt lat="46.04221" lon="4.69994">
        <ele>188</ele>
        <time>2018-03-04T10:12:48Z</time>
      </trkpt>
      <trkpt lat="46.04226" lon="4.69989">
        <ele>188</ele>
        <time>2018-03-04T10:12:49Z</time>
      </trkpt>
      <trkpt lat="46.0423" lon="4.69984">
        <ele>188</ele>
        <time>2018-03-04T10:12:50Z</time>
      </trkpt>
      <trkpt lat="46.04235" lon="4.6998">
        <ele>188</ele>
        <time>2018-03-04T10:12:51Z</time>
      </trkpt>
      <trkpt lat="46.04239" lon="4.69975">
        <ele>188</ele>
        <time>2018-03-04T10:12:52Z</time>
      </trkpt>
      <trkpt lat="46.04244" lon="4.69971">
        <ele>188</ele>
        <time>2018-03-04T10:12:53Z</time>
      </trkpt>
      <trkpt lat="46.04248" lon="4.69967">
        <ele>188</ele>
        <time>2018-03-04T10:12:54Z</time>
      </trkpt>
      <trkpt lat="46.04252" lon="4.69962">
        <ele>188</ele>
        <time>2018-03-04T10:12:55Z</time>
      </trkpt>
      <trkpt lat="46.04257" lon="4.69957">
        <ele>188</ele>
        <time>2018-03-04T10:12:56Z</time>
      </trkpt>
      <trkpt lat="46.04261" lon="4.69952">
        <ele>188</ele>
        <time>2018-03-04T10:12:57Z</time>
      </trkpt>
      <trkpt lat="46.04265" lon="4.69947">
        <ele>188</ele>
        <time>2018-03-04T10:12:58Z</time>
      </trkpt>
      <trkpt lat="46.0427" lon="4.69942">
        <ele>189</ele>
        <time>2018-03-04T10:12:59Z</time>
      </trkpt>
      <trkpt lat="46.04275" lon="4.69937">
        <ele>189</ele>
        <time>2018-03-04T10:13:00Z</time>
      </trkpt>
      <trkpt lat="46.04279" lon="4.69932">
        <ele>189</ele>
        <time>2018-03-04T10:13:01Z</time>
      </trkpt>
      <trkpt lat="46.04284" lon="4.69927">
        <ele>189</ele>
        <time>2018-03-04T10:13:02Z</time>
      </trkpt>
      <trkpt lat="46.04289" lon="4.69922">
        <ele>189</ele>
        <time>2018-03-04T10:13:03Z</time>
      </trkpt>
      <trkpt lat="46.04293" lon="4.69917">
        <ele>189</ele>
        <time>2018-03-04T10:13:04Z</time>
      </trkpt>
      <trkpt lat="46.04297" lon="4.69913">
        <ele>190</ele>
        <time>2018-03-04T10:13:05Z</time>
      </trkpt>
      <trkpt lat="46.04301" lon="4.69909">
        <ele>190</ele>
        <time>2018-03-04T10:13:06Z</time>
      </trkpt>
      <trkpt lat="46.04306" lon="4.69902">
        <ele>190</ele>
        <time>2018-03-04T10:13:07Z</time>
      </trkpt>
      <trkpt lat="46.0431" lon="4.69897">
        <ele>190</ele>
        <time>2018-03-04T10:13:08Z</time>
      </trkpt>
      <trkpt lat="46.04314" lon="4.69892">
        <ele>190</ele>
        <time>2018-03-04T10:13:09Z</time>
      </trkpt>
      <trkpt lat="46.04318" lon="4.69886">
        <ele>190</ele>
        <time>2018-03-04T10:13:10Z</time>
      </trkpt>
      <trkpt lat="46.0432" lon="4.6988">
        <ele>190</ele>
        <time>2018-03-04T10:13:11Z</time>
      </trkpt>
      <trkpt lat="46.04323" lon="4.69874">
        <ele>191</ele>
        <time>2018-03-04T10:13:12Z</time>
      </trkpt>
      <trkpt lat="46.04326" lon="4.69867">
        <ele>191</ele>
        <time>2018-03-04T10:13:13Z</time>
      </trkpt>
      <trkpt lat="46.04328" lon="4.69862">
        <ele>191</ele>
        <time>2018-03-04T10:13:14Z</time>
      </trkpt>
      <trkpt lat="46.04332" lon="4.69857">
        <ele>191</ele>
        <time>2018-03-04T10:13:15Z</time>
      </trkpt>
      <trkpt lat="46.04335" lon="4.69851">
        <ele>192</ele>
        <time>2018-03-04T10:13:16Z</time>
      </trkpt>
      <trkpt lat="46.04338" lon="4.69846">
        <ele>192</ele>
        <time>2018-03-04T10:13:17Z</time>
      </trkpt>
      <trkpt lat="46.04346" lon="4.69839">
        <ele>192</ele>
        <time>2018-03-04T10:13:19Z</time>
      </trkpt>
      <trkpt lat="46.0435" lon="4.69836">
        <ele>193</ele>
        <time>2018-03-04T10:13:20Z</time>
      </trkpt>
      <trkpt lat="46.04358" lon="4.6983">
        <ele>193</ele>
        <time>2018-03-04T10:13:22Z</time>
      </trkpt>
      <trkpt lat="46.04362" lon="4.69828">
        <ele>193</ele>
        <time>2018-03-04T10:13:23Z</time>
      </trkpt>
      <trkpt lat="46.04366" lon="4.69825">
        <ele>193</ele>
        <time>2018-03-04T10:13:24Z</time>
      </trkpt>
      <trkpt lat="46.0437" lon="4.69823">
        <ele>194</ele>
        <time>2018-03-04T10:13:25Z</time>
      </trkpt>
      <trkpt lat="46.04375" lon="4.69821">
        <ele>194</ele>
        <time>2018-03-04T10:13:26Z</time>
      </trkpt>
      <trkpt lat="46.04379" lon="4.69819">
        <ele>194</ele>
        <time>2018-03-04T10:13:27Z</time>
      </trkpt>
      <trkpt lat="46.04387" lon="4.69814">
        <ele>194</ele>
        <time>2018-03-04T10:13:29Z</time>
      </trkpt>
      <trkpt lat="46.04391" lon="4.69814">
        <ele>194</ele>
        <time>2018-03-04T10:13:30Z</time>
      </trkpt>
      <trkpt lat="46.04398" lon="4.6981">
        <ele>194</ele>
        <time>2018-03-04T10:13:32Z</time>
      </trkpt>
      <trkpt lat="46.04402" lon="4.6981">
        <ele>194</ele>
        <time>2018-03-04T10:13:33Z</time>
      </trkpt>
      <trkpt lat="46.04408" lon="4.69808">
        <ele>194</ele>
        <time>2018-03-04T10:13:35Z</time>
      </trkpt>
      <trkpt lat="46.04413" lon="4.69807">
        <ele>194</ele>
        <time>2018-03-04T10:13:36Z</time>
      </trkpt>
      <trkpt lat="46.04421" lon="4.69804">
        <ele>196</ele>
        <time>2018-03-04T10:13:38Z</time>
      </trkpt>
      <trkpt lat="46.04425" lon="4.69803">
        <ele>196</ele>
        <time>2018-03-04T10:13:39Z</time>
      </trkpt>
      <trkpt lat="46.04433" lon="4.69799">
        <ele>196</ele>
        <time>2018-03-04T10:13:41Z</time>
      </trkpt>
      <trkpt lat="46.04437" lon="4.69798">
        <ele>196</ele>
        <time>2018-03-04T10:13:42Z</time>
      </trkpt>
      <trkpt lat="46.04445" lon="4.69797">
        <ele>196</ele>
        <time>2018-03-04T10:13:44Z</time>
      </trkpt>
      <trkpt lat="46.04449" lon="4.69796">
        <ele>196</ele>
        <time>2018-03-04T10:13:45Z</time>
      </trkpt>
      <trkpt lat="46.04458" lon="4.69794">
        <ele>196</ele>
        <time>2018-03-04T10:13:47Z</time>
      </trkpt>
      <trkpt lat="46.04462" lon="4.69793">
        <ele>197</ele>
        <time>2018-03-04T10:13:48Z</time>
      </trkpt>
      <trkpt lat="46.0447" lon="4.6979">
        <ele>197</ele>
        <time>2018-03-04T10:13:50Z</time>
      </trkpt>
      <trkpt lat="46.04475" lon="4.69789">
        <ele>197</ele>
        <time>2018-03-04T10:13:51Z</time>
      </trkpt>
      <trkpt lat="46.04483" lon="4.69787">
        <ele>197</ele>
        <time>2018-03-04T10:13:53Z</time>
      </trkpt>
      <trkpt lat="46.04488" lon="4.69785">
        <ele>197</ele>
        <time>2018-03-04T10:13:54Z</time>
      </trkpt>
      <trkpt lat="46.04493" lon="4.69784">
        <ele>197</ele>
        <time>2018-03-04T10:13:55Z</time>
      </trkpt>
      <trkpt lat="46.04497" lon="4.69783">
        <ele>197</ele>
        <time>2018-03-04T10:13:56Z</time>
      </trkpt>
      <trkpt lat="46.04505" lon="4.69782">
        <ele>199</ele>
        <time>2018-03-04T10:13:58Z</time>
      </trkpt>
      <trkpt lat="46.0451" lon="4.69781">
        <ele>199</ele>
        <time>2018-03-04T10:13:59Z</time>
      </trkpt>
      <trkpt lat="46.04518" lon="4.69784">
        <ele>199</ele>
        <time>2018-03-04T10:14:01Z</time>
      </trkpt>
      <trkpt lat="46.04522" lon="4.69785">
        <ele>199</ele>
        <time>2018-03-04T10:14:02Z</time>
      </trkpt>
      <trkpt lat="46.0453" lon="4.69786">
        <ele>199</ele>
        <time>2018-03-04T10:14:04Z</time>
      </trkpt>
      <trkpt lat="46.04534" lon="4.69786">
        <ele>199</ele>
        <time>2018-03-04T10:14:05Z</time>
      </trkpt>
      <trkpt lat="46.04542" lon="4.69788">
        <ele>199</ele>
        <time>2018-03-04T10:14:07Z</time>
      </trkpt>
      <trkpt lat="46.04546" lon="4.69789">
        <ele>199</ele>
        <time>2018-03-04T10:14:08Z</time>
      </trkpt>
      <trkpt lat="46.04555" lon="4.69791">
        <ele>199</ele>
        <time>2018-03-04T10:14:10Z</time>
      </trkpt>
      <trkpt lat="46.0456" lon="4.69792">
        <ele>200</ele>
        <time>2018-03-04T10:14:11Z</time>
      </trkpt>
      <trkpt lat="46.04564" lon="4.69793">
        <ele>200</ele>
        <time>2018-03-04T10:14:12Z</time>
      </trkpt>
      <trkpt lat="46.04568" lon="4.69794">
        <ele>200</ele>
        <time>2018-03-04T10:14:13Z</time>
      </trkpt>
      <trkpt lat="46.04573" lon="4.69795">
        <ele>200</ele>
        <time>2018-03-04T10:14:14Z</time>
      </trkpt>
      <trkpt lat="46.04578" lon="4.69796">
        <ele>200</ele>
        <time>2018-03-04T10:14:15Z</time>
      </trkpt>
      <trkpt lat="46.04583" lon="4.69798">
        <ele>200</ele>
        <time>2018-03-04T10:14:16Z</time>
      </trkpt>
      <trkpt lat="46.04587" lon="4.698">
        <ele>201</ele>
        <time>2018-03-04T10:14:17Z</time>
      </trkpt>
      <trkpt lat="46.04592" lon="4.69802">
        <ele>201</ele>
        <time>2018-03-04T10:14:18Z</time>
      </trkpt>
      <trkpt lat="46.04596" lon="4.69803">
        <ele>201</ele>
        <time>2018-03-04T10:14:19Z</time>
      </trkpt>
      <trkpt lat="46.04604" lon="4.69805">
        <ele>201</ele>
        <time>2018-03-04T10:14:21Z</time>
      </trkpt>
      <trkpt lat="46.04608" lon="4.69807">
        <ele>201</ele>
        <time>2018-03-04T10:14:22Z</time>
      </trkpt>
      <trkpt lat="46.04613" lon="4.69809">
        <ele>201</ele>
        <time>2018-03-04T10:14:23Z</time>
      </trkpt>
      <trkpt lat="46.04617" lon="4.6981">
        <ele>202</ele>
        <time>2018-03-04T10:14:24Z</time>
      </trkpt>
      <trkpt lat="46.04622" lon="4.69812">
        <ele>202</ele>
        <time>2018-03-04T10:14:25Z</time>
      </trkpt>
      <trkpt lat="46.04627" lon="4.69812">
        <ele>202</ele>
        <time>2018-03-04T10:14:26Z</time>
      </trkpt>
      <trkpt lat="46.04631" lon="4.69814">
        <ele>202</ele>
        <time>2018-03-04T10:14:27Z</time>
      </trkpt>
      <trkpt lat="46.04636" lon="4.69816">
        <ele>202</ele>
        <time>2018-03-04T10:14:28Z</time>
      </trkpt>
      <trkpt lat="46.04641" lon="4.69818">
        <ele>202</ele>
        <time>2018-03-04T10:14:29Z</time>
      </trkpt>
      <trkpt lat="46.04646" lon="4.6982">
        <ele>202</ele>
        <time>2018-03-04T10:14:30Z</time>
      </trkpt>
      <trkpt lat="46.04651" lon="4.69821">
        <ele>202</ele>
        <time>2018-03-04T10:14:31Z</time>
      </trkpt>
      <trkpt lat="46.04656" lon="4.69823">
        <ele>202</ele>
        <time>2018-03-04T10:14:32Z</time>
      </trkpt>
      <trkpt lat="46.04661" lon="4.69825">
        <ele>203</ele>
        <time>2018-03-04T10:14:33Z</time>
      </trkpt>
      <trkpt lat="46.04666" lon="4.69827">
        <ele>203</ele>
        <time>2018-03-04T10:14:34Z</time>
      </trkpt>
      <trkpt lat="46.04671" lon="4.69828">
        <ele>203</ele>
        <time>2018-03-04T10:14:35Z</time>
      </trkpt>
      <trkpt lat="46.04676" lon="4.6983">
        <ele>203</ele>
        <time>2018-03-04T10:14:36Z</time>
      </trkpt>
      <trkpt lat="46.04681" lon="4.69831">
        <ele>203</ele>
        <time>2018-03-04T10:14:37Z</time>
      </trkpt>
      <trkpt lat="46.04686" lon="4.69834">
        <ele>202</ele>
        <time>2018-03-04T10:14:38Z</time>
      </trkpt>
      <trkpt lat="46.04691" lon="4.69835">
        <ele>202</ele>
        <time>2018-03-04T10:14:39Z</time>
      </trkpt>
      <trkpt lat="46.04696" lon="4.69836">
        <ele>202</ele>
        <time>2018-03-04T10:14:40Z</time>
      </trkpt>
      <trkpt lat="46.047" lon="4.69837">
        <ele>202</ele>
        <time>2018-03-04T10:14:41Z</time>
      </trkpt>
      <trkpt lat="46.04705" lon="4.69838">
        <ele>203</ele>
        <time>2018-03-04T10:14:42Z</time>
      </trkpt>
      <trkpt lat="46.0471" lon="4.69839">
        <ele>203</ele>
        <time>2018-03-04T10:14:43Z</time>
      </trkpt>
      <trkpt lat="46.04714" lon="4.69839">
        <ele>203</ele>
        <time>2018-03-04T10:14:44Z</time>
      </trkpt>
      <trkpt lat="46.04719" lon="4.6984">
        <ele>203</ele>
        <time>2018-03-04T10:14:45Z</time>
      </trkpt>
      <trkpt lat="46.04724" lon="4.69839">
        <ele>203</ele>
        <time>2018-03-04T10:14:46Z</time>
      </trkpt>
      <trkpt lat="46.04729" lon="4.69839">
        <ele>203</ele>
        <time>2018-03-04T10:14:47Z</time>
      </trkpt>
      <trkpt lat="46.04733" lon="4.69838">
        <ele>203</ele>
        <time>2018-03-04T10:14:48Z</time>
      </trkpt>
      <trkpt lat="46.04737" lon="4.69838">
        <ele>204</ele>
        <time>2018-03-04T10:14:49Z</time>
      </trkpt>
      <trkpt lat="46.04742" lon="4.69837">
        <ele>204</ele>
        <time>2018-03-04T10:14:50Z</time>
      </trkpt>
      <trkpt lat="46.04747" lon="4.69839">
        <ele>204</ele>
        <time>2018-03-04T10:14:51Z</time>
      </trkpt>
      <trkpt lat="46.04752" lon="4.69841">
        <ele>205</ele>
        <time>2018-03-04T10:14:52Z</time>
      </trkpt>
      <trkpt lat="46.04756" lon="4.69841">
        <ele>205</ele>
        <time>2018-03-04T10:14:53Z</time>
      </trkpt>
      <trkpt lat="46.04761" lon="4.69841">
        <ele>205</ele>
        <time>2018-03-04T10:14:54Z</time>
      </trkpt>
      <trkpt lat="46.04766" lon="4.69842">
        <ele>205</ele>
        <time>2018-03-04T10:14:55Z</time>
      </trkpt>
      <trkpt lat="46.04771" lon="4.69843">
        <ele>204</ele>
        <time>2018-03-04T10:14:56Z</time>
      </trkpt>
      <trkpt lat="46.04776" lon="4.69844">
        <ele>204</ele>
        <time>2018-03-04T10:14:57Z</time>
      </trkpt>
      <trkpt lat="46.0478" lon="4.69843">
        <ele>205</ele>
        <time>2018-03-04T10:14:58Z</time>
      </trkpt>
      <trkpt lat="46.04784" lon="4.69842">
        <ele>205</ele>
        <time>2018-03-04T10:14:59Z</time>
      </trkpt>
      <trkpt lat="46.04789" lon="4.69841">
        <ele>205</ele>
        <time>2018-03-04T10:15:00Z</time>
      </trkpt>
      <trkpt lat="46.04793" lon="4.69831">
        <ele>206</ele>
        <time>2018-03-04T10:15:02Z</time>
      </trkpt>
      <trkpt lat="46.04793" lon="4.69824">
        <ele>206</ele>
        <time>2018-03-04T10:15:03Z</time>
      </trkpt>
      <trkpt lat="46.04796" lon="4.69813">
        <ele>206</ele>
        <time>2018-03-04T10:15:07Z</time>
      </trkpt>
      <trkpt lat="46.04798" lon="4.69811">
        <ele>206</ele>
        <time>2018-03-04T10:15:08Z</time>
      </trkpt>
      <trkpt lat="46.04804" lon="4.69807">
        <ele>206</ele>
        <time>2018-03-04T10:15:09Z</time>
      </trkpt>
      <trkpt lat="46.04808" lon="4.69808">
        <ele>206</ele>
        <time>2018-03-04T10:15:10Z</time>
      </trkpt>
      <trkpt lat="46.04813" lon="4.69811">
        <ele>207</ele>
        <time>2018-03-04T10:15:12Z</time>
      </trkpt>
      <trkpt lat="46.04818" lon="4.69814">
        <ele>207</ele>
        <time>2018-03-04T10:15:13Z</time>
      </trkpt>
      <trkpt lat="46.04826" lon="4.69818">
        <ele>207</ele>
        <time>2018-03-04T10:15:15Z</time>
      </trkpt>
      <trkpt lat="46.0483" lon="4.6982">
        <ele>207</ele>
        <time>2018-03-04T10:15:16Z</time>
      </trkpt>
      <trkpt lat="46.04835" lon="4.69821">
        <ele>207</ele>
        <time>2018-03-04T10:15:17Z</time>
      </trkpt>
      <trkpt lat="46.04839" lon="4.69823">
        <ele>207</ele>
        <time>2018-03-04T10:15:18Z</time>
      </trkpt>
      <trkpt lat="46.04843" lon="4.69826">
        <ele>207</ele>
        <time>2018-03-04T10:15:19Z</time>
      </trkpt>
      <trkpt lat="46.04849" lon="4.69829">
        <ele>207</ele>
        <time>2018-03-04T10:15:20Z</time>
      </trkpt>
      <trkpt lat="46.04853" lon="4.69832">
        <ele>207</ele>
        <time>2018-03-04T10:15:21Z</time>
      </trkpt>
      <trkpt lat="46.04858" lon="4.69834">
        <ele>206</ele>
        <time>2018-03-04T10:15:22Z</time>
      </trkpt>
      <trkpt lat="46.04863" lon="4.69837">
        <ele>206</ele>
        <time>2018-03-04T10:15:23Z</time>
      </trkpt>
      <trkpt lat="46.04867" lon="4.69841">
        <ele>206</ele>
        <time>2018-03-04T10:15:24Z</time>
      </trkpt>
      <trkpt lat="46.04872" lon="4.69844">
        <ele>206</ele>
        <time>2018-03-04T10:15:25Z</time>
      </trkpt>
      <trkpt lat="46.04878" lon="4.69847">
        <ele>206</ele>
        <time>2018-03-04T10:15:26Z</time>
      </trkpt>
      <trkpt lat="46.04884" lon="4.69849">
        <ele>206</ele>
        <time>2018-03-04T10:15:27Z</time>
      </trkpt>
      <trkpt lat="46.0489" lon="4.69852">
        <ele>206</ele>
        <time>2018-03-04T10:15:28Z</time>
      </trkpt>
      <trkpt lat="46.04895" lon="4.69856">
        <ele>206</ele>
        <time>2018-03-04T10:15:29Z</time>
      </trkpt>
      <trkpt lat="46.04901" lon="4.69859">
        <ele>206</ele>
        <time>2018-03-04T10:15:30Z</time>
      </trkpt>
      <trkpt lat="46.04907" lon="4.69862">
        <ele>206</ele>
        <time>2018-03-04T10:15:31Z</time>
      </trkpt>
      <trkpt lat="46.04913" lon="4.69865">
        <ele>206</ele>
        <time>2018-03-04T10:15:32Z</time>
      </trkpt>
      <trkpt lat="46.04918" lon="4.69869">
        <ele>207</ele>
        <time>2018-03-04T10:15:33Z</time>
      </trkpt>
      <trkpt lat="46.04924" lon="4.69873">
        <ele>207</ele>
        <time>2018-03-04T10:15:34Z</time>
      </trkpt>
      <trkpt lat="46.04929" lon="4.69876">
        <ele>207</ele>
        <time>2018-03-04T10:15:35Z</time>
      </trkpt>
      <trkpt lat="46.04933" lon="4.6988">
        <ele>207</ele>
        <time>2018-03-04T10:15:36Z</time>
      </trkpt>
      <trkpt lat="46.04937" lon="4.69884">
        <ele>207</ele>
        <time>2018-03-04T10:15:37Z</time>
      </trkpt>
      <trkpt lat="46.04941" lon="4.69889">
        <ele>207</ele>
        <time>2018-03-04T10:15:38Z</time>
      </trkpt>
      <trkpt lat="46.04945" lon="4.69893">
        <ele>207</ele>
        <time>2018-03-04T10:15:39Z</time>
      </trkpt>
      <trkpt lat="46.04949" lon="4.69897">
        <ele>207</ele>
        <time>2018-03-04T10:15:40Z</time>
      </trkpt>
      <trkpt lat="46.04953" lon="4.69902">
        <ele>207</ele>
        <time>2018-03-04T10:15:41Z</time>
      </trkpt>
      <trkpt lat="46.04956" lon="4.69907">
        <ele>207</ele>
        <time>2018-03-04T10:15:42Z</time>
      </trkpt>
      <trkpt lat="46.0496" lon="4.69912">
        <ele>206</ele>
        <time>2018-03-04T10:15:43Z</time>
      </trkpt>
      <trkpt lat="46.04964" lon="4.69918">
        <ele>206</ele>
        <time>2018-03-04T10:15:44Z</time>
      </trkpt>
      <trkpt lat="46.04968" lon="4.69925">
        <ele>206</ele>
        <time>2018-03-04T10:15:45Z</time>
      </trkpt>
      <trkpt lat="46.04972" lon="4.69931">
        <ele>206</ele>
        <time>2018-03-04T10:15:46Z</time>
      </trkpt>
      <trkpt lat="46.04975" lon="4.69937">
        <ele>206</ele>
        <time>2018-03-04T10:15:47Z</time>
      </trkpt>
      <trkpt lat="46.04979" lon="4.69942">
        <ele>206</ele>
        <time>2018-03-04T10:15:48Z</time>
      </trkpt>
      <trkpt lat="46.04982" lon="4.69948">
        <ele>206</ele>
        <time>2018-03-04T10:15:49Z</time>
      </trkpt>
      <trkpt lat="46.04985" lon="4.69954">
        <ele>206</ele>
        <time>2018-03-04T10:15:50Z</time>
      </trkpt>
      <trkpt lat="46.04988" lon="4.6996">
        <ele>205</ele>
        <time>2018-03-04T10:15:51Z</time>
      </trkpt>
      <trkpt lat="46.04992" lon="4.69966">
        <ele>205</ele>
        <time>2018-03-04T10:15:52Z</time>
      </trkpt>
      <trkpt lat="46.04995" lon="4.69972">
        <ele>205</ele>
        <time>2018-03-04T10:15:53Z</time>
      </trkpt>
      <trkpt lat="46.04998" lon="4.69976">
        <ele>205</ele>
        <time>2018-03-04T10:15:54Z</time>
      </trkpt>
      <trkpt lat="46.05003" lon="4.69981">
        <ele>205</ele>
        <time>2018-03-04T10:15:55Z</time>
      </trkpt>
      <trkpt lat="46.05007" lon="4.69986">
        <ele>205</ele>
        <time>2018-03-04T10:15:56Z</time>
      </trkpt>
      <trkpt lat="46.05012" lon="4.69993">
        <ele>205</ele>
        <time>2018-03-04T10:15:57Z</time>
      </trkpt>
      <trkpt lat="46.05017" lon="4.69998">
        <ele>205</ele>
        <time>2018-03-04T10:15:58Z</time>
      </trkpt>
      <trkpt lat="46.05022" lon="4.70002">
        <ele>204</ele>
        <time>2018-03-04T10:15:59Z</time>
      </trkpt>
      <trkpt lat="46.05027" lon="4.70007">
        <ele>204</ele>
        <time>2018-03-04T10:16:00Z</time>
      </trkpt>
      <trkpt lat="46.05033" lon="4.70012">
        <ele>204</ele>
        <time>2018-03-04T10:16:01Z</time>
      </trkpt>
      <trkpt lat="46.05038" lon="4.70016">
        <ele>204</ele>
        <time>2018-03-04T10:16:02Z</time>
      </trkpt>
      <trkpt lat="46.05044" lon="4.70021">
        <ele>204</ele>
        <time>2018-03-04T10:16:03Z</time>
      </trkpt>
      <trkpt lat="46.05049" lon="4.70024">
        <ele>204</ele>
        <time>2018-03-04T10:16:04Z</time>
      </trkpt>
      <trkpt lat="46.05054" lon="4.70028">
        <ele>204</ele>
        <time>2018-03-04T10:16:05Z</time>
      </trkpt>
      <trkpt lat="46.05059" lon="4.70031">
        <ele>204</ele>
        <time>2018-03-04T10:16:06Z</time>
      </trkpt>
      <trkpt lat="46.05065" lon="4.70033">
        <ele>204</ele>
        <time>2018-03-04T10:16:07Z</time>
      </trkpt>
      <trkpt lat="46.0507" lon="4.70034">
        <ele>204</ele>
        <time>2018-03-04T10:16:08Z</time>
      </trkpt>
      <trkpt lat="46.05076" lon="4.70032">
        <ele>204</ele>
        <time>2018-03-04T10:16:09Z</time>
      </trkpt>
      <trkpt lat="46.05081" lon="4.70029">
        <ele>204</ele>
        <time>2018-03-04T10:16:10Z</time>
      </trkpt>
      <trkpt lat="46.05085" lon="4.70025">
        <ele>203</ele>
        <time>2018-03-04T10:16:11Z</time>
      </trkpt>
      <trkpt lat="46.05089" lon="4.70019">
        <ele>203</ele>
        <time>2018-03-04T10:16:12Z</time>
      </trkpt>
      <trkpt lat="46.05093" lon="4.70011">
        <ele>204</ele>
        <time>2018-03-04T10:16:13Z</time>
      </trkpt>
      <trkpt lat="46.05096" lon="4.70003">
        <ele>204</ele>
        <time>2018-03-04T10:16:14Z</time>
      </trkpt>
      <trkpt lat="46.05097" lon="4.69994">
        <ele>204</ele>
        <time>2018-03-04T10:16:15Z</time>
      </trkpt>
      <trkpt lat="46.051" lon="4.69986">
        <ele>204</ele>
        <time>2018-03-04T10:16:16Z</time>
      </trkpt>
      <trkpt lat="46.05101" lon="4.69978">
        <ele>203</ele>
        <time>2018-03-04T10:16:17Z</time>
      </trkpt>
      <trkpt lat="46.05102" lon="4.69969">
        <ele>203</ele>
        <time>2018-03-04T10:16:18Z</time>
      </trkpt>
      <trkpt lat="46.05105" lon="4.6996">
        <ele>203</ele>
        <time>2018-03-04T10:16:19Z</time>
      </trkpt>
      <trkpt lat="46.05106" lon="4.69952">
        <ele>203</ele>
        <time>2018-03-04T10:16:20Z</time>
      </trkpt>
      <trkpt lat="46.05107" lon="4.69945">
        <ele>203</ele>
        <time>2018-03-04T10:16:21Z</time>
      </trkpt>
      <trkpt lat="46.05108" lon="4.69937">
        <ele>203</ele>
        <time>2018-03-04T10:16:22Z</time>
      </trkpt>
      <trkpt lat="46.05109" lon="4.69929">
        <ele>203</ele>
        <time>2018-03-04T10:16:23Z</time>
      </trkpt>
      <trkpt lat="46.05111" lon="4.69922">
        <ele>203</ele>
        <time>2018-03-04T10:16:24Z</time>
      </trkpt>
      <trkpt lat="46.05111" lon="4.69914">
        <ele>204</ele>
        <time>2018-03-04T10:16:25Z</time>
      </trkpt>
      <trkpt lat="46.05112" lon="4.69905">
        <ele>204</ele>
        <time>2018-03-04T10:16:26Z</time>
      </trkpt>
      <trkpt lat="46.05114" lon="4.69897">
        <ele>204</ele>
        <time>2018-03-04T10:16:27Z</time>
      </trkpt>
      <trkpt lat="46.05115" lon="4.69889">
        <ele>204</ele>
        <time>2018-03-04T10:16:28Z</time>
      </trkpt>
      <trkpt lat="46.05116" lon="4.69881">
        <ele>204</ele>
        <time>2018-03-04T10:16:29Z</time>
      </trkpt>
      <trkpt lat="46.05117" lon="4.69873">
        <ele>204</ele>
        <time>2018-03-04T10:16:30Z</time>
      </trkpt>
      <trkpt lat="46.05118" lon="4.69865">
        <ele>204</ele>
        <time>2018-03-04T10:16:31Z</time>
      </trkpt>
      <trkpt lat="46.0512" lon="4.69857">
        <ele>204</ele>
        <time>2018-03-04T10:16:32Z</time>
      </trkpt>
      <trkpt lat="46.05121" lon="4.6985">
        <ele>204</ele>
        <time>2018-03-04T10:16:33Z</time>
      </trkpt>
      <trkpt lat="46.05123" lon="4.69842">
        <ele>204</ele>
        <time>2018-03-04T10:16:34Z</time>
      </trkpt>
      <trkpt lat="46.05126" lon="4.69836">
        <ele>204</ele>
        <time>2018-03-04T10:16:35Z</time>
      </trkpt>
      <trkpt lat="46.0513" lon="4.6983">
        <ele>204</ele>
        <time>2018-03-04T10:16:36Z</time>
      </trkpt>
      <trkpt lat="46.05135" lon="4.69826">
        <ele>204</ele>
        <time>2018-03-04T10:16:37Z</time>
      </trkpt>
      <trkpt lat="46.05142" lon="4.69824">
        <ele>204</ele>
        <time>2018-03-04T10:16:38Z</time>
      </trkpt>
      <trkpt lat="46.05148" lon="4.69826">
        <ele>204</ele>
        <time>2018-03-04T10:16:39Z</time>
      </trkpt>
      <trkpt lat="46.05155" lon="4.69829">
        <ele>203</ele>
        <time>2018-03-04T10:16:40Z</time>
      </trkpt>
      <trkpt lat="46.05161" lon="4.69831">
        <ele>203</ele>
        <time>2018-03-04T10:16:41Z</time>
      </trkpt>
      <trkpt lat="46.05167" lon="4.69834">
        <ele>203</ele>
        <time>2018-03-04T10:16:42Z</time>
      </trkpt>
      <trkpt lat="46.05174" lon="4.69836">
        <ele>202</ele>
        <time>2018-03-04T10:16:43Z</time>
      </trkpt>
      <trkpt lat="46.05181" lon="4.69839">
        <ele>202</ele>
        <time>2018-03-04T10:16:44Z</time>
      </trkpt>
      <trkpt lat="46.05188" lon="4.69842">
        <ele>202</ele>
        <time>2018-03-04T10:16:45Z</time>
      </trkpt>
      <trkpt lat="46.05195" lon="4.69843">
        <ele>202</ele>
        <time>2018-03-04T10:16:46Z</time>
      </trkpt>
      <trkpt lat="46.05203" lon="4.69845">
        <ele>201</ele>
        <time>2018-03-04T10:16:47Z</time>
      </trkpt>
      <trkpt lat="46.05211" lon="4.69848">
        <ele>201</ele>
        <time>2018-03-04T10:16:48Z</time>
      </trkpt>
      <trkpt lat="46.05218" lon="4.69851">
        <ele>201</ele>
        <time>2018-03-04T10:16:49Z</time>
      </trkpt>
      <trkpt lat="46.05226" lon="4.69854">
        <ele>201</ele>
        <time>2018-03-04T10:16:50Z</time>
      </trkpt>
      <trkpt lat="46.05233" lon="4.69856">
        <ele>201</ele>
        <time>2018-03-04T10:16:51Z</time>
      </trkpt>
      <trkpt lat="46.05241" lon="4.69859">
        <ele>201</ele>
        <time>2018-03-04T10:16:52Z</time>
      </trkpt>
      <trkpt lat="46.05248" lon="4.6986">
        <ele>200</ele>
        <time>2018-03-04T10:16:53Z</time>
      </trkpt>
      <trkpt lat="46.05256" lon="4.69862">
        <ele>199</ele>
        <time>2018-03-04T10:16:54Z</time>
      </trkpt>
      <trkpt lat="46.05263" lon="4.69865">
        <ele>199</ele>
        <time>2018-03-04T10:16:55Z</time>
      </trkpt>
      <trkpt lat="46.0527" lon="4.69865">
        <ele>199</ele>
        <time>2018-03-04T10:16:56Z</time>
      </trkpt>
      <trkpt lat="46.05278" lon="4.69867">
        <ele>199</ele>
        <time>2018-03-04T10:16:57Z</time>
      </trkpt>
      <trkpt lat="46.05286" lon="4.69868">
        <ele>199</ele>
        <time>2018-03-04T10:16:58Z</time>
      </trkpt>
      <trkpt lat="46.05293" lon="4.69869">
        <ele>199</ele>
        <time>2018-03-04T10:16:59Z</time>
      </trkpt>
      <trkpt lat="46.053" lon="4.69872">
        <ele>199</ele>
        <time>2018-03-04T10:17:00Z</time>
      </trkpt>
      <trkpt lat="46.05307" lon="4.69872">
        <ele>199</ele>
        <time>2018-03-04T10:17:01Z</time>
      </trkpt>
      <trkpt lat="46.05313" lon="4.69874">
        <ele>199</ele>
        <time>2018-03-04T10:17:02Z</time>
      </trkpt>
      <trkpt lat="46.0532" lon="4.69875">
        <ele>199</ele>
        <time>2018-03-04T10:17:03Z</time>
      </trkpt>
      <trkpt lat="46.05327" lon="4.69877">
        <ele>199</ele>
        <time>2018-03-04T10:17:04Z</time>
      </trkpt>
      <trkpt lat="46.05333" lon="4.69879">
        <ele>199</ele>
        <time>2018-03-04T10:17:05Z</time>
      </trkpt>
      <trkpt lat="46.0534" lon="4.69881">
        <ele>199</ele>
        <time>2018-03-04T10:17:06Z</time>
      </trkpt>
      <trkpt lat="46.05346" lon="4.69883">
        <ele>199</ele>
        <time>2018-03-04T10:17:07Z</time>
      </trkpt>
      <trkpt lat="46.05353" lon="4.69885">
        <ele>199</ele>
        <time>2018-03-04T10:17:08Z</time>
      </trkpt>
      <trkpt lat="46.0536" lon="4.69887">
        <ele>199</ele>
        <time>2018-03-04T10:17:09Z</time>
      </trkpt>
      <trkpt lat="46.05367" lon="4.69889">
        <ele>199</ele>
        <time>2018-03-04T10:17:10Z</time>
      </trkpt>
      <trkpt lat="46.05374" lon="4.69892">
        <ele>199</ele>
        <time>2018-03-04T10:17:11Z</time>
      </trkpt>
      <trkpt lat="46.05381" lon="4.69895">
        <ele>199</ele>
        <time>2018-03-04T10:17:12Z</time>
      </trkpt>
      <trkpt lat="46.05388" lon="4.69897">
        <ele>199</ele>
        <time>2018-03-04T10:17:13Z</time>
      </trkpt>
      <trkpt lat="46.05395" lon="4.699">
        <ele>199</ele>
        <time>2018-03-04T10:17:14Z</time>
      </trkpt>
      <trkpt lat="46.05402" lon="4.69902">
        <ele>199</ele>
        <time>2018-03-04T10:17:15Z</time>
      </trkpt>
      <trkpt lat="46.0541" lon="4.69902">
        <ele>199</ele>
        <time>2018-03-04T10:17:16Z</time>
      </trkpt>
      <trkpt lat="46.05417" lon="4.699">
        <ele>199</ele>
        <time>2018-03-04T10:17:17Z</time>
      </trkpt>
      <trkpt lat="46.05423" lon="4.69899">
        <ele>199</ele>
        <time>2018-03-04T10:17:18Z</time>
      </trkpt>
      <trkpt lat="46.05429" lon="4.69898">
        <ele>199</ele>
        <time>2018-03-04T10:17:19Z</time>
      </trkpt>
      <trkpt lat="46.05436" lon="4.69895">
        <ele>199</ele>
        <time>2018-03-04T10:17:20Z</time>
      </trkpt>
      <trkpt lat="46.05442" lon="4.69893">
        <ele>199</ele>
        <time>2018-03-04T10:17:21Z</time>
      </trkpt>
      <trkpt lat="46.05447" lon="4.69892">
        <ele>199</ele>
        <time>2018-03-04T10:17:22Z</time>
      </trkpt>
      <trkpt lat="46.05452" lon="4.6989">
        <ele>199</ele>
        <time>2018-03-04T10:17:23Z</time>
      </trkpt>
      <trkpt lat="46.05458" lon="4.69888">
        <ele>199</ele>
        <time>2018-03-04T10:17:24Z</time>
      </trkpt>
      <trkpt lat="46.05464" lon="4.69886">
        <ele>199</ele>
        <time>2018-03-04T10:17:25Z</time>
      </trkpt>
      <trkpt lat="46.0547" lon="4.69884">
        <ele>199</ele>
        <time>2018-03-04T10:17:26Z</time>
      </trkpt>
      <trkpt lat="46.05476" lon="4.69882">
        <ele>199</ele>
        <time>2018-03-04T10:17:27Z</time>
      </trkpt>
      <trkpt lat="46.05482" lon="4.69879">
        <ele>199</ele>
        <time>2018-03-04T10:17:28Z</time>
      </trkpt>
      <trkpt lat="46.05488" lon="4.69877">
        <ele>199</ele>
        <time>2018-03-04T10:17:29Z</time>
      </trkpt>
      <trkpt lat="46.05494" lon="4.69874">
        <ele>199</ele>
        <time>2018-03-04T10:17:30Z</time>
      </trkpt>
      <trkpt lat="46.05499" lon="4.69872">
        <ele>199</ele>
        <time>2018-03-04T10:17:31Z</time>
      </trkpt>
      <trkpt lat="46.05505" lon="4.6987">
        <ele>199</ele>
        <time>2018-03-04T10:17:32Z</time>
      </trkpt>
      <trkpt lat="46.05511" lon="4.69868">
        <ele>199</ele>
        <time>2018-03-04T10:17:33Z</time>
      </trkpt>
      <trkpt lat="46.05517" lon="4.69866">
        <ele>199</ele>
        <time>2018-03-04T10:17:34Z</time>
      </trkpt>
      <trkpt lat="46.05523" lon="4.69863">
        <ele>200</ele>
        <time>2018-03-04T10:17:35Z</time>
      </trkpt>
      <trkpt lat="46.05529" lon="4.69861">
        <ele>200</ele>
        <time>2018-03-04T10:17:36Z</time>
      </trkpt>
      <trkpt lat="46.05534" lon="4.69859">
        <ele>200</ele>
        <time>2018-03-04T10:17:37Z</time>
      </trkpt>
      <trkpt lat="46.0554" lon="4.69858">
        <ele>200</ele>
        <time>2018-03-04T10:17:38Z</time>
      </trkpt>
      <trkpt lat="46.05545" lon="4.69856">
        <ele>200</ele>
        <time>2018-03-04T10:17:39Z</time>
      </trkpt>
      <trkpt lat="46.05549" lon="4.69854">
        <ele>200</ele>
        <time>2018-03-04T10:17:40Z</time>
      </trkpt>
      <trkpt lat="46.05555" lon="4.69852">
        <ele>200</ele>
        <time>2018-03-04T10:17:41Z</time>
      </trkpt>
      <trkpt lat="46.0556" lon="4.6985">
        <ele>200</ele>
        <time>2018-03-04T10:17:42Z</time>
      </trkpt>
      <trkpt lat="46.05568" lon="4.69853">
        <ele>200</ele>
        <time>2018-03-04T10:17:44Z</time>
      </trkpt>
      <trkpt lat="46.05572" lon="4.69858">
        <ele>200</ele>
        <time>2018-03-04T10:17:45Z</time>
      </trkpt>
      <trkpt lat="46.05576" lon="4.69864">
        <ele>200</ele>
        <time>2018-03-04T10:17:46Z</time>
      </trkpt>
      <trkpt lat="46.0558" lon="4.69871">
        <ele>200</ele>
        <time>2018-03-04T10:17:47Z</time>
      </trkpt>
      <trkpt lat="46.05583" lon="4.69878">
        <ele>200</ele>
        <time>2018-03-04T10:17:48Z</time>
      </trkpt>
      <trkpt lat="46.05587" lon="4.69885">
        <ele>201</ele>
        <time>2018-03-04T10:17:49Z</time>
      </trkpt>
      <trkpt lat="46.0559" lon="4.69891">
        <ele>201</ele>
        <time>2018-03-04T10:17:50Z</time>
      </trkpt>
      <trkpt lat="46.05594" lon="4.69899">
        <ele>201</ele>
        <time>2018-03-04T10:17:51Z</time>
      </trkpt>
      <trkpt lat="46.05597" lon="4.69907">
        <ele>201</ele>
        <time>2018-03-04T10:17:52Z</time>
      </trkpt>
      <trkpt lat="46.05601" lon="4.69913">
        <ele>201</ele>
        <time>2018-03-04T10:17:53Z</time>
      </trkpt>
      <trkpt lat="46.05605" lon="4.69921">
        <ele>201</ele>
        <time>2018-03-04T10:17:54Z</time>
      </trkpt>
      <trkpt lat="46.05609" lon="4.69928">
        <ele>201</ele>
        <time>2018-03-04T10:17:55Z</time>
      </trkpt>
      <trkpt lat="46.05613" lon="4.69935">
        <ele>201</ele>
        <time>2018-03-04T10:17:56Z</time>
      </trkpt>
      <trkpt lat="46.05617" lon="4.69942">
        <ele>201</ele>
        <time>2018-03-04T10:17:57Z</time>
      </trkpt>
      <trkpt lat="46.05621" lon="4.69949">
        <ele>200</ele>
        <time>2018-03-04T10:17:58Z</time>
      </trkpt>
      <trkpt lat="46.05626" lon="4.69957">
        <ele>200</ele>
        <time>2018-03-04T10:17:59Z</time>
      </trkpt>
      <trkpt lat="46.05629" lon="4.69965">
        <ele>200</ele>
        <time>2018-03-04T10:18:00Z</time>
      </trkpt>
      <trkpt lat="46.05634" lon="4.69973">
        <ele>200</ele>
        <time>2018-03-04T10:18:01Z</time>
      </trkpt>
      <trkpt lat="46.05637" lon="4.6998">
        <ele>200</ele>
        <time>2018-03-04T10:18:02Z</time>
      </trkpt>
      <trkpt lat="46.05641" lon="4.69987">
        <ele>200</ele>
        <time>2018-03-04T10:18:03Z</time>
      </trkpt>
      <trkpt lat="46.05645" lon="4.69995">
        <ele>200</ele>
        <time>2018-03-04T10:18:04Z</time>
      </trkpt>
      <trkpt lat="46.05648" lon="4.70003">
        <ele>200</ele>
        <time>2018-03-04T10:18:05Z</time>
      </trkpt>
      <trkpt lat="46.05652" lon="4.7001">
        <ele>200</ele>
        <time>2018-03-04T10:18:06Z</time>
      </trkpt>
      <trkpt lat="46.05657" lon="4.70018">
        <ele>200</ele>
        <time>2018-03-04T10:18:07Z</time>
      </trkpt>
      <trkpt lat="46.0566" lon="4.70025">
        <ele>200</ele>
        <time>2018-03-04T10:18:08Z</time>
      </trkpt>
      <trkpt lat="46.05664" lon="4.70033">
        <ele>200</ele>
        <time>2018-03-04T10:18:09Z</time>
      </trkpt>
      <trkpt lat="46.05668" lon="4.70042">
        <ele>199</ele>
        <time>2018-03-04T10:18:10Z</time>
      </trkpt>
      <trkpt lat="46.05672" lon="4.7005">
        <ele>199</ele>
        <time>2018-03-04T10:18:11Z</time>
      </trkpt>
      <trkpt lat="46.05676" lon="4.70058">
        <ele>199</ele>
        <time>2018-03-04T10:18:12Z</time>
      </trkpt>
      <trkpt lat="46.05681" lon="4.70065">
        <ele>199</ele>
        <time>2018-03-04T10:18:13Z</time>
      </trkpt>
      <trkpt lat="46.05685" lon="4.70074">
        <ele>199</ele>
        <time>2018-03-04T10:18:14Z</time>
      </trkpt>
      <trkpt lat="46.05688" lon="4.70082">
        <ele>199</ele>
        <time>2018-03-04T10:18:15Z</time>
      </trkpt>
      <trkpt lat="46.05692" lon="4.70091">
        <ele>198</ele>
        <time>2018-03-04T10:18:16Z</time>
      </trkpt>
      <trkpt lat="46.05697" lon="4.70099">
        <ele>198</ele>
        <time>2018-03-04T10:18:17Z</time>
      </trkpt>
      <trkpt lat="46.05702" lon="4.70106">
        <ele>198</ele>
        <time>2018-03-04T10:18:18Z</time>
      </trkpt>
      <trkpt lat="46.05706" lon="4.70115">
        <ele>198</ele>
        <time>2018-03-04T10:18:19Z</time>
      </trkpt>
      <trkpt lat="46.0571" lon="4.70123">
        <ele>198</ele>
        <time>2018-03-04T10:18:20Z</time>
      </trkpt>
      <trkpt lat="46.05715" lon="4.70131">
        <ele>198</ele>
        <time>2018-03-04T10:18:21Z</time>
      </trkpt>
      <trkpt lat="46.0572" lon="4.7014">
        <ele>198</ele>
        <time>2018-03-04T10:18:22Z</time>
      </trkpt>
      <trkpt lat="46.05724" lon="4.70148">
        <ele>198</ele>
        <time>2018-03-04T10:18:23Z</time>
      </trkpt>
      <trkpt lat="46.05729" lon="4.70157">
        <ele>198</ele>
        <time>2018-03-04T10:18:24Z</time>
      </trkpt>
      <trkpt lat="46.05734" lon="4.70166">
        <ele>199</ele>
        <time>2018-03-04T10:18:25Z</time>
      </trkpt>
      <trkpt lat="46.05739" lon="4.70174">
        <ele>198</ele>
        <time>2018-03-04T10:18:26Z</time>
      </trkpt>
      <trkpt lat="46.05744" lon="4.70182">
        <ele>198</ele>
        <time>2018-03-04T10:18:27Z</time>
      </trkpt>
      <trkpt lat="46.05748" lon="4.70191">
        <ele>198</ele>
        <time>2018-03-04T10:18:28Z</time>
      </trkpt>
      <trkpt lat="46.05754" lon="4.70199">
        <ele>198</ele>
        <time>2018-03-04T10:18:29Z</time>
      </trkpt>
      <trkpt lat="46.05759" lon="4.70209">
        <ele>198</ele>
        <time>2018-03-04T10:18:30Z</time>
      </trkpt>
      <trkpt lat="46.05763" lon="4.70219">
        <ele>198</ele>
        <time>2018-03-04T10:18:31Z</time>
      </trkpt>
      <trkpt lat="46.05767" lon="4.70226">
        <ele>198</ele>
        <time>2018-03-04T10:18:32Z</time>
      </trkpt>
      <trkpt lat="46.05772" lon="4.70235">
        <ele>198</ele>
        <time>2018-03-04T10:18:33Z</time>
      </trkpt>
      <trkpt lat="46.05776" lon="4.70244">
        <ele>198</ele>
        <time>2018-03-04T10:18:34Z</time>
      </trkpt>
      <trkpt lat="46.05781" lon="4.70252">
        <ele>198</ele>
        <time>2018-03-04T10:18:35Z</time>
      </trkpt>
      <trkpt lat="46.05785" lon="4.70259">
        <ele>198</ele>
        <time>2018-03-04T10:18:36Z</time>
      </trkpt>
      <trkpt lat="46.0579" lon="4.70267">
        <ele>198</ele>
        <time>2018-03-04T10:18:37Z</time>
      </trkpt>
      <trkpt lat="46.05795" lon="4.70275">
        <ele>197</ele>
        <time>2018-03-04T10:18:38Z</time>
      </trkpt>
      <trkpt lat="46.05801" lon="4.70283">
        <ele>197</ele>
        <time>2018-03-04T10:18:39Z</time>
      </trkpt>
      <trkpt lat="46.05806" lon="4.7029">
        <ele>197</ele>
        <time>2018-03-04T10:18:40Z</time>
      </trkpt>
      <trkpt lat="46.0581" lon="4.70298">
        <ele>197</ele>
        <time>2018-03-04T10:18:41Z</time>
      </trkpt>
      <trkpt lat="46.05815" lon="4.70304">
        <ele>197</ele>
        <time>2018-03-04T10:18:42Z</time>
      </trkpt>
      <trkpt lat="46.05821" lon="4.70311">
        <ele>197</ele>
        <time>2018-03-04T10:18:43Z</time>
      </trkpt>
      <trkpt lat="46.05826" lon="4.70317">
        <ele>197</ele>
        <time>2018-03-04T10:18:44Z</time>
      </trkpt>
      <trkpt lat="46.05832" lon="4.70326">
        <ele>197</ele>
        <time>2018-03-04T10:18:45Z</time>
      </trkpt>
      <trkpt lat="46.05836" lon="4.70333">
        <ele>197</ele>
        <time>2018-03-04T10:18:46Z</time>
      </trkpt>
      <trkpt lat="46.05841" lon="4.70341">
        <ele>197</ele>
        <time>2018-03-04T10:18:47Z</time>
      </trkpt>
      <trkpt lat="46.05846" lon="4.70348">
        <ele>196</ele>
        <time>2018-03-04T10:18:48Z</time>
      </trkpt>
      <trkpt lat="46.05851" lon="4.70355">
        <ele>196</ele>
        <time>2018-03-04T10:18:49Z</time>
      </trkpt>
      <trkpt lat="46.05856" lon="4.70363">
        <ele>196</ele>
        <time>2018-03-04T10:18:50Z</time>
      </trkpt>
      <trkpt lat="46.05862" lon="4.7037">
        <ele>196</ele>
        <time>2018-03-04T10:18:51Z</time>
      </trkpt>
      <trkpt lat="46.05868" lon="4.70377">
        <ele>196</ele>
        <time>2018-03-04T10:18:52Z</time>
      </trkpt>
      <trkpt lat="46.05873" lon="4.70385">
        <ele>196</ele>
        <time>2018-03-04T10:18:53Z</time>
      </trkpt>
      <trkpt lat="46.05878" lon="4.70393">
        <ele>196</ele>
        <time>2018-03-04T10:18:54Z</time>
      </trkpt>
      <trkpt lat="46.05883" lon="4.70401">
        <ele>196</ele>
        <time>2018-03-04T10:18:55Z</time>
      </trkpt>
      <trkpt lat="46.05888" lon="4.7041">
        <ele>196</ele>
        <time>2018-03-04T10:18:56Z</time>
      </trkpt>
      <trkpt lat="46.05892" lon="4.70418">
        <ele>195</ele>
        <time>2018-03-04T10:18:57Z</time>
      </trkpt>
      <trkpt lat="46.05897" lon="4.70426">
        <ele>195</ele>
        <time>2018-03-04T10:18:58Z</time>
      </trkpt>
      <trkpt lat="46.05903" lon="4.70435">
        <ele>195</ele>
        <time>2018-03-04T10:18:59Z</time>
      </trkpt>
      <trkpt lat="46.05907" lon="4.70443">
        <ele>195</ele>
        <time>2018-03-04T10:19:00Z</time>
      </trkpt>
      <trkpt lat="46.05911" lon="4.7045">
        <ele>195</ele>
        <time>2018-03-04T10:19:01Z</time>
      </trkpt>
      <trkpt lat="46.05916" lon="4.70458">
        <ele>195</ele>
        <time>2018-03-04T10:19:02Z</time>
      </trkpt>
      <trkpt lat="46.05919" lon="4.70466">
        <ele>195</ele>
        <time>2018-03-04T10:19:03Z</time>
      </trkpt>
      <trkpt lat="46.05923" lon="4.70474">
        <ele>195</ele>
        <time>2018-03-04T10:19:04Z</time>
      </trkpt>
      <trkpt lat="46.05926" lon="4.70483">
        <ele>195</ele>
        <time>2018-03-04T10:19:05Z</time>
      </trkpt>
      <trkpt lat="46.05929" lon="4.70492">
        <ele>196</ele>
        <time>2018-03-04T10:19:06Z</time>
      </trkpt>
      <trkpt lat="46.0593" lon="4.70501">
        <ele>195</ele>
        <time>2018-03-04T10:19:07Z</time>
      </trkpt>
      <trkpt lat="46.05931" lon="4.70511">
        <ele>195</ele>
        <time>2018-03-04T10:19:08Z</time>
      </trkpt>
      <trkpt lat="46.0593" lon="4.7052">
        <ele>195</ele>
        <time>2018-03-04T10:19:09Z</time>
      </trkpt>
      <trkpt lat="46.05928" lon="4.7053">
        <ele>195</ele>
        <time>2018-03-04T10:19:10Z</time>
      </trkpt>
      <trkpt lat="46.05925" lon="4.70539">
        <ele>195</ele>
        <time>2018-03-04T10:19:11Z</time>
      </trkpt>
      <trkpt lat="46.05923" lon="4.70548">
        <ele>195</ele>
        <time>2018-03-04T10:19:12Z</time>
      </trkpt>
      <trkpt lat="46.05919" lon="4.70556">
        <ele>195</ele>
        <time>2018-03-04T10:19:13Z</time>
      </trkpt>
      <trkpt lat="46.05917" lon="4.70564">
        <ele>195</ele>
        <time>2018-03-04T10:19:14Z</time>
      </trkpt>
      <trkpt lat="46.05914" lon="4.70573">
        <ele>195</ele>
        <time>2018-03-04T10:19:15Z</time>
      </trkpt>
      <trkpt lat="46.05912" lon="4.70581">
        <ele>195</ele>
        <time>2018-03-04T10:19:16Z</time>
      </trkpt>
      <trkpt lat="46.0591" lon="4.70591">
        <ele>195</ele>
        <time>2018-03-04T10:19:17Z</time>
      </trkpt>
      <trkpt lat="46.05909" lon="4.706">
        <ele>194</ele>
        <time>2018-03-04T10:19:18Z</time>
      </trkpt>
      <trkpt lat="46.05907" lon="4.7061">
        <ele>194</ele>
        <time>2018-03-04T10:19:19Z</time>
      </trkpt>
      <trkpt lat="46.05906" lon="4.7062">
        <ele>194</ele>
        <time>2018-03-04T10:19:20Z</time>
      </trkpt>
      <trkpt lat="46.05905" lon="4.70629">
        <ele>194</ele>
        <time>2018-03-04T10:19:21Z</time>
      </trkpt>
      <trkpt lat="46.05905" lon="4.7064">
        <ele>194</ele>
        <time>2018-03-04T10:19:22Z</time>
      </trkpt>
      <trkpt lat="46.05904" lon="4.70651">
        <ele>194</ele>
        <time>2018-03-04T10:19:23Z</time>
      </trkpt>
      <trkpt lat="46.05904" lon="4.70662">
        <ele>194</ele>
        <time>2018-03-04T10:19:24Z</time>
      </trkpt>
      <trkpt lat="46.05904" lon="4.70672">
        <ele>194</ele>
        <time>2018-03-04T10:19:25Z</time>
      </trkpt>
      <trkpt lat="46.05904" lon="4.70681">
        <ele>194</ele>
        <time>2018-03-04T10:19:26Z</time>
      </trkpt>
      <trkpt lat="46.05905" lon="4.70692">
        <ele>194</ele>
        <time>2018-03-04T10:19:27Z</time>
      </trkpt>
      <trkpt lat="46.05906" lon="4.70702">
        <ele>194</ele>
        <time>2018-03-04T10:19:28Z</time>
      </trkpt>
      <trkpt lat="46.05909" lon="4.70712">
        <ele>194</ele>
        <time>2018-03-04T10:19:29Z</time>
      </trkpt>
      <trkpt lat="46.05912" lon="4.70722">
        <ele>194</ele>
        <time>2018-03-04T10:19:30Z</time>
      </trkpt>
      <trkpt lat="46.05914" lon="4.70732">
        <ele>194</ele>
        <time>2018-03-04T10:19:31Z</time>
      </trkpt>
      <trkpt lat="46.05915" lon="4.70742">
        <ele>194</ele>
        <time>2018-03-04T10:19:32Z</time>
      </trkpt>
      <trkpt lat="46.05917" lon="4.70754">
        <ele>194</ele>
        <time>2018-03-04T10:19:33Z</time>
      </trkpt>
      <trkpt lat="46.05918" lon="4.70765">
        <ele>194</ele>
        <time>2018-03-04T10:19:34Z</time>
      </trkpt>
      <trkpt lat="46.0592" lon="4.70774">
        <ele>194</ele>
        <time>2018-03-04T10:19:35Z</time>
      </trkpt>
      <trkpt lat="46.05921" lon="4.70784">
        <ele>194</ele>
        <time>2018-03-04T10:19:36Z</time>
      </trkpt>
      <trkpt lat="46.05923" lon="4.70794">
        <ele>194</ele>
        <time>2018-03-04T10:19:37Z</time>
      </trkpt>
      <trkpt lat="46.05924" lon="4.70804">
        <ele>194</ele>
        <time>2018-03-04T10:19:38Z</time>
      </trkpt>
      <trkpt lat="46.05924" lon="4.70814">
        <ele>194</ele>
        <time>2018-03-04T10:19:39Z</time>
      </trkpt>
      <trkpt lat="46.05925" lon="4.70824">
        <ele>195</ele>
        <time>2018-03-04T10:19:40Z</time>
      </trkpt>
      <trkpt lat="46.05926" lon="4.70835">
        <ele>195</ele>
        <time>2018-03-04T10:19:41Z</time>
      </trkpt>
      <trkpt lat="46.05927" lon="4.70844">
        <ele>194</ele>
        <time>2018-03-04T10:19:42Z</time>
      </trkpt>
      <trkpt lat="46.05927" lon="4.70856">
        <ele>194</ele>
        <time>2018-03-04T10:19:43Z</time>
      </trkpt>
      <trkpt lat="46.05928" lon="4.70866">
        <ele>194</ele>
        <time>2018-03-04T10:19:44Z</time>
      </trkpt>
      <trkpt lat="46.05929" lon="4.70876">
        <ele>194</ele>
        <time>2018-03-04T10:19:45Z</time>
      </trkpt>
      <trkpt lat="46.05929" lon="4.70885">
        <ele>194</ele>
        <time>2018-03-04T10:19:46Z</time>
      </trkpt>
      <trkpt lat="46.05931" lon="4.70896">
        <ele>194</ele>
        <time>2018-03-04T10:19:47Z</time>
      </trkpt>
      <trkpt lat="46.05932" lon="4.70905">
        <ele>194</ele>
        <time>2018-03-04T10:19:48Z</time>
      </trkpt>
      <trkpt lat="46.05934" lon="4.70915">
        <ele>194</ele>
        <time>2018-03-04T10:19:49Z</time>
      </trkpt>
      <trkpt lat="46.05935" lon="4.70925">
        <ele>194</ele>
        <time>2018-03-04T10:19:50Z</time>
      </trkpt>
      <trkpt lat="46.05937" lon="4.70935">
        <ele>194</ele>
        <time>2018-03-04T10:19:51Z</time>
      </trkpt>
      <trkpt lat="46.05939" lon="4.70945">
        <ele>193</ele>
        <time>2018-03-04T10:19:52Z</time>
      </trkpt>
      <trkpt lat="46.05942" lon="4.70955">
        <ele>193</ele>
        <time>2018-03-04T10:19:53Z</time>
      </trkpt>
      <trkpt lat="46.05944" lon="4.70964">
        <ele>193</ele>
        <time>2018-03-04T10:19:54Z</time>
      </trkpt>
      <trkpt lat="46.05947" lon="4.70972">
        <ele>193</ele>
        <time>2018-03-04T10:19:55Z</time>
      </trkpt>
      <trkpt lat="46.0595" lon="4.70981">
        <ele>193</ele>
        <time>2018-03-04T10:19:56Z</time>
      </trkpt>
      <trkpt lat="46.05953" lon="4.70989">
        <ele>193</ele>
        <time>2018-03-04T10:19:57Z</time>
      </trkpt>
      <trkpt lat="46.05956" lon="4.70999">
        <ele>193</ele>
        <time>2018-03-04T10:19:58Z</time>
      </trkpt>
      <trkpt lat="46.05959" lon="4.71007">
        <ele>193</ele>
        <time>2018-03-04T10:19:59Z</time>
      </trkpt>
      <trkpt lat="46.05963" lon="4.71016">
        <ele>193</ele>
        <time>2018-03-04T10:20:00Z</time>
      </trkpt>
      <trkpt lat="46.05967" lon="4.71025">
        <ele>193</ele>
        <time>2018-03-04T10:20:01Z</time>
      </trkpt>
      <trkpt lat="46.05971" lon="4.71034">
        <ele>193</ele>
        <time>2018-03-04T10:20:02Z</time>
      </trkpt>
      <trkpt lat="46.05974" lon="4.71043">
        <ele>192</ele>
        <time>2018-03-04T10:20:03Z</time>
      </trkpt>
      <trkpt lat="46.05977" lon="4.71051">
        <ele>193</ele>
        <time>2018-03-04T10:20:04Z</time>
      </trkpt>
      <trkpt lat="46.05981" lon="4.71059">
        <ele>193</ele>
        <time>2018-03-04T10:20:05Z</time>
      </trkpt>
      <trkpt lat="46.05985" lon="4.71068">
        <ele>193</ele>
        <time>2018-03-04T10:20:06Z</time>
      </trkpt>
      <trkpt lat="46.05989" lon="4.71076">
        <ele>193</ele>
        <time>2018-03-04T10:20:07Z</time>
      </trkpt>
      <trkpt lat="46.05993" lon="4.71084">
        <ele>193</ele>
        <time>2018-03-04T10:20:08Z</time>
      </trkpt>
      <trkpt lat="46.05995" lon="4.7109">
        <ele>193</ele>
        <time>2018-03-04T10:20:09Z</time>
      </trkpt>
      <trkpt lat="46.05997" lon="4.71099">
        <ele>193</ele>
        <time>2018-03-04T10:20:10Z</time>
      </trkpt>
      <trkpt lat="46.06" lon="4.71108">
        <ele>193</ele>
        <time>2018-03-04T10:20:11Z</time>
      </trkpt>
      <trkpt lat="46.06004" lon="4.71117">
        <ele>193</ele>
        <time>2018-03-04T10:20:12Z</time>
      </trkpt>
      <trkpt lat="46.06007" lon="4.71125">
        <ele>193</ele>
        <time>2018-03-04T10:20:13Z</time>
      </trkpt>
      <trkpt lat="46.0601" lon="4.71133">
        <ele>193</ele>
        <time>2018-03-04T10:20:14Z</time>
      </trkpt>
      <trkpt lat="46.06013" lon="4.71141">
        <ele>193</ele>
        <time>2018-03-04T10:20:15Z</time>
      </trkpt>
      <trkpt lat="46.06017" lon="4.7115">
        <ele>194</ele>
        <time>2018-03-04T10:20:16Z</time>
      </trkpt>
      <trkpt lat="46.06021" lon="4.71157">
        <ele>194</ele>
        <time>2018-03-04T10:20:17Z</time>
      </trkpt>
      <trkpt lat="46.06023" lon="4.71166">
        <ele>194</ele>
        <time>2018-03-04T10:20:18Z</time>
      </trkpt>
      <trkpt lat="46.06026" lon="4.71174">
        <ele>193</ele>
        <time>2018-03-04T10:20:19Z</time>
      </trkpt>
      <trkpt lat="46.06029" lon="4.71182">
        <ele>193</ele>
        <time>2018-03-04T10:20:20Z</time>
      </trkpt>
      <trkpt lat="46.06032" lon="4.71191">
        <ele>193</ele>
        <time>2018-03-04T10:20:21Z</time>
      </trkpt>
      <trkpt lat="46.06034" lon="4.71198">
        <ele>193</ele>
        <time>2018-03-04T10:20:22Z</time>
      </trkpt>
      <trkpt lat="46.06036" lon="4.71206">
        <ele>193</ele>
        <time>2018-03-04T10:20:23Z</time>
      </trkpt>
      <trkpt lat="46.06039" lon="4.71214">
        <ele>193</ele>
        <time>2018-03-04T10:20:24Z</time>
      </trkpt>
      <trkpt lat="46.06042" lon="4.71221">
        <ele>193</ele>
        <time>2018-03-04T10:20:25Z</time>
      </trkpt>
      <trkpt lat="46.06046" lon="4.7123">
        <ele>193</ele>
        <time>2018-03-04T10:20:26Z</time>
      </trkpt>
      <trkpt lat="46.06048" lon="4.71238">
        <ele>193</ele>
        <time>2018-03-04T10:20:27Z</time>
      </trkpt>
      <trkpt lat="46.06052" lon="4.71245">
        <ele>193</ele>
        <time>2018-03-04T10:20:28Z</time>
      </trkpt>
      <trkpt lat="46.06055" lon="4.71253">
        <ele>193</ele>
        <time>2018-03-04T10:20:29Z</time>
      </trkpt>
      <trkpt lat="46.06057" lon="4.71262">
        <ele>193</ele>
        <time>2018-03-04T10:20:30Z</time>
      </trkpt>
      <trkpt lat="46.0606" lon="4.7127">
        <ele>193</ele>
        <time>2018-03-04T10:20:31Z</time>
      </trkpt>
      <trkpt lat="46.06063" lon="4.71278">
        <ele>193</ele>
        <time>2018-03-04T10:20:32Z</time>
      </trkpt>
      <trkpt lat="46.06065" lon="4.71286">
        <ele>193</ele>
        <time>2018-03-04T10:20:33Z</time>
      </trkpt>
      <trkpt lat="46.06068" lon="4.71293">
        <ele>193</ele>
        <time>2018-03-04T10:20:34Z</time>
      </trkpt>
      <trkpt lat="46.0607" lon="4.713">
        <ele>193</ele>
        <time>2018-03-04T10:20:35Z</time>
      </trkpt>
      <trkpt lat="46.06073" lon="4.71308">
        <ele>193</ele>
        <time>2018-03-04T10:20:36Z</time>
      </trkpt>
      <trkpt lat="46.06076" lon="4.71316">
        <ele>193</ele>
        <time>2018-03-04T10:20:37Z</time>
      </trkpt>
      <trkpt lat="46.06079" lon="4.71324">
        <ele>193</ele>
        <time>2018-03-04T10:20:38Z</time>
      </trkpt>
      <trkpt lat="46.06082" lon="4.71332">
        <ele>193</ele>
        <time>2018-03-04T10:20:39Z</time>
      </trkpt>
      <trkpt lat="46.06084" lon="4.7134">
        <ele>193</ele>
        <time>2018-03-04T10:20:40Z</time>
      </trkpt>
      <trkpt lat="46.06087" lon="4.71348">
        <ele>193</ele>
        <time>2018-03-04T10:20:41Z</time>
      </trkpt>
      <trkpt lat="46.06089" lon="4.71356">
        <ele>193</ele>
        <time>2018-03-04T10:20:42Z</time>
      </trkpt>
      <trkpt lat="46.06091" lon="4.71364">
        <ele>193</ele>
        <time>2018-03-04T10:20:43Z</time>
      </trkpt>
      <trkpt lat="46.06094" lon="4.71372">
        <ele>193</ele>
        <time>2018-03-04T10:20:44Z</time>
      </trkpt>
      <trkpt lat="46.06097" lon="4.7138">
        <ele>193</ele>
        <time>2018-03-04T10:20:45Z</time>
      </trkpt>
      <trkpt lat="46.06099" lon="4.71388">
        <ele>193</ele>
        <time>2018-03-04T10:20:46Z</time>
      </trkpt>
      <trkpt lat="46.06101" lon="4.71396">
        <ele>193</ele>
        <time>2018-03-04T10:20:47Z</time>
      </trkpt>
      <trkpt lat="46.06104" lon="4.71404">
        <ele>193</ele>
        <time>2018-03-04T10:20:48Z</time>
      </trkpt>
      <trkpt lat="46.06107" lon="4.71413">
        <ele>193</ele>
        <time>2018-03-04T10:20:49Z</time>
      </trkpt>
      <trkpt lat="46.06109" lon="4.71422">
        <ele>193</ele>
        <time>2018-03-04T10:20:50Z</time>
      </trkpt>
      <trkpt lat="46.06112" lon="4.71431">
        <ele>193</ele>
        <time>2018-03-04T10:20:51Z</time>
      </trkpt>
      <trkpt lat="46.06115" lon="4.71441">
        <ele>193</ele>
        <time>2018-03-04T10:20:52Z</time>
      </trkpt>
      <trkpt lat="46.06117" lon="4.7145">
        <ele>193</ele>
        <time>2018-03-04T10:20:53Z</time>
      </trkpt>
      <trkpt lat="46.06119" lon="4.71458">
        <ele>193</ele>
        <time>2018-03-04T10:20:54Z</time>
      </trkpt>
      <trkpt lat="46.06122" lon="4.71468">
        <ele>193</ele>
        <time>2018-03-04T10:20:55Z</time>
      </trkpt>
      <trkpt lat="46.06126" lon="4.71476">
        <ele>192</ele>
        <time>2018-03-04T10:20:56Z</time>
      </trkpt>
      <trkpt lat="46.06128" lon="4.71485">
        <ele>192</ele>
        <time>2018-03-04T10:20:57Z</time>
      </trkpt>
      <trkpt lat="46.06131" lon="4.71495">
        <ele>192</ele>
        <time>2018-03-04T10:20:58Z</time>
      </trkpt>
      <trkpt lat="46.06135" lon="4.71504">
        <ele>192</ele>
        <time>2018-03-04T10:20:59Z</time>
      </trkpt>
      <trkpt lat="46.06139" lon="4.71512">
        <ele>192</ele>
        <time>2018-03-04T10:21:00Z</time>
      </trkpt>
      <trkpt lat="46.06143" lon="4.71521">
        <ele>192</ele>
        <time>2018-03-04T10:21:01Z</time>
      </trkpt>
      <trkpt lat="46.06147" lon="4.71529">
        <ele>192</ele>
        <time>2018-03-04T10:21:02Z</time>
      </trkpt>
      <trkpt lat="46.06151" lon="4.71536">
        <ele>192</ele>
        <time>2018-03-04T10:21:03Z</time>
      </trkpt>
      <trkpt lat="46.06156" lon="4.71543">
        <ele>192</ele>
        <time>2018-03-04T10:21:04Z</time>
      </trkpt>
      <trkpt lat="46.06162" lon="4.7155">
        <ele>192</ele>
        <time>2018-03-04T10:21:05Z</time>
      </trkpt>
      <trkpt lat="46.06167" lon="4.71557">
        <ele>191</ele>
        <time>2018-03-04T10:21:06Z</time>
      </trkpt>
      <trkpt lat="46.06172" lon="4.71563">
        <ele>191</ele>
        <time>2018-03-04T10:21:07Z</time>
      </trkpt>
      <trkpt lat="46.06177" lon="4.7157">
        <ele>191</ele>
        <time>2018-03-04T10:21:08Z</time>
      </trkpt>
      <trkpt lat="46.06182" lon="4.71578">
        <ele>191</ele>
        <time>2018-03-04T10:21:09Z</time>
      </trkpt>
      <trkpt lat="46.06187" lon="4.71584">
        <ele>191</ele>
        <time>2018-03-04T10:21:10Z</time>
      </trkpt>
      <trkpt lat="46.06191" lon="4.71592">
        <ele>191</ele>
        <time>2018-03-04T10:21:11Z</time>
      </trkpt>
      <trkpt lat="46.06195" lon="4.71599">
        <ele>191</ele>
        <time>2018-03-04T10:21:12Z</time>
      </trkpt>
      <trkpt lat="46.062" lon="4.71606">
        <ele>191</ele>
        <time>2018-03-04T10:21:13Z</time>
      </trkpt>
      <trkpt lat="46.06205" lon="4.71614">
        <ele>191</ele>
        <time>2018-03-04T10:21:14Z</time>
      </trkpt>
      <trkpt lat="46.06209" lon="4.71621">
        <ele>191</ele>
        <time>2018-03-04T10:21:15Z</time>
      </trkpt>
      <trkpt lat="46.06214" lon="4.71628">
        <ele>191</ele>
        <time>2018-03-04T10:21:16Z</time>
      </trkpt>
      <trkpt lat="46.06218" lon="4.71635">
        <ele>191</ele>
        <time>2018-03-04T10:21:17Z</time>
      </trkpt>
      <trkpt lat="46.06223" lon="4.71643">
        <ele>191</ele>
        <time>2018-03-04T10:21:18Z</time>
      </trkpt>
      <trkpt lat="46.06227" lon="4.7165">
        <ele>191</ele>
        <time>2018-03-04T10:21:19Z</time>
      </trkpt>
      <trkpt lat="46.06231" lon="4.71659">
        <ele>191</ele>
        <time>2018-03-04T10:21:20Z</time>
      </trkpt>
      <trkpt lat="46.06235" lon="4.71666">
        <ele>191</ele>
        <time>2018-03-04T10:21:21Z</time>
      </trkpt>
      <trkpt lat="46.06238" lon="4.71674">
        <ele>191</ele>
        <time>2018-03-04T10:21:22Z</time>
      </trkpt>
      <trkpt lat="46.06241" lon="4.71682">
        <ele>191</ele>
        <time>2018-03-04T10:21:23Z</time>
      </trkpt>
      <trkpt lat="46.06245" lon="4.7169">
        <ele>191</ele>
        <time>2018-03-04T10:21:24Z</time>
      </trkpt>
      <trkpt lat="46.06247" lon="4.71698">
        <ele>191</ele>
        <time>2018-03-04T10:21:25Z</time>
      </trkpt>
      <trkpt lat="46.0625" lon="4.71707">
        <ele>190</ele>
        <time>2018-03-04T10:21:26Z</time>
      </trkpt>
      <trkpt lat="46.06253" lon="4.71715">
        <ele>190</ele>
        <time>2018-03-04T10:21:27Z</time>
      </trkpt>
      <trkpt lat="46.06255" lon="4.71724">
        <ele>190</ele>
        <time>2018-03-04T10:21:28Z</time>
      </trkpt>
      <trkpt lat="46.06259" lon="4.71732">
        <ele>190</ele>
        <time>2018-03-04T10:21:29Z</time>
      </trkpt>
      <trkpt lat="46.06262" lon="4.7174">
        <ele>190</ele>
        <time>2018-03-04T10:21:30Z</time>
      </trkpt>
      <trkpt lat="46.06265" lon="4.71749">
        <ele>190</ele>
        <time>2018-03-04T10:21:31Z</time>
      </trkpt>
      <trkpt lat="46.06268" lon="4.71757">
        <ele>190</ele>
        <time>2018-03-04T10:21:32Z</time>
      </trkpt>
      <trkpt lat="46.06271" lon="4.71767">
        <ele>190</ele>
        <time>2018-03-04T10:21:33Z</time>
      </trkpt>
      <trkpt lat="46.06274" lon="4.71777">
        <ele>190</ele>
        <time>2018-03-04T10:21:34Z</time>
      </trkpt>
      <trkpt lat="46.06276" lon="4.71786">
        <ele>190</ele>
        <time>2018-03-04T10:21:35Z</time>
      </trkpt>
      <trkpt lat="46.0628" lon="4.71795">
        <ele>190</ele>
        <time>2018-03-04T10:21:36Z</time>
      </trkpt>
      <trkpt lat="46.06282" lon="4.71805">
        <ele>190</ele>
        <time>2018-03-04T10:21:37Z</time>
      </trkpt>
      <trkpt lat="46.06285" lon="4.71814">
        <ele>189</ele>
        <time>2018-03-04T10:21:38Z</time>
      </trkpt>
      <trkpt lat="46.06287" lon="4.71824">
        <ele>189</ele>
        <time>2018-03-04T10:21:39Z</time>
      </trkpt>
      <trkpt lat="46.0629" lon="4.71834">
        <ele>189</ele>
        <time>2018-03-04T10:21:40Z</time>
      </trkpt>
      <trkpt lat="46.06292" lon="4.71844">
        <ele>189</ele>
        <time>2018-03-04T10:21:41Z</time>
      </trkpt>
      <trkpt lat="46.06295" lon="4.71855">
        <ele>189</ele>
        <time>2018-03-04T10:21:42Z</time>
      </trkpt>
      <trkpt lat="46.06297" lon="4.71867">
        <ele>189</ele>
        <time>2018-03-04T10:21:43Z</time>
      </trkpt>
      <trkpt lat="46.063" lon="4.71878">
        <ele>189</ele>
        <time>2018-03-04T10:21:44Z</time>
      </trkpt>
      <trkpt lat="46.06302" lon="4.71889">
        <ele>189</ele>
        <time>2018-03-04T10:21:45Z</time>
      </trkpt>
      <trkpt lat="46.06304" lon="4.71901">
        <ele>189</ele>
        <time>2018-03-04T10:21:46Z</time>
      </trkpt>
      <trkpt lat="46.06307" lon="4.7191">
        <ele>189</ele>
        <time>2018-03-04T10:21:47Z</time>
      </trkpt>
      <trkpt lat="46.06309" lon="4.71918">
        <ele>190</ele>
        <time>2018-03-04T10:21:48Z</time>
      </trkpt>
      <trkpt lat="46.06311" lon="4.71927">
        <ele>190</ele>
        <time>2018-03-04T10:21:49Z</time>
      </trkpt>
      <trkpt lat="46.06313" lon="4.71935">
        <ele>190</ele>
        <time>2018-03-04T10:21:50Z</time>
      </trkpt>
      <trkpt lat="46.06315" lon="4.71942">
        <ele>190</ele>
        <time>2018-03-04T10:21:51Z</time>
      </trkpt>
      <trkpt lat="46.06317" lon="4.71949">
        <ele>190</ele>
        <time>2018-03-04T10:21:52Z</time>
      </trkpt>
      <trkpt lat="46.06318" lon="4.71955">
        <ele>190</ele>
        <time>2018-03-04T10:21:53Z</time>
      </trkpt>
      <trkpt lat="46.06319" lon="4.71962">
        <ele>190</ele>
        <time>2018-03-04T10:21:54Z</time>
      </trkpt>
      <trkpt lat="46.06322" lon="4.7197">
        <ele>190</ele>
        <time>2018-03-04T10:21:55Z</time>
      </trkpt>
      <trkpt lat="46.06324" lon="4.71976">
        <ele>190</ele>
        <time>2018-03-04T10:21:56Z</time>
      </trkpt>
      <trkpt lat="46.06327" lon="4.71983">
        <ele>190</ele>
        <time>2018-03-04T10:21:57Z</time>
      </trkpt>
      <trkpt lat="46.06329" lon="4.7199">
        <ele>189</ele>
        <time>2018-03-04T10:21:58Z</time>
      </trkpt>
      <trkpt lat="46.06332" lon="4.71997">
        <ele>189</ele>
        <time>2018-03-04T10:21:59Z</time>
      </trkpt>
      <trkpt lat="46.06334" lon="4.72004">
        <ele>189</ele>
        <time>2018-03-04T10:22:00Z</time>
      </trkpt>
      <trkpt lat="46.06336" lon="4.72013">
        <ele>189</ele>
        <time>2018-03-04T10:22:01Z</time>
      </trkpt>
      <trkpt lat="46.06339" lon="4.72021">
        <ele>189</ele>
        <time>2018-03-04T10:22:02Z</time>
      </trkpt>
      <trkpt lat="46.06341" lon="4.72029">
        <ele>189</ele>
        <time>2018-03-04T10:22:03Z</time>
      </trkpt>
      <trkpt lat="46.06344" lon="4.72037">
        <ele>189</ele>
        <time>2018-03-04T10:22:04Z</time>
      </trkpt>
      <trkpt lat="46.06346" lon="4.72046">
        <ele>189</ele>
        <time>2018-03-04T10:22:05Z</time>
      </trkpt>
      <trkpt lat="46.06349" lon="4.72054">
        <ele>189</ele>
        <time>2018-03-04T10:22:06Z</time>
      </trkpt>
      <trkpt lat="46.06352" lon="4.72062">
        <ele>189</ele>
        <time>2018-03-04T10:22:07Z</time>
      </trkpt>
      <trkpt lat="46.06355" lon="4.7207">
        <ele>189</ele>
        <time>2018-03-04T10:22:08Z</time>
      </trkpt>
      <trkpt lat="46.06357" lon="4.72077">
        <ele>189</ele>
        <time>2018-03-04T10:22:09Z</time>
      </trkpt>
      <trkpt lat="46.06359" lon="4.72084">
        <ele>189</ele>
        <time>2018-03-04T10:22:10Z</time>
      </trkpt>
      <trkpt lat="46.06362" lon="4.72092">
        <ele>189</ele>
        <time>2018-03-04T10:22:11Z</time>
      </trkpt>
      <trkpt lat="46.06364" lon="4.721">
        <ele>189</ele>
        <time>2018-03-04T10:22:12Z</time>
      </trkpt>
      <trkpt lat="46.06367" lon="4.72108">
        <ele>189</ele>
        <time>2018-03-04T10:22:13Z</time>
      </trkpt>
      <trkpt lat="46.0637" lon="4.72115">
        <ele>189</ele>
        <time>2018-03-04T10:22:14Z</time>
      </trkpt>
      <trkpt lat="46.06373" lon="4.72124">
        <ele>189</ele>
        <time>2018-03-04T10:22:15Z</time>
      </trkpt>
      <trkpt lat="46.06376" lon="4.72131">
        <ele>189</ele>
        <time>2018-03-04T10:22:16Z</time>
      </trkpt>
      <trkpt lat="46.06378" lon="4.72138">
        <ele>189</ele>
        <time>2018-03-04T10:22:17Z</time>
      </trkpt>
      <trkpt lat="46.0638" lon="4.72145">
        <ele>189</ele>
        <time>2018-03-04T10:22:18Z</time>
      </trkpt>
      <trkpt lat="46.06383" lon="4.72153">
        <ele>189</ele>
        <time>2018-03-04T10:22:19Z</time>
      </trkpt>
      <trkpt lat="46.06385" lon="4.7216">
        <ele>189</ele>
        <time>2018-03-04T10:22:20Z</time>
      </trkpt>
      <trkpt lat="46.06387" lon="4.72167">
        <ele>189</ele>
        <time>2018-03-04T10:22:21Z</time>
      </trkpt>
      <trkpt lat="46.06388" lon="4.72173">
        <ele>189</ele>
        <time>2018-03-04T10:22:22Z</time>
      </trkpt>
      <trkpt lat="46.0639" lon="4.7218">
        <ele>189</ele>
        <time>2018-03-04T10:22:23Z</time>
      </trkpt>
      <trkpt lat="46.06392" lon="4.72186">
        <ele>189</ele>
        <time>2018-03-04T10:22:24Z</time>
      </trkpt>
      <trkpt lat="46.06393" lon="4.72192">
        <ele>189</ele>
        <time>2018-03-04T10:22:25Z</time>
      </trkpt>
      <trkpt lat="46.06396" lon="4.72198">
        <ele>190</ele>
        <time>2018-03-04T10:22:26Z</time>
      </trkpt>
      <trkpt lat="46.06398" lon="4.72205">
        <ele>190</ele>
        <time>2018-03-04T10:22:27Z</time>
      </trkpt>
      <trkpt lat="46.06401" lon="4.72214">
        <ele>190</ele>
        <time>2018-03-04T10:22:29Z</time>
      </trkpt>
      <trkpt lat="46.06403" lon="4.72221">
        <ele>190</ele>
        <time>2018-03-04T10:22:30Z</time>
      </trkpt>
      <trkpt lat="46.06407" lon="4.7223">
        <ele>190</ele>
        <time>2018-03-04T10:22:32Z</time>
      </trkpt>
      <trkpt lat="46.06409" lon="4.72236">
        <ele>190</ele>
        <time>2018-03-04T10:22:33Z</time>
      </trkpt>
      <trkpt lat="46.06411" lon="4.72247">
        <ele>189</ele>
        <time>2018-03-04T10:22:35Z</time>
      </trkpt>
      <trkpt lat="46.06412" lon="4.72253">
        <ele>190</ele>
        <time>2018-03-04T10:22:36Z</time>
      </trkpt>
      <trkpt lat="46.06413" lon="4.72266">
        <ele>191</ele>
        <time>2018-03-04T10:22:38Z</time>
      </trkpt>
      <trkpt lat="46.06415" lon="4.72272">
        <ele>191</ele>
        <time>2018-03-04T10:22:39Z</time>
      </trkpt>
      <trkpt lat="46.06422" lon="4.72281">
        <ele>190</ele>
        <time>2018-03-04T10:22:41Z</time>
      </trkpt>
      <trkpt lat="46.06427" lon="4.72282">
        <ele>190</ele>
        <time>2018-03-04T10:22:42Z</time>
      </trkpt>
      <trkpt lat="46.06432" lon="4.72284">
        <ele>190</ele>
        <time>2018-03-04T10:22:43Z</time>
      </trkpt>
      <trkpt lat="46.06438" lon="4.72286">
        <ele>190</ele>
        <time>2018-03-04T10:22:44Z</time>
      </trkpt>
      <trkpt lat="46.06443" lon="4.72288">
        <ele>190</ele>
        <time>2018-03-04T10:22:45Z</time>
      </trkpt>
      <trkpt lat="46.06446" lon="4.72294">
        <ele>190</ele>
        <time>2018-03-04T10:22:46Z</time>
      </trkpt>
      <trkpt lat="46.06448" lon="4.72302">
        <ele>190</ele>
        <time>2018-03-04T10:22:47Z</time>
      </trkpt>
      <trkpt lat="46.06449" lon="4.72308">
        <ele>191</ele>
        <time>2018-03-04T10:22:48Z</time>
      </trkpt>
      <trkpt lat="46.06449" lon="4.72311">
        <ele>191</ele>
        <time>2018-03-04T10:22:49Z</time>
      </trkpt>
      <trkpt lat="46.06448" lon="4.72323">
        <ele>191</ele>
        <time>2018-03-04T10:22:50Z</time>
      </trkpt>
      <trkpt lat="46.06445" lon="4.72327">
        <ele>191</ele>
        <time>2018-03-04T10:22:51Z</time>
      </trkpt>
      <trkpt lat="46.06441" lon="4.72334">
        <ele>194</ele>
        <time>2018-03-04T10:22:52Z</time>
      </trkpt>
      <trkpt lat="46.06438" lon="4.72345">
        <ele>194</ele>
        <time>2018-03-04T10:22:54Z</time>
      </trkpt>
      <trkpt lat="46.06436" lon="4.72351">
        <ele>194</ele>
        <time>2018-03-04T10:22:55Z</time>
      </trkpt>
      <trkpt lat="46.06434" lon="4.72361">
        <ele>194</ele>
        <time>2018-03-04T10:22:57Z</time>
      </trkpt>
      <trkpt lat="46.06432" lon="4.72365">
        <ele>194</ele>
        <time>2018-03-04T10:22:58Z</time>
      </trkpt>
      <trkpt lat="46.06429" lon="4.72374">
        <ele>194</ele>
        <time>2018-03-04T10:23:00Z</time>
      </trkpt>
      <trkpt lat="46.06428" lon="4.7238">
        <ele>195</ele>
        <time>2018-03-04T10:23:01Z</time>
      </trkpt>
      <trkpt lat="46.06424" lon="4.72391">
        <ele>195</ele>
        <time>2018-03-04T10:23:03Z</time>
      </trkpt>
      <trkpt lat="46.06423" lon="4.72396">
        <ele>195</ele>
        <time>2018-03-04T10:23:04Z</time>
      </trkpt>
      <trkpt lat="46.06421" lon="4.72402">
        <ele>195</ele>
        <time>2018-03-04T10:23:06Z</time>
      </trkpt>
      <trkpt lat="46.06419" lon="4.72411">
        <ele>196</ele>
        <time>2018-03-04T10:23:07Z</time>
      </trkpt>
      <trkpt lat="46.06414" lon="4.72421">
        <ele>196</ele>
        <time>2018-03-04T10:23:09Z</time>
      </trkpt>
      <trkpt lat="46.06411" lon="4.72427">
        <ele>196</ele>
        <time>2018-03-04T10:23:10Z</time>
      </trkpt>
      <trkpt lat="46.06407" lon="4.72432">
        <ele>197</ele>
        <time>2018-03-04T10:23:11Z</time>
      </trkpt>
      <trkpt lat="46.06406" lon="4.72437">
        <ele>197</ele>
        <time>2018-03-04T10:23:12Z</time>
      </trkpt>
      <trkpt lat="46.06401" lon="4.72445">
        <ele>197</ele>
        <time>2018-03-04T10:23:14Z</time>
      </trkpt>
      <trkpt lat="46.06398" lon="4.72448">
        <ele>197</ele>
        <time>2018-03-04T10:23:15Z</time>
      </trkpt>
      <trkpt lat="46.06394" lon="4.72458">
        <ele>197</ele>
        <time>2018-03-04T10:23:17Z</time>
      </trkpt>
      <trkpt lat="46.06393" lon="4.72464">
        <ele>197</ele>
        <time>2018-03-04T10:23:18Z</time>
      </trkpt>
      <trkpt lat="46.06393" lon="4.72471">
        <ele>197</ele>
        <time>2018-03-04T10:23:19Z</time>
      </trkpt>
      <trkpt lat="46.06395" lon="4.72478">
        <ele>198</ele>
        <time>2018-03-04T10:23:20Z</time>
      </trkpt>
      <trkpt lat="46.06398" lon="4.72485">
        <ele>198</ele>
        <time>2018-03-04T10:23:21Z</time>
      </trkpt>
      <trkpt lat="46.064" lon="4.72492">
        <ele>198</ele>
        <time>2018-03-04T10:23:22Z</time>
      </trkpt>
      <trkpt lat="46.06402" lon="4.72501">
        <ele>198</ele>
        <time>2018-03-04T10:23:23Z</time>
      </trkpt>
      <trkpt lat="46.06404" lon="4.72509">
        <ele>198</ele>
        <time>2018-03-04T10:23:24Z</time>
      </trkpt>
      <trkpt lat="46.06406" lon="4.72518">
        <ele>198</ele>
        <time>2018-03-04T10:23:25Z</time>
      </trkpt>
      <trkpt lat="46.06408" lon="4.72527">
        <ele>197</ele>
        <time>2018-03-04T10:23:26Z</time>
      </trkpt>
      <trkpt lat="46.0641" lon="4.72536">
        <ele>197</ele>
        <time>2018-03-04T10:23:27Z</time>
      </trkpt>
      <trkpt lat="46.06412" lon="4.72545">
        <ele>196</ele>
        <time>2018-03-04T10:23:28Z</time>
      </trkpt>
      <trkpt lat="46.06413" lon="4.72556">
        <ele>196</ele>
        <time>2018-03-04T10:23:29Z</time>
      </trkpt>
      <trkpt lat="46.06415" lon="4.72566">
        <ele>196</ele>
        <time>2018-03-04T10:23:30Z</time>
      </trkpt>
      <trkpt lat="46.06416" lon="4.72576">
        <ele>195</ele>
        <time>2018-03-04T10:23:31Z</time>
      </trkpt>
      <trkpt lat="46.06417" lon="4.72586">
        <ele>195</ele>
        <time>2018-03-04T10:23:32Z</time>
      </trkpt>
      <trkpt lat="46.06419" lon="4.72595">
        <ele>194</ele>
        <time>2018-03-04T10:23:33Z</time>
      </trkpt>
      <trkpt lat="46.06421" lon="4.72605">
        <ele>193</ele>
        <time>2018-03-04T10:23:34Z</time>
      </trkpt>
      <trkpt lat="46.06422" lon="4.72615">
        <ele>193</ele>
        <time>2018-03-04T10:23:35Z</time>
      </trkpt>
      <trkpt lat="46.06424" lon="4.72625">
        <ele>193</ele>
        <time>2018-03-04T10:23:36Z</time>
      </trkpt>
      <trkpt lat="46.06426" lon="4.72636">
        <ele>192</ele>
        <time>2018-03-04T10:23:37Z</time>
      </trkpt>
      <trkpt lat="46.06427" lon="4.72646">
        <ele>192</ele>
        <time>2018-03-04T10:23:38Z</time>
      </trkpt>
      <trkpt lat="46.06428" lon="4.72656">
        <ele>192</ele>
        <time>2018-03-04T10:23:39Z</time>
      </trkpt>
      <trkpt lat="46.0643" lon="4.72665">
        <ele>192</ele>
        <time>2018-03-04T10:23:40Z</time>
      </trkpt>
      <trkpt lat="46.06432" lon="4.72675">
        <ele>191</ele>
        <time>2018-03-04T10:23:41Z</time>
      </trkpt>
      <trkpt lat="46.06434" lon="4.72685">
        <ele>191</ele>
        <time>2018-03-04T10:23:42Z</time>
      </trkpt>
      <trkpt lat="46.06435" lon="4.72695">
        <ele>190</ele>
        <time>2018-03-04T10:23:43Z</time>
      </trkpt>
      <trkpt lat="46.06436" lon="4.72706">
        <ele>190</ele>
        <time>2018-03-04T10:23:44Z</time>
      </trkpt>
      <trkpt lat="46.06439" lon="4.72716">
        <ele>190</ele>
        <time>2018-03-04T10:23:45Z</time>
      </trkpt>
      <trkpt lat="46.06441" lon="4.72726">
        <ele>190</ele>
        <time>2018-03-04T10:23:46Z</time>
      </trkpt>
      <trkpt lat="46.06444" lon="4.72738">
        <ele>189</ele>
        <time>2018-03-04T10:23:47Z</time>
      </trkpt>
      <trkpt lat="46.06445" lon="4.72748">
        <ele>189</ele>
        <time>2018-03-04T10:23:48Z</time>
      </trkpt>
      <trkpt lat="46.06448" lon="4.7276">
        <ele>188</ele>
        <time>2018-03-04T10:23:49Z</time>
      </trkpt>
      <trkpt lat="46.0645" lon="4.7277">
        <ele>188</ele>
        <time>2018-03-04T10:23:50Z</time>
      </trkpt>
      <trkpt lat="46.06451" lon="4.72781">
        <ele>188</ele>
        <time>2018-03-04T10:23:51Z</time>
      </trkpt>
      <trkpt lat="46.06453" lon="4.7279">
        <ele>188</ele>
        <time>2018-03-04T10:23:52Z</time>
      </trkpt>
      <trkpt lat="46.06454" lon="4.72799">
        <ele>188</ele>
        <time>2018-03-04T10:23:53Z</time>
      </trkpt>
      <trkpt lat="46.06456" lon="4.72808">
        <ele>188</ele>
        <time>2018-03-04T10:23:54Z</time>
      </trkpt>
      <trkpt lat="46.06457" lon="4.72817">
        <ele>188</ele>
        <time>2018-03-04T10:23:55Z</time>
      </trkpt>
      <trkpt lat="46.0646" lon="4.72825">
        <ele>188</ele>
        <time>2018-03-04T10:23:56Z</time>
      </trkpt>
      <trkpt lat="46.06462" lon="4.72835">
        <ele>188</ele>
        <time>2018-03-04T10:23:57Z</time>
      </trkpt>
      <trkpt lat="46.06464" lon="4.72844">
        <ele>188</ele>
        <time>2018-03-04T10:23:58Z</time>
      </trkpt>
      <trkpt lat="46.06465" lon="4.72853">
        <ele>188</ele>
        <time>2018-03-04T10:23:59Z</time>
      </trkpt>
      <trkpt lat="46.06468" lon="4.72861">
        <ele>188</ele>
        <time>2018-03-04T10:24:00Z</time>
      </trkpt>
      <trkpt lat="46.06469" lon="4.7287">
        <ele>188</ele>
        <time>2018-03-04T10:24:01Z</time>
      </trkpt>
      <trkpt lat="46.06471" lon="4.72878">
        <ele>188</ele>
        <time>2018-03-04T10:24:02Z</time>
      </trkpt>
      <trkpt lat="46.06472" lon="4.72887">
        <ele>188</ele>
        <time>2018-03-04T10:24:03Z</time>
      </trkpt>
      <trkpt lat="46.06473" lon="4.72896">
        <ele>188</ele>
        <time>2018-03-04T10:24:04Z</time>
      </trkpt>
      <trkpt lat="46.06476" lon="4.72906">
        <ele>188</ele>
        <time>2018-03-04T10:24:05Z</time>
      </trkpt>
      <trkpt lat="46.06478" lon="4.72915">
        <ele>188</ele>
        <time>2018-03-04T10:24:06Z</time>
      </trkpt>
      <trkpt lat="46.06479" lon="4.72923">
        <ele>189</ele>
        <time>2018-03-04T10:24:07Z</time>
      </trkpt>
      <trkpt lat="46.06481" lon="4.72932">
        <ele>188</ele>
        <time>2018-03-04T10:24:08Z</time>
      </trkpt>
      <trkpt lat="46.06482" lon="4.7294">
        <ele>188</ele>
        <time>2018-03-04T10:24:09Z</time>
      </trkpt>
      <trkpt lat="46.06483" lon="4.72949">
        <ele>188</ele>
        <time>2018-03-04T10:24:10Z</time>
      </trkpt>
      <trkpt lat="46.06483" lon="4.72957">
        <ele>188</ele>
        <time>2018-03-04T10:24:11Z</time>
      </trkpt>
      <trkpt lat="46.06481" lon="4.72963">
        <ele>188</ele>
        <time>2018-03-04T10:24:12Z</time>
      </trkpt>
      <trkpt lat="46.06477" lon="4.72975">
        <ele>188</ele>
        <time>2018-03-04T10:24:14Z</time>
      </trkpt>
      <trkpt lat="46.06477" lon="4.72981">
        <ele>188</ele>
        <time>2018-03-04T10:24:15Z</time>
      </trkpt>
      <trkpt lat="46.06478" lon="4.72989">
        <ele>189</ele>
        <time>2018-03-04T10:24:16Z</time>
      </trkpt>
      <trkpt lat="46.06482" lon="4.72995">
        <ele>189</ele>
        <time>2018-03-04T10:24:17Z</time>
      </trkpt>
      <trkpt lat="46.06486" lon="4.72999">
        <ele>189</ele>
        <time>2018-03-04T10:24:18Z</time>
      </trkpt>
      <trkpt lat="46.06491" lon="4.73005">
        <ele>189</ele>
        <time>2018-03-04T10:24:19Z</time>
      </trkpt>
      <trkpt lat="46.06495" lon="4.73011">
        <ele>189</ele>
        <time>2018-03-04T10:24:20Z</time>
      </trkpt>
      <trkpt lat="46.06499" lon="4.73018">
        <ele>189</ele>
        <time>2018-03-04T10:24:21Z</time>
      </trkpt>
      <trkpt lat="46.06502" lon="4.73026">
        <ele>189</ele>
        <time>2018-03-04T10:24:22Z</time>
      </trkpt>
      <trkpt lat="46.06505" lon="4.73034">
        <ele>189</ele>
        <time>2018-03-04T10:24:23Z</time>
      </trkpt>
      <trkpt lat="46.06508" lon="4.73043">
        <ele>189</ele>
        <time>2018-03-04T10:24:24Z</time>
      </trkpt>
      <trkpt lat="46.06512" lon="4.73051">
        <ele>188</ele>
        <time>2018-03-04T10:24:25Z</time>
      </trkpt>
      <trkpt lat="46.06515" lon="4.73059">
        <ele>188</ele>
        <time>2018-03-04T10:24:26Z</time>
      </trkpt>
      <trkpt lat="46.06519" lon="4.73068">
        <ele>188</ele>
        <time>2018-03-04T10:24:27Z</time>
      </trkpt>
      <trkpt lat="46.06522" lon="4.73076">
        <ele>188</ele>
        <time>2018-03-04T10:24:28Z</time>
      </trkpt>
      <trkpt lat="46.06525" lon="4.73086">
        <ele>188</ele>
        <time>2018-03-04T10:24:29Z</time>
      </trkpt>
      <trkpt lat="46.06528" lon="4.73095">
        <ele>188</ele>
        <time>2018-03-04T10:24:30Z</time>
      </trkpt>
      <trkpt lat="46.06532" lon="4.73104">
        <ele>188</ele>
        <time>2018-03-04T10:24:31Z</time>
      </trkpt>
      <trkpt lat="46.06535" lon="4.73113">
        <ele>188</ele>
        <time>2018-03-04T10:24:32Z</time>
      </trkpt>
      <trkpt lat="46.06538" lon="4.73122">
        <ele>188</ele>
        <time>2018-03-04T10:24:33Z</time>
      </trkpt>
      <trkpt lat="46.06541" lon="4.73131">
        <ele>188</ele>
        <time>2018-03-04T10:24:34Z</time>
      </trkpt>
      <trkpt lat="46.06542" lon="4.73142">
        <ele>187</ele>
        <time>2018-03-04T10:24:35Z</time>
      </trkpt>
      <trkpt lat="46.06543" lon="4.7315">
        <ele>187</ele>
        <time>2018-03-04T10:24:36Z</time>
      </trkpt>
      <trkpt lat="46.06543" lon="4.73159">
        <ele>187</ele>
        <time>2018-03-04T10:24:37Z</time>
      </trkpt>
      <trkpt lat="46.06544" lon="4.73169">
        <ele>187</ele>
        <time>2018-03-04T10:24:38Z</time>
      </trkpt>
      <trkpt lat="46.06544" lon="4.73178">
        <ele>187</ele>
        <time>2018-03-04T10:24:39Z</time>
      </trkpt>
      <trkpt lat="46.06546" lon="4.73188">
        <ele>187</ele>
        <time>2018-03-04T10:24:40Z</time>
      </trkpt>
      <trkpt lat="46.06547" lon="4.73198">
        <ele>187</ele>
        <time>2018-03-04T10:24:41Z</time>
      </trkpt>
      <trkpt lat="46.06548" lon="4.73208">
        <ele>186</ele>
        <time>2018-03-04T10:24:42Z</time>
      </trkpt>
      <trkpt lat="46.06551" lon="4.73218">
        <ele>186</ele>
        <time>2018-03-04T10:24:43Z</time>
      </trkpt>
      <trkpt lat="46.06554" lon="4.73227">
        <ele>186</ele>
        <time>2018-03-04T10:24:44Z</time>
      </trkpt>
      <trkpt lat="46.06558" lon="4.73237">
        <ele>186</ele>
        <time>2018-03-04T10:24:45Z</time>
      </trkpt>
      <trkpt lat="46.06561" lon="4.73246">
        <ele>186</ele>
        <time>2018-03-04T10:24:46Z</time>
      </trkpt>
      <trkpt lat="46.06566" lon="4.73255">
        <ele>184</ele>
        <time>2018-03-04T10:24:47Z</time>
      </trkpt>
      <trkpt lat="46.06569" lon="4.73264">
        <ele>184</ele>
        <time>2018-03-04T10:24:48Z</time>
      </trkpt>
      <trkpt lat="46.06573" lon="4.73273">
        <ele>184</ele>
        <time>2018-03-04T10:24:49Z</time>
      </trkpt>
      <trkpt lat="46.06576" lon="4.73283">
        <ele>184</ele>
        <time>2018-03-04T10:24:50Z</time>
      </trkpt>
      <trkpt lat="46.0658" lon="4.73292">
        <ele>184</ele>
        <time>2018-03-04T10:24:51Z</time>
      </trkpt>
      <trkpt lat="46.06582" lon="4.73301">
        <ele>183</ele>
        <time>2018-03-04T10:24:52Z</time>
      </trkpt>
      <trkpt lat="46.06585" lon="4.73309">
        <ele>183</ele>
        <time>2018-03-04T10:24:53Z</time>
      </trkpt>
      <trkpt lat="46.06587" lon="4.73318">
        <ele>182</ele>
        <time>2018-03-04T10:24:54Z</time>
      </trkpt>
      <trkpt lat="46.06589" lon="4.73327">
        <ele>182</ele>
        <time>2018-03-04T10:24:55Z</time>
      </trkpt>
      <trkpt lat="46.06593" lon="4.73334">
        <ele>182</ele>
        <time>2018-03-04T10:24:56Z</time>
      </trkpt>
      <trkpt lat="46.06598" lon="4.73339">
        <ele>182</ele>
        <time>2018-03-04T10:24:57Z</time>
      </trkpt>
      <trkpt lat="46.06604" lon="4.73344">
        <ele>182</ele>
        <time>2018-03-04T10:24:58Z</time>
      </trkpt>
      <trkpt lat="46.06611" lon="4.73348">
        <ele>182</ele>
        <time>2018-03-04T10:24:59Z</time>
      </trkpt>
      <trkpt lat="46.06617" lon="4.73352">
        <ele>182</ele>
        <time>2018-03-04T10:25:00Z</time>
      </trkpt>
      <trkpt lat="46.06624" lon="4.73357">
        <ele>182</ele>
        <time>2018-03-04T10:25:01Z</time>
      </trkpt>
      <trkpt lat="46.06631" lon="4.73361">
        <ele>182</ele>
        <time>2018-03-04T10:25:02Z</time>
      </trkpt>
      <trkpt lat="46.06637" lon="4.73366">
        <ele>182</ele>
        <time>2018-03-04T10:25:03Z</time>
      </trkpt>
      <trkpt lat="46.06644" lon="4.73371">
        <ele>182</ele>
        <time>2018-03-04T10:25:04Z</time>
      </trkpt>
      <trkpt lat="46.0665" lon="4.73379">
        <ele>182</ele>
        <time>2018-03-04T10:25:05Z</time>
      </trkpt>
      <trkpt lat="46.06657" lon="4.73387">
        <ele>182</ele>
        <time>2018-03-04T10:25:06Z</time>
      </trkpt>
      <trkpt lat="46.06663" lon="4.73394">
        <ele>182</ele>
        <time>2018-03-04T10:25:07Z</time>
      </trkpt>
      <trkpt lat="46.06669" lon="4.73404">
        <ele>181</ele>
        <time>2018-03-04T10:25:08Z</time>
      </trkpt>
      <trkpt lat="46.06675" lon="4.73411">
        <ele>181</ele>
        <time>2018-03-04T10:25:09Z</time>
      </trkpt>
      <trkpt lat="46.0668" lon="4.7342">
        <ele>181</ele>
        <time>2018-03-04T10:25:10Z</time>
      </trkpt>
      <trkpt lat="46.06686" lon="4.73428">
        <ele>181</ele>
        <time>2018-03-04T10:25:11Z</time>
      </trkpt>
      <trkpt lat="46.06692" lon="4.73436">
        <ele>181</ele>
        <time>2018-03-04T10:25:12Z</time>
      </trkpt>
      <trkpt lat="46.06697" lon="4.73445">
        <ele>180</ele>
        <time>2018-03-04T10:25:13Z</time>
      </trkpt>
      <trkpt lat="46.06702" lon="4.73453">
        <ele>180</ele>
        <time>2018-03-04T10:25:14Z</time>
      </trkpt>
      <trkpt lat="46.06707" lon="4.73461">
        <ele>180</ele>
        <time>2018-03-04T10:25:15Z</time>
      </trkpt>
      <trkpt lat="46.06712" lon="4.73468">
        <ele>180</ele>
        <time>2018-03-04T10:25:16Z</time>
      </trkpt>
      <trkpt lat="46.06717" lon="4.73476">
        <ele>180</ele>
        <time>2018-03-04T10:25:17Z</time>
      </trkpt>
      <trkpt lat="46.06723" lon="4.73483">
        <ele>180</ele>
        <time>2018-03-04T10:25:18Z</time>
      </trkpt>
      <trkpt lat="46.06728" lon="4.73489">
        <ele>180</ele>
        <time>2018-03-04T10:25:19Z</time>
      </trkpt>
      <trkpt lat="46.06732" lon="4.73497">
        <ele>180</ele>
        <time>2018-03-04T10:25:20Z</time>
      </trkpt>
      <trkpt lat="46.06737" lon="4.73504">
        <ele>180</ele>
        <time>2018-03-04T10:25:21Z</time>
      </trkpt>
      <trkpt lat="46.06741" lon="4.73511">
        <ele>180</ele>
        <time>2018-03-04T10:25:22Z</time>
      </trkpt>
      <trkpt lat="46.06745" lon="4.73519">
        <ele>180</ele>
        <time>2018-03-04T10:25:23Z</time>
      </trkpt>
      <trkpt lat="46.06749" lon="4.73527">
        <ele>180</ele>
        <time>2018-03-04T10:25:24Z</time>
      </trkpt>
      <trkpt lat="46.06755" lon="4.73535">
        <ele>179</ele>
        <time>2018-03-04T10:25:25Z</time>
      </trkpt>
      <trkpt lat="46.0676" lon="4.73543">
        <ele>179</ele>
        <time>2018-03-04T10:25:26Z</time>
      </trkpt>
      <trkpt lat="46.06765" lon="4.73552">
        <ele>179</ele>
        <time>2018-03-04T10:25:27Z</time>
      </trkpt>
      <trkpt lat="46.06769" lon="4.73561">
        <ele>180</ele>
        <time>2018-03-04T10:25:28Z</time>
      </trkpt>
      <trkpt lat="46.06773" lon="4.7357">
        <ele>180</ele>
        <time>2018-03-04T10:25:29Z</time>
      </trkpt>
      <trkpt lat="46.06777" lon="4.73579">
        <ele>180</ele>
        <time>2018-03-04T10:25:30Z</time>
      </trkpt>
      <trkpt lat="46.06783" lon="4.73586">
        <ele>179</ele>
        <time>2018-03-04T10:25:31Z</time>
      </trkpt>
      <trkpt lat="46.06788" lon="4.73594">
        <ele>179</ele>
        <time>2018-03-04T10:25:32Z</time>
      </trkpt>
      <trkpt lat="46.06795" lon="4.73601">
        <ele>179</ele>
        <time>2018-03-04T10:25:33Z</time>
      </trkpt>
      <trkpt lat="46.068" lon="4.73609">
        <ele>178</ele>
        <time>2018-03-04T10:25:34Z</time>
      </trkpt>
      <trkpt lat="46.06806" lon="4.73616">
        <ele>178</ele>
        <time>2018-03-04T10:25:35Z</time>
      </trkpt>
      <trkpt lat="46.06811" lon="4.73623">
        <ele>178</ele>
        <time>2018-03-04T10:25:36Z</time>
      </trkpt>
      <trkpt lat="46.06817" lon="4.7363">
        <ele>178</ele>
        <time>2018-03-04T10:25:37Z</time>
      </trkpt>
      <trkpt lat="46.06822" lon="4.73636">
        <ele>178</ele>
        <time>2018-03-04T10:25:38Z</time>
      </trkpt>
      <trkpt lat="46.06828" lon="4.73644">
        <ele>177</ele>
        <time>2018-03-04T10:25:39Z</time>
      </trkpt>
      <trkpt lat="46.06835" lon="4.7365">
        <ele>176</ele>
        <time>2018-03-04T10:25:40Z</time>
      </trkpt>
      <trkpt lat="46.0684" lon="4.73656">
        <ele>176</ele>
        <time>2018-03-04T10:25:41Z</time>
      </trkpt>
      <trkpt lat="46.06846" lon="4.73662">
        <ele>176</ele>
        <time>2018-03-04T10:25:42Z</time>
      </trkpt>
      <trkpt lat="46.06852" lon="4.73668">
        <ele>176</ele>
        <time>2018-03-04T10:25:43Z</time>
      </trkpt>
      <trkpt lat="46.06857" lon="4.73673">
        <ele>176</ele>
        <time>2018-03-04T10:25:44Z</time>
      </trkpt>
      <trkpt lat="46.06863" lon="4.7368">
        <ele>176</ele>
        <time>2018-03-04T10:25:45Z</time>
      </trkpt>
      <trkpt lat="46.06869" lon="4.73686">
        <ele>176</ele>
        <time>2018-03-04T10:25:46Z</time>
      </trkpt>
      <trkpt lat="46.06874" lon="4.73692">
        <ele>176</ele>
        <time>2018-03-04T10:25:47Z</time>
      </trkpt>
      <trkpt lat="46.0688" lon="4.73698">
        <ele>176</ele>
        <time>2018-03-04T10:25:48Z</time>
      </trkpt>
      <trkpt lat="46.06885" lon="4.73705">
        <ele>176</ele>
        <time>2018-03-04T10:25:49Z</time>
      </trkpt>
      <trkpt lat="46.0689" lon="4.73711">
        <ele>176</ele>
        <time>2018-03-04T10:25:50Z</time>
      </trkpt>
      <trkpt lat="46.06895" lon="4.73719">
        <ele>176</ele>
        <time>2018-03-04T10:25:51Z</time>
      </trkpt>
      <trkpt lat="46.06897" lon="4.73725">
        <ele>176</ele>
        <time>2018-03-04T10:25:52Z</time>
      </trkpt>
      <trkpt lat="46.06902" lon="4.73732">
        <ele>177</ele>
        <time>2018-03-04T10:25:53Z</time>
      </trkpt>
      <trkpt lat="46.06907" lon="4.73739">
        <ele>177</ele>
        <time>2018-03-04T10:25:54Z</time>
      </trkpt>
      <trkpt lat="46.06911" lon="4.73746">
        <ele>177</ele>
        <time>2018-03-04T10:25:55Z</time>
      </trkpt>
      <trkpt lat="46.06917" lon="4.73753">
        <ele>177</ele>
        <time>2018-03-04T10:25:56Z</time>
      </trkpt>
      <trkpt lat="46.06922" lon="4.73759">
        <ele>177</ele>
        <time>2018-03-04T10:25:57Z</time>
      </trkpt>
      <trkpt lat="46.06926" lon="4.73764">
        <ele>177</ele>
        <time>2018-03-04T10:25:58Z</time>
      </trkpt>
      <trkpt lat="46.06932" lon="4.73769">
        <ele>176</ele>
        <time>2018-03-04T10:25:59Z</time>
      </trkpt>
      <trkpt lat="46.06938" lon="4.73773">
        <ele>176</ele>
        <time>2018-03-04T10:26:00Z</time>
      </trkpt>
      <trkpt lat="46.06945" lon="4.73777">
        <ele>176</ele>
        <time>2018-03-04T10:26:01Z</time>
      </trkpt>
      <trkpt lat="46.06951" lon="4.73779">
        <ele>176</ele>
        <time>2018-03-04T10:26:02Z</time>
      </trkpt>
      <trkpt lat="46.06957" lon="4.73782">
        <ele>176</ele>
        <time>2018-03-04T10:26:03Z</time>
      </trkpt>
      <trkpt lat="46.06963" lon="4.73784">
        <ele>176</ele>
        <time>2018-03-04T10:26:04Z</time>
      </trkpt>
      <trkpt lat="46.0697" lon="4.73786">
        <ele>176</ele>
        <time>2018-03-04T10:26:05Z</time>
      </trkpt>
      <trkpt lat="46.06976" lon="4.73787">
        <ele>176</ele>
        <time>2018-03-04T10:26:06Z</time>
      </trkpt>
      <trkpt lat="46.06983" lon="4.73789">
        <ele>176</ele>
        <time>2018-03-04T10:26:07Z</time>
      </trkpt>
      <trkpt lat="46.0699" lon="4.73789">
        <ele>176</ele>
        <time>2018-03-04T10:26:08Z</time>
      </trkpt>
      <trkpt lat="46.06998" lon="4.7379">
        <ele>176</ele>
        <time>2018-03-04T10:26:09Z</time>
      </trkpt>
      <trkpt lat="46.07005" lon="4.73791">
        <ele>177</ele>
        <time>2018-03-04T10:26:10Z</time>
      </trkpt>
      <trkpt lat="46.07012" lon="4.73792">
        <ele>177</ele>
        <time>2018-03-04T10:26:11Z</time>
      </trkpt>
      <trkpt lat="46.07019" lon="4.73793">
        <ele>177</ele>
        <time>2018-03-04T10:26:12Z</time>
      </trkpt>
      <trkpt lat="46.07026" lon="4.73794">
        <ele>177</ele>
        <time>2018-03-04T10:26:13Z</time>
      </trkpt>
      <trkpt lat="46.07033" lon="4.73795">
        <ele>177</ele>
        <time>2018-03-04T10:26:14Z</time>
      </trkpt>
      <trkpt lat="46.07039" lon="4.73796">
        <ele>177</ele>
        <time>2018-03-04T10:26:15Z</time>
      </trkpt>
      <trkpt lat="46.07047" lon="4.73798">
        <ele>177</ele>
        <time>2018-03-04T10:26:16Z</time>
      </trkpt>
      <trkpt lat="46.07055" lon="4.738">
        <ele>177</ele>
        <time>2018-03-04T10:26:17Z</time>
      </trkpt>
      <trkpt lat="46.07063" lon="4.73803">
        <ele>178</ele>
        <time>2018-03-04T10:26:18Z</time>
      </trkpt>
      <trkpt lat="46.07069" lon="4.73805">
        <ele>178</ele>
        <time>2018-03-04T10:26:19Z</time>
      </trkpt>
      <trkpt lat="46.07077" lon="4.73809">
        <ele>178</ele>
        <time>2018-03-04T10:26:20Z</time>
      </trkpt>
      <trkpt lat="46.07084" lon="4.73812">
        <ele>178</ele>
        <time>2018-03-04T10:26:21Z</time>
      </trkpt>
      <trkpt lat="46.07091" lon="4.73816">
        <ele>178</ele>
        <time>2018-03-04T10:26:22Z</time>
      </trkpt>
      <trkpt lat="46.07097" lon="4.73821">
        <ele>178</ele>
        <time>2018-03-04T10:26:23Z</time>
      </trkpt>
      <trkpt lat="46.07104" lon="4.73828">
        <ele>178</ele>
        <time>2018-03-04T10:26:24Z</time>
      </trkpt>
      <trkpt lat="46.07112" lon="4.73834">
        <ele>177</ele>
        <time>2018-03-04T10:26:25Z</time>
      </trkpt>
      <trkpt lat="46.07118" lon="4.73841">
        <ele>177</ele>
        <time>2018-03-04T10:26:26Z</time>
      </trkpt>
      <trkpt lat="46.07123" lon="4.73848">
        <ele>177</ele>
        <time>2018-03-04T10:26:27Z</time>
      </trkpt>
      <trkpt lat="46.07129" lon="4.73856">
        <ele>176</ele>
        <time>2018-03-04T10:26:28Z</time>
      </trkpt>
      <trkpt lat="46.07135" lon="4.73863">
        <ele>176</ele>
        <time>2018-03-04T10:26:29Z</time>
      </trkpt>
      <trkpt lat="46.0714" lon="4.73872">
        <ele>176</ele>
        <time>2018-03-04T10:26:30Z</time>
      </trkpt>
      <trkpt lat="46.07144" lon="4.73881">
        <ele>176</ele>
        <time>2018-03-04T10:26:31Z</time>
      </trkpt>
      <trkpt lat="46.07148" lon="4.7389">
        <ele>177</ele>
        <time>2018-03-04T10:26:32Z</time>
      </trkpt>
      <trkpt lat="46.07151" lon="4.739">
        <ele>177</ele>
        <time>2018-03-04T10:26:33Z</time>
      </trkpt>
      <trkpt lat="46.07154" lon="4.7391">
        <ele>177</ele>
        <time>2018-03-04T10:26:34Z</time>
      </trkpt>
      <trkpt lat="46.07157" lon="4.73921">
        <ele>177</ele>
        <time>2018-03-04T10:26:35Z</time>
      </trkpt>
      <trkpt lat="46.0716" lon="4.7393">
        <ele>177</ele>
        <time>2018-03-04T10:26:36Z</time>
      </trkpt>
      <trkpt lat="46.07163" lon="4.73939">
        <ele>177</ele>
        <time>2018-03-04T10:26:37Z</time>
      </trkpt>
      <trkpt lat="46.07166" lon="4.73948">
        <ele>177</ele>
        <time>2018-03-04T10:26:38Z</time>
      </trkpt>
      <trkpt lat="46.0717" lon="4.73957">
        <ele>177</ele>
        <time>2018-03-04T10:26:39Z</time>
      </trkpt>
      <trkpt lat="46.07173" lon="4.73967">
        <ele>178</ele>
        <time>2018-03-04T10:26:40Z</time>
      </trkpt>
      <trkpt lat="46.07176" lon="4.73976">
        <ele>178</ele>
        <time>2018-03-04T10:26:41Z</time>
      </trkpt>
      <trkpt lat="46.07179" lon="4.73984">
        <ele>178</ele>
        <time>2018-03-04T10:26:42Z</time>
      </trkpt>
      <trkpt lat="46.07182" lon="4.73992">
        <ele>178</ele>
        <time>2018-03-04T10:26:43Z</time>
      </trkpt>
      <trkpt lat="46.07185" lon="4.74">
        <ele>178</ele>
        <time>2018-03-04T10:26:44Z</time>
      </trkpt>
      <trkpt lat="46.07188" lon="4.74007">
        <ele>178</ele>
        <time>2018-03-04T10:26:45Z</time>
      </trkpt>
      <trkpt lat="46.07191" lon="4.74013">
        <ele>178</ele>
        <time>2018-03-04T10:26:46Z</time>
      </trkpt>
      <trkpt lat="46.07193" lon="4.7402">
        <ele>178</ele>
        <time>2018-03-04T10:26:47Z</time>
      </trkpt>
      <trkpt lat="46.07195" lon="4.74027">
        <ele>178</ele>
        <time>2018-03-04T10:26:48Z</time>
      </trkpt>
      <trkpt lat="46.07197" lon="4.74032">
        <ele>178</ele>
        <time>2018-03-04T10:26:49Z</time>
      </trkpt>
      <trkpt lat="46.07199" lon="4.74039">
        <ele>178</ele>
        <time>2018-03-04T10:26:50Z</time>
      </trkpt>
      <trkpt lat="46.07202" lon="4.74045">
        <ele>178</ele>
        <time>2018-03-04T10:26:51Z</time>
      </trkpt>
      <trkpt lat="46.07204" lon="4.74052">
        <ele>178</ele>
        <time>2018-03-04T10:26:52Z</time>
      </trkpt>
      <trkpt lat="46.07205" lon="4.74058">
        <ele>178</ele>
        <time>2018-03-04T10:26:53Z</time>
      </trkpt>
      <trkpt lat="46.0721" lon="4.74068">
        <ele>177</ele>
        <time>2018-03-04T10:26:55Z</time>
      </trkpt>
      <trkpt lat="46.07212" lon="4.74073">
        <ele>177</ele>
        <time>2018-03-04T10:26:56Z</time>
      </trkpt>
      <trkpt lat="46.07213" lon="4.7408">
        <ele>177</ele>
        <time>2018-03-04T10:26:57Z</time>
      </trkpt>
      <trkpt lat="46.07215" lon="4.74086">
        <ele>177</ele>
        <time>2018-03-04T10:26:58Z</time>
      </trkpt>
      <trkpt lat="46.07218" lon="4.74097">
        <ele>177</ele>
        <time>2018-03-04T10:27:00Z</time>
      </trkpt>
      <trkpt lat="46.0722" lon="4.74103">
        <ele>177</ele>
        <time>2018-03-04T10:27:01Z</time>
      </trkpt>
      <trkpt lat="46.07223" lon="4.74113">
        <ele>177</ele>
        <time>2018-03-04T10:27:03Z</time>
      </trkpt>
      <trkpt lat="46.07225" lon="4.7412">
        <ele>177</ele>
        <time>2018-03-04T10:27:04Z</time>
      </trkpt>
      <trkpt lat="46.07227" lon="4.74127">
        <ele>177</ele>
        <time>2018-03-04T10:27:05Z</time>
      </trkpt>
      <trkpt lat="46.0723" lon="4.74135">
        <ele>177</ele>
        <time>2018-03-04T10:27:06Z</time>
      </trkpt>
      <trkpt lat="46.07232" lon="4.74142">
        <ele>177</ele>
        <time>2018-03-04T10:27:07Z</time>
      </trkpt>
      <trkpt lat="46.07235" lon="4.74149">
        <ele>177</ele>
        <time>2018-03-04T10:27:08Z</time>
      </trkpt>
      <trkpt lat="46.07238" lon="4.74156">
        <ele>177</ele>
        <time>2018-03-04T10:27:09Z</time>
      </trkpt>
      <trkpt lat="46.07241" lon="4.74164">
        <ele>177</ele>
        <time>2018-03-04T10:27:10Z</time>
      </trkpt>
      <trkpt lat="46.07244" lon="4.74172">
        <ele>177</ele>
        <time>2018-03-04T10:27:11Z</time>
      </trkpt>
      <trkpt lat="46.07247" lon="4.7418">
        <ele>176</ele>
        <time>2018-03-04T10:27:12Z</time>
      </trkpt>
      <trkpt lat="46.0725" lon="4.7419">
        <ele>176</ele>
        <time>2018-03-04T10:27:13Z</time>
      </trkpt>
      <trkpt lat="46.07254" lon="4.74199">
        <ele>176</ele>
        <time>2018-03-04T10:27:14Z</time>
      </trkpt>
      <trkpt lat="46.07257" lon="4.74209">
        <ele>176</ele>
        <time>2018-03-04T10:27:15Z</time>
      </trkpt>
      <trkpt lat="46.07261" lon="4.74219">
        <ele>176</ele>
        <time>2018-03-04T10:27:16Z</time>
      </trkpt>
      <trkpt lat="46.07265" lon="4.7423">
        <ele>176</ele>
        <time>2018-03-04T10:27:17Z</time>
      </trkpt>
      <trkpt lat="46.07268" lon="4.7424">
        <ele>175</ele>
        <time>2018-03-04T10:27:18Z</time>
      </trkpt>
      <trkpt lat="46.07272" lon="4.74251">
        <ele>175</ele>
        <time>2018-03-04T10:27:19Z</time>
      </trkpt>
      <trkpt lat="46.07276" lon="4.74262">
        <ele>175</ele>
        <time>2018-03-04T10:27:20Z</time>
      </trkpt>
      <trkpt lat="46.0728" lon="4.74274">
        <ele>175</ele>
        <time>2018-03-04T10:27:21Z</time>
      </trkpt>
      <trkpt lat="46.07284" lon="4.74286">
        <ele>175</ele>
        <time>2018-03-04T10:27:22Z</time>
      </trkpt>
      <trkpt lat="46.07286" lon="4.74298">
        <ele>174</ele>
        <time>2018-03-04T10:27:23Z</time>
      </trkpt>
      <trkpt lat="46.07289" lon="4.74311">
        <ele>174</ele>
        <time>2018-03-04T10:27:24Z</time>
      </trkpt>
      <trkpt lat="46.07291" lon="4.74323">
        <ele>174</ele>
        <time>2018-03-04T10:27:25Z</time>
      </trkpt>
      <trkpt lat="46.07293" lon="4.74336">
        <ele>174</ele>
        <time>2018-03-04T10:27:26Z</time>
      </trkpt>
      <trkpt lat="46.07294" lon="4.74348">
        <ele>174</ele>
        <time>2018-03-04T10:27:27Z</time>
      </trkpt>
      <trkpt lat="46.07295" lon="4.7436">
        <ele>174</ele>
        <time>2018-03-04T10:27:28Z</time>
      </trkpt>
      <trkpt lat="46.07296" lon="4.74372">
        <ele>174</ele>
        <time>2018-03-04T10:27:29Z</time>
      </trkpt>
      <trkpt lat="46.07297" lon="4.74384">
        <ele>174</ele>
        <time>2018-03-04T10:27:30Z</time>
      </trkpt>
      <trkpt lat="46.07299" lon="4.74396">
        <ele>174</ele>
        <time>2018-03-04T10:27:31Z</time>
      </trkpt>
      <trkpt lat="46.073" lon="4.74407">
        <ele>174</ele>
        <time>2018-03-04T10:27:32Z</time>
      </trkpt>
      <trkpt lat="46.07302" lon="4.74417">
        <ele>175</ele>
        <time>2018-03-04T10:27:33Z</time>
      </trkpt>
      <trkpt lat="46.07303" lon="4.74426">
        <ele>175</ele>
        <time>2018-03-04T10:27:34Z</time>
      </trkpt>
      <trkpt lat="46.07304" lon="4.74436">
        <ele>175</ele>
        <time>2018-03-04T10:27:35Z</time>
      </trkpt>
      <trkpt lat="46.07306" lon="4.74447">
        <ele>175</ele>
        <time>2018-03-04T10:27:36Z</time>
      </trkpt>
      <trkpt lat="46.07308" lon="4.74455">
        <ele>175</ele>
        <time>2018-03-04T10:27:37Z</time>
      </trkpt>
      <trkpt lat="46.07311" lon="4.74466">
        <ele>175</ele>
        <time>2018-03-04T10:27:38Z</time>
      </trkpt>
      <trkpt lat="46.07314" lon="4.74475">
        <ele>175</ele>
        <time>2018-03-04T10:27:39Z</time>
      </trkpt>
      <trkpt lat="46.07318" lon="4.74484">
        <ele>175</ele>
        <time>2018-03-04T10:27:40Z</time>
      </trkpt>
      <trkpt lat="46.07322" lon="4.74492">
        <ele>175</ele>
        <time>2018-03-04T10:27:41Z</time>
      </trkpt>
      <trkpt lat="46.07325" lon="4.745">
        <ele>176</ele>
        <time>2018-03-04T10:27:42Z</time>
      </trkpt>
      <trkpt lat="46.07329" lon="4.74508">
        <ele>176</ele>
        <time>2018-03-04T10:27:43Z</time>
      </trkpt>
      <trkpt lat="46.07334" lon="4.74517">
        <ele>175</ele>
        <time>2018-03-04T10:27:44Z</time>
      </trkpt>
      <trkpt lat="46.07339" lon="4.74524">
        <ele>175</ele>
        <time>2018-03-04T10:27:45Z</time>
      </trkpt>
      <trkpt lat="46.07343" lon="4.74532">
        <ele>175</ele>
        <time>2018-03-04T10:27:46Z</time>
      </trkpt>
      <trkpt lat="46.07349" lon="4.7454">
        <ele>175</ele>
        <time>2018-03-04T10:27:47Z</time>
      </trkpt>
      <trkpt lat="46.07355" lon="4.74547">
        <ele>175</ele>
        <time>2018-03-04T10:27:48Z</time>
      </trkpt>
      <trkpt lat="46.07361" lon="4.74555">
        <ele>175</ele>
        <time>2018-03-04T10:27:49Z</time>
      </trkpt>
      <trkpt lat="46.07366" lon="4.74563">
        <ele>175</ele>
        <time>2018-03-04T10:27:50Z</time>
      </trkpt>
      <trkpt lat="46.0737" lon="4.74572">
        <ele>175</ele>
        <time>2018-03-04T10:27:51Z</time>
      </trkpt>
      <trkpt lat="46.07375" lon="4.74584">
        <ele>175</ele>
        <time>2018-03-04T10:27:52Z</time>
      </trkpt>
      <trkpt lat="46.07379" lon="4.74593">
        <ele>174</ele>
        <time>2018-03-04T10:27:53Z</time>
      </trkpt>
      <trkpt lat="46.07383" lon="4.74602">
        <ele>174</ele>
        <time>2018-03-04T10:27:54Z</time>
      </trkpt>
      <trkpt lat="46.07387" lon="4.74611">
        <ele>174</ele>
        <time>2018-03-04T10:27:55Z</time>
      </trkpt>
      <trkpt lat="46.07391" lon="4.7462">
        <ele>174</ele>
        <time>2018-03-04T10:27:56Z</time>
      </trkpt>
      <trkpt lat="46.07395" lon="4.74629">
        <ele>174</ele>
        <time>2018-03-04T10:27:57Z</time>
      </trkpt>
      <trkpt lat="46.07399" lon="4.74636">
        <ele>174</ele>
        <time>2018-03-04T10:27:58Z</time>
      </trkpt>
      <trkpt lat="46.07403" lon="4.74645">
        <ele>173</ele>
        <time>2018-03-04T10:27:59Z</time>
      </trkpt>
      <trkpt lat="46.07407" lon="4.74652">
        <ele>173</ele>
        <time>2018-03-04T10:28:00Z</time>
      </trkpt>
      <trkpt lat="46.0741" lon="4.74661">
        <ele>173</ele>
        <time>2018-03-04T10:28:01Z</time>
      </trkpt>
      <trkpt lat="46.07415" lon="4.74669">
        <ele>172</ele>
        <time>2018-03-04T10:28:02Z</time>
      </trkpt>
      <trkpt lat="46.07419" lon="4.74676">
        <ele>172</ele>
        <time>2018-03-04T10:28:03Z</time>
      </trkpt>
      <trkpt lat="46.07423" lon="4.74683">
        <ele>172</ele>
        <time>2018-03-04T10:28:04Z</time>
      </trkpt>
      <trkpt lat="46.07427" lon="4.74691">
        <ele>173</ele>
        <time>2018-03-04T10:28:05Z</time>
      </trkpt>
      <trkpt lat="46.07432" lon="4.74698">
        <ele>173</ele>
        <time>2018-03-04T10:28:06Z</time>
      </trkpt>
      <trkpt lat="46.07436" lon="4.74706">
        <ele>173</ele>
        <time>2018-03-04T10:28:07Z</time>
      </trkpt>
      <trkpt lat="46.0744" lon="4.74714">
        <ele>173</ele>
        <time>2018-03-04T10:28:08Z</time>
      </trkpt>
      <trkpt lat="46.07443" lon="4.74722">
        <ele>173</ele>
        <time>2018-03-04T10:28:09Z</time>
      </trkpt>
      <trkpt lat="46.07446" lon="4.74729">
        <ele>173</ele>
        <time>2018-03-04T10:28:10Z</time>
      </trkpt>
      <trkpt lat="46.0745" lon="4.74736">
        <ele>173</ele>
        <time>2018-03-04T10:28:11Z</time>
      </trkpt>
      <trkpt lat="46.07454" lon="4.74743">
        <ele>173</ele>
        <time>2018-03-04T10:28:12Z</time>
      </trkpt>
      <trkpt lat="46.07458" lon="4.74749">
        <ele>173</ele>
        <time>2018-03-04T10:28:13Z</time>
      </trkpt>
      <trkpt lat="46.07463" lon="4.74754">
        <ele>173</ele>
        <time>2018-03-04T10:28:14Z</time>
      </trkpt>
      <trkpt lat="46.07467" lon="4.7476">
        <ele>173</ele>
        <time>2018-03-04T10:28:15Z</time>
      </trkpt>
      <trkpt lat="46.07471" lon="4.74765">
        <ele>173</ele>
        <time>2018-03-04T10:28:16Z</time>
      </trkpt>
      <trkpt lat="46.07476" lon="4.74771">
        <ele>173</ele>
        <time>2018-03-04T10:28:17Z</time>
      </trkpt>
      <trkpt lat="46.07482" lon="4.74775">
        <ele>173</ele>
        <time>2018-03-04T10:28:18Z</time>
      </trkpt>
      <trkpt lat="46.07488" lon="4.74781">
        <ele>173</ele>
        <time>2018-03-04T10:28:19Z</time>
      </trkpt>
      <trkpt lat="46.07493" lon="4.74785">
        <ele>173</ele>
        <time>2018-03-04T10:28:20Z</time>
      </trkpt>
      <trkpt lat="46.07499" lon="4.7479">
        <ele>173</ele>
        <time>2018-03-04T10:28:21Z</time>
      </trkpt>
      <trkpt lat="46.07505" lon="4.74796">
        <ele>172</ele>
        <time>2018-03-04T10:28:22Z</time>
      </trkpt>
      <trkpt lat="46.07511" lon="4.74802">
        <ele>172</ele>
        <time>2018-03-04T10:28:23Z</time>
      </trkpt>
      <trkpt lat="46.07517" lon="4.74807">
        <ele>172</ele>
        <time>2018-03-04T10:28:24Z</time>
      </trkpt>
      <trkpt lat="46.07524" lon="4.74812">
        <ele>172</ele>
        <time>2018-03-04T10:28:25Z</time>
      </trkpt>
      <trkpt lat="46.0753" lon="4.74816">
        <ele>172</ele>
        <time>2018-03-04T10:28:26Z</time>
      </trkpt>
      <trkpt lat="46.07536" lon="4.74821">
        <ele>172</ele>
        <time>2018-03-04T10:28:27Z</time>
      </trkpt>
      <trkpt lat="46.07542" lon="4.74826">
        <ele>172</ele>
        <time>2018-03-04T10:28:28Z</time>
      </trkpt>
      <trkpt lat="46.07548" lon="4.74831">
        <ele>172</ele>
        <time>2018-03-04T10:28:29Z</time>
      </trkpt>
      <trkpt lat="46.07555" lon="4.74836">
        <ele>171</ele>
        <time>2018-03-04T10:28:30Z</time>
      </trkpt>
      <trkpt lat="46.07561" lon="4.7484">
        <ele>171</ele>
        <time>2018-03-04T10:28:31Z</time>
      </trkpt>
      <trkpt lat="46.07568" lon="4.74845">
        <ele>171</ele>
        <time>2018-03-04T10:28:32Z</time>
      </trkpt>
      <trkpt lat="46.07574" lon="4.7485">
        <ele>171</ele>
        <time>2018-03-04T10:28:33Z</time>
      </trkpt>
      <trkpt lat="46.0758" lon="4.74855">
        <ele>171</ele>
        <time>2018-03-04T10:28:34Z</time>
      </trkpt>
      <trkpt lat="46.07586" lon="4.74861">
        <ele>171</ele>
        <time>2018-03-04T10:28:35Z</time>
      </trkpt>
      <trkpt lat="46.07593" lon="4.74867">
        <ele>171</ele>
        <time>2018-03-04T10:28:36Z</time>
      </trkpt>
      <trkpt lat="46.07599" lon="4.74871">
        <ele>171</ele>
        <time>2018-03-04T10:28:37Z</time>
      </trkpt>
      <trkpt lat="46.07605" lon="4.74875">
        <ele>171</ele>
        <time>2018-03-04T10:28:38Z</time>
      </trkpt>
      <trkpt lat="46.07611" lon="4.74881">
        <ele>171</ele>
        <time>2018-03-04T10:28:39Z</time>
      </trkpt>
      <trkpt lat="46.07617" lon="4.74886">
        <ele>171</ele>
        <time>2018-03-04T10:28:40Z</time>
      </trkpt>
      <trkpt lat="46.07623" lon="4.7489">
        <ele>171</ele>
        <time>2018-03-04T10:28:41Z</time>
      </trkpt>
      <trkpt lat="46.07629" lon="4.74895">
        <ele>171</ele>
        <time>2018-03-04T10:28:42Z</time>
      </trkpt>
      <trkpt lat="46.07635" lon="4.749">
        <ele>171</ele>
        <time>2018-03-04T10:28:43Z</time>
      </trkpt>
      <trkpt lat="46.07642" lon="4.74905">
        <ele>171</ele>
        <time>2018-03-04T10:28:44Z</time>
      </trkpt>
      <trkpt lat="46.07648" lon="4.7491">
        <ele>171</ele>
        <time>2018-03-04T10:28:45Z</time>
      </trkpt>
      <trkpt lat="46.07654" lon="4.74915">
        <ele>172</ele>
        <time>2018-03-04T10:28:46Z</time>
      </trkpt>
      <trkpt lat="46.0766" lon="4.74921">
        <ele>172</ele>
        <time>2018-03-04T10:28:47Z</time>
      </trkpt>
      <trkpt lat="46.07666" lon="4.74926">
        <ele>172</ele>
        <time>2018-03-04T10:28:48Z</time>
      </trkpt>
      <trkpt lat="46.07672" lon="4.74932">
        <ele>172</ele>
        <time>2018-03-04T10:28:49Z</time>
      </trkpt>
      <trkpt lat="46.07678" lon="4.74936">
        <ele>172</ele>
        <time>2018-03-04T10:28:50Z</time>
      </trkpt>
      <trkpt lat="46.07685" lon="4.74941">
        <ele>172</ele>
        <time>2018-03-04T10:28:51Z</time>
      </trkpt>
      <trkpt lat="46.07691" lon="4.74946">
        <ele>172</ele>
        <time>2018-03-04T10:28:52Z</time>
      </trkpt>
      <trkpt lat="46.07696" lon="4.74951">
        <ele>172</ele>
        <time>2018-03-04T10:28:53Z</time>
      </trkpt>
      <trkpt lat="46.07703" lon="4.74956">
        <ele>172</ele>
        <time>2018-03-04T10:28:54Z</time>
      </trkpt>
      <trkpt lat="46.07709" lon="4.74962">
        <ele>172</ele>
        <time>2018-03-04T10:28:55Z</time>
      </trkpt>
      <trkpt lat="46.07715" lon="4.74966">
        <ele>172</ele>
        <time>2018-03-04T10:28:56Z</time>
      </trkpt>
      <trkpt lat="46.07721" lon="4.74971">
        <ele>172</ele>
        <time>2018-03-04T10:28:57Z</time>
      </trkpt>
      <trkpt lat="46.07727" lon="4.74976">
        <ele>172</ele>
        <time>2018-03-04T10:28:58Z</time>
      </trkpt>
      <trkpt lat="46.07733" lon="4.74981">
        <ele>172</ele>
        <time>2018-03-04T10:28:59Z</time>
      </trkpt>
      <trkpt lat="46.07739" lon="4.74986">
        <ele>173</ele>
        <time>2018-03-04T10:29:00Z</time>
      </trkpt>
      <trkpt lat="46.07745" lon="4.7499">
        <ele>173</ele>
        <time>2018-03-04T10:29:01Z</time>
      </trkpt>
      <trkpt lat="46.07751" lon="4.74995">
        <ele>173</ele>
        <time>2018-03-04T10:29:02Z</time>
      </trkpt>
      <trkpt lat="46.07757" lon="4.75">
        <ele>173</ele>
        <time>2018-03-04T10:29:03Z</time>
      </trkpt>
      <trkpt lat="46.07763" lon="4.75004">
        <ele>172</ele>
        <time>2018-03-04T10:29:04Z</time>
      </trkpt>
      <trkpt lat="46.07769" lon="4.75009">
        <ele>172</ele>
        <time>2018-03-04T10:29:05Z</time>
      </trkpt>
      <trkpt lat="46.07775" lon="4.75014">
        <ele>172</ele>
        <time>2018-03-04T10:29:06Z</time>
      </trkpt>
      <trkpt lat="46.0778" lon="4.75019">
        <ele>172</ele>
        <time>2018-03-04T10:29:07Z</time>
      </trkpt>
      <trkpt lat="46.07786" lon="4.75023">
        <ele>172</ele>
        <time>2018-03-04T10:29:08Z</time>
      </trkpt>
      <trkpt lat="46.07793" lon="4.75028">
        <ele>171</ele>
        <time>2018-03-04T10:29:09Z</time>
      </trkpt>
      <trkpt lat="46.07799" lon="4.75034">
        <ele>171</ele>
        <time>2018-03-04T10:29:10Z</time>
      </trkpt>
      <trkpt lat="46.07805" lon="4.75039">
        <ele>171</ele>
        <time>2018-03-04T10:29:11Z</time>
      </trkpt>
      <trkpt lat="46.0781" lon="4.75045">
        <ele>171</ele>
        <time>2018-03-04T10:29:12Z</time>
      </trkpt>
      <trkpt lat="46.07815" lon="4.7505">
        <ele>171</ele>
        <time>2018-03-04T10:29:13Z</time>
      </trkpt>
      <trkpt lat="46.07821" lon="4.75055">
        <ele>171</ele>
        <time>2018-03-04T10:29:14Z</time>
      </trkpt>
      <trkpt lat="46.07827" lon="4.75061">
        <ele>171</ele>
        <time>2018-03-04T10:29:15Z</time>
      </trkpt>
      <trkpt lat="46.07833" lon="4.75068">
        <ele>171</ele>
        <time>2018-03-04T10:29:16Z</time>
      </trkpt>
      <trkpt lat="46.07838" lon="4.75074">
        <ele>171</ele>
        <time>2018-03-04T10:29:17Z</time>
      </trkpt>
      <trkpt lat="46.07842" lon="4.75081">
        <ele>171</ele>
        <time>2018-03-04T10:29:18Z</time>
      </trkpt>
      <trkpt lat="46.07847" lon="4.75088">
        <ele>171</ele>
        <time>2018-03-04T10:29:19Z</time>
      </trkpt>
      <trkpt lat="46.07852" lon="4.75095">
        <ele>171</ele>
        <time>2018-03-04T10:29:20Z</time>
      </trkpt>
      <trkpt lat="46.07856" lon="4.75103">
        <ele>171</ele>
        <time>2018-03-04T10:29:21Z</time>
      </trkpt>
      <trkpt lat="46.07861" lon="4.75109">
        <ele>171</ele>
        <time>2018-03-04T10:29:22Z</time>
      </trkpt>
      <trkpt lat="46.07865" lon="4.75116">
        <ele>171</ele>
        <time>2018-03-04T10:29:23Z</time>
      </trkpt>
      <trkpt lat="46.0787" lon="4.75123">
        <ele>171</ele>
        <time>2018-03-04T10:29:24Z</time>
      </trkpt>
      <trkpt lat="46.07874" lon="4.75131">
        <ele>171</ele>
        <time>2018-03-04T10:29:25Z</time>
      </trkpt>
      <trkpt lat="46.07878" lon="4.75139">
        <ele>171</ele>
        <time>2018-03-04T10:29:26Z</time>
      </trkpt>
      <trkpt lat="46.07882" lon="4.75146">
        <ele>171</ele>
        <time>2018-03-04T10:29:27Z</time>
      </trkpt>
      <trkpt lat="46.07887" lon="4.75153">
        <ele>171</ele>
        <time>2018-03-04T10:29:28Z</time>
      </trkpt>
      <trkpt lat="46.07891" lon="4.75159">
        <ele>171</ele>
        <time>2018-03-04T10:29:29Z</time>
      </trkpt>
      <trkpt lat="46.07895" lon="4.75166">
        <ele>171</ele>
        <time>2018-03-04T10:29:30Z</time>
      </trkpt>
      <trkpt lat="46.07899" lon="4.75174">
        <ele>171</ele>
        <time>2018-03-04T10:29:31Z</time>
      </trkpt>
      <trkpt lat="46.07903" lon="4.75181">
        <ele>171</ele>
        <time>2018-03-04T10:29:32Z</time>
      </trkpt>
      <trkpt lat="46.07906" lon="4.75188">
        <ele>171</ele>
        <time>2018-03-04T10:29:33Z</time>
      </trkpt>
      <trkpt lat="46.07909" lon="4.75195">
        <ele>171</ele>
        <time>2018-03-04T10:29:34Z</time>
      </trkpt>
      <trkpt lat="46.07914" lon="4.75203">
        <ele>171</ele>
        <time>2018-03-04T10:29:35Z</time>
      </trkpt>
      <trkpt lat="46.07918" lon="4.75211">
        <ele>171</ele>
        <time>2018-03-04T10:29:36Z</time>
      </trkpt>
      <trkpt lat="46.07922" lon="4.75218">
        <ele>171</ele>
        <time>2018-03-04T10:29:37Z</time>
      </trkpt>
      <trkpt lat="46.07926" lon="4.75226">
        <ele>171</ele>
        <time>2018-03-04T10:29:38Z</time>
      </trkpt>
      <trkpt lat="46.07928" lon="4.75232">
        <ele>170</ele>
        <time>2018-03-04T10:29:39Z</time>
      </trkpt>
      <trkpt lat="46.07932" lon="4.7524">
        <ele>170</ele>
        <time>2018-03-04T10:29:40Z</time>
      </trkpt>
      <trkpt lat="46.07937" lon="4.75247">
        <ele>170</ele>
        <time>2018-03-04T10:29:41Z</time>
      </trkpt>
      <trkpt lat="46.0794" lon="4.75257">
        <ele>170</ele>
        <time>2018-03-04T10:29:42Z</time>
      </trkpt>
      <trkpt lat="46.07944" lon="4.75266">
        <ele>169</ele>
        <time>2018-03-04T10:29:43Z</time>
      </trkpt>
      <trkpt lat="46.07947" lon="4.75274">
        <ele>169</ele>
        <time>2018-03-04T10:29:44Z</time>
      </trkpt>
      <trkpt lat="46.07951" lon="4.75282">
        <ele>169</ele>
        <time>2018-03-04T10:29:45Z</time>
      </trkpt>
      <trkpt lat="46.07954" lon="4.7529">
        <ele>169</ele>
        <time>2018-03-04T10:29:46Z</time>
      </trkpt>
      <trkpt lat="46.07958" lon="4.75298">
        <ele>169</ele>
        <time>2018-03-04T10:29:47Z</time>
      </trkpt>
      <trkpt lat="46.07962" lon="4.75305">
        <ele>169</ele>
        <time>2018-03-04T10:29:48Z</time>
      </trkpt>
      <trkpt lat="46.07966" lon="4.75313">
        <ele>169</ele>
        <time>2018-03-04T10:29:49Z</time>
      </trkpt>
      <trkpt lat="46.07969" lon="4.7532">
        <ele>169</ele>
        <time>2018-03-04T10:29:50Z</time>
      </trkpt>
      <trkpt lat="46.07973" lon="4.75328">
        <ele>169</ele>
        <time>2018-03-04T10:29:51Z</time>
      </trkpt>
      <trkpt lat="46.07976" lon="4.75335">
        <ele>168</ele>
        <time>2018-03-04T10:29:52Z</time>
      </trkpt>
      <trkpt lat="46.0798" lon="4.75343">
        <ele>168</ele>
        <time>2018-03-04T10:29:53Z</time>
      </trkpt>
      <trkpt lat="46.07982" lon="4.7535">
        <ele>168</ele>
        <time>2018-03-04T10:29:54Z</time>
      </trkpt>
      <trkpt lat="46.07986" lon="4.75356">
        <ele>168</ele>
        <time>2018-03-04T10:29:55Z</time>
      </trkpt>
      <trkpt lat="46.07989" lon="4.75363">
        <ele>168</ele>
        <time>2018-03-04T10:29:56Z</time>
      </trkpt>
      <trkpt lat="46.07992" lon="4.75369">
        <ele>168</ele>
        <time>2018-03-04T10:29:57Z</time>
      </trkpt>
      <trkpt lat="46.07995" lon="4.75375">
        <ele>168</ele>
        <time>2018-03-04T10:29:58Z</time>
      </trkpt>
      <trkpt lat="46.07999" lon="4.75382">
        <ele>167</ele>
        <time>2018-03-04T10:29:59Z</time>
      </trkpt>
      <trkpt lat="46.08002" lon="4.75388">
        <ele>167</ele>
        <time>2018-03-04T10:30:00Z</time>
      </trkpt>
      <trkpt lat="46.08006" lon="4.75397">
        <ele>167</ele>
        <time>2018-03-04T10:30:02Z</time>
      </trkpt>
      <trkpt lat="46.08008" lon="4.75403">
        <ele>166</ele>
        <time>2018-03-04T10:30:03Z</time>
      </trkpt>
      <trkpt lat="46.08011" lon="4.7541">
        <ele>166</ele>
        <time>2018-03-04T10:30:06Z</time>
      </trkpt>
      <trkpt lat="46.08015" lon="4.75418">
        <ele>166</ele>
        <time>2018-03-04T10:30:07Z</time>
      </trkpt>
      <trkpt lat="46.0802" lon="4.75427">
        <ele>166</ele>
        <time>2018-03-04T10:30:10Z</time>
      </trkpt>
      <trkpt lat="46.08021" lon="4.75429">
        <ele>166</ele>
        <time>2018-03-04T10:30:11Z</time>
      </trkpt>
      <trkpt lat="46.08025" lon="4.75436">
        <ele>166</ele>
        <time>2018-03-04T10:30:12Z</time>
      </trkpt>
      <trkpt lat="46.08027" lon="4.75442">
        <ele>166</ele>
        <time>2018-03-04T10:30:13Z</time>
      </trkpt>
      <trkpt lat="46.0803" lon="4.75452">
        <ele>166</ele>
        <time>2018-03-04T10:30:15Z</time>
      </trkpt>
      <trkpt lat="46.08031" lon="4.75454">
        <ele>166</ele>
        <time>2018-03-04T10:30:16Z</time>
      </trkpt>
      <trkpt lat="46.08034" lon="4.7546">
        <ele>166</ele>
        <time>2018-03-04T10:30:17Z</time>
      </trkpt>
      <trkpt lat="46.08037" lon="4.75465">
        <ele>166</ele>
        <time>2018-03-04T10:30:18Z</time>
      </trkpt>
      <trkpt lat="46.08039" lon="4.7547">
        <ele>166</ele>
        <time>2018-03-04T10:30:20Z</time>
      </trkpt>
      <trkpt lat="46.08043" lon="4.75483">
        <ele>166</ele>
        <time>2018-03-04T10:30:21Z</time>
      </trkpt>
      <trkpt lat="46.08046" lon="4.75491">
        <ele>166</ele>
        <time>2018-03-04T10:30:23Z</time>
      </trkpt>
      <trkpt lat="46.0805" lon="4.755">
        <ele>167</ele>
        <time>2018-03-04T10:30:24Z</time>
      </trkpt>
      <trkpt lat="46.08053" lon="4.75507">
        <ele>167</ele>
        <time>2018-03-04T10:30:25Z</time>
      </trkpt>
      <trkpt lat="46.08057" lon="4.75516">
        <ele>167</ele>
        <time>2018-03-04T10:30:26Z</time>
      </trkpt>
      <trkpt lat="46.08061" lon="4.75523">
        <ele>168</ele>
        <time>2018-03-04T10:30:27Z</time>
      </trkpt>
      <trkpt lat="46.08065" lon="4.7553">
        <ele>168</ele>
        <time>2018-03-04T10:30:28Z</time>
      </trkpt>
      <trkpt lat="46.08069" lon="4.75538">
        <ele>168</ele>
        <time>2018-03-04T10:30:29Z</time>
      </trkpt>
      <trkpt lat="46.08072" lon="4.75545">
        <ele>169</ele>
        <time>2018-03-04T10:30:30Z</time>
      </trkpt>
      <trkpt lat="46.08075" lon="4.75551">
        <ele>169</ele>
        <time>2018-03-04T10:30:31Z</time>
      </trkpt>
      <trkpt lat="46.08078" lon="4.75558">
        <ele>170</ele>
        <time>2018-03-04T10:30:32Z</time>
      </trkpt>
      <trkpt lat="46.08084" lon="4.75567">
        <ele>173</ele>
        <time>2018-03-04T10:30:34Z</time>
      </trkpt>
      <trkpt lat="46.08087" lon="4.75572">
        <ele>173</ele>
        <time>2018-03-04T10:30:35Z</time>
      </trkpt>
      <trkpt lat="46.08087" lon="4.75584">
        <ele>174</ele>
        <time>2018-03-04T10:30:39Z</time>
      </trkpt>
      <trkpt lat="46.08084" lon="4.75588">
        <ele>174</ele>
        <time>2018-03-04T10:30:40Z</time>
      </trkpt>
      <trkpt lat="46.08077" lon="4.75596">
        <ele>173</ele>
        <time>2018-03-04T10:30:43Z</time>
      </trkpt>
      <trkpt lat="46.08076" lon="4.75598">
        <ele>173</ele>
        <time>2018-03-04T10:30:44Z</time>
      </trkpt>
      <trkpt lat="46.08069" lon="4.75604">
        <ele>173</ele>
        <time>2018-03-04T10:30:48Z</time>
      </trkpt>
      <trkpt lat="46.08067" lon="4.75605">
        <ele>173</ele>
        <time>2018-03-04T10:30:49Z</time>
      </trkpt>
      <trkpt lat="46.0806" lon="4.75609">
        <ele>173</ele>
        <time>2018-03-04T10:30:53Z</time>
      </trkpt>
      <trkpt lat="46.08058" lon="4.75611">
        <ele>173</ele>
        <time>2018-03-04T10:30:54Z</time>
      </trkpt>
      <trkpt lat="46.0805" lon="4.75616">
        <ele>173</ele>
        <time>2018-03-04T10:31:00Z</time>
      </trkpt>
      <trkpt lat="46.0805" lon="4.75617">
        <ele>173</ele>
        <time>2018-03-04T10:31:01Z</time>
      </trkpt>
      <trkpt lat="46.08049" lon="4.75615">
        <ele>173</ele>
        <time>2018-03-04T10:32:25Z</time>
      </trkpt>
      <trkpt lat="46.08048" lon="4.75615">
        <ele>173</ele>
        <time>2018-03-04T10:32:26Z</time>
      </trkpt>
      <trkpt lat="46.08046" lon="4.75617">
        <ele>173</ele>
        <time>2018-03-04T10:39:05Z</time>
      </trkpt>
      <trkpt lat="46.08046" lon="4.75617">
        <ele>173</ele>
        <time>2018-03-04T10:39:06Z</time>
      </trkpt>
      <trkpt lat="46.0804" lon="4.75621">
        <ele>173</ele>
        <time>2018-03-04T10:39:27Z</time>
      </trkpt>
      <trkpt lat="46.0804" lon="4.75621">
        <ele>173</ele>
        <time>2018-03-04T10:39:28Z</time>
      </trkpt>
      <trkpt lat="46.08039" lon="4.75623">
        <ele>173</ele>
        <time>2018-03-04T10:42:17Z</time>
      </trkpt>
      <trkpt lat="46.08039" lon="4.75623">
        <ele>173</ele>
        <time>2018-03-04T10:42:18Z</time>
      </trkpt>
      <trkpt lat="46.08042" lon="4.75624">
        <ele>173</ele>
        <time>2018-03-04T10:43:18Z</time>
      </trkpt>
      <trkpt lat="46.08042" lon="4.75624">
        <ele>173</ele>
        <time>2018-03-04T10:43:19Z</time>
      </trkpt>
      <trkpt lat="46.08039" lon="4.75623">
        <ele>173</ele>
        <time>2018-03-04T10:45:43Z</time>
      </trkpt>
      <trkpt lat="46.08039" lon="4.75623">
        <ele>173</ele>
        <time>2018-03-04T10:45:44Z</time>
      </trkpt>
      <trkpt lat="46.08038" lon="4.75634">
        <ele>173</ele>
        <time>2018-03-04T10:46:55Z</time>
      </trkpt>
      <trkpt lat="46.08037" lon="4.75636">
        <ele>173</ele>
        <time>2018-03-04T10:46:56Z</time>
      </trkpt>
      <trkpt lat="46.08031" lon="4.75646">
        <ele>174</ele>
        <time>2018-03-04T10:47:01Z</time>
      </trkpt>
      <trkpt lat="46.08029" lon="4.75647">
        <ele>174</ele>
        <time>2018-03-04T10:47:02Z</time>
      </trkpt>
      <trkpt lat="46.08022" lon="4.75651">
        <ele>174</ele>
        <time>2018-03-04T10:47:05Z</time>
      </trkpt>
      <trkpt lat="46.0802" lon="4.75651">
        <ele>174</ele>
        <time>2018-03-04T10:47:06Z</time>
      </trkpt>
      <trkpt lat="46.08015" lon="4.75652">
        <ele>174</ele>
        <time>2018-03-04T10:47:08Z</time>
      </trkpt>
      <trkpt lat="46.08008" lon="4.75654">
        <ele>174</ele>
        <time>2018-03-04T10:47:09Z</time>
      </trkpt>
      <trkpt lat="46.08001" lon="4.7566">
        <ele>175</ele>
        <time>2018-03-04T10:47:13Z</time>
      </trkpt>
      <trkpt lat="46.07999" lon="4.75662">
        <ele>175</ele>
        <time>2018-03-04T10:47:14Z</time>
      </trkpt>
      <trkpt lat="46.07992" lon="4.75669">
        <ele>175</ele>
        <time>2018-03-04T10:47:17Z</time>
      </trkpt>
      <trkpt lat="46.0799" lon="4.75672">
        <ele>175</ele>
        <time>2018-03-04T10:47:18Z</time>
      </trkpt>
      <trkpt lat="46.07984" lon="4.75676">
        <ele>174</ele>
        <time>2018-03-04T10:47:20Z</time>
      </trkpt>
      <trkpt lat="46.0798" lon="4.75678">
        <ele>174</ele>
        <time>2018-03-04T10:47:21Z</time>
      </trkpt>
      <trkpt lat="46.07977" lon="4.75681">
        <ele>174</ele>
        <time>2018-03-04T10:47:22Z</time>
      </trkpt>
      <trkpt lat="46.07968" lon="4.75689">
        <ele>173</ele>
        <time>2018-03-04T10:47:23Z</time>
      </trkpt>
      <trkpt lat="46.07963" lon="4.75695">
        <ele>173</ele>
        <time>2018-03-04T10:47:26Z</time>
      </trkpt>
      <trkpt lat="46.07961" lon="4.75697">
        <ele>173</ele>
        <time>2018-03-04T10:47:27Z</time>
      </trkpt>
      <trkpt lat="46.07954" lon="4.75704">
        <ele>173</ele>
        <time>2018-03-04T10:47:28Z</time>
      </trkpt>
      <trkpt lat="46.07951" lon="4.75707">
        <ele>173</ele>
        <time>2018-03-04T10:47:29Z</time>
      </trkpt>
      <trkpt lat="46.07945" lon="4.75713">
        <ele>173</ele>
        <time>2018-03-04T10:47:31Z</time>
      </trkpt>
      <trkpt lat="46.07943" lon="4.75715">
        <ele>173</ele>
        <time>2018-03-04T10:47:32Z</time>
      </trkpt>
      <trkpt lat="46.07939" lon="4.7572">
        <ele>173</ele>
        <time>2018-03-04T10:47:33Z</time>
      </trkpt>
      <trkpt lat="46.07936" lon="4.75723">
        <ele>173</ele>
        <time>2018-03-04T10:47:34Z</time>
      </trkpt>
      <trkpt lat="46.07929" lon="4.7573">
        <ele>173</ele>
        <time>2018-03-04T10:47:36Z</time>
      </trkpt>
      <trkpt lat="46.07926" lon="4.75734">
        <ele>173</ele>
        <time>2018-03-04T10:47:37Z</time>
      </trkpt>
      <trkpt lat="46.0792" lon="4.75742">
        <ele>173</ele>
        <time>2018-03-04T10:47:40Z</time>
      </trkpt>
      <trkpt lat="46.07915" lon="4.75748">
        <ele>172</ele>
        <time>2018-03-04T10:47:41Z</time>
      </trkpt>
      <trkpt lat="46.07909" lon="4.75754">
        <ele>172</ele>
        <time>2018-03-04T10:47:43Z</time>
      </trkpt>
      <trkpt lat="46.07905" lon="4.75757">
        <ele>172</ele>
        <time>2018-03-04T10:47:44Z</time>
      </trkpt>
      <trkpt lat="46.07898" lon="4.75762">
        <ele>172</ele>
        <time>2018-03-04T10:47:46Z</time>
      </trkpt>
      <trkpt lat="46.07895" lon="4.75765">
        <ele>172</ele>
        <time>2018-03-04T10:47:47Z</time>
      </trkpt>
      <trkpt lat="46.07888" lon="4.75771">
        <ele>172</ele>
        <time>2018-03-04T10:47:49Z</time>
      </trkpt>
      <trkpt lat="46.07884" lon="4.75774">
        <ele>171</ele>
        <time>2018-03-04T10:47:50Z</time>
      </trkpt>
      <trkpt lat="46.07877" lon="4.75781">
        <ele>171</ele>
        <time>2018-03-04T10:47:52Z</time>
      </trkpt>
      <trkpt lat="46.07873" lon="4.75785">
        <ele>171</ele>
        <time>2018-03-04T10:47:53Z</time>
      </trkpt>
      <trkpt lat="46.07866" lon="4.75792">
        <ele>171</ele>
        <time>2018-03-04T10:47:55Z</time>
      </trkpt>
      <trkpt lat="46.07862" lon="4.75795">
        <ele>171</ele>
        <time>2018-03-04T10:47:56Z</time>
      </trkpt>
      <trkpt lat="46.07855" lon="4.75801">
        <ele>171</ele>
        <time>2018-03-04T10:47:58Z</time>
      </trkpt>
      <trkpt lat="46.07852" lon="4.75805">
        <ele>172</ele>
        <time>2018-03-04T10:47:59Z</time>
      </trkpt>
      <trkpt lat="46.07846" lon="4.75812">
        <ele>172</ele>
        <time>2018-03-04T10:48:01Z</time>
      </trkpt>
      <trkpt lat="46.07842" lon="4.75815">
        <ele>172</ele>
        <time>2018-03-04T10:48:02Z</time>
      </trkpt>
      <trkpt lat="46.07836" lon="4.75822">
        <ele>172</ele>
        <time>2018-03-04T10:48:04Z</time>
      </trkpt>
      <trkpt lat="46.07833" lon="4.75825">
        <ele>172</ele>
        <time>2018-03-04T10:48:05Z</time>
      </trkpt>
      <trkpt lat="46.07828" lon="4.75833">
        <ele>172</ele>
        <time>2018-03-04T10:48:07Z</time>
      </trkpt>
      <trkpt lat="46.07825" lon="4.75836">
        <ele>173</ele>
        <time>2018-03-04T10:48:08Z</time>
      </trkpt>
      <trkpt lat="46.07819" lon="4.75844">
        <ele>172</ele>
        <time>2018-03-04T10:48:10Z</time>
      </trkpt>
      <trkpt lat="46.07815" lon="4.75848">
        <ele>172</ele>
        <time>2018-03-04T10:48:11Z</time>
      </trkpt>
      <trkpt lat="46.07808" lon="4.75854">
        <ele>172</ele>
        <time>2018-03-04T10:48:13Z</time>
      </trkpt>
      <trkpt lat="46.07805" lon="4.75857">
        <ele>172</ele>
        <time>2018-03-04T10:48:14Z</time>
      </trkpt>
      <trkpt lat="46.07798" lon="4.75864">
        <ele>172</ele>
        <time>2018-03-04T10:48:16Z</time>
      </trkpt>
      <trkpt lat="46.07794" lon="4.75867">
        <ele>172</ele>
        <time>2018-03-04T10:48:17Z</time>
      </trkpt>
      <trkpt lat="46.07787" lon="4.75874">
        <ele>172</ele>
        <time>2018-03-04T10:48:19Z</time>
      </trkpt>
      <trkpt lat="46.07784" lon="4.75877">
        <ele>172</ele>
        <time>2018-03-04T10:48:20Z</time>
      </trkpt>
      <trkpt lat="46.07777" lon="4.75884">
        <ele>172</ele>
        <time>2018-03-04T10:48:22Z</time>
      </trkpt>
      <trkpt lat="46.07773" lon="4.75887">
        <ele>172</ele>
        <time>2018-03-04T10:48:23Z</time>
      </trkpt>
      <trkpt lat="46.07766" lon="4.75894">
        <ele>173</ele>
        <time>2018-03-04T10:48:25Z</time>
      </trkpt>
      <trkpt lat="46.07762" lon="4.75897">
        <ele>173</ele>
        <time>2018-03-04T10:48:26Z</time>
      </trkpt>
      <trkpt lat="46.07755" lon="4.75903">
        <ele>173</ele>
        <time>2018-03-04T10:48:28Z</time>
      </trkpt>
      <trkpt lat="46.07751" lon="4.75906">
        <ele>173</ele>
        <time>2018-03-04T10:48:29Z</time>
      </trkpt>
      <trkpt lat="46.07743" lon="4.75912">
        <ele>172</ele>
        <time>2018-03-04T10:48:31Z</time>
      </trkpt>
      <trkpt lat="46.07739" lon="4.75915">
        <ele>172</ele>
        <time>2018-03-04T10:48:32Z</time>
      </trkpt>
      <trkpt lat="46.07731" lon="4.75921">
        <ele>173</ele>
        <time>2018-03-04T10:48:34Z</time>
      </trkpt>
      <trkpt lat="46.07727" lon="4.75924">
        <ele>173</ele>
        <time>2018-03-04T10:48:35Z</time>
      </trkpt>
      <trkpt lat="46.07719" lon="4.7593">
        <ele>172</ele>
        <time>2018-03-04T10:48:37Z</time>
      </trkpt>
      <trkpt lat="46.07716" lon="4.75933">
        <ele>172</ele>
        <time>2018-03-04T10:48:38Z</time>
      </trkpt>
      <trkpt lat="46.07708" lon="4.75939">
        <ele>172</ele>
        <time>2018-03-04T10:48:40Z</time>
      </trkpt>
      <trkpt lat="46.07704" lon="4.75942">
        <ele>172</ele>
        <time>2018-03-04T10:48:41Z</time>
      </trkpt>
      <trkpt lat="46.07697" lon="4.75948">
        <ele>172</ele>
        <time>2018-03-04T10:48:43Z</time>
      </trkpt>
      <trkpt lat="46.07693" lon="4.7595">
        <ele>172</ele>
        <time>2018-03-04T10:48:44Z</time>
      </trkpt>
      <trkpt lat="46.07686" lon="4.75956">
        <ele>172</ele>
        <time>2018-03-04T10:48:46Z</time>
      </trkpt>
      <trkpt lat="46.07682" lon="4.75959">
        <ele>172</ele>
        <time>2018-03-04T10:48:47Z</time>
      </trkpt>
      <trkpt lat="46.07678" lon="4.75963">
        <ele>172</ele>
        <time>2018-03-04T10:48:48Z</time>
      </trkpt>
      <trkpt lat="46.07674" lon="4.75966">
        <ele>172</ele>
        <time>2018-03-04T10:48:49Z</time>
      </trkpt>
      <trkpt lat="46.0767" lon="4.75969">
        <ele>172</ele>
        <time>2018-03-04T10:48:50Z</time>
      </trkpt>
      <trkpt lat="46.07666" lon="4.75972">
        <ele>170</ele>
        <time>2018-03-04T10:48:51Z</time>
      </trkpt>
      <trkpt lat="46.07662" lon="4.75975">
        <ele>170</ele>
        <time>2018-03-04T10:48:52Z</time>
      </trkpt>
      <trkpt lat="46.07657" lon="4.75978">
        <ele>170</ele>
        <time>2018-03-04T10:48:53Z</time>
      </trkpt>
      <trkpt lat="46.0765" lon="4.75985">
        <ele>170</ele>
        <time>2018-03-04T10:48:55Z</time>
      </trkpt>
      <trkpt lat="46.07646" lon="4.75989">
        <ele>170</ele>
        <time>2018-03-04T10:48:56Z</time>
      </trkpt>
      <trkpt lat="46.07644" lon="4.75999">
        <ele>170</ele>
        <time>2018-03-04T10:48:58Z</time>
      </trkpt>
      <trkpt lat="46.07644" lon="4.76005">
        <ele>172</ele>
        <time>2018-03-04T10:48:59Z</time>
      </trkpt>
      <trkpt lat="46.07648" lon="4.76016">
        <ele>172</ele>
        <time>2018-03-04T10:49:01Z</time>
      </trkpt>
      <trkpt lat="46.07649" lon="4.76018">
        <ele>172</ele>
        <time>2018-03-04T10:49:02Z</time>
      </trkpt>
      <trkpt lat="46.07653" lon="4.76027">
        <ele>172</ele>
        <time>2018-03-04T10:49:05Z</time>
      </trkpt>
      <trkpt lat="46.07658" lon="4.76037">
        <ele>172</ele>
        <time>2018-03-04T10:49:06Z</time>
      </trkpt>
      <trkpt lat="46.07663" lon="4.76046">
        <ele>172</ele>
        <time>2018-03-04T10:49:08Z</time>
      </trkpt>
      <trkpt lat="46.07664" lon="4.76048">
        <ele>172</ele>
        <time>2018-03-04T10:49:09Z</time>
      </trkpt>
      <trkpt lat="46.07668" lon="4.76057">
        <ele>174</ele>
        <time>2018-03-04T10:49:12Z</time>
      </trkpt>
      <trkpt lat="46.0767" lon="4.76061">
        <ele>174</ele>
        <time>2018-03-04T10:49:13Z</time>
      </trkpt>
      <trkpt lat="46.07673" lon="4.76069">
        <ele>174</ele>
        <time>2018-03-04T10:49:15Z</time>
      </trkpt>
      <trkpt lat="46.07674" lon="4.76073">
        <ele>174</ele>
        <time>2018-03-04T10:49:16Z</time>
      </trkpt>
      <trkpt lat="46.07677" lon="4.76082">
        <ele>174</ele>
        <time>2018-03-04T10:49:18Z</time>
      </trkpt>
      <trkpt lat="46.07678" lon="4.76086">
        <ele>173</ele>
        <time>2018-03-04T10:49:19Z</time>
      </trkpt>
      <trkpt lat="46.07677" lon="4.76096">
        <ele>173</ele>
        <time>2018-03-04T10:49:21Z</time>
      </trkpt>
      <trkpt lat="46.07676" lon="4.761">
        <ele>173</ele>
        <time>2018-03-04T10:49:22Z</time>
      </trkpt>
      <trkpt lat="46.0767" lon="4.76111">
        <ele>173</ele>
        <time>2018-03-04T10:49:23Z</time>
      </trkpt>
      <trkpt lat="46.07663" lon="4.76118">
        <ele>172</ele>
        <time>2018-03-04T10:49:25Z</time>
      </trkpt>
      <trkpt lat="46.07659" lon="4.76122">
        <ele>172</ele>
        <time>2018-03-04T10:49:26Z</time>
      </trkpt>
      <trkpt lat="46.07653" lon="4.7613">
        <ele>172</ele>
        <time>2018-03-04T10:49:28Z</time>
      </trkpt>
      <trkpt lat="46.07649" lon="4.76134">
        <ele>172</ele>
        <time>2018-03-04T10:49:29Z</time>
      </trkpt>
      <trkpt lat="46.07643" lon="4.76141">
        <ele>172</ele>
        <time>2018-03-04T10:49:31Z</time>
      </trkpt>
      <trkpt lat="46.07639" lon="4.76146">
        <ele>172</ele>
        <time>2018-03-04T10:49:32Z</time>
      </trkpt>
      <trkpt lat="46.07635" lon="4.7615">
        <ele>172</ele>
        <time>2018-03-04T10:49:33Z</time>
      </trkpt>
      <trkpt lat="46.07631" lon="4.76154">
        <ele>172</ele>
        <time>2018-03-04T10:49:34Z</time>
      </trkpt>
      <trkpt lat="46.07628" lon="4.76158">
        <ele>172</ele>
        <time>2018-03-04T10:49:35Z</time>
      </trkpt>
      <trkpt lat="46.07624" lon="4.76162">
        <ele>172</ele>
        <time>2018-03-04T10:49:36Z</time>
      </trkpt>
      <trkpt lat="46.07621" lon="4.76167">
        <ele>172</ele>
        <time>2018-03-04T10:49:37Z</time>
      </trkpt>
      <trkpt lat="46.07617" lon="4.7617">
        <ele>173</ele>
        <time>2018-03-04T10:49:38Z</time>
      </trkpt>
      <trkpt lat="46.07612" lon="4.76175">
        <ele>173</ele>
        <time>2018-03-04T10:49:39Z</time>
      </trkpt>
      <trkpt lat="46.07608" lon="4.7618">
        <ele>173</ele>
        <time>2018-03-04T10:49:40Z</time>
      </trkpt>
      <trkpt lat="46.07604" lon="4.76184">
        <ele>173</ele>
        <time>2018-03-04T10:49:41Z</time>
      </trkpt>
      <trkpt lat="46.076" lon="4.7619">
        <ele>173</ele>
        <time>2018-03-04T10:49:42Z</time>
      </trkpt>
      <trkpt lat="46.07596" lon="4.76194">
        <ele>173</ele>
        <time>2018-03-04T10:49:43Z</time>
      </trkpt>
      <trkpt lat="46.07592" lon="4.76198">
        <ele>173</ele>
        <time>2018-03-04T10:49:44Z</time>
      </trkpt>
      <trkpt lat="46.07587" lon="4.76203">
        <ele>173</ele>
        <time>2018-03-04T10:49:45Z</time>
      </trkpt>
      <trkpt lat="46.07584" lon="4.76207">
        <ele>173</ele>
        <time>2018-03-04T10:49:46Z</time>
      </trkpt>
      <trkpt lat="46.0758" lon="4.76212">
        <ele>173</ele>
        <time>2018-03-04T10:49:47Z</time>
      </trkpt>
      <trkpt lat="46.07576" lon="4.76215">
        <ele>173</ele>
        <time>2018-03-04T10:49:48Z</time>
      </trkpt>
      <trkpt lat="46.07569" lon="4.76222">
        <ele>173</ele>
        <time>2018-03-04T10:49:50Z</time>
      </trkpt>
      <trkpt lat="46.07565" lon="4.76227">
        <ele>173</ele>
        <time>2018-03-04T10:49:51Z</time>
      </trkpt>
      <trkpt lat="46.07561" lon="4.76231">
        <ele>173</ele>
        <time>2018-03-04T10:49:52Z</time>
      </trkpt>
      <trkpt lat="46.07557" lon="4.76235">
        <ele>173</ele>
        <time>2018-03-04T10:49:53Z</time>
      </trkpt>
      <trkpt lat="46.07553" lon="4.7624">
        <ele>173</ele>
        <time>2018-03-04T10:49:54Z</time>
      </trkpt>
      <trkpt lat="46.0755" lon="4.76244">
        <ele>173</ele>
        <time>2018-03-04T10:49:55Z</time>
      </trkpt>
      <trkpt lat="46.07543" lon="4.76251">
        <ele>174</ele>
        <time>2018-03-04T10:49:57Z</time>
      </trkpt>
      <trkpt lat="46.07539" lon="4.76254">
        <ele>174</ele>
        <time>2018-03-04T10:49:58Z</time>
      </trkpt>
      <trkpt lat="46.07531" lon="4.76262">
        <ele>174</ele>
        <time>2018-03-04T10:50:00Z</time>
      </trkpt>
      <trkpt lat="46.07528" lon="4.76266">
        <ele>174</ele>
        <time>2018-03-04T10:50:01Z</time>
      </trkpt>
      <trkpt lat="46.07524" lon="4.7627">
        <ele>174</ele>
        <time>2018-03-04T10:50:02Z</time>
      </trkpt>
      <trkpt lat="46.0752" lon="4.76274">
        <ele>174</ele>
        <time>2018-03-04T10:50:03Z</time>
      </trkpt>
      <trkpt lat="46.07517" lon="4.76278">
        <ele>174</ele>
        <time>2018-03-04T10:50:04Z</time>
      </trkpt>
      <trkpt lat="46.07513" lon="4.76283">
        <ele>174</ele>
        <time>2018-03-04T10:50:05Z</time>
      </trkpt>
      <trkpt lat="46.07509" lon="4.76286">
        <ele>174</ele>
        <time>2018-03-04T10:50:06Z</time>
      </trkpt>
      <trkpt lat="46.07505" lon="4.76291">
        <ele>174</ele>
        <time>2018-03-04T10:50:07Z</time>
      </trkpt>
      <trkpt lat="46.07501" lon="4.76296">
        <ele>174</ele>
        <time>2018-03-04T10:50:08Z</time>
      </trkpt>
      <trkpt lat="46.07496" lon="4.76301">
        <ele>173</ele>
        <time>2018-03-04T10:50:09Z</time>
      </trkpt>
      <trkpt lat="46.07492" lon="4.76304">
        <ele>173</ele>
        <time>2018-03-04T10:50:10Z</time>
      </trkpt>
      <trkpt lat="46.07488" lon="4.76307">
        <ele>173</ele>
        <time>2018-03-04T10:50:11Z</time>
      </trkpt>
      <trkpt lat="46.07483" lon="4.76309">
        <ele>173</ele>
        <time>2018-03-04T10:50:12Z</time>
      </trkpt>
      <trkpt lat="46.07478" lon="4.7631">
        <ele>172</ele>
        <time>2018-03-04T10:50:13Z</time>
      </trkpt>
      <trkpt lat="46.07473" lon="4.76312">
        <ele>172</ele>
        <time>2018-03-04T10:50:14Z</time>
      </trkpt>
      <trkpt lat="46.07469" lon="4.76315">
        <ele>172</ele>
        <time>2018-03-04T10:50:15Z</time>
      </trkpt>
      <trkpt lat="46.07467" lon="4.76319">
        <ele>172</ele>
        <time>2018-03-04T10:50:16Z</time>
      </trkpt>
      <trkpt lat="46.07464" lon="4.76326">
        <ele>172</ele>
        <time>2018-03-04T10:50:17Z</time>
      </trkpt>
      <trkpt lat="46.07462" lon="4.76332">
        <ele>172</ele>
        <time>2018-03-04T10:50:18Z</time>
      </trkpt>
      <trkpt lat="46.0746" lon="4.76338">
        <ele>172</ele>
        <time>2018-03-04T10:50:19Z</time>
      </trkpt>
      <trkpt lat="46.07457" lon="4.76343">
        <ele>172</ele>
        <time>2018-03-04T10:50:20Z</time>
      </trkpt>
      <trkpt lat="46.07454" lon="4.76348">
        <ele>172</ele>
        <time>2018-03-04T10:50:21Z</time>
      </trkpt>
      <trkpt lat="46.0745" lon="4.76352">
        <ele>172</ele>
        <time>2018-03-04T10:50:22Z</time>
      </trkpt>
      <trkpt lat="46.07446" lon="4.76355">
        <ele>171</ele>
        <time>2018-03-04T10:50:23Z</time>
      </trkpt>
      <trkpt lat="46.07439" lon="4.76362">
        <ele>171</ele>
        <time>2018-03-04T10:50:25Z</time>
      </trkpt>
      <trkpt lat="46.07435" lon="4.76366">
        <ele>171</ele>
        <time>2018-03-04T10:50:26Z</time>
      </trkpt>
      <trkpt lat="46.07431" lon="4.7637">
        <ele>171</ele>
        <time>2018-03-04T10:50:27Z</time>
      </trkpt>
      <trkpt lat="46.07427" lon="4.76375">
        <ele>171</ele>
        <time>2018-03-04T10:50:28Z</time>
      </trkpt>
      <trkpt lat="46.07422" lon="4.76379">
        <ele>171</ele>
        <time>2018-03-04T10:50:29Z</time>
      </trkpt>
      <trkpt lat="46.07418" lon="4.76384">
        <ele>171</ele>
        <time>2018-03-04T10:50:30Z</time>
      </trkpt>
      <trkpt lat="46.07414" lon="4.76388">
        <ele>170</ele>
        <time>2018-03-04T10:50:31Z</time>
      </trkpt>
      <trkpt lat="46.0741" lon="4.76393">
        <ele>170</ele>
        <time>2018-03-04T10:50:32Z</time>
      </trkpt>
      <trkpt lat="46.07406" lon="4.76398">
        <ele>170</ele>
        <time>2018-03-04T10:50:33Z</time>
      </trkpt>
      <trkpt lat="46.07401" lon="4.76402">
        <ele>170</ele>
        <time>2018-03-04T10:50:34Z</time>
      </trkpt>
      <trkpt lat="46.07398" lon="4.76407">
        <ele>170</ele>
        <time>2018-03-04T10:50:35Z</time>
      </trkpt>
      <trkpt lat="46.07393" lon="4.76412">
        <ele>170</ele>
        <time>2018-03-04T10:50:36Z</time>
      </trkpt>
      <trkpt lat="46.07389" lon="4.76416">
        <ele>170</ele>
        <time>2018-03-04T10:50:37Z</time>
      </trkpt>
      <trkpt lat="46.07385" lon="4.76421">
        <ele>171</ele>
        <time>2018-03-04T10:50:38Z</time>
      </trkpt>
      <trkpt lat="46.0738" lon="4.76425">
        <ele>171</ele>
        <time>2018-03-04T10:50:39Z</time>
      </trkpt>
      <trkpt lat="46.07376" lon="4.7643">
        <ele>171</ele>
        <time>2018-03-04T10:50:40Z</time>
      </trkpt>
      <trkpt lat="46.07371" lon="4.76435">
        <ele>171</ele>
        <time>2018-03-04T10:50:41Z</time>
      </trkpt>
      <trkpt lat="46.07367" lon="4.7644">
        <ele>171</ele>
        <time>2018-03-04T10:50:42Z</time>
      </trkpt>
      <trkpt lat="46.07363" lon="4.76444">
        <ele>171</ele>
        <time>2018-03-04T10:50:43Z</time>
      </trkpt>
      <trkpt lat="46.07359" lon="4.76449">
        <ele>171</ele>
        <time>2018-03-04T10:50:44Z</time>
      </trkpt>
      <trkpt lat="46.07355" lon="4.76455">
        <ele>171</ele>
        <time>2018-03-04T10:50:45Z</time>
      </trkpt>
      <trkpt lat="46.0735" lon="4.76459">
        <ele>171</ele>
        <time>2018-03-04T10:50:46Z</time>
      </trkpt>
      <trkpt lat="46.07346" lon="4.76464">
        <ele>171</ele>
        <time>2018-03-04T10:50:47Z</time>
      </trkpt>
      <trkpt lat="46.07341" lon="4.76469">
        <ele>171</ele>
        <time>2018-03-04T10:50:48Z</time>
      </trkpt>
      <trkpt lat="46.07337" lon="4.76472">
        <ele>171</ele>
        <time>2018-03-04T10:50:49Z</time>
      </trkpt>
      <trkpt lat="46.07333" lon="4.76477">
        <ele>170</ele>
        <time>2018-03-04T10:50:50Z</time>
      </trkpt>
      <trkpt lat="46.07329" lon="4.76482">
        <ele>170</ele>
        <time>2018-03-04T10:50:51Z</time>
      </trkpt>
      <trkpt lat="46.07325" lon="4.76486">
        <ele>170</ele>
        <time>2018-03-04T10:50:52Z</time>
      </trkpt>
      <trkpt lat="46.07321" lon="4.76491">
        <ele>170</ele>
        <time>2018-03-04T10:50:53Z</time>
      </trkpt>
      <trkpt lat="46.07316" lon="4.76496">
        <ele>170</ele>
        <time>2018-03-04T10:50:54Z</time>
      </trkpt>
      <trkpt lat="46.07312" lon="4.765">
        <ele>170</ele>
        <time>2018-03-04T10:50:55Z</time>
      </trkpt>
      <trkpt lat="46.07309" lon="4.76504">
        <ele>170</ele>
        <time>2018-03-04T10:50:56Z</time>
      </trkpt>
      <trkpt lat="46.07304" lon="4.76509">
        <ele>170</ele>
        <time>2018-03-04T10:50:57Z</time>
      </trkpt>
      <trkpt lat="46.073" lon="4.76513">
        <ele>170</ele>
        <time>2018-03-04T10:50:58Z</time>
      </trkpt>
      <trkpt lat="46.07295" lon="4.76518">
        <ele>170</ele>
        <time>2018-03-04T10:50:59Z</time>
      </trkpt>
      <trkpt lat="46.0729" lon="4.76523">
        <ele>170</ele>
        <time>2018-03-04T10:51:00Z</time>
      </trkpt>
      <trkpt lat="46.07287" lon="4.76527">
        <ele>170</ele>
        <time>2018-03-04T10:51:01Z</time>
      </trkpt>
      <trkpt lat="46.07282" lon="4.76532">
        <ele>170</ele>
        <time>2018-03-04T10:51:02Z</time>
      </trkpt>
      <trkpt lat="46.07278" lon="4.76537">
        <ele>170</ele>
        <time>2018-03-04T10:51:03Z</time>
      </trkpt>
      <trkpt lat="46.07273" lon="4.76541">
        <ele>170</ele>
        <time>2018-03-04T10:51:04Z</time>
      </trkpt>
      <trkpt lat="46.0727" lon="4.76546">
        <ele>170</ele>
        <time>2018-03-04T10:51:05Z</time>
      </trkpt>
      <trkpt lat="46.07267" lon="4.7655">
        <ele>170</ele>
        <time>2018-03-04T10:51:06Z</time>
      </trkpt>
      <trkpt lat="46.07262" lon="4.76555">
        <ele>170</ele>
        <time>2018-03-04T10:51:07Z</time>
      </trkpt>
      <trkpt lat="46.07258" lon="4.7656">
        <ele>170</ele>
        <time>2018-03-04T10:51:08Z</time>
      </trkpt>
      <trkpt lat="46.07254" lon="4.76565">
        <ele>170</ele>
        <time>2018-03-04T10:51:09Z</time>
      </trkpt>
      <trkpt lat="46.07251" lon="4.7657">
        <ele>170</ele>
        <time>2018-03-04T10:51:10Z</time>
      </trkpt>
      <trkpt lat="46.07247" lon="4.76574">
        <ele>170</ele>
        <time>2018-03-04T10:51:11Z</time>
      </trkpt>
      <trkpt lat="46.07244" lon="4.76578">
        <ele>170</ele>
        <time>2018-03-04T10:51:12Z</time>
      </trkpt>
      <trkpt lat="46.07239" lon="4.76584">
        <ele>170</ele>
        <time>2018-03-04T10:51:13Z</time>
      </trkpt>
      <trkpt lat="46.07235" lon="4.76588">
        <ele>170</ele>
        <time>2018-03-04T10:51:14Z</time>
      </trkpt>
      <trkpt lat="46.07231" lon="4.76593">
        <ele>170</ele>
        <time>2018-03-04T10:51:15Z</time>
      </trkpt>
      <trkpt lat="46.07227" lon="4.76599">
        <ele>170</ele>
        <time>2018-03-04T10:51:16Z</time>
      </trkpt>
      <trkpt lat="46.07224" lon="4.76605">
        <ele>170</ele>
        <time>2018-03-04T10:51:17Z</time>
      </trkpt>
      <trkpt lat="46.0722" lon="4.76609">
        <ele>170</ele>
        <time>2018-03-04T10:51:18Z</time>
      </trkpt>
      <trkpt lat="46.07216" lon="4.76615">
        <ele>170</ele>
        <time>2018-03-04T10:51:19Z</time>
      </trkpt>
      <trkpt lat="46.07213" lon="4.7662">
        <ele>170</ele>
        <time>2018-03-04T10:51:20Z</time>
      </trkpt>
      <trkpt lat="46.07208" lon="4.76626">
        <ele>170</ele>
        <time>2018-03-04T10:51:21Z</time>
      </trkpt>
      <trkpt lat="46.07204" lon="4.76631">
        <ele>170</ele>
        <time>2018-03-04T10:51:22Z</time>
      </trkpt>
      <trkpt lat="46.072" lon="4.76636">
        <ele>170</ele>
        <time>2018-03-04T10:51:23Z</time>
      </trkpt>
      <trkpt lat="46.07197" lon="4.76642">
        <ele>170</ele>
        <time>2018-03-04T10:51:24Z</time>
      </trkpt>
      <trkpt lat="46.07193" lon="4.76648">
        <ele>170</ele>
        <time>2018-03-04T10:51:25Z</time>
      </trkpt>
      <trkpt lat="46.0719" lon="4.76654">
        <ele>170</ele>
        <time>2018-03-04T10:51:26Z</time>
      </trkpt>
      <trkpt lat="46.07187" lon="4.7666">
        <ele>170</ele>
        <time>2018-03-04T10:51:27Z</time>
      </trkpt>
      <trkpt lat="46.07183" lon="4.76666">
        <ele>170</ele>
        <time>2018-03-04T10:51:28Z</time>
      </trkpt>
      <trkpt lat="46.0718" lon="4.76672">
        <ele>170</ele>
        <time>2018-03-04T10:51:29Z</time>
      </trkpt>
      <trkpt lat="46.07176" lon="4.76677">
        <ele>170</ele>
        <time>2018-03-04T10:51:30Z</time>
      </trkpt>
      <trkpt lat="46.07173" lon="4.76683">
        <ele>170</ele>
        <time>2018-03-04T10:51:31Z</time>
      </trkpt>
      <trkpt lat="46.07171" lon="4.76688">
        <ele>170</ele>
        <time>2018-03-04T10:51:32Z</time>
      </trkpt>
      <trkpt lat="46.07167" lon="4.76694">
        <ele>171</ele>
        <time>2018-03-04T10:51:33Z</time>
      </trkpt>
      <trkpt lat="46.07164" lon="4.76699">
        <ele>170</ele>
        <time>2018-03-04T10:51:34Z</time>
      </trkpt>
      <trkpt lat="46.07161" lon="4.76705">
        <ele>170</ele>
        <time>2018-03-04T10:51:35Z</time>
      </trkpt>
      <trkpt lat="46.07158" lon="4.76712">
        <ele>170</ele>
        <time>2018-03-04T10:51:36Z</time>
      </trkpt>
      <trkpt lat="46.07155" lon="4.76718">
        <ele>170</ele>
        <time>2018-03-04T10:51:37Z</time>
      </trkpt>
      <trkpt lat="46.07152" lon="4.76724">
        <ele>170</ele>
        <time>2018-03-04T10:51:38Z</time>
      </trkpt>
      <trkpt lat="46.07149" lon="4.7673">
        <ele>171</ele>
        <time>2018-03-04T10:51:39Z</time>
      </trkpt>
      <trkpt lat="46.07146" lon="4.76735">
        <ele>171</ele>
        <time>2018-03-04T10:51:40Z</time>
      </trkpt>
      <trkpt lat="46.07143" lon="4.76741">
        <ele>171</ele>
        <time>2018-03-04T10:51:41Z</time>
      </trkpt>
      <trkpt lat="46.0714" lon="4.76747">
        <ele>171</ele>
        <time>2018-03-04T10:51:42Z</time>
      </trkpt>
      <trkpt lat="46.07137" lon="4.76754">
        <ele>171</ele>
        <time>2018-03-04T10:51:43Z</time>
      </trkpt>
      <trkpt lat="46.07134" lon="4.76759">
        <ele>171</ele>
        <time>2018-03-04T10:51:44Z</time>
      </trkpt>
      <trkpt lat="46.07131" lon="4.76766">
        <ele>171</ele>
        <time>2018-03-04T10:51:45Z</time>
      </trkpt>
      <trkpt lat="46.07127" lon="4.76771">
        <ele>171</ele>
        <time>2018-03-04T10:51:46Z</time>
      </trkpt>
      <trkpt lat="46.07125" lon="4.76777">
        <ele>171</ele>
        <time>2018-03-04T10:51:47Z</time>
      </trkpt>
      <trkpt lat="46.07122" lon="4.76783">
        <ele>171</ele>
        <time>2018-03-04T10:51:48Z</time>
      </trkpt>
      <trkpt lat="46.07118" lon="4.76789">
        <ele>171</ele>
        <time>2018-03-04T10:51:49Z</time>
      </trkpt>
      <trkpt lat="46.07115" lon="4.76795">
        <ele>172</ele>
        <time>2018-03-04T10:51:50Z</time>
      </trkpt>
      <trkpt lat="46.07112" lon="4.768">
        <ele>172</ele>
        <time>2018-03-04T10:51:51Z</time>
      </trkpt>
      <trkpt lat="46.07109" lon="4.76806">
        <ele>172</ele>
        <time>2018-03-04T10:51:52Z</time>
      </trkpt>
      <trkpt lat="46.07105" lon="4.76811">
        <ele>172</ele>
        <time>2018-03-04T10:51:53Z</time>
      </trkpt>
      <trkpt lat="46.07102" lon="4.76817">
        <ele>172</ele>
        <time>2018-03-04T10:51:54Z</time>
      </trkpt>
      <trkpt lat="46.07099" lon="4.76824">
        <ele>172</ele>
        <time>2018-03-04T10:51:55Z</time>
      </trkpt>
      <trkpt lat="46.07096" lon="4.7683">
        <ele>172</ele>
        <time>2018-03-04T10:51:56Z</time>
      </trkpt>
      <trkpt lat="46.07093" lon="4.76836">
        <ele>172</ele>
        <time>2018-03-04T10:51:57Z</time>
      </trkpt>
      <trkpt lat="46.07089" lon="4.76842">
        <ele>172</ele>
        <time>2018-03-04T10:51:58Z</time>
      </trkpt>
      <trkpt lat="46.07087" lon="4.76848">
        <ele>172</ele>
        <time>2018-03-04T10:51:59Z</time>
      </trkpt>
      <trkpt lat="46.07084" lon="4.76853">
        <ele>173</ele>
        <time>2018-03-04T10:52:00Z</time>
      </trkpt>
      <trkpt lat="46.0708" lon="4.7686">
        <ele>172</ele>
        <time>2018-03-04T10:52:01Z</time>
      </trkpt>
      <trkpt lat="46.07077" lon="4.76865">
        <ele>172</ele>
        <time>2018-03-04T10:52:02Z</time>
      </trkpt>
      <trkpt lat="46.07074" lon="4.76871">
        <ele>172</ele>
        <time>2018-03-04T10:52:03Z</time>
      </trkpt>
      <trkpt lat="46.07072" lon="4.76877">
        <ele>172</ele>
        <time>2018-03-04T10:52:04Z</time>
      </trkpt>
      <trkpt lat="46.07069" lon="4.76883">
        <ele>172</ele>
        <time>2018-03-04T10:52:05Z</time>
      </trkpt>
      <trkpt lat="46.07066" lon="4.76889">
        <ele>172</ele>
        <time>2018-03-04T10:52:06Z</time>
      </trkpt>
      <trkpt lat="46.07063" lon="4.76895">
        <ele>172</ele>
        <time>2018-03-04T10:52:07Z</time>
      </trkpt>
      <trkpt lat="46.0706" lon="4.76902">
        <ele>172</ele>
        <time>2018-03-04T10:52:08Z</time>
      </trkpt>
      <trkpt lat="46.07056" lon="4.76908">
        <ele>172</ele>
        <time>2018-03-04T10:52:09Z</time>
      </trkpt>
      <trkpt lat="46.07054" lon="4.76913">
        <ele>172</ele>
        <time>2018-03-04T10:52:10Z</time>
      </trkpt>
      <trkpt lat="46.0705" lon="4.7692">
        <ele>173</ele>
        <time>2018-03-04T10:52:11Z</time>
      </trkpt>
      <trkpt lat="46.07047" lon="4.76926">
        <ele>173</ele>
        <time>2018-03-04T10:52:12Z</time>
      </trkpt>
      <trkpt lat="46.07044" lon="4.76932">
        <ele>173</ele>
        <time>2018-03-04T10:52:13Z</time>
      </trkpt>
      <trkpt lat="46.07041" lon="4.76938">
        <ele>173</ele>
        <time>2018-03-04T10:52:14Z</time>
      </trkpt>
      <trkpt lat="46.07038" lon="4.76945">
        <ele>173</ele>
        <time>2018-03-04T10:52:15Z</time>
      </trkpt>
      <trkpt lat="46.07035" lon="4.76951">
        <ele>173</ele>
        <time>2018-03-04T10:52:16Z</time>
      </trkpt>
      <trkpt lat="46.07032" lon="4.76956">
        <ele>173</ele>
        <time>2018-03-04T10:52:17Z</time>
      </trkpt>
      <trkpt lat="46.0703" lon="4.76961">
        <ele>173</ele>
        <time>2018-03-04T10:52:18Z</time>
      </trkpt>
      <trkpt lat="46.07027" lon="4.76968">
        <ele>173</ele>
        <time>2018-03-04T10:52:19Z</time>
      </trkpt>
      <trkpt lat="46.07024" lon="4.76973">
        <ele>173</ele>
        <time>2018-03-04T10:52:20Z</time>
      </trkpt>
      <trkpt lat="46.07018" lon="4.76983">
        <ele>173</ele>
        <time>2018-03-04T10:52:22Z</time>
      </trkpt>
      <trkpt lat="46.07016" lon="4.76988">
        <ele>173</ele>
        <time>2018-03-04T10:52:23Z</time>
      </trkpt>
      <trkpt lat="46.07012" lon="4.76994">
        <ele>173</ele>
        <time>2018-03-04T10:52:24Z</time>
      </trkpt>
      <trkpt lat="46.07009" lon="4.77">
        <ele>173</ele>
        <time>2018-03-04T10:52:25Z</time>
      </trkpt>
      <trkpt lat="46.07005" lon="4.7701">
        <ele>173</ele>
        <time>2018-03-04T10:52:27Z</time>
      </trkpt>
      <trkpt lat="46.07002" lon="4.77015">
        <ele>174</ele>
        <time>2018-03-04T10:52:28Z</time>
      </trkpt>
      <trkpt lat="46.06996" lon="4.77024">
        <ele>173</ele>
        <time>2018-03-04T10:52:30Z</time>
      </trkpt>
      <trkpt lat="46.06994" lon="4.77028">
        <ele>173</ele>
        <time>2018-03-04T10:52:31Z</time>
      </trkpt>
      <trkpt lat="46.06989" lon="4.77037">
        <ele>173</ele>
        <time>2018-03-04T10:52:33Z</time>
      </trkpt>
      <trkpt lat="46.06986" lon="4.77042">
        <ele>173</ele>
        <time>2018-03-04T10:52:34Z</time>
      </trkpt>
      <trkpt lat="46.06981" lon="4.7705">
        <ele>173</ele>
        <time>2018-03-04T10:52:36Z</time>
      </trkpt>
      <trkpt lat="46.0698" lon="4.77052">
        <ele>173</ele>
        <time>2018-03-04T10:52:37Z</time>
      </trkpt>
      <trkpt lat="46.06975" lon="4.77059">
        <ele>173</ele>
        <time>2018-03-04T10:52:39Z</time>
      </trkpt>
      <trkpt lat="46.06974" lon="4.77062">
        <ele>173</ele>
        <time>2018-03-04T10:52:40Z</time>
      </trkpt>
      <trkpt lat="46.06968" lon="4.77067">
        <ele>173</ele>
        <time>2018-03-04T10:52:43Z</time>
      </trkpt>
      <trkpt lat="46.06959" lon="4.7707">
        <ele>173</ele>
        <time>2018-03-04T10:52:44Z</time>
      </trkpt>
      <trkpt lat="46.06951" lon="4.7707">
        <ele>173</ele>
        <time>2018-03-04T10:52:46Z</time>
      </trkpt>
      <trkpt lat="46.06947" lon="4.7707">
        <ele>173</ele>
        <time>2018-03-04T10:52:47Z</time>
      </trkpt>
      <trkpt lat="46.06938" lon="4.7707">
        <ele>173</ele>
        <time>2018-03-04T10:52:49Z</time>
      </trkpt>
      <trkpt lat="46.06934" lon="4.77069">
        <ele>173</ele>
        <time>2018-03-04T10:52:50Z</time>
      </trkpt>
      <trkpt lat="46.06929" lon="4.7707">
        <ele>173</ele>
        <time>2018-03-04T10:52:51Z</time>
      </trkpt>
      <trkpt lat="46.06925" lon="4.77071">
        <ele>173</ele>
        <time>2018-03-04T10:52:52Z</time>
      </trkpt>
      <trkpt lat="46.0692" lon="4.77071">
        <ele>173</ele>
        <time>2018-03-04T10:52:53Z</time>
      </trkpt>
      <trkpt lat="46.06915" lon="4.77071">
        <ele>173</ele>
        <time>2018-03-04T10:52:54Z</time>
      </trkpt>
      <trkpt lat="46.06906" lon="4.7707">
        <ele>173</ele>
        <time>2018-03-04T10:52:56Z</time>
      </trkpt>
      <trkpt lat="46.06902" lon="4.77069">
        <ele>173</ele>
        <time>2018-03-04T10:52:57Z</time>
      </trkpt>
      <trkpt lat="46.06894" lon="4.77069">
        <ele>173</ele>
        <time>2018-03-04T10:52:59Z</time>
      </trkpt>
      <trkpt lat="46.06889" lon="4.7707">
        <ele>173</ele>
        <time>2018-03-04T10:53:00Z</time>
      </trkpt>
      <trkpt lat="46.06882" lon="4.77068">
        <ele>173</ele>
        <time>2018-03-04T10:53:02Z</time>
      </trkpt>
      <trkpt lat="46.06878" lon="4.77069">
        <ele>173</ele>
        <time>2018-03-04T10:53:03Z</time>
      </trkpt>
      <trkpt lat="46.0687" lon="4.7707">
        <ele>173</ele>
        <time>2018-03-04T10:53:05Z</time>
      </trkpt>
      <trkpt lat="46.06866" lon="4.77071">
        <ele>173</ele>
        <time>2018-03-04T10:53:06Z</time>
      </trkpt>
      <trkpt lat="46.06858" lon="4.77074">
        <ele>173</ele>
        <time>2018-03-04T10:53:08Z</time>
      </trkpt>
      <trkpt lat="46.06854" lon="4.77075">
        <ele>173</ele>
        <time>2018-03-04T10:53:09Z</time>
      </trkpt>
      <trkpt lat="46.06845" lon="4.77079">
        <ele>173</ele>
        <time>2018-03-04T10:53:11Z</time>
      </trkpt>
      <trkpt lat="46.06841" lon="4.77081">
        <ele>173</ele>
        <time>2018-03-04T10:53:12Z</time>
      </trkpt>
      <trkpt lat="46.06837" lon="4.77085">
        <ele>173</ele>
        <time>2018-03-04T10:53:13Z</time>
      </trkpt>
      <trkpt lat="46.06833" lon="4.77088">
        <ele>173</ele>
        <time>2018-03-04T10:53:14Z</time>
      </trkpt>
      <trkpt lat="46.06825" lon="4.77094">
        <ele>173</ele>
        <time>2018-03-04T10:53:16Z</time>
      </trkpt>
      <trkpt lat="46.06821" lon="4.77096">
        <ele>173</ele>
        <time>2018-03-04T10:53:17Z</time>
      </trkpt>
      <trkpt lat="46.06814" lon="4.77101">
        <ele>172</ele>
        <time>2018-03-04T10:53:19Z</time>
      </trkpt>
      <trkpt lat="46.0681" lon="4.77104">
        <ele>172</ele>
        <time>2018-03-04T10:53:20Z</time>
      </trkpt>
      <trkpt lat="46.06804" lon="4.7711">
        <ele>172</ele>
        <time>2018-03-04T10:53:22Z</time>
      </trkpt>
      <trkpt lat="46.06801" lon="4.77113">
        <ele>172</ele>
        <time>2018-03-04T10:53:23Z</time>
      </trkpt>
      <trkpt lat="46.06793" lon="4.77119">
        <ele>172</ele>
        <time>2018-03-04T10:53:25Z</time>
      </trkpt>
      <trkpt lat="46.0679" lon="4.77123">
        <ele>172</ele>
        <time>2018-03-04T10:53:26Z</time>
      </trkpt>
      <trkpt lat="46.06782" lon="4.7713">
        <ele>172</ele>
        <time>2018-03-04T10:53:28Z</time>
      </trkpt>
      <trkpt lat="46.06778" lon="4.77134">
        <ele>172</ele>
        <time>2018-03-04T10:53:29Z</time>
      </trkpt>
      <trkpt lat="46.06774" lon="4.77138">
        <ele>172</ele>
        <time>2018-03-04T10:53:30Z</time>
      </trkpt>
      <trkpt lat="46.06771" lon="4.77142">
        <ele>172</ele>
        <time>2018-03-04T10:53:31Z</time>
      </trkpt>
      <trkpt lat="46.06767" lon="4.77146">
        <ele>172</ele>
        <time>2018-03-04T10:53:32Z</time>
      </trkpt>
      <trkpt lat="46.06763" lon="4.7715">
        <ele>172</ele>
        <time>2018-03-04T10:53:33Z</time>
      </trkpt>
      <trkpt lat="46.06759" lon="4.77153">
        <ele>172</ele>
        <time>2018-03-04T10:53:34Z</time>
      </trkpt>
      <trkpt lat="46.06755" lon="4.77157">
        <ele>172</ele>
        <time>2018-03-04T10:53:35Z</time>
      </trkpt>
      <trkpt lat="46.06751" lon="4.77161">
        <ele>172</ele>
        <time>2018-03-04T10:53:36Z</time>
      </trkpt>
      <trkpt lat="46.06746" lon="4.77165">
        <ele>172</ele>
        <time>2018-03-04T10:53:37Z</time>
      </trkpt>
      <trkpt lat="46.06743" lon="4.77169">
        <ele>172</ele>
        <time>2018-03-04T10:53:38Z</time>
      </trkpt>
      <trkpt lat="46.06739" lon="4.77173">
        <ele>172</ele>
        <time>2018-03-04T10:53:39Z</time>
      </trkpt>
      <trkpt lat="46.0673" lon="4.77178">
        <ele>172</ele>
        <time>2018-03-04T10:53:41Z</time>
      </trkpt>
      <trkpt lat="46.06725" lon="4.77181">
        <ele>172</ele>
        <time>2018-03-04T10:53:42Z</time>
      </trkpt>
      <trkpt lat="46.06721" lon="4.77183">
        <ele>172</ele>
        <time>2018-03-04T10:53:43Z</time>
      </trkpt>
      <trkpt lat="46.06717" lon="4.77186">
        <ele>172</ele>
        <time>2018-03-04T10:53:44Z</time>
      </trkpt>
      <trkpt lat="46.06708" lon="4.77189">
        <ele>172</ele>
        <time>2018-03-04T10:53:46Z</time>
      </trkpt>
      <trkpt lat="46.06704" lon="4.7719">
        <ele>172</ele>
        <time>2018-03-04T10:53:47Z</time>
      </trkpt>
      <trkpt lat="46.06697" lon="4.77191">
        <ele>172</ele>
        <time>2018-03-04T10:53:49Z</time>
      </trkpt>
      <trkpt lat="46.06694" lon="4.77191">
        <ele>172</ele>
        <time>2018-03-04T10:53:50Z</time>
      </trkpt>
      <trkpt lat="46.06685" lon="4.77193">
        <ele>172</ele>
        <time>2018-03-04T10:53:53Z</time>
      </trkpt>
      <trkpt lat="46.06683" lon="4.77195">
        <ele>172</ele>
        <time>2018-03-04T10:53:54Z</time>
      </trkpt>
      <trkpt lat="46.06678" lon="4.77204">
        <ele>172</ele>
        <time>2018-03-04T10:53:55Z</time>
      </trkpt>
      <trkpt lat="46.06678" lon="4.7721">
        <ele>172</ele>
        <time>2018-03-04T10:53:56Z</time>
      </trkpt>
      <trkpt lat="46.06679" lon="4.77222">
        <ele>172</ele>
        <time>2018-03-04T10:53:58Z</time>
      </trkpt>
      <trkpt lat="46.0668" lon="4.7723">
        <ele>172</ele>
        <time>2018-03-04T10:53:59Z</time>
      </trkpt>
      <trkpt lat="46.06677" lon="4.77242">
        <ele>173</ele>
        <time>2018-03-04T10:54:01Z</time>
      </trkpt>
      <trkpt lat="46.06675" lon="4.77248">
        <ele>173</ele>
        <time>2018-03-04T10:54:02Z</time>
      </trkpt>
      <trkpt lat="46.06671" lon="4.77259">
        <ele>173</ele>
        <time>2018-03-04T10:54:04Z</time>
      </trkpt>
      <trkpt lat="46.06669" lon="4.77264">
        <ele>173</ele>
        <time>2018-03-04T10:54:05Z</time>
      </trkpt>
      <trkpt lat="46.06665" lon="4.77275">
        <ele>174</ele>
        <time>2018-03-04T10:54:07Z</time>
      </trkpt>
      <trkpt lat="46.06663" lon="4.7728">
        <ele>174</ele>
        <time>2018-03-04T10:54:08Z</time>
      </trkpt>
      <trkpt lat="46.06659" lon="4.7729">
        <ele>174</ele>
        <time>2018-03-04T10:54:10Z</time>
      </trkpt>
      <trkpt lat="46.06657" lon="4.77295">
        <ele>174</ele>
        <time>2018-03-04T10:54:11Z</time>
      </trkpt>
      <trkpt lat="46.06654" lon="4.77304">
        <ele>174</ele>
        <time>2018-03-04T10:54:13Z</time>
      </trkpt>
      <trkpt lat="46.06652" lon="4.7731">
        <ele>174</ele>
        <time>2018-03-04T10:54:14Z</time>
      </trkpt>
      <trkpt lat="46.06648" lon="4.77321">
        <ele>174</ele>
        <time>2018-03-04T10:54:16Z</time>
      </trkpt>
      <trkpt lat="46.06646" lon="4.77327">
        <ele>174</ele>
        <time>2018-03-04T10:54:17Z</time>
      </trkpt>
      <trkpt lat="46.06641" lon="4.77337">
        <ele>175</ele>
        <time>2018-03-04T10:54:19Z</time>
      </trkpt>
      <trkpt lat="46.06638" lon="4.77342">
        <ele>176</ele>
        <time>2018-03-04T10:54:20Z</time>
      </trkpt>
      <trkpt lat="46.06634" lon="4.77353">
        <ele>176</ele>
        <time>2018-03-04T10:54:22Z</time>
      </trkpt>
      <trkpt lat="46.06632" lon="4.77358">
        <ele>176</ele>
        <time>2018-03-04T10:54:23Z</time>
      </trkpt>
      <trkpt lat="46.06629" lon="4.77368">
        <ele>176</ele>
        <time>2018-03-04T10:54:25Z</time>
      </trkpt>
      <trkpt lat="46.06626" lon="4.77373">
        <ele>176</ele>
        <time>2018-03-04T10:54:26Z</time>
      </trkpt>
      <trkpt lat="46.06622" lon="4.77383">
        <ele>176</ele>
        <time>2018-03-04T10:54:28Z</time>
      </trkpt>
      <trkpt lat="46.0662" lon="4.77388">
        <ele>177</ele>
        <time>2018-03-04T10:54:29Z</time>
      </trkpt>
      <trkpt lat="46.06616" lon="4.77398">
        <ele>177</ele>
        <time>2018-03-04T10:54:31Z</time>
      </trkpt>
      <trkpt lat="46.06616" lon="4.774">
        <ele>177</ele>
        <time>2018-03-04T10:54:32Z</time>
      </trkpt>
      <trkpt lat="46.06613" lon="4.77406">
        <ele>177</ele>
        <time>2018-03-04T10:54:33Z</time>
      </trkpt>
      <trkpt lat="46.06611" lon="4.77412">
        <ele>177</ele>
        <time>2018-03-04T10:54:34Z</time>
      </trkpt>
      <trkpt lat="46.06607" lon="4.77422">
        <ele>179</ele>
        <time>2018-03-04T10:54:36Z</time>
      </trkpt>
      <trkpt lat="46.06606" lon="4.77425">
        <ele>179</ele>
        <time>2018-03-04T10:54:37Z</time>
      </trkpt>
      <trkpt lat="46.06604" lon="4.77432">
        <ele>179</ele>
        <time>2018-03-04T10:54:38Z</time>
      </trkpt>
      <trkpt lat="46.06602" lon="4.77437">
        <ele>179</ele>
        <time>2018-03-04T10:54:39Z</time>
      </trkpt>
      <trkpt lat="46.06599" lon="4.77449">
        <ele>180</ele>
        <time>2018-03-04T10:54:41Z</time>
      </trkpt>
      <trkpt lat="46.06598" lon="4.77455">
        <ele>180</ele>
        <time>2018-03-04T10:54:42Z</time>
      </trkpt>
      <trkpt lat="46.06599" lon="4.77461">
        <ele>180</ele>
        <time>2018-03-04T10:54:44Z</time>
      </trkpt>
      <trkpt lat="46.06602" lon="4.77471">
        <ele>181</ele>
        <time>2018-03-04T10:54:45Z</time>
      </trkpt>
      <trkpt lat="46.06605" lon="4.77478">
        <ele>181</ele>
        <time>2018-03-04T10:54:47Z</time>
      </trkpt>
      <trkpt lat="46.06608" lon="4.77484">
        <ele>181</ele>
        <time>2018-03-04T10:54:48Z</time>
      </trkpt>
      <trkpt lat="46.06612" lon="4.77491">
        <ele>181</ele>
        <time>2018-03-04T10:54:51Z</time>
      </trkpt>
      <trkpt lat="46.06614" lon="4.77494">
        <ele>181</ele>
        <time>2018-03-04T10:54:52Z</time>
      </trkpt>
      <trkpt lat="46.06619" lon="4.77504">
        <ele>183</ele>
        <time>2018-03-04T10:54:55Z</time>
      </trkpt>
      <trkpt lat="46.0662" lon="4.77508">
        <ele>183</ele>
        <time>2018-03-04T10:54:56Z</time>
      </trkpt>
      <trkpt lat="46.06624" lon="4.77519">
        <ele>182</ele>
        <time>2018-03-04T10:54:59Z</time>
      </trkpt>
      <trkpt lat="46.06625" lon="4.77523">
        <ele>182</ele>
        <time>2018-03-04T10:55:00Z</time>
      </trkpt>
      <trkpt lat="46.06628" lon="4.77531">
        <ele>183</ele>
        <time>2018-03-04T10:55:02Z</time>
      </trkpt>
      <trkpt lat="46.06629" lon="4.77535">
        <ele>183</ele>
        <time>2018-03-04T10:55:03Z</time>
      </trkpt>
      <trkpt lat="46.0663" lon="4.77543">
        <ele>183</ele>
        <time>2018-03-04T10:55:05Z</time>
      </trkpt>
      <trkpt lat="46.06631" lon="4.77548">
        <ele>183</ele>
        <time>2018-03-04T10:55:06Z</time>
      </trkpt>
      <trkpt lat="46.06632" lon="4.77556">
        <ele>183</ele>
        <time>2018-03-04T10:55:08Z</time>
      </trkpt>
      <trkpt lat="46.06632" lon="4.7756">
        <ele>183</ele>
        <time>2018-03-04T10:55:09Z</time>
      </trkpt>
      <trkpt lat="46.06632" lon="4.77569">
        <ele>183</ele>
        <time>2018-03-04T10:55:11Z</time>
      </trkpt>
      <trkpt lat="46.06633" lon="4.77573">
        <ele>183</ele>
        <time>2018-03-04T10:55:12Z</time>
      </trkpt>
      <trkpt lat="46.06633" lon="4.77585">
        <ele>184</ele>
        <time>2018-03-04T10:55:15Z</time>
      </trkpt>
      <trkpt lat="46.06632" lon="4.77589">
        <ele>185</ele>
        <time>2018-03-04T10:55:16Z</time>
      </trkpt>
      <trkpt lat="46.06631" lon="4.77602">
        <ele>185</ele>
        <time>2018-03-04T10:55:19Z</time>
      </trkpt>
      <trkpt lat="46.06631" lon="4.77606">
        <ele>185</ele>
        <time>2018-03-04T10:55:20Z</time>
      </trkpt>
      <trkpt lat="46.0663" lon="4.77618">
        <ele>185</ele>
        <time>2018-03-04T10:55:23Z</time>
      </trkpt>
      <trkpt lat="46.0663" lon="4.77622">
        <ele>185</ele>
        <time>2018-03-04T10:55:24Z</time>
      </trkpt>
      <trkpt lat="46.06628" lon="4.77634">
        <ele>185</ele>
        <time>2018-03-04T10:55:27Z</time>
      </trkpt>
      <trkpt lat="46.06628" lon="4.77638">
        <ele>185</ele>
        <time>2018-03-04T10:55:28Z</time>
      </trkpt>
      <trkpt lat="46.06624" lon="4.77649">
        <ele>185</ele>
        <time>2018-03-04T10:55:31Z</time>
      </trkpt>
      <trkpt lat="46.06623" lon="4.77652">
        <ele>185</ele>
        <time>2018-03-04T10:55:32Z</time>
      </trkpt>
      <trkpt lat="46.06619" lon="4.77662">
        <ele>185</ele>
        <time>2018-03-04T10:55:35Z</time>
      </trkpt>
      <trkpt lat="46.06617" lon="4.77665">
        <ele>185</ele>
        <time>2018-03-04T10:55:36Z</time>
      </trkpt>
      <trkpt lat="46.06611" lon="4.77672">
        <ele>187</ele>
        <time>2018-03-04T10:55:39Z</time>
      </trkpt>
      <trkpt lat="46.06609" lon="4.77674">
        <ele>187</ele>
        <time>2018-03-04T10:55:40Z</time>
      </trkpt>
      <trkpt lat="46.06602" lon="4.7768">
        <ele>187</ele>
        <time>2018-03-04T10:55:43Z</time>
      </trkpt>
      <trkpt lat="46.066" lon="4.77681">
        <ele>187</ele>
        <time>2018-03-04T10:55:44Z</time>
      </trkpt>
      <trkpt lat="46.06593" lon="4.77687">
        <ele>187</ele>
        <time>2018-03-04T10:55:47Z</time>
      </trkpt>
      <trkpt lat="46.0659" lon="4.77688">
        <ele>187</ele>
        <time>2018-03-04T10:55:48Z</time>
      </trkpt>
      <trkpt lat="46.06582" lon="4.77693">
        <ele>188</ele>
        <time>2018-03-04T10:55:51Z</time>
      </trkpt>
      <trkpt lat="46.06579" lon="4.77695">
        <ele>188</ele>
        <time>2018-03-04T10:55:52Z</time>
      </trkpt>
      <trkpt lat="46.06572" lon="4.777">
        <ele>188</ele>
        <time>2018-03-04T10:55:55Z</time>
      </trkpt>
      <trkpt lat="46.0657" lon="4.77702">
        <ele>189</ele>
        <time>2018-03-04T10:55:56Z</time>
      </trkpt>
      <trkpt lat="46.06563" lon="4.77708">
        <ele>189</ele>
        <time>2018-03-04T10:55:59Z</time>
      </trkpt>
      <trkpt lat="46.06561" lon="4.77711">
        <ele>189</ele>
        <time>2018-03-04T10:56:00Z</time>
      </trkpt>
      <trkpt lat="46.06555" lon="4.77719">
        <ele>189</ele>
        <time>2018-03-04T10:56:03Z</time>
      </trkpt>
      <trkpt lat="46.06553" lon="4.77722">
        <ele>189</ele>
        <time>2018-03-04T10:56:04Z</time>
      </trkpt>
      <trkpt lat="46.06549" lon="4.77732">
        <ele>189</ele>
        <time>2018-03-04T10:56:07Z</time>
      </trkpt>
      <trkpt lat="46.06547" lon="4.77736">
        <ele>189</ele>
        <time>2018-03-04T10:56:08Z</time>
      </trkpt>
      <trkpt lat="46.06543" lon="4.77746">
        <ele>190</ele>
        <time>2018-03-04T10:56:11Z</time>
      </trkpt>
      <trkpt lat="46.06542" lon="4.7775">
        <ele>190</ele>
        <time>2018-03-04T10:56:12Z</time>
      </trkpt>
      <trkpt lat="46.06538" lon="4.77757">
        <ele>191</ele>
        <time>2018-03-04T10:56:14Z</time>
      </trkpt>
      <trkpt lat="46.06536" lon="4.77761">
        <ele>191</ele>
        <time>2018-03-04T10:56:15Z</time>
      </trkpt>
      <trkpt lat="46.06532" lon="4.77768">
        <ele>192</ele>
        <time>2018-03-04T10:56:17Z</time>
      </trkpt>
      <trkpt lat="46.0653" lon="4.77772">
        <ele>192</ele>
        <time>2018-03-04T10:56:18Z</time>
      </trkpt>
      <trkpt lat="46.06526" lon="4.77779">
        <ele>192</ele>
        <time>2018-03-04T10:56:20Z</time>
      </trkpt>
      <trkpt lat="46.06523" lon="4.77783">
        <ele>192</ele>
        <time>2018-03-04T10:56:21Z</time>
      </trkpt>
      <trkpt lat="46.06518" lon="4.7779">
        <ele>192</ele>
        <time>2018-03-04T10:56:23Z</time>
      </trkpt>
      <trkpt lat="46.06516" lon="4.77793">
        <ele>192</ele>
        <time>2018-03-04T10:56:24Z</time>
      </trkpt>
      <trkpt lat="46.0651" lon="4.778">
        <ele>192</ele>
        <time>2018-03-04T10:56:26Z</time>
      </trkpt>
      <trkpt lat="46.06508" lon="4.77804">
        <ele>192</ele>
        <time>2018-03-04T10:56:27Z</time>
      </trkpt>
      <trkpt lat="46.06504" lon="4.77811">
        <ele>192</ele>
        <time>2018-03-04T10:56:29Z</time>
      </trkpt>
      <trkpt lat="46.06502" lon="4.77814">
        <ele>192</ele>
        <time>2018-03-04T10:56:30Z</time>
      </trkpt>
      <trkpt lat="46.06497" lon="4.77825">
        <ele>192</ele>
        <time>2018-03-04T10:56:33Z</time>
      </trkpt>
      <trkpt lat="46.06496" lon="4.77829">
        <ele>192</ele>
        <time>2018-03-04T10:56:34Z</time>
      </trkpt>
      <trkpt lat="46.06491" lon="4.7784">
        <ele>192</ele>
        <time>2018-03-04T10:56:37Z</time>
      </trkpt>
      <trkpt lat="46.0649" lon="4.77844">
        <ele>192</ele>
        <time>2018-03-04T10:56:38Z</time>
      </trkpt>
      <trkpt lat="46.06487" lon="4.77852">
        <ele>192</ele>
        <time>2018-03-04T10:56:40Z</time>
      </trkpt>
      <trkpt lat="46.06485" lon="4.77855">
        <ele>192</ele>
        <time>2018-03-04T10:56:41Z</time>
      </trkpt>
      <trkpt lat="46.06481" lon="4.77866">
        <ele>192</ele>
        <time>2018-03-04T10:56:44Z</time>
      </trkpt>
      <trkpt lat="46.0648" lon="4.7787">
        <ele>193</ele>
        <time>2018-03-04T10:56:45Z</time>
      </trkpt>
      <trkpt lat="46.06476" lon="4.77879">
        <ele>193</ele>
        <time>2018-03-04T10:56:48Z</time>
      </trkpt>
      <trkpt lat="46.06475" lon="4.77882">
        <ele>193</ele>
        <time>2018-03-04T10:56:49Z</time>
      </trkpt>
      <trkpt lat="46.06471" lon="4.77891">
        <ele>193</ele>
        <time>2018-03-04T10:56:52Z</time>
      </trkpt>
      <trkpt lat="46.0647" lon="4.77894">
        <ele>193</ele>
        <time>2018-03-04T10:56:53Z</time>
      </trkpt>
      <trkpt lat="46.06465" lon="4.77903">
        <ele>193</ele>
        <time>2018-03-04T10:56:56Z</time>
      </trkpt>
      <trkpt lat="46.06464" lon="4.77907">
        <ele>193</ele>
        <time>2018-03-04T10:56:57Z</time>
      </trkpt>
      <trkpt lat="46.06461" lon="4.77917">
        <ele>194</ele>
        <time>2018-03-04T10:57:00Z</time>
      </trkpt>
      <trkpt lat="46.0646" lon="4.77921">
        <ele>194</ele>
        <time>2018-03-04T10:57:01Z</time>
      </trkpt>
      <trkpt lat="46.06456" lon="4.7793">
        <ele>195</ele>
        <time>2018-03-04T10:57:04Z</time>
      </trkpt>
      <trkpt lat="46.06455" lon="4.77934">
        <ele>195</ele>
        <time>2018-03-04T10:57:05Z</time>
      </trkpt>
      <trkpt lat="46.06452" lon="4.77945">
        <ele>195</ele>
        <time>2018-03-04T10:57:08Z</time>
      </trkpt>
      <trkpt lat="46.06451" lon="4.77949">
        <ele>195</ele>
        <time>2018-03-04T10:57:09Z</time>
      </trkpt>
      <trkpt lat="46.06449" lon="4.77961">
        <ele>195</ele>
        <time>2018-03-04T10:57:12Z</time>
      </trkpt>
      <trkpt lat="46.06448" lon="4.77964">
        <ele>195</ele>
        <time>2018-03-04T10:57:13Z</time>
      </trkpt>
      <trkpt lat="46.06445" lon="4.77976">
        <ele>195</ele>
        <time>2018-03-04T10:57:16Z</time>
      </trkpt>
      <trkpt lat="46.06445" lon="4.7798">
        <ele>195</ele>
        <time>2018-03-04T10:57:17Z</time>
      </trkpt>
      <trkpt lat="46.06443" lon="4.77992">
        <ele>195</ele>
        <time>2018-03-04T10:57:20Z</time>
      </trkpt>
      <trkpt lat="46.06443" lon="4.77996">
        <ele>195</ele>
        <time>2018-03-04T10:57:21Z</time>
      </trkpt>
      <trkpt lat="46.0644" lon="4.78006">
        <ele>197</ele>
        <time>2018-03-04T10:57:24Z</time>
      </trkpt>
      <trkpt lat="46.06439" lon="4.78009">
        <ele>197</ele>
        <time>2018-03-04T10:57:25Z</time>
      </trkpt>
      <trkpt lat="46.06435" lon="4.78019">
        <ele>197</ele>
        <time>2018-03-04T10:57:28Z</time>
      </trkpt>
      <trkpt lat="46.06434" lon="4.78022">
        <ele>198</ele>
        <time>2018-03-04T10:57:29Z</time>
      </trkpt>
      <trkpt lat="46.06428" lon="4.78031">
        <ele>198</ele>
        <time>2018-03-04T10:57:32Z</time>
      </trkpt>
      <trkpt lat="46.06426" lon="4.78033">
        <ele>198</ele>
        <time>2018-03-04T10:57:33Z</time>
      </trkpt>
      <trkpt lat="46.06419" lon="4.78041">
        <ele>198</ele>
        <time>2018-03-04T10:57:36Z</time>
      </trkpt>
      <trkpt lat="46.06417" lon="4.78043">
        <ele>198</ele>
        <time>2018-03-04T10:57:37Z</time>
      </trkpt>
      <trkpt lat="46.0641" lon="4.78052">
        <ele>197</ele>
        <time>2018-03-04T10:57:40Z</time>
      </trkpt>
      <trkpt lat="46.06408" lon="4.78055">
        <ele>198</ele>
        <time>2018-03-04T10:57:41Z</time>
      </trkpt>
      <trkpt lat="46.06404" lon="4.78062">
        <ele>198</ele>
        <time>2018-03-04T10:57:43Z</time>
      </trkpt>
      <trkpt lat="46.06403" lon="4.78066">
        <ele>198</ele>
        <time>2018-03-04T10:57:44Z</time>
      </trkpt>
      <trkpt lat="46.064" lon="4.78074">
        <ele>198</ele>
        <time>2018-03-04T10:57:46Z</time>
      </trkpt>
      <trkpt lat="46.06398" lon="4.78078">
        <ele>198</ele>
        <time>2018-03-04T10:57:47Z</time>
      </trkpt>
      <trkpt lat="46.06396" lon="4.78086">
        <ele>200</ele>
        <time>2018-03-04T10:57:49Z</time>
      </trkpt>
      <trkpt lat="46.06394" lon="4.78091">
        <ele>200</ele>
        <time>2018-03-04T10:57:50Z</time>
      </trkpt>
      <trkpt lat="46.06392" lon="4.78099">
        <ele>200</ele>
        <time>2018-03-04T10:57:52Z</time>
      </trkpt>
      <trkpt lat="46.06391" lon="4.78104">
        <ele>200</ele>
        <time>2018-03-04T10:57:53Z</time>
      </trkpt>
      <trkpt lat="46.0639" lon="4.78114">
        <ele>200</ele>
        <time>2018-03-04T10:57:55Z</time>
      </trkpt>
      <trkpt lat="46.06389" lon="4.78119">
        <ele>200</ele>
        <time>2018-03-04T10:57:56Z</time>
      </trkpt>
      <trkpt lat="46.06389" lon="4.78129">
        <ele>201</ele>
        <time>2018-03-04T10:57:58Z</time>
      </trkpt>
      <trkpt lat="46.06389" lon="4.78134">
        <ele>201</ele>
        <time>2018-03-04T10:57:59Z</time>
      </trkpt>
      <trkpt lat="46.06389" lon="4.78143">
        <ele>201</ele>
        <time>2018-03-04T10:58:01Z</time>
      </trkpt>
      <trkpt lat="46.06389" lon="4.78148">
        <ele>201</ele>
        <time>2018-03-04T10:58:02Z</time>
      </trkpt>
      <trkpt lat="46.06389" lon="4.78157">
        <ele>201</ele>
        <time>2018-03-04T10:58:04Z</time>
      </trkpt>
      <trkpt lat="46.06389" lon="4.78161">
        <ele>201</ele>
        <time>2018-03-04T10:58:05Z</time>
      </trkpt>
      <trkpt lat="46.06388" lon="4.78173">
        <ele>204</ele>
        <time>2018-03-04T10:58:08Z</time>
      </trkpt>
      <trkpt lat="46.06387" lon="4.78177">
        <ele>204</ele>
        <time>2018-03-04T10:58:09Z</time>
      </trkpt>
      <trkpt lat="46.06385" lon="4.78189">
        <ele>204</ele>
        <time>2018-03-04T10:58:12Z</time>
      </trkpt>
      <trkpt lat="46.06383" lon="4.78193">
        <ele>204</ele>
        <time>2018-03-04T10:58:13Z</time>
      </trkpt>
      <trkpt lat="46.0638" lon="4.78201">
        <ele>204</ele>
        <time>2018-03-04T10:58:15Z</time>
      </trkpt>
      <trkpt lat="46.06378" lon="4.78205">
        <ele>204</ele>
        <time>2018-03-04T10:58:16Z</time>
      </trkpt>
      <trkpt lat="46.06373" lon="4.78211">
        <ele>204</ele>
        <time>2018-03-04T10:58:18Z</time>
      </trkpt>
      <trkpt lat="46.06371" lon="4.78214">
        <ele>204</ele>
        <time>2018-03-04T10:58:19Z</time>
      </trkpt>
      <trkpt lat="46.06366" lon="4.7822">
        <ele>204</ele>
        <time>2018-03-04T10:58:21Z</time>
      </trkpt>
      <trkpt lat="46.06364" lon="4.78222">
        <ele>205</ele>
        <time>2018-03-04T10:58:22Z</time>
      </trkpt>
      <trkpt lat="46.06359" lon="4.78227">
        <ele>205</ele>
        <time>2018-03-04T10:58:24Z</time>
      </trkpt>
      <trkpt lat="46.06356" lon="4.78229">
        <ele>205</ele>
        <time>2018-03-04T10:58:25Z</time>
      </trkpt>
      <trkpt lat="46.06353" lon="4.78232">
        <ele>205</ele>
        <time>2018-03-04T10:58:26Z</time>
      </trkpt>
      <trkpt lat="46.06344" lon="4.78238">
        <ele>205</ele>
        <time>2018-03-04T10:58:27Z</time>
      </trkpt>
      <trkpt lat="46.06336" lon="4.78236">
        <ele>205</ele>
        <time>2018-03-04T10:58:29Z</time>
      </trkpt>
      <trkpt lat="46.06332" lon="4.78235">
        <ele>206</ele>
        <time>2018-03-04T10:58:30Z</time>
      </trkpt>
      <trkpt lat="46.06323" lon="4.78232">
        <ele>205</ele>
        <time>2018-03-04T10:58:32Z</time>
      </trkpt>
      <trkpt lat="46.06319" lon="4.7823">
        <ele>205</ele>
        <time>2018-03-04T10:58:33Z</time>
      </trkpt>
      <trkpt lat="46.06311" lon="4.78225">
        <ele>205</ele>
        <time>2018-03-04T10:58:35Z</time>
      </trkpt>
      <trkpt lat="46.06308" lon="4.78221">
        <ele>205</ele>
        <time>2018-03-04T10:58:36Z</time>
      </trkpt>
      <trkpt lat="46.063" lon="4.78217">
        <ele>205</ele>
        <time>2018-03-04T10:58:38Z</time>
      </trkpt>
      <trkpt lat="46.06297" lon="4.78215">
        <ele>205</ele>
        <time>2018-03-04T10:58:39Z</time>
      </trkpt>
      <trkpt lat="46.06289" lon="4.78211">
        <ele>205</ele>
        <time>2018-03-04T10:58:41Z</time>
      </trkpt>
      <trkpt lat="46.06286" lon="4.7821">
        <ele>205</ele>
        <time>2018-03-04T10:58:42Z</time>
      </trkpt>
      <trkpt lat="46.06278" lon="4.78205">
        <ele>205</ele>
        <time>2018-03-04T10:58:46Z</time>
      </trkpt>
      <trkpt lat="46.06276" lon="4.78203">
        <ele>205</ele>
        <time>2018-03-04T10:58:47Z</time>
      </trkpt>
      <trkpt lat="46.06269" lon="4.78197">
        <ele>205</ele>
        <time>2018-03-04T10:58:48Z</time>
      </trkpt>
      <trkpt lat="46.06266" lon="4.78194">
        <ele>205</ele>
        <time>2018-03-04T10:58:49Z</time>
      </trkpt>
      <trkpt lat="46.06258" lon="4.7819">
        <ele>205</ele>
        <time>2018-03-04T10:58:51Z</time>
      </trkpt>
      <trkpt lat="46.06254" lon="4.78188">
        <ele>205</ele>
        <time>2018-03-04T10:58:52Z</time>
      </trkpt>
      <trkpt lat="46.06247" lon="4.78182">
        <ele>206</ele>
        <time>2018-03-04T10:58:54Z</time>
      </trkpt>
      <trkpt lat="46.06245" lon="4.78181">
        <ele>206</ele>
        <time>2018-03-04T10:58:55Z</time>
      </trkpt>
      <trkpt lat="46.06238" lon="4.78177">
        <ele>206</ele>
        <time>2018-03-04T10:58:57Z</time>
      </trkpt>
      <trkpt lat="46.06236" lon="4.78175">
        <ele>206</ele>
        <time>2018-03-04T10:58:58Z</time>
      </trkpt>
      <trkpt lat="46.06231" lon="4.78172">
        <ele>206</ele>
        <time>2018-03-04T10:59:00Z</time>
      </trkpt>
      <trkpt lat="46.06223" lon="4.78167">
        <ele>206</ele>
        <time>2018-03-04T10:59:01Z</time>
      </trkpt>
      <trkpt lat="46.06216" lon="4.78162">
        <ele>205</ele>
        <time>2018-03-04T10:59:03Z</time>
      </trkpt>
      <trkpt lat="46.06213" lon="4.7816">
        <ele>205</ele>
        <time>2018-03-04T10:59:04Z</time>
      </trkpt>
      <trkpt lat="46.06207" lon="4.78155">
        <ele>205</ele>
        <time>2018-03-04T10:59:06Z</time>
      </trkpt>
      <trkpt lat="46.06203" lon="4.78153">
        <ele>205</ele>
        <time>2018-03-04T10:59:07Z</time>
      </trkpt>
      <trkpt lat="46.06196" lon="4.78149">
        <ele>205</ele>
        <time>2018-03-04T10:59:09Z</time>
      </trkpt>
      <trkpt lat="46.06192" lon="4.78148">
        <ele>206</ele>
        <time>2018-03-04T10:59:10Z</time>
      </trkpt>
      <trkpt lat="46.06185" lon="4.78143">
        <ele>206</ele>
        <time>2018-03-04T10:59:12Z</time>
      </trkpt>
      <trkpt lat="46.06182" lon="4.78141">
        <ele>206</ele>
        <time>2018-03-04T10:59:13Z</time>
      </trkpt>
      <trkpt lat="46.06174" lon="4.78137">
        <ele>206</ele>
        <time>2018-03-04T10:59:16Z</time>
      </trkpt>
      <trkpt lat="46.06171" lon="4.78136">
        <ele>206</ele>
        <time>2018-03-04T10:59:17Z</time>
      </trkpt>
      <trkpt lat="46.06164" lon="4.78133">
        <ele>208</ele>
        <time>2018-03-04T10:59:20Z</time>
      </trkpt>
      <trkpt lat="46.06162" lon="4.78132">
        <ele>208</ele>
        <time>2018-03-04T10:59:21Z</time>
      </trkpt>
      <trkpt lat="46.06154" lon="4.78126">
        <ele>208</ele>
        <time>2018-03-04T10:59:24Z</time>
      </trkpt>
      <trkpt lat="46.06151" lon="4.78124">
        <ele>208</ele>
        <time>2018-03-04T10:59:25Z</time>
      </trkpt>
      <trkpt lat="46.06143" lon="4.78119">
        <ele>208</ele>
        <time>2018-03-04T10:59:28Z</time>
      </trkpt>
      <trkpt lat="46.06141" lon="4.78116">
        <ele>208</ele>
        <time>2018-03-04T10:59:29Z</time>
      </trkpt>
      <trkpt lat="46.06134" lon="4.78108">
        <ele>209</ele>
        <time>2018-03-04T10:59:32Z</time>
      </trkpt>
      <trkpt lat="46.06131" lon="4.78106">
        <ele>209</ele>
        <time>2018-03-04T10:59:33Z</time>
      </trkpt>
      <trkpt lat="46.06126" lon="4.781">
        <ele>209</ele>
        <time>2018-03-04T10:59:35Z</time>
      </trkpt>
      <trkpt lat="46.06124" lon="4.78097">
        <ele>209</ele>
        <time>2018-03-04T10:59:36Z</time>
      </trkpt>
      <trkpt lat="46.06117" lon="4.78089">
        <ele>209</ele>
        <time>2018-03-04T10:59:39Z</time>
      </trkpt>
      <trkpt lat="46.06116" lon="4.78086">
        <ele>209</ele>
        <time>2018-03-04T10:59:40Z</time>
      </trkpt>
      <trkpt lat="46.0611" lon="4.78077">
        <ele>210</ele>
        <time>2018-03-04T10:59:43Z</time>
      </trkpt>
      <trkpt lat="46.06108" lon="4.78074">
        <ele>210</ele>
        <time>2018-03-04T10:59:44Z</time>
      </trkpt>
      <trkpt lat="46.06103" lon="4.78067">
        <ele>210</ele>
        <time>2018-03-04T10:59:46Z</time>
      </trkpt>
      <trkpt lat="46.061" lon="4.78064">
        <ele>210</ele>
        <time>2018-03-04T10:59:47Z</time>
      </trkpt>
      <trkpt lat="46.06097" lon="4.78062">
        <ele>210</ele>
        <time>2018-03-04T10:59:48Z</time>
      </trkpt>
      <trkpt lat="46.06088" lon="4.78053">
        <ele>210</ele>
        <time>2018-03-04T10:59:49Z</time>
      </trkpt>
      <trkpt lat="46.06085" lon="4.7805">
        <ele>210</ele>
        <time>2018-03-04T10:59:50Z</time>
      </trkpt>
      <trkpt lat="46.0608" lon="4.78047">
        <ele>211</ele>
        <time>2018-03-04T10:59:51Z</time>
      </trkpt>
      <trkpt lat="46.06072" lon="4.78041">
        <ele>211</ele>
        <time>2018-03-04T10:59:53Z</time>
      </trkpt>
      <trkpt lat="46.06068" lon="4.78039">
        <ele>211</ele>
        <time>2018-03-04T10:59:54Z</time>
      </trkpt>
      <trkpt lat="46.06061" lon="4.78033">
        <ele>211</ele>
        <time>2018-03-04T10:59:56Z</time>
      </trkpt>
      <trkpt lat="46.06058" lon="4.7803">
        <ele>211</ele>
        <time>2018-03-04T10:59:57Z</time>
      </trkpt>
      <trkpt lat="46.06052" lon="4.78025">
        <ele>211</ele>
        <time>2018-03-04T10:59:59Z</time>
      </trkpt>
      <trkpt lat="46.0605" lon="4.78023">
        <ele>211</ele>
        <time>2018-03-04T11:00:00Z</time>
      </trkpt>
      <trkpt lat="46.06045" lon="4.78015">
        <ele>211</ele>
        <time>2018-03-04T11:00:03Z</time>
      </trkpt>
      <trkpt lat="46.06044" lon="4.78011">
        <ele>211</ele>
        <time>2018-03-04T11:00:04Z</time>
      </trkpt>
      <trkpt lat="46.06038" lon="4.78002">
        <ele>211</ele>
        <time>2018-03-04T11:00:05Z</time>
      </trkpt>
      <trkpt lat="46.06036" lon="4.77998">
        <ele>211</ele>
        <time>2018-03-04T11:00:06Z</time>
      </trkpt>
      <trkpt lat="46.0603" lon="4.7799">
        <ele>211</ele>
        <time>2018-03-04T11:00:09Z</time>
      </trkpt>
      <trkpt lat="46.06028" lon="4.77988">
        <ele>211</ele>
        <time>2018-03-04T11:00:10Z</time>
      </trkpt>
      <trkpt lat="46.06022" lon="4.77981">
        <ele>211</ele>
        <time>2018-03-04T11:00:11Z</time>
      </trkpt>
      <trkpt lat="46.06019" lon="4.77978">
        <ele>211</ele>
        <time>2018-03-04T11:00:12Z</time>
      </trkpt>
      <trkpt lat="46.06013" lon="4.77972">
        <ele>211</ele>
        <time>2018-03-04T11:00:14Z</time>
      </trkpt>
      <trkpt lat="46.06012" lon="4.7797">
        <ele>211</ele>
        <time>2018-03-04T11:00:15Z</time>
      </trkpt>
      <trkpt lat="46.06006" lon="4.77963">
        <ele>211</ele>
        <time>2018-03-04T11:00:18Z</time>
      </trkpt>
      <trkpt lat="46.06" lon="4.77955">
        <ele>212</ele>
        <time>2018-03-04T11:00:19Z</time>
      </trkpt>
      <trkpt lat="46.05995" lon="4.77946">
        <ele>212</ele>
        <time>2018-03-04T11:00:21Z</time>
      </trkpt>
      <trkpt lat="46.05995" lon="4.77944">
        <ele>212</ele>
        <time>2018-03-04T11:00:22Z</time>
      </trkpt>
      <trkpt lat="46.05994" lon="4.7794">
        <ele>212</ele>
        <time>2018-03-04T11:00:23Z</time>
      </trkpt>
      <trkpt lat="46.05992" lon="4.77931">
        <ele>212</ele>
        <time>2018-03-04T11:00:24Z</time>
      </trkpt>
      <trkpt lat="46.0599" lon="4.77926">
        <ele>212</ele>
        <time>2018-03-04T11:00:26Z</time>
      </trkpt>
      <trkpt lat="46.05987" lon="4.77917">
        <ele>212</ele>
        <time>2018-03-04T11:00:27Z</time>
      </trkpt>
      <trkpt lat="46.05984" lon="4.77908">
        <ele>211</ele>
        <time>2018-03-04T11:00:29Z</time>
      </trkpt>
      <trkpt lat="46.05982" lon="4.77903">
        <ele>211</ele>
        <time>2018-03-04T11:00:30Z</time>
      </trkpt>
      <trkpt lat="46.05978" lon="4.77896">
        <ele>211</ele>
        <time>2018-03-04T11:00:32Z</time>
      </trkpt>
      <trkpt lat="46.05974" lon="4.7789">
        <ele>211</ele>
        <time>2018-03-04T11:00:33Z</time>
      </trkpt>
      <trkpt lat="46.05967" lon="4.7788">
        <ele>211</ele>
        <time>2018-03-04T11:00:35Z</time>
      </trkpt>
      <trkpt lat="46.05964" lon="4.77876">
        <ele>211</ele>
        <time>2018-03-04T11:00:36Z</time>
      </trkpt>
      <trkpt lat="46.05959" lon="4.77871">
        <ele>211</ele>
        <time>2018-03-04T11:00:37Z</time>
      </trkpt>
      <trkpt lat="46.05957" lon="4.77866">
        <ele>211</ele>
        <time>2018-03-04T11:00:38Z</time>
      </trkpt>
      <trkpt lat="46.05951" lon="4.77857">
        <ele>211</ele>
        <time>2018-03-04T11:00:40Z</time>
      </trkpt>
      <trkpt lat="46.05948" lon="4.77852">
        <ele>211</ele>
        <time>2018-03-04T11:00:41Z</time>
      </trkpt>
      <trkpt lat="46.05942" lon="4.77844">
        <ele>211</ele>
        <time>2018-03-04T11:00:43Z</time>
      </trkpt>
      <trkpt lat="46.0594" lon="4.77838">
        <ele>211</ele>
        <time>2018-03-04T11:00:44Z</time>
      </trkpt>
      <trkpt lat="46.05937" lon="4.77833">
        <ele>210</ele>
        <time>2018-03-04T11:00:45Z</time>
      </trkpt>
      <trkpt lat="46.05933" lon="4.77828">
        <ele>210</ele>
        <time>2018-03-04T11:00:46Z</time>
      </trkpt>
      <trkpt lat="46.0593" lon="4.77824">
        <ele>210</ele>
        <time>2018-03-04T11:00:47Z</time>
      </trkpt>
      <trkpt lat="46.05927" lon="4.77818">
        <ele>210</ele>
        <time>2018-03-04T11:00:48Z</time>
      </trkpt>
      <trkpt lat="46.0592" lon="4.7781">
        <ele>210</ele>
        <time>2018-03-04T11:00:50Z</time>
      </trkpt>
      <trkpt lat="46.05917" lon="4.77805">
        <ele>210</ele>
        <time>2018-03-04T11:00:51Z</time>
      </trkpt>
      <trkpt lat="46.05913" lon="4.77799">
        <ele>210</ele>
        <time>2018-03-04T11:00:52Z</time>
      </trkpt>
      <trkpt lat="46.05909" lon="4.77794">
        <ele>210</ele>
        <time>2018-03-04T11:00:53Z</time>
      </trkpt>
      <trkpt lat="46.05906" lon="4.77787">
        <ele>210</ele>
        <time>2018-03-04T11:00:54Z</time>
      </trkpt>
      <trkpt lat="46.05902" lon="4.77781">
        <ele>210</ele>
        <time>2018-03-04T11:00:55Z</time>
      </trkpt>
      <trkpt lat="46.05898" lon="4.77775">
        <ele>210</ele>
        <time>2018-03-04T11:00:56Z</time>
      </trkpt>
      <trkpt lat="46.05896" lon="4.77769">
        <ele>210</ele>
        <time>2018-03-04T11:00:57Z</time>
      </trkpt>
      <trkpt lat="46.05895" lon="4.77762">
        <ele>209</ele>
        <time>2018-03-04T11:00:58Z</time>
      </trkpt>
      <trkpt lat="46.05893" lon="4.77755">
        <ele>209</ele>
        <time>2018-03-04T11:00:59Z</time>
      </trkpt>
      <trkpt lat="46.05893" lon="4.77747">
        <ele>209</ele>
        <time>2018-03-04T11:01:00Z</time>
      </trkpt>
      <trkpt lat="46.05893" lon="4.77739">
        <ele>209</ele>
        <time>2018-03-04T11:01:01Z</time>
      </trkpt>
      <trkpt lat="46.05892" lon="4.7773">
        <ele>209</ele>
        <time>2018-03-04T11:01:02Z</time>
      </trkpt>
      <trkpt lat="46.05891" lon="4.77721">
        <ele>209</ele>
        <time>2018-03-04T11:01:03Z</time>
      </trkpt>
      <trkpt lat="46.0589" lon="4.77714">
        <ele>208</ele>
        <time>2018-03-04T11:01:04Z</time>
      </trkpt>
      <trkpt lat="46.05889" lon="4.77706">
        <ele>208</ele>
        <time>2018-03-04T11:01:05Z</time>
      </trkpt>
      <trkpt lat="46.05888" lon="4.77698">
        <ele>208</ele>
        <time>2018-03-04T11:01:06Z</time>
      </trkpt>
      <trkpt lat="46.05886" lon="4.7769">
        <ele>208</ele>
        <time>2018-03-04T11:01:07Z</time>
      </trkpt>
      <trkpt lat="46.05885" lon="4.77682">
        <ele>208</ele>
        <time>2018-03-04T11:01:08Z</time>
      </trkpt>
      <trkpt lat="46.05883" lon="4.77675">
        <ele>208</ele>
        <time>2018-03-04T11:01:09Z</time>
      </trkpt>
      <trkpt lat="46.0588" lon="4.77669">
        <ele>208</ele>
        <time>2018-03-04T11:01:10Z</time>
      </trkpt>
      <trkpt lat="46.05877" lon="4.77663">
        <ele>208</ele>
        <time>2018-03-04T11:01:11Z</time>
      </trkpt>
      <trkpt lat="46.05874" lon="4.77658">
        <ele>208</ele>
        <time>2018-03-04T11:01:12Z</time>
      </trkpt>
      <trkpt lat="46.0587" lon="4.77653">
        <ele>208</ele>
        <time>2018-03-04T11:01:13Z</time>
      </trkpt>
      <trkpt lat="46.05866" lon="4.77647">
        <ele>208</ele>
        <time>2018-03-04T11:01:14Z</time>
      </trkpt>
      <trkpt lat="46.05862" lon="4.77643">
        <ele>208</ele>
        <time>2018-03-04T11:01:15Z</time>
      </trkpt>
      <trkpt lat="46.05859" lon="4.77638">
        <ele>208</ele>
        <time>2018-03-04T11:01:16Z</time>
      </trkpt>
      <trkpt lat="46.05855" lon="4.77634">
        <ele>208</ele>
        <time>2018-03-04T11:01:17Z</time>
      </trkpt>
      <trkpt lat="46.05848" lon="4.77626">
        <ele>208</ele>
        <time>2018-03-04T11:01:19Z</time>
      </trkpt>
      <trkpt lat="46.05845" lon="4.77622">
        <ele>208</ele>
        <time>2018-03-04T11:01:20Z</time>
      </trkpt>
      <trkpt lat="46.05841" lon="4.77617">
        <ele>208</ele>
        <time>2018-03-04T11:01:21Z</time>
      </trkpt>
      <trkpt lat="46.05838" lon="4.77613">
        <ele>208</ele>
        <time>2018-03-04T11:01:22Z</time>
      </trkpt>
      <trkpt lat="46.05834" lon="4.77609">
        <ele>208</ele>
        <time>2018-03-04T11:01:23Z</time>
      </trkpt>
      <trkpt lat="46.0583" lon="4.77606">
        <ele>208</ele>
        <time>2018-03-04T11:01:24Z</time>
      </trkpt>
      <trkpt lat="46.05825" lon="4.77602">
        <ele>208</ele>
        <time>2018-03-04T11:01:25Z</time>
      </trkpt>
      <trkpt lat="46.05822" lon="4.77598">
        <ele>208</ele>
        <time>2018-03-04T11:01:26Z</time>
      </trkpt>
      <trkpt lat="46.05817" lon="4.77593">
        <ele>208</ele>
        <time>2018-03-04T11:01:27Z</time>
      </trkpt>
      <trkpt lat="46.05814" lon="4.77589">
        <ele>208</ele>
        <time>2018-03-04T11:01:28Z</time>
      </trkpt>
      <trkpt lat="46.0581" lon="4.77585">
        <ele>208</ele>
        <time>2018-03-04T11:01:29Z</time>
      </trkpt>
      <trkpt lat="46.05806" lon="4.77581">
        <ele>208</ele>
        <time>2018-03-04T11:01:30Z</time>
      </trkpt>
      <trkpt lat="46.058" lon="4.77574">
        <ele>208</ele>
        <time>2018-03-04T11:01:32Z</time>
      </trkpt>
      <trkpt lat="46.05796" lon="4.7757">
        <ele>208</ele>
        <time>2018-03-04T11:01:33Z</time>
      </trkpt>
      <trkpt lat="46.05793" lon="4.77567">
        <ele>208</ele>
        <time>2018-03-04T11:01:34Z</time>
      </trkpt>
      <trkpt lat="46.05789" lon="4.77562">
        <ele>208</ele>
        <time>2018-03-04T11:01:35Z</time>
      </trkpt>
      <trkpt lat="46.05784" lon="4.77553">
        <ele>208</ele>
        <time>2018-03-04T11:01:37Z</time>
      </trkpt>
      <trkpt lat="46.05781" lon="4.77547">
        <ele>208</ele>
        <time>2018-03-04T11:01:38Z</time>
      </trkpt>
      <trkpt lat="46.05775" lon="4.77538">
        <ele>208</ele>
        <time>2018-03-04T11:01:40Z</time>
      </trkpt>
      <trkpt lat="46.05773" lon="4.77533">
        <ele>208</ele>
        <time>2018-03-04T11:01:41Z</time>
      </trkpt>
      <trkpt lat="46.05767" lon="4.77524">
        <ele>208</ele>
        <time>2018-03-04T11:01:43Z</time>
      </trkpt>
      <trkpt lat="46.05764" lon="4.77519">
        <ele>208</ele>
        <time>2018-03-04T11:01:44Z</time>
      </trkpt>
      <trkpt lat="46.05761" lon="4.77514">
        <ele>208</ele>
        <time>2018-03-04T11:01:45Z</time>
      </trkpt>
      <trkpt lat="46.05758" lon="4.77509">
        <ele>208</ele>
        <time>2018-03-04T11:01:46Z</time>
      </trkpt>
      <trkpt lat="46.05754" lon="4.77504">
        <ele>208</ele>
        <time>2018-03-04T11:01:47Z</time>
      </trkpt>
      <trkpt lat="46.0575" lon="4.77499">
        <ele>208</ele>
        <time>2018-03-04T11:01:48Z</time>
      </trkpt>
      <trkpt lat="46.05747" lon="4.77494">
        <ele>208</ele>
        <time>2018-03-04T11:01:49Z</time>
      </trkpt>
      <trkpt lat="46.05744" lon="4.77489">
        <ele>208</ele>
        <time>2018-03-04T11:01:50Z</time>
      </trkpt>
      <trkpt lat="46.0574" lon="4.77485">
        <ele>207</ele>
        <time>2018-03-04T11:01:51Z</time>
      </trkpt>
      <trkpt lat="46.05737" lon="4.7748">
        <ele>207</ele>
        <time>2018-03-04T11:01:52Z</time>
      </trkpt>
      <trkpt lat="46.05733" lon="4.77475">
        <ele>207</ele>
        <time>2018-03-04T11:01:53Z</time>
      </trkpt>
      <trkpt lat="46.0573" lon="4.7747">
        <ele>207</ele>
        <time>2018-03-04T11:01:54Z</time>
      </trkpt>
      <trkpt lat="46.05726" lon="4.77466">
        <ele>207</ele>
        <time>2018-03-04T11:01:55Z</time>
      </trkpt>
      <trkpt lat="46.05722" lon="4.77462">
        <ele>207</ele>
        <time>2018-03-04T11:01:56Z</time>
      </trkpt>
      <trkpt lat="46.05718" lon="4.77458">
        <ele>207</ele>
        <time>2018-03-04T11:01:57Z</time>
      </trkpt>
      <trkpt lat="46.05713" lon="4.77454">
        <ele>207</ele>
        <time>2018-03-04T11:01:58Z</time>
      </trkpt>
      <trkpt lat="46.05709" lon="4.77452">
        <ele>207</ele>
        <time>2018-03-04T11:01:59Z</time>
      </trkpt>
      <trkpt lat="46.05704" lon="4.77448">
        <ele>207</ele>
        <time>2018-03-04T11:02:00Z</time>
      </trkpt>
      <trkpt lat="46.05699" lon="4.77445">
        <ele>206</ele>
        <time>2018-03-04T11:02:01Z</time>
      </trkpt>
      <trkpt lat="46.05694" lon="4.77442">
        <ele>206</ele>
        <time>2018-03-04T11:02:02Z</time>
      </trkpt>
      <trkpt lat="46.05689" lon="4.77437">
        <ele>206</ele>
        <time>2018-03-04T11:02:03Z</time>
      </trkpt>
      <trkpt lat="46.05685" lon="4.77432">
        <ele>206</ele>
        <time>2018-03-04T11:02:04Z</time>
      </trkpt>
      <trkpt lat="46.0568" lon="4.77429">
        <ele>206</ele>
        <time>2018-03-04T11:02:05Z</time>
      </trkpt>
      <trkpt lat="46.05676" lon="4.77425">
        <ele>206</ele>
        <time>2018-03-04T11:02:06Z</time>
      </trkpt>
      <trkpt lat="46.05672" lon="4.7742">
        <ele>205</ele>
        <time>2018-03-04T11:02:07Z</time>
      </trkpt>
      <trkpt lat="46.05667" lon="4.77416">
        <ele>205</ele>
        <time>2018-03-04T11:02:08Z</time>
      </trkpt>
      <trkpt lat="46.05663" lon="4.77411">
        <ele>204</ele>
        <time>2018-03-04T11:02:09Z</time>
      </trkpt>
      <trkpt lat="46.05658" lon="4.77406">
        <ele>204</ele>
        <time>2018-03-04T11:02:10Z</time>
      </trkpt>
      <trkpt lat="46.05655" lon="4.77401">
        <ele>204</ele>
        <time>2018-03-04T11:02:11Z</time>
      </trkpt>
      <trkpt lat="46.0565" lon="4.77396">
        <ele>204</ele>
        <time>2018-03-04T11:02:12Z</time>
      </trkpt>
      <trkpt lat="46.05645" lon="4.77393">
        <ele>203</ele>
        <time>2018-03-04T11:02:13Z</time>
      </trkpt>
      <trkpt lat="46.0564" lon="4.77389">
        <ele>203</ele>
        <time>2018-03-04T11:02:14Z</time>
      </trkpt>
      <trkpt lat="46.05636" lon="4.77384">
        <ele>203</ele>
        <time>2018-03-04T11:02:15Z</time>
      </trkpt>
      <trkpt lat="46.05631" lon="4.7738">
        <ele>203</ele>
        <time>2018-03-04T11:02:16Z</time>
      </trkpt>
      <trkpt lat="46.05626" lon="4.77377">
        <ele>203</ele>
        <time>2018-03-04T11:02:17Z</time>
      </trkpt>
      <trkpt lat="46.05621" lon="4.77373">
        <ele>203</ele>
        <time>2018-03-04T11:02:18Z</time>
      </trkpt>
      <trkpt lat="46.05615" lon="4.77369">
        <ele>203</ele>
        <time>2018-03-04T11:02:19Z</time>
      </trkpt>
      <trkpt lat="46.0561" lon="4.77366">
        <ele>202</ele>
        <time>2018-03-04T11:02:20Z</time>
      </trkpt>
      <trkpt lat="46.05605" lon="4.77362">
        <ele>202</ele>
        <time>2018-03-04T11:02:21Z</time>
      </trkpt>
      <trkpt lat="46.05599" lon="4.77357">
        <ele>202</ele>
        <time>2018-03-04T11:02:22Z</time>
      </trkpt>
      <trkpt lat="46.05594" lon="4.77353">
        <ele>202</ele>
        <time>2018-03-04T11:02:23Z</time>
      </trkpt>
      <trkpt lat="46.05589" lon="4.7735">
        <ele>201</ele>
        <time>2018-03-04T11:02:24Z</time>
      </trkpt>
      <trkpt lat="46.05583" lon="4.77346">
        <ele>201</ele>
        <time>2018-03-04T11:02:25Z</time>
      </trkpt>
      <trkpt lat="46.05578" lon="4.77342">
        <ele>201</ele>
        <time>2018-03-04T11:02:26Z</time>
      </trkpt>
      <trkpt lat="46.05572" lon="4.77338">
        <ele>201</ele>
        <time>2018-03-04T11:02:27Z</time>
      </trkpt>
      <trkpt lat="46.05566" lon="4.77335">
        <ele>201</ele>
        <time>2018-03-04T11:02:28Z</time>
      </trkpt>
      <trkpt lat="46.0556" lon="4.77331">
        <ele>200</ele>
        <time>2018-03-04T11:02:29Z</time>
      </trkpt>
      <trkpt lat="46.05554" lon="4.77328">
        <ele>200</ele>
        <time>2018-03-04T11:02:30Z</time>
      </trkpt>
      <trkpt lat="46.05548" lon="4.77325">
        <ele>200</ele>
        <time>2018-03-04T11:02:31Z</time>
      </trkpt>
      <trkpt lat="46.05543" lon="4.77322">
        <ele>200</ele>
        <time>2018-03-04T11:02:32Z</time>
      </trkpt>
      <trkpt lat="46.05538" lon="4.77317">
        <ele>200</ele>
        <time>2018-03-04T11:02:33Z</time>
      </trkpt>
      <trkpt lat="46.05533" lon="4.77315">
        <ele>200</ele>
        <time>2018-03-04T11:02:34Z</time>
      </trkpt>
      <trkpt lat="46.05528" lon="4.77312">
        <ele>200</ele>
        <time>2018-03-04T11:02:35Z</time>
      </trkpt>
      <trkpt lat="46.05523" lon="4.7731">
        <ele>200</ele>
        <time>2018-03-04T11:02:36Z</time>
      </trkpt>
      <trkpt lat="46.05518" lon="4.77307">
        <ele>200</ele>
        <time>2018-03-04T11:02:37Z</time>
      </trkpt>
      <trkpt lat="46.05513" lon="4.77305">
        <ele>200</ele>
        <time>2018-03-04T11:02:38Z</time>
      </trkpt>
      <trkpt lat="46.05509" lon="4.77303">
        <ele>200</ele>
        <time>2018-03-04T11:02:39Z</time>
      </trkpt>
      <trkpt lat="46.05504" lon="4.77299">
        <ele>200</ele>
        <time>2018-03-04T11:02:40Z</time>
      </trkpt>
      <trkpt lat="46.055" lon="4.77297">
        <ele>201</ele>
        <time>2018-03-04T11:02:41Z</time>
      </trkpt>
      <trkpt lat="46.05496" lon="4.77294">
        <ele>201</ele>
        <time>2018-03-04T11:02:42Z</time>
      </trkpt>
      <trkpt lat="46.0549" lon="4.77291">
        <ele>201</ele>
        <time>2018-03-04T11:02:43Z</time>
      </trkpt>
      <trkpt lat="46.05486" lon="4.77289">
        <ele>201</ele>
        <time>2018-03-04T11:02:44Z</time>
      </trkpt>
      <trkpt lat="46.05482" lon="4.77287">
        <ele>201</ele>
        <time>2018-03-04T11:02:45Z</time>
      </trkpt>
      <trkpt lat="46.05478" lon="4.77285">
        <ele>201</ele>
        <time>2018-03-04T11:02:46Z</time>
      </trkpt>
      <trkpt lat="46.05473" lon="4.77281">
        <ele>201</ele>
        <time>2018-03-04T11:02:47Z</time>
      </trkpt>
      <trkpt lat="46.05469" lon="4.77278">
        <ele>201</ele>
        <time>2018-03-04T11:02:48Z</time>
      </trkpt>
      <trkpt lat="46.05464" lon="4.77277">
        <ele>201</ele>
        <time>2018-03-04T11:02:49Z</time>
      </trkpt>
      <trkpt lat="46.0546" lon="4.77276">
        <ele>201</ele>
        <time>2018-03-04T11:02:50Z</time>
      </trkpt>
      <trkpt lat="46.05451" lon="4.77271">
        <ele>201</ele>
        <time>2018-03-04T11:02:52Z</time>
      </trkpt>
      <trkpt lat="46.05447" lon="4.77269">
        <ele>201</ele>
        <time>2018-03-04T11:02:53Z</time>
      </trkpt>
      <trkpt lat="46.05442" lon="4.77267">
        <ele>201</ele>
        <time>2018-03-04T11:02:54Z</time>
      </trkpt>
      <trkpt lat="46.05437" lon="4.77264">
        <ele>201</ele>
        <time>2018-03-04T11:02:55Z</time>
      </trkpt>
      <trkpt lat="46.05433" lon="4.77263">
        <ele>201</ele>
        <time>2018-03-04T11:02:56Z</time>
      </trkpt>
      <trkpt lat="46.05428" lon="4.77261">
        <ele>201</ele>
        <time>2018-03-04T11:02:57Z</time>
      </trkpt>
      <trkpt lat="46.05423" lon="4.77259">
        <ele>201</ele>
        <time>2018-03-04T11:02:58Z</time>
      </trkpt>
      <trkpt lat="46.05418" lon="4.77256">
        <ele>201</ele>
        <time>2018-03-04T11:02:59Z</time>
      </trkpt>
      <trkpt lat="46.05414" lon="4.77254">
        <ele>202</ele>
        <time>2018-03-04T11:03:00Z</time>
      </trkpt>
      <trkpt lat="46.05409" lon="4.77252">
        <ele>202</ele>
        <time>2018-03-04T11:03:01Z</time>
      </trkpt>
      <trkpt lat="46.05405" lon="4.7725">
        <ele>202</ele>
        <time>2018-03-04T11:03:02Z</time>
      </trkpt>
      <trkpt lat="46.054" lon="4.77248">
        <ele>202</ele>
        <time>2018-03-04T11:03:03Z</time>
      </trkpt>
      <trkpt lat="46.05396" lon="4.77246">
        <ele>202</ele>
        <time>2018-03-04T11:03:04Z</time>
      </trkpt>
      <trkpt lat="46.05392" lon="4.77243">
        <ele>202</ele>
        <time>2018-03-04T11:03:05Z</time>
      </trkpt>
      <trkpt lat="46.05388" lon="4.77242">
        <ele>202</ele>
        <time>2018-03-04T11:03:06Z</time>
      </trkpt>
      <trkpt lat="46.05383" lon="4.77239">
        <ele>203</ele>
        <time>2018-03-04T11:03:07Z</time>
      </trkpt>
      <trkpt lat="46.05379" lon="4.77238">
        <ele>203</ele>
        <time>2018-03-04T11:03:08Z</time>
      </trkpt>
      <trkpt lat="46.05374" lon="4.77235">
        <ele>203</ele>
        <time>2018-03-04T11:03:09Z</time>
      </trkpt>
      <trkpt lat="46.05369" lon="4.77232">
        <ele>203</ele>
        <time>2018-03-04T11:03:10Z</time>
      </trkpt>
      <trkpt lat="46.05365" lon="4.77228">
        <ele>203</ele>
        <time>2018-03-04T11:03:11Z</time>
      </trkpt>
      <trkpt lat="46.0536" lon="4.77225">
        <ele>203</ele>
        <time>2018-03-04T11:03:12Z</time>
      </trkpt>
      <trkpt lat="46.05356" lon="4.77222">
        <ele>203</ele>
        <time>2018-03-04T11:03:13Z</time>
      </trkpt>
      <trkpt lat="46.05351" lon="4.77219">
        <ele>203</ele>
        <time>2018-03-04T11:03:14Z</time>
      </trkpt>
      <trkpt lat="46.05346" lon="4.77217">
        <ele>203</ele>
        <time>2018-03-04T11:03:15Z</time>
      </trkpt>
      <trkpt lat="46.05342" lon="4.77214">
        <ele>203</ele>
        <time>2018-03-04T11:03:16Z</time>
      </trkpt>
      <trkpt lat="46.05337" lon="4.77211">
        <ele>203</ele>
        <time>2018-03-04T11:03:17Z</time>
      </trkpt>
      <trkpt lat="46.05332" lon="4.77206">
        <ele>205</ele>
        <time>2018-03-04T11:03:18Z</time>
      </trkpt>
      <trkpt lat="46.05327" lon="4.77202">
        <ele>205</ele>
        <time>2018-03-04T11:03:19Z</time>
      </trkpt>
      <trkpt lat="46.05322" lon="4.77199">
        <ele>205</ele>
        <time>2018-03-04T11:03:20Z</time>
      </trkpt>
      <trkpt lat="46.05317" lon="4.77194">
        <ele>205</ele>
        <time>2018-03-04T11:03:21Z</time>
      </trkpt>
      <trkpt lat="46.05313" lon="4.77188">
        <ele>205</ele>
        <time>2018-03-04T11:03:22Z</time>
      </trkpt>
      <trkpt lat="46.05308" lon="4.77184">
        <ele>205</ele>
        <time>2018-03-04T11:03:23Z</time>
      </trkpt>
      <trkpt lat="46.05303" lon="4.77181">
        <ele>205</ele>
        <time>2018-03-04T11:03:24Z</time>
      </trkpt>
      <trkpt lat="46.05298" lon="4.77177">
        <ele>205</ele>
        <time>2018-03-04T11:03:25Z</time>
      </trkpt>
      <trkpt lat="46.05293" lon="4.77173">
        <ele>205</ele>
        <time>2018-03-04T11:03:26Z</time>
      </trkpt>
      <trkpt lat="46.0529" lon="4.77169">
        <ele>206</ele>
        <time>2018-03-04T11:03:27Z</time>
      </trkpt>
      <trkpt lat="46.05286" lon="4.77165">
        <ele>204</ele>
        <time>2018-03-04T11:03:28Z</time>
      </trkpt>
      <trkpt lat="46.0528" lon="4.7716">
        <ele>204</ele>
        <time>2018-03-04T11:03:29Z</time>
      </trkpt>
      <trkpt lat="46.05276" lon="4.77155">
        <ele>204</ele>
        <time>2018-03-04T11:03:30Z</time>
      </trkpt>
      <trkpt lat="46.05271" lon="4.7715">
        <ele>204</ele>
        <time>2018-03-04T11:03:31Z</time>
      </trkpt>
      <trkpt lat="46.05267" lon="4.77146">
        <ele>204</ele>
        <time>2018-03-04T11:03:32Z</time>
      </trkpt>
      <trkpt lat="46.05262" lon="4.7714">
        <ele>204</ele>
        <time>2018-03-04T11:03:33Z</time>
      </trkpt>
      <trkpt lat="46.05258" lon="4.77136">
        <ele>204</ele>
        <time>2018-03-04T11:03:34Z</time>
      </trkpt>
      <trkpt lat="46.05254" lon="4.77132">
        <ele>204</ele>
        <time>2018-03-04T11:03:35Z</time>
      </trkpt>
      <trkpt lat="46.0525" lon="4.77128">
        <ele>204</ele>
        <time>2018-03-04T11:03:36Z</time>
      </trkpt>
      <trkpt lat="46.05246" lon="4.77122">
        <ele>204</ele>
        <time>2018-03-04T11:03:37Z</time>
      </trkpt>
      <trkpt lat="46.05241" lon="4.77116">
        <ele>203</ele>
        <time>2018-03-04T11:03:38Z</time>
      </trkpt>
      <trkpt lat="46.05235" lon="4.77112">
        <ele>203</ele>
        <time>2018-03-04T11:03:39Z</time>
      </trkpt>
      <trkpt lat="46.05231" lon="4.77106">
        <ele>203</ele>
        <time>2018-03-04T11:03:40Z</time>
      </trkpt>
      <trkpt lat="46.05227" lon="4.77099">
        <ele>203</ele>
        <time>2018-03-04T11:03:41Z</time>
      </trkpt>
      <trkpt lat="46.05224" lon="4.77091">
        <ele>203</ele>
        <time>2018-03-04T11:03:42Z</time>
      </trkpt>
      <trkpt lat="46.05221" lon="4.77083">
        <ele>201</ele>
        <time>2018-03-04T11:03:43Z</time>
      </trkpt>
      <trkpt lat="46.05218" lon="4.77074">
        <ele>201</ele>
        <time>2018-03-04T11:03:44Z</time>
      </trkpt>
      <trkpt lat="46.05214" lon="4.77065">
        <ele>201</ele>
        <time>2018-03-04T11:03:45Z</time>
      </trkpt>
      <trkpt lat="46.05211" lon="4.77055">
        <ele>201</ele>
        <time>2018-03-04T11:03:46Z</time>
      </trkpt>
      <trkpt lat="46.05207" lon="4.77046">
        <ele>201</ele>
        <time>2018-03-04T11:03:47Z</time>
      </trkpt>
      <trkpt lat="46.05204" lon="4.77037">
        <ele>200</ele>
        <time>2018-03-04T11:03:48Z</time>
      </trkpt>
      <trkpt lat="46.05201" lon="4.77027">
        <ele>200</ele>
        <time>2018-03-04T11:03:49Z</time>
      </trkpt>
      <trkpt lat="46.05198" lon="4.77017">
        <ele>200</ele>
        <time>2018-03-04T11:03:50Z</time>
      </trkpt>
      <trkpt lat="46.05195" lon="4.77008">
        <ele>200</ele>
        <time>2018-03-04T11:03:51Z</time>
      </trkpt>
      <trkpt lat="46.05192" lon="4.76998">
        <ele>198</ele>
        <time>2018-03-04T11:03:52Z</time>
      </trkpt>
      <trkpt lat="46.05189" lon="4.76989">
        <ele>198</ele>
        <time>2018-03-04T11:03:53Z</time>
      </trkpt>
      <trkpt lat="46.05185" lon="4.76979">
        <ele>198</ele>
        <time>2018-03-04T11:03:54Z</time>
      </trkpt>
      <trkpt lat="46.05182" lon="4.7697">
        <ele>198</ele>
        <time>2018-03-04T11:03:55Z</time>
      </trkpt>
      <trkpt lat="46.05179" lon="4.76961">
        <ele>198</ele>
        <time>2018-03-04T11:03:56Z</time>
      </trkpt>
      <trkpt lat="46.05176" lon="4.76953">
        <ele>197</ele>
        <time>2018-03-04T11:03:57Z</time>
      </trkpt>
      <trkpt lat="46.05172" lon="4.76944">
        <ele>197</ele>
        <time>2018-03-04T11:03:58Z</time>
      </trkpt>
      <trkpt lat="46.05168" lon="4.76936">
        <ele>197</ele>
        <time>2018-03-04T11:03:59Z</time>
      </trkpt>
      <trkpt lat="46.05163" lon="4.76928">
        <ele>196</ele>
        <time>2018-03-04T11:04:00Z</time>
      </trkpt>
      <trkpt lat="46.05157" lon="4.76919">
        <ele>196</ele>
        <time>2018-03-04T11:04:01Z</time>
      </trkpt>
      <trkpt lat="46.05152" lon="4.76911">
        <ele>195</ele>
        <time>2018-03-04T11:04:02Z</time>
      </trkpt>
      <trkpt lat="46.05148" lon="4.76902">
        <ele>195</ele>
        <time>2018-03-04T11:04:03Z</time>
      </trkpt>
      <trkpt lat="46.05144" lon="4.76894">
        <ele>195</ele>
        <time>2018-03-04T11:04:04Z</time>
      </trkpt>
      <trkpt lat="46.05139" lon="4.76886">
        <ele>195</ele>
        <time>2018-03-04T11:04:05Z</time>
      </trkpt>
      <trkpt lat="46.05136" lon="4.76877">
        <ele>195</ele>
        <time>2018-03-04T11:04:06Z</time>
      </trkpt>
      <trkpt lat="46.05132" lon="4.76869">
        <ele>195</ele>
        <time>2018-03-04T11:04:07Z</time>
      </trkpt>
      <trkpt lat="46.05128" lon="4.7686">
        <ele>195</ele>
        <time>2018-03-04T11:04:08Z</time>
      </trkpt>
      <trkpt lat="46.05124" lon="4.76852">
        <ele>195</ele>
        <time>2018-03-04T11:04:09Z</time>
      </trkpt>
      <trkpt lat="46.05121" lon="4.76843">
        <ele>195</ele>
        <time>2018-03-04T11:04:10Z</time>
      </trkpt>
      <trkpt lat="46.05119" lon="4.76835">
        <ele>195</ele>
        <time>2018-03-04T11:04:11Z</time>
      </trkpt>
      <trkpt lat="46.05116" lon="4.76826">
        <ele>194</ele>
        <time>2018-03-04T11:04:12Z</time>
      </trkpt>
      <trkpt lat="46.05112" lon="4.76818">
        <ele>194</ele>
        <time>2018-03-04T11:04:13Z</time>
      </trkpt>
      <trkpt lat="46.0511" lon="4.76809">
        <ele>194</ele>
        <time>2018-03-04T11:04:14Z</time>
      </trkpt>
      <trkpt lat="46.05108" lon="4.76801">
        <ele>194</ele>
        <time>2018-03-04T11:04:15Z</time>
      </trkpt>
      <trkpt lat="46.05105" lon="4.76792">
        <ele>194</ele>
        <time>2018-03-04T11:04:16Z</time>
      </trkpt>
      <trkpt lat="46.05104" lon="4.76785">
        <ele>194</ele>
        <time>2018-03-04T11:04:17Z</time>
      </trkpt>
      <trkpt lat="46.05102" lon="4.76777">
        <ele>194</ele>
        <time>2018-03-04T11:04:18Z</time>
      </trkpt>
      <trkpt lat="46.051" lon="4.76769">
        <ele>194</ele>
        <time>2018-03-04T11:04:19Z</time>
      </trkpt>
      <trkpt lat="46.05098" lon="4.7676">
        <ele>194</ele>
        <time>2018-03-04T11:04:20Z</time>
      </trkpt>
      <trkpt lat="46.05095" lon="4.76752">
        <ele>194</ele>
        <time>2018-03-04T11:04:21Z</time>
      </trkpt>
      <trkpt lat="46.05094" lon="4.76744">
        <ele>193</ele>
        <time>2018-03-04T11:04:22Z</time>
      </trkpt>
      <trkpt lat="46.05093" lon="4.76736">
        <ele>193</ele>
        <time>2018-03-04T11:04:23Z</time>
      </trkpt>
      <trkpt lat="46.05091" lon="4.76728">
        <ele>193</ele>
        <time>2018-03-04T11:04:24Z</time>
      </trkpt>
      <trkpt lat="46.05089" lon="4.7672">
        <ele>193</ele>
        <time>2018-03-04T11:04:25Z</time>
      </trkpt>
      <trkpt lat="46.05087" lon="4.76711">
        <ele>193</ele>
        <time>2018-03-04T11:04:26Z</time>
      </trkpt>
      <trkpt lat="46.05085" lon="4.76703">
        <ele>193</ele>
        <time>2018-03-04T11:04:27Z</time>
      </trkpt>
      <trkpt lat="46.05085" lon="4.76695">
        <ele>193</ele>
        <time>2018-03-04T11:04:28Z</time>
      </trkpt>
      <trkpt lat="46.05084" lon="4.76687">
        <ele>193</ele>
        <time>2018-03-04T11:04:29Z</time>
      </trkpt>
      <trkpt lat="46.05082" lon="4.7668">
        <ele>193</ele>
        <time>2018-03-04T11:04:30Z</time>
      </trkpt>
      <trkpt lat="46.05083" lon="4.76671">
        <ele>193</ele>
        <time>2018-03-04T11:04:31Z</time>
      </trkpt>
      <trkpt lat="46.05084" lon="4.76663">
        <ele>193</ele>
        <time>2018-03-04T11:04:32Z</time>
      </trkpt>
      <trkpt lat="46.05084" lon="4.76657">
        <ele>192</ele>
        <time>2018-03-04T11:04:33Z</time>
      </trkpt>
      <trkpt lat="46.05084" lon="4.76651">
        <ele>192</ele>
        <time>2018-03-04T11:04:34Z</time>
      </trkpt>
      <trkpt lat="46.05082" lon="4.76643">
        <ele>192</ele>
        <time>2018-03-04T11:04:35Z</time>
      </trkpt>
      <trkpt lat="46.05081" lon="4.76634">
        <ele>192</ele>
        <time>2018-03-04T11:04:36Z</time>
      </trkpt>
      <trkpt lat="46.0508" lon="4.76626">
        <ele>192</ele>
        <time>2018-03-04T11:04:37Z</time>
      </trkpt>
      <trkpt lat="46.05078" lon="4.76614">
        <ele>191</ele>
        <time>2018-03-04T11:04:42Z</time>
      </trkpt>
      <trkpt lat="46.05077" lon="4.76612">
        <ele>191</ele>
        <time>2018-03-04T11:04:43Z</time>
      </trkpt>
      <trkpt lat="46.05072" lon="4.76604">
        <ele>191</ele>
        <time>2018-03-04T11:04:46Z</time>
      </trkpt>
      <trkpt lat="46.0507" lon="4.76602">
        <ele>191</ele>
        <time>2018-03-04T11:04:47Z</time>
      </trkpt>
      <trkpt lat="46.05064" lon="4.76597">
        <ele>191</ele>
        <time>2018-03-04T11:04:49Z</time>
      </trkpt>
      <trkpt lat="46.05062" lon="4.76596">
        <ele>191</ele>
        <time>2018-03-04T11:04:50Z</time>
      </trkpt>
      <trkpt lat="46.05054" lon="4.7659">
        <ele>191</ele>
        <time>2018-03-04T11:04:51Z</time>
      </trkpt>
      <trkpt lat="46.05051" lon="4.76588">
        <ele>191</ele>
        <time>2018-03-04T11:04:52Z</time>
      </trkpt>
      <trkpt lat="46.05045" lon="4.76582">
        <ele>190</ele>
        <time>2018-03-04T11:04:54Z</time>
      </trkpt>
      <trkpt lat="46.05042" lon="4.76579">
        <ele>190</ele>
        <time>2018-03-04T11:04:55Z</time>
      </trkpt>
      <trkpt lat="46.05035" lon="4.76573">
        <ele>190</ele>
        <time>2018-03-04T11:04:57Z</time>
      </trkpt>
      <trkpt lat="46.05031" lon="4.76571">
        <ele>190</ele>
        <time>2018-03-04T11:04:58Z</time>
      </trkpt>
      <trkpt lat="46.05024" lon="4.76567">
        <ele>190</ele>
        <time>2018-03-04T11:05:00Z</time>
      </trkpt>
      <trkpt lat="46.0502" lon="4.76565">
        <ele>190</ele>
        <time>2018-03-04T11:05:01Z</time>
      </trkpt>
      <trkpt lat="46.05013" lon="4.76562">
        <ele>190</ele>
        <time>2018-03-04T11:05:03Z</time>
      </trkpt>
      <trkpt lat="46.0501" lon="4.76559">
        <ele>190</ele>
        <time>2018-03-04T11:05:04Z</time>
      </trkpt>
      <trkpt lat="46.05006" lon="4.76549">
        <ele>190</ele>
        <time>2018-03-04T11:05:06Z</time>
      </trkpt>
      <trkpt lat="46.05003" lon="4.76542">
        <ele>190</ele>
        <time>2018-03-04T11:05:07Z</time>
      </trkpt>
      <trkpt lat="46.05" lon="4.76537">
        <ele>191</ele>
        <time>2018-03-04T11:05:08Z</time>
      </trkpt>
      <trkpt lat="46.04997" lon="4.76531">
        <ele>191</ele>
        <time>2018-03-04T11:05:09Z</time>
      </trkpt>
      <trkpt lat="46.04994" lon="4.76525">
        <ele>191</ele>
        <time>2018-03-04T11:05:10Z</time>
      </trkpt>
      <trkpt lat="46.04991" lon="4.76518">
        <ele>191</ele>
        <time>2018-03-04T11:05:11Z</time>
      </trkpt>
      <trkpt lat="46.04988" lon="4.76512">
        <ele>191</ele>
        <time>2018-03-04T11:05:12Z</time>
      </trkpt>
      <trkpt lat="46.04986" lon="4.76506">
        <ele>191</ele>
        <time>2018-03-04T11:05:13Z</time>
      </trkpt>
      <trkpt lat="46.04983" lon="4.765">
        <ele>190</ele>
        <time>2018-03-04T11:05:14Z</time>
      </trkpt>
      <trkpt lat="46.04981" lon="4.76493">
        <ele>190</ele>
        <time>2018-03-04T11:05:15Z</time>
      </trkpt>
      <trkpt lat="46.0498" lon="4.76486">
        <ele>190</ele>
        <time>2018-03-04T11:05:16Z</time>
      </trkpt>
      <trkpt lat="46.04977" lon="4.7648">
        <ele>191</ele>
        <time>2018-03-04T11:05:17Z</time>
      </trkpt>
      <trkpt lat="46.04975" lon="4.76473">
        <ele>191</ele>
        <time>2018-03-04T11:05:18Z</time>
      </trkpt>
      <trkpt lat="46.04973" lon="4.76468">
        <ele>191</ele>
        <time>2018-03-04T11:05:19Z</time>
      </trkpt>
      <trkpt lat="46.04971" lon="4.76462">
        <ele>191</ele>
        <time>2018-03-04T11:05:20Z</time>
      </trkpt>
      <trkpt lat="46.04968" lon="4.76455">
        <ele>191</ele>
        <time>2018-03-04T11:05:21Z</time>
      </trkpt>
      <trkpt lat="46.04965" lon="4.76449">
        <ele>191</ele>
        <time>2018-03-04T11:05:22Z</time>
      </trkpt>
      <trkpt lat="46.04963" lon="4.76444">
        <ele>191</ele>
        <time>2018-03-04T11:05:23Z</time>
      </trkpt>
      <trkpt lat="46.04959" lon="4.7644">
        <ele>191</ele>
        <time>2018-03-04T11:05:24Z</time>
      </trkpt>
      <trkpt lat="46.04955" lon="4.76436">
        <ele>191</ele>
        <time>2018-03-04T11:05:25Z</time>
      </trkpt>
      <trkpt lat="46.04947" lon="4.76432">
        <ele>191</ele>
        <time>2018-03-04T11:05:27Z</time>
      </trkpt>
      <trkpt lat="46.04943" lon="4.76432">
        <ele>191</ele>
        <time>2018-03-04T11:05:28Z</time>
      </trkpt>
      <trkpt lat="46.04934" lon="4.76433">
        <ele>191</ele>
        <time>2018-03-04T11:05:30Z</time>
      </trkpt>
      <trkpt lat="46.0493" lon="4.76434">
        <ele>191</ele>
        <time>2018-03-04T11:05:31Z</time>
      </trkpt>
      <trkpt lat="46.04924" lon="4.76435">
        <ele>191</ele>
        <time>2018-03-04T11:05:32Z</time>
      </trkpt>
      <trkpt lat="46.0492" lon="4.76436">
        <ele>191</ele>
        <time>2018-03-04T11:05:33Z</time>
      </trkpt>
      <trkpt lat="46.04912" lon="4.76441">
        <ele>193</ele>
        <time>2018-03-04T11:05:36Z</time>
      </trkpt>
      <trkpt lat="46.04911" lon="4.76442">
        <ele>193</ele>
        <time>2018-03-04T11:05:37Z</time>
      </trkpt>
      <trkpt lat="46.04908" lon="4.76443">
        <ele>193</ele>
        <time>2018-03-04T11:05:38Z</time>
      </trkpt>
      <trkpt lat="46.049" lon="4.76446">
        <ele>193</ele>
        <time>2018-03-04T11:05:39Z</time>
      </trkpt>
      <trkpt lat="46.04894" lon="4.76446">
        <ele>193</ele>
        <time>2018-03-04T11:05:41Z</time>
      </trkpt>
      <trkpt lat="46.04889" lon="4.76447">
        <ele>193</ele>
        <time>2018-03-04T11:05:42Z</time>
      </trkpt>
      <trkpt lat="46.04882" lon="4.76448">
        <ele>193</ele>
        <time>2018-03-04T11:05:44Z</time>
      </trkpt>
      <trkpt lat="46.04877" lon="4.76447">
        <ele>193</ele>
        <time>2018-03-04T11:05:45Z</time>
      </trkpt>
      <trkpt lat="46.04869" lon="4.76446">
        <ele>193</ele>
        <time>2018-03-04T11:05:47Z</time>
      </trkpt>
      <trkpt lat="46.04865" lon="4.76445">
        <ele>193</ele>
        <time>2018-03-04T11:05:48Z</time>
      </trkpt>
      <trkpt lat="46.04858" lon="4.76444">
        <ele>193</ele>
        <time>2018-03-04T11:05:50Z</time>
      </trkpt>
      <trkpt lat="46.04853" lon="4.76445">
        <ele>193</ele>
        <time>2018-03-04T11:05:51Z</time>
      </trkpt>
      <trkpt lat="46.04844" lon="4.76446">
        <ele>194</ele>
        <time>2018-03-04T11:05:53Z</time>
      </trkpt>
      <trkpt lat="46.0484" lon="4.76446">
        <ele>194</ele>
        <time>2018-03-04T11:05:54Z</time>
      </trkpt>
      <trkpt lat="46.04832" lon="4.76444">
        <ele>193</ele>
        <time>2018-03-04T11:05:56Z</time>
      </trkpt>
      <trkpt lat="46.04828" lon="4.76442">
        <ele>193</ele>
        <time>2018-03-04T11:05:57Z</time>
      </trkpt>
      <trkpt lat="46.04821" lon="4.76439">
        <ele>193</ele>
        <time>2018-03-04T11:05:59Z</time>
      </trkpt>
      <trkpt lat="46.04817" lon="4.76438">
        <ele>193</ele>
        <time>2018-03-04T11:06:00Z</time>
      </trkpt>
      <trkpt lat="46.04813" lon="4.76437">
        <ele>193</ele>
        <time>2018-03-04T11:06:01Z</time>
      </trkpt>
      <trkpt lat="46.04808" lon="4.76436">
        <ele>193</ele>
        <time>2018-03-04T11:06:02Z</time>
      </trkpt>
      <trkpt lat="46.04804" lon="4.76435">
        <ele>193</ele>
        <time>2018-03-04T11:06:03Z</time>
      </trkpt>
      <trkpt lat="46.04798" lon="4.76436">
        <ele>193</ele>
        <time>2018-03-04T11:06:04Z</time>
      </trkpt>
      <trkpt lat="46.04792" lon="4.76443">
        <ele>193</ele>
        <time>2018-03-04T11:06:05Z</time>
      </trkpt>
      <trkpt lat="46.04789" lon="4.76446">
        <ele>192</ele>
        <time>2018-03-04T11:06:06Z</time>
      </trkpt>
      <trkpt lat="46.04781" lon="4.7645">
        <ele>192</ele>
        <time>2018-03-04T11:06:08Z</time>
      </trkpt>
      <trkpt lat="46.04775" lon="4.76452">
        <ele>192</ele>
        <time>2018-03-04T11:06:09Z</time>
      </trkpt>
      <trkpt lat="46.04768" lon="4.76458">
        <ele>192</ele>
        <time>2018-03-04T11:06:11Z</time>
      </trkpt>
      <trkpt lat="46.04764" lon="4.7646">
        <ele>192</ele>
        <time>2018-03-04T11:06:12Z</time>
      </trkpt>
      <trkpt lat="46.0476" lon="4.76463">
        <ele>192</ele>
        <time>2018-03-04T11:06:13Z</time>
      </trkpt>
      <trkpt lat="46.04755" lon="4.76466">
        <ele>192</ele>
        <time>2018-03-04T11:06:14Z</time>
      </trkpt>
      <trkpt lat="46.0475" lon="4.76469">
        <ele>190</ele>
        <time>2018-03-04T11:06:15Z</time>
      </trkpt>
      <trkpt lat="46.04745" lon="4.76472">
        <ele>190</ele>
        <time>2018-03-04T11:06:16Z</time>
      </trkpt>
      <trkpt lat="46.04739" lon="4.76474">
        <ele>190</ele>
        <time>2018-03-04T11:06:17Z</time>
      </trkpt>
      <trkpt lat="46.04734" lon="4.76476">
        <ele>189</ele>
        <time>2018-03-04T11:06:18Z</time>
      </trkpt>
      <trkpt lat="46.04729" lon="4.76477">
        <ele>189</ele>
        <time>2018-03-04T11:06:19Z</time>
      </trkpt>
      <trkpt lat="46.04723" lon="4.76479">
        <ele>189</ele>
        <time>2018-03-04T11:06:20Z</time>
      </trkpt>
      <trkpt lat="46.04718" lon="4.7648">
        <ele>189</ele>
        <time>2018-03-04T11:06:21Z</time>
      </trkpt>
      <trkpt lat="46.04712" lon="4.76482">
        <ele>189</ele>
        <time>2018-03-04T11:06:22Z</time>
      </trkpt>
      <trkpt lat="46.04707" lon="4.76484">
        <ele>189</ele>
        <time>2018-03-04T11:06:23Z</time>
      </trkpt>
      <trkpt lat="46.04703" lon="4.76484">
        <ele>188</ele>
        <time>2018-03-04T11:06:24Z</time>
      </trkpt>
      <trkpt lat="46.04695" lon="4.76489">
        <ele>188</ele>
        <time>2018-03-04T11:06:28Z</time>
      </trkpt>
      <trkpt lat="46.04693" lon="4.76491">
        <ele>188</ele>
        <time>2018-03-04T11:06:29Z</time>
      </trkpt>
      <trkpt lat="46.04687" lon="4.76498">
        <ele>188</ele>
        <time>2018-03-04T11:06:35Z</time>
      </trkpt>
      <trkpt lat="46.04685" lon="4.76499">
        <ele>187</ele>
        <time>2018-03-04T11:06:36Z</time>
      </trkpt>
      <trkpt lat="46.04681" lon="4.76502">
        <ele>187</ele>
        <time>2018-03-04T11:06:38Z</time>
      </trkpt>
      <trkpt lat="46.04672" lon="4.76508">
        <ele>187</ele>
        <time>2018-03-04T11:06:39Z</time>
      </trkpt>
      <trkpt lat="46.04667" lon="4.7651">
        <ele>186</ele>
        <time>2018-03-04T11:06:40Z</time>
      </trkpt>
      <trkpt lat="46.04662" lon="4.7651">
        <ele>186</ele>
        <time>2018-03-04T11:06:41Z</time>
      </trkpt>
      <trkpt lat="46.04655" lon="4.7651">
        <ele>186</ele>
        <time>2018-03-04T11:06:42Z</time>
      </trkpt>
      <trkpt lat="46.04649" lon="4.7651">
        <ele>186</ele>
        <time>2018-03-04T11:06:43Z</time>
      </trkpt>
      <trkpt lat="46.04643" lon="4.76511">
        <ele>186</ele>
        <time>2018-03-04T11:06:44Z</time>
      </trkpt>
      <trkpt lat="46.04637" lon="4.76511">
        <ele>186</ele>
        <time>2018-03-04T11:06:45Z</time>
      </trkpt>
      <trkpt lat="46.04631" lon="4.76512">
        <ele>186</ele>
        <time>2018-03-04T11:06:46Z</time>
      </trkpt>
      <trkpt lat="46.04624" lon="4.76515">
        <ele>186</ele>
        <time>2018-03-04T11:06:47Z</time>
      </trkpt>
      <trkpt lat="46.04618" lon="4.76518">
        <ele>186</ele>
        <time>2018-03-04T11:06:48Z</time>
      </trkpt>
      <trkpt lat="46.04613" lon="4.76519">
        <ele>186</ele>
        <time>2018-03-04T11:06:49Z</time>
      </trkpt>
      <trkpt lat="46.04606" lon="4.76523">
        <ele>186</ele>
        <time>2018-03-04T11:06:50Z</time>
      </trkpt>
      <trkpt lat="46.046" lon="4.76526">
        <ele>186</ele>
        <time>2018-03-04T11:06:51Z</time>
      </trkpt>
      <trkpt lat="46.04595" lon="4.76528">
        <ele>186</ele>
        <time>2018-03-04T11:06:52Z</time>
      </trkpt>
      <trkpt lat="46.0459" lon="4.76531">
        <ele>186</ele>
        <time>2018-03-04T11:06:53Z</time>
      </trkpt>
      <trkpt lat="46.04584" lon="4.76534">
        <ele>186</ele>
        <time>2018-03-04T11:06:54Z</time>
      </trkpt>
      <trkpt lat="46.0458" lon="4.76536">
        <ele>187</ele>
        <time>2018-03-04T11:06:55Z</time>
      </trkpt>
      <trkpt lat="46.04573" lon="4.76539">
        <ele>187</ele>
        <time>2018-03-04T11:06:56Z</time>
      </trkpt>
      <trkpt lat="46.04568" lon="4.76541">
        <ele>187</ele>
        <time>2018-03-04T11:06:57Z</time>
      </trkpt>
      <trkpt lat="46.04562" lon="4.76543">
        <ele>187</ele>
        <time>2018-03-04T11:06:58Z</time>
      </trkpt>
      <trkpt lat="46.04556" lon="4.76545">
        <ele>188</ele>
        <time>2018-03-04T11:06:59Z</time>
      </trkpt>
      <trkpt lat="46.04553" lon="4.76547">
        <ele>188</ele>
        <time>2018-03-04T11:07:00Z</time>
      </trkpt>
      <trkpt lat="46.04547" lon="4.76549">
        <ele>188</ele>
        <time>2018-03-04T11:07:01Z</time>
      </trkpt>
      <trkpt lat="46.04542" lon="4.7655">
        <ele>188</ele>
        <time>2018-03-04T11:07:02Z</time>
      </trkpt>
      <trkpt lat="46.04537" lon="4.76551">
        <ele>188</ele>
        <time>2018-03-04T11:07:03Z</time>
      </trkpt>
      <trkpt lat="46.04532" lon="4.76551">
        <ele>188</ele>
        <time>2018-03-04T11:07:04Z</time>
      </trkpt>
      <trkpt lat="46.04528" lon="4.76553">
        <ele>189</ele>
        <time>2018-03-04T11:07:05Z</time>
      </trkpt>
      <trkpt lat="46.0452" lon="4.76555">
        <ele>189</ele>
        <time>2018-03-04T11:07:07Z</time>
      </trkpt>
      <trkpt lat="46.04516" lon="4.76556">
        <ele>189</ele>
        <time>2018-03-04T11:07:08Z</time>
      </trkpt>
      <trkpt lat="46.04507" lon="4.76558">
        <ele>189</ele>
        <time>2018-03-04T11:07:12Z</time>
      </trkpt>
      <trkpt lat="46.04506" lon="4.76558">
        <ele>189</ele>
        <time>2018-03-04T11:07:13Z</time>
      </trkpt>
      <trkpt lat="46.04497" lon="4.76557">
        <ele>192</ele>
        <time>2018-03-04T11:07:16Z</time>
      </trkpt>
      <trkpt lat="46.04496" lon="4.76557">
        <ele>192</ele>
        <time>2018-03-04T11:07:17Z</time>
      </trkpt>
      <trkpt lat="46.04489" lon="4.76559">
        <ele>193</ele>
        <time>2018-03-04T11:07:20Z</time>
      </trkpt>
      <trkpt lat="46.04486" lon="4.76559">
        <ele>193</ele>
        <time>2018-03-04T11:07:21Z</time>
      </trkpt>
      <trkpt lat="46.04477" lon="4.76561">
        <ele>193</ele>
        <time>2018-03-04T11:07:24Z</time>
      </trkpt>
      <trkpt lat="46.04474" lon="4.76561">
        <ele>193</ele>
        <time>2018-03-04T11:07:25Z</time>
      </trkpt>
      <trkpt lat="46.04468" lon="4.76562">
        <ele>193</ele>
        <time>2018-03-04T11:07:27Z</time>
      </trkpt>
      <trkpt lat="46.04465" lon="4.76562">
        <ele>194</ele>
        <time>2018-03-04T11:07:28Z</time>
      </trkpt>
      <trkpt lat="46.04458" lon="4.76562">
        <ele>194</ele>
        <time>2018-03-04T11:07:30Z</time>
      </trkpt>
      <trkpt lat="46.04455" lon="4.76563">
        <ele>194</ele>
        <time>2018-03-04T11:07:31Z</time>
      </trkpt>
      <trkpt lat="46.04448" lon="4.76564">
        <ele>194</ele>
        <time>2018-03-04T11:07:33Z</time>
      </trkpt>
      <trkpt lat="46.04445" lon="4.76565">
        <ele>195</ele>
        <time>2018-03-04T11:07:34Z</time>
      </trkpt>
      <trkpt lat="46.04437" lon="4.76565">
        <ele>195</ele>
        <time>2018-03-04T11:07:37Z</time>
      </trkpt>
      <trkpt lat="46.04434" lon="4.76565">
        <ele>195</ele>
        <time>2018-03-04T11:07:38Z</time>
      </trkpt>
      <trkpt lat="46.04427" lon="4.76564">
        <ele>196</ele>
        <time>2018-03-04T11:07:40Z</time>
      </trkpt>
      <trkpt lat="46.04423" lon="4.76564">
        <ele>196</ele>
        <time>2018-03-04T11:07:41Z</time>
      </trkpt>
      <trkpt lat="46.0441" lon="4.76565">
        <ele>198</ele>
        <time>2018-03-04T11:07:42Z</time>
      </trkpt>
      <trkpt lat="46.04402" lon="4.76566">
        <ele>197</ele>
        <time>2018-03-04T11:07:45Z</time>
      </trkpt>
      <trkpt lat="46.04398" lon="4.76566">
        <ele>197</ele>
        <time>2018-03-04T11:07:46Z</time>
      </trkpt>
      <trkpt lat="46.04391" lon="4.76567">
        <ele>197</ele>
        <time>2018-03-04T11:07:48Z</time>
      </trkpt>
      <trkpt lat="46.04388" lon="4.76568">
        <ele>197</ele>
        <time>2018-03-04T11:07:49Z</time>
      </trkpt>
      <trkpt lat="46.04381" lon="4.76569">
        <ele>197</ele>
        <time>2018-03-04T11:07:51Z</time>
      </trkpt>
      <trkpt lat="46.04378" lon="4.7657">
        <ele>197</ele>
        <time>2018-03-04T11:07:52Z</time>
      </trkpt>
      <trkpt lat="46.0437" lon="4.76571">
        <ele>197</ele>
        <time>2018-03-04T11:07:54Z</time>
      </trkpt>
      <trkpt lat="46.04365" lon="4.76572">
        <ele>197</ele>
        <time>2018-03-04T11:07:55Z</time>
      </trkpt>
      <trkpt lat="46.04361" lon="4.76573">
        <ele>197</ele>
        <time>2018-03-04T11:07:56Z</time>
      </trkpt>
      <trkpt lat="46.04349" lon="4.76575">
        <ele>198</ele>
        <time>2018-03-04T11:07:57Z</time>
      </trkpt>
      <trkpt lat="46.04341" lon="4.76576">
        <ele>198</ele>
        <time>2018-03-04T11:08:00Z</time>
      </trkpt>
      <trkpt lat="46.04338" lon="4.76576">
        <ele>198</ele>
        <time>2018-03-04T11:08:01Z</time>
      </trkpt>
      <trkpt lat="46.04332" lon="4.76577">
        <ele>198</ele>
        <time>2018-03-04T11:08:03Z</time>
      </trkpt>
      <trkpt lat="46.04328" lon="4.76577">
        <ele>198</ele>
        <time>2018-03-04T11:08:04Z</time>
      </trkpt>
      <trkpt lat="46.04325" lon="4.76577">
        <ele>198</ele>
        <time>2018-03-04T11:08:05Z</time>
      </trkpt>
      <trkpt lat="46.04316" lon="4.76577">
        <ele>197</ele>
        <time>2018-03-04T11:08:06Z</time>
      </trkpt>
      <trkpt lat="46.04307" lon="4.76577">
        <ele>197</ele>
        <time>2018-03-04T11:08:09Z</time>
      </trkpt>
      <trkpt lat="46.04305" lon="4.76577">
        <ele>197</ele>
        <time>2018-03-04T11:08:10Z</time>
      </trkpt>
      <trkpt lat="46.04298" lon="4.76579">
        <ele>197</ele>
        <time>2018-03-04T11:08:13Z</time>
      </trkpt>
      <trkpt lat="46.04295" lon="4.76579">
        <ele>197</ele>
        <time>2018-03-04T11:08:14Z</time>
      </trkpt>
      <trkpt lat="46.04286" lon="4.76581">
        <ele>197</ele>
        <time>2018-03-04T11:08:17Z</time>
      </trkpt>
      <trkpt lat="46.04283" lon="4.76582">
        <ele>197</ele>
        <time>2018-03-04T11:08:18Z</time>
      </trkpt>
      <trkpt lat="46.04275" lon="4.76583">
        <ele>197</ele>
        <time>2018-03-04T11:08:21Z</time>
      </trkpt>
      <trkpt lat="46.04272" lon="4.76583">
        <ele>198</ele>
        <time>2018-03-04T11:08:22Z</time>
      </trkpt>
      <trkpt lat="46.04266" lon="4.76584">
        <ele>197</ele>
        <time>2018-03-04T11:08:24Z</time>
      </trkpt>
      <trkpt lat="46.04262" lon="4.76584">
        <ele>197</ele>
        <time>2018-03-04T11:08:25Z</time>
      </trkpt>
      <trkpt lat="46.04256" lon="4.76583">
        <ele>197</ele>
        <time>2018-03-04T11:08:27Z</time>
      </trkpt>
      <trkpt lat="46.04246" lon="4.76583">
        <ele>197</ele>
        <time>2018-03-04T11:08:28Z</time>
      </trkpt>
      <trkpt lat="46.04238" lon="4.76584">
        <ele>197</ele>
        <time>2018-03-04T11:08:31Z</time>
      </trkpt>
      <trkpt lat="46.04235" lon="4.76584">
        <ele>197</ele>
        <time>2018-03-04T11:08:32Z</time>
      </trkpt>
      <trkpt lat="46.04229" lon="4.76585">
        <ele>198</ele>
        <time>2018-03-04T11:08:34Z</time>
      </trkpt>
      <trkpt lat="46.04225" lon="4.76586">
        <ele>198</ele>
        <time>2018-03-04T11:08:35Z</time>
      </trkpt>
      <trkpt lat="46.04218" lon="4.76587">
        <ele>198</ele>
        <time>2018-03-04T11:08:37Z</time>
      </trkpt>
      <trkpt lat="46.04215" lon="4.76588">
        <ele>198</ele>
        <time>2018-03-04T11:08:38Z</time>
      </trkpt>
      <trkpt lat="46.04208" lon="4.76589">
        <ele>198</ele>
        <time>2018-03-04T11:08:40Z</time>
      </trkpt>
      <trkpt lat="46.04205" lon="4.7659">
        <ele>198</ele>
        <time>2018-03-04T11:08:41Z</time>
      </trkpt>
      <trkpt lat="46.04199" lon="4.76593">
        <ele>198</ele>
        <time>2018-03-04T11:08:43Z</time>
      </trkpt>
      <trkpt lat="46.04196" lon="4.76595">
        <ele>198</ele>
        <time>2018-03-04T11:08:44Z</time>
      </trkpt>
      <trkpt lat="46.04189" lon="4.76599">
        <ele>198</ele>
        <time>2018-03-04T11:08:46Z</time>
      </trkpt>
      <trkpt lat="46.04186" lon="4.76601">
        <ele>198</ele>
        <time>2018-03-04T11:08:47Z</time>
      </trkpt>
      <trkpt lat="46.04181" lon="4.76605">
        <ele>198</ele>
        <time>2018-03-04T11:08:49Z</time>
      </trkpt>
      <trkpt lat="46.04178" lon="4.76608">
        <ele>198</ele>
        <time>2018-03-04T11:08:50Z</time>
      </trkpt>
      <trkpt lat="46.04171" lon="4.76615">
        <ele>198</ele>
        <time>2018-03-04T11:08:53Z</time>
      </trkpt>
      <trkpt lat="46.04169" lon="4.76618">
        <ele>198</ele>
        <time>2018-03-04T11:08:54Z</time>
      </trkpt>
      <trkpt lat="46.04162" lon="4.76625">
        <ele>199</ele>
        <time>2018-03-04T11:08:57Z</time>
      </trkpt>
      <trkpt lat="46.04159" lon="4.76628">
        <ele>200</ele>
        <time>2018-03-04T11:08:58Z</time>
      </trkpt>
      <trkpt lat="46.04153" lon="4.76633">
        <ele>200</ele>
        <time>2018-03-04T11:09:00Z</time>
      </trkpt>
      <trkpt lat="46.0415" lon="4.76635">
        <ele>200</ele>
        <time>2018-03-04T11:09:01Z</time>
      </trkpt>
      <trkpt lat="46.04144" lon="4.76638">
        <ele>200</ele>
        <time>2018-03-04T11:09:03Z</time>
      </trkpt>
      <trkpt lat="46.04141" lon="4.76639">
        <ele>200</ele>
        <time>2018-03-04T11:09:04Z</time>
      </trkpt>
      <trkpt lat="46.04132" lon="4.76643">
        <ele>200</ele>
        <time>2018-03-04T11:09:07Z</time>
      </trkpt>
      <trkpt lat="46.04129" lon="4.76644">
        <ele>200</ele>
        <time>2018-03-04T11:09:08Z</time>
      </trkpt>
      <trkpt lat="46.04121" lon="4.76647">
        <ele>200</ele>
        <time>2018-03-04T11:09:11Z</time>
      </trkpt>
      <trkpt lat="46.04118" lon="4.76648">
        <ele>200</ele>
        <time>2018-03-04T11:09:12Z</time>
      </trkpt>
      <trkpt lat="46.04112" lon="4.76649">
        <ele>200</ele>
        <time>2018-03-04T11:09:14Z</time>
      </trkpt>
      <trkpt lat="46.04109" lon="4.7665">
        <ele>200</ele>
        <time>2018-03-04T11:09:15Z</time>
      </trkpt>
      <trkpt lat="46.04102" lon="4.76652">
        <ele>201</ele>
        <time>2018-03-04T11:09:17Z</time>
      </trkpt>
      <trkpt lat="46.04099" lon="4.76653">
        <ele>201</ele>
        <time>2018-03-04T11:09:18Z</time>
      </trkpt>
      <trkpt lat="46.04093" lon="4.76654">
        <ele>201</ele>
        <time>2018-03-04T11:09:20Z</time>
      </trkpt>
      <trkpt lat="46.0409" lon="4.76655">
        <ele>201</ele>
        <time>2018-03-04T11:09:21Z</time>
      </trkpt>
      <trkpt lat="46.04083" lon="4.76656">
        <ele>202</ele>
        <time>2018-03-04T11:09:23Z</time>
      </trkpt>
      <trkpt lat="46.0408" lon="4.76657">
        <ele>202</ele>
        <time>2018-03-04T11:09:24Z</time>
      </trkpt>
      <trkpt lat="46.04074" lon="4.76657">
        <ele>201</ele>
        <time>2018-03-04T11:09:26Z</time>
      </trkpt>
      <trkpt lat="46.04071" lon="4.76657">
        <ele>201</ele>
        <time>2018-03-04T11:09:27Z</time>
      </trkpt>
      <trkpt lat="46.04063" lon="4.76658">
        <ele>201</ele>
        <time>2018-03-04T11:09:30Z</time>
      </trkpt>
      <trkpt lat="46.0406" lon="4.76658">
        <ele>201</ele>
        <time>2018-03-04T11:09:31Z</time>
      </trkpt>
      <trkpt lat="46.04054" lon="4.76659">
        <ele>201</ele>
        <time>2018-03-04T11:09:33Z</time>
      </trkpt>
      <trkpt lat="46.04051" lon="4.76659">
        <ele>201</ele>
        <time>2018-03-04T11:09:34Z</time>
      </trkpt>
      <trkpt lat="46.04042" lon="4.76661">
        <ele>201</ele>
        <time>2018-03-04T11:09:35Z</time>
      </trkpt>
      <trkpt lat="46.04035" lon="4.76662">
        <ele>201</ele>
        <time>2018-03-04T11:09:38Z</time>
      </trkpt>
      <trkpt lat="46.04032" lon="4.76663">
        <ele>201</ele>
        <time>2018-03-04T11:09:39Z</time>
      </trkpt>
      <trkpt lat="46.04023" lon="4.76665">
        <ele>201</ele>
        <time>2018-03-04T11:09:40Z</time>
      </trkpt>
      <trkpt lat="46.04019" lon="4.76665">
        <ele>201</ele>
        <time>2018-03-04T11:09:41Z</time>
      </trkpt>
      <trkpt lat="46.04011" lon="4.76666">
        <ele>202</ele>
        <time>2018-03-04T11:09:43Z</time>
      </trkpt>
      <trkpt lat="46.04009" lon="4.76666">
        <ele>202</ele>
        <time>2018-03-04T11:09:44Z</time>
      </trkpt>
      <trkpt lat="46.04003" lon="4.76668">
        <ele>202</ele>
        <time>2018-03-04T11:09:45Z</time>
      </trkpt>
      <trkpt lat="46.03999" lon="4.76669">
        <ele>202</ele>
        <time>2018-03-04T11:09:46Z</time>
      </trkpt>
      <trkpt lat="46.03991" lon="4.7667">
        <ele>203</ele>
        <time>2018-03-04T11:09:48Z</time>
      </trkpt>
      <trkpt lat="46.03987" lon="4.76671">
        <ele>203</ele>
        <time>2018-03-04T11:09:49Z</time>
      </trkpt>
      <trkpt lat="46.0398" lon="4.76672">
        <ele>203</ele>
        <time>2018-03-04T11:09:51Z</time>
      </trkpt>
      <trkpt lat="46.03976" lon="4.76673">
        <ele>203</ele>
        <time>2018-03-04T11:09:52Z</time>
      </trkpt>
      <trkpt lat="46.03968" lon="4.76674">
        <ele>203</ele>
        <time>2018-03-04T11:09:54Z</time>
      </trkpt>
      <trkpt lat="46.03964" lon="4.76675">
        <ele>203</ele>
        <time>2018-03-04T11:09:55Z</time>
      </trkpt>
      <trkpt lat="46.0396" lon="4.76675">
        <ele>203</ele>
        <time>2018-03-04T11:09:56Z</time>
      </trkpt>
      <trkpt lat="46.03955" lon="4.76676">
        <ele>204</ele>
        <time>2018-03-04T11:09:57Z</time>
      </trkpt>
      <trkpt lat="46.0395" lon="4.76677">
        <ele>204</ele>
        <time>2018-03-04T11:09:58Z</time>
      </trkpt>
      <trkpt lat="46.03946" lon="4.76678">
        <ele>204</ele>
        <time>2018-03-04T11:09:59Z</time>
      </trkpt>
      <trkpt lat="46.03937" lon="4.7668">
        <ele>204</ele>
        <time>2018-03-04T11:10:01Z</time>
      </trkpt>
      <trkpt lat="46.03933" lon="4.76682">
        <ele>204</ele>
        <time>2018-03-04T11:10:02Z</time>
      </trkpt>
      <trkpt lat="46.03928" lon="4.76683">
        <ele>204</ele>
        <time>2018-03-04T11:10:03Z</time>
      </trkpt>
      <trkpt lat="46.03924" lon="4.76684">
        <ele>204</ele>
        <time>2018-03-04T11:10:04Z</time>
      </trkpt>
      <trkpt lat="46.03916" lon="4.76686">
        <ele>205</ele>
        <time>2018-03-04T11:10:06Z</time>
      </trkpt>
      <trkpt lat="46.03912" lon="4.76687">
        <ele>205</ele>
        <time>2018-03-04T11:10:07Z</time>
      </trkpt>
      <trkpt lat="46.03904" lon="4.76689">
        <ele>205</ele>
        <time>2018-03-04T11:10:09Z</time>
      </trkpt>
      <trkpt lat="46.039" lon="4.7669">
        <ele>205</ele>
        <time>2018-03-04T11:10:10Z</time>
      </trkpt>
      <trkpt lat="46.03893" lon="4.76692">
        <ele>205</ele>
        <time>2018-03-04T11:10:12Z</time>
      </trkpt>
      <trkpt lat="46.03889" lon="4.76693">
        <ele>205</ele>
        <time>2018-03-04T11:10:13Z</time>
      </trkpt>
      <trkpt lat="46.03881" lon="4.76695">
        <ele>205</ele>
        <time>2018-03-04T11:10:15Z</time>
      </trkpt>
      <trkpt lat="46.03877" lon="4.76696">
        <ele>205</ele>
        <time>2018-03-04T11:10:16Z</time>
      </trkpt>
      <trkpt lat="46.03869" lon="4.76699">
        <ele>205</ele>
        <time>2018-03-04T11:10:18Z</time>
      </trkpt>
      <trkpt lat="46.03865" lon="4.767">
        <ele>205</ele>
        <time>2018-03-04T11:10:19Z</time>
      </trkpt>
      <trkpt lat="46.03857" lon="4.76703">
        <ele>205</ele>
        <time>2018-03-04T11:10:21Z</time>
      </trkpt>
      <trkpt lat="46.03854" lon="4.76705">
        <ele>205</ele>
        <time>2018-03-04T11:10:22Z</time>
      </trkpt>
      <trkpt lat="46.03846" lon="4.76707">
        <ele>205</ele>
        <time>2018-03-04T11:10:24Z</time>
      </trkpt>
      <trkpt lat="46.03842" lon="4.76708">
        <ele>205</ele>
        <time>2018-03-04T11:10:25Z</time>
      </trkpt>
      <trkpt lat="46.03836" lon="4.76709">
        <ele>205</ele>
        <time>2018-03-04T11:10:27Z</time>
      </trkpt>
      <trkpt lat="46.03831" lon="4.7671">
        <ele>205</ele>
        <time>2018-03-04T11:10:28Z</time>
      </trkpt>
      <trkpt lat="46.03826" lon="4.76709">
        <ele>205</ele>
        <time>2018-03-04T11:10:29Z</time>
      </trkpt>
      <trkpt lat="46.03822" lon="4.76709">
        <ele>205</ele>
        <time>2018-03-04T11:10:30Z</time>
      </trkpt>
      <trkpt lat="46.03813" lon="4.7671">
        <ele>205</ele>
        <time>2018-03-04T11:10:32Z</time>
      </trkpt>
      <trkpt lat="46.03808" lon="4.7671">
        <ele>205</ele>
        <time>2018-03-04T11:10:33Z</time>
      </trkpt>
      <trkpt lat="46.03803" lon="4.76711">
        <ele>205</ele>
        <time>2018-03-04T11:10:34Z</time>
      </trkpt>
      <trkpt lat="46.03798" lon="4.7671">
        <ele>205</ele>
        <time>2018-03-04T11:10:35Z</time>
      </trkpt>
      <trkpt lat="46.03794" lon="4.7671">
        <ele>205</ele>
        <time>2018-03-04T11:10:36Z</time>
      </trkpt>
      <trkpt lat="46.03789" lon="4.7671">
        <ele>205</ele>
        <time>2018-03-04T11:10:37Z</time>
      </trkpt>
      <trkpt lat="46.03784" lon="4.76711">
        <ele>205</ele>
        <time>2018-03-04T11:10:38Z</time>
      </trkpt>
      <trkpt lat="46.03779" lon="4.76711">
        <ele>205</ele>
        <time>2018-03-04T11:10:39Z</time>
      </trkpt>
      <trkpt lat="46.03773" lon="4.76711">
        <ele>205</ele>
        <time>2018-03-04T11:10:40Z</time>
      </trkpt>
      <trkpt lat="46.03769" lon="4.76711">
        <ele>205</ele>
        <time>2018-03-04T11:10:41Z</time>
      </trkpt>
      <trkpt lat="46.03764" lon="4.76709">
        <ele>205</ele>
        <time>2018-03-04T11:10:42Z</time>
      </trkpt>
      <trkpt lat="46.0376" lon="4.76707">
        <ele>205</ele>
        <time>2018-03-04T11:10:43Z</time>
      </trkpt>
      <trkpt lat="46.03754" lon="4.76705">
        <ele>205</ele>
        <time>2018-03-04T11:10:44Z</time>
      </trkpt>
      <trkpt lat="46.03749" lon="4.76702">
        <ele>205</ele>
        <time>2018-03-04T11:10:45Z</time>
      </trkpt>
      <trkpt lat="46.03745" lon="4.767">
        <ele>205</ele>
        <time>2018-03-04T11:10:46Z</time>
      </trkpt>
      <trkpt lat="46.0374" lon="4.767">
        <ele>205</ele>
        <time>2018-03-04T11:10:47Z</time>
      </trkpt>
      <trkpt lat="46.03735" lon="4.76699">
        <ele>205</ele>
        <time>2018-03-04T11:10:48Z</time>
      </trkpt>
      <trkpt lat="46.03729" lon="4.76698">
        <ele>205</ele>
        <time>2018-03-04T11:10:49Z</time>
      </trkpt>
      <trkpt lat="46.0372" lon="4.76695">
        <ele>205</ele>
        <time>2018-03-04T11:10:51Z</time>
      </trkpt>
      <trkpt lat="46.03716" lon="4.76693">
        <ele>205</ele>
        <time>2018-03-04T11:10:52Z</time>
      </trkpt>
      <trkpt lat="46.03711" lon="4.7669">
        <ele>205</ele>
        <time>2018-03-04T11:10:53Z</time>
      </trkpt>
      <trkpt lat="46.03706" lon="4.76687">
        <ele>205</ele>
        <time>2018-03-04T11:10:54Z</time>
      </trkpt>
      <trkpt lat="46.03702" lon="4.76682">
        <ele>205</ele>
        <time>2018-03-04T11:10:55Z</time>
      </trkpt>
      <trkpt lat="46.03698" lon="4.7668">
        <ele>205</ele>
        <time>2018-03-04T11:10:56Z</time>
      </trkpt>
      <trkpt lat="46.03694" lon="4.76676">
        <ele>205</ele>
        <time>2018-03-04T11:10:57Z</time>
      </trkpt>
      <trkpt lat="46.03689" lon="4.76672">
        <ele>205</ele>
        <time>2018-03-04T11:10:58Z</time>
      </trkpt>
      <trkpt lat="46.03685" lon="4.76662">
        <ele>204</ele>
        <time>2018-03-04T11:11:00Z</time>
      </trkpt>
      <trkpt lat="46.03684" lon="4.76656">
        <ele>204</ele>
        <time>2018-03-04T11:11:01Z</time>
      </trkpt>
      <trkpt lat="46.03681" lon="4.76649">
        <ele>204</ele>
        <time>2018-03-04T11:11:02Z</time>
      </trkpt>
      <trkpt lat="46.0368" lon="4.76642">
        <ele>204</ele>
        <time>2018-03-04T11:11:03Z</time>
      </trkpt>
      <trkpt lat="46.03679" lon="4.76634">
        <ele>203</ele>
        <time>2018-03-04T11:11:04Z</time>
      </trkpt>
      <trkpt lat="46.03677" lon="4.76626">
        <ele>203</ele>
        <time>2018-03-04T11:11:05Z</time>
      </trkpt>
      <trkpt lat="46.03676" lon="4.76619">
        <ele>203</ele>
        <time>2018-03-04T11:11:06Z</time>
      </trkpt>
      <trkpt lat="46.03676" lon="4.76611">
        <ele>203</ele>
        <time>2018-03-04T11:11:07Z</time>
      </trkpt>
      <trkpt lat="46.03674" lon="4.76604">
        <ele>203</ele>
        <time>2018-03-04T11:11:08Z</time>
      </trkpt>
      <trkpt lat="46.03671" lon="4.76598">
        <ele>203</ele>
        <time>2018-03-04T11:11:09Z</time>
      </trkpt>
      <trkpt lat="46.03665" lon="4.76594">
        <ele>202</ele>
        <time>2018-03-04T11:11:10Z</time>
      </trkpt>
      <trkpt lat="46.0366" lon="4.7659">
        <ele>202</ele>
        <time>2018-03-04T11:11:11Z</time>
      </trkpt>
      <trkpt lat="46.03655" lon="4.76585">
        <ele>202</ele>
        <time>2018-03-04T11:11:12Z</time>
      </trkpt>
      <trkpt lat="46.03651" lon="4.76577">
        <ele>201</ele>
        <time>2018-03-04T11:11:13Z</time>
      </trkpt>
      <trkpt lat="46.03647" lon="4.7657">
        <ele>201</ele>
        <time>2018-03-04T11:11:14Z</time>
      </trkpt>
      <trkpt lat="46.03644" lon="4.76563">
        <ele>201</ele>
        <time>2018-03-04T11:11:15Z</time>
      </trkpt>
      <trkpt lat="46.03642" lon="4.76554">
        <ele>201</ele>
        <time>2018-03-04T11:11:16Z</time>
      </trkpt>
      <trkpt lat="46.0364" lon="4.76545">
        <ele>200</ele>
        <time>2018-03-04T11:11:17Z</time>
      </trkpt>
      <trkpt lat="46.03636" lon="4.76537">
        <ele>200</ele>
        <time>2018-03-04T11:11:18Z</time>
      </trkpt>
      <trkpt lat="46.03633" lon="4.76529">
        <ele>200</ele>
        <time>2018-03-04T11:11:19Z</time>
      </trkpt>
      <trkpt lat="46.03628" lon="4.76521">
        <ele>200</ele>
        <time>2018-03-04T11:11:20Z</time>
      </trkpt>
      <trkpt lat="46.03625" lon="4.76513">
        <ele>200</ele>
        <time>2018-03-04T11:11:21Z</time>
      </trkpt>
      <trkpt lat="46.0362" lon="4.76506">
        <ele>200</ele>
        <time>2018-03-04T11:11:22Z</time>
      </trkpt>
      <trkpt lat="46.03615" lon="4.765">
        <ele>200</ele>
        <time>2018-03-04T11:11:23Z</time>
      </trkpt>
      <trkpt lat="46.03612" lon="4.76493">
        <ele>199</ele>
        <time>2018-03-04T11:11:24Z</time>
      </trkpt>
      <trkpt lat="46.03608" lon="4.76488">
        <ele>199</ele>
        <time>2018-03-04T11:11:25Z</time>
      </trkpt>
      <trkpt lat="46.03604" lon="4.76481">
        <ele>199</ele>
        <time>2018-03-04T11:11:26Z</time>
      </trkpt>
      <trkpt lat="46.03601" lon="4.76474">
        <ele>199</ele>
        <time>2018-03-04T11:11:27Z</time>
      </trkpt>
      <trkpt lat="46.03598" lon="4.76466">
        <ele>199</ele>
        <time>2018-03-04T11:11:28Z</time>
      </trkpt>
      <trkpt lat="46.03595" lon="4.76458">
        <ele>199</ele>
        <time>2018-03-04T11:11:29Z</time>
      </trkpt>
      <trkpt lat="46.03595" lon="4.7645">
        <ele>199</ele>
        <time>2018-03-04T11:11:30Z</time>
      </trkpt>
      <trkpt lat="46.03594" lon="4.76441">
        <ele>199</ele>
        <time>2018-03-04T11:11:31Z</time>
      </trkpt>
      <trkpt lat="46.03595" lon="4.76433">
        <ele>199</ele>
        <time>2018-03-04T11:11:32Z</time>
      </trkpt>
      <trkpt lat="46.03594" lon="4.76424">
        <ele>199</ele>
        <time>2018-03-04T11:11:33Z</time>
      </trkpt>
      <trkpt lat="46.03595" lon="4.76416">
        <ele>198</ele>
        <time>2018-03-04T11:11:34Z</time>
      </trkpt>
      <trkpt lat="46.03598" lon="4.7641">
        <ele>198</ele>
        <time>2018-03-04T11:11:35Z</time>
      </trkpt>
      <trkpt lat="46.03599" lon="4.764">
        <ele>198</ele>
        <time>2018-03-04T11:11:36Z</time>
      </trkpt>
      <trkpt lat="46.036" lon="4.76391">
        <ele>197</ele>
        <time>2018-03-04T11:11:37Z</time>
      </trkpt>
      <trkpt lat="46.03602" lon="4.76381">
        <ele>197</ele>
        <time>2018-03-04T11:11:38Z</time>
      </trkpt>
      <trkpt lat="46.03603" lon="4.76371">
        <ele>197</ele>
        <time>2018-03-04T11:11:39Z</time>
      </trkpt>
      <trkpt lat="46.03604" lon="4.7636">
        <ele>196</ele>
        <time>2018-03-04T11:11:40Z</time>
      </trkpt>
      <trkpt lat="46.03606" lon="4.76351">
        <ele>196</ele>
        <time>2018-03-04T11:11:41Z</time>
      </trkpt>
      <trkpt lat="46.03607" lon="4.76341">
        <ele>196</ele>
        <time>2018-03-04T11:11:42Z</time>
      </trkpt>
      <trkpt lat="46.03609" lon="4.7633">
        <ele>195</ele>
        <time>2018-03-04T11:11:43Z</time>
      </trkpt>
      <trkpt lat="46.0361" lon="4.7632">
        <ele>195</ele>
        <time>2018-03-04T11:11:44Z</time>
      </trkpt>
      <trkpt lat="46.03611" lon="4.7631">
        <ele>195</ele>
        <time>2018-03-04T11:11:45Z</time>
      </trkpt>
      <trkpt lat="46.03609" lon="4.763">
        <ele>195</ele>
        <time>2018-03-04T11:11:46Z</time>
      </trkpt>
      <trkpt lat="46.0361" lon="4.76291">
        <ele>194</ele>
        <time>2018-03-04T11:11:47Z</time>
      </trkpt>
      <trkpt lat="46.03611" lon="4.76281">
        <ele>194</ele>
        <time>2018-03-04T11:11:48Z</time>
      </trkpt>
      <trkpt lat="46.03612" lon="4.76272">
        <ele>194</ele>
        <time>2018-03-04T11:11:49Z</time>
      </trkpt>
      <trkpt lat="46.03614" lon="4.76263">
        <ele>194</ele>
        <time>2018-03-04T11:11:50Z</time>
      </trkpt>
      <trkpt lat="46.03616" lon="4.76252">
        <ele>194</ele>
        <time>2018-03-04T11:11:51Z</time>
      </trkpt>
      <trkpt lat="46.03617" lon="4.76244">
        <ele>193</ele>
        <time>2018-03-04T11:11:52Z</time>
      </trkpt>
      <trkpt lat="46.03617" lon="4.76235">
        <ele>193</ele>
        <time>2018-03-04T11:11:53Z</time>
      </trkpt>
      <trkpt lat="46.03619" lon="4.76227">
        <ele>193</ele>
        <time>2018-03-04T11:11:54Z</time>
      </trkpt>
      <trkpt lat="46.0362" lon="4.76218">
        <ele>193</ele>
        <time>2018-03-04T11:11:55Z</time>
      </trkpt>
      <trkpt lat="46.03621" lon="4.7621">
        <ele>193</ele>
        <time>2018-03-04T11:11:56Z</time>
      </trkpt>
      <trkpt lat="46.03622" lon="4.76202">
        <ele>193</ele>
        <time>2018-03-04T11:11:57Z</time>
      </trkpt>
      <trkpt lat="46.03623" lon="4.76192">
        <ele>193</ele>
        <time>2018-03-04T11:11:58Z</time>
      </trkpt>
      <trkpt lat="46.03625" lon="4.76183">
        <ele>193</ele>
        <time>2018-03-04T11:11:59Z</time>
      </trkpt>
      <trkpt lat="46.03626" lon="4.76174">
        <ele>192</ele>
        <time>2018-03-04T11:12:00Z</time>
      </trkpt>
      <trkpt lat="46.03626" lon="4.76166">
        <ele>192</ele>
        <time>2018-03-04T11:12:01Z</time>
      </trkpt>
      <trkpt lat="46.03627" lon="4.76157">
        <ele>192</ele>
        <time>2018-03-04T11:12:02Z</time>
      </trkpt>
      <trkpt lat="46.03628" lon="4.76149">
        <ele>192</ele>
        <time>2018-03-04T11:12:03Z</time>
      </trkpt>
      <trkpt lat="46.03628" lon="4.7614">
        <ele>192</ele>
        <time>2018-03-04T11:12:04Z</time>
      </trkpt>
      <trkpt lat="46.03627" lon="4.76133">
        <ele>192</ele>
        <time>2018-03-04T11:12:05Z</time>
      </trkpt>
      <trkpt lat="46.03628" lon="4.76124">
        <ele>192</ele>
        <time>2018-03-04T11:12:06Z</time>
      </trkpt>
      <trkpt lat="46.03628" lon="4.76117">
        <ele>192</ele>
        <time>2018-03-04T11:12:07Z</time>
      </trkpt>
      <trkpt lat="46.03628" lon="4.76109">
        <ele>192</ele>
        <time>2018-03-04T11:12:08Z</time>
      </trkpt>
      <trkpt lat="46.03626" lon="4.761">
        <ele>192</ele>
        <time>2018-03-04T11:12:09Z</time>
      </trkpt>
      <trkpt lat="46.03625" lon="4.76091">
        <ele>192</ele>
        <time>2018-03-04T11:12:10Z</time>
      </trkpt>
      <trkpt lat="46.03623" lon="4.76082">
        <ele>191</ele>
        <time>2018-03-04T11:12:11Z</time>
      </trkpt>
      <trkpt lat="46.03622" lon="4.76074">
        <ele>191</ele>
        <time>2018-03-04T11:12:12Z</time>
      </trkpt>
      <trkpt lat="46.03619" lon="4.76066">
        <ele>191</ele>
        <time>2018-03-04T11:12:13Z</time>
      </trkpt>
      <trkpt lat="46.03617" lon="4.76058">
        <ele>191</ele>
        <time>2018-03-04T11:12:14Z</time>
      </trkpt>
      <trkpt lat="46.03614" lon="4.7605">
        <ele>191</ele>
        <time>2018-03-04T11:12:15Z</time>
      </trkpt>
      <trkpt lat="46.03612" lon="4.76043">
        <ele>191</ele>
        <time>2018-03-04T11:12:16Z</time>
      </trkpt>
      <trkpt lat="46.03609" lon="4.76035">
        <ele>191</ele>
        <time>2018-03-04T11:12:17Z</time>
      </trkpt>
      <trkpt lat="46.03606" lon="4.76027">
        <ele>191</ele>
        <time>2018-03-04T11:12:18Z</time>
      </trkpt>
      <trkpt lat="46.03604" lon="4.76019">
        <ele>191</ele>
        <time>2018-03-04T11:12:19Z</time>
      </trkpt>
      <trkpt lat="46.03601" lon="4.76011">
        <ele>191</ele>
        <time>2018-03-04T11:12:20Z</time>
      </trkpt>
      <trkpt lat="46.03598" lon="4.76003">
        <ele>191</ele>
        <time>2018-03-04T11:12:21Z</time>
      </trkpt>
      <trkpt lat="46.03595" lon="4.75995">
        <ele>190</ele>
        <time>2018-03-04T11:12:22Z</time>
      </trkpt>
      <trkpt lat="46.03592" lon="4.75988">
        <ele>190</ele>
        <time>2018-03-04T11:12:23Z</time>
      </trkpt>
      <trkpt lat="46.0359" lon="4.7598">
        <ele>190</ele>
        <time>2018-03-04T11:12:24Z</time>
      </trkpt>
      <trkpt lat="46.03587" lon="4.75972">
        <ele>190</ele>
        <time>2018-03-04T11:12:25Z</time>
      </trkpt>
      <trkpt lat="46.03584" lon="4.75964">
        <ele>190</ele>
        <time>2018-03-04T11:12:26Z</time>
      </trkpt>
      <trkpt lat="46.0358" lon="4.75957">
        <ele>190</ele>
        <time>2018-03-04T11:12:27Z</time>
      </trkpt>
      <trkpt lat="46.03577" lon="4.75949">
        <ele>190</ele>
        <time>2018-03-04T11:12:28Z</time>
      </trkpt>
      <trkpt lat="46.03574" lon="4.75942">
        <ele>190</ele>
        <time>2018-03-04T11:12:29Z</time>
      </trkpt>
      <trkpt lat="46.03571" lon="4.75935">
        <ele>190</ele>
        <time>2018-03-04T11:12:30Z</time>
      </trkpt>
      <trkpt lat="46.03568" lon="4.75927">
        <ele>190</ele>
        <time>2018-03-04T11:12:31Z</time>
      </trkpt>
      <trkpt lat="46.03564" lon="4.7592">
        <ele>190</ele>
        <time>2018-03-04T11:12:32Z</time>
      </trkpt>
      <trkpt lat="46.03562" lon="4.75913">
        <ele>189</ele>
        <time>2018-03-04T11:12:33Z</time>
      </trkpt>
      <trkpt lat="46.03559" lon="4.75906">
        <ele>189</ele>
        <time>2018-03-04T11:12:34Z</time>
      </trkpt>
      <trkpt lat="46.03556" lon="4.759">
        <ele>189</ele>
        <time>2018-03-04T11:12:35Z</time>
      </trkpt>
      <trkpt lat="46.03552" lon="4.75893">
        <ele>189</ele>
        <time>2018-03-04T11:12:36Z</time>
      </trkpt>
      <trkpt lat="46.03549" lon="4.75886">
        <ele>189</ele>
        <time>2018-03-04T11:12:37Z</time>
      </trkpt>
      <trkpt lat="46.03546" lon="4.75879">
        <ele>189</ele>
        <time>2018-03-04T11:12:38Z</time>
      </trkpt>
      <trkpt lat="46.03543" lon="4.75872">
        <ele>189</ele>
        <time>2018-03-04T11:12:39Z</time>
      </trkpt>
      <trkpt lat="46.03539" lon="4.75864">
        <ele>190</ele>
        <time>2018-03-04T11:12:40Z</time>
      </trkpt>
      <trkpt lat="46.03536" lon="4.75857">
        <ele>190</ele>
        <time>2018-03-04T11:12:41Z</time>
      </trkpt>
      <trkpt lat="46.03532" lon="4.75851">
        <ele>190</ele>
        <time>2018-03-04T11:12:42Z</time>
      </trkpt>
      <trkpt lat="46.03528" lon="4.75844">
        <ele>190</ele>
        <time>2018-03-04T11:12:43Z</time>
      </trkpt>
      <trkpt lat="46.03526" lon="4.75837">
        <ele>190</ele>
        <time>2018-03-04T11:12:44Z</time>
      </trkpt>
      <trkpt lat="46.03523" lon="4.7583">
        <ele>190</ele>
        <time>2018-03-04T11:12:45Z</time>
      </trkpt>
      <trkpt lat="46.0352" lon="4.75823">
        <ele>190</ele>
        <time>2018-03-04T11:12:46Z</time>
      </trkpt>
      <trkpt lat="46.03517" lon="4.75815">
        <ele>189</ele>
        <time>2018-03-04T11:12:47Z</time>
      </trkpt>
      <trkpt lat="46.03514" lon="4.75808">
        <ele>189</ele>
        <time>2018-03-04T11:12:48Z</time>
      </trkpt>
      <trkpt lat="46.0351" lon="4.758">
        <ele>189</ele>
        <time>2018-03-04T11:12:49Z</time>
      </trkpt>
      <trkpt lat="46.03507" lon="4.75793">
        <ele>189</ele>
        <time>2018-03-04T11:12:50Z</time>
      </trkpt>
      <trkpt lat="46.03504" lon="4.75785">
        <ele>189</ele>
        <time>2018-03-04T11:12:51Z</time>
      </trkpt>
      <trkpt lat="46.03499" lon="4.75778">
        <ele>190</ele>
        <time>2018-03-04T11:12:52Z</time>
      </trkpt>
      <trkpt lat="46.03496" lon="4.7577">
        <ele>189</ele>
        <time>2018-03-04T11:12:53Z</time>
      </trkpt>
      <trkpt lat="46.03493" lon="4.75763">
        <ele>189</ele>
        <time>2018-03-04T11:12:54Z</time>
      </trkpt>
      <trkpt lat="46.0349" lon="4.75756">
        <ele>189</ele>
        <time>2018-03-04T11:12:55Z</time>
      </trkpt>
      <trkpt lat="46.03488" lon="4.75751">
        <ele>189</ele>
        <time>2018-03-04T11:12:56Z</time>
      </trkpt>
      <trkpt lat="46.03485" lon="4.75743">
        <ele>189</ele>
        <time>2018-03-04T11:12:57Z</time>
      </trkpt>
      <trkpt lat="46.03482" lon="4.75737">
        <ele>189</ele>
        <time>2018-03-04T11:12:58Z</time>
      </trkpt>
      <trkpt lat="46.0348" lon="4.75731">
        <ele>189</ele>
        <time>2018-03-04T11:12:59Z</time>
      </trkpt>
      <trkpt lat="46.03477" lon="4.75724">
        <ele>189</ele>
        <time>2018-03-04T11:13:00Z</time>
      </trkpt>
      <trkpt lat="46.03474" lon="4.75717">
        <ele>189</ele>
        <time>2018-03-04T11:13:01Z</time>
      </trkpt>
      <trkpt lat="46.03471" lon="4.75712">
        <ele>189</ele>
        <time>2018-03-04T11:13:02Z</time>
      </trkpt>
      <trkpt lat="46.03469" lon="4.75705">
        <ele>189</ele>
        <time>2018-03-04T11:13:03Z</time>
      </trkpt>
      <trkpt lat="46.03466" lon="4.75698">
        <ele>189</ele>
        <time>2018-03-04T11:13:04Z</time>
      </trkpt>
      <trkpt lat="46.03463" lon="4.75692">
        <ele>189</ele>
        <time>2018-03-04T11:13:05Z</time>
      </trkpt>
      <trkpt lat="46.0346" lon="4.75685">
        <ele>189</ele>
        <time>2018-03-04T11:13:06Z</time>
      </trkpt>
      <trkpt lat="46.03458" lon="4.75678">
        <ele>189</ele>
        <time>2018-03-04T11:13:07Z</time>
      </trkpt>
      <trkpt lat="46.03455" lon="4.75671">
        <ele>189</ele>
        <time>2018-03-04T11:13:08Z</time>
      </trkpt>
      <trkpt lat="46.03453" lon="4.75665">
        <ele>188</ele>
        <time>2018-03-04T11:13:09Z</time>
      </trkpt>
      <trkpt lat="46.0345" lon="4.75658">
        <ele>188</ele>
        <time>2018-03-04T11:13:10Z</time>
      </trkpt>
      <trkpt lat="46.03448" lon="4.75652">
        <ele>188</ele>
        <time>2018-03-04T11:13:11Z</time>
      </trkpt>
      <trkpt lat="46.03445" lon="4.75642">
        <ele>188</ele>
        <time>2018-03-04T11:13:14Z</time>
      </trkpt>
      <trkpt lat="46.03444" lon="4.75639">
        <ele>188</ele>
        <time>2018-03-04T11:13:15Z</time>
      </trkpt>
      <trkpt lat="46.03441" lon="4.75629">
        <ele>188</ele>
        <time>2018-03-04T11:13:19Z</time>
      </trkpt>
      <trkpt lat="46.0344" lon="4.75627">
        <ele>188</ele>
        <time>2018-03-04T11:13:20Z</time>
      </trkpt>
      <trkpt lat="46.03436" lon="4.75622">
        <ele>188</ele>
        <time>2018-03-04T11:13:22Z</time>
      </trkpt>
      <trkpt lat="46.03428" lon="4.75617">
        <ele>188</ele>
        <time>2018-03-04T11:13:23Z</time>
      </trkpt>
      <trkpt lat="46.0342" lon="4.75617">
        <ele>188</ele>
        <time>2018-03-04T11:13:25Z</time>
      </trkpt>
      <trkpt lat="46.03415" lon="4.75618">
        <ele>188</ele>
        <time>2018-03-04T11:13:26Z</time>
      </trkpt>
      <trkpt lat="46.0341" lon="4.75621">
        <ele>188</ele>
        <time>2018-03-04T11:13:27Z</time>
      </trkpt>
      <trkpt lat="46.03405" lon="4.75622">
        <ele>188</ele>
        <time>2018-03-04T11:13:28Z</time>
      </trkpt>
      <trkpt lat="46.034" lon="4.75623">
        <ele>188</ele>
        <time>2018-03-04T11:13:29Z</time>
      </trkpt>
      <trkpt lat="46.03394" lon="4.75624">
        <ele>188</ele>
        <time>2018-03-04T11:13:30Z</time>
      </trkpt>
      <trkpt lat="46.03389" lon="4.75625">
        <ele>188</ele>
        <time>2018-03-04T11:13:31Z</time>
      </trkpt>
      <trkpt lat="46.03384" lon="4.75626">
        <ele>188</ele>
        <time>2018-03-04T11:13:32Z</time>
      </trkpt>
      <trkpt lat="46.03378" lon="4.75628">
        <ele>188</ele>
        <time>2018-03-04T11:13:33Z</time>
      </trkpt>
      <trkpt lat="46.03373" lon="4.75629">
        <ele>188</ele>
        <time>2018-03-04T11:13:34Z</time>
      </trkpt>
      <trkpt lat="46.03367" lon="4.75631">
        <ele>188</ele>
        <time>2018-03-04T11:13:35Z</time>
      </trkpt>
      <trkpt lat="46.03362" lon="4.75631">
        <ele>188</ele>
        <time>2018-03-04T11:13:36Z</time>
      </trkpt>
      <trkpt lat="46.03357" lon="4.75632">
        <ele>188</ele>
        <time>2018-03-04T11:13:37Z</time>
      </trkpt>
      <trkpt lat="46.03351" lon="4.75632">
        <ele>188</ele>
        <time>2018-03-04T11:13:38Z</time>
      </trkpt>
      <trkpt lat="46.03345" lon="4.75632">
        <ele>188</ele>
        <time>2018-03-04T11:13:39Z</time>
      </trkpt>
      <trkpt lat="46.0334" lon="4.75632">
        <ele>188</ele>
        <time>2018-03-04T11:13:40Z</time>
      </trkpt>
      <trkpt lat="46.03334" lon="4.75631">
        <ele>188</ele>
        <time>2018-03-04T11:13:41Z</time>
      </trkpt>
      <trkpt lat="46.03329" lon="4.75631">
        <ele>189</ele>
        <time>2018-03-04T11:13:42Z</time>
      </trkpt>
      <trkpt lat="46.03323" lon="4.75631">
        <ele>189</ele>
        <time>2018-03-04T11:13:43Z</time>
      </trkpt>
      <trkpt lat="46.03319" lon="4.75631">
        <ele>189</ele>
        <time>2018-03-04T11:13:44Z</time>
      </trkpt>
      <trkpt lat="46.03313" lon="4.7563">
        <ele>189</ele>
        <time>2018-03-04T11:13:45Z</time>
      </trkpt>
      <trkpt lat="46.03308" lon="4.75631">
        <ele>189</ele>
        <time>2018-03-04T11:13:46Z</time>
      </trkpt>
      <trkpt lat="46.03303" lon="4.75631">
        <ele>189</ele>
        <time>2018-03-04T11:13:47Z</time>
      </trkpt>
      <trkpt lat="46.03298" lon="4.75634">
        <ele>189</ele>
        <time>2018-03-04T11:13:48Z</time>
      </trkpt>
      <trkpt lat="46.03294" lon="4.75638">
        <ele>190</ele>
        <time>2018-03-04T11:13:49Z</time>
      </trkpt>
      <trkpt lat="46.0329" lon="4.75641">
        <ele>190</ele>
        <time>2018-03-04T11:13:50Z</time>
      </trkpt>
      <trkpt lat="46.03286" lon="4.75645">
        <ele>190</ele>
        <time>2018-03-04T11:13:51Z</time>
      </trkpt>
      <trkpt lat="46.03281" lon="4.75648">
        <ele>190</ele>
        <time>2018-03-04T11:13:52Z</time>
      </trkpt>
      <trkpt lat="46.03277" lon="4.7565">
        <ele>191</ele>
        <time>2018-03-04T11:13:53Z</time>
      </trkpt>
      <trkpt lat="46.03272" lon="4.75653">
        <ele>191</ele>
        <time>2018-03-04T11:13:54Z</time>
      </trkpt>
      <trkpt lat="46.03267" lon="4.75655">
        <ele>192</ele>
        <time>2018-03-04T11:13:55Z</time>
      </trkpt>
      <trkpt lat="46.03263" lon="4.75656">
        <ele>192</ele>
        <time>2018-03-04T11:13:56Z</time>
      </trkpt>
      <trkpt lat="46.03257" lon="4.75657">
        <ele>193</ele>
        <time>2018-03-04T11:13:57Z</time>
      </trkpt>
      <trkpt lat="46.03252" lon="4.7566">
        <ele>193</ele>
        <time>2018-03-04T11:13:58Z</time>
      </trkpt>
      <trkpt lat="46.03246" lon="4.75662">
        <ele>194</ele>
        <time>2018-03-04T11:13:59Z</time>
      </trkpt>
      <trkpt lat="46.03239" lon="4.75662">
        <ele>193</ele>
        <time>2018-03-04T11:14:00Z</time>
      </trkpt>
      <trkpt lat="46.03234" lon="4.75663">
        <ele>192</ele>
        <time>2018-03-04T11:14:01Z</time>
      </trkpt>
      <trkpt lat="46.03229" lon="4.75664">
        <ele>191</ele>
        <time>2018-03-04T11:14:02Z</time>
      </trkpt>
      <trkpt lat="46.03223" lon="4.75666">
        <ele>191</ele>
        <time>2018-03-04T11:14:03Z</time>
      </trkpt>
      <trkpt lat="46.03216" lon="4.75668">
        <ele>193</ele>
        <time>2018-03-04T11:14:04Z</time>
      </trkpt>
      <trkpt lat="46.03209" lon="4.75672">
        <ele>193</ele>
        <time>2018-03-04T11:14:05Z</time>
      </trkpt>
      <trkpt lat="46.03202" lon="4.75672">
        <ele>192</ele>
        <time>2018-03-04T11:14:06Z</time>
      </trkpt>
      <trkpt lat="46.03196" lon="4.75672">
        <ele>192</ele>
        <time>2018-03-04T11:14:07Z</time>
      </trkpt>
      <trkpt lat="46.0319" lon="4.75671">
        <ele>191</ele>
        <time>2018-03-04T11:14:08Z</time>
      </trkpt>
      <trkpt lat="46.03184" lon="4.75672">
        <ele>191</ele>
        <time>2018-03-04T11:14:09Z</time>
      </trkpt>
      <trkpt lat="46.03176" lon="4.75672">
        <ele>190</ele>
        <time>2018-03-04T11:14:10Z</time>
      </trkpt>
      <trkpt lat="46.03169" lon="4.75672">
        <ele>189</ele>
        <time>2018-03-04T11:14:11Z</time>
      </trkpt>
      <trkpt lat="46.03163" lon="4.75673">
        <ele>188</ele>
        <time>2018-03-04T11:14:12Z</time>
      </trkpt>
      <trkpt lat="46.03156" lon="4.75673">
        <ele>188</ele>
        <time>2018-03-04T11:14:13Z</time>
      </trkpt>
      <trkpt lat="46.03151" lon="4.75675">
        <ele>187</ele>
        <time>2018-03-04T11:14:14Z</time>
      </trkpt>
      <trkpt lat="46.03143" lon="4.75676">
        <ele>187</ele>
        <time>2018-03-04T11:14:16Z</time>
      </trkpt>
      <trkpt lat="46.03137" lon="4.75676">
        <ele>187</ele>
        <time>2018-03-04T11:14:17Z</time>
      </trkpt>
      <trkpt lat="46.03132" lon="4.75675">
        <ele>187</ele>
        <time>2018-03-04T11:14:18Z</time>
      </trkpt>
      <trkpt lat="46.03128" lon="4.75677">
        <ele>187</ele>
        <time>2018-03-04T11:14:19Z</time>
      </trkpt>
      <trkpt lat="46.03123" lon="4.75676">
        <ele>186</ele>
        <time>2018-03-04T11:14:20Z</time>
      </trkpt>
      <trkpt lat="46.03117" lon="4.75676">
        <ele>186</ele>
        <time>2018-03-04T11:14:21Z</time>
      </trkpt>
      <trkpt lat="46.0311" lon="4.75677">
        <ele>186</ele>
        <time>2018-03-04T11:14:22Z</time>
      </trkpt>
      <trkpt lat="46.03104" lon="4.75676">
        <ele>186</ele>
        <time>2018-03-04T11:14:23Z</time>
      </trkpt>
      <trkpt lat="46.03099" lon="4.75677">
        <ele>185</ele>
        <time>2018-03-04T11:14:24Z</time>
      </trkpt>
      <trkpt lat="46.03094" lon="4.75678">
        <ele>185</ele>
        <time>2018-03-04T11:14:25Z</time>
      </trkpt>
      <trkpt lat="46.03089" lon="4.75678">
        <ele>185</ele>
        <time>2018-03-04T11:14:26Z</time>
      </trkpt>
      <trkpt lat="46.03083" lon="4.75678">
        <ele>184</ele>
        <time>2018-03-04T11:14:27Z</time>
      </trkpt>
      <trkpt lat="46.03077" lon="4.75679">
        <ele>184</ele>
        <time>2018-03-04T11:14:28Z</time>
      </trkpt>
      <trkpt lat="46.03071" lon="4.75679">
        <ele>184</ele>
        <time>2018-03-04T11:14:29Z</time>
      </trkpt>
      <trkpt lat="46.03065" lon="4.7568">
        <ele>184</ele>
        <time>2018-03-04T11:14:30Z</time>
      </trkpt>
      <trkpt lat="46.03058" lon="4.75682">
        <ele>184</ele>
        <time>2018-03-04T11:14:31Z</time>
      </trkpt>
      <trkpt lat="46.03049" lon="4.75685">
        <ele>184</ele>
        <time>2018-03-04T11:14:32Z</time>
      </trkpt>
      <trkpt lat="46.03042" lon="4.75686">
        <ele>184</ele>
        <time>2018-03-04T11:14:33Z</time>
      </trkpt>
      <trkpt lat="46.03035" lon="4.75688">
        <ele>183</ele>
        <time>2018-03-04T11:14:34Z</time>
      </trkpt>
      <trkpt lat="46.03028" lon="4.7569">
        <ele>183</ele>
        <time>2018-03-04T11:14:35Z</time>
      </trkpt>
      <trkpt lat="46.03023" lon="4.75692">
        <ele>183</ele>
        <time>2018-03-04T11:14:36Z</time>
      </trkpt>
      <trkpt lat="46.03018" lon="4.75695">
        <ele>183</ele>
        <time>2018-03-04T11:14:37Z</time>
      </trkpt>
      <trkpt lat="46.03012" lon="4.75697">
        <ele>183</ele>
        <time>2018-03-04T11:14:38Z</time>
      </trkpt>
      <trkpt lat="46.03006" lon="4.757">
        <ele>183</ele>
        <time>2018-03-04T11:14:39Z</time>
      </trkpt>
      <trkpt lat="46.03" lon="4.75702">
        <ele>183</ele>
        <time>2018-03-04T11:14:40Z</time>
      </trkpt>
      <trkpt lat="46.02995" lon="4.75704">
        <ele>183</ele>
        <time>2018-03-04T11:14:41Z</time>
      </trkpt>
      <trkpt lat="46.0299" lon="4.75706">
        <ele>183</ele>
        <time>2018-03-04T11:14:42Z</time>
      </trkpt>
      <trkpt lat="46.02984" lon="4.75708">
        <ele>183</ele>
        <time>2018-03-04T11:14:43Z</time>
      </trkpt>
      <trkpt lat="46.02978" lon="4.75709">
        <ele>183</ele>
        <time>2018-03-04T11:14:44Z</time>
      </trkpt>
      <trkpt lat="46.02973" lon="4.7571">
        <ele>183</ele>
        <time>2018-03-04T11:14:45Z</time>
      </trkpt>
      <trkpt lat="46.02967" lon="4.75712">
        <ele>183</ele>
        <time>2018-03-04T11:14:46Z</time>
      </trkpt>
      <trkpt lat="46.02961" lon="4.75713">
        <ele>183</ele>
        <time>2018-03-04T11:14:47Z</time>
      </trkpt>
      <trkpt lat="46.02955" lon="4.75715">
        <ele>183</ele>
        <time>2018-03-04T11:14:48Z</time>
      </trkpt>
      <trkpt lat="46.02948" lon="4.75716">
        <ele>183</ele>
        <time>2018-03-04T11:14:49Z</time>
      </trkpt>
      <trkpt lat="46.02943" lon="4.75716">
        <ele>183</ele>
        <time>2018-03-04T11:14:50Z</time>
      </trkpt>
      <trkpt lat="46.02935" lon="4.75717">
        <ele>183</ele>
        <time>2018-03-04T11:14:51Z</time>
      </trkpt>
      <trkpt lat="46.02929" lon="4.75719">
        <ele>183</ele>
        <time>2018-03-04T11:14:52Z</time>
      </trkpt>
      <trkpt lat="46.02923" lon="4.75719">
        <ele>183</ele>
        <time>2018-03-04T11:14:53Z</time>
      </trkpt>
      <trkpt lat="46.02917" lon="4.7572">
        <ele>183</ele>
        <time>2018-03-04T11:14:54Z</time>
      </trkpt>
      <trkpt lat="46.02912" lon="4.75721">
        <ele>183</ele>
        <time>2018-03-04T11:14:55Z</time>
      </trkpt>
      <trkpt lat="46.02907" lon="4.75722">
        <ele>183</ele>
        <time>2018-03-04T11:14:56Z</time>
      </trkpt>
      <trkpt lat="46.02901" lon="4.75722">
        <ele>183</ele>
        <time>2018-03-04T11:14:57Z</time>
      </trkpt>
      <trkpt lat="46.02895" lon="4.75722">
        <ele>183</ele>
        <time>2018-03-04T11:14:58Z</time>
      </trkpt>
      <trkpt lat="46.02888" lon="4.75723">
        <ele>183</ele>
        <time>2018-03-04T11:14:59Z</time>
      </trkpt>
      <trkpt lat="46.02883" lon="4.75723">
        <ele>183</ele>
        <time>2018-03-04T11:15:00Z</time>
      </trkpt>
      <trkpt lat="46.02877" lon="4.75724">
        <ele>183</ele>
        <time>2018-03-04T11:15:01Z</time>
      </trkpt>
      <trkpt lat="46.02871" lon="4.75724">
        <ele>183</ele>
        <time>2018-03-04T11:15:02Z</time>
      </trkpt>
      <trkpt lat="46.02864" lon="4.75724">
        <ele>183</ele>
        <time>2018-03-04T11:15:03Z</time>
      </trkpt>
      <trkpt lat="46.02857" lon="4.75724">
        <ele>184</ele>
        <time>2018-03-04T11:15:04Z</time>
      </trkpt>
      <trkpt lat="46.0285" lon="4.75724">
        <ele>184</ele>
        <time>2018-03-04T11:15:05Z</time>
      </trkpt>
      <trkpt lat="46.02843" lon="4.75723">
        <ele>184</ele>
        <time>2018-03-04T11:15:06Z</time>
      </trkpt>
      <trkpt lat="46.02837" lon="4.75722">
        <ele>184</ele>
        <time>2018-03-04T11:15:07Z</time>
      </trkpt>
      <trkpt lat="46.02829" lon="4.75723">
        <ele>184</ele>
        <time>2018-03-04T11:15:08Z</time>
      </trkpt>
      <trkpt lat="46.02822" lon="4.75721">
        <ele>184</ele>
        <time>2018-03-04T11:15:09Z</time>
      </trkpt>
      <trkpt lat="46.02816" lon="4.75721">
        <ele>184</ele>
        <time>2018-03-04T11:15:10Z</time>
      </trkpt>
      <trkpt lat="46.02811" lon="4.75721">
        <ele>184</ele>
        <time>2018-03-04T11:15:11Z</time>
      </trkpt>
      <trkpt lat="46.02805" lon="4.7572">
        <ele>183</ele>
        <time>2018-03-04T11:15:12Z</time>
      </trkpt>
      <trkpt lat="46.02799" lon="4.75717">
        <ele>183</ele>
        <time>2018-03-04T11:15:13Z</time>
      </trkpt>
      <trkpt lat="46.02793" lon="4.75716">
        <ele>183</ele>
        <time>2018-03-04T11:15:14Z</time>
      </trkpt>
      <trkpt lat="46.02786" lon="4.75715">
        <ele>183</ele>
        <time>2018-03-04T11:15:15Z</time>
      </trkpt>
      <trkpt lat="46.0278" lon="4.75718">
        <ele>183</ele>
        <time>2018-03-04T11:15:16Z</time>
      </trkpt>
      <trkpt lat="46.02775" lon="4.75717">
        <ele>183</ele>
        <time>2018-03-04T11:15:17Z</time>
      </trkpt>
      <trkpt lat="46.0277" lon="4.75717">
        <ele>183</ele>
        <time>2018-03-04T11:15:18Z</time>
      </trkpt>
      <trkpt lat="46.02764" lon="4.75718">
        <ele>183</ele>
        <time>2018-03-04T11:15:19Z</time>
      </trkpt>
      <trkpt lat="46.02759" lon="4.75718">
        <ele>183</ele>
        <time>2018-03-04T11:15:20Z</time>
      </trkpt>
      <trkpt lat="46.02754" lon="4.75719">
        <ele>183</ele>
        <time>2018-03-04T11:15:21Z</time>
      </trkpt>
      <trkpt lat="46.02748" lon="4.75719">
        <ele>183</ele>
        <time>2018-03-04T11:15:22Z</time>
      </trkpt>
      <trkpt lat="46.02743" lon="4.7572">
        <ele>183</ele>
        <time>2018-03-04T11:15:23Z</time>
      </trkpt>
      <trkpt lat="46.02736" lon="4.75724">
        <ele>183</ele>
        <time>2018-03-04T11:15:25Z</time>
      </trkpt>
      <trkpt lat="46.02732" lon="4.75724">
        <ele>183</ele>
        <time>2018-03-04T11:15:26Z</time>
      </trkpt>
      <trkpt lat="46.02724" lon="4.75726">
        <ele>182</ele>
        <time>2018-03-04T11:15:27Z</time>
      </trkpt>
      <trkpt lat="46.02721" lon="4.75727">
        <ele>182</ele>
        <time>2018-03-04T11:15:28Z</time>
      </trkpt>
      <trkpt lat="46.02713" lon="4.75729">
        <ele>182</ele>
        <time>2018-03-04T11:15:30Z</time>
      </trkpt>
      <trkpt lat="46.02709" lon="4.75731">
        <ele>182</ele>
        <time>2018-03-04T11:15:31Z</time>
      </trkpt>
      <trkpt lat="46.02704" lon="4.75732">
        <ele>182</ele>
        <time>2018-03-04T11:15:32Z</time>
      </trkpt>
      <trkpt lat="46.027" lon="4.75735">
        <ele>182</ele>
        <time>2018-03-04T11:15:33Z</time>
      </trkpt>
      <trkpt lat="46.02695" lon="4.75738">
        <ele>182</ele>
        <time>2018-03-04T11:15:34Z</time>
      </trkpt>
      <trkpt lat="46.02691" lon="4.75742">
        <ele>182</ele>
        <time>2018-03-04T11:15:35Z</time>
      </trkpt>
      <trkpt lat="46.02684" lon="4.75744">
        <ele>181</ele>
        <time>2018-03-04T11:15:38Z</time>
      </trkpt>
      <trkpt lat="46.02678" lon="4.75745">
        <ele>181</ele>
        <time>2018-03-04T11:15:39Z</time>
      </trkpt>
      <trkpt lat="46.02669" lon="4.75745">
        <ele>181</ele>
        <time>2018-03-04T11:15:41Z</time>
      </trkpt>
      <trkpt lat="46.02665" lon="4.75746">
        <ele>181</ele>
        <time>2018-03-04T11:15:42Z</time>
      </trkpt>
      <trkpt lat="46.02656" lon="4.75746">
        <ele>181</ele>
        <time>2018-03-04T11:15:46Z</time>
      </trkpt>
      <trkpt lat="46.02653" lon="4.75746">
        <ele>182</ele>
        <time>2018-03-04T11:15:47Z</time>
      </trkpt>
      <trkpt lat="46.02645" lon="4.75746">
        <ele>182</ele>
        <time>2018-03-04T11:15:50Z</time>
      </trkpt>
      <trkpt lat="46.02643" lon="4.75746">
        <ele>182</ele>
        <time>2018-03-04T11:15:51Z</time>
      </trkpt>
      <trkpt lat="46.02634" lon="4.75745">
        <ele>182</ele>
        <time>2018-03-04T11:15:54Z</time>
      </trkpt>
      <trkpt lat="46.02631" lon="4.75745">
        <ele>182</ele>
        <time>2018-03-04T11:15:55Z</time>
      </trkpt>
      <trkpt lat="46.02624" lon="4.75745">
        <ele>182</ele>
        <time>2018-03-04T11:15:58Z</time>
      </trkpt>
      <trkpt lat="46.02621" lon="4.75745">
        <ele>182</ele>
        <time>2018-03-04T11:15:59Z</time>
      </trkpt>
      <trkpt lat="46.02612" lon="4.75744">
        <ele>182</ele>
        <time>2018-03-04T11:16:02Z</time>
      </trkpt>
      <trkpt lat="46.0261" lon="4.75744">
        <ele>182</ele>
        <time>2018-03-04T11:16:03Z</time>
      </trkpt>
      <trkpt lat="46.02601" lon="4.75741">
        <ele>183</ele>
        <time>2018-03-04T11:16:07Z</time>
      </trkpt>
      <trkpt lat="46.02599" lon="4.75741">
        <ele>183</ele>
        <time>2018-03-04T11:16:08Z</time>
      </trkpt>
      <trkpt lat="46.0259" lon="4.75739">
        <ele>183</ele>
        <time>2018-03-04T11:16:13Z</time>
      </trkpt>
      <trkpt lat="46.02589" lon="4.75739">
        <ele>183</ele>
        <time>2018-03-04T11:16:14Z</time>
      </trkpt>
      <trkpt lat="46.02581" lon="4.75738">
        <ele>184</ele>
        <time>2018-03-04T11:16:18Z</time>
      </trkpt>
      <trkpt lat="46.02579" lon="4.75738">
        <ele>184</ele>
        <time>2018-03-04T11:16:19Z</time>
      </trkpt>
      <trkpt lat="46.02571" lon="4.75738">
        <ele>185</ele>
        <time>2018-03-04T11:16:23Z</time>
      </trkpt>
      <trkpt lat="46.02569" lon="4.75738">
        <ele>185</ele>
        <time>2018-03-04T11:16:24Z</time>
      </trkpt>
      <trkpt lat="46.02561" lon="4.75738">
        <ele>185</ele>
        <time>2018-03-04T11:16:28Z</time>
      </trkpt>
      <trkpt lat="46.02559" lon="4.75738">
        <ele>185</ele>
        <time>2018-03-04T11:16:29Z</time>
      </trkpt>
      <trkpt lat="46.02552" lon="4.75739">
        <ele>186</ele>
        <time>2018-03-04T11:16:32Z</time>
      </trkpt>
      <trkpt lat="46.02549" lon="4.75739">
        <ele>186</ele>
        <time>2018-03-04T11:16:33Z</time>
      </trkpt>
      <trkpt lat="46.02542" lon="4.75739">
        <ele>186</ele>
        <time>2018-03-04T11:16:36Z</time>
      </trkpt>
      <trkpt lat="46.0254" lon="4.7574">
        <ele>186</ele>
        <time>2018-03-04T11:16:37Z</time>
      </trkpt>
      <trkpt lat="46.02532" lon="4.7574">
        <ele>187</ele>
        <time>2018-03-04T11:16:40Z</time>
      </trkpt>
      <trkpt lat="46.0253" lon="4.7574">
        <ele>187</ele>
        <time>2018-03-04T11:16:41Z</time>
      </trkpt>
      <trkpt lat="46.02522" lon="4.75742">
        <ele>188</ele>
        <time>2018-03-04T11:16:44Z</time>
      </trkpt>
      <trkpt lat="46.0252" lon="4.75743">
        <ele>188</ele>
        <time>2018-03-04T11:16:45Z</time>
      </trkpt>
      <trkpt lat="46.02513" lon="4.75746">
        <ele>188</ele>
        <time>2018-03-04T11:16:48Z</time>
      </trkpt>
      <trkpt lat="46.02511" lon="4.75747">
        <ele>189</ele>
        <time>2018-03-04T11:16:49Z</time>
      </trkpt>
      <trkpt lat="46.02503" lon="4.75751">
        <ele>190</ele>
        <time>2018-03-04T11:16:53Z</time>
      </trkpt>
      <trkpt lat="46.02501" lon="4.75751">
        <ele>190</ele>
        <time>2018-03-04T11:16:54Z</time>
      </trkpt>
      <trkpt lat="46.02492" lon="4.75755">
        <ele>190</ele>
        <time>2018-03-04T11:16:58Z</time>
      </trkpt>
      <trkpt lat="46.0249" lon="4.75756">
        <ele>190</ele>
        <time>2018-03-04T11:16:59Z</time>
      </trkpt>
      <trkpt lat="46.02482" lon="4.75758">
        <ele>191</ele>
        <time>2018-03-04T11:17:02Z</time>
      </trkpt>
      <trkpt lat="46.02479" lon="4.75758">
        <ele>191</ele>
        <time>2018-03-04T11:17:03Z</time>
      </trkpt>
      <trkpt lat="46.02471" lon="4.75762">
        <ele>191</ele>
        <time>2018-03-04T11:17:07Z</time>
      </trkpt>
      <trkpt lat="46.02469" lon="4.75763">
        <ele>191</ele>
        <time>2018-03-04T11:17:08Z</time>
      </trkpt>
      <trkpt lat="46.02461" lon="4.75767">
        <ele>191</ele>
        <time>2018-03-04T11:17:12Z</time>
      </trkpt>
      <trkpt lat="46.02459" lon="4.75769">
        <ele>191</ele>
        <time>2018-03-04T11:17:13Z</time>
      </trkpt>
      <trkpt lat="46.02451" lon="4.75773">
        <ele>191</ele>
        <time>2018-03-04T11:17:17Z</time>
      </trkpt>
      <trkpt lat="46.02449" lon="4.75774">
        <ele>191</ele>
        <time>2018-03-04T11:17:18Z</time>
      </trkpt>
      <trkpt lat="46.02441" lon="4.75778">
        <ele>191</ele>
        <time>2018-03-04T11:17:22Z</time>
      </trkpt>
      <trkpt lat="46.02439" lon="4.75779">
        <ele>191</ele>
        <time>2018-03-04T11:17:23Z</time>
      </trkpt>
      <trkpt lat="46.02433" lon="4.75783">
        <ele>191</ele>
        <time>2018-03-04T11:17:26Z</time>
      </trkpt>
      <trkpt lat="46.0243" lon="4.75785">
        <ele>191</ele>
        <time>2018-03-04T11:17:27Z</time>
      </trkpt>
      <trkpt lat="46.02424" lon="4.75789">
        <ele>192</ele>
        <time>2018-03-04T11:17:30Z</time>
      </trkpt>
      <trkpt lat="46.02422" lon="4.75791">
        <ele>192</ele>
        <time>2018-03-04T11:17:31Z</time>
      </trkpt>
      <trkpt lat="46.02415" lon="4.75795">
        <ele>192</ele>
        <time>2018-03-04T11:17:34Z</time>
      </trkpt>
      <trkpt lat="46.02412" lon="4.75796">
        <ele>192</ele>
        <time>2018-03-04T11:17:35Z</time>
      </trkpt>
      <trkpt lat="46.02405" lon="4.75802">
        <ele>192</ele>
        <time>2018-03-04T11:17:38Z</time>
      </trkpt>
      <trkpt lat="46.02402" lon="4.75804">
        <ele>192</ele>
        <time>2018-03-04T11:17:39Z</time>
      </trkpt>
      <trkpt lat="46.02395" lon="4.75811">
        <ele>192</ele>
        <time>2018-03-04T11:17:42Z</time>
      </trkpt>
      <trkpt lat="46.02393" lon="4.75812">
        <ele>192</ele>
        <time>2018-03-04T11:17:43Z</time>
      </trkpt>
      <trkpt lat="46.02386" lon="4.75816">
        <ele>192</ele>
        <time>2018-03-04T11:17:46Z</time>
      </trkpt>
      <trkpt lat="46.02384" lon="4.75817">
        <ele>192</ele>
        <time>2018-03-04T11:17:47Z</time>
      </trkpt>
      <trkpt lat="46.02376" lon="4.75822">
        <ele>192</ele>
        <time>2018-03-04T11:17:50Z</time>
      </trkpt>
      <trkpt lat="46.02373" lon="4.75824">
        <ele>192</ele>
        <time>2018-03-04T11:17:51Z</time>
      </trkpt>
      <trkpt lat="46.02368" lon="4.75828">
        <ele>192</ele>
        <time>2018-03-04T11:17:53Z</time>
      </trkpt>
      <trkpt lat="46.02365" lon="4.7583">
        <ele>192</ele>
        <time>2018-03-04T11:17:54Z</time>
      </trkpt>
      <trkpt lat="46.0236" lon="4.75835">
        <ele>193</ele>
        <time>2018-03-04T11:17:56Z</time>
      </trkpt>
      <trkpt lat="46.02357" lon="4.75837">
        <ele>193</ele>
        <time>2018-03-04T11:17:57Z</time>
      </trkpt>
      <trkpt lat="46.02352" lon="4.75841">
        <ele>193</ele>
        <time>2018-03-04T11:17:59Z</time>
      </trkpt>
      <trkpt lat="46.02343" lon="4.75848">
        <ele>193</ele>
        <time>2018-03-04T11:18:00Z</time>
      </trkpt>
      <trkpt lat="46.02336" lon="4.75854">
        <ele>193</ele>
        <time>2018-03-04T11:18:02Z</time>
      </trkpt>
      <trkpt lat="46.02333" lon="4.75857">
        <ele>193</ele>
        <time>2018-03-04T11:18:03Z</time>
      </trkpt>
      <trkpt lat="46.02326" lon="4.75863">
        <ele>193</ele>
        <time>2018-03-04T11:18:05Z</time>
      </trkpt>
      <trkpt lat="46.02323" lon="4.75866">
        <ele>193</ele>
        <time>2018-03-04T11:18:06Z</time>
      </trkpt>
      <trkpt lat="46.02316" lon="4.75872">
        <ele>193</ele>
        <time>2018-03-04T11:18:08Z</time>
      </trkpt>
      <trkpt lat="46.02313" lon="4.75876">
        <ele>193</ele>
        <time>2018-03-04T11:18:09Z</time>
      </trkpt>
      <trkpt lat="46.02306" lon="4.75882">
        <ele>193</ele>
        <time>2018-03-04T11:18:11Z</time>
      </trkpt>
      <trkpt lat="46.02303" lon="4.75886">
        <ele>193</ele>
        <time>2018-03-04T11:18:12Z</time>
      </trkpt>
      <trkpt lat="46.02295" lon="4.75892">
        <ele>193</ele>
        <time>2018-03-04T11:18:14Z</time>
      </trkpt>
      <trkpt lat="46.02291" lon="4.75896">
        <ele>193</ele>
        <time>2018-03-04T11:18:15Z</time>
      </trkpt>
      <trkpt lat="46.02287" lon="4.759">
        <ele>193</ele>
        <time>2018-03-04T11:18:16Z</time>
      </trkpt>
      <trkpt lat="46.02282" lon="4.75903">
        <ele>193</ele>
        <time>2018-03-04T11:18:17Z</time>
      </trkpt>
      <trkpt lat="46.02278" lon="4.75907">
        <ele>193</ele>
        <time>2018-03-04T11:18:18Z</time>
      </trkpt>
      <trkpt lat="46.02274" lon="4.75912">
        <ele>193</ele>
        <time>2018-03-04T11:18:19Z</time>
      </trkpt>
      <trkpt lat="46.02267" lon="4.75918">
        <ele>193</ele>
        <time>2018-03-04T11:18:21Z</time>
      </trkpt>
      <trkpt lat="46.02262" lon="4.75922">
        <ele>193</ele>
        <time>2018-03-04T11:18:22Z</time>
      </trkpt>
      <trkpt lat="46.02258" lon="4.75928">
        <ele>193</ele>
        <time>2018-03-04T11:18:23Z</time>
      </trkpt>
      <trkpt lat="46.02255" lon="4.75931">
        <ele>193</ele>
        <time>2018-03-04T11:18:24Z</time>
      </trkpt>
      <trkpt lat="46.02249" lon="4.75938">
        <ele>193</ele>
        <time>2018-03-04T11:18:26Z</time>
      </trkpt>
      <trkpt lat="46.02245" lon="4.75942">
        <ele>193</ele>
        <time>2018-03-04T11:18:27Z</time>
      </trkpt>
      <trkpt lat="46.0224" lon="4.75945">
        <ele>193</ele>
        <time>2018-03-04T11:18:28Z</time>
      </trkpt>
      <trkpt lat="46.02235" lon="4.75948">
        <ele>193</ele>
        <time>2018-03-04T11:18:29Z</time>
      </trkpt>
      <trkpt lat="46.0223" lon="4.75951">
        <ele>193</ele>
        <time>2018-03-04T11:18:30Z</time>
      </trkpt>
      <trkpt lat="46.02225" lon="4.75954">
        <ele>193</ele>
        <time>2018-03-04T11:18:31Z</time>
      </trkpt>
      <trkpt lat="46.0222" lon="4.75958">
        <ele>192</ele>
        <time>2018-03-04T11:18:32Z</time>
      </trkpt>
      <trkpt lat="46.02217" lon="4.75963">
        <ele>192</ele>
        <time>2018-03-04T11:18:33Z</time>
      </trkpt>
      <trkpt lat="46.02212" lon="4.75965">
        <ele>192</ele>
        <time>2018-03-04T11:18:34Z</time>
      </trkpt>
      <trkpt lat="46.02207" lon="4.75969">
        <ele>192</ele>
        <time>2018-03-04T11:18:35Z</time>
      </trkpt>
      <trkpt lat="46.02202" lon="4.75972">
        <ele>192</ele>
        <time>2018-03-04T11:18:36Z</time>
      </trkpt>
      <trkpt lat="46.02197" lon="4.75976">
        <ele>192</ele>
        <time>2018-03-04T11:18:37Z</time>
      </trkpt>
      <trkpt lat="46.02193" lon="4.7598">
        <ele>192</ele>
        <time>2018-03-04T11:18:38Z</time>
      </trkpt>
      <trkpt lat="46.02188" lon="4.75985">
        <ele>192</ele>
        <time>2018-03-04T11:18:39Z</time>
      </trkpt>
      <trkpt lat="46.02185" lon="4.75989">
        <ele>192</ele>
        <time>2018-03-04T11:18:40Z</time>
      </trkpt>
      <trkpt lat="46.0218" lon="4.75993">
        <ele>192</ele>
        <time>2018-03-04T11:18:41Z</time>
      </trkpt>
      <trkpt lat="46.02176" lon="4.75996">
        <ele>192</ele>
        <time>2018-03-04T11:18:42Z</time>
      </trkpt>
      <trkpt lat="46.02173" lon="4.76">
        <ele>192</ele>
        <time>2018-03-04T11:18:43Z</time>
      </trkpt>
      <trkpt lat="46.02168" lon="4.76005">
        <ele>192</ele>
        <time>2018-03-04T11:18:44Z</time>
      </trkpt>
      <trkpt lat="46.02163" lon="4.76009">
        <ele>192</ele>
        <time>2018-03-04T11:18:45Z</time>
      </trkpt>
      <trkpt lat="46.02159" lon="4.76013">
        <ele>193</ele>
        <time>2018-03-04T11:18:46Z</time>
      </trkpt>
      <trkpt lat="46.02155" lon="4.76017">
        <ele>193</ele>
        <time>2018-03-04T11:18:47Z</time>
      </trkpt>
      <trkpt lat="46.02151" lon="4.76021">
        <ele>193</ele>
        <time>2018-03-04T11:18:48Z</time>
      </trkpt>
      <trkpt lat="46.02147" lon="4.76025">
        <ele>193</ele>
        <time>2018-03-04T11:18:49Z</time>
      </trkpt>
      <trkpt lat="46.0214" lon="4.76031">
        <ele>193</ele>
        <time>2018-03-04T11:18:51Z</time>
      </trkpt>
      <trkpt lat="46.02137" lon="4.76035">
        <ele>193</ele>
        <time>2018-03-04T11:18:52Z</time>
      </trkpt>
      <trkpt lat="46.02131" lon="4.76042">
        <ele>193</ele>
        <time>2018-03-04T11:18:54Z</time>
      </trkpt>
      <trkpt lat="46.02127" lon="4.76046">
        <ele>194</ele>
        <time>2018-03-04T11:18:55Z</time>
      </trkpt>
      <trkpt lat="46.0212" lon="4.76053">
        <ele>194</ele>
        <time>2018-03-04T11:18:57Z</time>
      </trkpt>
      <trkpt lat="46.02116" lon="4.76057">
        <ele>194</ele>
        <time>2018-03-04T11:18:58Z</time>
      </trkpt>
      <trkpt lat="46.02109" lon="4.76064">
        <ele>194</ele>
        <time>2018-03-04T11:19:00Z</time>
      </trkpt>
      <trkpt lat="46.02105" lon="4.76067">
        <ele>194</ele>
        <time>2018-03-04T11:19:01Z</time>
      </trkpt>
      <trkpt lat="46.02098" lon="4.76072">
        <ele>195</ele>
        <time>2018-03-04T11:19:03Z</time>
      </trkpt>
      <trkpt lat="46.02095" lon="4.76074">
        <ele>195</ele>
        <time>2018-03-04T11:19:04Z</time>
      </trkpt>
      <trkpt lat="46.02088" lon="4.76079">
        <ele>195</ele>
        <time>2018-03-04T11:19:06Z</time>
      </trkpt>
      <trkpt lat="46.02085" lon="4.76081">
        <ele>196</ele>
        <time>2018-03-04T11:19:07Z</time>
      </trkpt>
      <trkpt lat="46.02078" lon="4.76084">
        <ele>196</ele>
        <time>2018-03-04T11:19:09Z</time>
      </trkpt>
      <trkpt lat="46.02074" lon="4.76085">
        <ele>196</ele>
        <time>2018-03-04T11:19:10Z</time>
      </trkpt>
      <trkpt lat="46.02065" lon="4.76088">
        <ele>197</ele>
        <time>2018-03-04T11:19:12Z</time>
      </trkpt>
      <trkpt lat="46.02061" lon="4.76089">
        <ele>197</ele>
        <time>2018-03-04T11:19:13Z</time>
      </trkpt>
      <trkpt lat="46.02052" lon="4.7609">
        <ele>197</ele>
        <time>2018-03-04T11:19:15Z</time>
      </trkpt>
      <trkpt lat="46.02048" lon="4.76091">
        <ele>197</ele>
        <time>2018-03-04T11:19:16Z</time>
      </trkpt>
      <trkpt lat="46.02043" lon="4.76092">
        <ele>197</ele>
        <time>2018-03-04T11:19:17Z</time>
      </trkpt>
      <trkpt lat="46.02038" lon="4.76094">
        <ele>197</ele>
        <time>2018-03-04T11:19:18Z</time>
      </trkpt>
      <trkpt lat="46.02031" lon="4.76095">
        <ele>197</ele>
        <time>2018-03-04T11:19:21Z</time>
      </trkpt>
      <trkpt lat="46.02023" lon="4.76096">
        <ele>197</ele>
        <time>2018-03-04T11:19:22Z</time>
      </trkpt>
      <trkpt lat="46.02015" lon="4.76097">
        <ele>197</ele>
        <time>2018-03-04T11:19:24Z</time>
      </trkpt>
      <trkpt lat="46.02012" lon="4.76097">
        <ele>197</ele>
        <time>2018-03-04T11:19:25Z</time>
      </trkpt>
      <trkpt lat="46.02004" lon="4.76097">
        <ele>197</ele>
        <time>2018-03-04T11:19:27Z</time>
      </trkpt>
      <trkpt lat="46.02002" lon="4.76098">
        <ele>197</ele>
        <time>2018-03-04T11:19:28Z</time>
      </trkpt>
      <trkpt lat="46.01994" lon="4.76101">
        <ele>198</ele>
        <time>2018-03-04T11:19:30Z</time>
      </trkpt>
      <trkpt lat="46.01989" lon="4.76103">
        <ele>198</ele>
        <time>2018-03-04T11:19:31Z</time>
      </trkpt>
      <trkpt lat="46.01981" lon="4.76106">
        <ele>198</ele>
        <time>2018-03-04T11:19:33Z</time>
      </trkpt>
      <trkpt lat="46.01979" lon="4.76106">
        <ele>198</ele>
        <time>2018-03-04T11:19:34Z</time>
      </trkpt>
      <trkpt lat="46.01973" lon="4.76107">
        <ele>198</ele>
        <time>2018-03-04T11:19:35Z</time>
      </trkpt>
      <trkpt lat="46.0197" lon="4.76108">
        <ele>198</ele>
        <time>2018-03-04T11:19:36Z</time>
      </trkpt>
      <trkpt lat="46.01961" lon="4.7611">
        <ele>198</ele>
        <time>2018-03-04T11:19:38Z</time>
      </trkpt>
      <trkpt lat="46.01957" lon="4.76111">
        <ele>198</ele>
        <time>2018-03-04T11:19:39Z</time>
      </trkpt>
      <trkpt lat="46.01949" lon="4.76112">
        <ele>198</ele>
        <time>2018-03-04T11:19:41Z</time>
      </trkpt>
      <trkpt lat="46.01945" lon="4.76113">
        <ele>198</ele>
        <time>2018-03-04T11:19:42Z</time>
      </trkpt>
      <trkpt lat="46.01938" lon="4.76115">
        <ele>198</ele>
        <time>2018-03-04T11:19:44Z</time>
      </trkpt>
      <trkpt lat="46.01934" lon="4.76116">
        <ele>198</ele>
        <time>2018-03-04T11:19:45Z</time>
      </trkpt>
      <trkpt lat="46.01926" lon="4.76118">
        <ele>198</ele>
        <time>2018-03-04T11:19:47Z</time>
      </trkpt>
      <trkpt lat="46.01922" lon="4.76119">
        <ele>198</ele>
        <time>2018-03-04T11:19:48Z</time>
      </trkpt>
      <trkpt lat="46.01917" lon="4.76123">
        <ele>199</ele>
        <time>2018-03-04T11:19:49Z</time>
      </trkpt>
      <trkpt lat="46.01912" lon="4.76124">
        <ele>199</ele>
        <time>2018-03-04T11:19:50Z</time>
      </trkpt>
      <trkpt lat="46.01903" lon="4.76126">
        <ele>199</ele>
        <time>2018-03-04T11:19:52Z</time>
      </trkpt>
      <trkpt lat="46.01899" lon="4.76127">
        <ele>199</ele>
        <time>2018-03-04T11:19:53Z</time>
      </trkpt>
      <trkpt lat="46.0189" lon="4.76129">
        <ele>199</ele>
        <time>2018-03-04T11:19:55Z</time>
      </trkpt>
      <trkpt lat="46.01886" lon="4.7613">
        <ele>199</ele>
        <time>2018-03-04T11:19:56Z</time>
      </trkpt>
      <trkpt lat="46.01879" lon="4.7613">
        <ele>199</ele>
        <time>2018-03-04T11:19:59Z</time>
      </trkpt>
      <trkpt lat="46.01876" lon="4.7613">
        <ele>199</ele>
        <time>2018-03-04T11:20:00Z</time>
      </trkpt>
      <trkpt lat="46.01871" lon="4.7613">
        <ele>199</ele>
        <time>2018-03-04T11:20:02Z</time>
      </trkpt>
      <trkpt lat="46.01861" lon="4.7613">
        <ele>199</ele>
        <time>2018-03-04T11:20:03Z</time>
      </trkpt>
      <trkpt lat="46.01853" lon="4.7613">
        <ele>199</ele>
        <time>2018-03-04T11:20:05Z</time>
      </trkpt>
      <trkpt lat="46.01849" lon="4.7613">
        <ele>199</ele>
        <time>2018-03-04T11:20:06Z</time>
      </trkpt>
      <trkpt lat="46.01842" lon="4.7613">
        <ele>199</ele>
        <time>2018-03-04T11:20:08Z</time>
      </trkpt>
      <trkpt lat="46.01837" lon="4.7613">
        <ele>199</ele>
        <time>2018-03-04T11:20:09Z</time>
      </trkpt>
      <trkpt lat="46.01832" lon="4.76129">
        <ele>198</ele>
        <time>2018-03-04T11:20:10Z</time>
      </trkpt>
      <trkpt lat="46.01827" lon="4.7613">
        <ele>198</ele>
        <time>2018-03-04T11:20:11Z</time>
      </trkpt>
      <trkpt lat="46.01822" lon="4.7613">
        <ele>198</ele>
        <time>2018-03-04T11:20:12Z</time>
      </trkpt>
      <trkpt lat="46.01818" lon="4.7613">
        <ele>198</ele>
        <time>2018-03-04T11:20:13Z</time>
      </trkpt>
      <trkpt lat="46.01813" lon="4.7613">
        <ele>198</ele>
        <time>2018-03-04T11:20:14Z</time>
      </trkpt>
      <trkpt lat="46.01809" lon="4.7613">
        <ele>198</ele>
        <time>2018-03-04T11:20:15Z</time>
      </trkpt>
      <trkpt lat="46.018" lon="4.7613">
        <ele>198</ele>
        <time>2018-03-04T11:20:17Z</time>
      </trkpt>
      <trkpt lat="46.01796" lon="4.7613">
        <ele>198</ele>
        <time>2018-03-04T11:20:18Z</time>
      </trkpt>
      <trkpt lat="46.01789" lon="4.76128">
        <ele>198</ele>
        <time>2018-03-04T11:20:20Z</time>
      </trkpt>
      <trkpt lat="46.01785" lon="4.76128">
        <ele>198</ele>
        <time>2018-03-04T11:20:21Z</time>
      </trkpt>
      <trkpt lat="46.01777" lon="4.76128">
        <ele>198</ele>
        <time>2018-03-04T11:20:23Z</time>
      </trkpt>
      <trkpt lat="46.01773" lon="4.76127">
        <ele>198</ele>
        <time>2018-03-04T11:20:24Z</time>
      </trkpt>
      <trkpt lat="46.01766" lon="4.76127">
        <ele>198</ele>
        <time>2018-03-04T11:20:26Z</time>
      </trkpt>
      <trkpt lat="46.01761" lon="4.76127">
        <ele>198</ele>
        <time>2018-03-04T11:20:27Z</time>
      </trkpt>
      <trkpt lat="46.01753" lon="4.76127">
        <ele>198</ele>
        <time>2018-03-04T11:20:29Z</time>
      </trkpt>
      <trkpt lat="46.01751" lon="4.76126">
        <ele>198</ele>
        <time>2018-03-04T11:20:30Z</time>
      </trkpt>
      <trkpt lat="46.01746" lon="4.76126">
        <ele>197</ele>
        <time>2018-03-04T11:20:31Z</time>
      </trkpt>
      <trkpt lat="46.01742" lon="4.76126">
        <ele>197</ele>
        <time>2018-03-04T11:20:32Z</time>
      </trkpt>
      <trkpt lat="46.01734" lon="4.76125">
        <ele>197</ele>
        <time>2018-03-04T11:20:34Z</time>
      </trkpt>
      <trkpt lat="46.01732" lon="4.76125">
        <ele>197</ele>
        <time>2018-03-04T11:20:35Z</time>
      </trkpt>
      <trkpt lat="46.01723" lon="4.76124">
        <ele>197</ele>
        <time>2018-03-04T11:20:37Z</time>
      </trkpt>
      <trkpt lat="46.01719" lon="4.76124">
        <ele>197</ele>
        <time>2018-03-04T11:20:38Z</time>
      </trkpt>
      <trkpt lat="46.01715" lon="4.76124">
        <ele>197</ele>
        <time>2018-03-04T11:20:40Z</time>
      </trkpt>
      <trkpt lat="46.01709" lon="4.76124">
        <ele>198</ele>
        <time>2018-03-04T11:20:41Z</time>
      </trkpt>
      <trkpt lat="46.01701" lon="4.76123">
        <ele>198</ele>
        <time>2018-03-04T11:20:43Z</time>
      </trkpt>
      <trkpt lat="46.01699" lon="4.76123">
        <ele>198</ele>
        <time>2018-03-04T11:20:44Z</time>
      </trkpt>
      <trkpt lat="46.01691" lon="4.76122">
        <ele>198</ele>
        <time>2018-03-04T11:20:46Z</time>
      </trkpt>
      <trkpt lat="46.01689" lon="4.76121">
        <ele>198</ele>
        <time>2018-03-04T11:20:47Z</time>
      </trkpt>
      <trkpt lat="46.0168" lon="4.7612">
        <ele>198</ele>
        <time>2018-03-04T11:20:49Z</time>
      </trkpt>
      <trkpt lat="46.01676" lon="4.76119">
        <ele>198</ele>
        <time>2018-03-04T11:20:50Z</time>
      </trkpt>
      <trkpt lat="46.01669" lon="4.76118">
        <ele>198</ele>
        <time>2018-03-04T11:20:53Z</time>
      </trkpt>
      <trkpt lat="46.01662" lon="4.76117">
        <ele>199</ele>
        <time>2018-03-04T11:20:54Z</time>
      </trkpt>
      <trkpt lat="46.01653" lon="4.76116">
        <ele>199</ele>
        <time>2018-03-04T11:20:57Z</time>
      </trkpt>
      <trkpt lat="46.0165" lon="4.76116">
        <ele>199</ele>
        <time>2018-03-04T11:20:58Z</time>
      </trkpt>
      <trkpt lat="46.01648" lon="4.76116">
        <ele>199</ele>
        <time>2018-03-04T11:20:59Z</time>
      </trkpt>
      <trkpt lat="46.0164" lon="4.76115">
        <ele>199</ele>
        <time>2018-03-04T11:21:00Z</time>
      </trkpt>
      <trkpt lat="46.01633" lon="4.76115">
        <ele>199</ele>
        <time>2018-03-04T11:21:03Z</time>
      </trkpt>
      <trkpt lat="46.01631" lon="4.76114">
        <ele>199</ele>
        <time>2018-03-04T11:21:04Z</time>
      </trkpt>
      <trkpt lat="46.01622" lon="4.76113">
        <ele>200</ele>
        <time>2018-03-04T11:21:05Z</time>
      </trkpt>
      <trkpt lat="46.0162" lon="4.76113">
        <ele>200</ele>
        <time>2018-03-04T11:21:06Z</time>
      </trkpt>
      <trkpt lat="46.01613" lon="4.76112">
        <ele>200</ele>
        <time>2018-03-04T11:21:08Z</time>
      </trkpt>
      <trkpt lat="46.01611" lon="4.76111">
        <ele>200</ele>
        <time>2018-03-04T11:21:09Z</time>
      </trkpt>
      <trkpt lat="46.01602" lon="4.7611">
        <ele>200</ele>
        <time>2018-03-04T11:21:11Z</time>
      </trkpt>
      <trkpt lat="46.016" lon="4.76109">
        <ele>200</ele>
        <time>2018-03-04T11:21:12Z</time>
      </trkpt>
      <trkpt lat="46.01591" lon="4.76108">
        <ele>200</ele>
        <time>2018-03-04T11:21:14Z</time>
      </trkpt>
      <trkpt lat="46.01586" lon="4.76107">
        <ele>200</ele>
        <time>2018-03-04T11:21:15Z</time>
      </trkpt>
      <trkpt lat="46.01579" lon="4.76106">
        <ele>202</ele>
        <time>2018-03-04T11:21:18Z</time>
      </trkpt>
      <trkpt lat="46.01577" lon="4.76105">
        <ele>202</ele>
        <time>2018-03-04T11:21:19Z</time>
      </trkpt>
      <trkpt lat="46.01574" lon="4.76105">
        <ele>202</ele>
        <time>2018-03-04T11:21:20Z</time>
      </trkpt>
      <trkpt lat="46.01566" lon="4.76103">
        <ele>202</ele>
        <time>2018-03-04T11:21:21Z</time>
      </trkpt>
      <trkpt lat="46.01559" lon="4.76101">
        <ele>202</ele>
        <time>2018-03-04T11:21:23Z</time>
      </trkpt>
      <trkpt lat="46.01555" lon="4.76099">
        <ele>202</ele>
        <time>2018-03-04T11:21:24Z</time>
      </trkpt>
      <trkpt lat="46.01548" lon="4.76095">
        <ele>202</ele>
        <time>2018-03-04T11:21:26Z</time>
      </trkpt>
      <trkpt lat="46.01545" lon="4.76093">
        <ele>202</ele>
        <time>2018-03-04T11:21:27Z</time>
      </trkpt>
      <trkpt lat="46.01538" lon="4.76089">
        <ele>202</ele>
        <time>2018-03-04T11:21:29Z</time>
      </trkpt>
      <trkpt lat="46.01534" lon="4.76088">
        <ele>202</ele>
        <time>2018-03-04T11:21:30Z</time>
      </trkpt>
      <trkpt lat="46.01526" lon="4.76086">
        <ele>202</ele>
        <time>2018-03-04T11:21:32Z</time>
      </trkpt>
      <trkpt lat="46.01522" lon="4.76085">
        <ele>203</ele>
        <time>2018-03-04T11:21:33Z</time>
      </trkpt>
      <trkpt lat="46.01514" lon="4.76084">
        <ele>203</ele>
        <time>2018-03-04T11:21:35Z</time>
      </trkpt>
      <trkpt lat="46.0151" lon="4.76084">
        <ele>203</ele>
        <time>2018-03-04T11:21:36Z</time>
      </trkpt>
      <trkpt lat="46.01502" lon="4.76083">
        <ele>203</ele>
        <time>2018-03-04T11:21:38Z</time>
      </trkpt>
      <trkpt lat="46.01498" lon="4.76082">
        <ele>203</ele>
        <time>2018-03-04T11:21:39Z</time>
      </trkpt>
      <trkpt lat="46.01491" lon="4.7608">
        <ele>203</ele>
        <time>2018-03-04T11:21:41Z</time>
      </trkpt>
      <trkpt lat="46.01487" lon="4.76078">
        <ele>203</ele>
        <time>2018-03-04T11:21:42Z</time>
      </trkpt>
      <trkpt lat="46.0148" lon="4.76076">
        <ele>203</ele>
        <time>2018-03-04T11:21:44Z</time>
      </trkpt>
      <trkpt lat="46.01477" lon="4.76074">
        <ele>203</ele>
        <time>2018-03-04T11:21:45Z</time>
      </trkpt>
      <trkpt lat="46.01469" lon="4.76071">
        <ele>203</ele>
        <time>2018-03-04T11:21:47Z</time>
      </trkpt>
      <trkpt lat="46.01466" lon="4.7607">
        <ele>203</ele>
        <time>2018-03-04T11:21:48Z</time>
      </trkpt>
      <trkpt lat="46.01459" lon="4.76068">
        <ele>203</ele>
        <time>2018-03-04T11:21:50Z</time>
      </trkpt>
      <trkpt lat="46.01457" lon="4.76068">
        <ele>203</ele>
        <time>2018-03-04T11:21:51Z</time>
      </trkpt>
      <trkpt lat="46.01451" lon="4.76066">
        <ele>203</ele>
        <time>2018-03-04T11:21:52Z</time>
      </trkpt>
      <trkpt lat="46.01447" lon="4.76065">
        <ele>203</ele>
        <time>2018-03-04T11:21:53Z</time>
      </trkpt>
      <trkpt lat="46.01439" lon="4.76061">
        <ele>203</ele>
        <time>2018-03-04T11:21:55Z</time>
      </trkpt>
      <trkpt lat="46.01436" lon="4.76059">
        <ele>203</ele>
        <time>2018-03-04T11:21:56Z</time>
      </trkpt>
      <trkpt lat="46.01429" lon="4.76054">
        <ele>203</ele>
        <time>2018-03-04T11:21:58Z</time>
      </trkpt>
      <trkpt lat="46.01425" lon="4.76051">
        <ele>204</ele>
        <time>2018-03-04T11:21:59Z</time>
      </trkpt>
      <trkpt lat="46.01418" lon="4.76047">
        <ele>204</ele>
        <time>2018-03-04T11:22:01Z</time>
      </trkpt>
      <trkpt lat="46.01414" lon="4.76044">
        <ele>203</ele>
        <time>2018-03-04T11:22:02Z</time>
      </trkpt>
      <trkpt lat="46.01407" lon="4.7604">
        <ele>204</ele>
        <time>2018-03-04T11:22:04Z</time>
      </trkpt>
      <trkpt lat="46.01405" lon="4.76039">
        <ele>204</ele>
        <time>2018-03-04T11:22:05Z</time>
      </trkpt>
      <trkpt lat="46.01403" lon="4.76038">
        <ele>204</ele>
        <time>2018-03-04T11:22:06Z</time>
      </trkpt>
      <trkpt lat="46.01396" lon="4.76035">
        <ele>204</ele>
        <time>2018-03-04T11:22:07Z</time>
      </trkpt>
      <trkpt lat="46.01388" lon="4.76036">
        <ele>203</ele>
        <time>2018-03-04T11:22:09Z</time>
      </trkpt>
      <trkpt lat="46.01383" lon="4.76037">
        <ele>203</ele>
        <time>2018-03-04T11:22:10Z</time>
      </trkpt>
      <trkpt lat="46.01376" lon="4.76038">
        <ele>203</ele>
        <time>2018-03-04T11:22:12Z</time>
      </trkpt>
      <trkpt lat="46.01372" lon="4.76038">
        <ele>203</ele>
        <time>2018-03-04T11:22:13Z</time>
      </trkpt>
      <trkpt lat="46.01364" lon="4.76041">
        <ele>203</ele>
        <time>2018-03-04T11:22:16Z</time>
      </trkpt>
      <trkpt lat="46.0136" lon="4.76043">
        <ele>203</ele>
        <time>2018-03-04T11:22:17Z</time>
      </trkpt>
      <trkpt lat="46.01353" lon="4.76046">
        <ele>203</ele>
        <time>2018-03-04T11:22:19Z</time>
      </trkpt>
      <trkpt lat="46.01349" lon="4.76047">
        <ele>203</ele>
        <time>2018-03-04T11:22:20Z</time>
      </trkpt>
      <trkpt lat="46.01341" lon="4.76049">
        <ele>203</ele>
        <time>2018-03-04T11:22:22Z</time>
      </trkpt>
      <trkpt lat="46.01337" lon="4.7605">
        <ele>203</ele>
        <time>2018-03-04T11:22:23Z</time>
      </trkpt>
      <trkpt lat="46.01329" lon="4.76052">
        <ele>203</ele>
        <time>2018-03-04T11:22:25Z</time>
      </trkpt>
      <trkpt lat="46.01325" lon="4.76053">
        <ele>203</ele>
        <time>2018-03-04T11:22:26Z</time>
      </trkpt>
      <trkpt lat="46.01319" lon="4.76055">
        <ele>203</ele>
        <time>2018-03-04T11:22:28Z</time>
      </trkpt>
      <trkpt lat="46.01313" lon="4.76057">
        <ele>203</ele>
        <time>2018-03-04T11:22:29Z</time>
      </trkpt>
      <trkpt lat="46.01305" lon="4.76059">
        <ele>203</ele>
        <time>2018-03-04T11:22:31Z</time>
      </trkpt>
      <trkpt lat="46.01301" lon="4.7606">
        <ele>203</ele>
        <time>2018-03-04T11:22:32Z</time>
      </trkpt>
      <trkpt lat="46.01293" lon="4.76062">
        <ele>204</ele>
        <time>2018-03-04T11:22:34Z</time>
      </trkpt>
      <trkpt lat="46.01289" lon="4.76063">
        <ele>204</ele>
        <time>2018-03-04T11:22:35Z</time>
      </trkpt>
      <trkpt lat="46.01281" lon="4.76065">
        <ele>204</ele>
        <time>2018-03-04T11:22:37Z</time>
      </trkpt>
      <trkpt lat="46.01277" lon="4.76066">
        <ele>204</ele>
        <time>2018-03-04T11:22:38Z</time>
      </trkpt>
      <trkpt lat="46.01269" lon="4.76068">
        <ele>204</ele>
        <time>2018-03-04T11:22:40Z</time>
      </trkpt>
      <trkpt lat="46.01265" lon="4.76069">
        <ele>204</ele>
        <time>2018-03-04T11:22:41Z</time>
      </trkpt>
      <trkpt lat="46.01258" lon="4.7607">
        <ele>204</ele>
        <time>2018-03-04T11:22:43Z</time>
      </trkpt>
      <trkpt lat="46.01253" lon="4.76071">
        <ele>204</ele>
        <time>2018-03-04T11:22:44Z</time>
      </trkpt>
      <trkpt lat="46.01245" lon="4.7607">
        <ele>205</ele>
        <time>2018-03-04T11:22:46Z</time>
      </trkpt>
      <trkpt lat="46.01241" lon="4.7607">
        <ele>205</ele>
        <time>2018-03-04T11:22:47Z</time>
      </trkpt>
      <trkpt lat="46.01234" lon="4.76069">
        <ele>205</ele>
        <time>2018-03-04T11:22:50Z</time>
      </trkpt>
      <trkpt lat="46.01232" lon="4.76068">
        <ele>205</ele>
        <time>2018-03-04T11:22:51Z</time>
      </trkpt>
      <trkpt lat="46.01226" lon="4.76066">
        <ele>206</ele>
        <time>2018-03-04T11:22:53Z</time>
      </trkpt>
      <trkpt lat="46.01223" lon="4.76065">
        <ele>206</ele>
        <time>2018-03-04T11:22:54Z</time>
      </trkpt>
      <trkpt lat="46.0122" lon="4.76064">
        <ele>206</ele>
        <time>2018-03-04T11:22:55Z</time>
      </trkpt>
      <trkpt lat="46.0121" lon="4.76061">
        <ele>206</ele>
        <time>2018-03-04T11:22:56Z</time>
      </trkpt>
      <trkpt lat="46.01204" lon="4.76059">
        <ele>206</ele>
        <time>2018-03-04T11:22:58Z</time>
      </trkpt>
      <trkpt lat="46.01199" lon="4.76058">
        <ele>206</ele>
        <time>2018-03-04T11:22:59Z</time>
      </trkpt>
      <trkpt lat="46.01191" lon="4.76054">
        <ele>206</ele>
        <time>2018-03-04T11:23:03Z</time>
      </trkpt>
      <trkpt lat="46.01184" lon="4.76051">
        <ele>207</ele>
        <time>2018-03-04T11:23:04Z</time>
      </trkpt>
      <trkpt lat="46.01176" lon="4.76048">
        <ele>207</ele>
        <time>2018-03-04T11:23:09Z</time>
      </trkpt>
      <trkpt lat="46.01175" lon="4.76048">
        <ele>207</ele>
        <time>2018-03-04T11:23:10Z</time>
      </trkpt>
      <trkpt lat="46.01166" lon="4.76046">
        <ele>208</ele>
        <time>2018-03-04T11:23:15Z</time>
      </trkpt>
      <trkpt lat="46.01164" lon="4.76046">
        <ele>208</ele>
        <time>2018-03-04T11:23:16Z</time>
      </trkpt>
      <trkpt lat="46.01156" lon="4.76047">
        <ele>208</ele>
        <time>2018-03-04T11:23:19Z</time>
      </trkpt>
      <trkpt lat="46.01152" lon="4.76047">
        <ele>208</ele>
        <time>2018-03-04T11:23:20Z</time>
      </trkpt>
      <trkpt lat="46.01141" lon="4.76048">
        <ele>208</ele>
        <time>2018-03-04T11:23:21Z</time>
      </trkpt>
      <trkpt lat="46.01136" lon="4.76048">
        <ele>208</ele>
        <time>2018-03-04T11:23:22Z</time>
      </trkpt>
      <trkpt lat="46.0113" lon="4.76049">
        <ele>208</ele>
        <time>2018-03-04T11:23:23Z</time>
      </trkpt>
      <trkpt lat="46.01122" lon="4.7605">
        <ele>208</ele>
        <time>2018-03-04T11:23:25Z</time>
      </trkpt>
      <trkpt lat="46.0112" lon="4.7605">
        <ele>208</ele>
        <time>2018-03-04T11:23:26Z</time>
      </trkpt>
      <trkpt lat="46.01112" lon="4.76052">
        <ele>208</ele>
        <time>2018-03-04T11:23:29Z</time>
      </trkpt>
      <trkpt lat="46.01108" lon="4.76053">
        <ele>208</ele>
        <time>2018-03-04T11:23:30Z</time>
      </trkpt>
      <trkpt lat="46.01099" lon="4.76055">
        <ele>208</ele>
        <time>2018-03-04T11:23:33Z</time>
      </trkpt>
      <trkpt lat="46.01096" lon="4.76056">
        <ele>208</ele>
        <time>2018-03-04T11:23:34Z</time>
      </trkpt>
      <trkpt lat="46.01087" lon="4.76057">
        <ele>208</ele>
        <time>2018-03-04T11:23:37Z</time>
      </trkpt>
      <trkpt lat="46.01085" lon="4.76058">
        <ele>208</ele>
        <time>2018-03-04T11:23:38Z</time>
      </trkpt>
      <trkpt lat="46.01077" lon="4.76058">
        <ele>209</ele>
        <time>2018-03-04T11:23:41Z</time>
      </trkpt>
      <trkpt lat="46.01073" lon="4.76059">
        <ele>209</ele>
        <time>2018-03-04T11:23:42Z</time>
      </trkpt>
      <trkpt lat="46.01066" lon="4.76059">
        <ele>209</ele>
        <time>2018-03-04T11:23:44Z</time>
      </trkpt>
      <trkpt lat="46.01063" lon="4.7606">
        <ele>209</ele>
        <time>2018-03-04T11:23:45Z</time>
      </trkpt>
      <trkpt lat="46.01056" lon="4.76061">
        <ele>209</ele>
        <time>2018-03-04T11:23:47Z</time>
      </trkpt>
      <trkpt lat="46.01052" lon="4.76061">
        <ele>210</ele>
        <time>2018-03-04T11:23:48Z</time>
      </trkpt>
      <trkpt lat="46.01046" lon="4.76063">
        <ele>210</ele>
        <time>2018-03-04T11:23:50Z</time>
      </trkpt>
      <trkpt lat="46.01043" lon="4.76063">
        <ele>210</ele>
        <time>2018-03-04T11:23:51Z</time>
      </trkpt>
      <trkpt lat="46.01035" lon="4.76065">
        <ele>210</ele>
        <time>2018-03-04T11:23:54Z</time>
      </trkpt>
      <trkpt lat="46.01032" lon="4.76066">
        <ele>210</ele>
        <time>2018-03-04T11:23:55Z</time>
      </trkpt>
      <trkpt lat="46.01025" lon="4.76067">
        <ele>210</ele>
        <time>2018-03-04T11:23:57Z</time>
      </trkpt>
      <trkpt lat="46.01022" lon="4.76068">
        <ele>210</ele>
        <time>2018-03-04T11:23:58Z</time>
      </trkpt>
      <trkpt lat="46.01015" lon="4.76069">
        <ele>211</ele>
        <time>2018-03-04T11:24:00Z</time>
      </trkpt>
      <trkpt lat="46.01011" lon="4.76069">
        <ele>211</ele>
        <time>2018-03-04T11:24:01Z</time>
      </trkpt>
      <trkpt lat="46.01004" lon="4.76069">
        <ele>211</ele>
        <time>2018-03-04T11:24:03Z</time>
      </trkpt>
      <trkpt lat="46.01" lon="4.76069">
        <ele>212</ele>
        <time>2018-03-04T11:24:04Z</time>
      </trkpt>
      <trkpt lat="46.00991" lon="4.76069">
        <ele>212</ele>
        <time>2018-03-04T11:24:06Z</time>
      </trkpt>
      <trkpt lat="46.00987" lon="4.7607">
        <ele>212</ele>
        <time>2018-03-04T11:24:07Z</time>
      </trkpt>
      <trkpt lat="46.0098" lon="4.76071">
        <ele>212</ele>
        <time>2018-03-04T11:24:09Z</time>
      </trkpt>
      <trkpt lat="46.00976" lon="4.76072">
        <ele>212</ele>
        <time>2018-03-04T11:24:10Z</time>
      </trkpt>
      <trkpt lat="46.00969" lon="4.76073">
        <ele>212</ele>
        <time>2018-03-04T11:24:12Z</time>
      </trkpt>
      <trkpt lat="46.00966" lon="4.76074">
        <ele>212</ele>
        <time>2018-03-04T11:24:13Z</time>
      </trkpt>
      <trkpt lat="46.00959" lon="4.76075">
        <ele>212</ele>
        <time>2018-03-04T11:24:15Z</time>
      </trkpt>
      <trkpt lat="46.00956" lon="4.76076">
        <ele>212</ele>
        <time>2018-03-04T11:24:16Z</time>
      </trkpt>
      <trkpt lat="46.00949" lon="4.76078">
        <ele>212</ele>
        <time>2018-03-04T11:24:18Z</time>
      </trkpt>
      <trkpt lat="46.00946" lon="4.76078">
        <ele>212</ele>
        <time>2018-03-04T11:24:19Z</time>
      </trkpt>
      <trkpt lat="46.00943" lon="4.76079">
        <ele>212</ele>
        <time>2018-03-04T11:24:20Z</time>
      </trkpt>
      <trkpt lat="46.00934" lon="4.76081">
        <ele>212</ele>
        <time>2018-03-04T11:24:21Z</time>
      </trkpt>
      <trkpt lat="46.00926" lon="4.76083">
        <ele>213</ele>
        <time>2018-03-04T11:24:25Z</time>
      </trkpt>
      <trkpt lat="46.00924" lon="4.76083">
        <ele>213</ele>
        <time>2018-03-04T11:24:26Z</time>
      </trkpt>
      <trkpt lat="46.00916" lon="4.76084">
        <ele>213</ele>
        <time>2018-03-04T11:24:29Z</time>
      </trkpt>
      <trkpt lat="46.00914" lon="4.76085">
        <ele>213</ele>
        <time>2018-03-04T11:24:30Z</time>
      </trkpt>
      <trkpt lat="46.00905" lon="4.76087">
        <ele>214</ele>
        <time>2018-03-04T11:24:33Z</time>
      </trkpt>
      <trkpt lat="46.00903" lon="4.76088">
        <ele>214</ele>
        <time>2018-03-04T11:24:34Z</time>
      </trkpt>
      <trkpt lat="46.00894" lon="4.7609">
        <ele>214</ele>
        <time>2018-03-04T11:24:37Z</time>
      </trkpt>
      <trkpt lat="46.00891" lon="4.7609">
        <ele>215</ele>
        <time>2018-03-04T11:24:38Z</time>
      </trkpt>
      <trkpt lat="46.00883" lon="4.76092">
        <ele>215</ele>
        <time>2018-03-04T11:24:41Z</time>
      </trkpt>
      <trkpt lat="46.0088" lon="4.76093">
        <ele>215</ele>
        <time>2018-03-04T11:24:42Z</time>
      </trkpt>
      <trkpt lat="46.00872" lon="4.76094">
        <ele>215</ele>
        <time>2018-03-04T11:24:45Z</time>
      </trkpt>
      <trkpt lat="46.00869" lon="4.76095">
        <ele>215</ele>
        <time>2018-03-04T11:24:46Z</time>
      </trkpt>
      <trkpt lat="46.00861" lon="4.76096">
        <ele>215</ele>
        <time>2018-03-04T11:24:49Z</time>
      </trkpt>
      <trkpt lat="46.00859" lon="4.76096">
        <ele>215</ele>
        <time>2018-03-04T11:24:50Z</time>
      </trkpt>
      <trkpt lat="46.00851" lon="4.76097">
        <ele>216</ele>
        <time>2018-03-04T11:24:53Z</time>
      </trkpt>
      <trkpt lat="46.00848" lon="4.76098">
        <ele>216</ele>
        <time>2018-03-04T11:24:54Z</time>
      </trkpt>
      <trkpt lat="46.0084" lon="4.76099">
        <ele>216</ele>
        <time>2018-03-04T11:24:57Z</time>
      </trkpt>
      <trkpt lat="46.00838" lon="4.761">
        <ele>216</ele>
        <time>2018-03-04T11:24:58Z</time>
      </trkpt>
      <trkpt lat="46.0083" lon="4.76102">
        <ele>217</ele>
        <time>2018-03-04T11:25:01Z</time>
      </trkpt>
      <trkpt lat="46.00828" lon="4.76103">
        <ele>217</ele>
        <time>2018-03-04T11:25:02Z</time>
      </trkpt>
      <trkpt lat="46.00821" lon="4.76103">
        <ele>218</ele>
        <time>2018-03-04T11:25:05Z</time>
      </trkpt>
      <trkpt lat="46.00818" lon="4.76103">
        <ele>218</ele>
        <time>2018-03-04T11:25:06Z</time>
      </trkpt>
      <trkpt lat="46.00811" lon="4.76105">
        <ele>218</ele>
        <time>2018-03-04T11:25:09Z</time>
      </trkpt>
      <trkpt lat="46.00808" lon="4.76105">
        <ele>218</ele>
        <time>2018-03-04T11:25:10Z</time>
      </trkpt>
      <trkpt lat="46.00801" lon="4.76106">
        <ele>218</ele>
        <time>2018-03-04T11:25:13Z</time>
      </trkpt>
      <trkpt lat="46.00799" lon="4.76106">
        <ele>218</ele>
        <time>2018-03-04T11:25:14Z</time>
      </trkpt>
      <trkpt lat="46.00792" lon="4.76105">
        <ele>219</ele>
        <time>2018-03-04T11:25:17Z</time>
      </trkpt>
      <trkpt lat="46.00789" lon="4.76105">
        <ele>219</ele>
        <time>2018-03-04T11:25:18Z</time>
      </trkpt>
      <trkpt lat="46.00782" lon="4.76106">
        <ele>219</ele>
        <time>2018-03-04T11:25:21Z</time>
      </trkpt>
      <trkpt lat="46.0078" lon="4.76106">
        <ele>219</ele>
        <time>2018-03-04T11:25:22Z</time>
      </trkpt>
      <trkpt lat="46.00772" lon="4.76107">
        <ele>219</ele>
        <time>2018-03-04T11:25:25Z</time>
      </trkpt>
      <trkpt lat="46.0077" lon="4.76107">
        <ele>219</ele>
        <time>2018-03-04T11:25:26Z</time>
      </trkpt>
      <trkpt lat="46.00763" lon="4.76108">
        <ele>219</ele>
        <time>2018-03-04T11:25:29Z</time>
      </trkpt>
      <trkpt lat="46.0076" lon="4.76108">
        <ele>219</ele>
        <time>2018-03-04T11:25:30Z</time>
      </trkpt>
      <trkpt lat="46.00751" lon="4.76109">
        <ele>219</ele>
        <time>2018-03-04T11:25:34Z</time>
      </trkpt>
      <trkpt lat="46.00749" lon="4.76109">
        <ele>223</ele>
        <time>2018-03-04T11:25:35Z</time>
      </trkpt>
      <trkpt lat="46.00742" lon="4.7611">
        <ele>223</ele>
        <time>2018-03-04T11:25:40Z</time>
      </trkpt>
      <trkpt lat="46.0074" lon="4.7611">
        <ele>223</ele>
        <time>2018-03-04T11:25:41Z</time>
      </trkpt>
      <trkpt lat="46.00733" lon="4.7611">
        <ele>223</ele>
        <time>2018-03-04T11:25:45Z</time>
      </trkpt>
      <trkpt lat="46.00731" lon="4.7611">
        <ele>223</ele>
        <time>2018-03-04T11:25:46Z</time>
      </trkpt>
      <trkpt lat="46.00724" lon="4.76112">
        <ele>224</ele>
        <time>2018-03-04T11:25:50Z</time>
      </trkpt>
      <trkpt lat="46.00722" lon="4.76112">
        <ele>224</ele>
        <time>2018-03-04T11:25:51Z</time>
      </trkpt>
      <trkpt lat="46.00714" lon="4.76113">
        <ele>224</ele>
        <time>2018-03-04T11:25:55Z</time>
      </trkpt>
      <trkpt lat="46.00712" lon="4.76113">
        <ele>224</ele>
        <time>2018-03-04T11:25:56Z</time>
      </trkpt>
      <trkpt lat="46.00703" lon="4.76113">
        <ele>225</ele>
        <time>2018-03-04T11:26:00Z</time>
      </trkpt>
      <trkpt lat="46.00701" lon="4.76113">
        <ele>225</ele>
        <time>2018-03-04T11:26:01Z</time>
      </trkpt>
      <trkpt lat="46.00693" lon="4.76114">
        <ele>225</ele>
        <time>2018-03-04T11:26:05Z</time>
      </trkpt>
      <trkpt lat="46.00692" lon="4.76115">
        <ele>225</ele>
        <time>2018-03-04T11:26:06Z</time>
      </trkpt>
      <trkpt lat="46.00684" lon="4.76118">
        <ele>225</ele>
        <time>2018-03-04T11:26:12Z</time>
      </trkpt>
      <trkpt lat="46.00683" lon="4.76118">
        <ele>225</ele>
        <time>2018-03-04T11:26:13Z</time>
      </trkpt>
      <trkpt lat="46.00674" lon="4.7612">
        <ele>226</ele>
        <time>2018-03-04T11:26:18Z</time>
      </trkpt>
      <trkpt lat="46.00672" lon="4.76121">
        <ele>226</ele>
        <time>2018-03-04T11:26:19Z</time>
      </trkpt>
      <trkpt lat="46.00665" lon="4.76125">
        <ele>228</ele>
        <time>2018-03-04T11:26:24Z</time>
      </trkpt>
      <trkpt lat="46.00663" lon="4.76126">
        <ele>228</ele>
        <time>2018-03-04T11:26:25Z</time>
      </trkpt>
      <trkpt lat="46.00655" lon="4.76127">
        <ele>228</ele>
        <time>2018-03-04T11:26:30Z</time>
      </trkpt>
      <trkpt lat="46.00654" lon="4.76126">
        <ele>228</ele>
        <time>2018-03-04T11:26:31Z</time>
      </trkpt>
      <trkpt lat="46.00646" lon="4.76123">
        <ele>228</ele>
        <time>2018-03-04T11:26:37Z</time>
      </trkpt>
      <trkpt lat="46.00645" lon="4.76122">
        <ele>228</ele>
        <time>2018-03-04T11:26:38Z</time>
      </trkpt>
      <trkpt lat="46.00638" lon="4.76117">
        <ele>228</ele>
        <time>2018-03-04T11:26:43Z</time>
      </trkpt>
      <trkpt lat="46.00636" lon="4.76116">
        <ele>228</ele>
        <time>2018-03-04T11:26:44Z</time>
      </trkpt>
      <trkpt lat="46.00628" lon="4.76119">
        <ele>228</ele>
        <time>2018-03-04T11:26:49Z</time>
      </trkpt>
      <trkpt lat="46.00628" lon="4.76122">
        <ele>228</ele>
        <time>2018-03-04T11:26:50Z</time>
      </trkpt>
      <trkpt lat="46.00627" lon="4.76133">
        <ele>228</ele>
        <time>2018-03-04T11:26:54Z</time>
      </trkpt>
      <trkpt lat="46.00628" lon="4.76136">
        <ele>228</ele>
        <time>2018-03-04T11:26:55Z</time>
      </trkpt>
      <trkpt lat="46.00628" lon="4.76146">
        <ele>228</ele>
        <time>2018-03-04T11:26:59Z</time>
      </trkpt>
      <trkpt lat="46.00628" lon="4.76149">
        <ele>228</ele>
        <time>2018-03-04T11:27:00Z</time>
      </trkpt>
      <trkpt lat="46.00628" lon="4.7616">
        <ele>228</ele>
        <time>2018-03-04T11:27:04Z</time>
      </trkpt>
      <trkpt lat="46.00628" lon="4.76163">
        <ele>228</ele>
        <time>2018-03-04T11:27:05Z</time>
      </trkpt>
      <trkpt lat="46.00628" lon="4.76174">
        <ele>230</ele>
        <time>2018-03-04T11:27:08Z</time>
      </trkpt>
      <trkpt lat="46.00628" lon="4.76177">
        <ele>230</ele>
        <time>2018-03-04T11:27:09Z</time>
      </trkpt>
      <trkpt lat="46.00627" lon="4.76187">
        <ele>230</ele>
        <time>2018-03-04T11:27:12Z</time>
      </trkpt>
      <trkpt lat="46.00626" lon="4.7619">
        <ele>230</ele>
        <time>2018-03-04T11:27:13Z</time>
      </trkpt>
      <trkpt lat="46.0062" lon="4.76196">
        <ele>230</ele>
        <time>2018-03-04T11:27:16Z</time>
      </trkpt>
      <trkpt lat="46.00618" lon="4.76197">
        <ele>230</ele>
        <time>2018-03-04T11:27:17Z</time>
      </trkpt>
      <trkpt lat="46.00615" lon="4.76196">
        <ele>230</ele>
        <time>2018-03-04T11:27:18Z</time>
      </trkpt>
      <trkpt lat="46.00605" lon="4.76194">
        <ele>230</ele>
        <time>2018-03-04T11:27:19Z</time>
      </trkpt>
      <trkpt lat="46.00597" lon="4.7619">
        <ele>230</ele>
        <time>2018-03-04T11:27:21Z</time>
      </trkpt>
      <trkpt lat="46.00593" lon="4.76189">
        <ele>230</ele>
        <time>2018-03-04T11:27:22Z</time>
      </trkpt>
      <trkpt lat="46.00588" lon="4.76187">
        <ele>230</ele>
        <time>2018-03-04T11:27:23Z</time>
      </trkpt>
      <trkpt lat="46.00583" lon="4.76185">
        <ele>230</ele>
        <time>2018-03-04T11:27:24Z</time>
      </trkpt>
      <trkpt lat="46.00578" lon="4.76184">
        <ele>230</ele>
        <time>2018-03-04T11:27:25Z</time>
      </trkpt>
      <trkpt lat="46.00573" lon="4.76183">
        <ele>230</ele>
        <time>2018-03-04T11:27:26Z</time>
      </trkpt>
      <trkpt lat="46.00568" lon="4.76182">
        <ele>230</ele>
        <time>2018-03-04T11:27:27Z</time>
      </trkpt>
      <trkpt lat="46.00562" lon="4.7618">
        <ele>230</ele>
        <time>2018-03-04T11:27:28Z</time>
      </trkpt>
      <trkpt lat="46.00557" lon="4.76178">
        <ele>230</ele>
        <time>2018-03-04T11:27:29Z</time>
      </trkpt>
      <trkpt lat="46.00552" lon="4.76176">
        <ele>230</ele>
        <time>2018-03-04T11:27:30Z</time>
      </trkpt>
      <trkpt lat="46.00546" lon="4.76174">
        <ele>230</ele>
        <time>2018-03-04T11:27:31Z</time>
      </trkpt>
      <trkpt lat="46.0054" lon="4.76171">
        <ele>230</ele>
        <time>2018-03-04T11:27:32Z</time>
      </trkpt>
      <trkpt lat="46.00535" lon="4.76168">
        <ele>230</ele>
        <time>2018-03-04T11:27:33Z</time>
      </trkpt>
      <trkpt lat="46.00529" lon="4.76164">
        <ele>228</ele>
        <time>2018-03-04T11:27:34Z</time>
      </trkpt>
      <trkpt lat="46.00523" lon="4.7616">
        <ele>228</ele>
        <time>2018-03-04T11:27:35Z</time>
      </trkpt>
      <trkpt lat="46.00517" lon="4.76154">
        <ele>228</ele>
        <time>2018-03-04T11:27:36Z</time>
      </trkpt>
      <trkpt lat="46.00512" lon="4.76148">
        <ele>228</ele>
        <time>2018-03-04T11:27:37Z</time>
      </trkpt>
      <trkpt lat="46.00507" lon="4.76142">
        <ele>228</ele>
        <time>2018-03-04T11:27:38Z</time>
      </trkpt>
      <trkpt lat="46.00501" lon="4.76135">
        <ele>227</ele>
        <time>2018-03-04T11:27:39Z</time>
      </trkpt>
      <trkpt lat="46.00495" lon="4.76129">
        <ele>227</ele>
        <time>2018-03-04T11:27:40Z</time>
      </trkpt>
      <trkpt lat="46.00488" lon="4.76122">
        <ele>227</ele>
        <time>2018-03-04T11:27:41Z</time>
      </trkpt>
      <trkpt lat="46.00482" lon="4.76115">
        <ele>227</ele>
        <time>2018-03-04T11:27:42Z</time>
      </trkpt>
      <trkpt lat="46.00476" lon="4.76109">
        <ele>227</ele>
        <time>2018-03-04T11:27:43Z</time>
      </trkpt>
      <trkpt lat="46.00469" lon="4.76103">
        <ele>227</ele>
        <time>2018-03-04T11:27:44Z</time>
      </trkpt>
      <trkpt lat="46.00461" lon="4.76096">
        <ele>227</ele>
        <time>2018-03-04T11:27:45Z</time>
      </trkpt>
      <trkpt lat="46.00452" lon="4.76092">
        <ele>227</ele>
        <time>2018-03-04T11:27:46Z</time>
      </trkpt>
      <trkpt lat="46.00445" lon="4.76088">
        <ele>227</ele>
        <time>2018-03-04T11:27:47Z</time>
      </trkpt>
      <trkpt lat="46.00438" lon="4.76084">
        <ele>227</ele>
        <time>2018-03-04T11:27:48Z</time>
      </trkpt>
      <trkpt lat="46.00429" lon="4.76081">
        <ele>225</ele>
        <time>2018-03-04T11:27:49Z</time>
      </trkpt>
      <trkpt lat="46.00421" lon="4.76079">
        <ele>225</ele>
        <time>2018-03-04T11:27:50Z</time>
      </trkpt>
      <trkpt lat="46.00412" lon="4.76077">
        <ele>226</ele>
        <time>2018-03-04T11:27:51Z</time>
      </trkpt>
      <trkpt lat="46.00404" lon="4.76075">
        <ele>226</ele>
        <time>2018-03-04T11:27:52Z</time>
      </trkpt>
      <trkpt lat="46.00396" lon="4.76074">
        <ele>226</ele>
        <time>2018-03-04T11:27:53Z</time>
      </trkpt>
      <trkpt lat="46.00389" lon="4.76075">
        <ele>226</ele>
        <time>2018-03-04T11:27:54Z</time>
      </trkpt>
      <trkpt lat="46.00382" lon="4.76075">
        <ele>226</ele>
        <time>2018-03-04T11:27:55Z</time>
      </trkpt>
      <trkpt lat="46.00376" lon="4.76073">
        <ele>226</ele>
        <time>2018-03-04T11:27:56Z</time>
      </trkpt>
      <trkpt lat="46.0037" lon="4.7607">
        <ele>226</ele>
        <time>2018-03-04T11:27:57Z</time>
      </trkpt>
      <trkpt lat="46.00368" lon="4.76064">
        <ele>226</ele>
        <time>2018-03-04T11:27:58Z</time>
      </trkpt>
      <trkpt lat="46.00366" lon="4.76056">
        <ele>226</ele>
        <time>2018-03-04T11:27:59Z</time>
      </trkpt>
      <trkpt lat="46.00369" lon="4.76049">
        <ele>226</ele>
        <time>2018-03-04T11:28:00Z</time>
      </trkpt>
      <trkpt lat="46.0037" lon="4.76042">
        <ele>225</ele>
        <time>2018-03-04T11:28:01Z</time>
      </trkpt>
      <trkpt lat="46.00376" lon="4.76035">
        <ele>225</ele>
        <time>2018-03-04T11:28:02Z</time>
      </trkpt>
      <trkpt lat="46.00382" lon="4.7603">
        <ele>225</ele>
        <time>2018-03-04T11:28:03Z</time>
      </trkpt>
      <trkpt lat="46.00387" lon="4.76025">
        <ele>225</ele>
        <time>2018-03-04T11:28:04Z</time>
      </trkpt>
      <trkpt lat="46.00394" lon="4.7602">
        <ele>224</ele>
        <time>2018-03-04T11:28:05Z</time>
      </trkpt>
      <trkpt lat="46.00399" lon="4.76014">
        <ele>224</ele>
        <time>2018-03-04T11:28:06Z</time>
      </trkpt>
      <trkpt lat="46.00404" lon="4.7601">
        <ele>223</ele>
        <time>2018-03-04T11:28:07Z</time>
      </trkpt>
      <trkpt lat="46.0041" lon="4.76003">
        <ele>222</ele>
        <time>2018-03-04T11:28:08Z</time>
      </trkpt>
      <trkpt lat="46.00417" lon="4.75998">
        <ele>221</ele>
        <time>2018-03-04T11:28:09Z</time>
      </trkpt>
      <trkpt lat="46.00423" lon="4.7599">
        <ele>220</ele>
        <time>2018-03-04T11:28:10Z</time>
      </trkpt>
      <trkpt lat="46.00429" lon="4.75983">
        <ele>220</ele>
        <time>2018-03-04T11:28:11Z</time>
      </trkpt>
      <trkpt lat="46.00434" lon="4.75975">
        <ele>219</ele>
        <time>2018-03-04T11:28:12Z</time>
      </trkpt>
      <trkpt lat="46.00439" lon="4.75964">
        <ele>219</ele>
        <time>2018-03-04T11:28:13Z</time>
      </trkpt>
      <trkpt lat="46.00443" lon="4.75951">
        <ele>219</ele>
        <time>2018-03-04T11:28:14Z</time>
      </trkpt>
      <trkpt lat="46.00444" lon="4.75939">
        <ele>218</ele>
        <time>2018-03-04T11:28:15Z</time>
      </trkpt>
      <trkpt lat="46.00445" lon="4.75928">
        <ele>218</ele>
        <time>2018-03-04T11:28:16Z</time>
      </trkpt>
      <trkpt lat="46.00441" lon="4.75918">
        <ele>218</ele>
        <time>2018-03-04T11:28:17Z</time>
      </trkpt>
      <trkpt lat="46.00438" lon="4.75908">
        <ele>217</ele>
        <time>2018-03-04T11:28:18Z</time>
      </trkpt>
      <trkpt lat="46.00433" lon="4.75898">
        <ele>217</ele>
        <time>2018-03-04T11:28:19Z</time>
      </trkpt>
      <trkpt lat="46.0043" lon="4.75889">
        <ele>217</ele>
        <time>2018-03-04T11:28:20Z</time>
      </trkpt>
      <trkpt lat="46.00425" lon="4.7588">
        <ele>217</ele>
        <time>2018-03-04T11:28:21Z</time>
      </trkpt>
      <trkpt lat="46.0042" lon="4.75869">
        <ele>216</ele>
        <time>2018-03-04T11:28:22Z</time>
      </trkpt>
      <trkpt lat="46.00415" lon="4.7586">
        <ele>215</ele>
        <time>2018-03-04T11:28:23Z</time>
      </trkpt>
      <trkpt lat="46.00409" lon="4.75849">
        <ele>214</ele>
        <time>2018-03-04T11:28:24Z</time>
      </trkpt>
      <trkpt lat="46.00403" lon="4.75839">
        <ele>214</ele>
        <time>2018-03-04T11:28:25Z</time>
      </trkpt>
      <trkpt lat="46.00397" lon="4.75829">
        <ele>213</ele>
        <time>2018-03-04T11:28:26Z</time>
      </trkpt>
      <trkpt lat="46.00392" lon="4.7582">
        <ele>213</ele>
        <time>2018-03-04T11:28:27Z</time>
      </trkpt>
      <trkpt lat="46.00387" lon="4.75811">
        <ele>213</ele>
        <time>2018-03-04T11:28:28Z</time>
      </trkpt>
      <trkpt lat="46.00382" lon="4.758">
        <ele>213</ele>
        <time>2018-03-04T11:28:29Z</time>
      </trkpt>
      <trkpt lat="46.00377" lon="4.75791">
        <ele>213</ele>
        <time>2018-03-04T11:28:30Z</time>
      </trkpt>
      <trkpt lat="46.0037" lon="4.75782">
        <ele>213</ele>
        <time>2018-03-04T11:28:31Z</time>
      </trkpt>
      <trkpt lat="46.00364" lon="4.75774">
        <ele>212</ele>
        <time>2018-03-04T11:28:32Z</time>
      </trkpt>
      <trkpt lat="46.00357" lon="4.75765">
        <ele>212</ele>
        <time>2018-03-04T11:28:33Z</time>
      </trkpt>
      <trkpt lat="46.0035" lon="4.75756">
        <ele>211</ele>
        <time>2018-03-04T11:28:34Z</time>
      </trkpt>
      <trkpt lat="46.00342" lon="4.75748">
        <ele>209</ele>
        <time>2018-03-04T11:28:35Z</time>
      </trkpt>
      <trkpt lat="46.00336" lon="4.75738">
        <ele>209</ele>
        <time>2018-03-04T11:28:36Z</time>
      </trkpt>
      <trkpt lat="46.0033" lon="4.75727">
        <ele>208</ele>
        <time>2018-03-04T11:28:37Z</time>
      </trkpt>
      <trkpt lat="46.00323" lon="4.75717">
        <ele>208</ele>
        <time>2018-03-04T11:28:38Z</time>
      </trkpt>
      <trkpt lat="46.00317" lon="4.75707">
        <ele>208</ele>
        <time>2018-03-04T11:28:39Z</time>
      </trkpt>
      <trkpt lat="46.0031" lon="4.75696">
        <ele>208</ele>
        <time>2018-03-04T11:28:40Z</time>
      </trkpt>
      <trkpt lat="46.00303" lon="4.75685">
        <ele>208</ele>
        <time>2018-03-04T11:28:41Z</time>
      </trkpt>
      <trkpt lat="46.00296" lon="4.75675">
        <ele>208</ele>
        <time>2018-03-04T11:28:42Z</time>
      </trkpt>
      <trkpt lat="46.00289" lon="4.75664">
        <ele>207</ele>
        <time>2018-03-04T11:28:43Z</time>
      </trkpt>
      <trkpt lat="46.00281" lon="4.75653">
        <ele>207</ele>
        <time>2018-03-04T11:28:44Z</time>
      </trkpt>
      <trkpt lat="46.00275" lon="4.75642">
        <ele>207</ele>
        <time>2018-03-04T11:28:45Z</time>
      </trkpt>
      <trkpt lat="46.00267" lon="4.75631">
        <ele>207</ele>
        <time>2018-03-04T11:28:46Z</time>
      </trkpt>
      <trkpt lat="46.00261" lon="4.7562">
        <ele>206</ele>
        <time>2018-03-04T11:28:47Z</time>
      </trkpt>
      <trkpt lat="46.00253" lon="4.75609">
        <ele>206</ele>
        <time>2018-03-04T11:28:48Z</time>
      </trkpt>
      <trkpt lat="46.00247" lon="4.75597">
        <ele>209</ele>
        <time>2018-03-04T11:28:49Z</time>
      </trkpt>
      <trkpt lat="46.00241" lon="4.75586">
        <ele>208</ele>
        <time>2018-03-04T11:28:50Z</time>
      </trkpt>
      <trkpt lat="46.00234" lon="4.75574">
        <ele>206</ele>
        <time>2018-03-04T11:28:51Z</time>
      </trkpt>
      <trkpt lat="46.00228" lon="4.75562">
        <ele>206</ele>
        <time>2018-03-04T11:28:52Z</time>
      </trkpt>
      <trkpt lat="46.00227" lon="4.75548">
        <ele>205</ele>
        <time>2018-03-04T11:28:53Z</time>
      </trkpt>
      <trkpt lat="46.00222" lon="4.75534">
        <ele>205</ele>
        <time>2018-03-04T11:28:54Z</time>
      </trkpt>
      <trkpt lat="46.00216" lon="4.7552">
        <ele>204</ele>
        <time>2018-03-04T11:28:55Z</time>
      </trkpt>
      <trkpt lat="46.00223" lon="4.755">
        <ele>203</ele>
        <time>2018-03-04T11:28:56Z</time>
      </trkpt>
      <trkpt lat="46.0022" lon="4.75485">
        <ele>198</ele>
        <time>2018-03-04T11:28:57Z</time>
      </trkpt>
      <trkpt lat="46.00219" lon="4.75469">
        <ele>198</ele>
        <time>2018-03-04T11:28:58Z</time>
      </trkpt>
      <trkpt lat="46.00218" lon="4.75453">
        <ele>197</ele>
        <time>2018-03-04T11:28:59Z</time>
      </trkpt>
      <trkpt lat="46.00218" lon="4.75437">
        <ele>196</ele>
        <time>2018-03-04T11:29:00Z</time>
      </trkpt>
      <trkpt lat="46.00216" lon="4.75422">
        <ele>196</ele>
        <time>2018-03-04T11:29:01Z</time>
      </trkpt>
      <trkpt lat="46.00216" lon="4.75405">
        <ele>192</ele>
        <time>2018-03-04T11:29:02Z</time>
      </trkpt>
      <trkpt lat="46.00216" lon="4.7539">
        <ele>192</ele>
        <time>2018-03-04T11:29:03Z</time>
      </trkpt>
      <trkpt lat="46.00216" lon="4.75375">
        <ele>191</ele>
        <time>2018-03-04T11:29:04Z</time>
      </trkpt>
      <trkpt lat="46.00217" lon="4.75358">
        <ele>191</ele>
        <time>2018-03-04T11:29:05Z</time>
      </trkpt>
      <trkpt lat="46.00217" lon="4.75342">
        <ele>190</ele>
        <time>2018-03-04T11:29:06Z</time>
      </trkpt>
      <trkpt lat="46.00216" lon="4.75327">
        <ele>186</ele>
        <time>2018-03-04T11:29:07Z</time>
      </trkpt>
      <trkpt lat="46.00216" lon="4.75312">
        <ele>186</ele>
        <time>2018-03-04T11:29:08Z</time>
      </trkpt>
      <trkpt lat="46.00216" lon="4.75296">
        <ele>185</ele>
        <time>2018-03-04T11:29:09Z</time>
      </trkpt>
      <trkpt lat="46.00215" lon="4.75281">
        <ele>185</ele>
        <time>2018-03-04T11:29:10Z</time>
      </trkpt>
      <trkpt lat="46.00214" lon="4.75266">
        <ele>184</ele>
        <time>2018-03-04T11:29:11Z</time>
      </trkpt>
      <trkpt lat="46.00214" lon="4.75249">
        <ele>180</ele>
        <time>2018-03-04T11:29:12Z</time>
      </trkpt>
      <trkpt lat="46.00214" lon="4.75236">
        <ele>180</ele>
        <time>2018-03-04T11:29:13Z</time>
      </trkpt>
      <trkpt lat="46.00214" lon="4.75223">
        <ele>180</ele>
        <time>2018-03-04T11:29:14Z</time>
      </trkpt>
      <trkpt lat="46.00214" lon="4.75209">
        <ele>180</ele>
        <time>2018-03-04T11:29:15Z</time>
      </trkpt>
      <trkpt lat="46.00214" lon="4.75196">
        <ele>179</ele>
        <time>2018-03-04T11:29:16Z</time>
      </trkpt>
      <trkpt lat="46.00214" lon="4.75185">
        <ele>179</ele>
        <time>2018-03-04T11:29:17Z</time>
      </trkpt>
      <trkpt lat="46.00213" lon="4.75174">
        <ele>179</ele>
        <time>2018-03-04T11:29:18Z</time>
      </trkpt>
      <trkpt lat="46.00213" lon="4.75165">
        <ele>177</ele>
        <time>2018-03-04T11:29:19Z</time>
      </trkpt>
      <trkpt lat="46.00213" lon="4.75156">
        <ele>177</ele>
        <time>2018-03-04T11:29:20Z</time>
      </trkpt>
      <trkpt lat="46.00214" lon="4.75147">
        <ele>177</ele>
        <time>2018-03-04T11:29:21Z</time>
      </trkpt>
      <trkpt lat="46.00214" lon="4.7514">
        <ele>177</ele>
        <time>2018-03-04T11:29:22Z</time>
      </trkpt>
      <trkpt lat="46.00215" lon="4.7513">
        <ele>176</ele>
        <time>2018-03-04T11:29:25Z</time>
      </trkpt>
      <trkpt lat="46.00215" lon="4.75127">
        <ele>176</ele>
        <time>2018-03-04T11:29:26Z</time>
      </trkpt>
      <trkpt lat="46.00218" lon="4.75115">
        <ele>176</ele>
        <time>2018-03-04T11:29:36Z</time>
      </trkpt>
      <trkpt lat="46.00218" lon="4.75114">
        <ele>176</ele>
        <time>2018-03-04T11:29:37Z</time>
      </trkpt>
      <trkpt lat="46.00212" lon="4.75105">
        <ele>176</ele>
        <time>2018-03-04T11:29:43Z</time>
      </trkpt>
      <trkpt lat="46.0021" lon="4.75105">
        <ele>176</ele>
        <time>2018-03-04T11:29:44Z</time>
      </trkpt>
      <trkpt lat="46.00201" lon="4.75104">
        <ele>176</ele>
        <time>2018-03-04T11:29:47Z</time>
      </trkpt>
      <trkpt lat="46.00199" lon="4.75104">
        <ele>176</ele>
        <time>2018-03-04T11:29:48Z</time>
      </trkpt>
      <trkpt lat="46.00182" lon="4.75107">
        <ele>176</ele>
        <time>2018-03-04T11:29:49Z</time>
      </trkpt>
      <trkpt lat="46.00175" lon="4.75107">
        <ele>176</ele>
        <time>2018-03-04T11:29:50Z</time>
      </trkpt>
      <trkpt lat="46.00169" lon="4.75109">
        <ele>176</ele>
        <time>2018-03-04T11:29:51Z</time>
      </trkpt>
      <trkpt lat="46.00164" lon="4.75109">
        <ele>175</ele>
        <time>2018-03-04T11:29:52Z</time>
      </trkpt>
      <trkpt lat="46.0016" lon="4.75111">
        <ele>175</ele>
        <time>2018-03-04T11:29:53Z</time>
      </trkpt>
      <trkpt lat="46.00151" lon="4.7511">
        <ele>175</ele>
        <time>2018-03-04T11:29:55Z</time>
      </trkpt>
      <trkpt lat="46.00146" lon="4.75111">
        <ele>175</ele>
        <time>2018-03-04T11:29:56Z</time>
      </trkpt>
      <trkpt lat="46.00138" lon="4.75109">
        <ele>175</ele>
        <time>2018-03-04T11:29:58Z</time>
      </trkpt>
      <trkpt lat="46.00134" lon="4.75109">
        <ele>175</ele>
        <time>2018-03-04T11:29:59Z</time>
      </trkpt>
      <trkpt lat="46.00129" lon="4.75109">
        <ele>175</ele>
        <time>2018-03-04T11:30:00Z</time>
      </trkpt>
      <trkpt lat="46.00123" lon="4.75108">
        <ele>175</ele>
        <time>2018-03-04T11:30:01Z</time>
      </trkpt>
      <trkpt lat="46.00118" lon="4.75108">
        <ele>175</ele>
        <time>2018-03-04T11:30:02Z</time>
      </trkpt>
      <trkpt lat="46.00113" lon="4.75107">
        <ele>175</ele>
        <time>2018-03-04T11:30:03Z</time>
      </trkpt>
      <trkpt lat="46.00107" lon="4.75107">
        <ele>175</ele>
        <time>2018-03-04T11:30:04Z</time>
      </trkpt>
      <trkpt lat="46.00102" lon="4.75107">
        <ele>175</ele>
        <time>2018-03-04T11:30:05Z</time>
      </trkpt>
      <trkpt lat="46.00096" lon="4.75105">
        <ele>174</ele>
        <time>2018-03-04T11:30:07Z</time>
      </trkpt>
      <trkpt lat="46.00088" lon="4.75107">
        <ele>174</ele>
        <time>2018-03-04T11:30:08Z</time>
      </trkpt>
      <trkpt lat="46.00083" lon="4.75106">
        <ele>174</ele>
        <time>2018-03-04T11:30:09Z</time>
      </trkpt>
      <trkpt lat="46.00078" lon="4.75106">
        <ele>174</ele>
        <time>2018-03-04T11:30:10Z</time>
      </trkpt>
      <trkpt lat="46.00071" lon="4.75106">
        <ele>174</ele>
        <time>2018-03-04T11:30:12Z</time>
      </trkpt>
      <trkpt lat="46.00066" lon="4.75106">
        <ele>174</ele>
        <time>2018-03-04T11:30:13Z</time>
      </trkpt>
      <trkpt lat="46.00061" lon="4.75106">
        <ele>174</ele>
        <time>2018-03-04T11:30:14Z</time>
      </trkpt>
      <trkpt lat="46.00056" lon="4.75106">
        <ele>174</ele>
        <time>2018-03-04T11:30:15Z</time>
      </trkpt>
      <trkpt lat="46.00051" lon="4.75105">
        <ele>174</ele>
        <time>2018-03-04T11:30:16Z</time>
      </trkpt>
      <trkpt lat="46.00046" lon="4.75106">
        <ele>174</ele>
        <time>2018-03-04T11:30:17Z</time>
      </trkpt>
      <trkpt lat="46.00041" lon="4.75108">
        <ele>174</ele>
        <time>2018-03-04T11:30:18Z</time>
      </trkpt>
      <trkpt lat="46.00036" lon="4.7511">
        <ele>174</ele>
        <time>2018-03-04T11:30:19Z</time>
      </trkpt>
      <trkpt lat="46.00032" lon="4.75109">
        <ele>174</ele>
        <time>2018-03-04T11:30:20Z</time>
      </trkpt>
      <trkpt lat="46.00027" lon="4.7511">
        <ele>174</ele>
        <time>2018-03-04T11:30:21Z</time>
      </trkpt>
      <trkpt lat="46.00018" lon="4.7511">
        <ele>174</ele>
        <time>2018-03-04T11:30:23Z</time>
      </trkpt>
      <trkpt lat="46.00014" lon="4.7511">
        <ele>174</ele>
        <time>2018-03-04T11:30:24Z</time>
      </trkpt>
      <trkpt lat="46.00005" lon="4.75111">
        <ele>174</ele>
        <time>2018-03-04T11:30:26Z</time>
      </trkpt>
      <trkpt lat="46" lon="4.75114">
        <ele>174</ele>
        <time>2018-03-04T11:30:27Z</time>
      </trkpt>
      <trkpt lat="45.99996" lon="4.75117">
        <ele>173</ele>
        <time>2018-03-04T11:30:28Z</time>
      </trkpt>
      <trkpt lat="45.9999" lon="4.75119">
        <ele>173</ele>
        <time>2018-03-04T11:30:29Z</time>
      </trkpt>
      <trkpt lat="45.99983" lon="4.75123">
        <ele>173</ele>
        <time>2018-03-04T11:30:31Z</time>
      </trkpt>
      <trkpt lat="45.99979" lon="4.75122">
        <ele>173</ele>
        <time>2018-03-04T11:30:32Z</time>
      </trkpt>
      <trkpt lat="45.99975" lon="4.75125">
        <ele>173</ele>
        <time>2018-03-04T11:30:33Z</time>
      </trkpt>
      <trkpt lat="45.99969" lon="4.75126">
        <ele>173</ele>
        <time>2018-03-04T11:30:34Z</time>
      </trkpt>
      <trkpt lat="45.99961" lon="4.75129">
        <ele>173</ele>
        <time>2018-03-04T11:30:36Z</time>
      </trkpt>
      <trkpt lat="45.99956" lon="4.75132">
        <ele>173</ele>
        <time>2018-03-04T11:30:37Z</time>
      </trkpt>
      <trkpt lat="45.99952" lon="4.75134">
        <ele>173</ele>
        <time>2018-03-04T11:30:38Z</time>
      </trkpt>
      <trkpt lat="45.99947" lon="4.75136">
        <ele>173</ele>
        <time>2018-03-04T11:30:39Z</time>
      </trkpt>
      <trkpt lat="45.99943" lon="4.75139">
        <ele>173</ele>
        <time>2018-03-04T11:30:40Z</time>
      </trkpt>
      <trkpt lat="45.99938" lon="4.75141">
        <ele>173</ele>
        <time>2018-03-04T11:30:41Z</time>
      </trkpt>
      <trkpt lat="45.99933" lon="4.75143">
        <ele>173</ele>
        <time>2018-03-04T11:30:42Z</time>
      </trkpt>
      <trkpt lat="45.99928" lon="4.75146">
        <ele>173</ele>
        <time>2018-03-04T11:30:43Z</time>
      </trkpt>
      <trkpt lat="45.99923" lon="4.75147">
        <ele>173</ele>
        <time>2018-03-04T11:30:44Z</time>
      </trkpt>
      <trkpt lat="45.99919" lon="4.7515">
        <ele>173</ele>
        <time>2018-03-04T11:30:45Z</time>
      </trkpt>
      <trkpt lat="45.99915" lon="4.75152">
        <ele>172</ele>
        <time>2018-03-04T11:30:46Z</time>
      </trkpt>
      <trkpt lat="45.99909" lon="4.75154">
        <ele>172</ele>
        <time>2018-03-04T11:30:47Z</time>
      </trkpt>
      <trkpt lat="45.99904" lon="4.75156">
        <ele>172</ele>
        <time>2018-03-04T11:30:48Z</time>
      </trkpt>
      <trkpt lat="45.999" lon="4.75159">
        <ele>172</ele>
        <time>2018-03-04T11:30:49Z</time>
      </trkpt>
      <trkpt lat="45.99895" lon="4.75161">
        <ele>172</ele>
        <time>2018-03-04T11:30:50Z</time>
      </trkpt>
      <trkpt lat="45.9989" lon="4.75165">
        <ele>172</ele>
        <time>2018-03-04T11:30:51Z</time>
      </trkpt>
      <trkpt lat="45.99885" lon="4.75167">
        <ele>174</ele>
        <time>2018-03-04T11:30:52Z</time>
      </trkpt>
      <trkpt lat="45.9988" lon="4.7517">
        <ele>174</ele>
        <time>2018-03-04T11:30:53Z</time>
      </trkpt>
      <trkpt lat="45.99872" lon="4.75174">
        <ele>174</ele>
        <time>2018-03-04T11:30:55Z</time>
      </trkpt>
      <trkpt lat="45.99867" lon="4.75176">
        <ele>174</ele>
        <time>2018-03-04T11:30:56Z</time>
      </trkpt>
      <trkpt lat="45.99862" lon="4.75178">
        <ele>174</ele>
        <time>2018-03-04T11:30:57Z</time>
      </trkpt>
      <trkpt lat="45.99857" lon="4.75179">
        <ele>174</ele>
        <time>2018-03-04T11:30:58Z</time>
      </trkpt>
      <trkpt lat="45.99851" lon="4.75182">
        <ele>174</ele>
        <time>2018-03-04T11:31:00Z</time>
      </trkpt>
      <trkpt lat="45.99845" lon="4.75186">
        <ele>174</ele>
        <time>2018-03-04T11:31:01Z</time>
      </trkpt>
      <trkpt lat="45.99836" lon="4.7519">
        <ele>174</ele>
        <time>2018-03-04T11:31:03Z</time>
      </trkpt>
      <trkpt lat="45.99832" lon="4.75193">
        <ele>174</ele>
        <time>2018-03-04T11:31:04Z</time>
      </trkpt>
      <trkpt lat="45.99828" lon="4.75194">
        <ele>174</ele>
        <time>2018-03-04T11:31:05Z</time>
      </trkpt>
      <trkpt lat="45.99824" lon="4.75196">
        <ele>174</ele>
        <time>2018-03-04T11:31:06Z</time>
      </trkpt>
      <trkpt lat="45.99819" lon="4.75198">
        <ele>174</ele>
        <time>2018-03-04T11:31:07Z</time>
      </trkpt>
      <trkpt lat="45.99813" lon="4.75201">
        <ele>174</ele>
        <time>2018-03-04T11:31:08Z</time>
      </trkpt>
      <trkpt lat="45.99808" lon="4.75203">
        <ele>174</ele>
        <time>2018-03-04T11:31:09Z</time>
      </trkpt>
      <trkpt lat="45.99804" lon="4.75206">
        <ele>174</ele>
        <time>2018-03-04T11:31:10Z</time>
      </trkpt>
      <trkpt lat="45.99799" lon="4.75208">
        <ele>174</ele>
        <time>2018-03-04T11:31:11Z</time>
      </trkpt>
      <trkpt lat="45.99795" lon="4.75211">
        <ele>174</ele>
        <time>2018-03-04T11:31:12Z</time>
      </trkpt>
      <trkpt lat="45.9979" lon="4.75213">
        <ele>174</ele>
        <time>2018-03-04T11:31:13Z</time>
      </trkpt>
      <trkpt lat="45.99785" lon="4.75214">
        <ele>174</ele>
        <time>2018-03-04T11:31:14Z</time>
      </trkpt>
      <trkpt lat="45.9978" lon="4.75216">
        <ele>174</ele>
        <time>2018-03-04T11:31:15Z</time>
      </trkpt>
      <trkpt lat="45.99775" lon="4.75218">
        <ele>175</ele>
        <time>2018-03-04T11:31:16Z</time>
      </trkpt>
      <trkpt lat="45.99771" lon="4.7522">
        <ele>175</ele>
        <time>2018-03-04T11:31:17Z</time>
      </trkpt>
      <trkpt lat="45.99766" lon="4.75223">
        <ele>175</ele>
        <time>2018-03-04T11:31:18Z</time>
      </trkpt>
      <trkpt lat="45.99761" lon="4.75225">
        <ele>175</ele>
        <time>2018-03-04T11:31:19Z</time>
      </trkpt>
      <trkpt lat="45.99757" lon="4.75227">
        <ele>175</ele>
        <time>2018-03-04T11:31:20Z</time>
      </trkpt>
      <trkpt lat="45.99752" lon="4.75228">
        <ele>175</ele>
        <time>2018-03-04T11:31:21Z</time>
      </trkpt>
      <trkpt lat="45.99748" lon="4.7523">
        <ele>175</ele>
        <time>2018-03-04T11:31:22Z</time>
      </trkpt>
      <trkpt lat="45.99742" lon="4.75232">
        <ele>175</ele>
        <time>2018-03-04T11:31:23Z</time>
      </trkpt>
      <trkpt lat="45.99738" lon="4.75235">
        <ele>175</ele>
        <time>2018-03-04T11:31:24Z</time>
      </trkpt>
      <trkpt lat="45.99733" lon="4.75236">
        <ele>175</ele>
        <time>2018-03-04T11:31:25Z</time>
      </trkpt>
      <trkpt lat="45.99729" lon="4.75239">
        <ele>175</ele>
        <time>2018-03-04T11:31:26Z</time>
      </trkpt>
      <trkpt lat="45.99724" lon="4.75241">
        <ele>174</ele>
        <time>2018-03-04T11:31:27Z</time>
      </trkpt>
      <trkpt lat="45.99719" lon="4.75243">
        <ele>174</ele>
        <time>2018-03-04T11:31:28Z</time>
      </trkpt>
      <trkpt lat="45.99714" lon="4.75245">
        <ele>174</ele>
        <time>2018-03-04T11:31:29Z</time>
      </trkpt>
      <trkpt lat="45.9971" lon="4.75247">
        <ele>174</ele>
        <time>2018-03-04T11:31:30Z</time>
      </trkpt>
      <trkpt lat="45.99705" lon="4.7525">
        <ele>174</ele>
        <time>2018-03-04T11:31:31Z</time>
      </trkpt>
      <trkpt lat="45.997" lon="4.75251">
        <ele>176</ele>
        <time>2018-03-04T11:31:32Z</time>
      </trkpt>
      <trkpt lat="45.99696" lon="4.75252">
        <ele>176</ele>
        <time>2018-03-04T11:31:33Z</time>
      </trkpt>
      <trkpt lat="45.99691" lon="4.75254">
        <ele>176</ele>
        <time>2018-03-04T11:31:34Z</time>
      </trkpt>
      <trkpt lat="45.99686" lon="4.75256">
        <ele>175</ele>
        <time>2018-03-04T11:31:35Z</time>
      </trkpt>
      <trkpt lat="45.99681" lon="4.75259">
        <ele>175</ele>
        <time>2018-03-04T11:31:36Z</time>
      </trkpt>
      <trkpt lat="45.99677" lon="4.75261">
        <ele>175</ele>
        <time>2018-03-04T11:31:37Z</time>
      </trkpt>
      <trkpt lat="45.99672" lon="4.75263">
        <ele>175</ele>
        <time>2018-03-04T11:31:38Z</time>
      </trkpt>
      <trkpt lat="45.99663" lon="4.75267">
        <ele>174</ele>
        <time>2018-03-04T11:31:40Z</time>
      </trkpt>
      <trkpt lat="45.99659" lon="4.7527">
        <ele>174</ele>
        <time>2018-03-04T11:31:41Z</time>
      </trkpt>
      <trkpt lat="45.9965" lon="4.75271">
        <ele>174</ele>
        <time>2018-03-04T11:31:43Z</time>
      </trkpt>
      <trkpt lat="45.99646" lon="4.75271">
        <ele>174</ele>
        <time>2018-03-04T11:31:44Z</time>
      </trkpt>
      <trkpt lat="45.99637" lon="4.75271">
        <ele>174</ele>
        <time>2018-03-04T11:31:46Z</time>
      </trkpt>
      <trkpt lat="45.99633" lon="4.7527">
        <ele>174</ele>
        <time>2018-03-04T11:31:47Z</time>
      </trkpt>
      <trkpt lat="45.99625" lon="4.75269">
        <ele>174</ele>
        <time>2018-03-04T11:31:50Z</time>
      </trkpt>
      <trkpt lat="45.99623" lon="4.75269">
        <ele>174</ele>
        <time>2018-03-04T11:31:51Z</time>
      </trkpt>
      <trkpt lat="45.99614" lon="4.75268">
        <ele>174</ele>
        <time>2018-03-04T11:31:53Z</time>
      </trkpt>
      <trkpt lat="45.99613" lon="4.75269">
        <ele>174</ele>
        <time>2018-03-04T11:31:54Z</time>
      </trkpt>
      <trkpt lat="45.99606" lon="4.7527">
        <ele>173</ele>
        <time>2018-03-04T11:31:57Z</time>
      </trkpt>
      <trkpt lat="45.99603" lon="4.75271">
        <ele>173</ele>
        <time>2018-03-04T11:31:58Z</time>
      </trkpt>
      <trkpt lat="45.99597" lon="4.75272">
        <ele>173</ele>
        <time>2018-03-04T11:32:00Z</time>
      </trkpt>
      <trkpt lat="45.99594" lon="4.75271">
        <ele>173</ele>
        <time>2018-03-04T11:32:01Z</time>
      </trkpt>
      <trkpt lat="45.99587" lon="4.7527">
        <ele>173</ele>
        <time>2018-03-04T11:32:03Z</time>
      </trkpt>
      <trkpt lat="45.99578" lon="4.75265">
        <ele>172</ele>
        <time>2018-03-04T11:32:04Z</time>
      </trkpt>
      <trkpt lat="45.99569" lon="4.75262">
        <ele>172</ele>
        <time>2018-03-04T11:32:06Z</time>
      </trkpt>
      <trkpt lat="45.99565" lon="4.75263">
        <ele>172</ele>
        <time>2018-03-04T11:32:07Z</time>
      </trkpt>
      <trkpt lat="45.9956" lon="4.75264">
        <ele>172</ele>
        <time>2018-03-04T11:32:08Z</time>
      </trkpt>
      <trkpt lat="45.99556" lon="4.75267">
        <ele>172</ele>
        <time>2018-03-04T11:32:09Z</time>
      </trkpt>
      <trkpt lat="45.99552" lon="4.75271">
        <ele>172</ele>
        <time>2018-03-04T11:32:10Z</time>
      </trkpt>
      <trkpt lat="45.99548" lon="4.75275">
        <ele>172</ele>
        <time>2018-03-04T11:32:11Z</time>
      </trkpt>
      <trkpt lat="45.99545" lon="4.75281">
        <ele>172</ele>
        <time>2018-03-04T11:32:12Z</time>
      </trkpt>
      <trkpt lat="45.99541" lon="4.75284">
        <ele>172</ele>
        <time>2018-03-04T11:32:13Z</time>
      </trkpt>
      <trkpt lat="45.99534" lon="4.75288">
        <ele>172</ele>
        <time>2018-03-04T11:32:15Z</time>
      </trkpt>
      <trkpt lat="45.99529" lon="4.7529">
        <ele>172</ele>
        <time>2018-03-04T11:32:16Z</time>
      </trkpt>
      <trkpt lat="45.99524" lon="4.75292">
        <ele>172</ele>
        <time>2018-03-04T11:32:17Z</time>
      </trkpt>
      <trkpt lat="45.9952" lon="4.75293">
        <ele>172</ele>
        <time>2018-03-04T11:32:18Z</time>
      </trkpt>
      <trkpt lat="45.99515" lon="4.75293">
        <ele>172</ele>
        <time>2018-03-04T11:32:19Z</time>
      </trkpt>
      <trkpt lat="45.9951" lon="4.75294">
        <ele>172</ele>
        <time>2018-03-04T11:32:20Z</time>
      </trkpt>
      <trkpt lat="45.99505" lon="4.75296">
        <ele>172</ele>
        <time>2018-03-04T11:32:21Z</time>
      </trkpt>
      <trkpt lat="45.99501" lon="4.75297">
        <ele>172</ele>
        <time>2018-03-04T11:32:22Z</time>
      </trkpt>
      <trkpt lat="45.99496" lon="4.75299">
        <ele>171</ele>
        <time>2018-03-04T11:32:23Z</time>
      </trkpt>
      <trkpt lat="45.99491" lon="4.753">
        <ele>171</ele>
        <time>2018-03-04T11:32:24Z</time>
      </trkpt>
      <trkpt lat="45.99483" lon="4.75302">
        <ele>171</ele>
        <time>2018-03-04T11:32:26Z</time>
      </trkpt>
      <trkpt lat="45.99478" lon="4.75303">
        <ele>171</ele>
        <time>2018-03-04T11:32:27Z</time>
      </trkpt>
      <trkpt lat="45.99469" lon="4.75305">
        <ele>171</ele>
        <time>2018-03-04T11:32:29Z</time>
      </trkpt>
      <trkpt lat="45.99465" lon="4.75305">
        <ele>171</ele>
        <time>2018-03-04T11:32:30Z</time>
      </trkpt>
      <trkpt lat="45.99457" lon="4.75306">
        <ele>171</ele>
        <time>2018-03-04T11:32:32Z</time>
      </trkpt>
      <trkpt lat="45.99453" lon="4.75306">
        <ele>171</ele>
        <time>2018-03-04T11:32:33Z</time>
      </trkpt>
      <trkpt lat="45.99447" lon="4.75307">
        <ele>171</ele>
        <time>2018-03-04T11:32:35Z</time>
      </trkpt>
      <trkpt lat="45.99442" lon="4.75307">
        <ele>171</ele>
        <time>2018-03-04T11:32:36Z</time>
      </trkpt>
      <trkpt lat="45.99434" lon="4.75309">
        <ele>171</ele>
        <time>2018-03-04T11:32:38Z</time>
      </trkpt>
      <trkpt lat="45.99429" lon="4.7531">
        <ele>171</ele>
        <time>2018-03-04T11:32:39Z</time>
      </trkpt>
      <trkpt lat="45.99421" lon="4.75311">
        <ele>171</ele>
        <time>2018-03-04T11:32:41Z</time>
      </trkpt>
      <trkpt lat="45.99417" lon="4.75312">
        <ele>170</ele>
        <time>2018-03-04T11:32:42Z</time>
      </trkpt>
      <trkpt lat="45.99408" lon="4.75314">
        <ele>170</ele>
        <time>2018-03-04T11:32:44Z</time>
      </trkpt>
      <trkpt lat="45.99404" lon="4.75316">
        <ele>170</ele>
        <time>2018-03-04T11:32:45Z</time>
      </trkpt>
      <trkpt lat="45.99397" lon="4.7532">
        <ele>170</ele>
        <time>2018-03-04T11:32:47Z</time>
      </trkpt>
      <trkpt lat="45.99393" lon="4.75323">
        <ele>170</ele>
        <time>2018-03-04T11:32:48Z</time>
      </trkpt>
      <trkpt lat="45.99386" lon="4.75329">
        <ele>170</ele>
        <time>2018-03-04T11:32:50Z</time>
      </trkpt>
      <trkpt lat="45.99383" lon="4.75333">
        <ele>170</ele>
        <time>2018-03-04T11:32:51Z</time>
      </trkpt>
      <trkpt lat="45.99379" lon="4.75337">
        <ele>171</ele>
        <time>2018-03-04T11:32:52Z</time>
      </trkpt>
      <trkpt lat="45.99376" lon="4.75342">
        <ele>171</ele>
        <time>2018-03-04T11:32:53Z</time>
      </trkpt>
      <trkpt lat="45.99373" lon="4.75347">
        <ele>172</ele>
        <time>2018-03-04T11:32:54Z</time>
      </trkpt>
      <trkpt lat="45.9937" lon="4.75352">
        <ele>172</ele>
        <time>2018-03-04T11:32:55Z</time>
      </trkpt>
      <trkpt lat="45.99367" lon="4.75357">
        <ele>172</ele>
        <time>2018-03-04T11:32:56Z</time>
      </trkpt>
      <trkpt lat="45.99364" lon="4.75363">
        <ele>172</ele>
        <time>2018-03-04T11:32:57Z</time>
      </trkpt>
      <trkpt lat="45.99361" lon="4.75368">
        <ele>172</ele>
        <time>2018-03-04T11:32:58Z</time>
      </trkpt>
      <trkpt lat="45.99358" lon="4.75375">
        <ele>172</ele>
        <time>2018-03-04T11:32:59Z</time>
      </trkpt>
      <trkpt lat="45.99355" lon="4.75381">
        <ele>172</ele>
        <time>2018-03-04T11:33:00Z</time>
      </trkpt>
      <trkpt lat="45.99351" lon="4.75387">
        <ele>172</ele>
        <time>2018-03-04T11:33:01Z</time>
      </trkpt>
      <trkpt lat="45.99347" lon="4.75396">
        <ele>173</ele>
        <time>2018-03-04T11:33:03Z</time>
      </trkpt>
      <trkpt lat="45.99344" lon="4.754">
        <ele>173</ele>
        <time>2018-03-04T11:33:04Z</time>
      </trkpt>
      <trkpt lat="45.9934" lon="4.75409">
        <ele>173</ele>
        <time>2018-03-04T11:33:06Z</time>
      </trkpt>
      <trkpt lat="45.9934" lon="4.75416">
        <ele>173</ele>
        <time>2018-03-04T11:33:07Z</time>
      </trkpt>
      <trkpt lat="45.99338" lon="4.75428">
        <ele>175</ele>
        <time>2018-03-04T11:33:09Z</time>
      </trkpt>
      <trkpt lat="45.99337" lon="4.75434">
        <ele>175</ele>
        <time>2018-03-04T11:33:10Z</time>
      </trkpt>
      <trkpt lat="45.99336" lon="4.7544">
        <ele>176</ele>
        <time>2018-03-04T11:33:11Z</time>
      </trkpt>
      <trkpt lat="45.99334" lon="4.75447">
        <ele>176</ele>
        <time>2018-03-04T11:33:12Z</time>
      </trkpt>
      <trkpt lat="45.9933" lon="4.75457">
        <ele>174</ele>
        <time>2018-03-04T11:33:14Z</time>
      </trkpt>
      <trkpt lat="45.99328" lon="4.75463">
        <ele>174</ele>
        <time>2018-03-04T11:33:15Z</time>
      </trkpt>
      <trkpt lat="45.99326" lon="4.75468">
        <ele>174</ele>
        <time>2018-03-04T11:33:16Z</time>
      </trkpt>
      <trkpt lat="45.99323" lon="4.75474">
        <ele>174</ele>
        <time>2018-03-04T11:33:17Z</time>
      </trkpt>
      <trkpt lat="45.99318" lon="4.75485">
        <ele>175</ele>
        <time>2018-03-04T11:33:19Z</time>
      </trkpt>
      <trkpt lat="45.99315" lon="4.7549">
        <ele>175</ele>
        <time>2018-03-04T11:33:20Z</time>
      </trkpt>
      <trkpt lat="45.99311" lon="4.75495">
        <ele>175</ele>
        <time>2018-03-04T11:33:21Z</time>
      </trkpt>
      <trkpt lat="45.99307" lon="4.75499">
        <ele>174</ele>
        <time>2018-03-04T11:33:22Z</time>
      </trkpt>
      <trkpt lat="45.99301" lon="4.75507">
        <ele>177</ele>
        <time>2018-03-04T11:33:24Z</time>
      </trkpt>
      <trkpt lat="45.99298" lon="4.75511">
        <ele>177</ele>
        <time>2018-03-04T11:33:25Z</time>
      </trkpt>
      <trkpt lat="45.99294" lon="4.75515">
        <ele>177</ele>
        <time>2018-03-04T11:33:26Z</time>
      </trkpt>
      <trkpt lat="45.99289" lon="4.75518">
        <ele>176</ele>
        <time>2018-03-04T11:33:27Z</time>
      </trkpt>
      <trkpt lat="45.99282" lon="4.75526">
        <ele>176</ele>
        <time>2018-03-04T11:33:29Z</time>
      </trkpt>
      <trkpt lat="45.99279" lon="4.75529">
        <ele>176</ele>
        <time>2018-03-04T11:33:30Z</time>
      </trkpt>
      <trkpt lat="45.99272" lon="4.75535">
        <ele>176</ele>
        <time>2018-03-04T11:33:32Z</time>
      </trkpt>
      <trkpt lat="45.99268" lon="4.75538">
        <ele>176</ele>
        <time>2018-03-04T11:33:33Z</time>
      </trkpt>
      <trkpt lat="45.99261" lon="4.75544">
        <ele>176</ele>
        <time>2018-03-04T11:33:35Z</time>
      </trkpt>
      <trkpt lat="45.99257" lon="4.75547">
        <ele>176</ele>
        <time>2018-03-04T11:33:36Z</time>
      </trkpt>
      <trkpt lat="45.99249" lon="4.75553">
        <ele>175</ele>
        <time>2018-03-04T11:33:38Z</time>
      </trkpt>
      <trkpt lat="45.99245" lon="4.75556">
        <ele>175</ele>
        <time>2018-03-04T11:33:39Z</time>
      </trkpt>
      <trkpt lat="45.99238" lon="4.75559">
        <ele>175</ele>
        <time>2018-03-04T11:33:41Z</time>
      </trkpt>
      <trkpt lat="45.99234" lon="4.75561">
        <ele>175</ele>
        <time>2018-03-04T11:33:42Z</time>
      </trkpt>
      <trkpt lat="45.99227" lon="4.75564">
        <ele>175</ele>
        <time>2018-03-04T11:33:44Z</time>
      </trkpt>
      <trkpt lat="45.99224" lon="4.75567">
        <ele>175</ele>
        <time>2018-03-04T11:33:45Z</time>
      </trkpt>
      <trkpt lat="45.99216" lon="4.75573">
        <ele>175</ele>
        <time>2018-03-04T11:33:47Z</time>
      </trkpt>
      <trkpt lat="45.99212" lon="4.75576">
        <ele>175</ele>
        <time>2018-03-04T11:33:48Z</time>
      </trkpt>
      <trkpt lat="45.99205" lon="4.75581">
        <ele>175</ele>
        <time>2018-03-04T11:33:50Z</time>
      </trkpt>
      <trkpt lat="45.99201" lon="4.75584">
        <ele>178</ele>
        <time>2018-03-04T11:33:51Z</time>
      </trkpt>
      <trkpt lat="45.99193" lon="4.75589">
        <ele>178</ele>
        <time>2018-03-04T11:33:53Z</time>
      </trkpt>
      <trkpt lat="45.9919" lon="4.75591">
        <ele>177</ele>
        <time>2018-03-04T11:33:54Z</time>
      </trkpt>
      <trkpt lat="45.99183" lon="4.75595">
        <ele>177</ele>
        <time>2018-03-04T11:33:56Z</time>
      </trkpt>
      <trkpt lat="45.99179" lon="4.75597">
        <ele>177</ele>
        <time>2018-03-04T11:33:57Z</time>
      </trkpt>
      <trkpt lat="45.99174" lon="4.75598">
        <ele>177</ele>
        <time>2018-03-04T11:33:58Z</time>
      </trkpt>
      <trkpt lat="45.9917" lon="4.756">
        <ele>177</ele>
        <time>2018-03-04T11:33:59Z</time>
      </trkpt>
      <trkpt lat="45.99161" lon="4.75602">
        <ele>176</ele>
        <time>2018-03-04T11:34:01Z</time>
      </trkpt>
      <trkpt lat="45.99157" lon="4.75604">
        <ele>176</ele>
        <time>2018-03-04T11:34:02Z</time>
      </trkpt>
      <trkpt lat="45.99152" lon="4.75606">
        <ele>176</ele>
        <time>2018-03-04T11:34:03Z</time>
      </trkpt>
      <trkpt lat="45.99149" lon="4.75608">
        <ele>176</ele>
        <time>2018-03-04T11:34:04Z</time>
      </trkpt>
      <trkpt lat="45.9914" lon="4.75608">
        <ele>176</ele>
        <time>2018-03-04T11:34:06Z</time>
      </trkpt>
      <trkpt lat="45.99135" lon="4.75608">
        <ele>176</ele>
        <time>2018-03-04T11:34:07Z</time>
      </trkpt>
      <trkpt lat="45.9913" lon="4.75608">
        <ele>176</ele>
        <time>2018-03-04T11:34:08Z</time>
      </trkpt>
      <trkpt lat="45.99125" lon="4.7561">
        <ele>176</ele>
        <time>2018-03-04T11:34:09Z</time>
      </trkpt>
      <trkpt lat="45.99119" lon="4.75618">
        <ele>177</ele>
        <time>2018-03-04T11:34:11Z</time>
      </trkpt>
      <trkpt lat="45.99116" lon="4.75624">
        <ele>177</ele>
        <time>2018-03-04T11:34:12Z</time>
      </trkpt>
      <trkpt lat="45.99113" lon="4.7563">
        <ele>177</ele>
        <time>2018-03-04T11:34:13Z</time>
      </trkpt>
      <trkpt lat="45.9911" lon="4.75636">
        <ele>177</ele>
        <time>2018-03-04T11:34:14Z</time>
      </trkpt>
      <trkpt lat="45.99105" lon="4.75642">
        <ele>178</ele>
        <time>2018-03-04T11:34:16Z</time>
      </trkpt>
      <trkpt lat="45.99101" lon="4.75645">
        <ele>178</ele>
        <time>2018-03-04T11:34:17Z</time>
      </trkpt>
      <trkpt lat="45.99096" lon="4.75647">
        <ele>178</ele>
        <time>2018-03-04T11:34:18Z</time>
      </trkpt>
      <trkpt lat="45.99092" lon="4.75649">
        <ele>178</ele>
        <time>2018-03-04T11:34:19Z</time>
      </trkpt>
      <trkpt lat="45.99085" lon="4.75653">
        <ele>179</ele>
        <time>2018-03-04T11:34:21Z</time>
      </trkpt>
      <trkpt lat="45.9908" lon="4.75654">
        <ele>179</ele>
        <time>2018-03-04T11:34:22Z</time>
      </trkpt>
      <trkpt lat="45.99074" lon="4.75656">
        <ele>178</ele>
        <time>2018-03-04T11:34:23Z</time>
      </trkpt>
      <trkpt lat="45.9907" lon="4.75656">
        <ele>178</ele>
        <time>2018-03-04T11:34:24Z</time>
      </trkpt>
      <trkpt lat="45.99061" lon="4.75657">
        <ele>178</ele>
        <time>2018-03-04T11:34:26Z</time>
      </trkpt>
      <trkpt lat="45.99055" lon="4.75658">
        <ele>178</ele>
        <time>2018-03-04T11:34:27Z</time>
      </trkpt>
      <trkpt lat="45.99049" lon="4.75659">
        <ele>178</ele>
        <time>2018-03-04T11:34:28Z</time>
      </trkpt>
      <trkpt lat="45.99044" lon="4.7566">
        <ele>178</ele>
        <time>2018-03-04T11:34:29Z</time>
      </trkpt>
      <trkpt lat="45.99039" lon="4.7566">
        <ele>178</ele>
        <time>2018-03-04T11:34:30Z</time>
      </trkpt>
      <trkpt lat="45.99034" lon="4.75658">
        <ele>178</ele>
        <time>2018-03-04T11:34:31Z</time>
      </trkpt>
      <trkpt lat="45.99029" lon="4.75658">
        <ele>178</ele>
        <time>2018-03-04T11:34:32Z</time>
      </trkpt>
      <trkpt lat="45.99024" lon="4.75658">
        <ele>178</ele>
        <time>2018-03-04T11:34:33Z</time>
      </trkpt>
      <trkpt lat="45.99018" lon="4.75659">
        <ele>178</ele>
        <time>2018-03-04T11:34:34Z</time>
      </trkpt>
      <trkpt lat="45.99012" lon="4.7566">
        <ele>179</ele>
        <time>2018-03-04T11:34:35Z</time>
      </trkpt>
      <trkpt lat="45.99007" lon="4.7566">
        <ele>179</ele>
        <time>2018-03-04T11:34:36Z</time>
      </trkpt>
      <trkpt lat="45.99001" lon="4.75659">
        <ele>179</ele>
        <time>2018-03-04T11:34:37Z</time>
      </trkpt>
      <trkpt lat="45.98996" lon="4.75659">
        <ele>179</ele>
        <time>2018-03-04T11:34:38Z</time>
      </trkpt>
      <trkpt lat="45.9899" lon="4.75659">
        <ele>178</ele>
        <time>2018-03-04T11:34:39Z</time>
      </trkpt>
      <trkpt lat="45.98984" lon="4.7566">
        <ele>178</ele>
        <time>2018-03-04T11:34:40Z</time>
      </trkpt>
      <trkpt lat="45.98978" lon="4.75664">
        <ele>178</ele>
        <time>2018-03-04T11:34:41Z</time>
      </trkpt>
      <trkpt lat="45.98974" lon="4.75667">
        <ele>177</ele>
        <time>2018-03-04T11:34:42Z</time>
      </trkpt>
      <trkpt lat="45.98969" lon="4.75669">
        <ele>181</ele>
        <time>2018-03-04T11:34:43Z</time>
      </trkpt>
      <trkpt lat="45.98963" lon="4.7567">
        <ele>181</ele>
        <time>2018-03-04T11:34:44Z</time>
      </trkpt>
      <trkpt lat="45.98958" lon="4.75672">
        <ele>181</ele>
        <time>2018-03-04T11:34:45Z</time>
      </trkpt>
      <trkpt lat="45.98951" lon="4.75675">
        <ele>181</ele>
        <time>2018-03-04T11:34:47Z</time>
      </trkpt>
      <trkpt lat="45.98946" lon="4.75676">
        <ele>181</ele>
        <time>2018-03-04T11:34:48Z</time>
      </trkpt>
      <trkpt lat="45.9894" lon="4.75678">
        <ele>180</ele>
        <time>2018-03-04T11:34:49Z</time>
      </trkpt>
      <trkpt lat="45.98934" lon="4.7568">
        <ele>180</ele>
        <time>2018-03-04T11:34:50Z</time>
      </trkpt>
      <trkpt lat="45.9893" lon="4.75682">
        <ele>180</ele>
        <time>2018-03-04T11:34:51Z</time>
      </trkpt>
      <trkpt lat="45.98924" lon="4.75683">
        <ele>180</ele>
        <time>2018-03-04T11:34:52Z</time>
      </trkpt>
      <trkpt lat="45.98919" lon="4.75685">
        <ele>180</ele>
        <time>2018-03-04T11:34:53Z</time>
      </trkpt>
      <trkpt lat="45.98915" lon="4.75687">
        <ele>179</ele>
        <time>2018-03-04T11:34:54Z</time>
      </trkpt>
      <trkpt lat="45.98907" lon="4.75691">
        <ele>179</ele>
        <time>2018-03-04T11:34:56Z</time>
      </trkpt>
      <trkpt lat="45.98904" lon="4.75693">
        <ele>179</ele>
        <time>2018-03-04T11:34:57Z</time>
      </trkpt>
      <trkpt lat="45.98899" lon="4.75694">
        <ele>179</ele>
        <time>2018-03-04T11:34:58Z</time>
      </trkpt>
      <trkpt lat="45.98894" lon="4.75696">
        <ele>180</ele>
        <time>2018-03-04T11:34:59Z</time>
      </trkpt>
      <trkpt lat="45.98886" lon="4.75699">
        <ele>180</ele>
        <time>2018-03-04T11:35:01Z</time>
      </trkpt>
      <trkpt lat="45.98881" lon="4.75701">
        <ele>180</ele>
        <time>2018-03-04T11:35:02Z</time>
      </trkpt>
      <trkpt lat="45.98872" lon="4.75703">
        <ele>180</ele>
        <time>2018-03-04T11:35:04Z</time>
      </trkpt>
      <trkpt lat="45.98869" lon="4.75703">
        <ele>180</ele>
        <time>2018-03-04T11:35:05Z</time>
      </trkpt>
      <trkpt lat="45.98864" lon="4.75705">
        <ele>180</ele>
        <time>2018-03-04T11:35:06Z</time>
      </trkpt>
      <trkpt lat="45.9886" lon="4.75706">
        <ele>180</ele>
        <time>2018-03-04T11:35:07Z</time>
      </trkpt>
      <trkpt lat="45.98852" lon="4.75706">
        <ele>180</ele>
        <time>2018-03-04T11:35:09Z</time>
      </trkpt>
      <trkpt lat="45.98847" lon="4.75706">
        <ele>180</ele>
        <time>2018-03-04T11:35:10Z</time>
      </trkpt>
      <trkpt lat="45.9884" lon="4.75709">
        <ele>180</ele>
        <time>2018-03-04T11:35:12Z</time>
      </trkpt>
      <trkpt lat="45.98836" lon="4.7571">
        <ele>180</ele>
        <time>2018-03-04T11:35:13Z</time>
      </trkpt>
      <trkpt lat="45.98828" lon="4.75712">
        <ele>179</ele>
        <time>2018-03-04T11:35:15Z</time>
      </trkpt>
      <trkpt lat="45.98823" lon="4.75714">
        <ele>179</ele>
        <time>2018-03-04T11:35:16Z</time>
      </trkpt>
      <trkpt lat="45.98815" lon="4.75715">
        <ele>179</ele>
        <time>2018-03-04T11:35:18Z</time>
      </trkpt>
      <trkpt lat="45.98813" lon="4.75715">
        <ele>179</ele>
        <time>2018-03-04T11:35:19Z</time>
      </trkpt>
      <trkpt lat="45.98808" lon="4.75714">
        <ele>179</ele>
        <time>2018-03-04T11:35:20Z</time>
      </trkpt>
      <trkpt lat="45.98803" lon="4.75714">
        <ele>178</ele>
        <time>2018-03-04T11:35:21Z</time>
      </trkpt>
      <trkpt lat="45.98795" lon="4.75716">
        <ele>178</ele>
        <time>2018-03-04T11:35:23Z</time>
      </trkpt>
      <trkpt lat="45.98791" lon="4.75718">
        <ele>178</ele>
        <time>2018-03-04T11:35:24Z</time>
      </trkpt>
      <trkpt lat="45.98785" lon="4.75719">
        <ele>178</ele>
        <time>2018-03-04T11:35:26Z</time>
      </trkpt>
      <trkpt lat="45.9878" lon="4.75718">
        <ele>178</ele>
        <time>2018-03-04T11:35:27Z</time>
      </trkpt>
      <trkpt lat="45.98772" lon="4.75716">
        <ele>178</ele>
        <time>2018-03-04T11:35:29Z</time>
      </trkpt>
      <trkpt lat="45.9877" lon="4.75715">
        <ele>178</ele>
        <time>2018-03-04T11:35:30Z</time>
      </trkpt>
      <trkpt lat="45.98762" lon="4.75718">
        <ele>178</ele>
        <time>2018-03-04T11:35:32Z</time>
      </trkpt>
      <trkpt lat="45.9876" lon="4.7572">
        <ele>178</ele>
        <time>2018-03-04T11:35:33Z</time>
      </trkpt>
      <trkpt lat="45.98751" lon="4.75722">
        <ele>178</ele>
        <time>2018-03-04T11:35:35Z</time>
      </trkpt>
      <trkpt lat="45.98746" lon="4.75723">
        <ele>177</ele>
        <time>2018-03-04T11:35:36Z</time>
      </trkpt>
      <trkpt lat="45.9874" lon="4.75723">
        <ele>177</ele>
        <time>2018-03-04T11:35:37Z</time>
      </trkpt>
      <trkpt lat="45.98735" lon="4.75723">
        <ele>177</ele>
        <time>2018-03-04T11:35:38Z</time>
      </trkpt>
      <trkpt lat="45.9873" lon="4.75722">
        <ele>177</ele>
        <time>2018-03-04T11:35:39Z</time>
      </trkpt>
      <trkpt lat="45.98724" lon="4.75722">
        <ele>177</ele>
        <time>2018-03-04T11:35:40Z</time>
      </trkpt>
      <trkpt lat="45.98719" lon="4.75724">
        <ele>177</ele>
        <time>2018-03-04T11:35:41Z</time>
      </trkpt>
      <trkpt lat="45.98714" lon="4.75725">
        <ele>177</ele>
        <time>2018-03-04T11:35:42Z</time>
      </trkpt>
      <trkpt lat="45.98708" lon="4.75725">
        <ele>177</ele>
        <time>2018-03-04T11:35:43Z</time>
      </trkpt>
      <trkpt lat="45.98704" lon="4.75725">
        <ele>177</ele>
        <time>2018-03-04T11:35:44Z</time>
      </trkpt>
      <trkpt lat="45.98699" lon="4.75725">
        <ele>177</ele>
        <time>2018-03-04T11:35:45Z</time>
      </trkpt>
      <trkpt lat="45.98695" lon="4.75724">
        <ele>177</ele>
        <time>2018-03-04T11:35:46Z</time>
      </trkpt>
      <trkpt lat="45.98689" lon="4.75725">
        <ele>177</ele>
        <time>2018-03-04T11:35:47Z</time>
      </trkpt>
      <trkpt lat="45.98684" lon="4.75725">
        <ele>177</ele>
        <time>2018-03-04T11:35:48Z</time>
      </trkpt>
      <trkpt lat="45.98679" lon="4.75726">
        <ele>177</ele>
        <time>2018-03-04T11:35:49Z</time>
      </trkpt>
      <trkpt lat="45.98673" lon="4.75726">
        <ele>177</ele>
        <time>2018-03-04T11:35:50Z</time>
      </trkpt>
      <trkpt lat="45.98668" lon="4.75726">
        <ele>177</ele>
        <time>2018-03-04T11:35:51Z</time>
      </trkpt>
      <trkpt lat="45.98662" lon="4.75725">
        <ele>176</ele>
        <time>2018-03-04T11:35:52Z</time>
      </trkpt>
      <trkpt lat="45.98654" lon="4.75725">
        <ele>176</ele>
        <time>2018-03-04T11:35:54Z</time>
      </trkpt>
      <trkpt lat="45.98648" lon="4.75726">
        <ele>176</ele>
        <time>2018-03-04T11:35:55Z</time>
      </trkpt>
      <trkpt lat="45.98643" lon="4.75725">
        <ele>175</ele>
        <time>2018-03-04T11:35:56Z</time>
      </trkpt>
      <trkpt lat="45.98637" lon="4.75725">
        <ele>175</ele>
        <time>2018-03-04T11:35:57Z</time>
      </trkpt>
      <trkpt lat="45.98632" lon="4.75725">
        <ele>175</ele>
        <time>2018-03-04T11:35:58Z</time>
      </trkpt>
      <trkpt lat="45.98627" lon="4.75726">
        <ele>175</ele>
        <time>2018-03-04T11:35:59Z</time>
      </trkpt>
      <trkpt lat="45.98622" lon="4.75727">
        <ele>175</ele>
        <time>2018-03-04T11:36:00Z</time>
      </trkpt>
      <trkpt lat="45.98615" lon="4.75728">
        <ele>175</ele>
        <time>2018-03-04T11:36:01Z</time>
      </trkpt>
      <trkpt lat="45.9861" lon="4.75729">
        <ele>175</ele>
        <time>2018-03-04T11:36:02Z</time>
      </trkpt>
      <trkpt lat="45.98605" lon="4.7573">
        <ele>174</ele>
        <time>2018-03-04T11:36:03Z</time>
      </trkpt>
      <trkpt lat="45.98597" lon="4.75733">
        <ele>174</ele>
        <time>2018-03-04T11:36:06Z</time>
      </trkpt>
      <trkpt lat="45.98595" lon="4.75733">
        <ele>174</ele>
        <time>2018-03-04T11:36:07Z</time>
      </trkpt>
      <trkpt lat="45.98587" lon="4.75728">
        <ele>174</ele>
        <time>2018-03-04T11:36:12Z</time>
      </trkpt>
      <trkpt lat="45.98577" lon="4.75722">
        <ele>174</ele>
        <time>2018-03-04T11:36:13Z</time>
      </trkpt>
      <trkpt lat="45.98572" lon="4.7572">
        <ele>174</ele>
        <time>2018-03-04T11:36:14Z</time>
      </trkpt>
      <trkpt lat="45.98567" lon="4.75719">
        <ele>174</ele>
        <time>2018-03-04T11:36:15Z</time>
      </trkpt>
      <trkpt lat="45.98561" lon="4.75718">
        <ele>174</ele>
        <time>2018-03-04T11:36:16Z</time>
      </trkpt>
      <trkpt lat="45.98556" lon="4.75717">
        <ele>174</ele>
        <time>2018-03-04T11:36:17Z</time>
      </trkpt>
      <trkpt lat="45.98547" lon="4.75717">
        <ele>174</ele>
        <time>2018-03-04T11:36:19Z</time>
      </trkpt>
      <trkpt lat="45.98543" lon="4.75718">
        <ele>174</ele>
        <time>2018-03-04T11:36:20Z</time>
      </trkpt>
      <trkpt lat="45.98536" lon="4.75716">
        <ele>174</ele>
        <time>2018-03-04T11:36:22Z</time>
      </trkpt>
      <trkpt lat="45.98531" lon="4.75716">
        <ele>174</ele>
        <time>2018-03-04T11:36:23Z</time>
      </trkpt>
      <trkpt lat="45.98523" lon="4.75713">
        <ele>174</ele>
        <time>2018-03-04T11:36:26Z</time>
      </trkpt>
      <trkpt lat="45.98521" lon="4.75712">
        <ele>174</ele>
        <time>2018-03-04T11:36:27Z</time>
      </trkpt>
      <trkpt lat="45.98512" lon="4.75713">
        <ele>174</ele>
        <time>2018-03-04T11:36:30Z</time>
      </trkpt>
      <trkpt lat="45.98509" lon="4.75712">
        <ele>174</ele>
        <time>2018-03-04T11:36:31Z</time>
      </trkpt>
      <trkpt lat="45.98501" lon="4.7571">
        <ele>174</ele>
        <time>2018-03-04T11:37:30Z</time>
      </trkpt>
      <trkpt lat="45.985" lon="4.75709">
        <ele>175</ele>
        <time>2018-03-04T11:37:31Z</time>
      </trkpt>
      <trkpt lat="45.98494" lon="4.75699">
        <ele>174</ele>
        <time>2018-03-04T11:37:36Z</time>
      </trkpt>
      <trkpt lat="45.98493" lon="4.75696">
        <ele>174</ele>
        <time>2018-03-04T11:37:37Z</time>
      </trkpt>
      <trkpt lat="45.98487" lon="4.75688">
        <ele>174</ele>
        <time>2018-03-04T11:37:42Z</time>
      </trkpt>
      <trkpt lat="45.98485" lon="4.75688">
        <ele>174</ele>
        <time>2018-03-04T11:37:43Z</time>
      </trkpt>
      <trkpt lat="45.98481" lon="4.75691">
        <ele>174</ele>
        <time>2018-03-04T11:37:45Z</time>
      </trkpt>
      <trkpt lat="45.98472" lon="4.757">
        <ele>174</ele>
        <time>2018-03-04T11:37:46Z</time>
      </trkpt>
      <trkpt lat="45.98465" lon="4.75703">
        <ele>174</ele>
        <time>2018-03-04T11:37:48Z</time>
      </trkpt>
      <trkpt lat="45.98461" lon="4.75703">
        <ele>174</ele>
        <time>2018-03-04T11:37:49Z</time>
      </trkpt>
      <trkpt lat="45.98453" lon="4.757">
        <ele>175</ele>
        <time>2018-03-04T11:37:51Z</time>
      </trkpt>
      <trkpt lat="45.98448" lon="4.75699">
        <ele>175</ele>
        <time>2018-03-04T11:37:52Z</time>
      </trkpt>
      <trkpt lat="45.9844" lon="4.75698">
        <ele>175</ele>
        <time>2018-03-04T11:37:53Z</time>
      </trkpt>
      <trkpt lat="45.98435" lon="4.75698">
        <ele>175</ele>
        <time>2018-03-04T11:37:54Z</time>
      </trkpt>
      <trkpt lat="45.98427" lon="4.75697">
        <ele>175</ele>
        <time>2018-03-04T11:37:56Z</time>
      </trkpt>
      <trkpt lat="45.9842" lon="4.75696">
        <ele>175</ele>
        <time>2018-03-04T11:37:57Z</time>
      </trkpt>
      <trkpt lat="45.98415" lon="4.75695">
        <ele>174</ele>
        <time>2018-03-04T11:37:58Z</time>
      </trkpt>
      <trkpt lat="45.98411" lon="4.75695">
        <ele>174</ele>
        <time>2018-03-04T11:37:59Z</time>
      </trkpt>
      <trkpt lat="45.98404" lon="4.75693">
        <ele>174</ele>
        <time>2018-03-04T11:38:01Z</time>
      </trkpt>
      <trkpt lat="45.984" lon="4.75693">
        <ele>174</ele>
        <time>2018-03-04T11:38:02Z</time>
      </trkpt>
      <trkpt lat="45.98393" lon="4.75689">
        <ele>174</ele>
        <time>2018-03-04T11:38:04Z</time>
      </trkpt>
      <trkpt lat="45.98388" lon="4.75687">
        <ele>174</ele>
        <time>2018-03-04T11:38:05Z</time>
      </trkpt>
      <trkpt lat="45.9838" lon="4.75687">
        <ele>174</ele>
        <time>2018-03-04T11:38:07Z</time>
      </trkpt>
      <trkpt lat="45.98374" lon="4.75691">
        <ele>174</ele>
        <time>2018-03-04T11:38:08Z</time>
      </trkpt>
      <trkpt lat="45.98369" lon="4.75693">
        <ele>174</ele>
        <time>2018-03-04T11:38:09Z</time>
      </trkpt>
      <trkpt lat="45.98363" lon="4.75695">
        <ele>174</ele>
        <time>2018-03-04T11:38:10Z</time>
      </trkpt>
      <trkpt lat="45.98358" lon="4.75694">
        <ele>174</ele>
        <time>2018-03-04T11:38:11Z</time>
      </trkpt>
      <trkpt lat="45.98353" lon="4.75692">
        <ele>174</ele>
        <time>2018-03-04T11:38:12Z</time>
      </trkpt>
      <trkpt lat="45.98348" lon="4.75691">
        <ele>174</ele>
        <time>2018-03-04T11:38:13Z</time>
      </trkpt>
      <trkpt lat="45.98343" lon="4.7569">
        <ele>174</ele>
        <time>2018-03-04T11:38:14Z</time>
      </trkpt>
      <trkpt lat="45.98338" lon="4.7569">
        <ele>174</ele>
        <time>2018-03-04T11:38:15Z</time>
      </trkpt>
      <trkpt lat="45.98333" lon="4.75688">
        <ele>174</ele>
        <time>2018-03-04T11:38:16Z</time>
      </trkpt>
      <trkpt lat="45.98327" lon="4.75689">
        <ele>174</ele>
        <time>2018-03-04T11:38:17Z</time>
      </trkpt>
      <trkpt lat="45.98322" lon="4.75686">
        <ele>174</ele>
        <time>2018-03-04T11:38:18Z</time>
      </trkpt>
      <trkpt lat="45.98315" lon="4.75685">
        <ele>174</ele>
        <time>2018-03-04T11:38:20Z</time>
      </trkpt>
      <trkpt lat="45.98309" lon="4.75684">
        <ele>174</ele>
        <time>2018-03-04T11:38:21Z</time>
      </trkpt>
      <trkpt lat="45.98305" lon="4.75684">
        <ele>174</ele>
        <time>2018-03-04T11:38:22Z</time>
      </trkpt>
      <trkpt lat="45.983" lon="4.75684">
        <ele>174</ele>
        <time>2018-03-04T11:38:23Z</time>
      </trkpt>
      <trkpt lat="45.98291" lon="4.75681">
        <ele>174</ele>
        <time>2018-03-04T11:38:25Z</time>
      </trkpt>
      <trkpt lat="45.98288" lon="4.75681">
        <ele>174</ele>
        <time>2018-03-04T11:38:26Z</time>
      </trkpt>
      <trkpt lat="45.98284" lon="4.75681">
        <ele>174</ele>
        <time>2018-03-04T11:38:27Z</time>
      </trkpt>
      <trkpt lat="45.98278" lon="4.75681">
        <ele>174</ele>
        <time>2018-03-04T11:38:28Z</time>
      </trkpt>
      <trkpt lat="45.9827" lon="4.75682">
        <ele>174</ele>
        <time>2018-03-04T11:38:30Z</time>
      </trkpt>
      <trkpt lat="45.98265" lon="4.75682">
        <ele>173</ele>
        <time>2018-03-04T11:38:31Z</time>
      </trkpt>
      <trkpt lat="45.98257" lon="4.75683">
        <ele>173</ele>
        <time>2018-03-04T11:38:33Z</time>
      </trkpt>
      <trkpt lat="45.98252" lon="4.75682">
        <ele>173</ele>
        <time>2018-03-04T11:38:34Z</time>
      </trkpt>
      <trkpt lat="45.98245" lon="4.75682">
        <ele>173</ele>
        <time>2018-03-04T11:38:36Z</time>
      </trkpt>
      <trkpt lat="45.98241" lon="4.75682">
        <ele>173</ele>
        <time>2018-03-04T11:38:37Z</time>
      </trkpt>
      <trkpt lat="45.98233" lon="4.75682">
        <ele>174</ele>
        <time>2018-03-04T11:38:39Z</time>
      </trkpt>
      <trkpt lat="45.98229" lon="4.75683">
        <ele>174</ele>
        <time>2018-03-04T11:38:40Z</time>
      </trkpt>
      <trkpt lat="45.98221" lon="4.75685">
        <ele>174</ele>
        <time>2018-03-04T11:38:42Z</time>
      </trkpt>
      <trkpt lat="45.98217" lon="4.75685">
        <ele>174</ele>
        <time>2018-03-04T11:38:43Z</time>
      </trkpt>
      <trkpt lat="45.98213" lon="4.75686">
        <ele>174</ele>
        <time>2018-03-04T11:38:44Z</time>
      </trkpt>
      <trkpt lat="45.98208" lon="4.75687">
        <ele>174</ele>
        <time>2018-03-04T11:38:45Z</time>
      </trkpt>
      <trkpt lat="45.982" lon="4.75687">
        <ele>174</ele>
        <time>2018-03-04T11:38:47Z</time>
      </trkpt>
      <trkpt lat="45.98196" lon="4.75687">
        <ele>174</ele>
        <time>2018-03-04T11:38:48Z</time>
      </trkpt>
      <trkpt lat="45.98187" lon="4.75688">
        <ele>174</ele>
        <time>2018-03-04T11:38:50Z</time>
      </trkpt>
      <trkpt lat="45.98184" lon="4.75688">
        <ele>174</ele>
        <time>2018-03-04T11:38:51Z</time>
      </trkpt>
      <trkpt lat="45.98176" lon="4.75689">
        <ele>174</ele>
        <time>2018-03-04T11:38:53Z</time>
      </trkpt>
      <trkpt lat="45.98172" lon="4.75689">
        <ele>174</ele>
        <time>2018-03-04T11:38:54Z</time>
      </trkpt>
      <trkpt lat="45.98164" lon="4.75691">
        <ele>174</ele>
        <time>2018-03-04T11:38:56Z</time>
      </trkpt>
      <trkpt lat="45.98159" lon="4.75691">
        <ele>174</ele>
        <time>2018-03-04T11:38:57Z</time>
      </trkpt>
      <trkpt lat="45.98152" lon="4.7569">
        <ele>174</ele>
        <time>2018-03-04T11:38:59Z</time>
      </trkpt>
      <trkpt lat="45.98148" lon="4.75691">
        <ele>174</ele>
        <time>2018-03-04T11:39:00Z</time>
      </trkpt>
      <trkpt lat="45.9814" lon="4.75691">
        <ele>174</ele>
        <time>2018-03-04T11:39:02Z</time>
      </trkpt>
      <trkpt lat="45.98135" lon="4.75692">
        <ele>174</ele>
        <time>2018-03-04T11:39:03Z</time>
      </trkpt>
      <trkpt lat="45.9813" lon="4.75692">
        <ele>174</ele>
        <time>2018-03-04T11:39:04Z</time>
      </trkpt>
      <trkpt lat="45.98124" lon="4.75693">
        <ele>174</ele>
        <time>2018-03-04T11:39:05Z</time>
      </trkpt>
      <trkpt lat="45.98119" lon="4.75695">
        <ele>174</ele>
        <time>2018-03-04T11:39:06Z</time>
      </trkpt>
      <trkpt lat="45.98115" lon="4.75695">
        <ele>174</ele>
        <time>2018-03-04T11:39:07Z</time>
      </trkpt>
      <trkpt lat="45.98106" lon="4.75696">
        <ele>174</ele>
        <time>2018-03-04T11:39:09Z</time>
      </trkpt>
      <trkpt lat="45.98102" lon="4.75697">
        <ele>174</ele>
        <time>2018-03-04T11:39:10Z</time>
      </trkpt>
      <trkpt lat="45.98097" lon="4.75697">
        <ele>174</ele>
        <time>2018-03-04T11:39:11Z</time>
      </trkpt>
      <trkpt lat="45.98092" lon="4.75697">
        <ele>174</ele>
        <time>2018-03-04T11:39:12Z</time>
      </trkpt>
      <trkpt lat="45.98086" lon="4.75698">
        <ele>174</ele>
        <time>2018-03-04T11:39:13Z</time>
      </trkpt>
      <trkpt lat="45.98082" lon="4.75698">
        <ele>174</ele>
        <time>2018-03-04T11:39:14Z</time>
      </trkpt>
      <trkpt lat="45.98074" lon="4.757">
        <ele>174</ele>
        <time>2018-03-04T11:39:16Z</time>
      </trkpt>
      <trkpt lat="45.98069" lon="4.757">
        <ele>174</ele>
        <time>2018-03-04T11:39:17Z</time>
      </trkpt>
      <trkpt lat="45.9806" lon="4.757">
        <ele>174</ele>
        <time>2018-03-04T11:39:19Z</time>
      </trkpt>
      <trkpt lat="45.98057" lon="4.75701">
        <ele>174</ele>
        <time>2018-03-04T11:39:20Z</time>
      </trkpt>
      <trkpt lat="45.98048" lon="4.75701">
        <ele>174</ele>
        <time>2018-03-04T11:39:22Z</time>
      </trkpt>
      <trkpt lat="45.98044" lon="4.75702">
        <ele>174</ele>
        <time>2018-03-04T11:39:23Z</time>
      </trkpt>
      <trkpt lat="45.98039" lon="4.75703">
        <ele>174</ele>
        <time>2018-03-04T11:39:24Z</time>
      </trkpt>
      <trkpt lat="45.98035" lon="4.75704">
        <ele>174</ele>
        <time>2018-03-04T11:39:25Z</time>
      </trkpt>
      <trkpt lat="45.98026" lon="4.75706">
        <ele>174</ele>
        <time>2018-03-04T11:39:27Z</time>
      </trkpt>
      <trkpt lat="45.98022" lon="4.75706">
        <ele>174</ele>
        <time>2018-03-04T11:39:28Z</time>
      </trkpt>
      <trkpt lat="45.98017" lon="4.75709">
        <ele>174</ele>
        <time>2018-03-04T11:39:29Z</time>
      </trkpt>
      <trkpt lat="45.98013" lon="4.7571">
        <ele>174</ele>
        <time>2018-03-04T11:39:30Z</time>
      </trkpt>
      <trkpt lat="45.98005" lon="4.75714">
        <ele>174</ele>
        <time>2018-03-04T11:39:32Z</time>
      </trkpt>
      <trkpt lat="45.98001" lon="4.75715">
        <ele>174</ele>
        <time>2018-03-04T11:39:33Z</time>
      </trkpt>
      <trkpt lat="45.97996" lon="4.75717">
        <ele>174</ele>
        <time>2018-03-04T11:39:34Z</time>
      </trkpt>
      <trkpt lat="45.97992" lon="4.75719">
        <ele>174</ele>
        <time>2018-03-04T11:39:35Z</time>
      </trkpt>
      <trkpt lat="45.97987" lon="4.7572">
        <ele>174</ele>
        <time>2018-03-04T11:39:36Z</time>
      </trkpt>
      <trkpt lat="45.97983" lon="4.75722">
        <ele>174</ele>
        <time>2018-03-04T11:39:37Z</time>
      </trkpt>
      <trkpt lat="45.97978" lon="4.75725">
        <ele>174</ele>
        <time>2018-03-04T11:39:38Z</time>
      </trkpt>
      <trkpt lat="45.97973" lon="4.75727">
        <ele>174</ele>
        <time>2018-03-04T11:39:39Z</time>
      </trkpt>
      <trkpt lat="45.97965" lon="4.7573">
        <ele>174</ele>
        <time>2018-03-04T11:39:41Z</time>
      </trkpt>
      <trkpt lat="45.97961" lon="4.75732">
        <ele>174</ele>
        <time>2018-03-04T11:39:42Z</time>
      </trkpt>
      <trkpt lat="45.97956" lon="4.75732">
        <ele>174</ele>
        <time>2018-03-04T11:39:43Z</time>
      </trkpt>
      <trkpt lat="45.97951" lon="4.75731">
        <ele>174</ele>
        <time>2018-03-04T11:39:44Z</time>
      </trkpt>
      <trkpt lat="45.97942" lon="4.75729">
        <ele>174</ele>
        <time>2018-03-04T11:39:46Z</time>
      </trkpt>
      <trkpt lat="45.97938" lon="4.75727">
        <ele>174</ele>
        <time>2018-03-04T11:39:47Z</time>
      </trkpt>
      <trkpt lat="45.97933" lon="4.75725">
        <ele>174</ele>
        <time>2018-03-04T11:39:48Z</time>
      </trkpt>
      <trkpt lat="45.97928" lon="4.75722">
        <ele>174</ele>
        <time>2018-03-04T11:39:49Z</time>
      </trkpt>
      <trkpt lat="45.97923" lon="4.75719">
        <ele>174</ele>
        <time>2018-03-04T11:39:50Z</time>
      </trkpt>
      <trkpt lat="45.97918" lon="4.75715">
        <ele>174</ele>
        <time>2018-03-04T11:39:51Z</time>
      </trkpt>
      <trkpt lat="45.97913" lon="4.75712">
        <ele>175</ele>
        <time>2018-03-04T11:39:52Z</time>
      </trkpt>
      <trkpt lat="45.97907" lon="4.75709">
        <ele>175</ele>
        <time>2018-03-04T11:39:53Z</time>
      </trkpt>
      <trkpt lat="45.97902" lon="4.75704">
        <ele>175</ele>
        <time>2018-03-04T11:39:54Z</time>
      </trkpt>
      <trkpt lat="45.97897" lon="4.75701">
        <ele>175</ele>
        <time>2018-03-04T11:39:55Z</time>
      </trkpt>
      <trkpt lat="45.97892" lon="4.75698">
        <ele>175</ele>
        <time>2018-03-04T11:39:56Z</time>
      </trkpt>
      <trkpt lat="45.97887" lon="4.75696">
        <ele>175</ele>
        <time>2018-03-04T11:39:57Z</time>
      </trkpt>
      <trkpt lat="45.97881" lon="4.75692">
        <ele>175</ele>
        <time>2018-03-04T11:39:58Z</time>
      </trkpt>
      <trkpt lat="45.97877" lon="4.75689">
        <ele>175</ele>
        <time>2018-03-04T11:39:59Z</time>
      </trkpt>
      <trkpt lat="45.97872" lon="4.75686">
        <ele>175</ele>
        <time>2018-03-04T11:40:00Z</time>
      </trkpt>
      <trkpt lat="45.97867" lon="4.75684">
        <ele>175</ele>
        <time>2018-03-04T11:40:01Z</time>
      </trkpt>
      <trkpt lat="45.97861" lon="4.75682">
        <ele>175</ele>
        <time>2018-03-04T11:40:02Z</time>
      </trkpt>
      <trkpt lat="45.97855" lon="4.7568">
        <ele>175</ele>
        <time>2018-03-04T11:40:03Z</time>
      </trkpt>
      <trkpt lat="45.97849" lon="4.75677">
        <ele>175</ele>
        <time>2018-03-04T11:40:04Z</time>
      </trkpt>
      <trkpt lat="45.97844" lon="4.75676">
        <ele>175</ele>
        <time>2018-03-04T11:40:05Z</time>
      </trkpt>
      <trkpt lat="45.97838" lon="4.75675">
        <ele>175</ele>
        <time>2018-03-04T11:40:06Z</time>
      </trkpt>
      <trkpt lat="45.97832" lon="4.75674">
        <ele>175</ele>
        <time>2018-03-04T11:40:07Z</time>
      </trkpt>
      <trkpt lat="45.97827" lon="4.75673">
        <ele>175</ele>
        <time>2018-03-04T11:40:08Z</time>
      </trkpt>
      <trkpt lat="45.97821" lon="4.75672">
        <ele>175</ele>
        <time>2018-03-04T11:40:09Z</time>
      </trkpt>
      <trkpt lat="45.97816" lon="4.75671">
        <ele>175</ele>
        <time>2018-03-04T11:40:10Z</time>
      </trkpt>
      <trkpt lat="45.97811" lon="4.75671">
        <ele>175</ele>
        <time>2018-03-04T11:40:11Z</time>
      </trkpt>
      <trkpt lat="45.97806" lon="4.75671">
        <ele>175</ele>
        <time>2018-03-04T11:40:12Z</time>
      </trkpt>
      <trkpt lat="45.97801" lon="4.75669">
        <ele>175</ele>
        <time>2018-03-04T11:40:13Z</time>
      </trkpt>
      <trkpt lat="45.97795" lon="4.75668">
        <ele>174</ele>
        <time>2018-03-04T11:40:14Z</time>
      </trkpt>
      <trkpt lat="45.97788" lon="4.75667">
        <ele>174</ele>
        <time>2018-03-04T11:40:15Z</time>
      </trkpt>
      <trkpt lat="45.97782" lon="4.75667">
        <ele>174</ele>
        <time>2018-03-04T11:40:16Z</time>
      </trkpt>
      <trkpt lat="45.97776" lon="4.75667">
        <ele>174</ele>
        <time>2018-03-04T11:40:17Z</time>
      </trkpt>
      <trkpt lat="45.97771" lon="4.75668">
        <ele>174</ele>
        <time>2018-03-04T11:40:18Z</time>
      </trkpt>
      <trkpt lat="45.97766" lon="4.75668">
        <ele>173</ele>
        <time>2018-03-04T11:40:19Z</time>
      </trkpt>
      <trkpt lat="45.97759" lon="4.75669">
        <ele>173</ele>
        <time>2018-03-04T11:40:20Z</time>
      </trkpt>
      <trkpt lat="45.97753" lon="4.75669">
        <ele>172</ele>
        <time>2018-03-04T11:40:21Z</time>
      </trkpt>
      <trkpt lat="45.97748" lon="4.75668">
        <ele>172</ele>
        <time>2018-03-04T11:40:22Z</time>
      </trkpt>
      <trkpt lat="45.97742" lon="4.75669">
        <ele>172</ele>
        <time>2018-03-04T11:40:23Z</time>
      </trkpt>
      <trkpt lat="45.97738" lon="4.75669">
        <ele>172</ele>
        <time>2018-03-04T11:40:24Z</time>
      </trkpt>
      <trkpt lat="45.97733" lon="4.7567">
        <ele>172</ele>
        <time>2018-03-04T11:40:25Z</time>
      </trkpt>
      <trkpt lat="45.97728" lon="4.7567">
        <ele>172</ele>
        <time>2018-03-04T11:40:26Z</time>
      </trkpt>
      <trkpt lat="45.97723" lon="4.7567">
        <ele>171</ele>
        <time>2018-03-04T11:40:27Z</time>
      </trkpt>
      <trkpt lat="45.97719" lon="4.7567">
        <ele>171</ele>
        <time>2018-03-04T11:40:28Z</time>
      </trkpt>
      <trkpt lat="45.97714" lon="4.7567">
        <ele>171</ele>
        <time>2018-03-04T11:40:29Z</time>
      </trkpt>
      <trkpt lat="45.97709" lon="4.75671">
        <ele>171</ele>
        <time>2018-03-04T11:40:30Z</time>
      </trkpt>
      <trkpt lat="45.97704" lon="4.7567">
        <ele>171</ele>
        <time>2018-03-04T11:40:31Z</time>
      </trkpt>
      <trkpt lat="45.97695" lon="4.75668">
        <ele>171</ele>
        <time>2018-03-04T11:40:33Z</time>
      </trkpt>
      <trkpt lat="45.9769" lon="4.75668">
        <ele>171</ele>
        <time>2018-03-04T11:40:34Z</time>
      </trkpt>
      <trkpt lat="45.97684" lon="4.75668">
        <ele>170</ele>
        <time>2018-03-04T11:40:35Z</time>
      </trkpt>
      <trkpt lat="45.97679" lon="4.75669">
        <ele>170</ele>
        <time>2018-03-04T11:40:36Z</time>
      </trkpt>
      <trkpt lat="45.97673" lon="4.75669">
        <ele>170</ele>
        <time>2018-03-04T11:40:37Z</time>
      </trkpt>
      <trkpt lat="45.97668" lon="4.75669">
        <ele>169</ele>
        <time>2018-03-04T11:40:38Z</time>
      </trkpt>
      <trkpt lat="45.97663" lon="4.7567">
        <ele>169</ele>
        <time>2018-03-04T11:40:39Z</time>
      </trkpt>
      <trkpt lat="45.97657" lon="4.7567">
        <ele>170</ele>
        <time>2018-03-04T11:40:40Z</time>
      </trkpt>
      <trkpt lat="45.97651" lon="4.7567">
        <ele>170</ele>
        <time>2018-03-04T11:40:41Z</time>
      </trkpt>
      <trkpt lat="45.97646" lon="4.75671">
        <ele>170</ele>
        <time>2018-03-04T11:40:42Z</time>
      </trkpt>
      <trkpt lat="45.97641" lon="4.75671">
        <ele>170</ele>
        <time>2018-03-04T11:40:43Z</time>
      </trkpt>
      <trkpt lat="45.97636" lon="4.75671">
        <ele>170</ele>
        <time>2018-03-04T11:40:44Z</time>
      </trkpt>
      <trkpt lat="45.9763" lon="4.75671">
        <ele>171</ele>
        <time>2018-03-04T11:40:45Z</time>
      </trkpt>
      <trkpt lat="45.97625" lon="4.75671">
        <ele>171</ele>
        <time>2018-03-04T11:40:46Z</time>
      </trkpt>
      <trkpt lat="45.9762" lon="4.75671">
        <ele>171</ele>
        <time>2018-03-04T11:40:47Z</time>
      </trkpt>
      <trkpt lat="45.97616" lon="4.75671">
        <ele>171</ele>
        <time>2018-03-04T11:40:48Z</time>
      </trkpt>
      <trkpt lat="45.97611" lon="4.75671">
        <ele>171</ele>
        <time>2018-03-04T11:40:49Z</time>
      </trkpt>
      <trkpt lat="45.97606" lon="4.75672">
        <ele>171</ele>
        <time>2018-03-04T11:40:50Z</time>
      </trkpt>
      <trkpt lat="45.97601" lon="4.75674">
        <ele>171</ele>
        <time>2018-03-04T11:40:51Z</time>
      </trkpt>
      <trkpt lat="45.97597" lon="4.75677">
        <ele>171</ele>
        <time>2018-03-04T11:40:52Z</time>
      </trkpt>
      <trkpt lat="45.97593" lon="4.7568">
        <ele>171</ele>
        <time>2018-03-04T11:40:53Z</time>
      </trkpt>
      <trkpt lat="45.97588" lon="4.75683">
        <ele>171</ele>
        <time>2018-03-04T11:40:54Z</time>
      </trkpt>
      <trkpt lat="45.9758" lon="4.75685">
        <ele>171</ele>
        <time>2018-03-04T11:40:56Z</time>
      </trkpt>
      <trkpt lat="45.97576" lon="4.75682">
        <ele>171</ele>
        <time>2018-03-04T11:40:57Z</time>
      </trkpt>
      <trkpt lat="45.97571" lon="4.75673">
        <ele>171</ele>
        <time>2018-03-04T11:40:59Z</time>
      </trkpt>
      <trkpt lat="45.97567" lon="4.75669">
        <ele>171</ele>
        <time>2018-03-04T11:41:00Z</time>
      </trkpt>
      <trkpt lat="45.97563" lon="4.75666">
        <ele>170</ele>
        <time>2018-03-04T11:41:01Z</time>
      </trkpt>
      <trkpt lat="45.97558" lon="4.75666">
        <ele>169</ele>
        <time>2018-03-04T11:41:02Z</time>
      </trkpt>
      <trkpt lat="45.97554" lon="4.75665">
        <ele>169</ele>
        <time>2018-03-04T11:41:03Z</time>
      </trkpt>
      <trkpt lat="45.97549" lon="4.75663">
        <ele>169</ele>
        <time>2018-03-04T11:41:04Z</time>
      </trkpt>
      <trkpt lat="45.97544" lon="4.7566">
        <ele>169</ele>
        <time>2018-03-04T11:41:05Z</time>
      </trkpt>
      <trkpt lat="45.97539" lon="4.75659">
        <ele>169</ele>
        <time>2018-03-04T11:41:06Z</time>
      </trkpt>
      <trkpt lat="45.97533" lon="4.75659">
        <ele>169</ele>
        <time>2018-03-04T11:41:07Z</time>
      </trkpt>
      <trkpt lat="45.97529" lon="4.75659">
        <ele>169</ele>
        <time>2018-03-04T11:41:08Z</time>
      </trkpt>
      <trkpt lat="45.97524" lon="4.75661">
        <ele>169</ele>
        <time>2018-03-04T11:41:09Z</time>
      </trkpt>
      <trkpt lat="45.97519" lon="4.75663">
        <ele>169</ele>
        <time>2018-03-04T11:41:10Z</time>
      </trkpt>
      <trkpt lat="45.97514" lon="4.75665">
        <ele>169</ele>
        <time>2018-03-04T11:41:11Z</time>
      </trkpt>
      <trkpt lat="45.97509" lon="4.75667">
        <ele>171</ele>
        <time>2018-03-04T11:41:12Z</time>
      </trkpt>
      <trkpt lat="45.97504" lon="4.75669">
        <ele>170</ele>
        <time>2018-03-04T11:41:13Z</time>
      </trkpt>
      <trkpt lat="45.975" lon="4.7567">
        <ele>170</ele>
        <time>2018-03-04T11:41:14Z</time>
      </trkpt>
      <trkpt lat="45.97492" lon="4.75673">
        <ele>170</ele>
        <time>2018-03-04T11:41:16Z</time>
      </trkpt>
      <trkpt lat="45.97488" lon="4.75674">
        <ele>170</ele>
        <time>2018-03-04T11:41:17Z</time>
      </trkpt>
      <trkpt lat="45.97481" lon="4.75677">
        <ele>171</ele>
        <time>2018-03-04T11:41:19Z</time>
      </trkpt>
      <trkpt lat="45.97477" lon="4.75677">
        <ele>171</ele>
        <time>2018-03-04T11:41:20Z</time>
      </trkpt>
      <trkpt lat="45.97469" lon="4.75678">
        <ele>171</ele>
        <time>2018-03-04T11:41:22Z</time>
      </trkpt>
      <trkpt lat="45.97466" lon="4.75677">
        <ele>171</ele>
        <time>2018-03-04T11:41:23Z</time>
      </trkpt>
      <trkpt lat="45.97458" lon="4.75678">
        <ele>171</ele>
        <time>2018-03-04T11:41:25Z</time>
      </trkpt>
      <trkpt lat="45.97454" lon="4.75678">
        <ele>170</ele>
        <time>2018-03-04T11:41:26Z</time>
      </trkpt>
      <trkpt lat="45.97445" lon="4.75678">
        <ele>170</ele>
        <time>2018-03-04T11:41:28Z</time>
      </trkpt>
      <trkpt lat="45.97441" lon="4.75678">
        <ele>170</ele>
        <time>2018-03-04T11:41:29Z</time>
      </trkpt>
      <trkpt lat="45.97432" lon="4.75678">
        <ele>170</ele>
        <time>2018-03-04T11:41:31Z</time>
      </trkpt>
      <trkpt lat="45.97427" lon="4.75678">
        <ele>170</ele>
        <time>2018-03-04T11:41:32Z</time>
      </trkpt>
      <trkpt lat="45.97422" lon="4.75679">
        <ele>170</ele>
        <time>2018-03-04T11:41:33Z</time>
      </trkpt>
      <trkpt lat="45.97418" lon="4.75678">
        <ele>170</ele>
        <time>2018-03-04T11:41:34Z</time>
      </trkpt>
      <trkpt lat="45.97413" lon="4.75678">
        <ele>171</ele>
        <time>2018-03-04T11:41:35Z</time>
      </trkpt>
      <trkpt lat="45.97408" lon="4.75678">
        <ele>171</ele>
        <time>2018-03-04T11:41:36Z</time>
      </trkpt>
      <trkpt lat="45.97403" lon="4.7568">
        <ele>172</ele>
        <time>2018-03-04T11:41:37Z</time>
      </trkpt>
      <trkpt lat="45.97398" lon="4.7568">
        <ele>172</ele>
        <time>2018-03-04T11:41:38Z</time>
      </trkpt>
      <trkpt lat="45.97393" lon="4.7568">
        <ele>172</ele>
        <time>2018-03-04T11:41:39Z</time>
      </trkpt>
      <trkpt lat="45.97389" lon="4.75681">
        <ele>173</ele>
        <time>2018-03-04T11:41:40Z</time>
      </trkpt>
      <trkpt lat="45.97383" lon="4.75681">
        <ele>173</ele>
        <time>2018-03-04T11:41:41Z</time>
      </trkpt>
      <trkpt lat="45.97378" lon="4.75681">
        <ele>173</ele>
        <time>2018-03-04T11:41:42Z</time>
      </trkpt>
      <trkpt lat="45.97373" lon="4.75681">
        <ele>174</ele>
        <time>2018-03-04T11:41:43Z</time>
      </trkpt>
      <trkpt lat="45.97368" lon="4.75681">
        <ele>174</ele>
        <time>2018-03-04T11:41:44Z</time>
      </trkpt>
      <trkpt lat="45.97362" lon="4.7568">
        <ele>174</ele>
        <time>2018-03-04T11:41:45Z</time>
      </trkpt>
      <trkpt lat="45.97357" lon="4.75681">
        <ele>174</ele>
        <time>2018-03-04T11:41:46Z</time>
      </trkpt>
      <trkpt lat="45.97352" lon="4.7568">
        <ele>175</ele>
        <time>2018-03-04T11:41:47Z</time>
      </trkpt>
      <trkpt lat="45.97347" lon="4.75679">
        <ele>175</ele>
        <time>2018-03-04T11:41:48Z</time>
      </trkpt>
      <trkpt lat="45.97341" lon="4.75679">
        <ele>175</ele>
        <time>2018-03-04T11:41:49Z</time>
      </trkpt>
      <trkpt lat="45.97335" lon="4.75678">
        <ele>175</ele>
        <time>2018-03-04T11:41:50Z</time>
      </trkpt>
      <trkpt lat="45.9733" lon="4.75678">
        <ele>176</ele>
        <time>2018-03-04T11:41:51Z</time>
      </trkpt>
      <trkpt lat="45.97325" lon="4.75678">
        <ele>176</ele>
        <time>2018-03-04T11:41:52Z</time>
      </trkpt>
      <trkpt lat="45.97319" lon="4.75678">
        <ele>176</ele>
        <time>2018-03-04T11:41:53Z</time>
      </trkpt>
      <trkpt lat="45.97315" lon="4.75677">
        <ele>176</ele>
        <time>2018-03-04T11:41:54Z</time>
      </trkpt>
      <trkpt lat="45.97309" lon="4.75676">
        <ele>176</ele>
        <time>2018-03-04T11:41:55Z</time>
      </trkpt>
      <trkpt lat="45.97304" lon="4.75675">
        <ele>176</ele>
        <time>2018-03-04T11:41:56Z</time>
      </trkpt>
      <trkpt lat="45.97298" lon="4.75673">
        <ele>176</ele>
        <time>2018-03-04T11:41:57Z</time>
      </trkpt>
      <trkpt lat="45.97294" lon="4.75672">
        <ele>176</ele>
        <time>2018-03-04T11:41:58Z</time>
      </trkpt>
      <trkpt lat="45.9729" lon="4.75671">
        <ele>176</ele>
        <time>2018-03-04T11:41:59Z</time>
      </trkpt>
      <trkpt lat="45.97285" lon="4.7567">
        <ele>176</ele>
        <time>2018-03-04T11:42:00Z</time>
      </trkpt>
      <trkpt lat="45.9728" lon="4.75669">
        <ele>176</ele>
        <time>2018-03-04T11:42:01Z</time>
      </trkpt>
      <trkpt lat="45.97274" lon="4.75667">
        <ele>176</ele>
        <time>2018-03-04T11:42:02Z</time>
      </trkpt>
      <trkpt lat="45.97268" lon="4.75665">
        <ele>172</ele>
        <time>2018-03-04T11:42:03Z</time>
      </trkpt>
      <trkpt lat="45.97263" lon="4.75664">
        <ele>173</ele>
        <time>2018-03-04T11:42:04Z</time>
      </trkpt>
      <trkpt lat="45.97257" lon="4.75664">
        <ele>173</ele>
        <time>2018-03-04T11:42:05Z</time>
      </trkpt>
      <trkpt lat="45.97252" lon="4.75664">
        <ele>174</ele>
        <time>2018-03-04T11:42:06Z</time>
      </trkpt>
      <trkpt lat="45.97243" lon="4.75661">
        <ele>174</ele>
        <time>2018-03-04T11:42:08Z</time>
      </trkpt>
      <trkpt lat="45.97239" lon="4.7566">
        <ele>173</ele>
        <time>2018-03-04T11:42:09Z</time>
      </trkpt>
      <trkpt lat="45.97235" lon="4.75659">
        <ele>173</ele>
        <time>2018-03-04T11:42:10Z</time>
      </trkpt>
      <trkpt lat="45.97231" lon="4.75657">
        <ele>173</ele>
        <time>2018-03-04T11:42:11Z</time>
      </trkpt>
      <trkpt lat="45.97225" lon="4.75655">
        <ele>173</ele>
        <time>2018-03-04T11:42:12Z</time>
      </trkpt>
      <trkpt lat="45.97221" lon="4.75654">
        <ele>173</ele>
        <time>2018-03-04T11:42:13Z</time>
      </trkpt>
      <trkpt lat="45.97216" lon="4.75652">
        <ele>173</ele>
        <time>2018-03-04T11:42:14Z</time>
      </trkpt>
      <trkpt lat="45.97211" lon="4.7565">
        <ele>173</ele>
        <time>2018-03-04T11:42:15Z</time>
      </trkpt>
      <trkpt lat="45.97206" lon="4.75649">
        <ele>173</ele>
        <time>2018-03-04T11:42:16Z</time>
      </trkpt>
      <trkpt lat="45.97201" lon="4.75647">
        <ele>173</ele>
        <time>2018-03-04T11:42:17Z</time>
      </trkpt>
      <trkpt lat="45.97196" lon="4.75645">
        <ele>174</ele>
        <time>2018-03-04T11:42:18Z</time>
      </trkpt>
      <trkpt lat="45.97191" lon="4.75642">
        <ele>174</ele>
        <time>2018-03-04T11:42:19Z</time>
      </trkpt>
      <trkpt lat="45.97186" lon="4.7564">
        <ele>174</ele>
        <time>2018-03-04T11:42:20Z</time>
      </trkpt>
      <trkpt lat="45.9718" lon="4.75638">
        <ele>174</ele>
        <time>2018-03-04T11:42:21Z</time>
      </trkpt>
      <trkpt lat="45.97175" lon="4.75636">
        <ele>174</ele>
        <time>2018-03-04T11:42:22Z</time>
      </trkpt>
      <trkpt lat="45.9717" lon="4.75634">
        <ele>174</ele>
        <time>2018-03-04T11:42:23Z</time>
      </trkpt>
      <trkpt lat="45.97165" lon="4.75632">
        <ele>176</ele>
        <time>2018-03-04T11:42:24Z</time>
      </trkpt>
      <trkpt lat="45.9716" lon="4.7563">
        <ele>176</ele>
        <time>2018-03-04T11:42:25Z</time>
      </trkpt>
      <trkpt lat="45.97155" lon="4.75627">
        <ele>176</ele>
        <time>2018-03-04T11:42:26Z</time>
      </trkpt>
      <trkpt lat="45.97149" lon="4.75626">
        <ele>176</ele>
        <time>2018-03-04T11:42:27Z</time>
      </trkpt>
      <trkpt lat="45.97144" lon="4.75622">
        <ele>176</ele>
        <time>2018-03-04T11:42:28Z</time>
      </trkpt>
      <trkpt lat="45.97139" lon="4.7562">
        <ele>176</ele>
        <time>2018-03-04T11:42:29Z</time>
      </trkpt>
      <trkpt lat="45.97134" lon="4.75618">
        <ele>176</ele>
        <time>2018-03-04T11:42:30Z</time>
      </trkpt>
      <trkpt lat="45.97129" lon="4.75615">
        <ele>176</ele>
        <time>2018-03-04T11:42:31Z</time>
      </trkpt>
      <trkpt lat="45.97124" lon="4.75612">
        <ele>176</ele>
        <time>2018-03-04T11:42:32Z</time>
      </trkpt>
      <trkpt lat="45.97118" lon="4.7561">
        <ele>176</ele>
        <time>2018-03-04T11:42:33Z</time>
      </trkpt>
      <trkpt lat="45.97112" lon="4.75608">
        <ele>176</ele>
        <time>2018-03-04T11:42:34Z</time>
      </trkpt>
      <trkpt lat="45.97107" lon="4.75605">
        <ele>176</ele>
        <time>2018-03-04T11:42:35Z</time>
      </trkpt>
      <trkpt lat="45.97101" lon="4.75603">
        <ele>176</ele>
        <time>2018-03-04T11:42:36Z</time>
      </trkpt>
      <trkpt lat="45.97097" lon="4.756">
        <ele>176</ele>
        <time>2018-03-04T11:42:37Z</time>
      </trkpt>
      <trkpt lat="45.97091" lon="4.75598">
        <ele>176</ele>
        <time>2018-03-04T11:42:38Z</time>
      </trkpt>
      <trkpt lat="45.97085" lon="4.75596">
        <ele>176</ele>
        <time>2018-03-04T11:42:39Z</time>
      </trkpt>
      <trkpt lat="45.9708" lon="4.75593">
        <ele>178</ele>
        <time>2018-03-04T11:42:40Z</time>
      </trkpt>
      <trkpt lat="45.97075" lon="4.75592">
        <ele>178</ele>
        <time>2018-03-04T11:42:41Z</time>
      </trkpt>
      <trkpt lat="45.97069" lon="4.75589">
        <ele>179</ele>
        <time>2018-03-04T11:42:42Z</time>
      </trkpt>
      <trkpt lat="45.97063" lon="4.75587">
        <ele>179</ele>
        <time>2018-03-04T11:42:43Z</time>
      </trkpt>
      <trkpt lat="45.97058" lon="4.75584">
        <ele>180</ele>
        <time>2018-03-04T11:42:44Z</time>
      </trkpt>
      <trkpt lat="45.97053" lon="4.75582">
        <ele>174</ele>
        <time>2018-03-04T11:42:45Z</time>
      </trkpt>
      <trkpt lat="45.97047" lon="4.75579">
        <ele>174</ele>
        <time>2018-03-04T11:42:46Z</time>
      </trkpt>
      <trkpt lat="45.97043" lon="4.75577">
        <ele>174</ele>
        <time>2018-03-04T11:42:47Z</time>
      </trkpt>
      <trkpt lat="45.97038" lon="4.75575">
        <ele>174</ele>
        <time>2018-03-04T11:42:48Z</time>
      </trkpt>
      <trkpt lat="45.97032" lon="4.75573">
        <ele>174</ele>
        <time>2018-03-04T11:42:49Z</time>
      </trkpt>
      <trkpt lat="45.97027" lon="4.75571">
        <ele>174</ele>
        <time>2018-03-04T11:42:50Z</time>
      </trkpt>
      <trkpt lat="45.97022" lon="4.75569">
        <ele>175</ele>
        <time>2018-03-04T11:42:51Z</time>
      </trkpt>
      <trkpt lat="45.97017" lon="4.75566">
        <ele>175</ele>
        <time>2018-03-04T11:42:52Z</time>
      </trkpt>
      <trkpt lat="45.97012" lon="4.75564">
        <ele>175</ele>
        <time>2018-03-04T11:42:53Z</time>
      </trkpt>
      <trkpt lat="45.97006" lon="4.75561">
        <ele>175</ele>
        <time>2018-03-04T11:42:54Z</time>
      </trkpt>
      <trkpt lat="45.97001" lon="4.75559">
        <ele>175</ele>
        <time>2018-03-04T11:42:55Z</time>
      </trkpt>
      <trkpt lat="45.96996" lon="4.75557">
        <ele>176</ele>
        <time>2018-03-04T11:42:56Z</time>
      </trkpt>
      <trkpt lat="45.96991" lon="4.75556">
        <ele>176</ele>
        <time>2018-03-04T11:42:57Z</time>
      </trkpt>
      <trkpt lat="45.96986" lon="4.75554">
        <ele>176</ele>
        <time>2018-03-04T11:42:58Z</time>
      </trkpt>
      <trkpt lat="45.96981" lon="4.75551">
        <ele>175</ele>
        <time>2018-03-04T11:42:59Z</time>
      </trkpt>
      <trkpt lat="45.96976" lon="4.7555">
        <ele>175</ele>
        <time>2018-03-04T11:43:00Z</time>
      </trkpt>
      <trkpt lat="45.96971" lon="4.75547">
        <ele>175</ele>
        <time>2018-03-04T11:43:01Z</time>
      </trkpt>
      <trkpt lat="45.96966" lon="4.75546">
        <ele>175</ele>
        <time>2018-03-04T11:43:02Z</time>
      </trkpt>
      <trkpt lat="45.96961" lon="4.75544">
        <ele>175</ele>
        <time>2018-03-04T11:43:03Z</time>
      </trkpt>
      <trkpt lat="45.96956" lon="4.75543">
        <ele>175</ele>
        <time>2018-03-04T11:43:04Z</time>
      </trkpt>
      <trkpt lat="45.96952" lon="4.75541">
        <ele>175</ele>
        <time>2018-03-04T11:43:05Z</time>
      </trkpt>
      <trkpt lat="45.96946" lon="4.7554">
        <ele>175</ele>
        <time>2018-03-04T11:43:06Z</time>
      </trkpt>
      <trkpt lat="45.96941" lon="4.75539">
        <ele>175</ele>
        <time>2018-03-04T11:43:07Z</time>
      </trkpt>
      <trkpt lat="45.96937" lon="4.75536">
        <ele>175</ele>
        <time>2018-03-04T11:43:08Z</time>
      </trkpt>
      <trkpt lat="45.96932" lon="4.75533">
        <ele>175</ele>
        <time>2018-03-04T11:43:09Z</time>
      </trkpt>
      <trkpt lat="45.96927" lon="4.75532">
        <ele>175</ele>
        <time>2018-03-04T11:43:10Z</time>
      </trkpt>
      <trkpt lat="45.96922" lon="4.7553">
        <ele>175</ele>
        <time>2018-03-04T11:43:11Z</time>
      </trkpt>
      <trkpt lat="45.96917" lon="4.75528">
        <ele>175</ele>
        <time>2018-03-04T11:43:12Z</time>
      </trkpt>
      <trkpt lat="45.96912" lon="4.75526">
        <ele>178</ele>
        <time>2018-03-04T11:43:13Z</time>
      </trkpt>
      <trkpt lat="45.96907" lon="4.75525">
        <ele>178</ele>
        <time>2018-03-04T11:43:14Z</time>
      </trkpt>
      <trkpt lat="45.96901" lon="4.75522">
        <ele>178</ele>
        <time>2018-03-04T11:43:15Z</time>
      </trkpt>
      <trkpt lat="45.96897" lon="4.75519">
        <ele>178</ele>
        <time>2018-03-04T11:43:16Z</time>
      </trkpt>
      <trkpt lat="45.96892" lon="4.75518">
        <ele>178</ele>
        <time>2018-03-04T11:43:17Z</time>
      </trkpt>
      <trkpt lat="45.96887" lon="4.75515">
        <ele>178</ele>
        <time>2018-03-04T11:43:18Z</time>
      </trkpt>
      <trkpt lat="45.96882" lon="4.75514">
        <ele>179</ele>
        <time>2018-03-04T11:43:19Z</time>
      </trkpt>
      <trkpt lat="45.96878" lon="4.75511">
        <ele>179</ele>
        <time>2018-03-04T11:43:20Z</time>
      </trkpt>
      <trkpt lat="45.96873" lon="4.75508">
        <ele>179</ele>
        <time>2018-03-04T11:43:21Z</time>
      </trkpt>
      <trkpt lat="45.96868" lon="4.75507">
        <ele>179</ele>
        <time>2018-03-04T11:43:22Z</time>
      </trkpt>
      <trkpt lat="45.96862" lon="4.75506">
        <ele>178</ele>
        <time>2018-03-04T11:43:23Z</time>
      </trkpt>
      <trkpt lat="45.96857" lon="4.75504">
        <ele>178</ele>
        <time>2018-03-04T11:43:24Z</time>
      </trkpt>
      <trkpt lat="45.96853" lon="4.75502">
        <ele>178</ele>
        <time>2018-03-04T11:43:25Z</time>
      </trkpt>
      <trkpt lat="45.96845" lon="4.75498">
        <ele>172</ele>
        <time>2018-03-04T11:43:27Z</time>
      </trkpt>
      <trkpt lat="45.9684" lon="4.75496">
        <ele>173</ele>
        <time>2018-03-04T11:43:28Z</time>
      </trkpt>
      <trkpt lat="45.96835" lon="4.75495">
        <ele>173</ele>
        <time>2018-03-04T11:43:29Z</time>
      </trkpt>
      <trkpt lat="45.9683" lon="4.75493">
        <ele>174</ele>
        <time>2018-03-04T11:43:30Z</time>
      </trkpt>
      <trkpt lat="45.96826" lon="4.75491">
        <ele>174</ele>
        <time>2018-03-04T11:43:31Z</time>
      </trkpt>
      <trkpt lat="45.96821" lon="4.75489">
        <ele>174</ele>
        <time>2018-03-04T11:43:32Z</time>
      </trkpt>
      <trkpt lat="45.96817" lon="4.75488">
        <ele>174</ele>
        <time>2018-03-04T11:43:33Z</time>
      </trkpt>
      <trkpt lat="45.96811" lon="4.75486">
        <ele>174</ele>
        <time>2018-03-04T11:43:34Z</time>
      </trkpt>
      <trkpt lat="45.96806" lon="4.75483">
        <ele>174</ele>
        <time>2018-03-04T11:43:35Z</time>
      </trkpt>
      <trkpt lat="45.96802" lon="4.75481">
        <ele>174</ele>
        <time>2018-03-04T11:43:36Z</time>
      </trkpt>
      <trkpt lat="45.96797" lon="4.75479">
        <ele>174</ele>
        <time>2018-03-04T11:43:37Z</time>
      </trkpt>
      <trkpt lat="45.96792" lon="4.75478">
        <ele>174</ele>
        <time>2018-03-04T11:43:38Z</time>
      </trkpt>
      <trkpt lat="45.96787" lon="4.75477">
        <ele>175</ele>
        <time>2018-03-04T11:43:39Z</time>
      </trkpt>
      <trkpt lat="45.96782" lon="4.75475">
        <ele>175</ele>
        <time>2018-03-04T11:43:40Z</time>
      </trkpt>
      <trkpt lat="45.96777" lon="4.75473">
        <ele>175</ele>
        <time>2018-03-04T11:43:41Z</time>
      </trkpt>
      <trkpt lat="45.96772" lon="4.75471">
        <ele>175</ele>
        <time>2018-03-04T11:43:42Z</time>
      </trkpt>
      <trkpt lat="45.96766" lon="4.75469">
        <ele>175</ele>
        <time>2018-03-04T11:43:43Z</time>
      </trkpt>
      <trkpt lat="45.96761" lon="4.75467">
        <ele>175</ele>
        <time>2018-03-04T11:43:44Z</time>
      </trkpt>
      <trkpt lat="45.96755" lon="4.75464">
        <ele>175</ele>
        <time>2018-03-04T11:43:45Z</time>
      </trkpt>
      <trkpt lat="45.96752" lon="4.75462">
        <ele>175</ele>
        <time>2018-03-04T11:43:46Z</time>
      </trkpt>
      <trkpt lat="45.96746" lon="4.7546">
        <ele>180</ele>
        <time>2018-03-04T11:43:47Z</time>
      </trkpt>
      <trkpt lat="45.96743" lon="4.75457">
        <ele>180</ele>
        <time>2018-03-04T11:43:48Z</time>
      </trkpt>
      <trkpt lat="45.96739" lon="4.75454">
        <ele>180</ele>
        <time>2018-03-04T11:43:49Z</time>
      </trkpt>
      <trkpt lat="45.96734" lon="4.75452">
        <ele>180</ele>
        <time>2018-03-04T11:43:50Z</time>
      </trkpt>
      <trkpt lat="45.96727" lon="4.75446">
        <ele>179</ele>
        <time>2018-03-04T11:43:52Z</time>
      </trkpt>
      <trkpt lat="45.96723" lon="4.75443">
        <ele>179</ele>
        <time>2018-03-04T11:43:53Z</time>
      </trkpt>
      <trkpt lat="45.96715" lon="4.75439">
        <ele>179</ele>
        <time>2018-03-04T11:43:55Z</time>
      </trkpt>
      <trkpt lat="45.96708" lon="4.75436">
        <ele>180</ele>
        <time>2018-03-04T11:43:56Z</time>
      </trkpt>
      <trkpt lat="45.967" lon="4.75431">
        <ele>180</ele>
        <time>2018-03-04T11:43:58Z</time>
      </trkpt>
      <trkpt lat="45.96696" lon="4.75427">
        <ele>179</ele>
        <time>2018-03-04T11:43:59Z</time>
      </trkpt>
      <trkpt lat="45.96689" lon="4.75422">
        <ele>179</ele>
        <time>2018-03-04T11:44:01Z</time>
      </trkpt>
      <trkpt lat="45.96685" lon="4.7542">
        <ele>179</ele>
        <time>2018-03-04T11:44:02Z</time>
      </trkpt>
      <trkpt lat="45.9668" lon="4.75418">
        <ele>178</ele>
        <time>2018-03-04T11:44:03Z</time>
      </trkpt>
      <trkpt lat="45.96676" lon="4.75416">
        <ele>174</ele>
        <time>2018-03-04T11:44:04Z</time>
      </trkpt>
      <trkpt lat="45.9667" lon="4.75411">
        <ele>174</ele>
        <time>2018-03-04T11:44:06Z</time>
      </trkpt>
      <trkpt lat="45.96664" lon="4.75409">
        <ele>177</ele>
        <time>2018-03-04T11:44:07Z</time>
      </trkpt>
      <trkpt lat="45.96659" lon="4.75407">
        <ele>177</ele>
        <time>2018-03-04T11:44:08Z</time>
      </trkpt>
      <trkpt lat="45.96654" lon="4.75406">
        <ele>178</ele>
        <time>2018-03-04T11:44:09Z</time>
      </trkpt>
      <trkpt lat="45.96649" lon="4.754">
        <ele>178</ele>
        <time>2018-03-04T11:44:11Z</time>
      </trkpt>
      <trkpt lat="45.96646" lon="4.75398">
        <ele>179</ele>
        <time>2018-03-04T11:44:12Z</time>
      </trkpt>
      <trkpt lat="45.96642" lon="4.75396">
        <ele>179</ele>
        <time>2018-03-04T11:44:13Z</time>
      </trkpt>
      <trkpt lat="45.96637" lon="4.75393">
        <ele>179</ele>
        <time>2018-03-04T11:44:14Z</time>
      </trkpt>
      <trkpt lat="45.96633" lon="4.7539">
        <ele>180</ele>
        <time>2018-03-04T11:44:15Z</time>
      </trkpt>
      <trkpt lat="45.96629" lon="4.75387">
        <ele>180</ele>
        <time>2018-03-04T11:44:16Z</time>
      </trkpt>
      <trkpt lat="45.96625" lon="4.75386">
        <ele>180</ele>
        <time>2018-03-04T11:44:17Z</time>
      </trkpt>
      <trkpt lat="45.9662" lon="4.75383">
        <ele>181</ele>
        <time>2018-03-04T11:44:18Z</time>
      </trkpt>
      <trkpt lat="45.96614" lon="4.75377">
        <ele>181</ele>
        <time>2018-03-04T11:44:20Z</time>
      </trkpt>
      <trkpt lat="45.9661" lon="4.75375">
        <ele>181</ele>
        <time>2018-03-04T11:44:21Z</time>
      </trkpt>
      <trkpt lat="45.96606" lon="4.75371">
        <ele>180</ele>
        <time>2018-03-04T11:44:22Z</time>
      </trkpt>
      <trkpt lat="45.96601" lon="4.75368">
        <ele>180</ele>
        <time>2018-03-04T11:44:23Z</time>
      </trkpt>
      <trkpt lat="45.96595" lon="4.75365">
        <ele>180</ele>
        <time>2018-03-04T11:44:25Z</time>
      </trkpt>
      <trkpt lat="45.96589" lon="4.75362">
        <ele>180</ele>
        <time>2018-03-04T11:44:26Z</time>
      </trkpt>
      <trkpt lat="45.9658" lon="4.75357">
        <ele>187</ele>
        <time>2018-03-04T11:44:28Z</time>
      </trkpt>
      <trkpt lat="45.96576" lon="4.75355">
        <ele>187</ele>
        <time>2018-03-04T11:44:29Z</time>
      </trkpt>
      <trkpt lat="45.96572" lon="4.75353">
        <ele>187</ele>
        <time>2018-03-04T11:44:30Z</time>
      </trkpt>
      <trkpt lat="45.96568" lon="4.75351">
        <ele>187</ele>
        <time>2018-03-04T11:44:31Z</time>
      </trkpt>
      <trkpt lat="45.96564" lon="4.75348">
        <ele>187</ele>
        <time>2018-03-04T11:44:32Z</time>
      </trkpt>
      <trkpt lat="45.96559" lon="4.75345">
        <ele>187</ele>
        <time>2018-03-04T11:44:33Z</time>
      </trkpt>
      <trkpt lat="45.96554" lon="4.75343">
        <ele>188</ele>
        <time>2018-03-04T11:44:34Z</time>
      </trkpt>
      <trkpt lat="45.96549" lon="4.75341">
        <ele>189</ele>
        <time>2018-03-04T11:44:35Z</time>
      </trkpt>
      <trkpt lat="45.96544" lon="4.75339">
        <ele>189</ele>
        <time>2018-03-04T11:44:36Z</time>
      </trkpt>
      <trkpt lat="45.9654" lon="4.75337">
        <ele>190</ele>
        <time>2018-03-04T11:44:37Z</time>
      </trkpt>
      <trkpt lat="45.96532" lon="4.75333">
        <ele>179</ele>
        <time>2018-03-04T11:44:39Z</time>
      </trkpt>
      <trkpt lat="45.96528" lon="4.75331">
        <ele>179</ele>
        <time>2018-03-04T11:44:40Z</time>
      </trkpt>
      <trkpt lat="45.96521" lon="4.75326">
        <ele>180</ele>
        <time>2018-03-04T11:44:42Z</time>
      </trkpt>
      <trkpt lat="45.96516" lon="4.75324">
        <ele>181</ele>
        <time>2018-03-04T11:44:43Z</time>
      </trkpt>
      <trkpt lat="45.96512" lon="4.75323">
        <ele>182</ele>
        <time>2018-03-04T11:44:44Z</time>
      </trkpt>
      <trkpt lat="45.96507" lon="4.75322">
        <ele>182</ele>
        <time>2018-03-04T11:44:45Z</time>
      </trkpt>
      <trkpt lat="45.96503" lon="4.75321">
        <ele>182</ele>
        <time>2018-03-04T11:44:46Z</time>
      </trkpt>
      <trkpt lat="45.96498" lon="4.75321">
        <ele>187</ele>
        <time>2018-03-04T11:44:47Z</time>
      </trkpt>
      <trkpt lat="45.96495" lon="4.75316">
        <ele>187</ele>
        <time>2018-03-04T11:44:50Z</time>
      </trkpt>
      <trkpt lat="45.96488" lon="4.75309">
        <ele>186</ele>
        <time>2018-03-04T11:44:51Z</time>
      </trkpt>
      <trkpt lat="45.9648" lon="4.75305">
        <ele>186</ele>
        <time>2018-03-04T11:44:53Z</time>
      </trkpt>
      <trkpt lat="45.96474" lon="4.75303">
        <ele>186</ele>
        <time>2018-03-04T11:44:54Z</time>
      </trkpt>
      <trkpt lat="45.96465" lon="4.75303">
        <ele>187</ele>
        <time>2018-03-04T11:44:55Z</time>
      </trkpt>
      <trkpt lat="45.96459" lon="4.75295">
        <ele>187</ele>
        <time>2018-03-04T11:44:57Z</time>
      </trkpt>
      <trkpt lat="45.96455" lon="4.75293">
        <ele>187</ele>
        <time>2018-03-04T11:44:58Z</time>
      </trkpt>
      <trkpt lat="45.96448" lon="4.75284">
        <ele>186</ele>
        <time>2018-03-04T11:45:01Z</time>
      </trkpt>
      <trkpt lat="45.96447" lon="4.75283">
        <ele>186</ele>
        <time>2018-03-04T11:45:02Z</time>
      </trkpt>
      <trkpt lat="45.96441" lon="4.75279">
        <ele>186</ele>
        <time>2018-03-04T11:45:03Z</time>
      </trkpt>
      <trkpt lat="45.96437" lon="4.75278">
        <ele>186</ele>
        <time>2018-03-04T11:45:04Z</time>
      </trkpt>
      <trkpt lat="45.96431" lon="4.75272">
        <ele>185</ele>
        <time>2018-03-04T11:45:06Z</time>
      </trkpt>
      <trkpt lat="45.96427" lon="4.7527">
        <ele>185</ele>
        <time>2018-03-04T11:45:07Z</time>
      </trkpt>
      <trkpt lat="45.96423" lon="4.75267">
        <ele>185</ele>
        <time>2018-03-04T11:45:08Z</time>
      </trkpt>
      <trkpt lat="45.96417" lon="4.75265">
        <ele>184</ele>
        <time>2018-03-04T11:45:09Z</time>
      </trkpt>
      <trkpt lat="45.9641" lon="4.75261">
        <ele>188</ele>
        <time>2018-03-04T11:45:11Z</time>
      </trkpt>
      <trkpt lat="45.96401" lon="4.75262">
        <ele>190</ele>
        <time>2018-03-04T11:45:12Z</time>
      </trkpt>
      <trkpt lat="45.96396" lon="4.75261">
        <ele>191</ele>
        <time>2018-03-04T11:45:13Z</time>
      </trkpt>
      <trkpt lat="45.96392" lon="4.7526">
        <ele>191</ele>
        <time>2018-03-04T11:45:14Z</time>
      </trkpt>
      <trkpt lat="45.96384" lon="4.75255">
        <ele>192</ele>
        <time>2018-03-04T11:45:16Z</time>
      </trkpt>
      <trkpt lat="45.96382" lon="4.75253">
        <ele>192</ele>
        <time>2018-03-04T11:45:17Z</time>
      </trkpt>
      <trkpt lat="45.96375" lon="4.75249">
        <ele>180</ele>
        <time>2018-03-04T11:45:19Z</time>
      </trkpt>
      <trkpt lat="45.96374" lon="4.75248">
        <ele>180</ele>
        <time>2018-03-04T11:45:20Z</time>
      </trkpt>
      <trkpt lat="45.96372" lon="4.75246">
        <ele>180</ele>
        <time>2018-03-04T11:45:21Z</time>
      </trkpt>
      <trkpt lat="45.96365" lon="4.7524">
        <ele>181</ele>
        <time>2018-03-04T11:45:22Z</time>
      </trkpt>
      <trkpt lat="45.96357" lon="4.75238">
        <ele>181</ele>
        <time>2018-03-04T11:45:24Z</time>
      </trkpt>
      <trkpt lat="45.96355" lon="4.75237">
        <ele>181</ele>
        <time>2018-03-04T11:45:25Z</time>
      </trkpt>
      <trkpt lat="45.96347" lon="4.75234">
        <ele>182</ele>
        <time>2018-03-04T11:45:27Z</time>
      </trkpt>
      <trkpt lat="45.96342" lon="4.75233">
        <ele>182</ele>
        <time>2018-03-04T11:45:28Z</time>
      </trkpt>
      <trkpt lat="45.96335" lon="4.7523">
        <ele>182</ele>
        <time>2018-03-04T11:45:30Z</time>
      </trkpt>
      <trkpt lat="45.96331" lon="4.75228">
        <ele>186</ele>
        <time>2018-03-04T11:45:31Z</time>
      </trkpt>
      <trkpt lat="45.96324" lon="4.75225">
        <ele>185</ele>
        <time>2018-03-04T11:45:33Z</time>
      </trkpt>
      <trkpt lat="45.96321" lon="4.75224">
        <ele>185</ele>
        <time>2018-03-04T11:45:34Z</time>
      </trkpt>
      <trkpt lat="45.96316" lon="4.75223">
        <ele>185</ele>
        <time>2018-03-04T11:45:35Z</time>
      </trkpt>
      <trkpt lat="45.96311" lon="4.7522">
        <ele>185</ele>
        <time>2018-03-04T11:45:36Z</time>
      </trkpt>
      <trkpt lat="45.96306" lon="4.75218">
        <ele>185</ele>
        <time>2018-03-04T11:45:37Z</time>
      </trkpt>
      <trkpt lat="45.96302" lon="4.75217">
        <ele>185</ele>
        <time>2018-03-04T11:45:38Z</time>
      </trkpt>
      <trkpt lat="45.96294" lon="4.75213">
        <ele>185</ele>
        <time>2018-03-04T11:45:40Z</time>
      </trkpt>
      <trkpt lat="45.96289" lon="4.75212">
        <ele>185</ele>
        <time>2018-03-04T11:45:41Z</time>
      </trkpt>
      <trkpt lat="45.96281" lon="4.75209">
        <ele>185</ele>
        <time>2018-03-04T11:45:43Z</time>
      </trkpt>
      <trkpt lat="45.96277" lon="4.75207">
        <ele>185</ele>
        <time>2018-03-04T11:45:44Z</time>
      </trkpt>
      <trkpt lat="45.9627" lon="4.75203">
        <ele>185</ele>
        <time>2018-03-04T11:45:46Z</time>
      </trkpt>
      <trkpt lat="45.96268" lon="4.75202">
        <ele>185</ele>
        <time>2018-03-04T11:45:47Z</time>
      </trkpt>
      <trkpt lat="45.96263" lon="4.752">
        <ele>185</ele>
        <time>2018-03-04T11:45:48Z</time>
      </trkpt>
      <trkpt lat="45.96259" lon="4.75199">
        <ele>185</ele>
        <time>2018-03-04T11:45:49Z</time>
      </trkpt>
      <trkpt lat="45.96252" lon="4.75196">
        <ele>185</ele>
        <time>2018-03-04T11:45:51Z</time>
      </trkpt>
      <trkpt lat="45.96248" lon="4.75195">
        <ele>191</ele>
        <time>2018-03-04T11:45:52Z</time>
      </trkpt>
      <trkpt lat="45.96239" lon="4.75191">
        <ele>191</ele>
        <time>2018-03-04T11:45:54Z</time>
      </trkpt>
      <trkpt lat="45.96235" lon="4.75189">
        <ele>191</ele>
        <time>2018-03-04T11:45:55Z</time>
      </trkpt>
      <trkpt lat="45.9623" lon="4.75186">
        <ele>191</ele>
        <time>2018-03-04T11:45:57Z</time>
      </trkpt>
      <trkpt lat="45.96226" lon="4.75182">
        <ele>192</ele>
        <time>2018-03-04T11:45:58Z</time>
      </trkpt>
      <trkpt lat="45.96218" lon="4.75176">
        <ele>192</ele>
        <time>2018-03-04T11:46:00Z</time>
      </trkpt>
      <trkpt lat="45.96214" lon="4.75173">
        <ele>193</ele>
        <time>2018-03-04T11:46:01Z</time>
      </trkpt>
      <trkpt lat="45.96208" lon="4.75171">
        <ele>193</ele>
        <time>2018-03-04T11:46:02Z</time>
      </trkpt>
      <trkpt lat="45.96204" lon="4.75168">
        <ele>194</ele>
        <time>2018-03-04T11:46:03Z</time>
      </trkpt>
      <trkpt lat="45.96197" lon="4.75163">
        <ele>186</ele>
        <time>2018-03-04T11:46:05Z</time>
      </trkpt>
      <trkpt lat="45.96196" lon="4.75158">
        <ele>186</ele>
        <time>2018-03-04T11:46:06Z</time>
      </trkpt>
      <trkpt lat="45.96188" lon="4.75151">
        <ele>186</ele>
        <time>2018-03-04T11:46:08Z</time>
      </trkpt>
      <trkpt lat="45.96184" lon="4.75147">
        <ele>186</ele>
        <time>2018-03-04T11:46:09Z</time>
      </trkpt>
      <trkpt lat="45.96179" lon="4.75145">
        <ele>187</ele>
        <time>2018-03-04T11:46:10Z</time>
      </trkpt>
      <trkpt lat="45.96175" lon="4.75141">
        <ele>186</ele>
        <time>2018-03-04T11:46:11Z</time>
      </trkpt>
      <trkpt lat="45.96169" lon="4.75137">
        <ele>186</ele>
        <time>2018-03-04T11:46:13Z</time>
      </trkpt>
      <trkpt lat="45.96164" lon="4.75133">
        <ele>191</ele>
        <time>2018-03-04T11:46:14Z</time>
      </trkpt>
      <trkpt lat="45.96159" lon="4.75129">
        <ele>190</ele>
        <time>2018-03-04T11:46:16Z</time>
      </trkpt>
      <trkpt lat="45.96154" lon="4.75124">
        <ele>189</ele>
        <time>2018-03-04T11:46:17Z</time>
      </trkpt>
      <trkpt lat="45.9615" lon="4.7512">
        <ele>189</ele>
        <time>2018-03-04T11:46:18Z</time>
      </trkpt>
      <trkpt lat="45.96147" lon="4.75116">
        <ele>189</ele>
        <time>2018-03-04T11:46:19Z</time>
      </trkpt>
      <trkpt lat="45.96139" lon="4.75109">
        <ele>188</ele>
        <time>2018-03-04T11:46:21Z</time>
      </trkpt>
      <trkpt lat="45.96133" lon="4.75108">
        <ele>189</ele>
        <time>2018-03-04T11:46:22Z</time>
      </trkpt>
      <trkpt lat="45.96128" lon="4.75099">
        <ele>189</ele>
        <time>2018-03-04T11:46:24Z</time>
      </trkpt>
      <trkpt lat="45.96124" lon="4.75097">
        <ele>189</ele>
        <time>2018-03-04T11:46:25Z</time>
      </trkpt>
      <trkpt lat="45.96118" lon="4.75089">
        <ele>189</ele>
        <time>2018-03-04T11:46:27Z</time>
      </trkpt>
      <trkpt lat="45.96115" lon="4.75085">
        <ele>189</ele>
        <time>2018-03-04T11:46:28Z</time>
      </trkpt>
      <trkpt lat="45.96109" lon="4.75081">
        <ele>184</ele>
        <time>2018-03-04T11:46:29Z</time>
      </trkpt>
      <trkpt lat="45.96105" lon="4.75078">
        <ele>185</ele>
        <time>2018-03-04T11:46:30Z</time>
      </trkpt>
      <trkpt lat="45.96102" lon="4.75074">
        <ele>185</ele>
        <time>2018-03-04T11:46:31Z</time>
      </trkpt>
      <trkpt lat="45.96097" lon="4.75072">
        <ele>186</ele>
        <time>2018-03-04T11:46:32Z</time>
      </trkpt>
      <trkpt lat="45.96091" lon="4.75065">
        <ele>185</ele>
        <time>2018-03-04T11:46:35Z</time>
      </trkpt>
      <trkpt lat="45.9609" lon="4.75063">
        <ele>185</ele>
        <time>2018-03-04T11:46:36Z</time>
      </trkpt>
      <trkpt lat="45.96082" lon="4.75059">
        <ele>189</ele>
        <time>2018-03-04T11:46:37Z</time>
      </trkpt>
      <trkpt lat="45.96079" lon="4.75057">
        <ele>189</ele>
        <time>2018-03-04T11:46:38Z</time>
      </trkpt>
      <trkpt lat="45.96071" lon="4.75053">
        <ele>189</ele>
        <time>2018-03-04T11:46:40Z</time>
      </trkpt>
      <trkpt lat="45.96065" lon="4.7505">
        <ele>188</ele>
        <time>2018-03-04T11:46:41Z</time>
      </trkpt>
      <trkpt lat="45.96056" lon="4.75047">
        <ele>188</ele>
        <time>2018-03-04T11:46:44Z</time>
      </trkpt>
      <trkpt lat="45.96054" lon="4.75044">
        <ele>188</ele>
        <time>2018-03-04T11:46:45Z</time>
      </trkpt>
      <trkpt lat="45.96045" lon="4.75043">
        <ele>188</ele>
        <time>2018-03-04T11:46:47Z</time>
      </trkpt>
      <trkpt lat="45.96041" lon="4.75043">
        <ele>189</ele>
        <time>2018-03-04T11:46:48Z</time>
      </trkpt>
      <trkpt lat="45.96035" lon="4.75044">
        <ele>189</ele>
        <time>2018-03-04T11:46:51Z</time>
      </trkpt>
      <trkpt lat="45.96032" lon="4.75045">
        <ele>189</ele>
        <time>2018-03-04T11:46:52Z</time>
      </trkpt>
      <trkpt lat="45.96027" lon="4.75047">
        <ele>189</ele>
        <time>2018-03-04T11:46:54Z</time>
      </trkpt>
      <trkpt lat="45.96019" lon="4.7505">
        <ele>190</ele>
        <time>2018-03-04T11:46:55Z</time>
      </trkpt>
      <trkpt lat="45.96011" lon="4.75054">
        <ele>190</ele>
        <time>2018-03-04T11:46:59Z</time>
      </trkpt>
      <trkpt lat="45.96008" lon="4.75056">
        <ele>190</ele>
        <time>2018-03-04T11:47:00Z</time>
      </trkpt>
      <trkpt lat="45.96001" lon="4.7506">
        <ele>191</ele>
        <time>2018-03-04T11:47:03Z</time>
      </trkpt>
      <trkpt lat="45.95998" lon="4.75062">
        <ele>192</ele>
        <time>2018-03-04T11:47:04Z</time>
      </trkpt>
      <trkpt lat="45.9599" lon="4.75065">
        <ele>192</ele>
        <time>2018-03-04T11:47:07Z</time>
      </trkpt>
      <trkpt lat="45.95987" lon="4.75066">
        <ele>192</ele>
        <time>2018-03-04T11:47:08Z</time>
      </trkpt>
      <trkpt lat="45.95981" lon="4.75069">
        <ele>192</ele>
        <time>2018-03-04T11:47:10Z</time>
      </trkpt>
      <trkpt lat="45.95978" lon="4.75071">
        <ele>191</ele>
        <time>2018-03-04T11:47:11Z</time>
      </trkpt>
      <trkpt lat="45.95971" lon="4.75075">
        <ele>191</ele>
        <time>2018-03-04T11:47:13Z</time>
      </trkpt>
      <trkpt lat="45.95967" lon="4.75077">
        <ele>191</ele>
        <time>2018-03-04T11:47:14Z</time>
      </trkpt>
      <trkpt lat="45.95961" lon="4.75081">
        <ele>191</ele>
        <time>2018-03-04T11:47:16Z</time>
      </trkpt>
      <trkpt lat="45.95957" lon="4.75083">
        <ele>191</ele>
        <time>2018-03-04T11:47:17Z</time>
      </trkpt>
      <trkpt lat="45.95951" lon="4.75086">
        <ele>193</ele>
        <time>2018-03-04T11:47:19Z</time>
      </trkpt>
      <trkpt lat="45.95948" lon="4.75087">
        <ele>193</ele>
        <time>2018-03-04T11:47:20Z</time>
      </trkpt>
      <trkpt lat="45.95942" lon="4.7509">
        <ele>192</ele>
        <time>2018-03-04T11:47:22Z</time>
      </trkpt>
      <trkpt lat="45.95938" lon="4.75092">
        <ele>192</ele>
        <time>2018-03-04T11:47:23Z</time>
      </trkpt>
      <trkpt lat="45.95931" lon="4.75095">
        <ele>192</ele>
        <time>2018-03-04T11:47:25Z</time>
      </trkpt>
      <trkpt lat="45.95927" lon="4.75096">
        <ele>192</ele>
        <time>2018-03-04T11:47:26Z</time>
      </trkpt>
      <trkpt lat="45.95921" lon="4.75098">
        <ele>192</ele>
        <time>2018-03-04T11:47:28Z</time>
      </trkpt>
      <trkpt lat="45.95918" lon="4.75099">
        <ele>192</ele>
        <time>2018-03-04T11:47:29Z</time>
      </trkpt>
      <trkpt lat="45.95911" lon="4.75101">
        <ele>190</ele>
        <time>2018-03-04T11:47:31Z</time>
      </trkpt>
      <trkpt lat="45.95908" lon="4.75103">
        <ele>191</ele>
        <time>2018-03-04T11:47:32Z</time>
      </trkpt>
      <trkpt lat="45.95901" lon="4.75107">
        <ele>191</ele>
        <time>2018-03-04T11:47:34Z</time>
      </trkpt>
      <trkpt lat="45.95898" lon="4.75109">
        <ele>191</ele>
        <time>2018-03-04T11:47:35Z</time>
      </trkpt>
      <trkpt lat="45.95892" lon="4.75113">
        <ele>191</ele>
        <time>2018-03-04T11:47:37Z</time>
      </trkpt>
      <trkpt lat="45.95889" lon="4.75115">
        <ele>191</ele>
        <time>2018-03-04T11:47:38Z</time>
      </trkpt>
      <trkpt lat="45.95883" lon="4.7512">
        <ele>191</ele>
        <time>2018-03-04T11:47:40Z</time>
      </trkpt>
      <trkpt lat="45.9588" lon="4.75122">
        <ele>191</ele>
        <time>2018-03-04T11:47:41Z</time>
      </trkpt>
      <trkpt lat="45.95873" lon="4.75129">
        <ele>191</ele>
        <time>2018-03-04T11:47:44Z</time>
      </trkpt>
      <trkpt lat="45.9587" lon="4.75131">
        <ele>191</ele>
        <time>2018-03-04T11:47:45Z</time>
      </trkpt>
      <trkpt lat="45.95865" lon="4.75137">
        <ele>191</ele>
        <time>2018-03-04T11:47:47Z</time>
      </trkpt>
      <trkpt lat="45.95862" lon="4.7514">
        <ele>191</ele>
        <time>2018-03-04T11:47:48Z</time>
      </trkpt>
      <trkpt lat="45.95857" lon="4.75146">
        <ele>191</ele>
        <time>2018-03-04T11:47:50Z</time>
      </trkpt>
      <trkpt lat="45.95854" lon="4.75149">
        <ele>191</ele>
        <time>2018-03-04T11:47:51Z</time>
      </trkpt>
      <trkpt lat="45.95849" lon="4.75156">
        <ele>191</ele>
        <time>2018-03-04T11:47:53Z</time>
      </trkpt>
      <trkpt lat="45.95846" lon="4.75159">
        <ele>191</ele>
        <time>2018-03-04T11:47:54Z</time>
      </trkpt>
      <trkpt lat="45.95842" lon="4.75166">
        <ele>192</ele>
        <time>2018-03-04T11:47:56Z</time>
      </trkpt>
      <trkpt lat="45.95839" lon="4.75169">
        <ele>192</ele>
        <time>2018-03-04T11:47:57Z</time>
      </trkpt>
      <trkpt lat="45.95835" lon="4.75174">
        <ele>192</ele>
        <time>2018-03-04T11:47:59Z</time>
      </trkpt>
      <trkpt lat="45.95833" lon="4.75178">
        <ele>192</ele>
        <time>2018-03-04T11:48:00Z</time>
      </trkpt>
      <trkpt lat="45.95828" lon="4.75185">
        <ele>192</ele>
        <time>2018-03-04T11:48:02Z</time>
      </trkpt>
      <trkpt lat="45.95825" lon="4.75188">
        <ele>192</ele>
        <time>2018-03-04T11:48:03Z</time>
      </trkpt>
      <trkpt lat="45.95821" lon="4.75195">
        <ele>193</ele>
        <time>2018-03-04T11:48:05Z</time>
      </trkpt>
      <trkpt lat="45.95818" lon="4.75199">
        <ele>193</ele>
        <time>2018-03-04T11:48:06Z</time>
      </trkpt>
      <trkpt lat="45.95813" lon="4.75205">
        <ele>193</ele>
        <time>2018-03-04T11:48:08Z</time>
      </trkpt>
      <trkpt lat="45.95811" lon="4.75209">
        <ele>193</ele>
        <time>2018-03-04T11:48:09Z</time>
      </trkpt>
      <trkpt lat="45.95808" lon="4.75212">
        <ele>193</ele>
        <time>2018-03-04T11:48:10Z</time>
      </trkpt>
      <trkpt lat="45.95801" lon="4.75222">
        <ele>193</ele>
        <time>2018-03-04T11:48:11Z</time>
      </trkpt>
      <trkpt lat="45.95795" lon="4.75229">
        <ele>193</ele>
        <time>2018-03-04T11:48:13Z</time>
      </trkpt>
      <trkpt lat="45.95794" lon="4.75231">
        <ele>193</ele>
        <time>2018-03-04T11:48:14Z</time>
      </trkpt>
      <trkpt lat="45.95788" lon="4.75238">
        <ele>193</ele>
        <time>2018-03-04T11:48:16Z</time>
      </trkpt>
      <trkpt lat="45.95784" lon="4.75244">
        <ele>193</ele>
        <time>2018-03-04T11:48:17Z</time>
      </trkpt>
      <trkpt lat="45.9578" lon="4.75248">
        <ele>193</ele>
        <time>2018-03-04T11:48:19Z</time>
      </trkpt>
      <trkpt lat="45.95775" lon="4.75255">
        <ele>193</ele>
        <time>2018-03-04T11:48:20Z</time>
      </trkpt>
      <trkpt lat="45.95769" lon="4.75262">
        <ele>193</ele>
        <time>2018-03-04T11:48:22Z</time>
      </trkpt>
      <trkpt lat="45.95766" lon="4.75265">
        <ele>193</ele>
        <time>2018-03-04T11:48:23Z</time>
      </trkpt>
      <trkpt lat="45.9576" lon="4.75271">
        <ele>193</ele>
        <time>2018-03-04T11:48:26Z</time>
      </trkpt>
      <trkpt lat="45.95758" lon="4.75273">
        <ele>193</ele>
        <time>2018-03-04T11:48:27Z</time>
      </trkpt>
      <trkpt lat="45.95751" lon="4.75281">
        <ele>193</ele>
        <time>2018-03-04T11:48:30Z</time>
      </trkpt>
      <trkpt lat="45.95749" lon="4.75284">
        <ele>193</ele>
        <time>2018-03-04T11:48:31Z</time>
      </trkpt>
      <trkpt lat="45.95744" lon="4.7529">
        <ele>193</ele>
        <time>2018-03-04T11:48:33Z</time>
      </trkpt>
      <trkpt lat="45.95741" lon="4.75293">
        <ele>193</ele>
        <time>2018-03-04T11:48:34Z</time>
      </trkpt>
      <trkpt lat="45.95736" lon="4.75299">
        <ele>193</ele>
        <time>2018-03-04T11:48:36Z</time>
      </trkpt>
      <trkpt lat="45.95734" lon="4.75302">
        <ele>193</ele>
        <time>2018-03-04T11:48:37Z</time>
      </trkpt>
      <trkpt lat="45.95729" lon="4.75307">
        <ele>193</ele>
        <time>2018-03-04T11:48:39Z</time>
      </trkpt>
      <trkpt lat="45.95726" lon="4.7531">
        <ele>193</ele>
        <time>2018-03-04T11:48:40Z</time>
      </trkpt>
      <trkpt lat="45.95721" lon="4.75316">
        <ele>193</ele>
        <time>2018-03-04T11:48:42Z</time>
      </trkpt>
      <trkpt lat="45.95718" lon="4.75319">
        <ele>193</ele>
        <time>2018-03-04T11:48:43Z</time>
      </trkpt>
      <trkpt lat="45.95713" lon="4.75324">
        <ele>193</ele>
        <time>2018-03-04T11:48:45Z</time>
      </trkpt>
      <trkpt lat="45.9571" lon="4.75327">
        <ele>193</ele>
        <time>2018-03-04T11:48:46Z</time>
      </trkpt>
      <trkpt lat="45.95702" lon="4.75335">
        <ele>193</ele>
        <time>2018-03-04T11:48:47Z</time>
      </trkpt>
      <trkpt lat="45.95696" lon="4.7534">
        <ele>193</ele>
        <time>2018-03-04T11:48:49Z</time>
      </trkpt>
      <trkpt lat="45.95692" lon="4.75344">
        <ele>193</ele>
        <time>2018-03-04T11:48:50Z</time>
      </trkpt>
      <trkpt lat="45.95685" lon="4.75351">
        <ele>193</ele>
        <time>2018-03-04T11:48:52Z</time>
      </trkpt>
      <trkpt lat="45.95681" lon="4.75354">
        <ele>193</ele>
        <time>2018-03-04T11:48:53Z</time>
      </trkpt>
      <trkpt lat="45.95677" lon="4.75357">
        <ele>193</ele>
        <time>2018-03-04T11:48:54Z</time>
      </trkpt>
      <trkpt lat="45.95673" lon="4.75361">
        <ele>193</ele>
        <time>2018-03-04T11:48:55Z</time>
      </trkpt>
      <trkpt lat="45.95666" lon="4.75367">
        <ele>193</ele>
        <time>2018-03-04T11:48:57Z</time>
      </trkpt>
      <trkpt lat="45.95662" lon="4.7537">
        <ele>193</ele>
        <time>2018-03-04T11:48:58Z</time>
      </trkpt>
      <trkpt lat="45.95658" lon="4.75374">
        <ele>193</ele>
        <time>2018-03-04T11:48:59Z</time>
      </trkpt>
      <trkpt lat="45.95653" lon="4.75378">
        <ele>193</ele>
        <time>2018-03-04T11:49:00Z</time>
      </trkpt>
      <trkpt lat="45.95649" lon="4.75381">
        <ele>193</ele>
        <time>2018-03-04T11:49:01Z</time>
      </trkpt>
      <trkpt lat="45.95645" lon="4.75385">
        <ele>193</ele>
        <time>2018-03-04T11:49:02Z</time>
      </trkpt>
      <trkpt lat="45.9564" lon="4.75388">
        <ele>193</ele>
        <time>2018-03-04T11:49:03Z</time>
      </trkpt>
      <trkpt lat="45.95636" lon="4.75392">
        <ele>193</ele>
        <time>2018-03-04T11:49:04Z</time>
      </trkpt>
      <trkpt lat="45.95631" lon="4.75395">
        <ele>193</ele>
        <time>2018-03-04T11:49:05Z</time>
      </trkpt>
      <trkpt lat="45.95627" lon="4.75396">
        <ele>193</ele>
        <time>2018-03-04T11:49:06Z</time>
      </trkpt>
      <trkpt lat="45.95622" lon="4.754">
        <ele>193</ele>
        <time>2018-03-04T11:49:07Z</time>
      </trkpt>
      <trkpt lat="45.95618" lon="4.75403">
        <ele>193</ele>
        <time>2018-03-04T11:49:08Z</time>
      </trkpt>
      <trkpt lat="45.95613" lon="4.75407">
        <ele>193</ele>
        <time>2018-03-04T11:49:09Z</time>
      </trkpt>
      <trkpt lat="45.9561" lon="4.75411">
        <ele>193</ele>
        <time>2018-03-04T11:49:10Z</time>
      </trkpt>
      <trkpt lat="45.95603" lon="4.75418">
        <ele>192</ele>
        <time>2018-03-04T11:49:12Z</time>
      </trkpt>
      <trkpt lat="45.956" lon="4.7542">
        <ele>192</ele>
        <time>2018-03-04T11:49:13Z</time>
      </trkpt>
      <trkpt lat="45.95595" lon="4.75423">
        <ele>192</ele>
        <time>2018-03-04T11:49:14Z</time>
      </trkpt>
      <trkpt lat="45.95591" lon="4.75425">
        <ele>192</ele>
        <time>2018-03-04T11:49:15Z</time>
      </trkpt>
      <trkpt lat="45.95583" lon="4.7543">
        <ele>190</ele>
        <time>2018-03-04T11:49:17Z</time>
      </trkpt>
      <trkpt lat="45.95578" lon="4.75431">
        <ele>190</ele>
        <time>2018-03-04T11:49:18Z</time>
      </trkpt>
      <trkpt lat="45.95573" lon="4.75433">
        <ele>190</ele>
        <time>2018-03-04T11:49:19Z</time>
      </trkpt>
      <trkpt lat="45.95568" lon="4.75434">
        <ele>189</ele>
        <time>2018-03-04T11:49:20Z</time>
      </trkpt>
      <trkpt lat="45.95563" lon="4.75438">
        <ele>189</ele>
        <time>2018-03-04T11:49:21Z</time>
      </trkpt>
      <trkpt lat="45.95558" lon="4.75441">
        <ele>188</ele>
        <time>2018-03-04T11:49:22Z</time>
      </trkpt>
      <trkpt lat="45.95552" lon="4.75444">
        <ele>188</ele>
        <time>2018-03-04T11:49:23Z</time>
      </trkpt>
      <trkpt lat="45.95547" lon="4.75446">
        <ele>188</ele>
        <time>2018-03-04T11:49:24Z</time>
      </trkpt>
      <trkpt lat="45.95542" lon="4.75448">
        <ele>188</ele>
        <time>2018-03-04T11:49:25Z</time>
      </trkpt>
      <trkpt lat="45.95537" lon="4.7545">
        <ele>187</ele>
        <time>2018-03-04T11:49:26Z</time>
      </trkpt>
      <trkpt lat="45.95531" lon="4.75449">
        <ele>187</ele>
        <time>2018-03-04T11:49:27Z</time>
      </trkpt>
      <trkpt lat="45.95527" lon="4.75448">
        <ele>187</ele>
        <time>2018-03-04T11:49:28Z</time>
      </trkpt>
      <trkpt lat="45.95522" lon="4.75445">
        <ele>187</ele>
        <time>2018-03-04T11:49:29Z</time>
      </trkpt>
      <trkpt lat="45.95518" lon="4.75439">
        <ele>187</ele>
        <time>2018-03-04T11:49:30Z</time>
      </trkpt>
      <trkpt lat="45.95516" lon="4.75434">
        <ele>187</ele>
        <time>2018-03-04T11:49:31Z</time>
      </trkpt>
      <trkpt lat="45.95513" lon="4.75428">
        <ele>186</ele>
        <time>2018-03-04T11:49:32Z</time>
      </trkpt>
      <trkpt lat="45.95511" lon="4.75421">
        <ele>186</ele>
        <time>2018-03-04T11:49:33Z</time>
      </trkpt>
      <trkpt lat="45.95509" lon="4.75415">
        <ele>186</ele>
        <time>2018-03-04T11:49:34Z</time>
      </trkpt>
      <trkpt lat="45.95506" lon="4.75404">
        <ele>187</ele>
        <time>2018-03-04T11:49:36Z</time>
      </trkpt>
      <trkpt lat="45.95503" lon="4.75398">
        <ele>187</ele>
        <time>2018-03-04T11:49:37Z</time>
      </trkpt>
      <trkpt lat="45.95501" lon="4.75392">
        <ele>188</ele>
        <time>2018-03-04T11:49:38Z</time>
      </trkpt>
      <trkpt lat="45.955" lon="4.75384">
        <ele>188</ele>
        <time>2018-03-04T11:49:39Z</time>
      </trkpt>
      <trkpt lat="45.95498" lon="4.75379">
        <ele>185</ele>
        <time>2018-03-04T11:49:40Z</time>
      </trkpt>
      <trkpt lat="45.95496" lon="4.75373">
        <ele>185</ele>
        <time>2018-03-04T11:49:41Z</time>
      </trkpt>
      <trkpt lat="45.95493" lon="4.75368">
        <ele>186</ele>
        <time>2018-03-04T11:49:42Z</time>
      </trkpt>
      <trkpt lat="45.9549" lon="4.75363">
        <ele>186</ele>
        <time>2018-03-04T11:49:43Z</time>
      </trkpt>
      <trkpt lat="45.95485" lon="4.75352">
        <ele>186</ele>
        <time>2018-03-04T11:49:45Z</time>
      </trkpt>
      <trkpt lat="45.95482" lon="4.75348">
        <ele>186</ele>
        <time>2018-03-04T11:49:46Z</time>
      </trkpt>
      <trkpt lat="45.95476" lon="4.75337">
        <ele>186</ele>
        <time>2018-03-04T11:49:48Z</time>
      </trkpt>
      <trkpt lat="45.95474" lon="4.75333">
        <ele>188</ele>
        <time>2018-03-04T11:49:49Z</time>
      </trkpt>
      <trkpt lat="45.95468" lon="4.75324">
        <ele>188</ele>
        <time>2018-03-04T11:49:51Z</time>
      </trkpt>
      <trkpt lat="45.95465" lon="4.75319">
        <ele>188</ele>
        <time>2018-03-04T11:49:52Z</time>
      </trkpt>
      <trkpt lat="45.9546" lon="4.75309">
        <ele>188</ele>
        <time>2018-03-04T11:49:54Z</time>
      </trkpt>
      <trkpt lat="45.95457" lon="4.75304">
        <ele>188</ele>
        <time>2018-03-04T11:49:55Z</time>
      </trkpt>
      <trkpt lat="45.95454" lon="4.75299">
        <ele>188</ele>
        <time>2018-03-04T11:49:56Z</time>
      </trkpt>
      <trkpt lat="45.95451" lon="4.75294">
        <ele>188</ele>
        <time>2018-03-04T11:49:57Z</time>
      </trkpt>
      <trkpt lat="45.95446" lon="4.75284">
        <ele>188</ele>
        <time>2018-03-04T11:49:59Z</time>
      </trkpt>
      <trkpt lat="45.95443" lon="4.7528">
        <ele>188</ele>
        <time>2018-03-04T11:50:00Z</time>
      </trkpt>
      <trkpt lat="45.95437" lon="4.75271">
        <ele>189</ele>
        <time>2018-03-04T11:50:02Z</time>
      </trkpt>
      <trkpt lat="45.95436" lon="4.75264">
        <ele>189</ele>
        <time>2018-03-04T11:50:03Z</time>
      </trkpt>
      <trkpt lat="45.95431" lon="4.75254">
        <ele>189</ele>
        <time>2018-03-04T11:50:05Z</time>
      </trkpt>
      <trkpt lat="45.95429" lon="4.75249">
        <ele>190</ele>
        <time>2018-03-04T11:50:06Z</time>
      </trkpt>
      <trkpt lat="45.95426" lon="4.75242">
        <ele>190</ele>
        <time>2018-03-04T11:50:07Z</time>
      </trkpt>
      <trkpt lat="45.95424" lon="4.75238">
        <ele>190</ele>
        <time>2018-03-04T11:50:08Z</time>
      </trkpt>
      <trkpt lat="45.95421" lon="4.75232">
        <ele>190</ele>
        <time>2018-03-04T11:50:09Z</time>
      </trkpt>
      <trkpt lat="45.95418" lon="4.75228">
        <ele>191</ele>
        <time>2018-03-04T11:50:10Z</time>
      </trkpt>
      <trkpt lat="45.95414" lon="4.75222">
        <ele>189</ele>
        <time>2018-03-04T11:50:11Z</time>
      </trkpt>
      <trkpt lat="45.95412" lon="4.75216">
        <ele>189</ele>
        <time>2018-03-04T11:50:12Z</time>
      </trkpt>
      <trkpt lat="45.95409" lon="4.75211">
        <ele>189</ele>
        <time>2018-03-04T11:50:13Z</time>
      </trkpt>
      <trkpt lat="45.95406" lon="4.75206">
        <ele>189</ele>
        <time>2018-03-04T11:50:14Z</time>
      </trkpt>
      <trkpt lat="45.95402" lon="4.75201">
        <ele>189</ele>
        <time>2018-03-04T11:50:15Z</time>
      </trkpt>
      <trkpt lat="45.954" lon="4.75196">
        <ele>189</ele>
        <time>2018-03-04T11:50:16Z</time>
      </trkpt>
      <trkpt lat="45.95396" lon="4.75191">
        <ele>189</ele>
        <time>2018-03-04T11:50:17Z</time>
      </trkpt>
      <trkpt lat="45.95394" lon="4.75185">
        <ele>189</ele>
        <time>2018-03-04T11:50:18Z</time>
      </trkpt>
      <trkpt lat="45.95388" lon="4.75176">
        <ele>189</ele>
        <time>2018-03-04T11:50:20Z</time>
      </trkpt>
      <trkpt lat="45.95385" lon="4.7517">
        <ele>189</ele>
        <time>2018-03-04T11:50:21Z</time>
      </trkpt>
      <trkpt lat="45.9538" lon="4.75162">
        <ele>191</ele>
        <time>2018-03-04T11:50:23Z</time>
      </trkpt>
      <trkpt lat="45.95377" lon="4.75157">
        <ele>191</ele>
        <time>2018-03-04T11:50:24Z</time>
      </trkpt>
      <trkpt lat="45.95372" lon="4.75149">
        <ele>191</ele>
        <time>2018-03-04T11:50:26Z</time>
      </trkpt>
      <trkpt lat="45.95369" lon="4.75144">
        <ele>191</ele>
        <time>2018-03-04T11:50:27Z</time>
      </trkpt>
      <trkpt lat="45.95363" lon="4.75136">
        <ele>191</ele>
        <time>2018-03-04T11:50:29Z</time>
      </trkpt>
      <trkpt lat="45.95361" lon="4.75131">
        <ele>191</ele>
        <time>2018-03-04T11:50:30Z</time>
      </trkpt>
      <trkpt lat="45.95355" lon="4.75123">
        <ele>191</ele>
        <time>2018-03-04T11:50:32Z</time>
      </trkpt>
      <trkpt lat="45.95351" lon="4.75118">
        <ele>191</ele>
        <time>2018-03-04T11:50:33Z</time>
      </trkpt>
      <trkpt lat="45.95346" lon="4.7511">
        <ele>192</ele>
        <time>2018-03-04T11:50:35Z</time>
      </trkpt>
      <trkpt lat="45.95342" lon="4.75106">
        <ele>192</ele>
        <time>2018-03-04T11:50:36Z</time>
      </trkpt>
      <trkpt lat="45.95337" lon="4.75098">
        <ele>192</ele>
        <time>2018-03-04T11:50:38Z</time>
      </trkpt>
      <trkpt lat="45.95334" lon="4.75093">
        <ele>192</ele>
        <time>2018-03-04T11:50:39Z</time>
      </trkpt>
      <trkpt lat="45.95328" lon="4.75085">
        <ele>192</ele>
        <time>2018-03-04T11:50:41Z</time>
      </trkpt>
      <trkpt lat="45.95325" lon="4.75081">
        <ele>192</ele>
        <time>2018-03-04T11:50:42Z</time>
      </trkpt>
      <trkpt lat="45.9532" lon="4.75071">
        <ele>192</ele>
        <time>2018-03-04T11:50:44Z</time>
      </trkpt>
      <trkpt lat="45.95317" lon="4.75067">
        <ele>192</ele>
        <time>2018-03-04T11:50:45Z</time>
      </trkpt>
      <trkpt lat="45.95311" lon="4.75058">
        <ele>192</ele>
        <time>2018-03-04T11:50:47Z</time>
      </trkpt>
      <trkpt lat="45.95308" lon="4.75053">
        <ele>192</ele>
        <time>2018-03-04T11:50:48Z</time>
      </trkpt>
      <trkpt lat="45.95302" lon="4.75045">
        <ele>191</ele>
        <time>2018-03-04T11:50:50Z</time>
      </trkpt>
      <trkpt lat="45.953" lon="4.7504">
        <ele>191</ele>
        <time>2018-03-04T11:50:51Z</time>
      </trkpt>
      <trkpt lat="45.95294" lon="4.75032">
        <ele>191</ele>
        <time>2018-03-04T11:50:53Z</time>
      </trkpt>
      <trkpt lat="45.95292" lon="4.75028">
        <ele>191</ele>
        <time>2018-03-04T11:50:54Z</time>
      </trkpt>
      <trkpt lat="45.95287" lon="4.75019">
        <ele>191</ele>
        <time>2018-03-04T11:50:56Z</time>
      </trkpt>
      <trkpt lat="45.95284" lon="4.75014">
        <ele>191</ele>
        <time>2018-03-04T11:50:57Z</time>
      </trkpt>
      <trkpt lat="45.95278" lon="4.75006">
        <ele>191</ele>
        <time>2018-03-04T11:50:59Z</time>
      </trkpt>
      <trkpt lat="45.95275" lon="4.75001">
        <ele>191</ele>
        <time>2018-03-04T11:51:00Z</time>
      </trkpt>
      <trkpt lat="45.95269" lon="4.74992">
        <ele>192</ele>
        <time>2018-03-04T11:51:02Z</time>
      </trkpt>
      <trkpt lat="45.95266" lon="4.74988">
        <ele>192</ele>
        <time>2018-03-04T11:51:03Z</time>
      </trkpt>
      <trkpt lat="45.95263" lon="4.74982">
        <ele>192</ele>
        <time>2018-03-04T11:51:04Z</time>
      </trkpt>
      <trkpt lat="45.95259" lon="4.74978">
        <ele>192</ele>
        <time>2018-03-04T11:51:05Z</time>
      </trkpt>
      <trkpt lat="45.95255" lon="4.74974">
        <ele>192</ele>
        <time>2018-03-04T11:51:06Z</time>
      </trkpt>
      <trkpt lat="45.95253" lon="4.74968">
        <ele>192</ele>
        <time>2018-03-04T11:51:07Z</time>
      </trkpt>
      <trkpt lat="45.9525" lon="4.74962">
        <ele>191</ele>
        <time>2018-03-04T11:51:08Z</time>
      </trkpt>
      <trkpt lat="45.95246" lon="4.74957">
        <ele>192</ele>
        <time>2018-03-04T11:51:09Z</time>
      </trkpt>
      <trkpt lat="45.95243" lon="4.74952">
        <ele>192</ele>
        <time>2018-03-04T11:51:10Z</time>
      </trkpt>
      <trkpt lat="45.9524" lon="4.74947">
        <ele>192</ele>
        <time>2018-03-04T11:51:11Z</time>
      </trkpt>
      <trkpt lat="45.95235" lon="4.74938">
        <ele>192</ele>
        <time>2018-03-04T11:51:13Z</time>
      </trkpt>
      <trkpt lat="45.95232" lon="4.74933">
        <ele>192</ele>
        <time>2018-03-04T11:51:14Z</time>
      </trkpt>
      <trkpt lat="45.95226" lon="4.74924">
        <ele>192</ele>
        <time>2018-03-04T11:51:16Z</time>
      </trkpt>
      <trkpt lat="45.95223" lon="4.74919">
        <ele>192</ele>
        <time>2018-03-04T11:51:17Z</time>
      </trkpt>
      <trkpt lat="45.95218" lon="4.7491">
        <ele>193</ele>
        <time>2018-03-04T11:51:19Z</time>
      </trkpt>
      <trkpt lat="45.95215" lon="4.74904">
        <ele>193</ele>
        <time>2018-03-04T11:51:20Z</time>
      </trkpt>
      <trkpt lat="45.95209" lon="4.74895">
        <ele>193</ele>
        <time>2018-03-04T11:51:22Z</time>
      </trkpt>
      <trkpt lat="45.95206" lon="4.7489">
        <ele>194</ele>
        <time>2018-03-04T11:51:23Z</time>
      </trkpt>
      <trkpt lat="45.95202" lon="4.74885">
        <ele>194</ele>
        <time>2018-03-04T11:51:24Z</time>
      </trkpt>
      <trkpt lat="45.95199" lon="4.74879">
        <ele>194</ele>
        <time>2018-03-04T11:51:25Z</time>
      </trkpt>
      <trkpt lat="45.95195" lon="4.74874">
        <ele>194</ele>
        <time>2018-03-04T11:51:26Z</time>
      </trkpt>
      <trkpt lat="45.95192" lon="4.74868">
        <ele>194</ele>
        <time>2018-03-04T11:51:27Z</time>
      </trkpt>
      <trkpt lat="45.95188" lon="4.74863">
        <ele>194</ele>
        <time>2018-03-04T11:51:28Z</time>
      </trkpt>
      <trkpt lat="45.95185" lon="4.74858">
        <ele>194</ele>
        <time>2018-03-04T11:51:29Z</time>
      </trkpt>
      <trkpt lat="45.95182" lon="4.74853">
        <ele>194</ele>
        <time>2018-03-04T11:51:30Z</time>
      </trkpt>
      <trkpt lat="45.95179" lon="4.74848">
        <ele>194</ele>
        <time>2018-03-04T11:51:31Z</time>
      </trkpt>
      <trkpt lat="45.95176" lon="4.74843">
        <ele>194</ele>
        <time>2018-03-04T11:51:32Z</time>
      </trkpt>
      <trkpt lat="45.95172" lon="4.74838">
        <ele>194</ele>
        <time>2018-03-04T11:51:33Z</time>
      </trkpt>
      <trkpt lat="45.95169" lon="4.74832">
        <ele>194</ele>
        <time>2018-03-04T11:51:34Z</time>
      </trkpt>
      <trkpt lat="45.95166" lon="4.74827">
        <ele>194</ele>
        <time>2018-03-04T11:51:35Z</time>
      </trkpt>
      <trkpt lat="45.95162" lon="4.74821">
        <ele>194</ele>
        <time>2018-03-04T11:51:36Z</time>
      </trkpt>
      <trkpt lat="45.95159" lon="4.74816">
        <ele>194</ele>
        <time>2018-03-04T11:51:37Z</time>
      </trkpt>
      <trkpt lat="45.95155" lon="4.74812">
        <ele>194</ele>
        <time>2018-03-04T11:51:38Z</time>
      </trkpt>
      <trkpt lat="45.95152" lon="4.74807">
        <ele>194</ele>
        <time>2018-03-04T11:51:39Z</time>
      </trkpt>
      <trkpt lat="45.9515" lon="4.748">
        <ele>194</ele>
        <time>2018-03-04T11:51:40Z</time>
      </trkpt>
      <trkpt lat="45.95146" lon="4.74795">
        <ele>194</ele>
        <time>2018-03-04T11:51:41Z</time>
      </trkpt>
      <trkpt lat="45.95143" lon="4.7479">
        <ele>194</ele>
        <time>2018-03-04T11:51:42Z</time>
      </trkpt>
      <trkpt lat="45.9514" lon="4.74785">
        <ele>194</ele>
        <time>2018-03-04T11:51:43Z</time>
      </trkpt>
      <trkpt lat="45.95136" lon="4.7478">
        <ele>194</ele>
        <time>2018-03-04T11:51:44Z</time>
      </trkpt>
      <trkpt lat="45.95133" lon="4.74774">
        <ele>194</ele>
        <time>2018-03-04T11:51:45Z</time>
      </trkpt>
      <trkpt lat="45.9513" lon="4.7477">
        <ele>194</ele>
        <time>2018-03-04T11:51:46Z</time>
      </trkpt>
      <trkpt lat="45.95127" lon="4.74764">
        <ele>194</ele>
        <time>2018-03-04T11:51:47Z</time>
      </trkpt>
      <trkpt lat="45.95124" lon="4.74759">
        <ele>194</ele>
        <time>2018-03-04T11:51:48Z</time>
      </trkpt>
      <trkpt lat="45.95121" lon="4.74754">
        <ele>194</ele>
        <time>2018-03-04T11:51:49Z</time>
      </trkpt>
      <trkpt lat="45.95118" lon="4.74748">
        <ele>194</ele>
        <time>2018-03-04T11:51:50Z</time>
      </trkpt>
      <trkpt lat="45.95114" lon="4.74742">
        <ele>194</ele>
        <time>2018-03-04T11:51:51Z</time>
      </trkpt>
      <trkpt lat="45.95111" lon="4.74737">
        <ele>194</ele>
        <time>2018-03-04T11:51:52Z</time>
      </trkpt>
      <trkpt lat="45.95109" lon="4.7473">
        <ele>194</ele>
        <time>2018-03-04T11:51:53Z</time>
      </trkpt>
      <trkpt lat="45.95105" lon="4.74724">
        <ele>194</ele>
        <time>2018-03-04T11:51:54Z</time>
      </trkpt>
      <trkpt lat="45.95102" lon="4.74718">
        <ele>194</ele>
        <time>2018-03-04T11:51:55Z</time>
      </trkpt>
      <trkpt lat="45.95097" lon="4.74713">
        <ele>194</ele>
        <time>2018-03-04T11:51:56Z</time>
      </trkpt>
      <trkpt lat="45.95094" lon="4.74708">
        <ele>194</ele>
        <time>2018-03-04T11:51:57Z</time>
      </trkpt>
      <trkpt lat="45.95091" lon="4.74703">
        <ele>194</ele>
        <time>2018-03-04T11:51:58Z</time>
      </trkpt>
      <trkpt lat="45.95088" lon="4.74698">
        <ele>194</ele>
        <time>2018-03-04T11:51:59Z</time>
      </trkpt>
      <trkpt lat="45.95084" lon="4.74693">
        <ele>194</ele>
        <time>2018-03-04T11:52:00Z</time>
      </trkpt>
      <trkpt lat="45.95082" lon="4.74688">
        <ele>194</ele>
        <time>2018-03-04T11:52:01Z</time>
      </trkpt>
      <trkpt lat="45.95079" lon="4.74683">
        <ele>194</ele>
        <time>2018-03-04T11:52:02Z</time>
      </trkpt>
      <trkpt lat="45.95076" lon="4.74678">
        <ele>194</ele>
        <time>2018-03-04T11:52:03Z</time>
      </trkpt>
      <trkpt lat="45.95073" lon="4.74673">
        <ele>194</ele>
        <time>2018-03-04T11:52:04Z</time>
      </trkpt>
      <trkpt lat="45.9507" lon="4.74668">
        <ele>194</ele>
        <time>2018-03-04T11:52:05Z</time>
      </trkpt>
      <trkpt lat="45.95066" lon="4.74663">
        <ele>195</ele>
        <time>2018-03-04T11:52:06Z</time>
      </trkpt>
      <trkpt lat="45.95063" lon="4.74657">
        <ele>195</ele>
        <time>2018-03-04T11:52:07Z</time>
      </trkpt>
      <trkpt lat="45.95059" lon="4.74651">
        <ele>194</ele>
        <time>2018-03-04T11:52:08Z</time>
      </trkpt>
      <trkpt lat="45.95055" lon="4.74646">
        <ele>194</ele>
        <time>2018-03-04T11:52:09Z</time>
      </trkpt>
      <trkpt lat="45.95052" lon="4.7464">
        <ele>194</ele>
        <time>2018-03-04T11:52:10Z</time>
      </trkpt>
      <trkpt lat="45.95048" lon="4.74635">
        <ele>194</ele>
        <time>2018-03-04T11:52:11Z</time>
      </trkpt>
      <trkpt lat="45.95046" lon="4.74628">
        <ele>194</ele>
        <time>2018-03-04T11:52:12Z</time>
      </trkpt>
      <trkpt lat="45.95042" lon="4.74622">
        <ele>194</ele>
        <time>2018-03-04T11:52:13Z</time>
      </trkpt>
      <trkpt lat="45.95039" lon="4.74617">
        <ele>194</ele>
        <time>2018-03-04T11:52:14Z</time>
      </trkpt>
      <trkpt lat="45.95036" lon="4.74609">
        <ele>194</ele>
        <time>2018-03-04T11:52:15Z</time>
      </trkpt>
      <trkpt lat="45.95033" lon="4.74602">
        <ele>194</ele>
        <time>2018-03-04T11:52:16Z</time>
      </trkpt>
      <trkpt lat="45.9503" lon="4.74596">
        <ele>194</ele>
        <time>2018-03-04T11:52:17Z</time>
      </trkpt>
      <trkpt lat="45.95027" lon="4.74589">
        <ele>194</ele>
        <time>2018-03-04T11:52:18Z</time>
      </trkpt>
      <trkpt lat="45.95023" lon="4.74582">
        <ele>194</ele>
        <time>2018-03-04T11:52:19Z</time>
      </trkpt>
      <trkpt lat="45.9502" lon="4.74576">
        <ele>194</ele>
        <time>2018-03-04T11:52:20Z</time>
      </trkpt>
      <trkpt lat="45.95016" lon="4.7457">
        <ele>194</ele>
        <time>2018-03-04T11:52:21Z</time>
      </trkpt>
      <trkpt lat="45.95012" lon="4.74563">
        <ele>194</ele>
        <time>2018-03-04T11:52:22Z</time>
      </trkpt>
      <trkpt lat="45.95009" lon="4.74556">
        <ele>194</ele>
        <time>2018-03-04T11:52:23Z</time>
      </trkpt>
      <trkpt lat="45.95005" lon="4.74549">
        <ele>194</ele>
        <time>2018-03-04T11:52:24Z</time>
      </trkpt>
      <trkpt lat="45.95001" lon="4.74543">
        <ele>194</ele>
        <time>2018-03-04T11:52:25Z</time>
      </trkpt>
      <trkpt lat="45.94998" lon="4.74537">
        <ele>193</ele>
        <time>2018-03-04T11:52:26Z</time>
      </trkpt>
      <trkpt lat="45.94994" lon="4.7453">
        <ele>193</ele>
        <time>2018-03-04T11:52:27Z</time>
      </trkpt>
      <trkpt lat="45.94991" lon="4.74524">
        <ele>193</ele>
        <time>2018-03-04T11:52:28Z</time>
      </trkpt>
      <trkpt lat="45.94987" lon="4.74517">
        <ele>193</ele>
        <time>2018-03-04T11:52:29Z</time>
      </trkpt>
      <trkpt lat="45.94983" lon="4.7451">
        <ele>193</ele>
        <time>2018-03-04T11:52:30Z</time>
      </trkpt>
      <trkpt lat="45.9498" lon="4.74502">
        <ele>193</ele>
        <time>2018-03-04T11:52:31Z</time>
      </trkpt>
      <trkpt lat="45.94976" lon="4.74495">
        <ele>193</ele>
        <time>2018-03-04T11:52:32Z</time>
      </trkpt>
      <trkpt lat="45.94972" lon="4.74488">
        <ele>193</ele>
        <time>2018-03-04T11:52:33Z</time>
      </trkpt>
      <trkpt lat="45.94968" lon="4.7448">
        <ele>193</ele>
        <time>2018-03-04T11:52:34Z</time>
      </trkpt>
      <trkpt lat="45.94964" lon="4.74473">
        <ele>193</ele>
        <time>2018-03-04T11:52:35Z</time>
      </trkpt>
      <trkpt lat="45.9496" lon="4.74465">
        <ele>193</ele>
        <time>2018-03-04T11:52:36Z</time>
      </trkpt>
      <trkpt lat="45.94956" lon="4.74457">
        <ele>192</ele>
        <time>2018-03-04T11:52:37Z</time>
      </trkpt>
      <trkpt lat="45.94952" lon="4.74449">
        <ele>192</ele>
        <time>2018-03-04T11:52:38Z</time>
      </trkpt>
      <trkpt lat="45.94948" lon="4.74441">
        <ele>192</ele>
        <time>2018-03-04T11:52:39Z</time>
      </trkpt>
      <trkpt lat="45.94943" lon="4.74433">
        <ele>192</ele>
        <time>2018-03-04T11:52:40Z</time>
      </trkpt>
      <trkpt lat="45.94939" lon="4.74424">
        <ele>192</ele>
        <time>2018-03-04T11:52:41Z</time>
      </trkpt>
      <trkpt lat="45.94935" lon="4.74417">
        <ele>192</ele>
        <time>2018-03-04T11:52:42Z</time>
      </trkpt>
      <trkpt lat="45.94931" lon="4.74409">
        <ele>192</ele>
        <time>2018-03-04T11:52:43Z</time>
      </trkpt>
      <trkpt lat="45.94927" lon="4.74402">
        <ele>192</ele>
        <time>2018-03-04T11:52:44Z</time>
      </trkpt>
      <trkpt lat="45.94923" lon="4.74395">
        <ele>192</ele>
        <time>2018-03-04T11:52:45Z</time>
      </trkpt>
      <trkpt lat="45.9492" lon="4.74387">
        <ele>192</ele>
        <time>2018-03-04T11:52:46Z</time>
      </trkpt>
      <trkpt lat="45.94915" lon="4.74381">
        <ele>191</ele>
        <time>2018-03-04T11:52:47Z</time>
      </trkpt>
      <trkpt lat="45.94912" lon="4.74375">
        <ele>191</ele>
        <time>2018-03-04T11:52:48Z</time>
      </trkpt>
      <trkpt lat="45.94908" lon="4.74368">
        <ele>191</ele>
        <time>2018-03-04T11:52:49Z</time>
      </trkpt>
      <trkpt lat="45.94905" lon="4.74361">
        <ele>191</ele>
        <time>2018-03-04T11:52:50Z</time>
      </trkpt>
      <trkpt lat="45.94902" lon="4.74354">
        <ele>191</ele>
        <time>2018-03-04T11:52:51Z</time>
      </trkpt>
      <trkpt lat="45.94899" lon="4.74347">
        <ele>191</ele>
        <time>2018-03-04T11:52:52Z</time>
      </trkpt>
      <trkpt lat="45.94896" lon="4.74342">
        <ele>191</ele>
        <time>2018-03-04T11:52:53Z</time>
      </trkpt>
      <trkpt lat="45.94892" lon="4.74335">
        <ele>191</ele>
        <time>2018-03-04T11:52:54Z</time>
      </trkpt>
      <trkpt lat="45.94889" lon="4.74329">
        <ele>191</ele>
        <time>2018-03-04T11:52:55Z</time>
      </trkpt>
      <trkpt lat="45.94885" lon="4.74323">
        <ele>191</ele>
        <time>2018-03-04T11:52:56Z</time>
      </trkpt>
      <trkpt lat="45.94883" lon="4.74315">
        <ele>191</ele>
        <time>2018-03-04T11:52:57Z</time>
      </trkpt>
      <trkpt lat="45.9488" lon="4.74307">
        <ele>191</ele>
        <time>2018-03-04T11:52:58Z</time>
      </trkpt>
      <trkpt lat="45.94876" lon="4.743">
        <ele>191</ele>
        <time>2018-03-04T11:52:59Z</time>
      </trkpt>
      <trkpt lat="45.94872" lon="4.74294">
        <ele>191</ele>
        <time>2018-03-04T11:53:00Z</time>
      </trkpt>
      <trkpt lat="45.94868" lon="4.74287">
        <ele>191</ele>
        <time>2018-03-04T11:53:01Z</time>
      </trkpt>
      <trkpt lat="45.94864" lon="4.7428">
        <ele>191</ele>
        <time>2018-03-04T11:53:02Z</time>
      </trkpt>
      <trkpt lat="45.9486" lon="4.74273">
        <ele>190</ele>
        <time>2018-03-04T11:53:03Z</time>
      </trkpt>
      <trkpt lat="45.94857" lon="4.74267">
        <ele>190</ele>
        <time>2018-03-04T11:53:04Z</time>
      </trkpt>
      <trkpt lat="45.94854" lon="4.7426">
        <ele>190</ele>
        <time>2018-03-04T11:53:05Z</time>
      </trkpt>
      <trkpt lat="45.9485" lon="4.74253">
        <ele>190</ele>
        <time>2018-03-04T11:53:06Z</time>
      </trkpt>
      <trkpt lat="45.94848" lon="4.74246">
        <ele>190</ele>
        <time>2018-03-04T11:53:07Z</time>
      </trkpt>
      <trkpt lat="45.94845" lon="4.74238">
        <ele>190</ele>
        <time>2018-03-04T11:53:08Z</time>
      </trkpt>
      <trkpt lat="45.94841" lon="4.74231">
        <ele>190</ele>
        <time>2018-03-04T11:53:09Z</time>
      </trkpt>
      <trkpt lat="45.94837" lon="4.74225">
        <ele>190</ele>
        <time>2018-03-04T11:53:10Z</time>
      </trkpt>
      <trkpt lat="45.94833" lon="4.7422">
        <ele>190</ele>
        <time>2018-03-04T11:53:11Z</time>
      </trkpt>
      <trkpt lat="45.9483" lon="4.74214">
        <ele>188</ele>
        <time>2018-03-04T11:53:12Z</time>
      </trkpt>
      <trkpt lat="45.94826" lon="4.74207">
        <ele>189</ele>
        <time>2018-03-04T11:53:13Z</time>
      </trkpt>
      <trkpt lat="45.94823" lon="4.74202">
        <ele>189</ele>
        <time>2018-03-04T11:53:14Z</time>
      </trkpt>
      <trkpt lat="45.9482" lon="4.74196">
        <ele>189</ele>
        <time>2018-03-04T11:53:15Z</time>
      </trkpt>
      <trkpt lat="45.94816" lon="4.7419">
        <ele>189</ele>
        <time>2018-03-04T11:53:16Z</time>
      </trkpt>
      <trkpt lat="45.94813" lon="4.74185">
        <ele>189</ele>
        <time>2018-03-04T11:53:17Z</time>
      </trkpt>
      <trkpt lat="45.9481" lon="4.74179">
        <ele>189</ele>
        <time>2018-03-04T11:53:18Z</time>
      </trkpt>
      <trkpt lat="45.94807" lon="4.74173">
        <ele>189</ele>
        <time>2018-03-04T11:53:19Z</time>
      </trkpt>
      <trkpt lat="45.94803" lon="4.74168">
        <ele>189</ele>
        <time>2018-03-04T11:53:20Z</time>
      </trkpt>
      <trkpt lat="45.948" lon="4.74163">
        <ele>189</ele>
        <time>2018-03-04T11:53:21Z</time>
      </trkpt>
      <trkpt lat="45.94797" lon="4.74158">
        <ele>189</ele>
        <time>2018-03-04T11:53:22Z</time>
      </trkpt>
      <trkpt lat="45.94793" lon="4.74153">
        <ele>189</ele>
        <time>2018-03-04T11:53:23Z</time>
      </trkpt>
      <trkpt lat="45.9479" lon="4.74147">
        <ele>189</ele>
        <time>2018-03-04T11:53:24Z</time>
      </trkpt>
      <trkpt lat="45.94787" lon="4.74142">
        <ele>189</ele>
        <time>2018-03-04T11:53:25Z</time>
      </trkpt>
      <trkpt lat="45.94784" lon="4.74136">
        <ele>189</ele>
        <time>2018-03-04T11:53:26Z</time>
      </trkpt>
      <trkpt lat="45.9478" lon="4.74131">
        <ele>189</ele>
        <time>2018-03-04T11:53:27Z</time>
      </trkpt>
      <trkpt lat="45.94777" lon="4.74125">
        <ele>189</ele>
        <time>2018-03-04T11:53:28Z</time>
      </trkpt>
      <trkpt lat="45.94773" lon="4.7412">
        <ele>189</ele>
        <time>2018-03-04T11:53:29Z</time>
      </trkpt>
      <trkpt lat="45.94769" lon="4.74115">
        <ele>189</ele>
        <time>2018-03-04T11:53:30Z</time>
      </trkpt>
      <trkpt lat="45.94766" lon="4.7411">
        <ele>189</ele>
        <time>2018-03-04T11:53:31Z</time>
      </trkpt>
      <trkpt lat="45.94762" lon="4.74104">
        <ele>189</ele>
        <time>2018-03-04T11:53:32Z</time>
      </trkpt>
      <trkpt lat="45.94759" lon="4.74098">
        <ele>189</ele>
        <time>2018-03-04T11:53:33Z</time>
      </trkpt>
      <trkpt lat="45.94754" lon="4.74093">
        <ele>189</ele>
        <time>2018-03-04T11:53:34Z</time>
      </trkpt>
      <trkpt lat="45.9475" lon="4.74088">
        <ele>189</ele>
        <time>2018-03-04T11:53:35Z</time>
      </trkpt>
      <trkpt lat="45.94746" lon="4.74083">
        <ele>189</ele>
        <time>2018-03-04T11:53:36Z</time>
      </trkpt>
      <trkpt lat="45.94741" lon="4.74077">
        <ele>188</ele>
        <time>2018-03-04T11:53:37Z</time>
      </trkpt>
      <trkpt lat="45.94738" lon="4.74072">
        <ele>188</ele>
        <time>2018-03-04T11:53:38Z</time>
      </trkpt>
      <trkpt lat="45.94733" lon="4.74067">
        <ele>188</ele>
        <time>2018-03-04T11:53:39Z</time>
      </trkpt>
      <trkpt lat="45.94729" lon="4.74062">
        <ele>188</ele>
        <time>2018-03-04T11:53:40Z</time>
      </trkpt>
      <trkpt lat="45.94725" lon="4.74057">
        <ele>188</ele>
        <time>2018-03-04T11:53:41Z</time>
      </trkpt>
      <trkpt lat="45.9472" lon="4.74048">
        <ele>187</ele>
        <time>2018-03-04T11:53:43Z</time>
      </trkpt>
      <trkpt lat="45.94716" lon="4.74044">
        <ele>187</ele>
        <time>2018-03-04T11:53:44Z</time>
      </trkpt>
      <trkpt lat="45.9471" lon="4.74035">
        <ele>187</ele>
        <time>2018-03-04T11:53:46Z</time>
      </trkpt>
      <trkpt lat="45.94706" lon="4.74031">
        <ele>187</ele>
        <time>2018-03-04T11:53:47Z</time>
      </trkpt>
      <trkpt lat="45.94699" lon="4.74022">
        <ele>187</ele>
        <time>2018-03-04T11:53:49Z</time>
      </trkpt>
      <trkpt lat="45.94696" lon="4.74017">
        <ele>187</ele>
        <time>2018-03-04T11:53:50Z</time>
      </trkpt>
      <trkpt lat="45.94693" lon="4.74012">
        <ele>187</ele>
        <time>2018-03-04T11:53:51Z</time>
      </trkpt>
      <trkpt lat="45.9469" lon="4.74008">
        <ele>187</ele>
        <time>2018-03-04T11:53:52Z</time>
      </trkpt>
      <trkpt lat="45.94683" lon="4.73998">
        <ele>187</ele>
        <time>2018-03-04T11:53:54Z</time>
      </trkpt>
      <trkpt lat="45.94679" lon="4.73993">
        <ele>187</ele>
        <time>2018-03-04T11:53:55Z</time>
      </trkpt>
      <trkpt lat="45.94676" lon="4.73987">
        <ele>187</ele>
        <time>2018-03-04T11:53:56Z</time>
      </trkpt>
      <trkpt lat="45.94671" lon="4.73982">
        <ele>187</ele>
        <time>2018-03-04T11:53:57Z</time>
      </trkpt>
      <trkpt lat="45.94667" lon="4.73977">
        <ele>187</ele>
        <time>2018-03-04T11:53:58Z</time>
      </trkpt>
      <trkpt lat="45.94663" lon="4.73972">
        <ele>187</ele>
        <time>2018-03-04T11:53:59Z</time>
      </trkpt>
      <trkpt lat="45.94659" lon="4.73966">
        <ele>187</ele>
        <time>2018-03-04T11:54:00Z</time>
      </trkpt>
      <trkpt lat="45.94655" lon="4.7396">
        <ele>187</ele>
        <time>2018-03-04T11:54:01Z</time>
      </trkpt>
      <trkpt lat="45.9465" lon="4.73953">
        <ele>187</ele>
        <time>2018-03-04T11:54:02Z</time>
      </trkpt>
      <trkpt lat="45.94646" lon="4.73947">
        <ele>187</ele>
        <time>2018-03-04T11:54:03Z</time>
      </trkpt>
      <trkpt lat="45.94641" lon="4.73942">
        <ele>187</ele>
        <time>2018-03-04T11:54:04Z</time>
      </trkpt>
      <trkpt lat="45.94637" lon="4.73936">
        <ele>187</ele>
        <time>2018-03-04T11:54:05Z</time>
      </trkpt>
      <trkpt lat="45.94633" lon="4.7393">
        <ele>187</ele>
        <time>2018-03-04T11:54:06Z</time>
      </trkpt>
      <trkpt lat="45.94629" lon="4.73925">
        <ele>187</ele>
        <time>2018-03-04T11:54:07Z</time>
      </trkpt>
      <trkpt lat="45.94626" lon="4.73919">
        <ele>187</ele>
        <time>2018-03-04T11:54:08Z</time>
      </trkpt>
      <trkpt lat="45.94621" lon="4.73914">
        <ele>187</ele>
        <time>2018-03-04T11:54:09Z</time>
      </trkpt>
      <trkpt lat="45.94617" lon="4.7391">
        <ele>187</ele>
        <time>2018-03-04T11:54:10Z</time>
      </trkpt>
      <trkpt lat="45.94613" lon="4.73905">
        <ele>187</ele>
        <time>2018-03-04T11:54:11Z</time>
      </trkpt>
      <trkpt lat="45.94609" lon="4.739">
        <ele>187</ele>
        <time>2018-03-04T11:54:12Z</time>
      </trkpt>
      <trkpt lat="45.94605" lon="4.73895">
        <ele>187</ele>
        <time>2018-03-04T11:54:13Z</time>
      </trkpt>
      <trkpt lat="45.94601" lon="4.7389">
        <ele>187</ele>
        <time>2018-03-04T11:54:14Z</time>
      </trkpt>
      <trkpt lat="45.94597" lon="4.73885">
        <ele>187</ele>
        <time>2018-03-04T11:54:15Z</time>
      </trkpt>
      <trkpt lat="45.94593" lon="4.7388">
        <ele>187</ele>
        <time>2018-03-04T11:54:16Z</time>
      </trkpt>
      <trkpt lat="45.94588" lon="4.73875">
        <ele>187</ele>
        <time>2018-03-04T11:54:17Z</time>
      </trkpt>
      <trkpt lat="45.94583" lon="4.73871">
        <ele>186</ele>
        <time>2018-03-04T11:54:18Z</time>
      </trkpt>
      <trkpt lat="45.94579" lon="4.73865">
        <ele>186</ele>
        <time>2018-03-04T11:54:19Z</time>
      </trkpt>
      <trkpt lat="45.94574" lon="4.7386">
        <ele>186</ele>
        <time>2018-03-04T11:54:20Z</time>
      </trkpt>
      <trkpt lat="45.9457" lon="4.73856">
        <ele>186</ele>
        <time>2018-03-04T11:54:21Z</time>
      </trkpt>
      <trkpt lat="45.94565" lon="4.7385">
        <ele>186</ele>
        <time>2018-03-04T11:54:22Z</time>
      </trkpt>
      <trkpt lat="45.94561" lon="4.73845">
        <ele>186</ele>
        <time>2018-03-04T11:54:23Z</time>
      </trkpt>
      <trkpt lat="45.94556" lon="4.7384">
        <ele>186</ele>
        <time>2018-03-04T11:54:24Z</time>
      </trkpt>
      <trkpt lat="45.94551" lon="4.73836">
        <ele>186</ele>
        <time>2018-03-04T11:54:25Z</time>
      </trkpt>
      <trkpt lat="45.94547" lon="4.73831">
        <ele>186</ele>
        <time>2018-03-04T11:54:26Z</time>
      </trkpt>
      <trkpt lat="45.94542" lon="4.73827">
        <ele>186</ele>
        <time>2018-03-04T11:54:27Z</time>
      </trkpt>
      <trkpt lat="45.94538" lon="4.73823">
        <ele>186</ele>
        <time>2018-03-04T11:54:28Z</time>
      </trkpt>
      <trkpt lat="45.94533" lon="4.73818">
        <ele>186</ele>
        <time>2018-03-04T11:54:29Z</time>
      </trkpt>
      <trkpt lat="45.94529" lon="4.73813">
        <ele>186</ele>
        <time>2018-03-04T11:54:30Z</time>
      </trkpt>
      <trkpt lat="45.94524" lon="4.73809">
        <ele>186</ele>
        <time>2018-03-04T11:54:31Z</time>
      </trkpt>
      <trkpt lat="45.9452" lon="4.73804">
        <ele>186</ele>
        <time>2018-03-04T11:54:32Z</time>
      </trkpt>
      <trkpt lat="45.94516" lon="4.73799">
        <ele>186</ele>
        <time>2018-03-04T11:54:33Z</time>
      </trkpt>
      <trkpt lat="45.94511" lon="4.73795">
        <ele>186</ele>
        <time>2018-03-04T11:54:34Z</time>
      </trkpt>
      <trkpt lat="45.94507" lon="4.7379">
        <ele>186</ele>
        <time>2018-03-04T11:54:35Z</time>
      </trkpt>
      <trkpt lat="45.94503" lon="4.73785">
        <ele>186</ele>
        <time>2018-03-04T11:54:36Z</time>
      </trkpt>
      <trkpt lat="45.945" lon="4.73781">
        <ele>186</ele>
        <time>2018-03-04T11:54:37Z</time>
      </trkpt>
      <trkpt lat="45.94496" lon="4.73778">
        <ele>186</ele>
        <time>2018-03-04T11:54:38Z</time>
      </trkpt>
      <trkpt lat="45.94492" lon="4.73773">
        <ele>186</ele>
        <time>2018-03-04T11:54:39Z</time>
      </trkpt>
      <trkpt lat="45.94489" lon="4.73769">
        <ele>186</ele>
        <time>2018-03-04T11:54:40Z</time>
      </trkpt>
      <trkpt lat="45.94486" lon="4.73763">
        <ele>186</ele>
        <time>2018-03-04T11:54:41Z</time>
      </trkpt>
      <trkpt lat="45.94483" lon="4.73758">
        <ele>186</ele>
        <time>2018-03-04T11:54:42Z</time>
      </trkpt>
      <trkpt lat="45.94481" lon="4.73752">
        <ele>186</ele>
        <time>2018-03-04T11:54:43Z</time>
      </trkpt>
      <trkpt lat="45.94481" lon="4.73745">
        <ele>186</ele>
        <time>2018-03-04T11:54:44Z</time>
      </trkpt>
      <trkpt lat="45.94482" lon="4.73738">
        <ele>186</ele>
        <time>2018-03-04T11:54:45Z</time>
      </trkpt>
      <trkpt lat="45.94483" lon="4.73731">
        <ele>186</ele>
        <time>2018-03-04T11:54:46Z</time>
      </trkpt>
      <trkpt lat="45.94484" lon="4.73723">
        <ele>186</ele>
        <time>2018-03-04T11:54:47Z</time>
      </trkpt>
      <trkpt lat="45.94486" lon="4.73716">
        <ele>186</ele>
        <time>2018-03-04T11:54:48Z</time>
      </trkpt>
      <trkpt lat="45.94486" lon="4.73708">
        <ele>186</ele>
        <time>2018-03-04T11:54:49Z</time>
      </trkpt>
      <trkpt lat="45.94487" lon="4.737">
        <ele>186</ele>
        <time>2018-03-04T11:54:50Z</time>
      </trkpt>
      <trkpt lat="45.94488" lon="4.73693">
        <ele>186</ele>
        <time>2018-03-04T11:54:51Z</time>
      </trkpt>
      <trkpt lat="45.94489" lon="4.73685">
        <ele>186</ele>
        <time>2018-03-04T11:54:52Z</time>
      </trkpt>
      <trkpt lat="45.94489" lon="4.73678">
        <ele>186</ele>
        <time>2018-03-04T11:54:53Z</time>
      </trkpt>
      <trkpt lat="45.94489" lon="4.73671">
        <ele>185</ele>
        <time>2018-03-04T11:54:54Z</time>
      </trkpt>
      <trkpt lat="45.94491" lon="4.73663">
        <ele>185</ele>
        <time>2018-03-04T11:54:55Z</time>
      </trkpt>
      <trkpt lat="45.94492" lon="4.73656">
        <ele>185</ele>
        <time>2018-03-04T11:54:56Z</time>
      </trkpt>
      <trkpt lat="45.94493" lon="4.73649">
        <ele>186</ele>
        <time>2018-03-04T11:54:57Z</time>
      </trkpt>
      <trkpt lat="45.94493" lon="4.73642">
        <ele>186</ele>
        <time>2018-03-04T11:54:58Z</time>
      </trkpt>
      <trkpt lat="45.94495" lon="4.73634">
        <ele>186</ele>
        <time>2018-03-04T11:54:59Z</time>
      </trkpt>
      <trkpt lat="45.94497" lon="4.73627">
        <ele>186</ele>
        <time>2018-03-04T11:55:00Z</time>
      </trkpt>
      <trkpt lat="45.94498" lon="4.7362">
        <ele>186</ele>
        <time>2018-03-04T11:55:01Z</time>
      </trkpt>
      <trkpt lat="45.94499" lon="4.73612">
        <ele>186</ele>
        <time>2018-03-04T11:55:02Z</time>
      </trkpt>
      <trkpt lat="45.94499" lon="4.73604">
        <ele>186</ele>
        <time>2018-03-04T11:55:03Z</time>
      </trkpt>
      <trkpt lat="45.945" lon="4.73597">
        <ele>184</ele>
        <time>2018-03-04T11:55:04Z</time>
      </trkpt>
      <trkpt lat="45.945" lon="4.73588">
        <ele>185</ele>
        <time>2018-03-04T11:55:05Z</time>
      </trkpt>
      <trkpt lat="45.94501" lon="4.7358">
        <ele>185</ele>
        <time>2018-03-04T11:55:06Z</time>
      </trkpt>
      <trkpt lat="45.94501" lon="4.73571">
        <ele>184</ele>
        <time>2018-03-04T11:55:07Z</time>
      </trkpt>
      <trkpt lat="45.94502" lon="4.73563">
        <ele>184</ele>
        <time>2018-03-04T11:55:08Z</time>
      </trkpt>
      <trkpt lat="45.94502" lon="4.73554">
        <ele>183</ele>
        <time>2018-03-04T11:55:09Z</time>
      </trkpt>
      <trkpt lat="45.94502" lon="4.73545">
        <ele>183</ele>
        <time>2018-03-04T11:55:10Z</time>
      </trkpt>
      <trkpt lat="45.94503" lon="4.73537">
        <ele>183</ele>
        <time>2018-03-04T11:55:11Z</time>
      </trkpt>
      <trkpt lat="45.94503" lon="4.73527">
        <ele>183</ele>
        <time>2018-03-04T11:55:12Z</time>
      </trkpt>
      <trkpt lat="45.94504" lon="4.73515">
        <ele>183</ele>
        <time>2018-03-04T11:55:13Z</time>
      </trkpt>
      <trkpt lat="45.94504" lon="4.73506">
        <ele>183</ele>
        <time>2018-03-04T11:55:14Z</time>
      </trkpt>
      <trkpt lat="45.94504" lon="4.73497">
        <ele>183</ele>
        <time>2018-03-04T11:55:15Z</time>
      </trkpt>
      <trkpt lat="45.94505" lon="4.73486">
        <ele>182</ele>
        <time>2018-03-04T11:55:16Z</time>
      </trkpt>
      <trkpt lat="45.94505" lon="4.73475">
        <ele>182</ele>
        <time>2018-03-04T11:55:17Z</time>
      </trkpt>
      <trkpt lat="45.94505" lon="4.73466">
        <ele>181</ele>
        <time>2018-03-04T11:55:18Z</time>
      </trkpt>
      <trkpt lat="45.94504" lon="4.73456">
        <ele>181</ele>
        <time>2018-03-04T11:55:19Z</time>
      </trkpt>
      <trkpt lat="45.94504" lon="4.73446">
        <ele>181</ele>
        <time>2018-03-04T11:55:20Z</time>
      </trkpt>
      <trkpt lat="45.94504" lon="4.73436">
        <ele>181</ele>
        <time>2018-03-04T11:55:21Z</time>
      </trkpt>
      <trkpt lat="45.94503" lon="4.73425">
        <ele>180</ele>
        <time>2018-03-04T11:55:22Z</time>
      </trkpt>
      <trkpt lat="45.94502" lon="4.73415">
        <ele>180</ele>
        <time>2018-03-04T11:55:23Z</time>
      </trkpt>
      <trkpt lat="45.94501" lon="4.73405">
        <ele>179</ele>
        <time>2018-03-04T11:55:24Z</time>
      </trkpt>
      <trkpt lat="45.945" lon="4.73395">
        <ele>179</ele>
        <time>2018-03-04T11:55:25Z</time>
      </trkpt>
      <trkpt lat="45.94499" lon="4.73385">
        <ele>179</ele>
        <time>2018-03-04T11:55:26Z</time>
      </trkpt>
      <trkpt lat="45.94497" lon="4.73375">
        <ele>179</ele>
        <time>2018-03-04T11:55:27Z</time>
      </trkpt>
      <trkpt lat="45.94497" lon="4.73365">
        <ele>179</ele>
        <time>2018-03-04T11:55:28Z</time>
      </trkpt>
      <trkpt lat="45.94495" lon="4.73353">
        <ele>178</ele>
        <time>2018-03-04T11:55:29Z</time>
      </trkpt>
      <trkpt lat="45.94494" lon="4.73343">
        <ele>178</ele>
        <time>2018-03-04T11:55:30Z</time>
      </trkpt>
      <trkpt lat="45.94493" lon="4.73332">
        <ele>177</ele>
        <time>2018-03-04T11:55:31Z</time>
      </trkpt>
      <trkpt lat="45.94491" lon="4.73321">
        <ele>177</ele>
        <time>2018-03-04T11:55:32Z</time>
      </trkpt>
      <trkpt lat="45.9449" lon="4.7331">
        <ele>177</ele>
        <time>2018-03-04T11:55:33Z</time>
      </trkpt>
      <trkpt lat="45.94489" lon="4.73299">
        <ele>177</ele>
        <time>2018-03-04T11:55:34Z</time>
      </trkpt>
      <trkpt lat="45.94487" lon="4.73289">
        <ele>177</ele>
        <time>2018-03-04T11:55:35Z</time>
      </trkpt>
      <trkpt lat="45.94485" lon="4.73278">
        <ele>177</ele>
        <time>2018-03-04T11:55:36Z</time>
      </trkpt>
      <trkpt lat="45.94484" lon="4.73267">
        <ele>177</ele>
        <time>2018-03-04T11:55:37Z</time>
      </trkpt>
      <trkpt lat="45.94484" lon="4.73255">
        <ele>176</ele>
        <time>2018-03-04T11:55:38Z</time>
      </trkpt>
      <trkpt lat="45.94483" lon="4.73245">
        <ele>175</ele>
        <time>2018-03-04T11:55:39Z</time>
      </trkpt>
      <trkpt lat="45.94482" lon="4.73234">
        <ele>175</ele>
        <time>2018-03-04T11:55:40Z</time>
      </trkpt>
      <trkpt lat="45.94481" lon="4.73222">
        <ele>175</ele>
        <time>2018-03-04T11:55:41Z</time>
      </trkpt>
      <trkpt lat="45.94478" lon="4.73211">
        <ele>175</ele>
        <time>2018-03-04T11:55:42Z</time>
      </trkpt>
      <trkpt lat="45.94477" lon="4.732">
        <ele>174</ele>
        <time>2018-03-04T11:55:43Z</time>
      </trkpt>
      <trkpt lat="45.94476" lon="4.73191">
        <ele>174</ele>
        <time>2018-03-04T11:55:44Z</time>
      </trkpt>
      <trkpt lat="45.94474" lon="4.73179">
        <ele>174</ele>
        <time>2018-03-04T11:55:45Z</time>
      </trkpt>
      <trkpt lat="45.94472" lon="4.73169">
        <ele>174</ele>
        <time>2018-03-04T11:55:46Z</time>
      </trkpt>
      <trkpt lat="45.94471" lon="4.73158">
        <ele>172</ele>
        <time>2018-03-04T11:55:47Z</time>
      </trkpt>
      <trkpt lat="45.94469" lon="4.73149">
        <ele>172</ele>
        <time>2018-03-04T11:55:48Z</time>
      </trkpt>
      <trkpt lat="45.94468" lon="4.7314">
        <ele>172</ele>
        <time>2018-03-04T11:55:49Z</time>
      </trkpt>
      <trkpt lat="45.94467" lon="4.73131">
        <ele>172</ele>
        <time>2018-03-04T11:55:50Z</time>
      </trkpt>
      <trkpt lat="45.94466" lon="4.73123">
        <ele>172</ele>
        <time>2018-03-04T11:55:51Z</time>
      </trkpt>
      <trkpt lat="45.94466" lon="4.73115">
        <ele>172</ele>
        <time>2018-03-04T11:55:52Z</time>
      </trkpt>
      <trkpt lat="45.94463" lon="4.73106">
        <ele>172</ele>
        <time>2018-03-04T11:55:53Z</time>
      </trkpt>
      <trkpt lat="45.94462" lon="4.73099">
        <ele>171</ele>
        <time>2018-03-04T11:55:54Z</time>
      </trkpt>
      <trkpt lat="45.9446" lon="4.73089">
        <ele>171</ele>
        <time>2018-03-04T11:55:55Z</time>
      </trkpt>
      <trkpt lat="45.94459" lon="4.73081">
        <ele>170</ele>
        <time>2018-03-04T11:55:56Z</time>
      </trkpt>
      <trkpt lat="45.94458" lon="4.73071">
        <ele>170</ele>
        <time>2018-03-04T11:55:57Z</time>
      </trkpt>
      <trkpt lat="45.94456" lon="4.73064">
        <ele>170</ele>
        <time>2018-03-04T11:55:58Z</time>
      </trkpt>
      <trkpt lat="45.94455" lon="4.73057">
        <ele>170</ele>
        <time>2018-03-04T11:55:59Z</time>
      </trkpt>
      <trkpt lat="45.94454" lon="4.73051">
        <ele>170</ele>
        <time>2018-03-04T11:56:00Z</time>
      </trkpt>
      <trkpt lat="45.94455" lon="4.73042">
        <ele>169</ele>
        <time>2018-03-04T11:56:01Z</time>
      </trkpt>
      <trkpt lat="45.94454" lon="4.73035">
        <ele>169</ele>
        <time>2018-03-04T11:56:02Z</time>
      </trkpt>
      <trkpt lat="45.94453" lon="4.73028">
        <ele>169</ele>
        <time>2018-03-04T11:56:03Z</time>
      </trkpt>
      <trkpt lat="45.94453" lon="4.7302">
        <ele>169</ele>
        <time>2018-03-04T11:56:04Z</time>
      </trkpt>
      <trkpt lat="45.94452" lon="4.73013">
        <ele>169</ele>
        <time>2018-03-04T11:56:05Z</time>
      </trkpt>
      <trkpt lat="45.94451" lon="4.73006">
        <ele>169</ele>
        <time>2018-03-04T11:56:06Z</time>
      </trkpt>
      <trkpt lat="45.94449" lon="4.73">
        <ele>169</ele>
        <time>2018-03-04T11:56:07Z</time>
      </trkpt>
      <trkpt lat="45.94449" lon="4.72993">
        <ele>167</ele>
        <time>2018-03-04T11:56:08Z</time>
      </trkpt>
      <trkpt lat="45.94448" lon="4.72987">
        <ele>167</ele>
        <time>2018-03-04T11:56:09Z</time>
      </trkpt>
      <trkpt lat="45.94447" lon="4.7298">
        <ele>167</ele>
        <time>2018-03-04T11:56:10Z</time>
      </trkpt>
      <trkpt lat="45.94446" lon="4.72973">
        <ele>167</ele>
        <time>2018-03-04T11:56:11Z</time>
      </trkpt>
      <trkpt lat="45.94445" lon="4.72967">
        <ele>167</ele>
        <time>2018-03-04T11:56:12Z</time>
      </trkpt>
      <trkpt lat="45.94444" lon="4.7296">
        <ele>167</ele>
        <time>2018-03-04T11:56:13Z</time>
      </trkpt>
      <trkpt lat="45.94443" lon="4.72952">
        <ele>167</ele>
        <time>2018-03-04T11:56:14Z</time>
      </trkpt>
      <trkpt lat="45.94442" lon="4.72946">
        <ele>167</ele>
        <time>2018-03-04T11:56:15Z</time>
      </trkpt>
      <trkpt lat="45.9444" lon="4.72933">
        <ele>167</ele>
        <time>2018-03-04T11:56:17Z</time>
      </trkpt>
      <trkpt lat="45.9444" lon="4.72927">
        <ele>167</ele>
        <time>2018-03-04T11:56:18Z</time>
      </trkpt>
      <trkpt lat="45.94438" lon="4.72915">
        <ele>166</ele>
        <time>2018-03-04T11:56:20Z</time>
      </trkpt>
      <trkpt lat="45.94437" lon="4.72909">
        <ele>166</ele>
        <time>2018-03-04T11:56:21Z</time>
      </trkpt>
      <trkpt lat="45.94435" lon="4.72897">
        <ele>166</ele>
        <time>2018-03-04T11:56:23Z</time>
      </trkpt>
      <trkpt lat="45.94434" lon="4.7289">
        <ele>166</ele>
        <time>2018-03-04T11:56:24Z</time>
      </trkpt>
      <trkpt lat="45.94433" lon="4.72883">
        <ele>166</ele>
        <time>2018-03-04T11:56:25Z</time>
      </trkpt>
      <trkpt lat="45.94432" lon="4.72876">
        <ele>166</ele>
        <time>2018-03-04T11:56:26Z</time>
      </trkpt>
      <trkpt lat="45.94431" lon="4.72869">
        <ele>166</ele>
        <time>2018-03-04T11:56:27Z</time>
      </trkpt>
      <trkpt lat="45.9443" lon="4.72861">
        <ele>166</ele>
        <time>2018-03-04T11:56:28Z</time>
      </trkpt>
      <trkpt lat="45.94431" lon="4.72852">
        <ele>166</ele>
        <time>2018-03-04T11:56:29Z</time>
      </trkpt>
      <trkpt lat="45.94429" lon="4.72845">
        <ele>166</ele>
        <time>2018-03-04T11:56:30Z</time>
      </trkpt>
      <trkpt lat="45.94427" lon="4.72836">
        <ele>166</ele>
        <time>2018-03-04T11:56:31Z</time>
      </trkpt>
      <trkpt lat="45.94426" lon="4.72827">
        <ele>167</ele>
        <time>2018-03-04T11:56:32Z</time>
      </trkpt>
      <trkpt lat="45.94425" lon="4.72818">
        <ele>167</ele>
        <time>2018-03-04T11:56:33Z</time>
      </trkpt>
      <trkpt lat="45.94424" lon="4.72809">
        <ele>167</ele>
        <time>2018-03-04T11:56:34Z</time>
      </trkpt>
      <trkpt lat="45.94422" lon="4.72801">
        <ele>167</ele>
        <time>2018-03-04T11:56:35Z</time>
      </trkpt>
      <trkpt lat="45.94422" lon="4.7279">
        <ele>168</ele>
        <time>2018-03-04T11:56:36Z</time>
      </trkpt>
      <trkpt lat="45.94422" lon="4.72781">
        <ele>168</ele>
        <time>2018-03-04T11:56:37Z</time>
      </trkpt>
      <trkpt lat="45.9442" lon="4.72772">
        <ele>169</ele>
        <time>2018-03-04T11:56:38Z</time>
      </trkpt>
      <trkpt lat="45.94419" lon="4.72763">
        <ele>169</ele>
        <time>2018-03-04T11:56:39Z</time>
      </trkpt>
      <trkpt lat="45.94418" lon="4.72754">
        <ele>170</ele>
        <time>2018-03-04T11:56:40Z</time>
      </trkpt>
      <trkpt lat="45.94417" lon="4.72745">
        <ele>171</ele>
        <time>2018-03-04T11:56:41Z</time>
      </trkpt>
      <trkpt lat="45.94417" lon="4.72737">
        <ele>171</ele>
        <time>2018-03-04T11:56:42Z</time>
      </trkpt>
      <trkpt lat="45.94417" lon="4.72728">
        <ele>172</ele>
        <time>2018-03-04T11:56:43Z</time>
      </trkpt>
      <trkpt lat="45.94416" lon="4.7272">
        <ele>172</ele>
        <time>2018-03-04T11:56:44Z</time>
      </trkpt>
      <trkpt lat="45.94415" lon="4.72711">
        <ele>172</ele>
        <time>2018-03-04T11:56:45Z</time>
      </trkpt>
      <trkpt lat="45.94414" lon="4.72702">
        <ele>172</ele>
        <time>2018-03-04T11:56:46Z</time>
      </trkpt>
      <trkpt lat="45.94413" lon="4.72694">
        <ele>173</ele>
        <time>2018-03-04T11:56:47Z</time>
      </trkpt>
      <trkpt lat="45.94411" lon="4.72686">
        <ele>173</ele>
        <time>2018-03-04T11:56:48Z</time>
      </trkpt>
      <trkpt lat="45.9441" lon="4.72677">
        <ele>173</ele>
        <time>2018-03-04T11:56:49Z</time>
      </trkpt>
      <trkpt lat="45.94409" lon="4.72669">
        <ele>173</ele>
        <time>2018-03-04T11:56:50Z</time>
      </trkpt>
      <trkpt lat="45.94407" lon="4.72662">
        <ele>174</ele>
        <time>2018-03-04T11:56:51Z</time>
      </trkpt>
      <trkpt lat="45.94406" lon="4.72654">
        <ele>174</ele>
        <time>2018-03-04T11:56:52Z</time>
      </trkpt>
      <trkpt lat="45.94405" lon="4.72644">
        <ele>174</ele>
        <time>2018-03-04T11:56:53Z</time>
      </trkpt>
      <trkpt lat="45.94405" lon="4.72636">
        <ele>174</ele>
        <time>2018-03-04T11:56:54Z</time>
      </trkpt>
      <trkpt lat="45.94404" lon="4.72629">
        <ele>174</ele>
        <time>2018-03-04T11:56:55Z</time>
      </trkpt>
      <trkpt lat="45.94403" lon="4.72622">
        <ele>173</ele>
        <time>2018-03-04T11:56:56Z</time>
      </trkpt>
      <trkpt lat="45.94402" lon="4.72613">
        <ele>173</ele>
        <time>2018-03-04T11:56:57Z</time>
      </trkpt>
      <trkpt lat="45.94402" lon="4.72608">
        <ele>173</ele>
        <time>2018-03-04T11:56:58Z</time>
      </trkpt>
      <trkpt lat="45.94401" lon="4.726">
        <ele>173</ele>
        <time>2018-03-04T11:56:59Z</time>
      </trkpt>
      <trkpt lat="45.94401" lon="4.72592">
        <ele>173</ele>
        <time>2018-03-04T11:57:00Z</time>
      </trkpt>
      <trkpt lat="45.94399" lon="4.72584">
        <ele>173</ele>
        <time>2018-03-04T11:57:01Z</time>
      </trkpt>
      <trkpt lat="45.94398" lon="4.72576">
        <ele>173</ele>
        <time>2018-03-04T11:57:02Z</time>
      </trkpt>
      <trkpt lat="45.94397" lon="4.72568">
        <ele>173</ele>
        <time>2018-03-04T11:57:03Z</time>
      </trkpt>
      <trkpt lat="45.94395" lon="4.7256">
        <ele>173</ele>
        <time>2018-03-04T11:57:04Z</time>
      </trkpt>
      <trkpt lat="45.94393" lon="4.72553">
        <ele>173</ele>
        <time>2018-03-04T11:57:05Z</time>
      </trkpt>
      <trkpt lat="45.94391" lon="4.72544">
        <ele>173</ele>
        <time>2018-03-04T11:57:06Z</time>
      </trkpt>
      <trkpt lat="45.94389" lon="4.72537">
        <ele>174</ele>
        <time>2018-03-04T11:57:07Z</time>
      </trkpt>
      <trkpt lat="45.94387" lon="4.7253">
        <ele>174</ele>
        <time>2018-03-04T11:57:08Z</time>
      </trkpt>
      <trkpt lat="45.94384" lon="4.72523">
        <ele>174</ele>
        <time>2018-03-04T11:57:09Z</time>
      </trkpt>
      <trkpt lat="45.94382" lon="4.72516">
        <ele>174</ele>
        <time>2018-03-04T11:57:10Z</time>
      </trkpt>
      <trkpt lat="45.94383" lon="4.72504">
        <ele>174</ele>
        <time>2018-03-04T11:57:11Z</time>
      </trkpt>
      <trkpt lat="45.94381" lon="4.72498">
        <ele>173</ele>
        <time>2018-03-04T11:57:12Z</time>
      </trkpt>
      <trkpt lat="45.94379" lon="4.72491">
        <ele>173</ele>
        <time>2018-03-04T11:57:13Z</time>
      </trkpt>
      <trkpt lat="45.94377" lon="4.72485">
        <ele>173</ele>
        <time>2018-03-04T11:57:14Z</time>
      </trkpt>
      <trkpt lat="45.94373" lon="4.72479">
        <ele>173</ele>
        <time>2018-03-04T11:57:15Z</time>
      </trkpt>
      <trkpt lat="45.9437" lon="4.72472">
        <ele>173</ele>
        <time>2018-03-04T11:57:16Z</time>
      </trkpt>
      <trkpt lat="45.94368" lon="4.72464">
        <ele>173</ele>
        <time>2018-03-04T11:57:17Z</time>
      </trkpt>
      <trkpt lat="45.94365" lon="4.72458">
        <ele>173</ele>
        <time>2018-03-04T11:57:18Z</time>
      </trkpt>
      <trkpt lat="45.94362" lon="4.72452">
        <ele>173</ele>
        <time>2018-03-04T11:57:19Z</time>
      </trkpt>
      <trkpt lat="45.94359" lon="4.72445">
        <ele>173</ele>
        <time>2018-03-04T11:57:20Z</time>
      </trkpt>
      <trkpt lat="45.94355" lon="4.72439">
        <ele>173</ele>
        <time>2018-03-04T11:57:21Z</time>
      </trkpt>
      <trkpt lat="45.94352" lon="4.72433">
        <ele>173</ele>
        <time>2018-03-04T11:57:22Z</time>
      </trkpt>
      <trkpt lat="45.94349" lon="4.72427">
        <ele>173</ele>
        <time>2018-03-04T11:57:23Z</time>
      </trkpt>
      <trkpt lat="45.94345" lon="4.72421">
        <ele>173</ele>
        <time>2018-03-04T11:57:24Z</time>
      </trkpt>
      <trkpt lat="45.94342" lon="4.72414">
        <ele>173</ele>
        <time>2018-03-04T11:57:25Z</time>
      </trkpt>
      <trkpt lat="45.94339" lon="4.72408">
        <ele>173</ele>
        <time>2018-03-04T11:57:26Z</time>
      </trkpt>
      <trkpt lat="45.94336" lon="4.72403">
        <ele>173</ele>
        <time>2018-03-04T11:57:27Z</time>
      </trkpt>
      <trkpt lat="45.94334" lon="4.72398">
        <ele>172</ele>
        <time>2018-03-04T11:57:28Z</time>
      </trkpt>
      <trkpt lat="45.94331" lon="4.72392">
        <ele>172</ele>
        <time>2018-03-04T11:57:29Z</time>
      </trkpt>
      <trkpt lat="45.94328" lon="4.72387">
        <ele>172</ele>
        <time>2018-03-04T11:57:30Z</time>
      </trkpt>
      <trkpt lat="45.94324" lon="4.72382">
        <ele>172</ele>
        <time>2018-03-04T11:57:31Z</time>
      </trkpt>
      <trkpt lat="45.94321" lon="4.72375">
        <ele>172</ele>
        <time>2018-03-04T11:57:32Z</time>
      </trkpt>
      <trkpt lat="45.94319" lon="4.72369">
        <ele>172</ele>
        <time>2018-03-04T11:57:33Z</time>
      </trkpt>
      <trkpt lat="45.94317" lon="4.72363">
        <ele>172</ele>
        <time>2018-03-04T11:57:34Z</time>
      </trkpt>
      <trkpt lat="45.94314" lon="4.72357">
        <ele>172</ele>
        <time>2018-03-04T11:57:35Z</time>
      </trkpt>
      <trkpt lat="45.94311" lon="4.72351">
        <ele>172</ele>
        <time>2018-03-04T11:57:36Z</time>
      </trkpt>
      <trkpt lat="45.94309" lon="4.72344">
        <ele>172</ele>
        <time>2018-03-04T11:57:37Z</time>
      </trkpt>
      <trkpt lat="45.94305" lon="4.72339">
        <ele>172</ele>
        <time>2018-03-04T11:57:38Z</time>
      </trkpt>
      <trkpt lat="45.94301" lon="4.72333">
        <ele>171</ele>
        <time>2018-03-04T11:57:39Z</time>
      </trkpt>
      <trkpt lat="45.94298" lon="4.72326">
        <ele>171</ele>
        <time>2018-03-04T11:57:40Z</time>
      </trkpt>
      <trkpt lat="45.94295" lon="4.72319">
        <ele>171</ele>
        <time>2018-03-04T11:57:41Z</time>
      </trkpt>
      <trkpt lat="45.94292" lon="4.72311">
        <ele>171</ele>
        <time>2018-03-04T11:57:42Z</time>
      </trkpt>
      <trkpt lat="45.94289" lon="4.72304">
        <ele>171</ele>
        <time>2018-03-04T11:57:43Z</time>
      </trkpt>
      <trkpt lat="45.94286" lon="4.72298">
        <ele>171</ele>
        <time>2018-03-04T11:57:44Z</time>
      </trkpt>
      <trkpt lat="45.94283" lon="4.72291">
        <ele>171</ele>
        <time>2018-03-04T11:57:45Z</time>
      </trkpt>
      <trkpt lat="45.9428" lon="4.72286">
        <ele>171</ele>
        <time>2018-03-04T11:57:46Z</time>
      </trkpt>
      <trkpt lat="45.94276" lon="4.72279">
        <ele>171</ele>
        <time>2018-03-04T11:57:47Z</time>
      </trkpt>
      <trkpt lat="45.94272" lon="4.72276">
        <ele>171</ele>
        <time>2018-03-04T11:57:48Z</time>
      </trkpt>
      <trkpt lat="45.94263" lon="4.72275">
        <ele>171</ele>
        <time>2018-03-04T11:57:50Z</time>
      </trkpt>
      <trkpt lat="45.9426" lon="4.72276">
        <ele>171</ele>
        <time>2018-03-04T11:57:51Z</time>
      </trkpt>
      <trkpt lat="45.94255" lon="4.72276">
        <ele>171</ele>
        <time>2018-03-04T11:57:52Z</time>
      </trkpt>
      <trkpt lat="45.94251" lon="4.72278">
        <ele>171</ele>
        <time>2018-03-04T11:57:53Z</time>
      </trkpt>
      <trkpt lat="45.94246" lon="4.7228">
        <ele>171</ele>
        <time>2018-03-04T11:57:54Z</time>
      </trkpt>
      <trkpt lat="45.94242" lon="4.72281">
        <ele>171</ele>
        <time>2018-03-04T11:57:55Z</time>
      </trkpt>
      <trkpt lat="45.94237" lon="4.72282">
        <ele>171</ele>
        <time>2018-03-04T11:57:56Z</time>
      </trkpt>
      <trkpt lat="45.94232" lon="4.72283">
        <ele>171</ele>
        <time>2018-03-04T11:57:57Z</time>
      </trkpt>
      <trkpt lat="45.94227" lon="4.72285">
        <ele>171</ele>
        <time>2018-03-04T11:57:58Z</time>
      </trkpt>
      <trkpt lat="45.94222" lon="4.72287">
        <ele>171</ele>
        <time>2018-03-04T11:57:59Z</time>
      </trkpt>
      <trkpt lat="45.94217" lon="4.72288">
        <ele>171</ele>
        <time>2018-03-04T11:58:00Z</time>
      </trkpt>
      <trkpt lat="45.94213" lon="4.72287">
        <ele>171</ele>
        <time>2018-03-04T11:58:01Z</time>
      </trkpt>
      <trkpt lat="45.94207" lon="4.72287">
        <ele>171</ele>
        <time>2018-03-04T11:58:02Z</time>
      </trkpt>
      <trkpt lat="45.94201" lon="4.72289">
        <ele>171</ele>
        <time>2018-03-04T11:58:03Z</time>
      </trkpt>
      <trkpt lat="45.94196" lon="4.72288">
        <ele>171</ele>
        <time>2018-03-04T11:58:04Z</time>
      </trkpt>
      <trkpt lat="45.94191" lon="4.72288">
        <ele>171</ele>
        <time>2018-03-04T11:58:05Z</time>
      </trkpt>
      <trkpt lat="45.94186" lon="4.72288">
        <ele>171</ele>
        <time>2018-03-04T11:58:06Z</time>
      </trkpt>
      <trkpt lat="45.94181" lon="4.72288">
        <ele>171</ele>
        <time>2018-03-04T11:58:07Z</time>
      </trkpt>
      <trkpt lat="45.94175" lon="4.72287">
        <ele>171</ele>
        <time>2018-03-04T11:58:08Z</time>
      </trkpt>
      <trkpt lat="45.9417" lon="4.72288">
        <ele>171</ele>
        <time>2018-03-04T11:58:09Z</time>
      </trkpt>
      <trkpt lat="45.94163" lon="4.72288">
        <ele>171</ele>
        <time>2018-03-04T11:58:10Z</time>
      </trkpt>
      <trkpt lat="45.94159" lon="4.72286">
        <ele>171</ele>
        <time>2018-03-04T11:58:11Z</time>
      </trkpt>
      <trkpt lat="45.94153" lon="4.72285">
        <ele>171</ele>
        <time>2018-03-04T11:58:12Z</time>
      </trkpt>
      <trkpt lat="45.9415" lon="4.72284">
        <ele>171</ele>
        <time>2018-03-04T11:58:13Z</time>
      </trkpt>
      <trkpt lat="45.94145" lon="4.7228">
        <ele>171</ele>
        <time>2018-03-04T11:58:14Z</time>
      </trkpt>
      <trkpt lat="45.9414" lon="4.72279">
        <ele>171</ele>
        <time>2018-03-04T11:58:15Z</time>
      </trkpt>
      <trkpt lat="45.94136" lon="4.72277">
        <ele>171</ele>
        <time>2018-03-04T11:58:16Z</time>
      </trkpt>
      <trkpt lat="45.94131" lon="4.72275">
        <ele>171</ele>
        <time>2018-03-04T11:58:17Z</time>
      </trkpt>
      <trkpt lat="45.94127" lon="4.72272">
        <ele>171</ele>
        <time>2018-03-04T11:58:18Z</time>
      </trkpt>
      <trkpt lat="45.94122" lon="4.72271">
        <ele>171</ele>
        <time>2018-03-04T11:58:19Z</time>
      </trkpt>
      <trkpt lat="45.94116" lon="4.72268">
        <ele>171</ele>
        <time>2018-03-04T11:58:20Z</time>
      </trkpt>
      <trkpt lat="45.94111" lon="4.72267">
        <ele>171</ele>
        <time>2018-03-04T11:58:21Z</time>
      </trkpt>
      <trkpt lat="45.94107" lon="4.72265">
        <ele>171</ele>
        <time>2018-03-04T11:58:22Z</time>
      </trkpt>
      <trkpt lat="45.94102" lon="4.72264">
        <ele>171</ele>
        <time>2018-03-04T11:58:23Z</time>
      </trkpt>
      <trkpt lat="45.94094" lon="4.72264">
        <ele>171</ele>
        <time>2018-03-04T11:58:25Z</time>
      </trkpt>
      <trkpt lat="45.94089" lon="4.72264">
        <ele>171</ele>
        <time>2018-03-04T11:58:26Z</time>
      </trkpt>
      <trkpt lat="45.9408" lon="4.72265">
        <ele>171</ele>
        <time>2018-03-04T11:58:28Z</time>
      </trkpt>
      <trkpt lat="45.94077" lon="4.72267">
        <ele>171</ele>
        <time>2018-03-04T11:58:29Z</time>
      </trkpt>
      <trkpt lat="45.94069" lon="4.72273">
        <ele>171</ele>
        <time>2018-03-04T11:58:31Z</time>
      </trkpt>
      <trkpt lat="45.94066" lon="4.72275">
        <ele>171</ele>
        <time>2018-03-04T11:58:32Z</time>
      </trkpt>
      <trkpt lat="45.94061" lon="4.72283">
        <ele>171</ele>
        <time>2018-03-04T11:58:34Z</time>
      </trkpt>
      <trkpt lat="45.94057" lon="4.72287">
        <ele>171</ele>
        <time>2018-03-04T11:58:35Z</time>
      </trkpt>
      <trkpt lat="45.94054" lon="4.72291">
        <ele>171</ele>
        <time>2018-03-04T11:58:36Z</time>
      </trkpt>
      <trkpt lat="45.94051" lon="4.72296">
        <ele>171</ele>
        <time>2018-03-04T11:58:37Z</time>
      </trkpt>
      <trkpt lat="45.94045" lon="4.72303">
        <ele>171</ele>
        <time>2018-03-04T11:58:39Z</time>
      </trkpt>
      <trkpt lat="45.94042" lon="4.72307">
        <ele>171</ele>
        <time>2018-03-04T11:58:40Z</time>
      </trkpt>
      <trkpt lat="45.94036" lon="4.72314">
        <ele>171</ele>
        <time>2018-03-04T11:58:42Z</time>
      </trkpt>
      <trkpt lat="45.94032" lon="4.72319">
        <ele>171</ele>
        <time>2018-03-04T11:58:43Z</time>
      </trkpt>
      <trkpt lat="45.94028" lon="4.72324">
        <ele>171</ele>
        <time>2018-03-04T11:58:44Z</time>
      </trkpt>
      <trkpt lat="45.94024" lon="4.72329">
        <ele>171</ele>
        <time>2018-03-04T11:58:45Z</time>
      </trkpt>
      <trkpt lat="45.9402" lon="4.72334">
        <ele>171</ele>
        <time>2018-03-04T11:58:46Z</time>
      </trkpt>
      <trkpt lat="45.94016" lon="4.72338">
        <ele>171</ele>
        <time>2018-03-04T11:58:47Z</time>
      </trkpt>
      <trkpt lat="45.9401" lon="4.72346">
        <ele>171</ele>
        <time>2018-03-04T11:58:49Z</time>
      </trkpt>
      <trkpt lat="45.94006" lon="4.72351">
        <ele>171</ele>
        <time>2018-03-04T11:58:50Z</time>
      </trkpt>
      <trkpt lat="45.94002" lon="4.72356">
        <ele>171</ele>
        <time>2018-03-04T11:58:51Z</time>
      </trkpt>
      <trkpt lat="45.93999" lon="4.72361">
        <ele>171</ele>
        <time>2018-03-04T11:58:52Z</time>
      </trkpt>
      <trkpt lat="45.93996" lon="4.72366">
        <ele>171</ele>
        <time>2018-03-04T11:58:53Z</time>
      </trkpt>
      <trkpt lat="45.93991" lon="4.72371">
        <ele>171</ele>
        <time>2018-03-04T11:58:54Z</time>
      </trkpt>
      <trkpt lat="45.93987" lon="4.72377">
        <ele>171</ele>
        <time>2018-03-04T11:58:55Z</time>
      </trkpt>
      <trkpt lat="45.93983" lon="4.72382">
        <ele>171</ele>
        <time>2018-03-04T11:58:56Z</time>
      </trkpt>
      <trkpt lat="45.93977" lon="4.7239">
        <ele>171</ele>
        <time>2018-03-04T11:58:58Z</time>
      </trkpt>
      <trkpt lat="45.93973" lon="4.72394">
        <ele>171</ele>
        <time>2018-03-04T11:58:59Z</time>
      </trkpt>
      <trkpt lat="45.93966" lon="4.724">
        <ele>171</ele>
        <time>2018-03-04T11:59:01Z</time>
      </trkpt>
      <trkpt lat="45.93963" lon="4.72405">
        <ele>171</ele>
        <time>2018-03-04T11:59:02Z</time>
      </trkpt>
      <trkpt lat="45.93958" lon="4.72414">
        <ele>171</ele>
        <time>2018-03-04T11:59:04Z</time>
      </trkpt>
      <trkpt lat="45.93956" lon="4.72417">
        <ele>171</ele>
        <time>2018-03-04T11:59:05Z</time>
      </trkpt>
      <trkpt lat="45.93951" lon="4.72423">
        <ele>171</ele>
        <time>2018-03-04T11:59:06Z</time>
      </trkpt>
      <trkpt lat="45.93947" lon="4.72427">
        <ele>171</ele>
        <time>2018-03-04T11:59:07Z</time>
      </trkpt>
      <trkpt lat="45.93941" lon="4.72436">
        <ele>171</ele>
        <time>2018-03-04T11:59:09Z</time>
      </trkpt>
      <trkpt lat="45.93938" lon="4.72439">
        <ele>171</ele>
        <time>2018-03-04T11:59:10Z</time>
      </trkpt>
      <trkpt lat="45.93935" lon="4.72444">
        <ele>171</ele>
        <time>2018-03-04T11:59:11Z</time>
      </trkpt>
      <trkpt lat="45.93931" lon="4.72447">
        <ele>171</ele>
        <time>2018-03-04T11:59:12Z</time>
      </trkpt>
      <trkpt lat="45.93924" lon="4.72455">
        <ele>171</ele>
        <time>2018-03-04T11:59:14Z</time>
      </trkpt>
      <trkpt lat="45.93921" lon="4.72458">
        <ele>171</ele>
        <time>2018-03-04T11:59:15Z</time>
      </trkpt>
      <trkpt lat="45.93915" lon="4.72465">
        <ele>172</ele>
        <time>2018-03-04T11:59:17Z</time>
      </trkpt>
      <trkpt lat="45.93912" lon="4.72469">
        <ele>172</ele>
        <time>2018-03-04T11:59:18Z</time>
      </trkpt>
      <trkpt lat="45.93906" lon="4.72476">
        <ele>172</ele>
        <time>2018-03-04T11:59:20Z</time>
      </trkpt>
      <trkpt lat="45.93903" lon="4.7248">
        <ele>172</ele>
        <time>2018-03-04T11:59:21Z</time>
      </trkpt>
      <trkpt lat="45.93897" lon="4.72487">
        <ele>172</ele>
        <time>2018-03-04T11:59:23Z</time>
      </trkpt>
      <trkpt lat="45.93895" lon="4.72491">
        <ele>172</ele>
        <time>2018-03-04T11:59:24Z</time>
      </trkpt>
      <trkpt lat="45.93888" lon="4.72499">
        <ele>172</ele>
        <time>2018-03-04T11:59:26Z</time>
      </trkpt>
      <trkpt lat="45.93885" lon="4.72502">
        <ele>173</ele>
        <time>2018-03-04T11:59:27Z</time>
      </trkpt>
      <trkpt lat="45.93878" lon="4.7251">
        <ele>173</ele>
        <time>2018-03-04T11:59:29Z</time>
      </trkpt>
      <trkpt lat="45.93875" lon="4.72513">
        <ele>173</ele>
        <time>2018-03-04T11:59:30Z</time>
      </trkpt>
      <trkpt lat="45.9387" lon="4.72513">
        <ele>173</ele>
        <time>2018-03-04T11:59:31Z</time>
      </trkpt>
      <trkpt lat="45.93865" lon="4.72513">
        <ele>173</ele>
        <time>2018-03-04T11:59:32Z</time>
      </trkpt>
      <trkpt lat="45.93857" lon="4.72508">
        <ele>173</ele>
        <time>2018-03-04T11:59:34Z</time>
      </trkpt>
      <trkpt lat="45.93854" lon="4.72504">
        <ele>173</ele>
        <time>2018-03-04T11:59:35Z</time>
      </trkpt>
      <trkpt lat="45.93848" lon="4.72499">
        <ele>173</ele>
        <time>2018-03-04T11:59:37Z</time>
      </trkpt>
      <trkpt lat="45.93844" lon="4.72497">
        <ele>173</ele>
        <time>2018-03-04T11:59:38Z</time>
      </trkpt>
      <trkpt lat="45.93837" lon="4.72491">
        <ele>173</ele>
        <time>2018-03-04T11:59:40Z</time>
      </trkpt>
      <trkpt lat="45.93833" lon="4.72488">
        <ele>173</ele>
        <time>2018-03-04T11:59:41Z</time>
      </trkpt>
      <trkpt lat="45.93826" lon="4.72473">
        <ele>172</ele>
        <time>2018-03-04T11:59:42Z</time>
      </trkpt>
      <trkpt lat="45.93819" lon="4.72469">
        <ele>172</ele>
        <time>2018-03-04T11:59:44Z</time>
      </trkpt>
      <trkpt lat="45.93815" lon="4.72466">
        <ele>172</ele>
        <time>2018-03-04T11:59:45Z</time>
      </trkpt>
      <trkpt lat="45.93808" lon="4.7246">
        <ele>172</ele>
        <time>2018-03-04T11:59:47Z</time>
      </trkpt>
      <trkpt lat="45.93805" lon="4.7246">
        <ele>172</ele>
        <time>2018-03-04T11:59:48Z</time>
      </trkpt>
      <trkpt lat="45.93798" lon="4.72454">
        <ele>172</ele>
        <time>2018-03-04T11:59:50Z</time>
      </trkpt>
      <trkpt lat="45.93796" lon="4.72453">
        <ele>172</ele>
        <time>2018-03-04T11:59:51Z</time>
      </trkpt>
      <trkpt lat="45.93789" lon="4.72448">
        <ele>172</ele>
        <time>2018-03-04T11:59:52Z</time>
      </trkpt>
      <trkpt lat="45.93786" lon="4.72445">
        <ele>172</ele>
        <time>2018-03-04T11:59:53Z</time>
      </trkpt>
      <trkpt lat="45.9378" lon="4.72439">
        <ele>172</ele>
        <time>2018-03-04T11:59:55Z</time>
      </trkpt>
      <trkpt lat="45.93777" lon="4.72436">
        <ele>172</ele>
        <time>2018-03-04T11:59:56Z</time>
      </trkpt>
      <trkpt lat="45.93771" lon="4.72429">
        <ele>171</ele>
        <time>2018-03-04T11:59:58Z</time>
      </trkpt>
      <trkpt lat="45.93768" lon="4.72425">
        <ele>171</ele>
        <time>2018-03-04T11:59:59Z</time>
      </trkpt>
      <trkpt lat="45.93764" lon="4.72421">
        <ele>171</ele>
        <time>2018-03-04T12:00:00Z</time>
      </trkpt>
      <trkpt lat="45.93761" lon="4.72416">
        <ele>171</ele>
        <time>2018-03-04T12:00:01Z</time>
      </trkpt>
      <trkpt lat="45.93757" lon="4.72412">
        <ele>171</ele>
        <time>2018-03-04T12:00:02Z</time>
      </trkpt>
      <trkpt lat="45.93754" lon="4.72408">
        <ele>171</ele>
        <time>2018-03-04T12:00:03Z</time>
      </trkpt>
      <trkpt lat="45.93746" lon="4.72402">
        <ele>171</ele>
        <time>2018-03-04T12:00:05Z</time>
      </trkpt>
      <trkpt lat="45.93743" lon="4.72398">
        <ele>171</ele>
        <time>2018-03-04T12:00:06Z</time>
      </trkpt>
      <trkpt lat="45.93736" lon="4.72391">
        <ele>171</ele>
        <time>2018-03-04T12:00:08Z</time>
      </trkpt>
      <trkpt lat="45.93732" lon="4.72387">
        <ele>171</ele>
        <time>2018-03-04T12:00:09Z</time>
      </trkpt>
      <trkpt lat="45.93728" lon="4.72383">
        <ele>171</ele>
        <time>2018-03-04T12:00:10Z</time>
      </trkpt>
      <trkpt lat="45.93725" lon="4.72379">
        <ele>171</ele>
        <time>2018-03-04T12:00:11Z</time>
      </trkpt>
      <trkpt lat="45.9372" lon="4.72374">
        <ele>172</ele>
        <time>2018-03-04T12:00:12Z</time>
      </trkpt>
      <trkpt lat="45.93716" lon="4.7237">
        <ele>172</ele>
        <time>2018-03-04T12:00:13Z</time>
      </trkpt>
      <trkpt lat="45.93712" lon="4.72367">
        <ele>172</ele>
        <time>2018-03-04T12:00:14Z</time>
      </trkpt>
      <trkpt lat="45.93708" lon="4.72364">
        <ele>171</ele>
        <time>2018-03-04T12:00:15Z</time>
      </trkpt>
      <trkpt lat="45.93704" lon="4.72362">
        <ele>171</ele>
        <time>2018-03-04T12:00:16Z</time>
      </trkpt>
      <trkpt lat="45.937" lon="4.72359">
        <ele>171</ele>
        <time>2018-03-04T12:00:17Z</time>
      </trkpt>
      <trkpt lat="45.93694" lon="4.72355">
        <ele>171</ele>
        <time>2018-03-04T12:00:19Z</time>
      </trkpt>
      <trkpt lat="45.93689" lon="4.7235">
        <ele>171</ele>
        <time>2018-03-04T12:00:20Z</time>
      </trkpt>
      <trkpt lat="45.93686" lon="4.72349">
        <ele>171</ele>
        <time>2018-03-04T12:00:22Z</time>
      </trkpt>
      <trkpt lat="45.93679" lon="4.72345">
        <ele>171</ele>
        <time>2018-03-04T12:00:23Z</time>
      </trkpt>
      <trkpt lat="45.93674" lon="4.72342">
        <ele>171</ele>
        <time>2018-03-04T12:00:24Z</time>
      </trkpt>
      <trkpt lat="45.93671" lon="4.72338">
        <ele>171</ele>
        <time>2018-03-04T12:00:25Z</time>
      </trkpt>
      <trkpt lat="45.93664" lon="4.72332">
        <ele>171</ele>
        <time>2018-03-04T12:00:27Z</time>
      </trkpt>
      <trkpt lat="45.93661" lon="4.72328">
        <ele>171</ele>
        <time>2018-03-04T12:00:28Z</time>
      </trkpt>
      <trkpt lat="45.93657" lon="4.72324">
        <ele>172</ele>
        <time>2018-03-04T12:00:29Z</time>
      </trkpt>
      <trkpt lat="45.93654" lon="4.7232">
        <ele>172</ele>
        <time>2018-03-04T12:00:30Z</time>
      </trkpt>
      <trkpt lat="45.93647" lon="4.72312">
        <ele>172</ele>
        <time>2018-03-04T12:00:32Z</time>
      </trkpt>
      <trkpt lat="45.93643" lon="4.72308">
        <ele>172</ele>
        <time>2018-03-04T12:00:33Z</time>
      </trkpt>
      <trkpt lat="45.93637" lon="4.72299">
        <ele>172</ele>
        <time>2018-03-04T12:00:35Z</time>
      </trkpt>
      <trkpt lat="45.93634" lon="4.72295">
        <ele>172</ele>
        <time>2018-03-04T12:00:36Z</time>
      </trkpt>
      <trkpt lat="45.93628" lon="4.72288">
        <ele>172</ele>
        <time>2018-03-04T12:00:38Z</time>
      </trkpt>
      <trkpt lat="45.93624" lon="4.72284">
        <ele>172</ele>
        <time>2018-03-04T12:00:39Z</time>
      </trkpt>
      <trkpt lat="45.93618" lon="4.72277">
        <ele>172</ele>
        <time>2018-03-04T12:00:41Z</time>
      </trkpt>
      <trkpt lat="45.93614" lon="4.72274">
        <ele>172</ele>
        <time>2018-03-04T12:00:42Z</time>
      </trkpt>
      <trkpt lat="45.93607" lon="4.72268">
        <ele>172</ele>
        <time>2018-03-04T12:00:44Z</time>
      </trkpt>
      <trkpt lat="45.93604" lon="4.72265">
        <ele>173</ele>
        <time>2018-03-04T12:00:45Z</time>
      </trkpt>
      <trkpt lat="45.93601" lon="4.72262">
        <ele>173</ele>
        <time>2018-03-04T12:00:47Z</time>
      </trkpt>
      <trkpt lat="45.93595" lon="4.72257">
        <ele>173</ele>
        <time>2018-03-04T12:00:48Z</time>
      </trkpt>
      <trkpt lat="45.93589" lon="4.72251">
        <ele>173</ele>
        <time>2018-03-04T12:00:50Z</time>
      </trkpt>
      <trkpt lat="45.93585" lon="4.72248">
        <ele>173</ele>
        <time>2018-03-04T12:00:51Z</time>
      </trkpt>
      <trkpt lat="45.93578" lon="4.72241">
        <ele>173</ele>
        <time>2018-03-04T12:00:53Z</time>
      </trkpt>
      <trkpt lat="45.93577" lon="4.7224">
        <ele>173</ele>
        <time>2018-03-04T12:00:54Z</time>
      </trkpt>
      <trkpt lat="45.93573" lon="4.72234">
        <ele>173</ele>
        <time>2018-03-04T12:00:55Z</time>
      </trkpt>
      <trkpt lat="45.93569" lon="4.7223">
        <ele>173</ele>
        <time>2018-03-04T12:00:56Z</time>
      </trkpt>
      <trkpt lat="45.93563" lon="4.72223">
        <ele>173</ele>
        <time>2018-03-04T12:00:58Z</time>
      </trkpt>
      <trkpt lat="45.93562" lon="4.72222">
        <ele>173</ele>
        <time>2018-03-04T12:00:59Z</time>
      </trkpt>
      <trkpt lat="45.93555" lon="4.72219">
        <ele>173</ele>
        <time>2018-03-04T12:01:02Z</time>
      </trkpt>
      <trkpt lat="45.93553" lon="4.72219">
        <ele>173</ele>
        <time>2018-03-04T12:01:03Z</time>
      </trkpt>
      <trkpt lat="45.93546" lon="4.72225">
        <ele>172</ele>
        <time>2018-03-04T12:01:06Z</time>
      </trkpt>
      <trkpt lat="45.93545" lon="4.72228">
        <ele>172</ele>
        <time>2018-03-04T12:01:07Z</time>
      </trkpt>
      <trkpt lat="45.93542" lon="4.72238">
        <ele>172</ele>
        <time>2018-03-04T12:01:10Z</time>
      </trkpt>
      <trkpt lat="45.93541" lon="4.72242">
        <ele>172</ele>
        <time>2018-03-04T12:01:11Z</time>
      </trkpt>
      <trkpt lat="45.93538" lon="4.72253">
        <ele>172</ele>
        <time>2018-03-04T12:01:14Z</time>
      </trkpt>
      <trkpt lat="45.93537" lon="4.72257">
        <ele>172</ele>
        <time>2018-03-04T12:01:15Z</time>
      </trkpt>
      <trkpt lat="45.93532" lon="4.7227">
        <ele>172</ele>
        <time>2018-03-04T12:01:16Z</time>
      </trkpt>
      <trkpt lat="45.93528" lon="4.72279">
        <ele>172</ele>
        <time>2018-03-04T12:01:18Z</time>
      </trkpt>
      <trkpt lat="45.93527" lon="4.72285">
        <ele>172</ele>
        <time>2018-03-04T12:01:19Z</time>
      </trkpt>
      <trkpt lat="45.93525" lon="4.7229">
        <ele>172</ele>
        <time>2018-03-04T12:01:20Z</time>
      </trkpt>
      <trkpt lat="45.93521" lon="4.72297">
        <ele>172</ele>
        <time>2018-03-04T12:01:21Z</time>
      </trkpt>
      <trkpt lat="45.93518" lon="4.72301">
        <ele>172</ele>
        <time>2018-03-04T12:01:22Z</time>
      </trkpt>
      <trkpt lat="45.93513" lon="4.72306">
        <ele>173</ele>
        <time>2018-03-04T12:01:23Z</time>
      </trkpt>
      <trkpt lat="45.93505" lon="4.72313">
        <ele>173</ele>
        <time>2018-03-04T12:01:25Z</time>
      </trkpt>
      <trkpt lat="45.93501" lon="4.72317">
        <ele>173</ele>
        <time>2018-03-04T12:01:26Z</time>
      </trkpt>
      <trkpt lat="45.93496" lon="4.72323">
        <ele>173</ele>
        <time>2018-03-04T12:01:27Z</time>
      </trkpt>
      <trkpt lat="45.93493" lon="4.72327">
        <ele>173</ele>
        <time>2018-03-04T12:01:28Z</time>
      </trkpt>
      <trkpt lat="45.9349" lon="4.72332">
        <ele>173</ele>
        <time>2018-03-04T12:01:29Z</time>
      </trkpt>
      <trkpt lat="45.93486" lon="4.72335">
        <ele>173</ele>
        <time>2018-03-04T12:01:30Z</time>
      </trkpt>
      <trkpt lat="45.9348" lon="4.72344">
        <ele>173</ele>
        <time>2018-03-04T12:01:32Z</time>
      </trkpt>
      <trkpt lat="45.93476" lon="4.72349">
        <ele>173</ele>
        <time>2018-03-04T12:01:33Z</time>
      </trkpt>
      <trkpt lat="45.93472" lon="4.72359">
        <ele>173</ele>
        <time>2018-03-04T12:01:35Z</time>
      </trkpt>
      <trkpt lat="45.93469" lon="4.72361">
        <ele>173</ele>
        <time>2018-03-04T12:01:36Z</time>
      </trkpt>
      <trkpt lat="45.93463" lon="4.7237">
        <ele>173</ele>
        <time>2018-03-04T12:01:38Z</time>
      </trkpt>
      <trkpt lat="45.93462" lon="4.72372">
        <ele>173</ele>
        <time>2018-03-04T12:01:39Z</time>
      </trkpt>
      <trkpt lat="45.93457" lon="4.72377">
        <ele>173</ele>
        <time>2018-03-04T12:01:40Z</time>
      </trkpt>
      <trkpt lat="45.93453" lon="4.7238">
        <ele>173</ele>
        <time>2018-03-04T12:01:41Z</time>
      </trkpt>
      <trkpt lat="45.93447" lon="4.72386">
        <ele>173</ele>
        <time>2018-03-04T12:01:43Z</time>
      </trkpt>
      <trkpt lat="45.93444" lon="4.72389">
        <ele>173</ele>
        <time>2018-03-04T12:01:44Z</time>
      </trkpt>
      <trkpt lat="45.93439" lon="4.72393">
        <ele>173</ele>
        <time>2018-03-04T12:01:47Z</time>
      </trkpt>
      <trkpt lat="45.93433" lon="4.72397">
        <ele>173</ele>
        <time>2018-03-04T12:01:48Z</time>
      </trkpt>
      <trkpt lat="45.93426" lon="4.72401">
        <ele>174</ele>
        <time>2018-03-04T12:01:51Z</time>
      </trkpt>
      <trkpt lat="45.93424" lon="4.72401">
        <ele>174</ele>
        <time>2018-03-04T12:01:52Z</time>
      </trkpt>
      <trkpt lat="45.9342" lon="4.72404">
        <ele>174</ele>
        <time>2018-03-04T12:01:55Z</time>
      </trkpt>
      <trkpt lat="45.93413" lon="4.72408">
        <ele>174</ele>
        <time>2018-03-04T12:01:56Z</time>
      </trkpt>
      <trkpt lat="45.93408" lon="4.72408">
        <ele>174</ele>
        <time>2018-03-04T12:01:57Z</time>
      </trkpt>
      <trkpt lat="45.93403" lon="4.72408">
        <ele>174</ele>
        <time>2018-03-04T12:01:58Z</time>
      </trkpt>
      <trkpt lat="45.93396" lon="4.7241">
        <ele>174</ele>
        <time>2018-03-04T12:02:00Z</time>
      </trkpt>
      <trkpt lat="45.93394" lon="4.72412">
        <ele>174</ele>
        <time>2018-03-04T12:02:01Z</time>
      </trkpt>
      <trkpt lat="45.93392" lon="4.72419">
        <ele>173</ele>
        <time>2018-03-04T12:02:02Z</time>
      </trkpt>
      <trkpt lat="45.93392" lon="4.72426">
        <ele>173</ele>
        <time>2018-03-04T12:02:03Z</time>
      </trkpt>
      <trkpt lat="45.93397" lon="4.72435">
        <ele>173</ele>
        <time>2018-03-04T12:02:04Z</time>
      </trkpt>
      <trkpt lat="45.93399" lon="4.72441">
        <ele>173</ele>
        <time>2018-03-04T12:02:05Z</time>
      </trkpt>
      <trkpt lat="45.93399" lon="4.72448">
        <ele>173</ele>
        <time>2018-03-04T12:02:06Z</time>
      </trkpt>
      <trkpt lat="45.93398" lon="4.72456">
        <ele>173</ele>
        <time>2018-03-04T12:02:07Z</time>
      </trkpt>
      <trkpt lat="45.93393" lon="4.72467">
        <ele>173</ele>
        <time>2018-03-04T12:02:09Z</time>
      </trkpt>
      <trkpt lat="45.9339" lon="4.72472">
        <ele>173</ele>
        <time>2018-03-04T12:02:10Z</time>
      </trkpt>
      <trkpt lat="45.93385" lon="4.72476">
        <ele>173</ele>
        <time>2018-03-04T12:02:11Z</time>
      </trkpt>
      <trkpt lat="45.93382" lon="4.7248">
        <ele>173</ele>
        <time>2018-03-04T12:02:12Z</time>
      </trkpt>
      <trkpt lat="45.93374" lon="4.72486">
        <ele>173</ele>
        <time>2018-03-04T12:02:14Z</time>
      </trkpt>
      <trkpt lat="45.93371" lon="4.72489">
        <ele>173</ele>
        <time>2018-03-04T12:02:15Z</time>
      </trkpt>
      <trkpt lat="45.93368" lon="4.72493">
        <ele>173</ele>
        <time>2018-03-04T12:02:16Z</time>
      </trkpt>
      <trkpt lat="45.93362" lon="4.72496">
        <ele>173</ele>
        <time>2018-03-04T12:02:17Z</time>
      </trkpt>
      <trkpt lat="45.93357" lon="4.72502">
        <ele>172</ele>
        <time>2018-03-04T12:02:19Z</time>
      </trkpt>
      <trkpt lat="45.93353" lon="4.72508">
        <ele>172</ele>
        <time>2018-03-04T12:02:20Z</time>
      </trkpt>
      <trkpt lat="45.93346" lon="4.72515">
        <ele>172</ele>
        <time>2018-03-04T12:02:22Z</time>
      </trkpt>
      <trkpt lat="45.93343" lon="4.72518">
        <ele>172</ele>
        <time>2018-03-04T12:02:23Z</time>
      </trkpt>
      <trkpt lat="45.93337" lon="4.72525">
        <ele>172</ele>
        <time>2018-03-04T12:02:25Z</time>
      </trkpt>
      <trkpt lat="45.93333" lon="4.72529">
        <ele>172</ele>
        <time>2018-03-04T12:02:26Z</time>
      </trkpt>
      <trkpt lat="45.93327" lon="4.72536">
        <ele>172</ele>
        <time>2018-03-04T12:02:28Z</time>
      </trkpt>
      <trkpt lat="45.93324" lon="4.72539">
        <ele>172</ele>
        <time>2018-03-04T12:02:29Z</time>
      </trkpt>
      <trkpt lat="45.93317" lon="4.72547">
        <ele>172</ele>
        <time>2018-03-04T12:02:31Z</time>
      </trkpt>
      <trkpt lat="45.93314" lon="4.72551">
        <ele>172</ele>
        <time>2018-03-04T12:02:32Z</time>
      </trkpt>
      <trkpt lat="45.93309" lon="4.72557">
        <ele>172</ele>
        <time>2018-03-04T12:02:34Z</time>
      </trkpt>
      <trkpt lat="45.93304" lon="4.72563">
        <ele>172</ele>
        <time>2018-03-04T12:02:35Z</time>
      </trkpt>
      <trkpt lat="45.93299" lon="4.72571">
        <ele>171</ele>
        <time>2018-03-04T12:02:37Z</time>
      </trkpt>
      <trkpt lat="45.93296" lon="4.72575">
        <ele>171</ele>
        <time>2018-03-04T12:02:38Z</time>
      </trkpt>
      <trkpt lat="45.93289" lon="4.72583">
        <ele>171</ele>
        <time>2018-03-04T12:02:40Z</time>
      </trkpt>
      <trkpt lat="45.93286" lon="4.72587">
        <ele>170</ele>
        <time>2018-03-04T12:02:41Z</time>
      </trkpt>
      <trkpt lat="45.9328" lon="4.72594">
        <ele>170</ele>
        <time>2018-03-04T12:02:43Z</time>
      </trkpt>
      <trkpt lat="45.93277" lon="4.72597">
        <ele>170</ele>
        <time>2018-03-04T12:02:44Z</time>
      </trkpt>
      <trkpt lat="45.93271" lon="4.72604">
        <ele>170</ele>
        <time>2018-03-04T12:02:46Z</time>
      </trkpt>
      <trkpt lat="45.93268" lon="4.72607">
        <ele>170</ele>
        <time>2018-03-04T12:02:47Z</time>
      </trkpt>
      <trkpt lat="45.93262" lon="4.72615">
        <ele>170</ele>
        <time>2018-03-04T12:02:49Z</time>
      </trkpt>
      <trkpt lat="45.93258" lon="4.72618">
        <ele>170</ele>
        <time>2018-03-04T12:02:50Z</time>
      </trkpt>
      <trkpt lat="45.93252" lon="4.72625">
        <ele>170</ele>
        <time>2018-03-04T12:02:52Z</time>
      </trkpt>
      <trkpt lat="45.93249" lon="4.72628">
        <ele>170</ele>
        <time>2018-03-04T12:02:53Z</time>
      </trkpt>
      <trkpt lat="45.93243" lon="4.72634">
        <ele>170</ele>
        <time>2018-03-04T12:02:55Z</time>
      </trkpt>
      <trkpt lat="45.9324" lon="4.72638">
        <ele>170</ele>
        <time>2018-03-04T12:02:56Z</time>
      </trkpt>
      <trkpt lat="45.93233" lon="4.72645">
        <ele>170</ele>
        <time>2018-03-04T12:02:58Z</time>
      </trkpt>
      <trkpt lat="45.93229" lon="4.72649">
        <ele>170</ele>
        <time>2018-03-04T12:02:59Z</time>
      </trkpt>
      <trkpt lat="45.93223" lon="4.72657">
        <ele>170</ele>
        <time>2018-03-04T12:03:01Z</time>
      </trkpt>
      <trkpt lat="45.93219" lon="4.7266">
        <ele>170</ele>
        <time>2018-03-04T12:03:02Z</time>
      </trkpt>
      <trkpt lat="45.93213" lon="4.72669">
        <ele>169</ele>
        <time>2018-03-04T12:03:04Z</time>
      </trkpt>
      <trkpt lat="45.93209" lon="4.72673">
        <ele>169</ele>
        <time>2018-03-04T12:03:05Z</time>
      </trkpt>
      <trkpt lat="45.93203" lon="4.72681">
        <ele>169</ele>
        <time>2018-03-04T12:03:07Z</time>
      </trkpt>
      <trkpt lat="45.932" lon="4.72685">
        <ele>169</ele>
        <time>2018-03-04T12:03:08Z</time>
      </trkpt>
      <trkpt lat="45.93197" lon="4.72689">
        <ele>169</ele>
        <time>2018-03-04T12:03:09Z</time>
      </trkpt>
      <trkpt lat="45.93192" lon="4.72693">
        <ele>169</ele>
        <time>2018-03-04T12:03:10Z</time>
      </trkpt>
      <trkpt lat="45.93187" lon="4.72699">
        <ele>169</ele>
        <time>2018-03-04T12:03:12Z</time>
      </trkpt>
      <trkpt lat="45.93183" lon="4.72702">
        <ele>169</ele>
        <time>2018-03-04T12:03:13Z</time>
      </trkpt>
      <trkpt lat="45.93177" lon="4.7271">
        <ele>169</ele>
        <time>2018-03-04T12:03:15Z</time>
      </trkpt>
      <trkpt lat="45.93173" lon="4.72714">
        <ele>170</ele>
        <time>2018-03-04T12:03:16Z</time>
      </trkpt>
      <trkpt lat="45.93167" lon="4.72722">
        <ele>170</ele>
        <time>2018-03-04T12:03:18Z</time>
      </trkpt>
      <trkpt lat="45.93163" lon="4.72725">
        <ele>170</ele>
        <time>2018-03-04T12:03:19Z</time>
      </trkpt>
      <trkpt lat="45.93159" lon="4.72729">
        <ele>170</ele>
        <time>2018-03-04T12:03:20Z</time>
      </trkpt>
      <trkpt lat="45.93156" lon="4.72733">
        <ele>170</ele>
        <time>2018-03-04T12:03:21Z</time>
      </trkpt>
      <trkpt lat="45.93149" lon="4.7274">
        <ele>170</ele>
        <time>2018-03-04T12:03:23Z</time>
      </trkpt>
      <trkpt lat="45.93146" lon="4.72744">
        <ele>170</ele>
        <time>2018-03-04T12:03:24Z</time>
      </trkpt>
      <trkpt lat="45.93139" lon="4.72751">
        <ele>171</ele>
        <time>2018-03-04T12:03:26Z</time>
      </trkpt>
      <trkpt lat="45.93136" lon="4.72755">
        <ele>171</ele>
        <time>2018-03-04T12:03:27Z</time>
      </trkpt>
      <trkpt lat="45.9313" lon="4.72763">
        <ele>171</ele>
        <time>2018-03-04T12:03:29Z</time>
      </trkpt>
      <trkpt lat="45.93127" lon="4.72767">
        <ele>171</ele>
        <time>2018-03-04T12:03:30Z</time>
      </trkpt>
      <trkpt lat="45.93121" lon="4.72774">
        <ele>171</ele>
        <time>2018-03-04T12:03:32Z</time>
      </trkpt>
      <trkpt lat="45.93118" lon="4.72778">
        <ele>171</ele>
        <time>2018-03-04T12:03:33Z</time>
      </trkpt>
      <trkpt lat="45.93113" lon="4.72786">
        <ele>171</ele>
        <time>2018-03-04T12:03:35Z</time>
      </trkpt>
      <trkpt lat="45.93111" lon="4.7279">
        <ele>171</ele>
        <time>2018-03-04T12:03:36Z</time>
      </trkpt>
      <trkpt lat="45.93105" lon="4.72798">
        <ele>171</ele>
        <time>2018-03-04T12:03:38Z</time>
      </trkpt>
      <trkpt lat="45.93102" lon="4.72802">
        <ele>171</ele>
        <time>2018-03-04T12:03:39Z</time>
      </trkpt>
      <trkpt lat="45.93095" lon="4.72809">
        <ele>172</ele>
        <time>2018-03-04T12:03:41Z</time>
      </trkpt>
      <trkpt lat="45.93092" lon="4.72812">
        <ele>172</ele>
        <time>2018-03-04T12:03:42Z</time>
      </trkpt>
      <trkpt lat="45.93085" lon="4.72819">
        <ele>172</ele>
        <time>2018-03-04T12:03:44Z</time>
      </trkpt>
      <trkpt lat="45.93082" lon="4.72822">
        <ele>173</ele>
        <time>2018-03-04T12:03:45Z</time>
      </trkpt>
      <trkpt lat="45.93077" lon="4.72828">
        <ele>173</ele>
        <time>2018-03-04T12:03:49Z</time>
      </trkpt>
      <trkpt lat="45.93068" lon="4.72837">
        <ele>173</ele>
        <time>2018-03-04T12:03:50Z</time>
      </trkpt>
      <trkpt lat="45.93063" lon="4.72843">
        <ele>172</ele>
        <time>2018-03-04T12:03:52Z</time>
      </trkpt>
      <trkpt lat="45.93052" lon="4.7285">
        <ele>172</ele>
        <time>2018-03-04T12:03:53Z</time>
      </trkpt>
      <trkpt lat="45.93048" lon="4.7286">
        <ele>172</ele>
        <time>2018-03-04T12:03:56Z</time>
      </trkpt>
      <trkpt lat="45.93047" lon="4.72863">
        <ele>172</ele>
        <time>2018-03-04T12:03:57Z</time>
      </trkpt>
      <trkpt lat="45.9304" lon="4.7287">
        <ele>172</ele>
        <time>2018-03-04T12:03:59Z</time>
      </trkpt>
      <trkpt lat="45.93038" lon="4.72871">
        <ele>172</ele>
        <time>2018-03-04T12:04:00Z</time>
      </trkpt>
      <trkpt lat="45.93031" lon="4.72879">
        <ele>172</ele>
        <time>2018-03-04T12:04:02Z</time>
      </trkpt>
      <trkpt lat="45.93029" lon="4.72881">
        <ele>172</ele>
        <time>2018-03-04T12:04:03Z</time>
      </trkpt>
      <trkpt lat="45.93023" lon="4.72889">
        <ele>172</ele>
        <time>2018-03-04T12:04:05Z</time>
      </trkpt>
      <trkpt lat="45.9302" lon="4.72892">
        <ele>172</ele>
        <time>2018-03-04T12:04:06Z</time>
      </trkpt>
      <trkpt lat="45.93013" lon="4.72899">
        <ele>172</ele>
        <time>2018-03-04T12:04:08Z</time>
      </trkpt>
      <trkpt lat="45.9301" lon="4.72903">
        <ele>172</ele>
        <time>2018-03-04T12:04:09Z</time>
      </trkpt>
      <trkpt lat="45.93004" lon="4.72912">
        <ele>171</ele>
        <time>2018-03-04T12:04:11Z</time>
      </trkpt>
      <trkpt lat="45.93001" lon="4.72916">
        <ele>171</ele>
        <time>2018-03-04T12:04:12Z</time>
      </trkpt>
      <trkpt lat="45.92994" lon="4.72924">
        <ele>171</ele>
        <time>2018-03-04T12:04:14Z</time>
      </trkpt>
      <trkpt lat="45.92991" lon="4.72928">
        <ele>171</ele>
        <time>2018-03-04T12:04:15Z</time>
      </trkpt>
      <trkpt lat="45.92985" lon="4.72935">
        <ele>171</ele>
        <time>2018-03-04T12:04:17Z</time>
      </trkpt>
      <trkpt lat="45.92983" lon="4.72937">
        <ele>171</ele>
        <time>2018-03-04T12:04:18Z</time>
      </trkpt>
      <trkpt lat="45.92981" lon="4.72939">
        <ele>171</ele>
        <time>2018-03-04T12:04:19Z</time>
      </trkpt>
      <trkpt lat="45.92976" lon="4.72945">
        <ele>171</ele>
        <time>2018-03-04T12:04:20Z</time>
      </trkpt>
      <trkpt lat="45.9297" lon="4.72952">
        <ele>171</ele>
        <time>2018-03-04T12:04:22Z</time>
      </trkpt>
      <trkpt lat="45.92968" lon="4.72954">
        <ele>171</ele>
        <time>2018-03-04T12:04:23Z</time>
      </trkpt>
      <trkpt lat="45.92964" lon="4.72959">
        <ele>171</ele>
        <time>2018-03-04T12:04:24Z</time>
      </trkpt>
      <trkpt lat="45.92961" lon="4.72963">
        <ele>171</ele>
        <time>2018-03-04T12:04:25Z</time>
      </trkpt>
      <trkpt lat="45.92955" lon="4.7297">
        <ele>171</ele>
        <time>2018-03-04T12:04:28Z</time>
      </trkpt>
      <trkpt lat="45.92953" lon="4.72972">
        <ele>171</ele>
        <time>2018-03-04T12:04:29Z</time>
      </trkpt>
      <trkpt lat="45.92947" lon="4.7298">
        <ele>171</ele>
        <time>2018-03-04T12:04:32Z</time>
      </trkpt>
      <trkpt lat="45.92944" lon="4.72983">
        <ele>171</ele>
        <time>2018-03-04T12:04:33Z</time>
      </trkpt>
      <trkpt lat="45.92938" lon="4.72991">
        <ele>171</ele>
        <time>2018-03-04T12:04:36Z</time>
      </trkpt>
      <trkpt lat="45.92936" lon="4.72994">
        <ele>172</ele>
        <time>2018-03-04T12:04:37Z</time>
      </trkpt>
      <trkpt lat="45.92929" lon="4.73002">
        <ele>172</ele>
        <time>2018-03-04T12:04:40Z</time>
      </trkpt>
      <trkpt lat="45.92927" lon="4.73005">
        <ele>172</ele>
        <time>2018-03-04T12:04:41Z</time>
      </trkpt>
      <trkpt lat="45.9292" lon="4.73013">
        <ele>172</ele>
        <time>2018-03-04T12:04:44Z</time>
      </trkpt>
      <trkpt lat="45.92918" lon="4.73016">
        <ele>172</ele>
        <time>2018-03-04T12:04:45Z</time>
      </trkpt>
      <trkpt lat="45.92911" lon="4.73024">
        <ele>172</ele>
        <time>2018-03-04T12:04:48Z</time>
      </trkpt>
      <trkpt lat="45.92909" lon="4.73026">
        <ele>172</ele>
        <time>2018-03-04T12:04:49Z</time>
      </trkpt>
      <trkpt lat="45.92903" lon="4.73035">
        <ele>172</ele>
        <time>2018-03-04T12:04:52Z</time>
      </trkpt>
      <trkpt lat="45.929" lon="4.73038">
        <ele>172</ele>
        <time>2018-03-04T12:04:53Z</time>
      </trkpt>
      <trkpt lat="45.92896" lon="4.73045">
        <ele>172</ele>
        <time>2018-03-04T12:04:55Z</time>
      </trkpt>
      <trkpt lat="45.92894" lon="4.73048">
        <ele>172</ele>
        <time>2018-03-04T12:04:56Z</time>
      </trkpt>
      <trkpt lat="45.92892" lon="4.73052">
        <ele>172</ele>
        <time>2018-03-04T12:04:57Z</time>
      </trkpt>
      <trkpt lat="45.92885" lon="4.73062">
        <ele>172</ele>
        <time>2018-03-04T12:04:58Z</time>
      </trkpt>
      <trkpt lat="45.9288" lon="4.7307">
        <ele>172</ele>
        <time>2018-03-04T12:05:01Z</time>
      </trkpt>
      <trkpt lat="45.92879" lon="4.73072">
        <ele>172</ele>
        <time>2018-03-04T12:05:02Z</time>
      </trkpt>
      <trkpt lat="45.92873" lon="4.7308">
        <ele>172</ele>
        <time>2018-03-04T12:05:05Z</time>
      </trkpt>
      <trkpt lat="45.9287" lon="4.73083">
        <ele>172</ele>
        <time>2018-03-04T12:05:06Z</time>
      </trkpt>
      <trkpt lat="45.92865" lon="4.73088">
        <ele>172</ele>
        <time>2018-03-04T12:05:08Z</time>
      </trkpt>
      <trkpt lat="45.92863" lon="4.73091">
        <ele>171</ele>
        <time>2018-03-04T12:05:09Z</time>
      </trkpt>
      <trkpt lat="45.92858" lon="4.73097">
        <ele>171</ele>
        <time>2018-03-04T12:05:11Z</time>
      </trkpt>
      <trkpt lat="45.92855" lon="4.73099">
        <ele>171</ele>
        <time>2018-03-04T12:05:12Z</time>
      </trkpt>
      <trkpt lat="45.92847" lon="4.73099">
        <ele>171</ele>
        <time>2018-03-04T12:05:15Z</time>
      </trkpt>
      <trkpt lat="45.92842" lon="4.7309">
        <ele>171</ele>
        <time>2018-03-04T12:05:16Z</time>
      </trkpt>
      <trkpt lat="45.92841" lon="4.73078">
        <ele>171</ele>
        <time>2018-03-04T12:05:18Z</time>
      </trkpt>
      <trkpt lat="45.92841" lon="4.73073">
        <ele>171</ele>
        <time>2018-03-04T12:05:19Z</time>
      </trkpt>
      <trkpt lat="45.9284" lon="4.73066">
        <ele>171</ele>
        <time>2018-03-04T12:05:20Z</time>
      </trkpt>
      <trkpt lat="45.9284" lon="4.73059">
        <ele>171</ele>
        <time>2018-03-04T12:05:21Z</time>
      </trkpt>
      <trkpt lat="45.92839" lon="4.73053">
        <ele>171</ele>
        <time>2018-03-04T12:05:22Z</time>
      </trkpt>
      <trkpt lat="45.92838" lon="4.73047">
        <ele>171</ele>
        <time>2018-03-04T12:05:23Z</time>
      </trkpt>
      <trkpt lat="45.92836" lon="4.73035">
        <ele>171</ele>
        <time>2018-03-04T12:05:25Z</time>
      </trkpt>
      <trkpt lat="45.92835" lon="4.73029">
        <ele>171</ele>
        <time>2018-03-04T12:05:26Z</time>
      </trkpt>
      <trkpt lat="45.92833" lon="4.73019">
        <ele>170</ele>
        <time>2018-03-04T12:05:28Z</time>
      </trkpt>
      <trkpt lat="45.92831" lon="4.73013">
        <ele>170</ele>
        <time>2018-03-04T12:05:29Z</time>
      </trkpt>
      <trkpt lat="45.92829" lon="4.73002">
        <ele>170</ele>
        <time>2018-03-04T12:05:31Z</time>
      </trkpt>
      <trkpt lat="45.92828" lon="4.72997">
        <ele>170</ele>
        <time>2018-03-04T12:05:32Z</time>
      </trkpt>
      <trkpt lat="45.92827" lon="4.72986">
        <ele>170</ele>
        <time>2018-03-04T12:05:34Z</time>
      </trkpt>
      <trkpt lat="45.92827" lon="4.72981">
        <ele>170</ele>
        <time>2018-03-04T12:05:35Z</time>
      </trkpt>
      <trkpt lat="45.92826" lon="4.7297">
        <ele>170</ele>
        <time>2018-03-04T12:05:37Z</time>
      </trkpt>
      <trkpt lat="45.92825" lon="4.72965">
        <ele>170</ele>
        <time>2018-03-04T12:05:38Z</time>
      </trkpt>
      <trkpt lat="45.92824" lon="4.72953">
        <ele>170</ele>
        <time>2018-03-04T12:05:40Z</time>
      </trkpt>
      <trkpt lat="45.92824" lon="4.72948">
        <ele>170</ele>
        <time>2018-03-04T12:05:41Z</time>
      </trkpt>
      <trkpt lat="45.92823" lon="4.72935">
        <ele>170</ele>
        <time>2018-03-04T12:05:43Z</time>
      </trkpt>
      <trkpt lat="45.92822" lon="4.72929">
        <ele>170</ele>
        <time>2018-03-04T12:05:44Z</time>
      </trkpt>
      <trkpt lat="45.92821" lon="4.72917">
        <ele>170</ele>
        <time>2018-03-04T12:05:46Z</time>
      </trkpt>
      <trkpt lat="45.9282" lon="4.72911">
        <ele>170</ele>
        <time>2018-03-04T12:05:47Z</time>
      </trkpt>
      <trkpt lat="45.92819" lon="4.729">
        <ele>170</ele>
        <time>2018-03-04T12:05:49Z</time>
      </trkpt>
      <trkpt lat="45.92818" lon="4.72895">
        <ele>170</ele>
        <time>2018-03-04T12:05:50Z</time>
      </trkpt>
      <trkpt lat="45.92816" lon="4.72884">
        <ele>170</ele>
        <time>2018-03-04T12:05:52Z</time>
      </trkpt>
      <trkpt lat="45.92815" lon="4.72878">
        <ele>170</ele>
        <time>2018-03-04T12:05:53Z</time>
      </trkpt>
      <trkpt lat="45.92812" lon="4.72867">
        <ele>170</ele>
        <time>2018-03-04T12:05:55Z</time>
      </trkpt>
      <trkpt lat="45.92812" lon="4.72861">
        <ele>170</ele>
        <time>2018-03-04T12:05:56Z</time>
      </trkpt>
      <trkpt lat="45.92809" lon="4.7285">
        <ele>170</ele>
        <time>2018-03-04T12:05:58Z</time>
      </trkpt>
      <trkpt lat="45.92808" lon="4.72845">
        <ele>170</ele>
        <time>2018-03-04T12:05:59Z</time>
      </trkpt>
      <trkpt lat="45.92806" lon="4.72833">
        <ele>171</ele>
        <time>2018-03-04T12:06:01Z</time>
      </trkpt>
      <trkpt lat="45.92805" lon="4.72827">
        <ele>171</ele>
        <time>2018-03-04T12:06:02Z</time>
      </trkpt>
      <trkpt lat="45.92804" lon="4.72816">
        <ele>171</ele>
        <time>2018-03-04T12:06:04Z</time>
      </trkpt>
      <trkpt lat="45.92803" lon="4.7281">
        <ele>171</ele>
        <time>2018-03-04T12:06:05Z</time>
      </trkpt>
      <trkpt lat="45.928" lon="4.72798">
        <ele>171</ele>
        <time>2018-03-04T12:06:08Z</time>
      </trkpt>
      <trkpt lat="45.92799" lon="4.72795">
        <ele>171</ele>
        <time>2018-03-04T12:06:09Z</time>
      </trkpt>
      <trkpt lat="45.92793" lon="4.7279">
        <ele>171</ele>
        <time>2018-03-04T12:06:12Z</time>
      </trkpt>
      <trkpt lat="45.9279" lon="4.72791">
        <ele>170</ele>
        <time>2018-03-04T12:06:13Z</time>
      </trkpt>
      <trkpt lat="45.92784" lon="4.72795">
        <ele>170</ele>
        <time>2018-03-04T12:06:15Z</time>
      </trkpt>
      <trkpt lat="45.92781" lon="4.72797">
        <ele>170</ele>
        <time>2018-03-04T12:06:16Z</time>
      </trkpt>
      <trkpt lat="45.92775" lon="4.72801">
        <ele>170</ele>
        <time>2018-03-04T12:06:18Z</time>
      </trkpt>
      <trkpt lat="45.92766" lon="4.72808">
        <ele>170</ele>
        <time>2018-03-04T12:06:19Z</time>
      </trkpt>
      <trkpt lat="45.92759" lon="4.72813">
        <ele>170</ele>
        <time>2018-03-04T12:06:23Z</time>
      </trkpt>
      <trkpt lat="45.92752" lon="4.72818">
        <ele>170</ele>
        <time>2018-03-04T12:06:24Z</time>
      </trkpt>
      <trkpt lat="45.92745" lon="4.72823">
        <ele>169</ele>
        <time>2018-03-04T12:06:26Z</time>
      </trkpt>
      <trkpt lat="45.92744" lon="4.72824">
        <ele>169</ele>
        <time>2018-03-04T12:06:27Z</time>
      </trkpt>
      <trkpt lat="45.92736" lon="4.7283">
        <ele>169</ele>
        <time>2018-03-04T12:06:29Z</time>
      </trkpt>
      <trkpt lat="45.92734" lon="4.72831">
        <ele>169</ele>
        <time>2018-03-04T12:06:30Z</time>
      </trkpt>
      <trkpt lat="45.92728" lon="4.72836">
        <ele>169</ele>
        <time>2018-03-04T12:06:33Z</time>
      </trkpt>
      <trkpt lat="45.92725" lon="4.72838">
        <ele>169</ele>
        <time>2018-03-04T12:06:34Z</time>
      </trkpt>
      <trkpt lat="45.92717" lon="4.72843">
        <ele>169</ele>
        <time>2018-03-04T12:06:37Z</time>
      </trkpt>
      <trkpt lat="45.92714" lon="4.72846">
        <ele>169</ele>
        <time>2018-03-04T12:06:38Z</time>
      </trkpt>
      <trkpt lat="45.92709" lon="4.72851">
        <ele>169</ele>
        <time>2018-03-04T12:06:40Z</time>
      </trkpt>
      <trkpt lat="45.92706" lon="4.72853">
        <ele>169</ele>
        <time>2018-03-04T12:06:41Z</time>
      </trkpt>
      <trkpt lat="45.92701" lon="4.72858">
        <ele>169</ele>
        <time>2018-03-04T12:06:43Z</time>
      </trkpt>
      <trkpt lat="45.92698" lon="4.7286">
        <ele>169</ele>
        <time>2018-03-04T12:06:44Z</time>
      </trkpt>
      <trkpt lat="45.92692" lon="4.72864">
        <ele>169</ele>
        <time>2018-03-04T12:06:46Z</time>
      </trkpt>
      <trkpt lat="45.9269" lon="4.72867">
        <ele>169</ele>
        <time>2018-03-04T12:06:47Z</time>
      </trkpt>
      <trkpt lat="45.92684" lon="4.72871">
        <ele>169</ele>
        <time>2018-03-04T12:06:49Z</time>
      </trkpt>
      <trkpt lat="45.92681" lon="4.72873">
        <ele>169</ele>
        <time>2018-03-04T12:06:50Z</time>
      </trkpt>
      <trkpt lat="45.92676" lon="4.72877">
        <ele>170</ele>
        <time>2018-03-04T12:06:52Z</time>
      </trkpt>
      <trkpt lat="45.92673" lon="4.72878">
        <ele>170</ele>
        <time>2018-03-04T12:06:53Z</time>
      </trkpt>
      <trkpt lat="45.92667" lon="4.72882">
        <ele>170</ele>
        <time>2018-03-04T12:06:55Z</time>
      </trkpt>
      <trkpt lat="45.92664" lon="4.72884">
        <ele>169</ele>
        <time>2018-03-04T12:06:56Z</time>
      </trkpt>
      <trkpt lat="45.92659" lon="4.72889">
        <ele>169</ele>
        <time>2018-03-04T12:06:58Z</time>
      </trkpt>
      <trkpt lat="45.92657" lon="4.72891">
        <ele>169</ele>
        <time>2018-03-04T12:06:59Z</time>
      </trkpt>
      <trkpt lat="45.92651" lon="4.72895">
        <ele>169</ele>
        <time>2018-03-04T12:07:01Z</time>
      </trkpt>
      <trkpt lat="45.92648" lon="4.72897">
        <ele>169</ele>
        <time>2018-03-04T12:07:02Z</time>
      </trkpt>
      <trkpt lat="45.92643" lon="4.72901">
        <ele>169</ele>
        <time>2018-03-04T12:07:04Z</time>
      </trkpt>
      <trkpt lat="45.9264" lon="4.72903">
        <ele>169</ele>
        <time>2018-03-04T12:07:05Z</time>
      </trkpt>
      <trkpt lat="45.92635" lon="4.72908">
        <ele>169</ele>
        <time>2018-03-04T12:07:07Z</time>
      </trkpt>
      <trkpt lat="45.92632" lon="4.72911">
        <ele>169</ele>
        <time>2018-03-04T12:07:08Z</time>
      </trkpt>
      <trkpt lat="45.92626" lon="4.72916">
        <ele>169</ele>
        <time>2018-03-04T12:07:10Z</time>
      </trkpt>
      <trkpt lat="45.92623" lon="4.72918">
        <ele>169</ele>
        <time>2018-03-04T12:07:11Z</time>
      </trkpt>
      <trkpt lat="45.92618" lon="4.72923">
        <ele>169</ele>
        <time>2018-03-04T12:07:13Z</time>
      </trkpt>
      <trkpt lat="45.92615" lon="4.72925">
        <ele>169</ele>
        <time>2018-03-04T12:07:14Z</time>
      </trkpt>
      <trkpt lat="45.92609" lon="4.72931">
        <ele>169</ele>
        <time>2018-03-04T12:07:16Z</time>
      </trkpt>
      <trkpt lat="45.92607" lon="4.72933">
        <ele>169</ele>
        <time>2018-03-04T12:07:17Z</time>
      </trkpt>
      <trkpt lat="45.92601" lon="4.72939">
        <ele>169</ele>
        <time>2018-03-04T12:07:19Z</time>
      </trkpt>
      <trkpt lat="45.92599" lon="4.72941">
        <ele>169</ele>
        <time>2018-03-04T12:07:20Z</time>
      </trkpt>
      <trkpt lat="45.92594" lon="4.72947">
        <ele>169</ele>
        <time>2018-03-04T12:07:22Z</time>
      </trkpt>
      <trkpt lat="45.92592" lon="4.7295">
        <ele>169</ele>
        <time>2018-03-04T12:07:23Z</time>
      </trkpt>
      <trkpt lat="45.92588" lon="4.72956">
        <ele>169</ele>
        <time>2018-03-04T12:07:25Z</time>
      </trkpt>
      <trkpt lat="45.92585" lon="4.72959">
        <ele>169</ele>
        <time>2018-03-04T12:07:26Z</time>
      </trkpt>
      <trkpt lat="45.9258" lon="4.72964">
        <ele>169</ele>
        <time>2018-03-04T12:07:28Z</time>
      </trkpt>
      <trkpt lat="45.92577" lon="4.72967">
        <ele>169</ele>
        <time>2018-03-04T12:07:29Z</time>
      </trkpt>
      <trkpt lat="45.92572" lon="4.72973">
        <ele>169</ele>
        <time>2018-03-04T12:07:31Z</time>
      </trkpt>
      <trkpt lat="45.92569" lon="4.72975">
        <ele>169</ele>
        <time>2018-03-04T12:07:32Z</time>
      </trkpt>
      <trkpt lat="45.92564" lon="4.7298">
        <ele>169</ele>
        <time>2018-03-04T12:07:34Z</time>
      </trkpt>
      <trkpt lat="45.92561" lon="4.72983">
        <ele>169</ele>
        <time>2018-03-04T12:07:35Z</time>
      </trkpt>
      <trkpt lat="45.92556" lon="4.72988">
        <ele>169</ele>
        <time>2018-03-04T12:07:37Z</time>
      </trkpt>
      <trkpt lat="45.92554" lon="4.72991">
        <ele>169</ele>
        <time>2018-03-04T12:07:38Z</time>
      </trkpt>
      <trkpt lat="45.92549" lon="4.72996">
        <ele>169</ele>
        <time>2018-03-04T12:07:40Z</time>
      </trkpt>
      <trkpt lat="45.92546" lon="4.72998">
        <ele>169</ele>
        <time>2018-03-04T12:07:41Z</time>
      </trkpt>
      <trkpt lat="45.92541" lon="4.73002">
        <ele>169</ele>
        <time>2018-03-04T12:07:43Z</time>
      </trkpt>
      <trkpt lat="45.92538" lon="4.73005">
        <ele>169</ele>
        <time>2018-03-04T12:07:44Z</time>
      </trkpt>
      <trkpt lat="45.92531" lon="4.73012">
        <ele>169</ele>
        <time>2018-03-04T12:07:47Z</time>
      </trkpt>
      <trkpt lat="45.92529" lon="4.73014">
        <ele>169</ele>
        <time>2018-03-04T12:07:48Z</time>
      </trkpt>
      <trkpt lat="45.92522" lon="4.73021">
        <ele>169</ele>
        <time>2018-03-04T12:07:51Z</time>
      </trkpt>
      <trkpt lat="45.92519" lon="4.73023">
        <ele>169</ele>
        <time>2018-03-04T12:07:52Z</time>
      </trkpt>
      <trkpt lat="45.92512" lon="4.73029">
        <ele>169</ele>
        <time>2018-03-04T12:07:55Z</time>
      </trkpt>
      <trkpt lat="45.9251" lon="4.73031">
        <ele>169</ele>
        <time>2018-03-04T12:07:56Z</time>
      </trkpt>
      <trkpt lat="45.92502" lon="4.73037">
        <ele>169</ele>
        <time>2018-03-04T12:07:59Z</time>
      </trkpt>
      <trkpt lat="45.92499" lon="4.7304">
        <ele>170</ele>
        <time>2018-03-04T12:08:00Z</time>
      </trkpt>
      <trkpt lat="45.92492" lon="4.73046">
        <ele>170</ele>
        <time>2018-03-04T12:08:03Z</time>
      </trkpt>
      <trkpt lat="45.92489" lon="4.73048">
        <ele>170</ele>
        <time>2018-03-04T12:08:04Z</time>
      </trkpt>
      <trkpt lat="45.92484" lon="4.73053">
        <ele>170</ele>
        <time>2018-03-04T12:08:06Z</time>
      </trkpt>
      <trkpt lat="45.92482" lon="4.73055">
        <ele>170</ele>
        <time>2018-03-04T12:08:07Z</time>
      </trkpt>
      <trkpt lat="45.92477" lon="4.7306">
        <ele>170</ele>
        <time>2018-03-04T12:08:09Z</time>
      </trkpt>
      <trkpt lat="45.92474" lon="4.73063">
        <ele>170</ele>
        <time>2018-03-04T12:08:10Z</time>
      </trkpt>
      <trkpt lat="45.92467" lon="4.73069">
        <ele>170</ele>
        <time>2018-03-04T12:08:13Z</time>
      </trkpt>
      <trkpt lat="45.92464" lon="4.73072">
        <ele>170</ele>
        <time>2018-03-04T12:08:14Z</time>
      </trkpt>
      <trkpt lat="45.92457" lon="4.73078">
        <ele>170</ele>
        <time>2018-03-04T12:08:17Z</time>
      </trkpt>
      <trkpt lat="45.92455" lon="4.7308">
        <ele>170</ele>
        <time>2018-03-04T12:08:18Z</time>
      </trkpt>
      <trkpt lat="45.92448" lon="4.73086">
        <ele>170</ele>
        <time>2018-03-04T12:08:21Z</time>
      </trkpt>
      <trkpt lat="45.92446" lon="4.73088">
        <ele>170</ele>
        <time>2018-03-04T12:08:22Z</time>
      </trkpt>
      <trkpt lat="45.92439" lon="4.73095">
        <ele>171</ele>
        <time>2018-03-04T12:08:25Z</time>
      </trkpt>
      <trkpt lat="45.92437" lon="4.73097">
        <ele>171</ele>
        <time>2018-03-04T12:08:26Z</time>
      </trkpt>
      <trkpt lat="45.92431" lon="4.73104">
        <ele>171</ele>
        <time>2018-03-04T12:08:29Z</time>
      </trkpt>
      <trkpt lat="45.92428" lon="4.73106">
        <ele>170</ele>
        <time>2018-03-04T12:08:30Z</time>
      </trkpt>
      <trkpt lat="45.92421" lon="4.73111">
        <ele>170</ele>
        <time>2018-03-04T12:08:33Z</time>
      </trkpt>
      <trkpt lat="45.92419" lon="4.73113">
        <ele>170</ele>
        <time>2018-03-04T12:08:34Z</time>
      </trkpt>
      <trkpt lat="45.92413" lon="4.73119">
        <ele>171</ele>
        <time>2018-03-04T12:08:37Z</time>
      </trkpt>
      <trkpt lat="45.92411" lon="4.73121">
        <ele>171</ele>
        <time>2018-03-04T12:08:38Z</time>
      </trkpt>
      <trkpt lat="45.92406" lon="4.73129">
        <ele>171</ele>
        <time>2018-03-04T12:08:41Z</time>
      </trkpt>
      <trkpt lat="45.92405" lon="4.73133">
        <ele>171</ele>
        <time>2018-03-04T12:08:42Z</time>
      </trkpt>
      <trkpt lat="45.92404" lon="4.73143">
        <ele>171</ele>
        <time>2018-03-04T12:08:44Z</time>
      </trkpt>
      <trkpt lat="45.92404" lon="4.73147">
        <ele>171</ele>
        <time>2018-03-04T12:08:45Z</time>
      </trkpt>
      <trkpt lat="45.92404" lon="4.73157">
        <ele>171</ele>
        <time>2018-03-04T12:08:47Z</time>
      </trkpt>
      <trkpt lat="45.92404" lon="4.73161">
        <ele>170</ele>
        <time>2018-03-04T12:08:48Z</time>
      </trkpt>
      <trkpt lat="45.92404" lon="4.73171">
        <ele>171</ele>
        <time>2018-03-04T12:08:50Z</time>
      </trkpt>
      <trkpt lat="45.92405" lon="4.73176">
        <ele>171</ele>
        <time>2018-03-04T12:08:51Z</time>
      </trkpt>
      <trkpt lat="45.92405" lon="4.73186">
        <ele>171</ele>
        <time>2018-03-04T12:08:53Z</time>
      </trkpt>
      <trkpt lat="45.92406" lon="4.73191">
        <ele>171</ele>
        <time>2018-03-04T12:08:54Z</time>
      </trkpt>
      <trkpt lat="45.92406" lon="4.73201">
        <ele>171</ele>
        <time>2018-03-04T12:08:56Z</time>
      </trkpt>
      <trkpt lat="45.92406" lon="4.73205">
        <ele>171</ele>
        <time>2018-03-04T12:08:57Z</time>
      </trkpt>
      <trkpt lat="45.92407" lon="4.73215">
        <ele>171</ele>
        <time>2018-03-04T12:08:59Z</time>
      </trkpt>
      <trkpt lat="45.92408" lon="4.73219">
        <ele>171</ele>
        <time>2018-03-04T12:09:00Z</time>
      </trkpt>
      <trkpt lat="45.92409" lon="4.73228">
        <ele>171</ele>
        <time>2018-03-04T12:09:02Z</time>
      </trkpt>
      <trkpt lat="45.92409" lon="4.73233">
        <ele>171</ele>
        <time>2018-03-04T12:09:03Z</time>
      </trkpt>
      <trkpt lat="45.92411" lon="4.73247">
        <ele>171</ele>
        <time>2018-03-04T12:09:04Z</time>
      </trkpt>
      <trkpt lat="45.92411" lon="4.73257">
        <ele>171</ele>
        <time>2018-03-04T12:09:06Z</time>
      </trkpt>
      <trkpt lat="45.92411" lon="4.73262">
        <ele>171</ele>
        <time>2018-03-04T12:09:07Z</time>
      </trkpt>
      <trkpt lat="45.92412" lon="4.73272">
        <ele>171</ele>
        <time>2018-03-04T12:09:09Z</time>
      </trkpt>
      <trkpt lat="45.92412" lon="4.73278">
        <ele>171</ele>
        <time>2018-03-04T12:09:10Z</time>
      </trkpt>
      <trkpt lat="45.92412" lon="4.73288">
        <ele>171</ele>
        <time>2018-03-04T12:09:12Z</time>
      </trkpt>
      <trkpt lat="45.92412" lon="4.73294">
        <ele>171</ele>
        <time>2018-03-04T12:09:13Z</time>
      </trkpt>
      <trkpt lat="45.92413" lon="4.73304">
        <ele>171</ele>
        <time>2018-03-04T12:09:15Z</time>
      </trkpt>
      <trkpt lat="45.92413" lon="4.73307">
        <ele>171</ele>
        <time>2018-03-04T12:09:16Z</time>
      </trkpt>
      <trkpt lat="45.92413" lon="4.73314">
        <ele>171</ele>
        <time>2018-03-04T12:09:18Z</time>
      </trkpt>
      <trkpt lat="45.92413" lon="4.73325">
        <ele>171</ele>
        <time>2018-03-04T12:09:19Z</time>
      </trkpt>
      <trkpt lat="45.92414" lon="4.73336">
        <ele>171</ele>
        <time>2018-03-04T12:09:21Z</time>
      </trkpt>
      <trkpt lat="45.92414" lon="4.73342">
        <ele>171</ele>
        <time>2018-03-04T12:09:22Z</time>
      </trkpt>
      <trkpt lat="45.92416" lon="4.73353">
        <ele>171</ele>
        <time>2018-03-04T12:09:24Z</time>
      </trkpt>
      <trkpt lat="45.92416" lon="4.73356">
        <ele>171</ele>
        <time>2018-03-04T12:09:25Z</time>
      </trkpt>
      <trkpt lat="45.92417" lon="4.73363">
        <ele>171</ele>
        <time>2018-03-04T12:09:26Z</time>
      </trkpt>
      <trkpt lat="45.92418" lon="4.73368">
        <ele>172</ele>
        <time>2018-03-04T12:09:27Z</time>
      </trkpt>
      <trkpt lat="45.9242" lon="4.73379">
        <ele>172</ele>
        <time>2018-03-04T12:09:29Z</time>
      </trkpt>
      <trkpt lat="45.92421" lon="4.73385">
        <ele>172</ele>
        <time>2018-03-04T12:09:30Z</time>
      </trkpt>
      <trkpt lat="45.92423" lon="4.73395">
        <ele>172</ele>
        <time>2018-03-04T12:09:32Z</time>
      </trkpt>
      <trkpt lat="45.92425" lon="4.734">
        <ele>172</ele>
        <time>2018-03-04T12:09:33Z</time>
      </trkpt>
      <trkpt lat="45.92429" lon="4.7341">
        <ele>172</ele>
        <time>2018-03-04T12:09:35Z</time>
      </trkpt>
      <trkpt lat="45.92431" lon="4.73414">
        <ele>172</ele>
        <time>2018-03-04T12:09:36Z</time>
      </trkpt>
      <trkpt lat="45.92438" lon="4.73421">
        <ele>173</ele>
        <time>2018-03-04T12:09:39Z</time>
      </trkpt>
      <trkpt lat="45.92444" lon="4.73425">
        <ele>173</ele>
        <time>2018-03-04T12:09:40Z</time>
      </trkpt>
      <trkpt lat="45.92452" lon="4.73429">
        <ele>173</ele>
        <time>2018-03-04T12:09:42Z</time>
      </trkpt>
      <trkpt lat="45.92455" lon="4.73432">
        <ele>173</ele>
        <time>2018-03-04T12:09:43Z</time>
      </trkpt>
      <trkpt lat="45.92458" lon="4.73436">
        <ele>173</ele>
        <time>2018-03-04T12:09:44Z</time>
      </trkpt>
      <trkpt lat="45.92461" lon="4.73441">
        <ele>173</ele>
        <time>2018-03-04T12:09:45Z</time>
      </trkpt>
      <trkpt lat="45.92466" lon="4.73452">
        <ele>173</ele>
        <time>2018-03-04T12:09:47Z</time>
      </trkpt>
      <trkpt lat="45.92468" lon="4.73458">
        <ele>173</ele>
        <time>2018-03-04T12:09:48Z</time>
      </trkpt>
      <trkpt lat="45.92469" lon="4.73469">
        <ele>173</ele>
        <time>2018-03-04T12:09:50Z</time>
      </trkpt>
      <trkpt lat="45.92469" lon="4.73475">
        <ele>173</ele>
        <time>2018-03-04T12:09:51Z</time>
      </trkpt>
      <trkpt lat="45.92468" lon="4.73483">
        <ele>173</ele>
        <time>2018-03-04T12:09:53Z</time>
      </trkpt>
      <trkpt lat="45.92467" lon="4.73491">
        <ele>173</ele>
        <time>2018-03-04T12:09:54Z</time>
      </trkpt>
      <trkpt lat="45.92467" lon="4.73503">
        <ele>174</ele>
        <time>2018-03-04T12:09:56Z</time>
      </trkpt>
      <trkpt lat="45.92467" lon="4.73509">
        <ele>174</ele>
        <time>2018-03-04T12:09:57Z</time>
      </trkpt>
      <trkpt lat="45.92467" lon="4.73521">
        <ele>174</ele>
        <time>2018-03-04T12:09:59Z</time>
      </trkpt>
      <trkpt lat="45.92467" lon="4.73527">
        <ele>174</ele>
        <time>2018-03-04T12:10:00Z</time>
      </trkpt>
      <trkpt lat="45.92466" lon="4.73538">
        <ele>174</ele>
        <time>2018-03-04T12:10:02Z</time>
      </trkpt>
      <trkpt lat="45.92465" lon="4.73544">
        <ele>173</ele>
        <time>2018-03-04T12:10:03Z</time>
      </trkpt>
      <trkpt lat="45.92463" lon="4.73553">
        <ele>173</ele>
        <time>2018-03-04T12:10:06Z</time>
      </trkpt>
      <trkpt lat="45.92463" lon="4.73566">
        <ele>173</ele>
        <time>2018-03-04T12:10:07Z</time>
      </trkpt>
      <trkpt lat="45.92463" lon="4.73573">
        <ele>173</ele>
        <time>2018-03-04T12:10:08Z</time>
      </trkpt>
      <trkpt lat="45.92463" lon="4.7358">
        <ele>173</ele>
        <time>2018-03-04T12:10:09Z</time>
      </trkpt>
      <trkpt lat="45.92463" lon="4.73587">
        <ele>174</ele>
        <time>2018-03-04T12:10:10Z</time>
      </trkpt>
      <trkpt lat="45.92464" lon="4.73595">
        <ele>174</ele>
        <time>2018-03-04T12:10:11Z</time>
      </trkpt>
      <trkpt lat="45.92464" lon="4.73603">
        <ele>174</ele>
        <time>2018-03-04T12:10:12Z</time>
      </trkpt>
      <trkpt lat="45.92465" lon="4.73611">
        <ele>174</ele>
        <time>2018-03-04T12:10:13Z</time>
      </trkpt>
      <trkpt lat="45.92466" lon="4.7362">
        <ele>174</ele>
        <time>2018-03-04T12:10:14Z</time>
      </trkpt>
      <trkpt lat="45.92466" lon="4.73627">
        <ele>174</ele>
        <time>2018-03-04T12:10:15Z</time>
      </trkpt>
      <trkpt lat="45.92466" lon="4.73633">
        <ele>174</ele>
        <time>2018-03-04T12:10:16Z</time>
      </trkpt>
      <trkpt lat="45.92465" lon="4.7364">
        <ele>174</ele>
        <time>2018-03-04T12:10:17Z</time>
      </trkpt>
      <trkpt lat="45.92466" lon="4.73652">
        <ele>174</ele>
        <time>2018-03-04T12:10:19Z</time>
      </trkpt>
      <trkpt lat="45.92465" lon="4.73657">
        <ele>174</ele>
        <time>2018-03-04T12:10:20Z</time>
      </trkpt>
      <trkpt lat="45.92465" lon="4.73669">
        <ele>174</ele>
        <time>2018-03-04T12:10:22Z</time>
      </trkpt>
      <trkpt lat="45.92465" lon="4.73676">
        <ele>174</ele>
        <time>2018-03-04T12:10:23Z</time>
      </trkpt>
      <trkpt lat="45.92465" lon="4.73687">
        <ele>174</ele>
        <time>2018-03-04T12:10:25Z</time>
      </trkpt>
      <trkpt lat="45.92465" lon="4.73693">
        <ele>174</ele>
        <time>2018-03-04T12:10:26Z</time>
      </trkpt>
      <trkpt lat="45.92464" lon="4.73704">
        <ele>174</ele>
        <time>2018-03-04T12:10:30Z</time>
      </trkpt>
      <trkpt lat="45.92463" lon="4.73706">
        <ele>174</ele>
        <time>2018-03-04T12:10:31Z</time>
      </trkpt>
      <trkpt lat="45.92457" lon="4.73715">
        <ele>174</ele>
        <time>2018-03-04T12:10:53Z</time>
      </trkpt>
      <trkpt lat="45.92457" lon="4.73715">
        <ele>174</ele>
        <time>2018-03-04T12:10:54Z</time>
      </trkpt>
      <trkpt lat="45.92457" lon="4.73716">
        <ele>174</ele>
        <time>2018-03-04T12:11:13.234Z</time>
      </trkpt>
    </trkseg>
  </trk>
</gpx>